<?xml version="1.0" encoding="UTF-8"?>
<gpx version="1.1" creator=" " xmlns="http://www.topografix.com/GPX/1/1" xmlns:xsi="http://www.w3.org/2001/XMLSchema-instance" xsi:schemaLocation="http://www.topografix.com/GPX/1/1 http://www.topografix.com/GPX/1/1/gpx.xsd">
<metadata>
<name>TL Güglingen - Edenkoben</name>
<desc></desc>
<link href="">
<text>  </text>
</link>
<time>2023-05-17T09:12:52Z</time>
</metadata>
<trk>
<trkseg>
<trkpt lat="49.06683194451034" lon="8.999699978157878">
<ele>214.60000000000002</ele>
</trkpt>
<trkpt lat="49.06683194451034" lon="8.999699978157878">
<ele>214.60000000000002</ele>
<time>2023-05-17T09:12:52Z</time>
</trkpt>
<trkpt lat="49.06682498753071" lon="8.999714981764555">
<ele>214.60000000000002</ele>
<time>2023-05-17T09:12:55Z</time>
</trkpt>
<trkpt lat="49.06685792841017" lon="8.99970492348075">
<ele>214.60000000000002</ele>
<time>2023-05-17T09:12:57Z</time>
</trkpt>
<trkpt lat="49.066862957552075" lon="8.99970794096589">
<ele>214.60000000000002</ele>
<time>2023-05-17T09:12:58Z</time>
</trkpt>
<trkpt lat="49.06686798669398" lon="8.999716993421316">
<ele>214.60000000000002</ele>
<time>2023-05-17T09:12:59Z</time>
</trkpt>
<trkpt lat="49.06686999835074" lon="8.999724956229329">
<ele>214.60000000000002</ele>
<time>2023-05-17T09:13:00Z</time>
</trkpt>
<trkpt lat="49.06687192618847" lon="8.999737948179245">
<ele>214.60000000000002</ele>
<time>2023-05-17T09:13:02Z</time>
</trkpt>
<trkpt lat="49.06687293201685" lon="8.999766949564219">
<ele>214.39999999999998</ele>
<time>2023-05-17T09:13:03Z</time>
</trkpt>
<trkpt lat="49.06686798669398" lon="8.999779941514134">
<ele>214.39999999999998</ele>
<time>2023-05-17T09:13:04Z</time>
</trkpt>
<trkpt lat="49.066859940066934" lon="8.999754963442683">
<ele>214.39999999999998</ele>
<time>2023-05-17T09:13:05Z</time>
</trkpt>
<trkpt lat="49.066862957552075" lon="8.999701989814639">
<ele>214.20000000000005</ele>
<time>2023-05-17T09:13:06Z</time>
</trkpt>
<trkpt lat="49.066841918975115" lon="8.999667959287763">
<ele>214.20000000000005</ele>
<time>2023-05-17T09:13:07Z</time>
</trkpt>
<trkpt lat="49.0668149292469" lon="8.999632922932506">
<ele>214</ele>
<time>2023-05-17T09:13:08Z</time>
</trkpt>
<trkpt lat="49.066794980317354" lon="8.999606939032674">
<ele>214</ele>
<time>2023-05-17T09:13:09Z</time>
</trkpt>
<trkpt lat="49.06677293591201" lon="8.999587995931506">
<ele>214</ele>
<time>2023-05-17T09:13:10Z</time>
</trkpt>
<trkpt lat="49.0667599439621" lon="8.999579949304461">
<ele>214</ele>
<time>2023-05-17T09:13:11Z</time>
</trkpt>
<trkpt lat="49.066732954233885" lon="8.999557988718152">
<ele>213.79999999999995</ele>
<time>2023-05-17T09:13:12Z</time>
</trkpt>
<trkpt lat="49.066714933142066" lon="8.999549942091107">
<ele>213.79999999999995</ele>
<time>2023-05-17T09:13:13Z</time>
</trkpt>
<trkpt lat="49.066691966727376" lon="8.999514989554882">
<ele>213.79999999999995</ele>
<time>2023-05-17T09:13:14Z</time>
</trkpt>
<trkpt lat="49.06667796894908" lon="8.99951297789812">
<ele>213.60000000000002</ele>
<time>2023-05-17T09:13:15Z</time>
</trkpt>
<trkpt lat="49.066671933978796" lon="8.999517923220992">
<ele>213.60000000000002</ele>
<time>2023-05-17T09:13:16Z</time>
</trkpt>
<trkpt lat="49.066664976999164" lon="8.999516917392612">
<ele>213.60000000000002</ele>
<time>2023-05-17T09:13:17Z</time>
</trkpt>
<trkpt lat="49.06665994785726" lon="8.99951297789812">
<ele>213.60000000000002</ele>
<time>2023-05-17T09:13:18Z</time>
</trkpt>
<trkpt lat="49.06665994785726" lon="8.99950996041298">
<ele>213.60000000000002</ele>
<time>2023-05-17T09:13:19Z</time>
</trkpt>
<trkpt lat="49.06665994785726" lon="8.999506942927837">
<ele>213.39999999999998</ele>
<time>2023-05-17T09:13:20Z</time>
</trkpt>
<trkpt lat="49.06663698144257" lon="8.999507948756218">
<ele>213.39999999999998</ele>
<time>2023-05-17T09:13:20Z</time>
</trkpt>
<trkpt lat="49.066627928987145" lon="8.999502919614315">
<ele>213.39999999999998</ele>
<time>2023-05-17T09:13:21Z</time>
</trkpt>
<trkpt lat="49.06661191955209" lon="8.999492945149541">
<ele>213.39999999999998</ele>
<time>2023-05-17T09:13:22Z</time>
</trkpt>
<trkpt lat="49.06657696701586" lon="8.99946796707809">
<ele>213.39999999999998</ele>
<time>2023-05-17T09:13:23Z</time>
</trkpt>
<trkpt lat="49.066561963409185" lon="8.999459920451045">
<ele>213.39999999999998</ele>
<time>2023-05-17T09:13:24Z</time>
</trkpt>
<trkpt lat="49.06654494814575" lon="8.999452963471413">
<ele>213.39999999999998</ele>
<time>2023-05-17T09:13:25Z</time>
</trkpt>
<trkpt lat="49.06652994453907" lon="8.99944692850113">
<ele>213.39999999999998</ele>
<time>2023-05-17T09:13:26Z</time>
</trkpt>
<trkpt lat="49.06651494093239" lon="8.999441983178258">
<ele>213.39999999999998</ele>
<time>2023-05-17T09:13:27Z</time>
</trkpt>
<trkpt lat="49.066497925668955" lon="8.999441983178258">
<ele>213.39999999999998</ele>
<time>2023-05-17T09:13:28Z</time>
</trkpt>
<trkpt lat="49.0664819162339" lon="8.999437959864736">
<ele>213.39999999999998</ele>
<time>2023-05-17T09:13:29Z</time>
</trkpt>
<trkpt lat="49.06646297313273" lon="8.999439971521497">
<ele>213.39999999999998</ele>
<time>2023-05-17T09:13:30Z</time>
</trkpt>
<trkpt lat="49.06644696369767" lon="8.999437959864736">
<ele>213.39999999999998</ele>
<time>2023-05-17T09:13:31Z</time>
</trkpt>
<trkpt lat="49.066429948434234" lon="8.999439971521497">
<ele>213.39999999999998</ele>
<time>2023-05-17T09:13:32Z</time>
</trkpt>
<trkpt lat="49.066367922350764" lon="8.999412981793284">
<ele>213.39999999999998</ele>
<time>2023-05-17T09:13:33Z</time>
</trkpt>
<trkpt lat="49.06634294427931" lon="8.999416921287775">
<ele>213.39999999999998</ele>
<time>2023-05-17T09:13:34Z</time>
</trkpt>
<trkpt lat="49.066302962601185" lon="8.999421950429678">
<ele>213.39999999999998</ele>
<time>2023-05-17T09:13:35Z</time>
</trkpt>
<trkpt lat="49.06627194955945" lon="8.999437959864736">
<ele>213.20000000000005</ele>
<time>2023-05-17T09:13:36Z</time>
</trkpt>
<trkpt lat="49.06624495983124" lon="8.999444916844368">
<ele>213.20000000000005</ele>
<time>2023-05-17T09:13:37Z</time>
</trkpt>
<trkpt lat="49.066217970103025" lon="8.99944793432951">
<ele>213</ele>
<time>2023-05-17T09:13:38Z</time>
</trkpt>
<trkpt lat="49.06618997454643" lon="8.99944793432951">
<ele>212.79999999999995</ele>
<time>2023-05-17T09:13:39Z</time>
</trkpt>
<trkpt lat="49.06615694984794" lon="8.999454975128174">
<ele>212.60000000000002</ele>
<time>2023-05-17T09:13:40Z</time>
</trkpt>
<trkpt lat="49.06612199731171" lon="8.999457992613316">
<ele>212.39999999999998</ele>
<time>2023-05-17T09:13:41Z</time>
</trkpt>
<trkpt lat="49.066086960956454" lon="8.999454975128174">
<ele>212.20000000000005</ele>
<time>2023-05-17T09:13:42Z</time>
</trkpt>
<trkpt lat="49.066061982885" lon="8.999456986784935">
<ele>211.79999999999995</ele>
<time>2023-05-17T09:13:43Z</time>
</trkpt>
<trkpt lat="49.06604195013642" lon="8.999462937936187">
<ele>211.60000000000002</ele>
<time>2023-05-17T09:13:44Z</time>
</trkpt>
<trkpt lat="49.06600791960955" lon="8.999457992613316">
<ele>211.39999999999998</ele>
<time>2023-05-17T09:13:45Z</time>
</trkpt>
<trkpt lat="49.06597497873008" lon="8.99944692850113">
<ele>211</ele>
<time>2023-05-17T09:13:46Z</time>
</trkpt>
<trkpt lat="49.0659499168396" lon="8.999442989006639">
<ele>210.79999999999995</ele>
<time>2023-05-17T09:13:47Z</time>
</trkpt>
<trkpt lat="49.065934997051954" lon="8.999454975128174">
<ele>210.60000000000002</ele>
<time>2023-05-17T09:13:48Z</time>
</trkpt>
<trkpt lat="49.06592493876815" lon="8.99946696124971">
<ele>210.20000000000005</ele>
<time>2023-05-17T09:13:49Z</time>
</trkpt>
<trkpt lat="49.06591999344528" lon="8.999497974291444">
<ele>210</ele>
<time>2023-05-17T09:13:50Z</time>
</trkpt>
<trkpt lat="49.06592292711139" lon="8.999539967626333">
<ele>209.79999999999995</ele>
<time>2023-05-17T09:13:51Z</time>
</trkpt>
<trkpt lat="49.06592695042491" lon="8.999579949304461">
<ele>209.60000000000002</ele>
<time>2023-05-17T09:13:52Z</time>
</trkpt>
<trkpt lat="49.06592192128301" lon="8.999617919325829">
<ele>209.39999999999998</ele>
<time>2023-05-17T09:13:53Z</time>
</trkpt>
<trkpt lat="49.065916975960135" lon="8.99965999647975">
<ele>209.20000000000005</ele>
<time>2023-05-17T09:13:54Z</time>
</trkpt>
<trkpt lat="49.06591194681823" lon="8.99970299564302">
<ele>209</ele>
<time>2023-05-17T09:13:55Z</time>
</trkpt>
<trkpt lat="49.06590197235346" lon="8.999746916815639">
<ele>208.79999999999995</ele>
<time>2023-05-17T09:13:56Z</time>
</trkpt>
<trkpt lat="49.065894931554794" lon="8.99979192763567">
<ele>208.60000000000002</ele>
<time>2023-05-17T09:13:57Z</time>
</trkpt>
<trkpt lat="49.06588495709002" lon="8.99983199313283">
<ele>208.39999999999998</ele>
<time>2023-05-17T09:13:58Z</time>
</trkpt>
<trkpt lat="49.06586995348334" lon="8.999867951497436">
<ele>208.39999999999998</ele>
<time>2023-05-17T09:13:59Z</time>
</trkpt>
<trkpt lat="49.065851932391524" lon="8.999904999509454">
<ele>208.20000000000005</ele>
<time>2023-05-17T09:14:00Z</time>
</trkpt>
<trkpt lat="49.06581798568368" lon="8.999926960095763">
<ele>208</ele>
<time>2023-05-17T09:14:01Z</time>
</trkpt>
<trkpt lat="49.06577498652041" lon="8.999946992844343">
<ele>208</ele>
<time>2023-05-17T09:14:02Z</time>
</trkpt>
<trkpt lat="49.06572997570038" lon="8.99996199645102">
<ele>207.79999999999995</ele>
<time>2023-05-17T09:14:03Z</time>
</trkpt>
<trkpt lat="49.065679935738444" lon="8.999974988400936">
<ele>207.60000000000002</ele>
<time>2023-05-17T09:14:04Z</time>
</trkpt>
<trkpt lat="49.06563492491841" lon="8.999982951208949">
<ele>207.39999999999998</ele>
<time>2023-05-17T09:14:05Z</time>
</trkpt>
<trkpt lat="49.065592931583524" lon="8.999991919845343">
<ele>207</ele>
<time>2023-05-17T09:14:06Z</time>
</trkpt>
<trkpt lat="49.065552949905396" lon="9.00000499561429">
<ele>206.79999999999995</ele>
<time>2023-05-17T09:14:07Z</time>
</trkpt>
<trkpt lat="49.0655199252069" lon="9.000012958422303">
<ele>206.39999999999998</ele>
<time>2023-05-17T09:14:08Z</time>
</trkpt>
<trkpt lat="49.065487990155816" lon="9.000014970079064">
<ele>206</ele>
<time>2023-05-17T09:14:09Z</time>
</trkpt>
<trkpt lat="49.06545697711408" lon="9.000016981735826">
<ele>205.60000000000002</ele>
<time>2023-05-17T09:14:10Z</time>
</trkpt>
<trkpt lat="49.065424958243966" lon="9.000021927058697">
<ele>205.20000000000005</ele>
<time>2023-05-17T09:14:11Z</time>
</trkpt>
<trkpt lat="49.06539696268737" lon="9.000016981735826">
<ele>204.79999999999995</ele>
<time>2023-05-17T09:14:12Z</time>
</trkpt>
<trkpt lat="49.06537692993879" lon="8.999994937330484">
<ele>204.60000000000002</ele>
<time>2023-05-17T09:14:13Z</time>
</trkpt>
<trkpt lat="49.06536494381726" lon="8.99996493011713">
<ele>204.20000000000005</ele>
<time>2023-05-17T09:14:14Z</time>
</trkpt>
<trkpt lat="49.065356981009245" lon="8.999926960095763">
<ele>204</ele>
<time>2023-05-17T09:14:15Z</time>
</trkpt>
<trkpt lat="49.06534994021058" lon="8.99987692013383">
<ele>203.79999999999995</ele>
<time>2023-05-17T09:14:16Z</time>
</trkpt>
<trkpt lat="49.06534298323095" lon="8.999821934849024">
<ele>203.39999999999998</ele>
<time>2023-05-17T09:14:17Z</time>
</trkpt>
<trkpt lat="49.06534298323095" lon="8.999764937907457">
<ele>203.20000000000005</ele>
<time>2023-05-17T09:14:18Z</time>
</trkpt>
<trkpt lat="49.06534792855382" lon="8.99970693513751">
<ele>203</ele>
<time>2023-05-17T09:14:19Z</time>
</trkpt>
<trkpt lat="49.06535295769572" lon="8.999649938195944">
<ele>203</ele>
<time>2023-05-17T09:14:20Z</time>
</trkpt>
<trkpt lat="49.065357986837626" lon="8.999594952911139">
<ele>202.79999999999995</ele>
<time>2023-05-17T09:14:21Z</time>
</trkpt>
<trkpt lat="49.0653629321605" lon="8.999541979283094">
<ele>202.79999999999995</ele>
<time>2023-05-17T09:14:22Z</time>
</trkpt>
<trkpt lat="49.0653679613024" lon="8.9994899276644">
<ele>202.60000000000002</ele>
<time>2023-05-17T09:14:23Z</time>
</trkpt>
<trkpt lat="49.06536997295916" lon="8.999442989006639">
<ele>202.60000000000002</ele>
<time>2023-05-17T09:14:24Z</time>
</trkpt>
<trkpt lat="49.06536997295916" lon="8.999409964308143">
<ele>202.60000000000002</ele>
<time>2023-05-17T09:14:25Z</time>
</trkpt>
<trkpt lat="49.0653729904443" lon="8.999379957094789">
<ele>202.39999999999998</ele>
<time>2023-05-17T09:14:26Z</time>
</trkpt>
<trkpt lat="49.065377935767174" lon="8.999359924346209">
<ele>202.39999999999998</ele>
<time>2023-05-17T09:14:27Z</time>
</trkpt>
<trkpt lat="49.06537491828203" lon="8.999341987073421">
<ele>202.39999999999998</ele>
<time>2023-05-17T09:14:28Z</time>
</trkpt>
<trkpt lat="49.06537491828203" lon="8.999327989295125">
<ele>202.39999999999998</ele>
<time>2023-05-17T09:14:29Z</time>
</trkpt>
<trkpt lat="49.065379947423935" lon="8.99931499734521">
<ele>202.39999999999998</ele>
<time>2023-05-17T09:14:30Z</time>
</trkpt>
<trkpt lat="49.06537692993879" lon="8.999301921576262">
<ele>202.20000000000005</ele>
<time>2023-05-17T09:14:31Z</time>
</trkpt>
<trkpt lat="49.06537198461592" lon="8.999291947111487">
<ele>202.20000000000005</ele>
<time>2023-05-17T09:14:32Z</time>
</trkpt>
<trkpt lat="49.0653729904443" lon="8.99927694350481">
<ele>202.20000000000005</ele>
<time>2023-05-17T09:14:33Z</time>
</trkpt>
<trkpt lat="49.06537198461592" lon="8.999262945726514">
<ele>202.20000000000005</ele>
<time>2023-05-17T09:14:34Z</time>
</trkpt>
<trkpt lat="49.06536997295916" lon="8.999242996796966">
<ele>202.20000000000005</ele>
<time>2023-05-17T09:14:35Z</time>
</trkpt>
<trkpt lat="49.06536695547402" lon="8.999226987361908">
<ele>202.20000000000005</ele>
<time>2023-05-17T09:14:36Z</time>
</trkpt>
<trkpt lat="49.06536695547402" lon="8.999199997633696">
<ele>202.20000000000005</ele>
<time>2023-05-17T09:14:37Z</time>
</trkpt>
<trkpt lat="49.0653629321605" lon="8.999171918258071">
<ele>202.20000000000005</ele>
<time>2023-05-17T09:14:38Z</time>
</trkpt>
<trkpt lat="49.06535999849439" lon="8.99914694018662">
<ele>202.20000000000005</ele>
<time>2023-05-17T09:14:39Z</time>
</trkpt>
<trkpt lat="49.06534692272544" lon="8.999119950458407">
<ele>202.20000000000005</ele>
<time>2023-05-17T09:14:40Z</time>
</trkpt>
<trkpt lat="49.06532194465399" lon="8.999109975993633">
<ele>202.20000000000005</ele>
<time>2023-05-17T09:14:41Z</time>
</trkpt>
<trkpt lat="49.06528992578387" lon="8.999109975993633">
<ele>202</ele>
<time>2023-05-17T09:14:42Z</time>
</trkpt>
<trkpt lat="49.06525497324765" lon="8.999109975993633">
<ele>201.79999999999995</ele>
<time>2023-05-17T09:14:43Z</time>
</trkpt>
<trkpt lat="49.06521993689239" lon="8.999109975993633">
<ele>201.79999999999995</ele>
<time>2023-05-17T09:14:44Z</time>
</trkpt>
<trkpt lat="49.065189929679036" lon="8.999112993478775">
<ele>201.60000000000002</ele>
<time>2023-05-17T09:14:45Z</time>
</trkpt>
<trkpt lat="49.06514793634415" lon="8.999106958508492">
<ele>201.39999999999998</ele>
<time>2023-05-17T09:14:46Z</time>
</trkpt>
<trkpt lat="49.065121952444315" lon="8.99910494685173">
<ele>201.39999999999998</ele>
<time>2023-05-17T09:14:47Z</time>
</trkpt>
<trkpt lat="49.06508197076619" lon="8.999091954901814">
<ele>201.20000000000005</ele>
<time>2023-05-17T09:14:48Z</time>
</trkpt>
<trkpt lat="49.06504299491644" lon="8.999077957123518">
<ele>201</ele>
<time>2023-05-17T09:14:49Z</time>
</trkpt>
<trkpt lat="49.064992954954505" lon="8.99906194768846">
<ele>201</ele>
<time>2023-05-17T09:14:50Z</time>
</trkpt>
<trkpt lat="49.064949955791235" lon="8.999044932425022">
<ele>200.79999999999995</ele>
<time>2023-05-17T09:14:51Z</time>
</trkpt>
<trkpt lat="49.06490192748606" lon="8.999027917161584">
<ele>200.79999999999995</ele>
<time>2023-05-17T09:14:52Z</time>
</trkpt>
<trkpt lat="49.064841996878386" lon="8.999011991545558">
<ele>200.60000000000002</ele>
<time>2023-05-17T09:14:53Z</time>
</trkpt>
<trkpt lat="49.064796986058354" lon="8.998996987938881">
<ele>200.60000000000002</ele>
<time>2023-05-17T09:14:54Z</time>
</trkpt>
<trkpt lat="49.064752981066704" lon="8.998984917998314">
<ele>200.60000000000002</ele>
<time>2023-05-17T09:14:55Z</time>
</trkpt>
<trkpt lat="49.06470294110477" lon="8.998966980725527">
<ele>200.39999999999998</ele>
<time>2023-05-17T09:14:56Z</time>
</trkpt>
<trkpt lat="49.06465692445636" lon="8.998949965462089">
<ele>200.39999999999998</ele>
<time>2023-05-17T09:14:57Z</time>
</trkpt>
<trkpt lat="49.06462197192013" lon="8.998936973512173">
<ele>200.39999999999998</ele>
<time>2023-05-17T09:14:58Z</time>
</trkpt>
<trkpt lat="49.064584923908114" lon="8.998924987390637">
<ele>200.39999999999998</ele>
<time>2023-05-17T09:14:59Z</time>
</trkpt>
<trkpt lat="49.064544942229986" lon="8.998914929106832">
<ele>200.39999999999998</ele>
<time>2023-05-17T09:15:00Z</time>
</trkpt>
<trkpt lat="49.06450496055186" lon="8.998906966298819">
<ele>200.39999999999998</ele>
<time>2023-05-17T09:15:01Z</time>
</trkpt>
<trkpt lat="49.0644699241966" lon="8.998897997662425">
<ele>200.39999999999998</ele>
<time>2023-05-17T09:15:02Z</time>
</trkpt>
<trkpt lat="49.06442994251847" lon="8.99888793937862">
<ele>200.39999999999998</ele>
<time>2023-05-17T09:15:03Z</time>
</trkpt>
<trkpt lat="49.06438794918358" lon="8.998877964913845">
<ele>200.39999999999998</ele>
<time>2023-05-17T09:15:04Z</time>
</trkpt>
<trkpt lat="49.06434293836355" lon="8.99886698462069">
<ele>200.39999999999998</ele>
<time>2023-05-17T09:15:05Z</time>
</trkpt>
<trkpt lat="49.06429993920028" lon="8.998856926336884">
<ele>200.39999999999998</ele>
<time>2023-05-17T09:15:06Z</time>
</trkpt>
<trkpt lat="49.06425492838025" lon="8.99884695187211">
<ele>200.39999999999998</ele>
<time>2023-05-17T09:15:07Z</time>
</trkpt>
<trkpt lat="49.06420698389411" lon="8.998832954093814">
<ele>200.39999999999998</ele>
<time>2023-05-17T09:15:08Z</time>
</trkpt>
<trkpt lat="49.06415996141732" lon="8.998819962143898">
<ele>200.39999999999998</ele>
<time>2023-05-17T09:15:09Z</time>
</trkpt>
<trkpt lat="49.06410992145538" lon="8.998804958537221">
<ele>200.39999999999998</ele>
<time>2023-05-17T09:15:10Z</time>
</trkpt>
<trkpt lat="49.06406298279762" lon="8.998791966587305">
<ele>200.39999999999998</ele>
<time>2023-05-17T09:15:11Z</time>
</trkpt>
<trkpt lat="49.06401998363435" lon="8.998777968809009">
<ele>200.60000000000002</ele>
<time>2023-05-17T09:15:12Z</time>
</trkpt>
<trkpt lat="49.06397698447108" lon="8.998767994344234">
<ele>200.60000000000002</ele>
<time>2023-05-17T09:15:13Z</time>
</trkpt>
<trkpt lat="49.06393297947943" lon="8.998754918575287">
<ele>200.60000000000002</ele>
<time>2023-05-17T09:15:14Z</time>
</trkpt>
<trkpt lat="49.06389199197292" lon="8.998739998787642">
<ele>200.60000000000002</ele>
<time>2023-05-17T09:15:15Z</time>
</trkpt>
<trkpt lat="49.06384798698127" lon="8.998722983524203">
<ele>200.60000000000002</ele>
<time>2023-05-17T09:15:16Z</time>
</trkpt>
<trkpt lat="49.063804987818" lon="8.998704962432384">
<ele>200.60000000000002</ele>
<time>2023-05-17T09:15:17Z</time>
</trkpt>
<trkpt lat="49.06376492232084" lon="8.998686941340566">
<ele>200.79999999999995</ele>
<time>2023-05-17T09:15:18Z</time>
</trkpt>
<trkpt lat="49.06372292898595" lon="8.99867294356227">
<ele>200.79999999999995</ele>
<time>2023-05-17T09:15:19Z</time>
</trkpt>
<trkpt lat="49.063684958964586" lon="8.998661963269114">
<ele>200.79999999999995</ele>
<time>2023-05-17T09:15:20Z</time>
</trkpt>
<trkpt lat="49.06364698894322" lon="8.99865198880434">
<ele>200.79999999999995</ele>
<time>2023-05-17T09:15:21Z</time>
</trkpt>
<trkpt lat="49.06361195258796" lon="8.998639918863773">
<ele>200.79999999999995</ele>
<time>2023-05-17T09:15:22Z</time>
</trkpt>
<trkpt lat="49.063577922061086" lon="8.998629944399">
<ele>200.79999999999995</ele>
<time>2023-05-17T09:15:23Z</time>
</trkpt>
<trkpt lat="49.06354296952486" lon="8.998621981590986">
<ele>200.79999999999995</ele>
<time>2023-05-17T09:15:24Z</time>
</trkpt>
<trkpt lat="49.063509944826365" lon="8.99861192330718">
<ele>201</ele>
<time>2023-05-17T09:15:25Z</time>
</trkpt>
<trkpt lat="49.06347499229014" lon="8.998599937185645">
<ele>201</ele>
<time>2023-05-17T09:15:26Z</time>
</trkpt>
<trkpt lat="49.06343995593488" lon="8.99858795106411">
<ele>201.20000000000005</ele>
<time>2023-05-17T09:15:27Z</time>
</trkpt>
<trkpt lat="49.063406931236386" lon="8.998574959114194">
<ele>201.39999999999998</ele>
<time>2023-05-17T09:15:28Z</time>
</trkpt>
<trkpt lat="49.06337298452854" lon="8.998561967164278">
<ele>201.39999999999998</ele>
<time>2023-05-17T09:15:29Z</time>
</trkpt>
<trkpt lat="49.06334297731519" lon="8.99854495190084">
<ele>201.60000000000002</ele>
<time>2023-05-17T09:15:30Z</time>
</trkpt>
<trkpt lat="49.063319927081466" lon="8.998527936637402">
<ele>201.60000000000002</ele>
<time>2023-05-17T09:15:31Z</time>
</trkpt>
<trkpt lat="49.06330299563706" lon="8.998499941080809">
<ele>201.79999999999995</ele>
<time>2023-05-17T09:15:32Z</time>
</trkpt>
<trkpt lat="49.06328799203038" lon="8.99845995940268">
<ele>201.79999999999995</ele>
<time>2023-05-17T09:15:33Z</time>
</trkpt>
<trkpt lat="49.063274916261435" lon="8.998409919440746">
<ele>202</ele>
<time>2023-05-17T09:15:34Z</time>
</trkpt>
<trkpt lat="49.063271982595325" lon="8.998359963297844">
<ele>202</ele>
<time>2023-05-17T09:15:35Z</time>
</trkpt>
<trkpt lat="49.063271982595325" lon="8.998302966356277">
<ele>202.20000000000005</ele>
<time>2023-05-17T09:15:36Z</time>
</trkpt>
<trkpt lat="49.06326997093856" lon="8.998251920565963">
<ele>202.20000000000005</ele>
<time>2023-05-17T09:15:37Z</time>
</trkpt>
<trkpt lat="49.063272988423705" lon="8.998192995786667">
<ele>202.20000000000005</ele>
<time>2023-05-17T09:15:38Z</time>
</trkpt>
<trkpt lat="49.063274916261435" lon="8.99813692085445">
<ele>202.39999999999998</ele>
<time>2023-05-17T09:15:39Z</time>
</trkpt>
<trkpt lat="49.063276927918196" lon="8.998082941398025">
<ele>202.39999999999998</ele>
<time>2023-05-17T09:15:40Z</time>
</trkpt>
<trkpt lat="49.06327994540334" lon="8.998026950284839">
<ele>202.39999999999998</ele>
<time>2023-05-17T09:15:41Z</time>
</trkpt>
<trkpt lat="49.06328296288848" lon="8.997969953343272">
<ele>202.39999999999998</ele>
<time>2023-05-17T09:15:42Z</time>
</trkpt>
<trkpt lat="49.06329193152487" lon="8.997911950573325">
<ele>202.60000000000002</ele>
<time>2023-05-17T09:15:43Z</time>
</trkpt>
<trkpt lat="49.063294949010015" lon="8.997852941974998">
<ele>202.60000000000002</ele>
<time>2023-05-17T09:15:44Z</time>
</trkpt>
<trkpt lat="49.063297966495156" lon="8.997797956690192">
<ele>202.60000000000002</ele>
<time>2023-05-17T09:15:45Z</time>
</trkpt>
<trkpt lat="49.06330198980868" lon="8.99774992838502">
<ele>202.60000000000002</ele>
<time>2023-05-17T09:15:46Z</time>
</trkpt>
<trkpt lat="49.06330492347479" lon="8.99770793505013">
<ele>202.60000000000002</ele>
<time>2023-05-17T09:15:47Z</time>
</trkpt>
<trkpt lat="49.06330794095993" lon="8.997672982513905">
<ele>202.79999999999995</ele>
<time>2023-05-17T09:15:48Z</time>
</trkpt>
<trkpt lat="49.06330995261669" lon="8.997637946158648">
<ele>202.79999999999995</ele>
<time>2023-05-17T09:15:49Z</time>
</trkpt>
<trkpt lat="49.06330995261669" lon="8.997606933116913">
<ele>202.79999999999995</ele>
<time>2023-05-17T09:15:50Z</time>
</trkpt>
<trkpt lat="49.06331297010183" lon="8.997572986409068">
<ele>202.79999999999995</ele>
<time>2023-05-17T09:15:51Z</time>
</trkpt>
<trkpt lat="49.063316993415356" lon="8.99753493256867">
<ele>202.79999999999995</ele>
<time>2023-05-17T09:15:52Z</time>
</trkpt>
<trkpt lat="49.063316993415356" lon="8.997497968375683">
<ele>202.79999999999995</ele>
<time>2023-05-17T09:15:53Z</time>
</trkpt>
<trkpt lat="49.063319927081466" lon="8.997459998354316">
<ele>203</ele>
<time>2023-05-17T09:15:54Z</time>
</trkpt>
<trkpt lat="49.06332193873823" lon="8.997421944513917">
<ele>203</ele>
<time>2023-05-17T09:15:55Z</time>
</trkpt>
<trkpt lat="49.06332495622337" lon="8.99738296866417">
<ele>203</ele>
<time>2023-05-17T09:15:56Z</time>
</trkpt>
<trkpt lat="49.06332797370851" lon="8.997342986986041">
<ele>203</ele>
<time>2023-05-17T09:15:57Z</time>
</trkpt>
<trkpt lat="49.06332998536527" lon="8.99729797616601">
<ele>203</ele>
<time>2023-05-17T09:15:58Z</time>
</trkpt>
<trkpt lat="49.06333199702203" lon="8.997251959517598">
<ele>203</ele>
<time>2023-05-17T09:15:59Z</time>
</trkpt>
<trkpt lat="49.06333199702203" lon="8.997202925384045">
<ele>203.20000000000005</ele>
<time>2023-05-17T09:16:00Z</time>
</trkpt>
<trkpt lat="49.06333291903138" lon="8.997151963412762">
<ele>203.20000000000005</ele>
<time>2023-05-17T09:16:01Z</time>
</trkpt>
<trkpt lat="49.063336942344904" lon="8.997102929279208">
<ele>203.20000000000005</ele>
<time>2023-05-17T09:16:02Z</time>
</trkpt>
<trkpt lat="49.063337948173285" lon="8.997047943994403">
<ele>203.20000000000005</ele>
<time>2023-05-17T09:16:03Z</time>
</trkpt>
<trkpt lat="49.063339959830046" lon="8.996994970366359">
<ele>203.20000000000005</ele>
<time>2023-05-17T09:16:04Z</time>
</trkpt>
<trkpt lat="49.06334297731519" lon="8.996937973424792">
<ele>203.20000000000005</ele>
<time>2023-05-17T09:16:05Z</time>
</trkpt>
<trkpt lat="49.06334498897195" lon="8.996882988139987">
<ele>203.39999999999998</ele>
<time>2023-05-17T09:16:06Z</time>
</trkpt>
<trkpt lat="49.06334498897195" lon="8.996826997026801">
<ele>203.39999999999998</ele>
<time>2023-05-17T09:16:07Z</time>
</trkpt>
<trkpt lat="49.06334691680968" lon="8.996769916266203">
<ele>203.39999999999998</ele>
<time>2023-05-17T09:16:08Z</time>
</trkpt>
<trkpt lat="49.06334691680968" lon="8.996711997315288">
<ele>203.39999999999998</ele>
<time>2023-05-17T09:16:09Z</time>
</trkpt>
<trkpt lat="49.06334792263806" lon="8.99665491655469">
<ele>203.39999999999998</ele>
<time>2023-05-17T09:16:10Z</time>
</trkpt>
<trkpt lat="49.06335194595158" lon="8.996596997603774">
<ele>203.39999999999998</ele>
<time>2023-05-17T09:16:11Z</time>
</trkpt>
<trkpt lat="49.06335496343672" lon="8.996537989005446">
<ele>203.60000000000002</ele>
<time>2023-05-17T09:16:12Z</time>
</trkpt>
<trkpt lat="49.06335496343672" lon="8.9964799862355">
<ele>203.60000000000002</ele>
<time>2023-05-17T09:16:13Z</time>
</trkpt>
<trkpt lat="49.06335496343672" lon="8.996419971808791">
<ele>203.60000000000002</ele>
<time>2023-05-17T09:16:14Z</time>
</trkpt>
<trkpt lat="49.063356975093484" lon="8.996359957382083">
<ele>203.60000000000002</ele>
<time>2023-05-17T09:16:15Z</time>
</trkpt>
<trkpt lat="49.06335295177996" lon="8.996302960440516">
<ele>203.79999999999995</ele>
<time>2023-05-17T09:16:16Z</time>
</trkpt>
<trkpt lat="49.06334993429482" lon="8.996247975155711">
<ele>203.79999999999995</ele>
<time>2023-05-17T09:16:17Z</time>
</trkpt>
<trkpt lat="49.06334498897195" lon="8.996191984042525">
<ele>203.79999999999995</ele>
<time>2023-05-17T09:16:18Z</time>
</trkpt>
<trkpt lat="49.06334498897195" lon="8.996132975444198">
<ele>203.79999999999995</ele>
<time>2023-05-17T09:16:19Z</time>
</trkpt>
<trkpt lat="49.06334297731519" lon="8.99607296101749">
<ele>204</ele>
<time>2023-05-17T09:16:20Z</time>
</trkpt>
<trkpt lat="49.063339959830046" lon="8.996012946590781">
<ele>204</ele>
<time>2023-05-17T09:16:21Z</time>
</trkpt>
<trkpt lat="49.063337948173285" lon="8.995949998497963">
<ele>204</ele>
<time>2023-05-17T09:16:22Z</time>
</trkpt>
<trkpt lat="49.063336942344904" lon="8.995886966586113">
<ele>204.20000000000005</ele>
<time>2023-05-17T09:16:23Z</time>
</trkpt>
<trkpt lat="49.063336942344904" lon="8.995822928845882">
<ele>204.20000000000005</ele>
<time>2023-05-17T09:16:24Z</time>
</trkpt>
<trkpt lat="49.063336942344904" lon="8.995759980753064">
<ele>204.20000000000005</ele>
<time>2023-05-17T09:16:25Z</time>
</trkpt>
<trkpt lat="49.06333199702203" lon="8.995696948841214">
<ele>204.39999999999998</ele>
<time>2023-05-17T09:16:26Z</time>
</trkpt>
<trkpt lat="49.06332193873823" lon="8.995631989091635">
<ele>204.39999999999998</ele>
<time>2023-05-17T09:16:27Z</time>
</trkpt>
<trkpt lat="49.063314981758595" lon="8.995562922209501">
<ele>204.39999999999998</ele>
<time>2023-05-17T09:16:28Z</time>
</trkpt>
<trkpt lat="49.06330693513155" lon="8.995497962459922">
<ele>204.60000000000002</ele>
<time>2023-05-17T09:16:29Z</time>
</trkpt>
<trkpt lat="49.063297966495156" lon="8.995439959689975">
<ele>204.60000000000002</ele>
<time>2023-05-17T09:16:30Z</time>
</trkpt>
<trkpt lat="49.06328991986811" lon="8.995377933606505">
<ele>204.60000000000002</ele>
<time>2023-05-17T09:16:31Z</time>
</trkpt>
<trkpt lat="49.0632819570601" lon="8.995317919179797">
<ele>204.79999999999995</ele>
<time>2023-05-17T09:16:32Z</time>
</trkpt>
<trkpt lat="49.063271982595325" lon="8.99525798857212">
<ele>204.79999999999995</ele>
<time>2023-05-17T09:16:33Z</time>
</trkpt>
<trkpt lat="49.06325697898865" lon="8.995206942781806">
<ele>204.79999999999995</ele>
<time>2023-05-17T09:16:34Z</time>
</trkpt>
<trkpt lat="49.06324197538197" lon="8.995161931961775">
<ele>204.79999999999995</ele>
<time>2023-05-17T09:16:35Z</time>
</trkpt>
<trkpt lat="49.06322194263339" lon="8.995116921141744">
<ele>205</ele>
<time>2023-05-17T09:16:36Z</time>
</trkpt>
<trkpt lat="49.06319998204708" lon="8.995069982483983">
<ele>205</ele>
<time>2023-05-17T09:16:37Z</time>
</trkpt>
<trkpt lat="49.0631749201566" lon="8.995027989149094">
<ele>205</ele>
<time>2023-05-17T09:16:38Z</time>
</trkpt>
<trkpt lat="49.063147930428386" lon="8.994989935308695">
<ele>205</ele>
<time>2023-05-17T09:16:39Z</time>
</trkpt>
<trkpt lat="49.06311792321503" lon="8.99495791643858">
<ele>205.20000000000005</ele>
<time>2023-05-17T09:16:40Z</time>
</trkpt>
<trkpt lat="49.06308498233557" lon="8.994929920881987">
<ele>205.20000000000005</ele>
<time>2023-05-17T09:16:41Z</time>
</trkpt>
<trkpt lat="49.06305296346545" lon="8.994902931153774">
<ele>205.20000000000005</ele>
<time>2023-05-17T09:16:42Z</time>
</trkpt>
<trkpt lat="49.06302195042372" lon="8.994879964739084">
<ele>205.20000000000005</ele>
<time>2023-05-17T09:16:43Z</time>
</trkpt>
<trkpt lat="49.06298297457397" lon="8.994857920333743">
<ele>205.39999999999998</ele>
<time>2023-05-17T09:16:44Z</time>
</trkpt>
<trkpt lat="49.06294299289584" lon="8.994834953919053">
<ele>205.39999999999998</ele>
<time>2023-05-17T09:16:45Z</time>
</trkpt>
<trkpt lat="49.06290292739868" lon="8.994816932827234">
<ele>205.60000000000002</ele>
<time>2023-05-17T09:16:46Z</time>
</trkpt>
<trkpt lat="49.06286294572055" lon="8.994799917563796">
<ele>205.60000000000002</ele>
<time>2023-05-17T09:16:47Z</time>
</trkpt>
<trkpt lat="49.062822964042425" lon="8.99478298611939">
<ele>205.60000000000002</ele>
<time>2023-05-17T09:16:48Z</time>
</trkpt>
<trkpt lat="49.06278692185879" lon="8.99476496502757">
<ele>205.79999999999995</ele>
<time>2023-05-17T09:16:49Z</time>
</trkpt>
<trkpt lat="49.0627499576658" lon="8.99474493227899">
<ele>205.79999999999995</ele>
<time>2023-05-17T09:16:50Z</time>
</trkpt>
<trkpt lat="49.06270997598767" lon="8.994727917015553">
<ele>205.79999999999995</ele>
<time>2023-05-17T09:16:51Z</time>
</trkpt>
<trkpt lat="49.062671922147274" lon="8.994709979742765">
<ele>206</ele>
<time>2023-05-17T09:16:52Z</time>
</trkpt>
<trkpt lat="49.062632946297526" lon="8.994687935337424">
<ele>206</ele>
<time>2023-05-17T09:16:53Z</time>
</trkpt>
<trkpt lat="49.06259698793292" lon="8.994664968922734">
<ele>206</ele>
<time>2023-05-17T09:16:54Z</time>
</trkpt>
<trkpt lat="49.062562957406044" lon="8.994637979194522">
<ele>206.20000000000005</ele>
<time>2023-05-17T09:16:55Z</time>
</trkpt>
<trkpt lat="49.06252993270755" lon="8.994609983637929">
<ele>206.20000000000005</ele>
<time>2023-05-17T09:16:56Z</time>
</trkpt>
<trkpt lat="49.062496991828084" lon="8.994577964767814">
<ele>206.39999999999998</ele>
<time>2023-05-17T09:16:57Z</time>
</trkpt>
<trkpt lat="49.06246698461473" lon="8.994544940069318">
<ele>206.60000000000002</ele>
<time>2023-05-17T09:16:58Z</time>
</trkpt>
<trkpt lat="49.062437983229756" lon="8.994509987533092">
<ele>206.60000000000002</ele>
<time>2023-05-17T09:16:59Z</time>
</trkpt>
<trkpt lat="49.06240998767316" lon="8.994472939521074">
<ele>206.79999999999995</ele>
<time>2023-05-17T09:17:00Z</time>
</trkpt>
<trkpt lat="49.06238199211657" lon="8.994436981156468">
<ele>206.79999999999995</ele>
<time>2023-05-17T09:17:01Z</time>
</trkpt>
<trkpt lat="49.06235793605447" lon="8.994397921487689">
<ele>207</ele>
<time>2023-05-17T09:17:02Z</time>
</trkpt>
<trkpt lat="49.06233698129654" lon="8.994359951466322">
<ele>207.20000000000005</ele>
<time>2023-05-17T09:17:03Z</time>
</trkpt>
<trkpt lat="49.06231292523444" lon="8.994322987273335">
<ele>207.20000000000005</ele>
<time>2023-05-17T09:17:04Z</time>
</trkpt>
<trkpt lat="49.06229297630489" lon="8.994284933432937">
<ele>207.39999999999998</ele>
<time>2023-05-17T09:17:05Z</time>
</trkpt>
<trkpt lat="49.06227294355631" lon="8.99424696341157">
<ele>207.60000000000002</ele>
<time>2023-05-17T09:17:06Z</time>
</trkpt>
<trkpt lat="49.06225299462676" lon="8.994206981733441">
<ele>207.60000000000002</ele>
<time>2023-05-17T09:17:07Z</time>
</trkpt>
<trkpt lat="49.06223296187818" lon="8.994166916236281">
<ele>207.79999999999995</ele>
<time>2023-05-17T09:17:08Z</time>
</trkpt>
<trkpt lat="49.06221494078636" lon="8.994122995063663">
<ele>207.79999999999995</ele>
<time>2023-05-17T09:17:09Z</time>
</trkpt>
<trkpt lat="49.06219792552292" lon="8.99407697841525">
<ele>208</ele>
<time>2023-05-17T09:17:10Z</time>
</trkpt>
<trkpt lat="49.062182921916246" lon="8.994029955938458">
<ele>208</ele>
<time>2023-05-17T09:17:11Z</time>
</trkpt>
<trkpt lat="49.06216791830957" lon="8.993981927633286">
<ele>208</ele>
<time>2023-05-17T09:17:12Z</time>
</trkpt>
<trkpt lat="49.06214998103678" lon="8.993934988975525">
<ele>208.20000000000005</ele>
<time>2023-05-17T09:17:13Z</time>
</trkpt>
<trkpt lat="49.062132965773344" lon="8.993891989812255">
<ele>208.20000000000005</ele>
<time>2023-05-17T09:17:14Z</time>
</trkpt>
<trkpt lat="49.06211997382343" lon="8.993844967335463">
<ele>208.39999999999998</ele>
<time>2023-05-17T09:17:15Z</time>
</trkpt>
<trkpt lat="49.06210698187351" lon="8.99379794485867">
<ele>208.39999999999998</ele>
<time>2023-05-17T09:17:16Z</time>
</trkpt>
<trkpt lat="49.062092984095216" lon="8.9937549456954">
<ele>208.39999999999998</ele>
<time>2023-05-17T09:17:17Z</time>
</trkpt>
<trkpt lat="49.06208493746817" lon="8.99371194653213">
<ele>208.60000000000002</ele>
<time>2023-05-17T09:17:18Z</time>
</trkpt>
<trkpt lat="49.06207697466016" lon="8.993672970682383">
<ele>208.60000000000002</ele>
<time>2023-05-17T09:17:19Z</time>
</trkpt>
<trkpt lat="49.06206792220473" lon="8.993641957640648">
<ele>208.60000000000002</ele>
<time>2023-05-17T09:17:20Z</time>
</trkpt>
<trkpt lat="49.06205694191158" lon="8.993607927113771">
<ele>208.60000000000002</ele>
<time>2023-05-17T09:17:21Z</time>
</trkpt>
<trkpt lat="49.062046967446804" lon="8.993572974577546">
<ele>208.79999999999995</ele>
<time>2023-05-17T09:17:22Z</time>
</trkpt>
<trkpt lat="49.06203992664814" lon="8.993534920737147">
<ele>208.79999999999995</ele>
<time>2023-05-17T09:17:23Z</time>
</trkpt>
<trkpt lat="49.06203196384013" lon="8.99349795654416">
<ele>208.79999999999995</ele>
<time>2023-05-17T09:17:24Z</time>
</trkpt>
<trkpt lat="49.06202299520373" lon="8.993461998179555">
<ele>208.79999999999995</ele>
<time>2023-05-17T09:17:25Z</time>
</trkpt>
<trkpt lat="49.06201494857669" lon="8.993424950167537">
<ele>209</ele>
<time>2023-05-17T09:17:26Z</time>
</trkpt>
<trkpt lat="49.062004974111915" lon="8.993382956832647">
<ele>209</ele>
<time>2023-05-17T09:17:27Z</time>
</trkpt>
<trkpt lat="49.06200195662677" lon="8.993342975154519">
<ele>209</ele>
<time>2023-05-17T09:17:28Z</time>
</trkpt>
<trkpt lat="49.06199692748487" lon="8.99330492131412">
<ele>209</ele>
<time>2023-05-17T09:17:29Z</time>
</trkpt>
<trkpt lat="49.061991982162" lon="8.993266951292753">
<ele>209</ele>
<time>2023-05-17T09:17:30Z</time>
</trkpt>
<trkpt lat="49.06198292970657" lon="8.993227975443006">
<ele>209.20000000000005</ele>
<time>2023-05-17T09:17:31Z</time>
</trkpt>
<trkpt lat="49.0619779843837" lon="8.993189921602607">
<ele>209.20000000000005</ele>
<time>2023-05-17T09:17:32Z</time>
</trkpt>
<trkpt lat="49.0619729552418" lon="8.99315195158124">
<ele>209.20000000000005</ele>
<time>2023-05-17T09:17:33Z</time>
</trkpt>
<trkpt lat="49.061967926099896" lon="8.993119932711124">
<ele>209.20000000000005</ele>
<time>2023-05-17T09:17:34Z</time>
</trkpt>
<trkpt lat="49.061964992433786" lon="8.99308799766004">
<ele>209.20000000000005</ele>
<time>2023-05-17T09:17:35Z</time>
</trkpt>
<trkpt lat="49.061961974948645" lon="8.993056984618306">
<ele>209.20000000000005</ele>
<time>2023-05-17T09:17:36Z</time>
</trkpt>
<trkpt lat="49.06195694580674" lon="8.99302295409143">
<ele>209.39999999999998</ele>
<time>2023-05-17T09:17:37Z</time>
</trkpt>
<trkpt lat="49.06195493414998" lon="8.992987917736173">
<ele>209.39999999999998</ele>
<time>2023-05-17T09:17:38Z</time>
</trkpt>
<trkpt lat="49.06195191666484" lon="8.992951959371567">
<ele>209.39999999999998</ele>
<time>2023-05-17T09:17:39Z</time>
</trkpt>
<trkpt lat="49.06194697134197" lon="8.992919940501451">
<ele>209.39999999999998</ele>
<time>2023-05-17T09:17:40Z</time>
</trkpt>
<trkpt lat="49.061944959685206" lon="8.992891944944859">
<ele>209.39999999999998</ele>
<time>2023-05-17T09:17:41Z</time>
</trkpt>
<trkpt lat="49.061942948028445" lon="8.992866966873407">
<ele>209.39999999999998</ele>
<time>2023-05-17T09:17:42Z</time>
</trkpt>
<trkpt lat="49.06193791888654" lon="8.992842994630337">
<ele>209.60000000000002</ele>
<time>2023-05-17T09:17:43Z</time>
</trkpt>
<trkpt lat="49.06192794442177" lon="8.992817932739854">
<ele>209.60000000000002</ele>
<time>2023-05-17T09:17:44Z</time>
</trkpt>
<trkpt lat="49.06191495247185" lon="8.992794966325164">
<ele>209.60000000000002</ele>
<time>2023-05-17T09:17:45Z</time>
</trkpt>
<trkpt lat="49.06189299188554" lon="8.992776945233345">
<ele>209.60000000000002</ele>
<time>2023-05-17T09:17:46Z</time>
</trkpt>
<trkpt lat="49.06186499632895" lon="8.992762947455049">
<ele>209.60000000000002</ele>
<time>2023-05-17T09:17:47Z</time>
</trkpt>
<trkpt lat="49.061834989115596" lon="8.992752972990274">
<ele>209.60000000000002</ele>
<time>2023-05-17T09:17:48Z</time>
</trkpt>
<trkpt lat="49.06180297024548" lon="8.992746938019991">
<ele>209.60000000000002</ele>
<time>2023-05-17T09:17:49Z</time>
</trkpt>
<trkpt lat="49.06176793389022" lon="8.992737969383597">
<ele>209.60000000000002</ele>
<time>2023-05-17T09:17:50Z</time>
</trkpt>
<trkpt lat="49.061732981354" lon="8.992727994918823">
<ele>209.60000000000002</ele>
<time>2023-05-17T09:17:51Z</time>
</trkpt>
<trkpt lat="49.06169794499874" lon="8.992716930806637">
<ele>209.60000000000002</ele>
<time>2023-05-17T09:17:52Z</time>
</trkpt>
<trkpt lat="49.061662992462516" lon="8.992704944685102">
<ele>209.60000000000002</ele>
<time>2023-05-17T09:17:53Z</time>
</trkpt>
<trkpt lat="49.06162695027888" lon="8.992692958563566">
<ele>209.79999999999995</ele>
<time>2023-05-17T09:17:54Z</time>
</trkpt>
<trkpt lat="49.06158998608589" lon="8.992682984098792">
<ele>209.79999999999995</ele>
<time>2023-05-17T09:17:55Z</time>
</trkpt>
<trkpt lat="49.06155293807387" lon="8.992672925814986">
<ele>209.79999999999995</ele>
<time>2023-05-17T09:17:56Z</time>
</trkpt>
<trkpt lat="49.061514968052506" lon="8.992661945521832">
<ele>209.79999999999995</ele>
<time>2023-05-17T09:17:57Z</time>
</trkpt>
<trkpt lat="49.06147699803114" lon="8.992652976885438">
<ele>210</ele>
<time>2023-05-17T09:17:58Z</time>
</trkpt>
<trkpt lat="49.06144196167588" lon="8.992642918601632">
<ele>210</ele>
<time>2023-05-17T09:17:59Z</time>
</trkpt>
<trkpt lat="49.061404997482896" lon="8.992632944136858">
<ele>210</ele>
<time>2023-05-17T09:18:00Z</time>
</trkpt>
<trkpt lat="49.06136996112764" lon="8.992622969672084">
<ele>210.20000000000005</ele>
<time>2023-05-17T09:18:01Z</time>
</trkpt>
<trkpt lat="49.06133794225752" lon="8.99261492304504">
<ele>210.20000000000005</ele>
<time>2023-05-17T09:18:02Z</time>
</trkpt>
<trkpt lat="49.06130692921579" lon="8.992604948580265">
<ele>210.39999999999998</ele>
<time>2023-05-17T09:18:03Z</time>
</trkpt>
<trkpt lat="49.061276922002435" lon="8.992597991600633">
<ele>210.39999999999998</ele>
<time>2023-05-17T09:18:04Z</time>
</trkpt>
<trkpt lat="49.06124498695135" lon="8.992589944973588">
<ele>210.60000000000002</ele>
<time>2023-05-17T09:18:05Z</time>
</trkpt>
<trkpt lat="49.06121799722314" lon="8.992582987993956">
<ele>210.79999999999995</ele>
<time>2023-05-17T09:18:06Z</time>
</trkpt>
<trkpt lat="49.061189917847514" lon="8.992576953023672">
<ele>210.79999999999995</ele>
<time>2023-05-17T09:18:07Z</time>
</trkpt>
<trkpt lat="49.0611629281193" lon="8.99256999604404">
<ele>211</ele>
<time>2023-05-17T09:18:08Z</time>
</trkpt>
<trkpt lat="49.06113694421947" lon="8.992561949416995">
<ele>211</ele>
<time>2023-05-17T09:18:09Z</time>
</trkpt>
<trkpt lat="49.0611079428345" lon="8.992551974952221">
<ele>211.20000000000005</ele>
<time>2023-05-17T09:18:10Z</time>
</trkpt>
<trkpt lat="49.061079947277904" lon="8.992541916668415">
<ele>211.39999999999998</ele>
<time>2023-05-17T09:18:11Z</time>
</trkpt>
<trkpt lat="49.06104792840779" lon="8.992531942203641">
<ele>211.39999999999998</ele>
<time>2023-05-17T09:18:12Z</time>
</trkpt>
<trkpt lat="49.06102295033634" lon="8.992519956082106">
<ele>211.60000000000002</ele>
<time>2023-05-17T09:18:13Z</time>
</trkpt>
<trkpt lat="49.060996966436505" lon="8.992501934990287">
<ele>211.79999999999995</ele>
<time>2023-05-17T09:18:14Z</time>
</trkpt>
<trkpt lat="49.060972994193435" lon="8.992481986060739">
<ele>211.79999999999995</ele>
<time>2023-05-17T09:18:15Z</time>
</trkpt>
<trkpt lat="49.060952961444855" lon="8.992456924170256">
<ele>212</ele>
<time>2023-05-17T09:18:16Z</time>
</trkpt>
<trkpt lat="49.06093996949494" lon="8.992427922785282">
<ele>212.20000000000005</ele>
<time>2023-05-17T09:18:17Z</time>
</trkpt>
<trkpt lat="49.06092697754502" lon="8.992404956370592">
<ele>212.39999999999998</ele>
<time>2023-05-17T09:18:18Z</time>
</trkpt>
<trkpt lat="49.06091297976673" lon="8.992382995784283">
<ele>212.60000000000002</ele>
<time>2023-05-17T09:18:19Z</time>
</trkpt>
<trkpt lat="49.06089797616005" lon="8.992362963035703">
<ele>212.60000000000002</ele>
<time>2023-05-17T09:18:20Z</time>
</trkpt>
<trkpt lat="49.060886995866895" lon="8.992344941943884">
<ele>212.79999999999995</ele>
<time>2023-05-17T09:18:21Z</time>
</trkpt>
<trkpt lat="49.06087199226022" lon="8.992329938337207">
<ele>213</ele>
<time>2023-05-17T09:18:22Z</time>
</trkpt>
<trkpt lat="49.06085799448192" lon="8.992317952215672">
<ele>213</ele>
<time>2023-05-17T09:18:23Z</time>
</trkpt>
<trkpt lat="49.060847936198115" lon="8.992312923073769">
<ele>213.20000000000005</ele>
<time>2023-05-17T09:18:24Z</time>
</trkpt>
<trkpt lat="49.060844918712974" lon="8.992311917245388">
<ele>213.20000000000005</ele>
<time>2023-05-17T09:18:25Z</time>
</trkpt>
<trkpt lat="49.060842990875244" lon="8.992309989407659">
<ele>213.39999999999998</ele>
<time>2023-05-17T09:18:26Z</time>
</trkpt>
<trkpt lat="49.06082999892533" lon="8.99231493473053">
<ele>214</ele>
<time>2023-05-17T09:18:26Z</time>
</trkpt>
<trkpt lat="49.0608399733901" lon="8.992326920852065">
<ele>214</ele>
<time>2023-05-17T09:18:27Z</time>
</trkpt>
<trkpt lat="49.06085497699678" lon="8.992339996621013">
<ele>214</ele>
<time>2023-05-17T09:18:28Z</time>
</trkpt>
<trkpt lat="49.0608729980886" lon="8.992361957207322">
<ele>213.79999999999995</ele>
<time>2023-05-17T09:18:29Z</time>
</trkpt>
<trkpt lat="49.06089495867491" lon="8.992391964420676">
<ele>213.79999999999995</ele>
<time>2023-05-17T09:18:30Z</time>
</trkpt>
<trkpt lat="49.06091691926122" lon="8.992429934442043">
<ele>213.79999999999995</ele>
<time>2023-05-17T09:18:31Z</time>
</trkpt>
<trkpt lat="49.06093996949494" lon="8.992472933605313">
<ele>213.79999999999995</ele>
<time>2023-05-17T09:18:32Z</time>
</trkpt>
<trkpt lat="49.06096997670829" lon="8.992511993274093">
<ele>213.60000000000002</ele>
<time>2023-05-17T09:18:33Z</time>
</trkpt>
<trkpt lat="49.06100694090128" lon="8.992539988830686">
<ele>213.39999999999998</ele>
<time>2023-05-17T09:18:34Z</time>
</trkpt>
<trkpt lat="49.06105195172131" lon="8.992559937760234">
<ele>213.39999999999998</ele>
<time>2023-05-17T09:18:35Z</time>
</trkpt>
<trkpt lat="49.06109998002648" lon="8.992574941366911">
<ele>213.20000000000005</ele>
<time>2023-05-17T09:18:36Z</time>
</trkpt>
<trkpt lat="49.06115295365453" lon="8.992587933316827">
<ele>213</ele>
<time>2023-05-17T09:18:37Z</time>
</trkpt>
<trkpt lat="49.06120693311095" lon="8.992601931095123">
<ele>212.79999999999995</ele>
<time>2023-05-17T09:18:38Z</time>
</trkpt>
<trkpt lat="49.06125697307289" lon="8.9926169347018">
<ele>212.60000000000002</ele>
<time>2023-05-17T09:18:39Z</time>
</trkpt>
<trkpt lat="49.06130994670093" lon="8.992632944136858">
<ele>212.60000000000002</ele>
<time>2023-05-17T09:18:40Z</time>
</trkpt>
<trkpt lat="49.061362920328975" lon="8.992647947743535">
<ele>212.39999999999998</ele>
<time>2023-05-17T09:18:41Z</time>
</trkpt>
<trkpt lat="49.06141991727054" lon="8.992662951350212">
<ele>212.20000000000005</ele>
<time>2023-05-17T09:18:42Z</time>
</trkpt>
<trkpt lat="49.06147498637438" lon="8.992676949128509">
<ele>212</ele>
<time>2023-05-17T09:18:43Z</time>
</trkpt>
<trkpt lat="49.061531983315945" lon="8.992692958563566">
<ele>211.79999999999995</ele>
<time>2023-05-17T09:18:44Z</time>
</trkpt>
<trkpt lat="49.06158797442913" lon="8.992706956341863">
<ele>211.60000000000002</ele>
<time>2023-05-17T09:18:45Z</time>
</trkpt>
<trkpt lat="49.0616449713707" lon="8.992719948291779">
<ele>211.39999999999998</ele>
<time>2023-05-17T09:18:46Z</time>
</trkpt>
<trkpt lat="49.06169794499874" lon="8.992734951898456">
<ele>211.20000000000005</ele>
<time>2023-05-17T09:18:47Z</time>
</trkpt>
<trkpt lat="49.061751924455166" lon="8.992752972990274">
<ele>211</ele>
<time>2023-05-17T09:18:48Z</time>
</trkpt>
<trkpt lat="49.06179995276034" lon="8.992769988253713">
<ele>210.79999999999995</ele>
<time>2023-05-17T09:18:49Z</time>
</trkpt>
<trkpt lat="49.06184194609523" lon="8.99278499186039">
<ele>210.60000000000002</ele>
<time>2023-05-17T09:18:50Z</time>
</trkpt>
<trkpt lat="49.061881927773356" lon="8.9928069524467">
<ele>210.39999999999998</ele>
<time>2023-05-17T09:18:51Z</time>
</trkpt>
<trkpt lat="49.06191294081509" lon="8.992841988801956">
<ele>210.39999999999998</ele>
<time>2023-05-17T09:18:52Z</time>
</trkpt>
<trkpt lat="49.06193498522043" lon="8.992886999621987">
<ele>210.20000000000005</ele>
<time>2023-05-17T09:18:53Z</time>
</trkpt>
<trkpt lat="49.06194998882711" lon="8.992939973250031">
<ele>210.20000000000005</ele>
<time>2023-05-17T09:18:54Z</time>
</trkpt>
<trkpt lat="49.06195996329188" lon="8.99299998767674">
<ele>210.20000000000005</ele>
<time>2023-05-17T09:18:55Z</time>
</trkpt>
<trkpt lat="49.061967926099896" lon="8.99306494742632">
<ele>210</ele>
<time>2023-05-17T09:18:56Z</time>
</trkpt>
<trkpt lat="49.06197496689856" lon="8.99312999099493">
<ele>210</ele>
<time>2023-05-17T09:18:57Z</time>
</trkpt>
<trkpt lat="49.06198192387819" lon="8.993197968229651">
<ele>210</ele>
<time>2023-05-17T09:18:58Z</time>
</trkpt>
<trkpt lat="49.06198997050524" lon="8.993264939635992">
<ele>209.79999999999995</ele>
<time>2023-05-17T09:18:59Z</time>
</trkpt>
<trkpt lat="49.06199692748487" lon="8.993332916870713">
<ele>209.79999999999995</ele>
<time>2023-05-17T09:19:00Z</time>
</trkpt>
<trkpt lat="49.062006985768676" lon="8.993404917418957">
<ele>209.79999999999995</ele>
<time>2023-05-17T09:19:01Z</time>
</trkpt>
<trkpt lat="49.06201696023345" lon="8.9934769179672">
<ele>209.79999999999995</ele>
<time>2023-05-17T09:19:02Z</time>
</trkpt>
<trkpt lat="49.06203196384013" lon="8.993546990677714">
<ele>209.60000000000002</ele>
<time>2023-05-17T09:19:03Z</time>
</trkpt>
<trkpt lat="49.06204495579004" lon="8.993614967912436">
<ele>209.60000000000002</ele>
<time>2023-05-17T09:19:04Z</time>
</trkpt>
<trkpt lat="49.06205794773996" lon="8.993682945147157">
<ele>209.60000000000002</ele>
<time>2023-05-17T09:19:05Z</time>
</trkpt>
<trkpt lat="49.062072951346636" lon="8.993752934038639">
<ele>209.60000000000002</ele>
<time>2023-05-17T09:19:06Z</time>
</trkpt>
<trkpt lat="49.062089966610074" lon="8.993822922930121">
<ele>209.39999999999998</ele>
<time>2023-05-17T09:19:07Z</time>
</trkpt>
<trkpt lat="49.06210497021675" lon="8.993892995640635">
<ele>209.39999999999998</ele>
<time>2023-05-17T09:19:08Z</time>
</trkpt>
<trkpt lat="49.06211796216667" lon="8.993959967046976">
<ele>209.39999999999998</ele>
<time>2023-05-17T09:19:09Z</time>
</trkpt>
<trkpt lat="49.0621299482882" lon="8.994024926796556">
<ele>209.39999999999998</ele>
<time>2023-05-17T09:19:10Z</time>
</trkpt>
<trkpt lat="49.06214696355164" lon="8.994086952880025">
<ele>209.20000000000005</ele>
<time>2023-05-17T09:19:11Z</time>
</trkpt>
<trkpt lat="49.06216992996633" lon="8.99414294399321">
<ele>209.20000000000005</ele>
<time>2023-05-17T09:19:12Z</time>
</trkpt>
<trkpt lat="49.06219499185681" lon="8.994196923449636">
<ele>209.20000000000005</ele>
<time>2023-05-17T09:19:13Z</time>
</trkpt>
<trkpt lat="49.0622179582715" lon="8.99424796923995">
<ele>209.20000000000005</ele>
<time>2023-05-17T09:19:14Z</time>
</trkpt>
<trkpt lat="49.062242936342955" lon="8.994304966181517">
<ele>209.20000000000005</ele>
<time>2023-05-17T09:19:15Z</time>
</trkpt>
<trkpt lat="49.06227193772793" lon="8.994361963123083">
<ele>209</ele>
<time>2023-05-17T09:19:16Z</time>
</trkpt>
<trkpt lat="49.06229993328452" lon="8.994416948407888">
<ele>209</ele>
<time>2023-05-17T09:19:17Z</time>
</trkpt>
<trkpt lat="49.06233496963978" lon="8.994471933692694">
<ele>208.79999999999995</ele>
<time>2023-05-17T09:19:18Z</time>
</trkpt>
<trkpt lat="49.062371933832765" lon="8.994526918977499">
<ele>208.60000000000002</ele>
<time>2023-05-17T09:19:19Z</time>
</trkpt>
<trkpt lat="49.06240998767316" lon="8.994574947282672">
<ele>208.39999999999998</ele>
<time>2023-05-17T09:19:20Z</time>
</trkpt>
<trkpt lat="49.06245298683643" lon="8.994619958102703">
<ele>208.20000000000005</ele>
<time>2023-05-17T09:19:21Z</time>
</trkpt>
<trkpt lat="49.06249498017132" lon="8.994662957265973">
<ele>208</ele>
<time>2023-05-17T09:19:22Z</time>
</trkpt>
<trkpt lat="49.06254191882908" lon="8.99469698779285">
<ele>208</ele>
<time>2023-05-17T09:19:23Z</time>
</trkpt>
<trkpt lat="49.06259195879102" lon="8.994726995006204">
<ele>207.79999999999995</ele>
<time>2023-05-17T09:19:24Z</time>
</trkpt>
<trkpt lat="49.06264493241906" lon="8.994756918400526">
<ele>207.60000000000002</ele>
<time>2023-05-17T09:19:25Z</time>
</trkpt>
<trkpt lat="49.062692960724235" lon="8.994779968634248">
<ele>207.39999999999998</ele>
<time>2023-05-17T09:19:26Z</time>
</trkpt>
<trkpt lat="49.062736965715885" lon="8.994799917563796">
<ele>207.20000000000005</ele>
<time>2023-05-17T09:19:27Z</time>
</trkpt>
<trkpt lat="49.062777953222394" lon="8.994819950312376">
<ele>207.20000000000005</ele>
<time>2023-05-17T09:19:28Z</time>
</trkpt>
<trkpt lat="49.062821958214045" lon="8.994839983060956">
<ele>207</ele>
<time>2023-05-17T09:19:29Z</time>
</trkpt>
<trkpt lat="49.062864957377315" lon="8.994859931990504">
<ele>206.79999999999995</ele>
<time>2023-05-17T09:19:30Z</time>
</trkpt>
<trkpt lat="49.062907956540585" lon="8.994876947253942">
<ele>206.79999999999995</ele>
<time>2023-05-17T09:19:31Z</time>
</trkpt>
<trkpt lat="49.062951961532235" lon="8.994892956689">
<ele>206.60000000000002</ele>
<time>2023-05-17T09:19:32Z</time>
</trkpt>
<trkpt lat="49.062996972352266" lon="8.994906954467297">
<ele>206.60000000000002</ele>
<time>2023-05-17T09:19:33Z</time>
</trkpt>
<trkpt lat="49.063039971515536" lon="8.994926987215877">
<ele>206.39999999999998</ele>
<time>2023-05-17T09:19:34Z</time>
</trkpt>
<trkpt lat="49.0630779415369" lon="8.994951965287328">
<ele>206.39999999999998</ele>
<time>2023-05-17T09:19:35Z</time>
</trkpt>
<trkpt lat="49.06311691738665" lon="8.994981972500682">
<ele>206.39999999999998</ele>
<time>2023-05-17T09:19:36Z</time>
</trkpt>
<trkpt lat="49.06315195374191" lon="8.995012985542417">
<ele>206.20000000000005</ele>
<time>2023-05-17T09:19:37Z</time>
</trkpt>
<trkpt lat="49.063184978440404" lon="8.995051961392164">
<ele>206.20000000000005</ele>
<time>2023-05-17T09:19:38Z</time>
</trkpt>
<trkpt lat="49.063209956511855" lon="8.995092948898673">
<ele>206</ele>
<time>2023-05-17T09:19:39Z</time>
</trkpt>
<trkpt lat="49.063229989260435" lon="8.995134942233562">
<ele>206</ele>
<time>2023-05-17T09:19:40Z</time>
</trkpt>
<trkpt lat="49.06324692070484" lon="8.99516997858882">
<ele>205.79999999999995</ele>
<time>2023-05-17T09:19:41Z</time>
</trkpt>
<trkpt lat="49.06325798481703" lon="8.995197974145412">
<ele>205.79999999999995</ele>
<time>2023-05-17T09:19:42Z</time>
</trkpt>
<trkpt lat="49.06326997093856" lon="8.995226975530386">
<ele>205.79999999999995</ele>
<time>2023-05-17T09:19:43Z</time>
</trkpt>
<trkpt lat="49.0632819570601" lon="8.995247930288315">
<ele>205.60000000000002</ele>
<time>2023-05-17T09:19:44Z</time>
</trkpt>
<trkpt lat="49.06329293735325" lon="8.995267963036895">
<ele>205.60000000000002</ele>
<time>2023-05-17T09:19:45Z</time>
</trkpt>
<trkpt lat="49.06330198980868" lon="8.995287995785475">
<ele>205.60000000000002</ele>
<time>2023-05-17T09:19:46Z</time>
</trkpt>
<trkpt lat="49.06330693513155" lon="8.995311968028545">
<ele>205.39999999999998</ele>
<time>2023-05-17T09:19:47Z</time>
</trkpt>
<trkpt lat="49.06330693513155" lon="8.995336946099997">
<ele>205.39999999999998</ele>
<time>2023-05-17T09:19:48Z</time>
</trkpt>
<trkpt lat="49.06330198980868" lon="8.995359996333718">
<ele>205.39999999999998</ele>
<time>2023-05-17T09:19:49Z</time>
</trkpt>
<trkpt lat="49.06330198980868" lon="8.995379945263267">
<ele>205.39999999999998</ele>
<time>2023-05-17T09:19:50Z</time>
</trkpt>
<trkpt lat="49.06330299563706" lon="8.995399978011847">
<ele>205.39999999999998</ele>
<time>2023-05-17T09:19:51Z</time>
</trkpt>
<trkpt lat="49.06330995261669" lon="8.995422944426537">
<ele>205.39999999999998</ele>
<time>2023-05-17T09:19:52Z</time>
</trkpt>
<trkpt lat="49.063316993415356" lon="8.995444988831878">
<ele>205.20000000000005</ele>
<time>2023-05-17T09:19:53Z</time>
</trkpt>
<trkpt lat="49.06332294456661" lon="8.995464937761426">
<ele>205.20000000000005</ele>
<time>2023-05-17T09:19:54Z</time>
</trkpt>
<trkpt lat="49.06333199702203" lon="8.995486982166767">
<ele>205.20000000000005</ele>
<time>2023-05-17T09:19:55Z</time>
</trkpt>
<trkpt lat="49.06334197148681" lon="8.995509948581457">
<ele>205.20000000000005</ele>
<time>2023-05-17T09:19:56Z</time>
</trkpt>
<trkpt lat="49.06334993429482" lon="8.995541967451572">
<ele>205.20000000000005</ele>
<time>2023-05-17T09:19:57Z</time>
</trkpt>
<trkpt lat="49.06335295177996" lon="8.99557993747294">
<ele>205.20000000000005</ele>
<time>2023-05-17T09:19:58Z</time>
</trkpt>
<trkpt lat="49.063357980921865" lon="8.99562494829297">
<ele>205.20000000000005</ele>
<time>2023-05-17T09:19:59Z</time>
</trkpt>
<trkpt lat="49.063361920416355" lon="8.995672976598144">
<ele>205</ele>
<time>2023-05-17T09:20:00Z</time>
</trkpt>
<trkpt lat="49.063362926244736" lon="8.99572997353971">
<ele>205</ele>
<time>2023-05-17T09:20:01Z</time>
</trkpt>
<trkpt lat="49.063359992578626" lon="8.995782947167754">
<ele>205</ele>
<time>2023-05-17T09:20:02Z</time>
</trkpt>
<trkpt lat="49.063357980921865" lon="8.995832987129688">
<ele>205</ele>
<time>2023-05-17T09:20:03Z</time>
</trkpt>
<trkpt lat="49.06335496343672" lon="8.995886966586113">
<ele>205</ele>
<time>2023-05-17T09:20:04Z</time>
</trkpt>
<trkpt lat="49.06334993429482" lon="8.995939940214157">
<ele>205</ele>
<time>2023-05-17T09:20:05Z</time>
</trkpt>
<trkpt lat="49.06334498897195" lon="8.995996937155724">
<ele>205</ele>
<time>2023-05-17T09:20:06Z</time>
</trkpt>
<trkpt lat="49.063339959830046" lon="8.996051922440529">
<ele>205</ele>
<time>2023-05-17T09:20:07Z</time>
</trkpt>
<trkpt lat="49.06333493068814" lon="8.996104979887605">
<ele>205</ele>
<time>2023-05-17T09:20:08Z</time>
</trkpt>
<trkpt lat="49.06332998536527" lon="8.99615996517241">
<ele>205</ele>
<time>2023-05-17T09:20:09Z</time>
</trkpt>
<trkpt lat="49.06332696788013" lon="8.996217967942357">
<ele>205</ele>
<time>2023-05-17T09:20:10Z</time>
</trkpt>
<trkpt lat="49.06332495622337" lon="8.996276976540685">
<ele>204.79999999999995</ele>
<time>2023-05-17T09:20:11Z</time>
</trkpt>
<trkpt lat="49.06332495622337" lon="8.996336990967393">
<ele>204.79999999999995</ele>
<time>2023-05-17T09:20:12Z</time>
</trkpt>
<trkpt lat="49.06332696788013" lon="8.996401950716972">
<ele>204.79999999999995</ele>
<time>2023-05-17T09:20:13Z</time>
</trkpt>
<trkpt lat="49.06332495622337" lon="8.996464982628822">
<ele>204.79999999999995</ele>
<time>2023-05-17T09:20:14Z</time>
</trkpt>
<trkpt lat="49.063314981758595" lon="8.99652499705553">
<ele>204.79999999999995</ele>
<time>2023-05-17T09:20:15Z</time>
</trkpt>
<trkpt lat="49.063297966495156" lon="8.996581993997097">
<ele>204.79999999999995</ele>
<time>2023-05-17T09:20:16Z</time>
</trkpt>
<trkpt lat="49.063274916261435" lon="8.996624993160367">
<ele>204.79999999999995</ele>
<time>2023-05-17T09:20:17Z</time>
</trkpt>
<trkpt lat="49.06324499286711" lon="8.996637985110283">
<ele>204.60000000000002</ele>
<time>2023-05-17T09:20:18Z</time>
</trkpt>
<trkpt lat="49.06320693902671" lon="8.996634967625141">
<ele>204.60000000000002</ele>
<time>2023-05-17T09:20:19Z</time>
</trkpt>
<trkpt lat="49.06316997483373" lon="8.996626920998096">
<ele>204.60000000000002</ele>
<time>2023-05-17T09:20:20Z</time>
</trkpt>
<trkpt lat="49.06313192099333" lon="8.996617952361703">
<ele>204.60000000000002</ele>
<time>2023-05-17T09:20:21Z</time>
</trkpt>
<trkpt lat="49.06309495680034" lon="8.99661191739142">
<ele>204.79999999999995</ele>
<time>2023-05-17T09:20:22Z</time>
</trkpt>
<trkpt lat="49.063057992607355" lon="8.996604960411787">
<ele>204.79999999999995</ele>
<time>2023-05-17T09:20:23Z</time>
</trkpt>
<trkpt lat="49.06302195042372" lon="8.996597919613123">
<ele>205</ele>
<time>2023-05-17T09:20:24Z</time>
</trkpt>
<trkpt lat="49.06298196874559" lon="8.996587945148349">
<ele>205</ele>
<time>2023-05-17T09:20:25Z</time>
</trkpt>
<trkpt lat="49.06294492073357" lon="8.996584927663207">
<ele>205.20000000000005</ele>
<time>2023-05-17T09:20:26Z</time>
</trkpt>
<trkpt lat="49.062909968197346" lon="8.996577970683575">
<ele>205.39999999999998</ele>
<time>2023-05-17T09:20:27Z</time>
</trkpt>
<trkpt lat="49.06287493184209" lon="8.996571935713291">
<ele>205.39999999999998</ele>
<time>2023-05-17T09:20:28Z</time>
</trkpt>
<trkpt lat="49.0628329385072" lon="8.9965679962188">
<ele>205.60000000000002</ele>
<time>2023-05-17T09:20:29Z</time>
</trkpt>
<trkpt lat="49.06279295682907" lon="8.99656992405653">
<ele>205.60000000000002</ele>
<time>2023-05-17T09:20:30Z</time>
</trkpt>
<trkpt lat="49.0627499576658" lon="8.99656699039042">
<ele>205.79999999999995</ele>
<time>2023-05-17T09:20:31Z</time>
</trkpt>
<trkpt lat="49.062711987644434" lon="8.996562967076898">
<ele>205.79999999999995</ele>
<time>2023-05-17T09:20:32Z</time>
</trkpt>
<trkpt lat="49.062672927975655" lon="8.99656699039042">
<ele>206</ele>
<time>2023-05-17T09:20:33Z</time>
</trkpt>
<trkpt lat="49.06263797543943" lon="8.9965679962188">
<ele>206.20000000000005</ele>
<time>2023-05-17T09:20:34Z</time>
</trkpt>
<trkpt lat="49.06260293908417" lon="8.99656699039042">
<ele>206.39999999999998</ele>
<time>2023-05-17T09:20:35Z</time>
</trkpt>
<trkpt lat="49.06256999820471" lon="8.996562967076898">
<ele>206.60000000000002</ele>
<time>2023-05-17T09:20:36Z</time>
</trkpt>
<trkpt lat="49.06253496184945" lon="8.996562967076898">
<ele>206.79999999999995</ele>
<time>2023-05-17T09:20:37Z</time>
</trkpt>
<trkpt lat="49.062499925494194" lon="8.996561961248517">
<ele>207</ele>
<time>2023-05-17T09:20:38Z</time>
</trkpt>
<trkpt lat="49.06246497295797" lon="8.996557937934995">
<ele>207.20000000000005</ele>
<time>2023-05-17T09:20:39Z</time>
</trkpt>
<trkpt lat="49.06242993660271" lon="8.996552992612123">
<ele>207.39999999999998</ele>
<time>2023-05-17T09:20:40Z</time>
</trkpt>
<trkpt lat="49.06239699572325" lon="8.996549975126982">
<ele>207.60000000000002</ele>
<time>2023-05-17T09:20:41Z</time>
</trkpt>
<trkpt lat="49.06236296519637" lon="8.996542934328318">
<ele>207.79999999999995</ele>
<time>2023-05-17T09:20:42Z</time>
</trkpt>
<trkpt lat="49.062329940497875" lon="8.996537989005446">
<ele>208</ele>
<time>2023-05-17T09:20:43Z</time>
</trkpt>
<trkpt lat="49.06229699961841" lon="8.996531954035163">
<ele>208.20000000000005</ele>
<time>2023-05-17T09:20:44Z</time>
</trkpt>
<trkpt lat="49.062261963263154" lon="8.99652499705553">
<ele>208.39999999999998</ele>
<time>2023-05-17T09:20:45Z</time>
</trkpt>
<trkpt lat="49.06222994439304" lon="8.996516950428486">
<ele>208.60000000000002</ele>
<time>2023-05-17T09:20:46Z</time>
</trkpt>
<trkpt lat="49.06219691969454" lon="8.996509993448853">
<ele>208.79999999999995</ele>
<time>2023-05-17T09:20:47Z</time>
</trkpt>
<trkpt lat="49.0621629729867" lon="8.99650496430695">
<ele>209</ele>
<time>2023-05-17T09:20:48Z</time>
</trkpt>
<trkpt lat="49.06212793663144" lon="8.996501946821809">
<ele>209.20000000000005</ele>
<time>2023-05-17T09:20:49Z</time>
</trkpt>
<trkpt lat="49.062096923589706" lon="8.996496917679906">
<ele>209.39999999999998</ele>
<time>2023-05-17T09:20:50Z</time>
</trkpt>
<trkpt lat="49.06206498853862" lon="8.996491972357035">
<ele>209.60000000000002</ele>
<time>2023-05-17T09:20:51Z</time>
</trkpt>
<trkpt lat="49.06203196384013" lon="8.996487949043512">
<ele>209.79999999999995</ele>
<time>2023-05-17T09:20:52Z</time>
</trkpt>
<trkpt lat="49.06199994497001" lon="8.99648493155837">
<ele>210</ele>
<time>2023-05-17T09:20:53Z</time>
</trkpt>
<trkpt lat="49.061966920271516" lon="8.9964799862355">
<ele>210.20000000000005</ele>
<time>2023-05-17T09:20:54Z</time>
</trkpt>
<trkpt lat="49.06193498522043" lon="8.996474957093596">
<ele>210.39999999999998</ele>
<time>2023-05-17T09:20:55Z</time>
</trkpt>
<trkpt lat="49.061899948865175" lon="8.996472945436835">
<ele>210.60000000000002</ele>
<time>2023-05-17T09:20:56Z</time>
</trkpt>
<trkpt lat="49.06186499632895" lon="8.996471939608455">
<ele>210.79999999999995</ele>
<time>2023-05-17T09:20:57Z</time>
</trkpt>
<trkpt lat="49.061831971630454" lon="8.996469927951694">
<ele>211</ele>
<time>2023-05-17T09:20:58Z</time>
</trkpt>
<trkpt lat="49.0617969352752" lon="8.996466994285583">
<ele>211</ele>
<time>2023-05-17T09:20:59Z</time>
</trkpt>
<trkpt lat="49.06176198273897" lon="8.996464982628822">
<ele>211.20000000000005</ele>
<time>2023-05-17T09:21:00Z</time>
</trkpt>
<trkpt lat="49.061726946383715" lon="8.996462970972061">
<ele>211.39999999999998</ele>
<time>2023-05-17T09:21:01Z</time>
</trkpt>
<trkpt lat="49.06169299967587" lon="8.996457941830158">
<ele>211.60000000000002</ele>
<time>2023-05-17T09:21:02Z</time>
</trkpt>
<trkpt lat="49.06165796332061" lon="8.996454924345016">
<ele>211.79999999999995</ele>
<time>2023-05-17T09:21:03Z</time>
</trkpt>
<trkpt lat="49.061622926965356" lon="8.996447967365384">
<ele>212</ele>
<time>2023-05-17T09:21:04Z</time>
</trkpt>
<trkpt lat="49.06159199774265" lon="8.996444949880242">
<ele>212</ele>
<time>2023-05-17T09:21:05Z</time>
</trkpt>
<trkpt lat="49.06156299635768" lon="8.996442938223481">
<ele>212.20000000000005</ele>
<time>2023-05-17T09:21:06Z</time>
</trkpt>
<trkpt lat="49.061531983315945" lon="8.9964419323951">
<ele>212.39999999999998</ele>
<time>2023-05-17T09:21:07Z</time>
</trkpt>
<trkpt lat="49.06149493530393" lon="8.996434975415468">
<ele>212.60000000000002</ele>
<time>2023-05-17T09:21:08Z</time>
</trkpt>
<trkpt lat="49.06145797111094" lon="8.996427934616804">
<ele>212.79999999999995</ele>
<time>2023-05-17T09:21:09Z</time>
</trkpt>
<trkpt lat="49.06142293475568" lon="8.996422989293933">
<ele>212.79999999999995</ele>
<time>2023-05-17T09:21:10Z</time>
</trkpt>
<trkpt lat="49.06138697639108" lon="8.99641796015203">
<ele>213</ele>
<time>2023-05-17T09:21:11Z</time>
</trkpt>
<trkpt lat="49.0613479167223" lon="8.996414942666888">
<ele>213.20000000000005</ele>
<time>2023-05-17T09:21:12Z</time>
</trkpt>
<trkpt lat="49.06130793504417" lon="8.996409997344017">
<ele>213.39999999999998</ele>
<time>2023-05-17T09:21:13Z</time>
</trkpt>
<trkpt lat="49.06126694753766" lon="8.996402956545353">
<ele>213.39999999999998</ele>
<time>2023-05-17T09:21:14Z</time>
</trkpt>
<trkpt lat="49.06122495420277" lon="8.996392982080579">
<ele>213.60000000000002</ele>
<time>2023-05-17T09:21:15Z</time>
</trkpt>
<trkpt lat="49.0611819550395" lon="8.996381917968392">
<ele>213.60000000000002</ele>
<time>2023-05-17T09:21:16Z</time>
</trkpt>
<trkpt lat="49.06114197336137" lon="8.996356939896941">
<ele>213.79999999999995</ele>
<time>2023-05-17T09:21:17Z</time>
</trkpt>
<trkpt lat="49.06110995449126" lon="8.996317964047194">
<ele>213.79999999999995</ele>
<time>2023-05-17T09:21:18Z</time>
</trkpt>
<trkpt lat="49.06109495088458" lon="8.99626499041915">
<ele>214</ele>
<time>2023-05-17T09:21:19Z</time>
</trkpt>
<trkpt lat="49.06108799390495" lon="8.996204975992441">
<ele>214.20000000000005</ele>
<time>2023-05-17T09:21:20Z</time>
</trkpt>
<trkpt lat="49.06108698807657" lon="8.996141944080591">
<ele>214.20000000000005</ele>
<time>2023-05-17T09:21:21Z</time>
</trkpt>
<trkpt lat="49.06108992174268" lon="8.99607497267425">
<ele>214.39999999999998</ele>
<time>2023-05-17T09:21:22Z</time>
</trkpt>
<trkpt lat="49.06108799390495" lon="8.9960119407624">
<ele>214.39999999999998</ele>
<time>2023-05-17T09:21:23Z</time>
</trkpt>
<trkpt lat="49.06108698807657" lon="8.995946981012821">
<ele>214.60000000000002</ele>
<time>2023-05-17T09:21:24Z</time>
</trkpt>
<trkpt lat="49.06108497641981" lon="8.995879925787449">
<ele>214.60000000000002</ele>
<time>2023-05-17T09:21:25Z</time>
</trkpt>
<trkpt lat="49.061082964763045" lon="8.995809936895967">
<ele>214.79999999999995</ele>
<time>2023-05-17T09:21:26Z</time>
</trkpt>
<trkpt lat="49.06107793562114" lon="8.995736930519342">
<ele>214.79999999999995</ele>
<time>2023-05-17T09:21:27Z</time>
</trkpt>
<trkpt lat="49.061074918136" lon="8.99566694162786">
<ele>214.79999999999995</ele>
<time>2023-05-17T09:21:28Z</time>
</trkpt>
<trkpt lat="49.06107299029827" lon="8.995592929422855">
<ele>214.79999999999995</ele>
<time>2023-05-17T09:21:29Z</time>
</trkpt>
<trkpt lat="49.06107198446989" lon="8.995521934702992">
<ele>215</ele>
<time>2023-05-17T09:21:30Z</time>
</trkpt>
<trkpt lat="49.06107198446989" lon="8.995449934154749">
<ele>215</ele>
<time>2023-05-17T09:21:31Z</time>
</trkpt>
<trkpt lat="49.06106796115637" lon="8.995379945263267">
<ele>215</ele>
<time>2023-05-17T09:21:32Z</time>
</trkpt>
<trkpt lat="49.06106695532799" lon="8.995307944715023">
<ele>215</ele>
<time>2023-05-17T09:21:33Z</time>
</trkpt>
<trkpt lat="49.06106494367123" lon="8.995232926681638">
<ele>215</ele>
<time>2023-05-17T09:21:34Z</time>
</trkpt>
<trkpt lat="49.061062932014465" lon="8.995157992467284">
<ele>215</ele>
<time>2023-05-17T09:21:35Z</time>
</trkpt>
<trkpt lat="49.061057986691594" lon="8.995082974433899">
<ele>215</ele>
<time>2023-05-17T09:21:36Z</time>
</trkpt>
<trkpt lat="49.06105496920645" lon="8.995006950572133">
<ele>215</ele>
<time>2023-05-17T09:21:37Z</time>
</trkpt>
<trkpt lat="49.06105295754969" lon="8.994929920881987">
<ele>215</ele>
<time>2023-05-17T09:21:38Z</time>
</trkpt>
<trkpt lat="49.06104994006455" lon="8.99484995752573">
<ele>215</ele>
<time>2023-05-17T09:21:39Z</time>
</trkpt>
<trkpt lat="49.06104692257941" lon="8.994771922007203">
<ele>215</ele>
<time>2023-05-17T09:21:40Z</time>
</trkpt>
<trkpt lat="49.06104197725654" lon="8.994689946994185">
<ele>215</ele>
<time>2023-05-17T09:21:41Z</time>
</trkpt>
<trkpt lat="49.061036948114634" lon="8.994609983637929">
<ele>215</ele>
<time>2023-05-17T09:21:42Z</time>
</trkpt>
<trkpt lat="49.061029991135" lon="8.994531948119402">
<ele>215</ele>
<time>2023-05-17T09:21:43Z</time>
</trkpt>
<trkpt lat="49.06102194450796" lon="8.994452990591526">
<ele>215</ele>
<time>2023-05-17T09:21:44Z</time>
</trkpt>
<trkpt lat="49.06101297587156" lon="8.994374955072999">
<ele>215</ele>
<time>2023-05-17T09:21:45Z</time>
</trkpt>
<trkpt lat="49.06100492924452" lon="8.994297925382853">
<ele>215</ele>
<time>2023-05-17T09:21:46Z</time>
</trkpt>
<trkpt lat="49.060994954779744" lon="8.994216956198215">
<ele>215</ele>
<time>2023-05-17T09:21:47Z</time>
</trkpt>
<trkpt lat="49.06098498031497" lon="8.994134981185198">
<ele>215</ele>
<time>2023-05-17T09:21:48Z</time>
</trkpt>
<trkpt lat="49.060974922031164" lon="8.994051916524768">
<ele>215</ele>
<time>2023-05-17T09:21:49Z</time>
</trkpt>
<trkpt lat="49.06096293590963" lon="8.99396994151175">
<ele>215</ele>
<time>2023-05-17T09:21:50Z</time>
</trkpt>
<trkpt lat="49.060951955616474" lon="8.993891989812255">
<ele>214.79999999999995</ele>
<time>2023-05-17T09:21:51Z</time>
</trkpt>
<trkpt lat="49.0609419811517" lon="8.993809930980206">
<ele>214.79999999999995</ele>
<time>2023-05-17T09:21:52Z</time>
</trkpt>
<trkpt lat="49.060931922867894" lon="8.993727955967188">
<ele>214.79999999999995</ele>
<time>2023-05-17T09:21:53Z</time>
</trkpt>
<trkpt lat="49.06091993674636" lon="8.993647992610931">
<ele>214.79999999999995</ele>
<time>2023-05-17T09:21:54Z</time>
</trkpt>
<trkpt lat="49.06090694479644" lon="8.993569957092404">
<ele>214.79999999999995</ele>
<time>2023-05-17T09:21:55Z</time>
</trkpt>
<trkpt lat="49.060891941189766" lon="8.993492927402258">
<ele>214.60000000000002</ele>
<time>2023-05-17T09:21:56Z</time>
</trkpt>
<trkpt lat="49.06087693758309" lon="8.993417993187904">
<ele>214.60000000000002</ele>
<time>2023-05-17T09:21:57Z</time>
</trkpt>
<trkpt lat="49.06085992231965" lon="8.993342975154519">
<ele>214.60000000000002</ele>
<time>2023-05-17T09:21:58Z</time>
</trkpt>
<trkpt lat="49.060846930369735" lon="8.993269968777895">
<ele>214.60000000000002</ele>
<time>2023-05-17T09:21:59Z</time>
</trkpt>
<trkpt lat="49.06083293259144" lon="8.993201991543174">
<ele>214.60000000000002</ele>
<time>2023-05-17T09:22:00Z</time>
</trkpt>
<trkpt lat="49.060821952298284" lon="8.993134936317801">
<ele>214.60000000000002</ele>
<time>2023-05-17T09:22:01Z</time>
</trkpt>
<trkpt lat="49.06080795451999" lon="8.993072994053364">
<ele>214.60000000000002</ele>
<time>2023-05-17T09:22:02Z</time>
</trkpt>
<trkpt lat="49.06079798005521" lon="8.993016919121146">
<ele>214.60000000000002</ele>
<time>2023-05-17T09:22:03Z</time>
</trkpt>
<trkpt lat="49.06078699976206" lon="8.992964951321483">
<ele>214.60000000000002</ele>
<time>2023-05-17T09:22:04Z</time>
</trkpt>
<trkpt lat="49.06077694147825" lon="8.99291499517858">
<ele>214.60000000000002</ele>
<time>2023-05-17T09:22:05Z</time>
</trkpt>
<trkpt lat="49.06076998449862" lon="8.992864955216646">
<ele>214.60000000000002</ele>
<time>2023-05-17T09:22:06Z</time>
</trkpt>
<trkpt lat="49.06076998449862" lon="8.992819944396615">
<ele>214.60000000000002</ele>
<time>2023-05-17T09:22:07Z</time>
</trkpt>
<trkpt lat="49.06076797284186" lon="8.992776945233345">
<ele>214.60000000000002</ele>
<time>2023-05-17T09:22:08Z</time>
</trkpt>
<trkpt lat="49.06076696701348" lon="8.992737969383597">
<ele>214.60000000000002</ele>
<time>2023-05-17T09:22:09Z</time>
</trkpt>
<trkpt lat="49.06076696701348" lon="8.99270293302834">
<ele>214.60000000000002</ele>
<time>2023-05-17T09:22:10Z</time>
</trkpt>
<trkpt lat="49.06076495535672" lon="8.992671919986606">
<ele>214.60000000000002</ele>
<time>2023-05-17T09:22:11Z</time>
</trkpt>
<trkpt lat="49.060762943699956" lon="8.992644930258393">
<ele>214.60000000000002</ele>
<time>2023-05-17T09:22:12Z</time>
</trkpt>
<trkpt lat="49.060759926214814" lon="8.992621963843703">
<ele>214.60000000000002</ele>
<time>2023-05-17T09:22:13Z</time>
</trkpt>
<trkpt lat="49.060756992548704" lon="8.992599919438362">
<ele>214.60000000000002</ele>
<time>2023-05-17T09:22:14Z</time>
</trkpt>
<trkpt lat="49.06075498089194" lon="8.992574941366911">
<ele>214.79999999999995</ele>
<time>2023-05-17T09:22:15Z</time>
</trkpt>
<trkpt lat="49.06074995175004" lon="8.992551974952221">
<ele>214.79999999999995</ele>
<time>2023-05-17T09:22:16Z</time>
</trkpt>
<trkpt lat="49.06074794009328" lon="8.992531942203641">
<ele>214.79999999999995</ele>
<time>2023-05-17T09:22:17Z</time>
</trkpt>
<trkpt lat="49.0607469342649" lon="8.992512999102473">
<ele>214.79999999999995</ele>
<time>2023-05-17T09:22:18Z</time>
</trkpt>
<trkpt lat="49.06074492260814" lon="8.992496989667416">
<ele>214.79999999999995</ele>
<time>2023-05-17T09:22:19Z</time>
</trkpt>
<trkpt lat="49.06074492260814" lon="8.992481986060739">
<ele>214.79999999999995</ele>
<time>2023-05-17T09:22:20Z</time>
</trkpt>
<trkpt lat="49.06074492260814" lon="8.992471927776933">
<ele>214.79999999999995</ele>
<time>2023-05-17T09:22:21Z</time>
</trkpt>
<trkpt lat="49.06074492260814" lon="8.9924649707973">
<ele>214.79999999999995</ele>
<time>2023-05-17T09:22:22Z</time>
</trkpt>
<trkpt lat="49.06074492260814" lon="8.99246295914054">
<ele>214.79999999999995</ele>
<time>2023-05-17T09:22:23Z</time>
</trkpt>
<trkpt lat="49.060757998377085" lon="8.992412919178605">
<ele>214.79999999999995</ele>
<time>2023-05-17T09:22:25Z</time>
</trkpt>
<trkpt lat="49.060759926214814" lon="8.992412919178605">
<ele>214.79999999999995</ele>
<time>2023-05-17T09:22:27Z</time>
</trkpt>
<trkpt lat="49.060781970620155" lon="8.992367992177606">
<ele>214.79999999999995</ele>
<time>2023-05-17T09:22:27Z</time>
</trkpt>
<trkpt lat="49.060799991711974" lon="8.992367992177606">
<ele>214.79999999999995</ele>
<time>2023-05-17T09:22:28Z</time>
</trkpt>
<trkpt lat="49.060824969783425" lon="8.992372937500477">
<ele>214.79999999999995</ele>
<time>2023-05-17T09:22:29Z</time>
</trkpt>
<trkpt lat="49.06085195951164" lon="8.992386935278773">
<ele>214.79999999999995</ele>
<time>2023-05-17T09:22:30Z</time>
</trkpt>
<trkpt lat="49.06087794341147" lon="8.992409985512495">
<ele>214.79999999999995</ele>
<time>2023-05-17T09:22:31Z</time>
</trkpt>
<trkpt lat="49.06090292148292" lon="8.99244493804872">
<ele>214.60000000000002</ele>
<time>2023-05-17T09:22:32Z</time>
</trkpt>
<trkpt lat="49.060932928696275" lon="8.992481986060739">
<ele>214.60000000000002</ele>
<time>2023-05-17T09:22:33Z</time>
</trkpt>
<trkpt lat="49.06096796505153" lon="8.992512999102473">
<ele>214.60000000000002</ele>
<time>2023-05-17T09:22:34Z</time>
</trkpt>
<trkpt lat="49.06101297587156" lon="8.992539988830686">
<ele>214.39999999999998</ele>
<time>2023-05-17T09:22:35Z</time>
</trkpt>
<trkpt lat="49.061062932014465" lon="8.992556920275092">
<ele>214.39999999999998</ele>
<time>2023-05-17T09:22:36Z</time>
</trkpt>
<trkpt lat="49.06111699528992" lon="8.99257292971015">
<ele>214.20000000000005</ele>
<time>2023-05-17T09:22:37Z</time>
</trkpt>
<trkpt lat="49.06117198057473" lon="8.99259195663035">
<ele>214</ele>
<time>2023-05-17T09:22:38Z</time>
</trkpt>
<trkpt lat="49.061229983344674" lon="8.992609977722168">
<ele>213.79999999999995</ele>
<time>2023-05-17T09:22:39Z</time>
</trkpt>
<trkpt lat="49.06128698028624" lon="8.992624981328845">
<ele>213.39999999999998</ele>
<time>2023-05-17T09:22:40Z</time>
</trkpt>
<trkpt lat="49.0613479167223" lon="8.992639984935522">
<ele>213.20000000000005</ele>
<time>2023-05-17T09:22:41Z</time>
</trkpt>
<trkpt lat="49.06140994280577" lon="8.992651971057057">
<ele>212.79999999999995</ele>
<time>2023-05-17T09:22:42Z</time>
</trkpt>
<trkpt lat="49.06147297471762" lon="8.992664963006973">
<ele>212.60000000000002</ele>
<time>2023-05-17T09:22:43Z</time>
</trkpt>
<trkpt lat="49.061534916982055" lon="8.992681978270411">
<ele>212.39999999999998</ele>
<time>2023-05-17T09:22:44Z</time>
</trkpt>
<trkpt lat="49.061596943065524" lon="8.99269999936223">
<ele>212</ele>
<time>2023-05-17T09:22:45Z</time>
</trkpt>
<trkpt lat="49.061659974977374" lon="8.992717936635017">
<ele>211.79999999999995</ele>
<time>2023-05-17T09:22:46Z</time>
</trkpt>
<trkpt lat="49.06171998940408" lon="8.992734951898456">
<ele>211.60000000000002</ele>
<time>2023-05-17T09:22:47Z</time>
</trkpt>
<trkpt lat="49.06177497468889" lon="8.992746938019991">
<ele>211.39999999999998</ele>
<time>2023-05-17T09:22:48Z</time>
</trkpt>
<trkpt lat="49.06182199716568" lon="8.992759929969907">
<ele>211.20000000000005</ele>
<time>2023-05-17T09:22:49Z</time>
</trkpt>
<trkpt lat="49.06186197884381" lon="8.992761941626668">
<ele>211</ele>
<time>2023-05-17T09:22:50Z</time>
</trkpt>
<trkpt lat="49.06188796274364" lon="8.992746938019991">
<ele>211</ele>
<time>2023-05-17T09:22:51Z</time>
</trkpt>
<trkpt lat="49.06190799549222" lon="8.992707962170243">
<ele>210.79999999999995</ele>
<time>2023-05-17T09:22:52Z</time>
</trkpt>
<trkpt lat="49.06191294081509" lon="8.992656916379929">
<ele>210.79999999999995</ele>
<time>2023-05-17T09:22:53Z</time>
</trkpt>
<trkpt lat="49.06190992332995" lon="8.992602936923504">
<ele>210.60000000000002</ele>
<time>2023-05-17T09:22:54Z</time>
</trkpt>
<trkpt lat="49.061897937208414" lon="8.992547951638699">
<ele>210.60000000000002</ele>
<time>2023-05-17T09:22:55Z</time>
</trkpt>
<trkpt lat="49.0618899744004" lon="8.992492966353893">
<ele>210.60000000000002</ele>
<time>2023-05-17T09:22:56Z</time>
</trkpt>
<trkpt lat="49.06187999993563" lon="8.992441920563579">
<ele>210.60000000000002</ele>
<time>2023-05-17T09:22:57Z</time>
</trkpt>
<trkpt lat="49.06186994165182" lon="8.992386935278773">
<ele>210.60000000000002</ele>
<time>2023-05-17T09:22:58Z</time>
</trkpt>
<trkpt lat="49.06185996718705" lon="8.992329938337207">
<ele>210.60000000000002</ele>
<time>2023-05-17T09:22:59Z</time>
</trkpt>
<trkpt lat="49.06184999272227" lon="8.99227294139564">
<ele>210.60000000000002</ele>
<time>2023-05-17T09:23:00Z</time>
</trkpt>
<trkpt lat="49.06184194609523" lon="8.992211921140552">
<ele>210.60000000000002</ele>
<time>2023-05-17T09:23:01Z</time>
</trkpt>
<trkpt lat="49.061834989115596" lon="8.992149978876114">
<ele>210.60000000000002</ele>
<time>2023-05-17T09:23:02Z</time>
</trkpt>
<trkpt lat="49.06182794831693" lon="8.992084935307503">
<ele>210.79999999999995</ele>
<time>2023-05-17T09:23:03Z</time>
</trkpt>
<trkpt lat="49.06181797385216" lon="8.992019975557923">
<ele>210.79999999999995</ele>
<time>2023-05-17T09:23:04Z</time>
</trkpt>
<trkpt lat="49.061806993559" lon="8.991951998323202">
<ele>210.79999999999995</ele>
<time>2023-05-17T09:23:05Z</time>
</trkpt>
<trkpt lat="49.061794923618436" lon="8.99188494309783">
<ele>210.79999999999995</ele>
<time>2023-05-17T09:23:06Z</time>
</trkpt>
<trkpt lat="49.06178494915366" lon="8.991816965863109">
<ele>210.79999999999995</ele>
<time>2023-05-17T09:23:07Z</time>
</trkpt>
<trkpt lat="49.06177497468889" lon="8.991747982800007">
<ele>211</ele>
<time>2023-05-17T09:23:08Z</time>
</trkpt>
<trkpt lat="49.06176491640508" lon="8.991679921746254">
<ele>211</ele>
<time>2023-05-17T09:23:09Z</time>
</trkpt>
<trkpt lat="49.06175695359707" lon="8.991612950339913">
<ele>211.20000000000005</ele>
<time>2023-05-17T09:23:10Z</time>
</trkpt>
<trkpt lat="49.061747984960675" lon="8.991544973105192">
<ele>211.20000000000005</ele>
<time>2023-05-17T09:23:11Z</time>
</trkpt>
<trkpt lat="49.06173993833363" lon="8.99147498421371">
<ele>211.39999999999998</ele>
<time>2023-05-17T09:23:12Z</time>
</trkpt>
<trkpt lat="49.061729963868856" lon="8.991406923159957">
<ele>211.39999999999998</ele>
<time>2023-05-17T09:23:13Z</time>
</trkpt>
<trkpt lat="49.06172191724181" lon="8.991337940096855">
<ele>211.39999999999998</ele>
<time>2023-05-17T09:23:14Z</time>
</trkpt>
<trkpt lat="49.06171194277704" lon="8.991271974518895">
<ele>211.60000000000002</ele>
<time>2023-05-17T09:23:15Z</time>
</trkpt>
<trkpt lat="49.061702974140644" lon="8.991204919293523">
<ele>211.60000000000002</ele>
<time>2023-05-17T09:23:16Z</time>
</trkpt>
<trkpt lat="49.06169299967587" lon="8.991137947887182">
<ele>211.79999999999995</ele>
<time>2023-05-17T09:23:17Z</time>
</trkpt>
<trkpt lat="49.061682941392064" lon="8.9910679589957">
<ele>211.79999999999995</ele>
<time>2023-05-17T09:23:18Z</time>
</trkpt>
<trkpt lat="49.06167497858405" lon="8.99100199341774">
<ele>211.79999999999995</ele>
<time>2023-05-17T09:23:19Z</time>
</trkpt>
<trkpt lat="49.06166793778539" lon="8.99093795567751">
<ele>212</ele>
<time>2023-05-17T09:23:20Z</time>
</trkpt>
<trkpt lat="49.061662992462516" lon="8.99087299592793">
<ele>212</ele>
<time>2023-05-17T09:23:21Z</time>
</trkpt>
<trkpt lat="49.06165695749223" lon="8.990806946530938">
<ele>212.20000000000005</ele>
<time>2023-05-17T09:23:22Z</time>
</trkpt>
<trkpt lat="49.06164991669357" lon="8.99074299260974">
<ele>212.20000000000005</ele>
<time>2023-05-17T09:23:23Z</time>
</trkpt>
<trkpt lat="49.061642959713936" lon="8.99068197235465">
<ele>212.20000000000005</ele>
<time>2023-05-17T09:23:24Z</time>
</trkpt>
<trkpt lat="49.06163499690592" lon="8.990621957927942">
<ele>212.39999999999998</ele>
<time>2023-05-17T09:23:25Z</time>
</trkpt>
<trkpt lat="49.06162795610726" lon="8.990561943501234">
<ele>212.39999999999998</ele>
<time>2023-05-17T09:23:26Z</time>
</trkpt>
<trkpt lat="49.061621921136975" lon="8.990504946559668">
<ele>212.39999999999998</ele>
<time>2023-05-17T09:23:27Z</time>
</trkpt>
<trkpt lat="49.06161496415734" lon="8.990451972931623">
<ele>212.60000000000002</ele>
<time>2023-05-17T09:23:28Z</time>
</trkpt>
<trkpt lat="49.06160792335868" lon="8.990394975990057">
<ele>212.60000000000002</ele>
<time>2023-05-17T09:23:29Z</time>
</trkpt>
<trkpt lat="49.06160197220743" lon="8.990339990705252">
<ele>212.60000000000002</ele>
<time>2023-05-17T09:23:30Z</time>
</trkpt>
<trkpt lat="49.061596943065524" lon="8.990282993763685">
<ele>212.60000000000002</ele>
<time>2023-05-17T09:23:31Z</time>
</trkpt>
<trkpt lat="49.06158998608589" lon="8.99022993631661">
<ele>212.79999999999995</ele>
<time>2023-05-17T09:23:32Z</time>
</trkpt>
<trkpt lat="49.06158294528723" lon="8.990179980173707">
<ele>212.79999999999995</ele>
<time>2023-05-17T09:23:33Z</time>
</trkpt>
<trkpt lat="49.061574982479215" lon="8.990131951868534">
<ele>212.79999999999995</ele>
<time>2023-05-17T09:23:34Z</time>
</trkpt>
<trkpt lat="49.06156794168055" lon="8.990086941048503">
<ele>212.79999999999995</ele>
<time>2023-05-17T09:23:35Z</time>
</trkpt>
<trkpt lat="49.06156299635768" lon="8.99003991857171">
<ele>212.79999999999995</ele>
<time>2023-05-17T09:23:36Z</time>
</trkpt>
<trkpt lat="49.061557967215776" lon="8.989994991570711">
<ele>212.79999999999995</ele>
<time>2023-05-17T09:23:37Z</time>
</trkpt>
<trkpt lat="49.06155293807387" lon="8.989951992407441">
<ele>212.79999999999995</ele>
<time>2023-05-17T09:23:38Z</time>
</trkpt>
<trkpt lat="49.061547992751" lon="8.989909999072552">
<ele>213</ele>
<time>2023-05-17T09:23:39Z</time>
</trkpt>
<trkpt lat="49.0615429636091" lon="8.98986792191863">
<ele>213</ele>
<time>2023-05-17T09:23:40Z</time>
</trkpt>
<trkpt lat="49.061536928638816" lon="8.989826934412122">
<ele>213</ele>
<time>2023-05-17T09:23:41Z</time>
</trkpt>
<trkpt lat="49.06152997165918" lon="8.989787958562374">
<ele>213</ele>
<time>2023-05-17T09:23:42Z</time>
</trkpt>
<trkpt lat="49.06152494251728" lon="8.989747976884246">
<ele>213</ele>
<time>2023-05-17T09:23:43Z</time>
</trkpt>
<trkpt lat="49.06152192503214" lon="8.989707995206118">
<ele>213</ele>
<time>2023-05-17T09:23:44Z</time>
</trkpt>
<trkpt lat="49.06151697970927" lon="8.989666923880577">
<ele>213</ele>
<time>2023-05-17T09:23:45Z</time>
</trkpt>
<trkpt lat="49.061512956395745" lon="8.98962794803083">
<ele>213</ele>
<time>2023-05-17T09:23:46Z</time>
</trkpt>
<trkpt lat="49.06150792725384" lon="8.989589978009462">
<ele>213.20000000000005</ele>
<time>2023-05-17T09:23:47Z</time>
</trkpt>
<trkpt lat="49.06150197610259" lon="8.989551924169064">
<ele>213.20000000000005</ele>
<time>2023-05-17T09:23:48Z</time>
</trkpt>
<trkpt lat="49.06149694696069" lon="8.989514959976077">
<ele>213.20000000000005</ele>
<time>2023-05-17T09:23:49Z</time>
</trkpt>
<trkpt lat="49.061489989981055" lon="8.98947992362082">
<ele>213.20000000000005</ele>
<time>2023-05-17T09:23:50Z</time>
</trkpt>
<trkpt lat="49.06148294918239" lon="8.989446982741356">
<ele>213.20000000000005</ele>
<time>2023-05-17T09:23:51Z</time>
</trkpt>
<trkpt lat="49.06147498637438" lon="8.989416975528002">
<ele>213.20000000000005</ele>
<time>2023-05-17T09:23:52Z</time>
</trkpt>
<trkpt lat="49.061469957232475" lon="8.98938998579979">
<ele>213.20000000000005</ele>
<time>2023-05-17T09:23:53Z</time>
</trkpt>
<trkpt lat="49.06146693974733" lon="8.989361990243196">
<ele>213.20000000000005</ele>
<time>2023-05-17T09:23:54Z</time>
</trkpt>
<trkpt lat="49.06146693974733" lon="8.989336928352714">
<ele>213.20000000000005</ele>
<time>2023-05-17T09:23:55Z</time>
</trkpt>
<trkpt lat="49.06146291643381" lon="8.989311950281262">
<ele>213.20000000000005</ele>
<time>2023-05-17T09:23:56Z</time>
</trkpt>
<trkpt lat="49.06146199442446" lon="8.989291917532682">
<ele>213.20000000000005</ele>
<time>2023-05-17T09:23:57Z</time>
</trkpt>
<trkpt lat="49.06145797111094" lon="8.989272974431515">
<ele>213.20000000000005</ele>
<time>2023-05-17T09:23:58Z</time>
</trkpt>
<trkpt lat="49.06145696528256" lon="8.989254953339696">
<ele>213.20000000000005</ele>
<time>2023-05-17T09:23:59Z</time>
</trkpt>
<trkpt lat="49.0614549536258" lon="8.989239949733019">
<ele>213.20000000000005</ele>
<time>2023-05-17T09:24:00Z</time>
</trkpt>
<trkpt lat="49.06145294196904" lon="8.989224946126342">
<ele>213.20000000000005</ele>
<time>2023-05-17T09:24:01Z</time>
</trkpt>
<trkpt lat="49.06145193614066" lon="8.989211954176426">
<ele>213.20000000000005</ele>
<time>2023-05-17T09:24:02Z</time>
</trkpt>
<trkpt lat="49.061449924483895" lon="8.989201979711652">
<ele>213.20000000000005</ele>
<time>2023-05-17T09:24:03Z</time>
</trkpt>
<trkpt lat="49.061449924483895" lon="8.989194938912988">
<ele>213.20000000000005</ele>
<time>2023-05-17T09:24:04Z</time>
</trkpt>
<trkpt lat="49.061449924483895" lon="8.989196950569749">
<ele>213.20000000000005</ele>
<time>2023-05-17T09:24:05Z</time>
</trkpt>
<trkpt lat="49.06145193614066" lon="8.989196950569749">
<ele>213.20000000000005</ele>
<time>2023-05-17T09:24:06Z</time>
</trkpt>
<trkpt lat="49.06145193614066" lon="8.989272974431515">
<ele>213.60000000000002</ele>
<time>2023-05-17T09:24:06Z</time>
</trkpt>
<trkpt lat="49.0614549536258" lon="8.98930499330163">
<ele>213.60000000000002</ele>
<time>2023-05-17T09:24:07Z</time>
</trkpt>
<trkpt lat="49.0614599827677" lon="8.989342963322997">
<ele>213.60000000000002</ele>
<time>2023-05-17T09:24:08Z</time>
</trkpt>
<trkpt lat="49.06146492809057" lon="8.989384956657887">
<ele>213.60000000000002</ele>
<time>2023-05-17T09:24:09Z</time>
</trkpt>
<trkpt lat="49.061467945575714" lon="8.989431979134679">
<ele>213.60000000000002</ele>
<time>2023-05-17T09:24:10Z</time>
</trkpt>
<trkpt lat="49.06147297471762" lon="8.98947799578309">
<ele>213.60000000000002</ele>
<time>2023-05-17T09:24:11Z</time>
</trkpt>
<trkpt lat="49.06147993169725" lon="8.989531975239515">
<ele>213.60000000000002</ele>
<time>2023-05-17T09:24:12Z</time>
</trkpt>
<trkpt lat="49.061489989981055" lon="8.989587966352701">
<ele>213.60000000000002</ele>
<time>2023-05-17T09:24:13Z</time>
</trkpt>
<trkpt lat="49.06150197610259" lon="8.98964798077941">
<ele>213.60000000000002</ele>
<time>2023-05-17T09:24:14Z</time>
</trkpt>
<trkpt lat="49.061512956395745" lon="8.989712940528989">
<ele>213.60000000000002</ele>
<time>2023-05-17T09:24:15Z</time>
</trkpt>
<trkpt lat="49.06152293086052" lon="8.989782929420471">
<ele>213.60000000000002</ele>
<time>2023-05-17T09:24:16Z</time>
</trkpt>
<trkpt lat="49.061531983315945" lon="8.989859959110618">
<ele>213.60000000000002</ele>
<time>2023-05-17T09:24:17Z</time>
</trkpt>
<trkpt lat="49.06153994612396" lon="8.989937994629145">
<ele>213.60000000000002</ele>
<time>2023-05-17T09:24:18Z</time>
</trkpt>
<trkpt lat="49.06154497526586" lon="8.990019969642162">
<ele>213.60000000000002</ele>
<time>2023-05-17T09:24:19Z</time>
</trkpt>
<trkpt lat="49.06155193224549" lon="8.99010194465518">
<ele>213.60000000000002</ele>
<time>2023-05-17T09:24:20Z</time>
</trkpt>
<trkpt lat="49.0615619905293" lon="8.99018693715334">
<ele>213.60000000000002</ele>
<time>2023-05-17T09:24:21Z</time>
</trkpt>
<trkpt lat="49.06157196499407" lon="8.990269917994738">
<ele>213.60000000000002</ele>
<time>2023-05-17T09:24:22Z</time>
</trkpt>
<trkpt lat="49.061579927802086" lon="8.990352982655168">
<ele>213.60000000000002</ele>
<time>2023-05-17T09:24:23Z</time>
</trkpt>
<trkpt lat="49.06158998608589" lon="8.99044199846685">
<ele>213.60000000000002</ele>
<time>2023-05-17T09:24:24Z</time>
</trkpt>
<trkpt lat="49.06160197220743" lon="8.990524979308248">
<ele>213.60000000000002</ele>
<time>2023-05-17T09:24:25Z</time>
</trkpt>
<trkpt lat="49.06161295250058" lon="8.990609971806407">
<ele>213.39999999999998</ele>
<time>2023-05-17T09:24:26Z</time>
</trkpt>
<trkpt lat="49.061622926965356" lon="8.990696975961328">
<ele>213.39999999999998</ele>
<time>2023-05-17T09:24:27Z</time>
</trkpt>
<trkpt lat="49.06163298524916" lon="8.990781968459487">
<ele>213.39999999999998</ele>
<time>2023-05-17T09:24:28Z</time>
</trkpt>
<trkpt lat="49.06164698302746" lon="8.990867966786027">
<ele>213.39999999999998</ele>
<time>2023-05-17T09:24:29Z</time>
</trkpt>
<trkpt lat="49.06165796332061" lon="8.990959916263819">
<ele>213.20000000000005</ele>
<time>2023-05-17T09:24:30Z</time>
</trkpt>
<trkpt lat="49.06166994944215" lon="8.991049937903881">
<ele>213.20000000000005</ele>
<time>2023-05-17T09:24:31Z</time>
</trkpt>
<trkpt lat="49.06168193556368" lon="8.991139959543943">
<ele>213.20000000000005</ele>
<time>2023-05-17T09:24:32Z</time>
</trkpt>
<trkpt lat="49.0616949275136" lon="8.991227969527245">
<ele>213</ele>
<time>2023-05-17T09:24:33Z</time>
</trkpt>
<trkpt lat="49.061704985797405" lon="8.991314973682165">
<ele>213</ele>
<time>2023-05-17T09:24:34Z</time>
</trkpt>
<trkpt lat="49.06171697191894" lon="8.991404995322227">
<ele>213</ele>
<time>2023-05-17T09:24:35Z</time>
</trkpt>
<trkpt lat="49.061726946383715" lon="8.991491999477148">
<ele>212.79999999999995</ele>
<time>2023-05-17T09:24:36Z</time>
</trkpt>
<trkpt lat="49.06173692084849" lon="8.991574980318546">
<ele>212.60000000000002</ele>
<time>2023-05-17T09:24:37Z</time>
</trkpt>
<trkpt lat="49.061747984960675" lon="8.991659972816706">
<ele>212.60000000000002</ele>
<time>2023-05-17T09:24:38Z</time>
</trkpt>
<trkpt lat="49.06176198273897" lon="8.991742953658104">
<ele>212.39999999999998</ele>
<time>2023-05-17T09:24:39Z</time>
</trkpt>
<trkpt lat="49.061772963032126" lon="8.991824928671122">
<ele>212.39999999999998</ele>
<time>2023-05-17T09:24:40Z</time>
</trkpt>
<trkpt lat="49.06178494915366" lon="8.991906987503171">
<ele>212.20000000000005</ele>
<time>2023-05-17T09:24:41Z</time>
</trkpt>
<trkpt lat="49.0617969352752" lon="8.991984939202666">
<ele>212.20000000000005</ele>
<time>2023-05-17T09:24:42Z</time>
</trkpt>
<trkpt lat="49.06180799938738" lon="8.992061968892813">
<ele>212.20000000000005</ele>
<time>2023-05-17T09:24:43Z</time>
</trkpt>
<trkpt lat="49.06181998550892" lon="8.992137992754579">
<ele>212</ele>
<time>2023-05-17T09:24:44Z</time>
</trkpt>
<trkpt lat="49.061834989115596" lon="8.992211921140552">
<ele>212</ele>
<time>2023-05-17T09:24:45Z</time>
</trkpt>
<trkpt lat="49.06185292638838" lon="8.992286939173937">
<ele>211.79999999999995</ele>
<time>2023-05-17T09:24:46Z</time>
</trkpt>
<trkpt lat="49.06186792999506" lon="8.9923579338938">
<ele>211.79999999999995</ele>
<time>2023-05-17T09:24:47Z</time>
</trkpt>
<trkpt lat="49.061877988278866" lon="8.992427922785282">
<ele>211.79999999999995</ele>
<time>2023-05-17T09:24:48Z</time>
</trkpt>
<trkpt lat="49.0618899744004" lon="8.992492966353893">
<ele>211.60000000000002</ele>
<time>2023-05-17T09:24:49Z</time>
</trkpt>
<trkpt lat="49.061899948865175" lon="8.992557926103473">
<ele>211.60000000000002</ele>
<time>2023-05-17T09:24:50Z</time>
</trkpt>
<trkpt lat="49.06190799549222" lon="8.992622969672084">
<ele>211.60000000000002</ele>
<time>2023-05-17T09:24:51Z</time>
</trkpt>
<trkpt lat="49.06190992332995" lon="8.992682984098792">
<ele>211.60000000000002</ele>
<time>2023-05-17T09:24:52Z</time>
</trkpt>
<trkpt lat="49.061899948865175" lon="8.992732940241694">
<ele>211.39999999999998</ele>
<time>2023-05-17T09:24:53Z</time>
</trkpt>
<trkpt lat="49.061874970793724" lon="8.992762947455049">
<ele>211.39999999999998</ele>
<time>2023-05-17T09:24:54Z</time>
</trkpt>
<trkpt lat="49.06184496358037" lon="8.992767976596951">
<ele>211.20000000000005</ele>
<time>2023-05-17T09:24:55Z</time>
</trkpt>
<trkpt lat="49.06180498190224" lon="8.992751967161894">
<ele>211</ele>
<time>2023-05-17T09:24:56Z</time>
</trkpt>
<trkpt lat="49.06175795942545" lon="8.992736963555217">
<ele>211</ele>
<time>2023-05-17T09:24:57Z</time>
</trkpt>
<trkpt lat="49.061702974140644" lon="8.99272296577692">
<ele>210.79999999999995</ele>
<time>2023-05-17T09:24:58Z</time>
</trkpt>
<trkpt lat="49.06164991669357" lon="8.992709973827004">
<ele>210.79999999999995</ele>
<time>2023-05-17T09:24:59Z</time>
</trkpt>
<trkpt lat="49.06159493140876" lon="8.992691952735186">
<ele>210.79999999999995</ele>
<time>2023-05-17T09:25:00Z</time>
</trkpt>
<trkpt lat="49.06153994612396" lon="8.992671919986606">
<ele>210.79999999999995</ele>
<time>2023-05-17T09:25:01Z</time>
</trkpt>
<trkpt lat="49.06148496083915" lon="8.992652976885438">
<ele>210.79999999999995</ele>
<time>2023-05-17T09:25:02Z</time>
</trkpt>
<trkpt lat="49.061427963897586" lon="8.992637973278761">
<ele>210.79999999999995</ele>
<time>2023-05-17T09:25:03Z</time>
</trkpt>
<trkpt lat="49.0613719727844" lon="8.992622969672084">
<ele>210.79999999999995</ele>
<time>2023-05-17T09:25:04Z</time>
</trkpt>
<trkpt lat="49.061317993327975" lon="8.992606960237026">
<ele>211</ele>
<time>2023-05-17T09:25:05Z</time>
</trkpt>
<trkpt lat="49.06126694753766" lon="8.992589944973588">
<ele>211</ele>
<time>2023-05-17T09:25:06Z</time>
</trkpt>
<trkpt lat="49.061214979738" lon="8.992574941366911">
<ele>211</ele>
<time>2023-05-17T09:25:07Z</time>
</trkpt>
<trkpt lat="49.06116493977606" lon="8.992561949416995">
<ele>211</ele>
<time>2023-05-17T09:25:08Z</time>
</trkpt>
<trkpt lat="49.06111498363316" lon="8.992547951638699">
<ele>211.20000000000005</ele>
<time>2023-05-17T09:25:09Z</time>
</trkpt>
<trkpt lat="49.06106796115637" lon="8.992534959688783">
<ele>211.20000000000005</ele>
<time>2023-05-17T09:25:10Z</time>
</trkpt>
<trkpt lat="49.06102295033634" lon="8.992522973567247">
<ele>211.39999999999998</ele>
<time>2023-05-17T09:25:11Z</time>
</trkpt>
<trkpt lat="49.06098196282983" lon="8.99250696413219">
<ele>211.60000000000002</ele>
<time>2023-05-17T09:25:12Z</time>
</trkpt>
<trkpt lat="49.06094692647457" lon="8.992476956918836">
<ele>211.79999999999995</ele>
<time>2023-05-17T09:25:13Z</time>
</trkpt>
<trkpt lat="49.06092194840312" lon="8.992436975240707">
<ele>212.20000000000005</ele>
<time>2023-05-17T09:25:14Z</time>
</trkpt>
<trkpt lat="49.06089797616005" lon="8.992394981905818">
<ele>212.39999999999998</ele>
<time>2023-05-17T09:25:15Z</time>
</trkpt>
<trkpt lat="49.06086998060346" lon="8.992361957207322">
<ele>212.79999999999995</ele>
<time>2023-05-17T09:25:16Z</time>
</trkpt>
<trkpt lat="49.060846930369735" lon="8.992339996621013">
<ele>213</ele>
<time>2023-05-17T09:25:17Z</time>
</trkpt>
<trkpt lat="49.060822958126664" lon="8.992327926680446">
<ele>213.39999999999998</ele>
<time>2023-05-17T09:25:18Z</time>
</trkpt>
<trkpt lat="49.060801919549704" lon="8.992322981357574">
<ele>213.60000000000002</ele>
<time>2023-05-17T09:25:19Z</time>
</trkpt>
<trkpt lat="49.06077794730663" lon="8.992324993014336">
<ele>213.79999999999995</ele>
<time>2023-05-17T09:25:20Z</time>
</trkpt>
<trkpt lat="49.0607519634068" lon="8.992327926680446">
<ele>214</ele>
<time>2023-05-17T09:25:21Z</time>
</trkpt>
<trkpt lat="49.06072195619345" lon="8.992332955822349">
<ele>214.20000000000005</ele>
<time>2023-05-17T09:25:22Z</time>
</trkpt>
<trkpt lat="49.06068792566657" lon="8.992337984964252">
<ele>214.39999999999998</ele>
<time>2023-05-17T09:25:23Z</time>
</trkpt>
<trkpt lat="49.060652973130345" lon="8.992344941943884">
<ele>214.79999999999995</ele>
<time>2023-05-17T09:25:24Z</time>
</trkpt>
<trkpt lat="49.06061693094671" lon="8.992352988570929">
<ele>215</ele>
<time>2023-05-17T09:25:25Z</time>
</trkpt>
<trkpt lat="49.06058197841048" lon="8.992364974692464">
<ele>215.20000000000005</ele>
<time>2023-05-17T09:25:26Z</time>
</trkpt>
<trkpt lat="49.060546942055225" lon="8.99237796664238">
<ele>215.39999999999998</ele>
<time>2023-05-17T09:25:27Z</time>
</trkpt>
<trkpt lat="49.060511989519" lon="8.992389952763915">
<ele>215.39999999999998</ele>
<time>2023-05-17T09:25:28Z</time>
</trkpt>
<trkpt lat="49.060479970648885" lon="8.99239799939096">
<ele>215.60000000000002</ele>
<time>2023-05-17T09:25:29Z</time>
</trkpt>
<trkpt lat="49.06044795177877" lon="8.992402944713831">
<ele>215.79999999999995</ele>
<time>2023-05-17T09:25:30Z</time>
</trkpt>
<trkpt lat="49.06041995622218" lon="8.99239992722869">
<ele>216</ele>
<time>2023-05-17T09:25:31Z</time>
</trkpt>
<trkpt lat="49.06040797010064" lon="8.99239799939096">
<ele>216.20000000000005</ele>
<time>2023-05-17T09:25:32Z</time>
</trkpt>
<trkpt lat="49.06040696427226" lon="8.99239799939096">
<ele>216.20000000000005</ele>
<time>2023-05-17T09:25:33Z</time>
</trkpt>
<trkpt lat="49.0604049526155" lon="8.99239799939096">
<ele>216.39999999999998</ele>
<time>2023-05-17T09:25:34Z</time>
</trkpt>
<trkpt lat="49.060394978150725" lon="8.992261961102486">
<ele>217</ele>
<time>2023-05-17T09:25:34Z</time>
</trkpt>
<trkpt lat="49.06038793735206" lon="8.9922249969095">
<ele>217</ele>
<time>2023-05-17T09:25:35Z</time>
</trkpt>
<trkpt lat="49.06038299202919" lon="8.992177974432707">
<ele>217</ele>
<time>2023-05-17T09:25:36Z</time>
</trkpt>
<trkpt lat="49.06037796288729" lon="8.992124916985631">
<ele>217</ele>
<time>2023-05-17T09:25:37Z</time>
</trkpt>
<trkpt lat="49.06036991626024" lon="8.992067920044065">
<ele>217</ele>
<time>2023-05-17T09:25:38Z</time>
</trkpt>
<trkpt lat="49.06036195345223" lon="8.992009917274117">
<ele>217</ele>
<time>2023-05-17T09:25:39Z</time>
</trkpt>
<trkpt lat="49.060351978987455" lon="8.9919469691813">
<ele>217</ele>
<time>2023-05-17T09:25:40Z</time>
</trkpt>
<trkpt lat="49.06034192070365" lon="8.991887960582972">
<ele>217</ele>
<time>2023-05-17T09:25:41Z</time>
</trkpt>
<trkpt lat="49.060331946238875" lon="8.991829957813025">
<ele>217</ele>
<time>2023-05-17T09:25:42Z</time>
</trkpt>
<trkpt lat="49.06031996011734" lon="8.991769943386316">
<ele>217</ele>
<time>2023-05-17T09:25:43Z</time>
</trkpt>
<trkpt lat="49.060309985652566" lon="8.991716969758272">
<ele>217</ele>
<time>2023-05-17T09:25:44Z</time>
</trkpt>
<trkpt lat="49.06029498204589" lon="8.991671958938241">
<ele>217</ele>
<time>2023-05-17T09:25:45Z</time>
</trkpt>
<trkpt lat="49.060269920155406" lon="8.991629965603352">
<ele>217</ele>
<time>2023-05-17T09:25:46Z</time>
</trkpt>
<trkpt lat="49.06024192459881" lon="8.991606999188662">
<ele>217</ele>
<time>2023-05-17T09:25:47Z</time>
</trkpt>
<trkpt lat="49.06020998954773" lon="8.991597946733236">
<ele>217</ele>
<time>2023-05-17T09:25:48Z</time>
</trkpt>
<trkpt lat="49.06017193570733" lon="8.99160792119801">
<ele>217</ele>
<time>2023-05-17T09:25:49Z</time>
</trkpt>
<trkpt lat="49.06012793071568" lon="8.991619991138577">
<ele>217</ele>
<time>2023-05-17T09:25:50Z</time>
</trkpt>
<trkpt lat="49.0600819978863" lon="8.991632983088493">
<ele>217</ele>
<time>2023-05-17T09:25:51Z</time>
</trkpt>
<trkpt lat="49.06003698706627" lon="8.991649998351932">
<ele>217</ele>
<time>2023-05-17T09:25:52Z</time>
</trkpt>
<trkpt lat="49.05999298207462" lon="8.991664918139577">
<ele>217</ele>
<time>2023-05-17T09:25:53Z</time>
</trkpt>
<trkpt lat="49.05995199456811" lon="8.991677993908525">
<ele>217</ele>
<time>2023-05-17T09:25:54Z</time>
</trkpt>
<trkpt lat="49.05990798957646" lon="8.991692997515202">
<ele>217</ele>
<time>2023-05-17T09:25:55Z</time>
</trkpt>
<trkpt lat="49.05986297875643" lon="8.991707917302847">
<ele>217</ele>
<time>2023-05-17T09:25:56Z</time>
</trkpt>
<trkpt lat="49.0598179679364" lon="8.991722920909524">
<ele>217</ele>
<time>2023-05-17T09:25:57Z</time>
</trkpt>
<trkpt lat="49.059771951287985" lon="8.99173691868782">
<ele>217</ele>
<time>2023-05-17T09:25:58Z</time>
</trkpt>
<trkpt lat="49.05972492881119" lon="8.991749994456768">
<ele>217</ele>
<time>2023-05-17T09:25:59Z</time>
</trkpt>
<trkpt lat="49.05967991799116" lon="8.991764998063445">
<ele>217.20000000000005</ele>
<time>2023-05-17T09:26:00Z</time>
</trkpt>
<trkpt lat="49.0596329793334" lon="8.991777990013361">
<ele>217.20000000000005</ele>
<time>2023-05-17T09:26:01Z</time>
</trkpt>
<trkpt lat="49.05958696268499" lon="8.991791987791657">
<ele>217.39999999999998</ele>
<time>2023-05-17T09:26:02Z</time>
</trkpt>
<trkpt lat="49.05954195186496" lon="8.991807997226715">
<ele>217.60000000000002</ele>
<time>2023-05-17T09:26:03Z</time>
</trkpt>
<trkpt lat="49.059494929388165" lon="8.991826940327883">
<ele>217.79999999999995</ele>
<time>2023-05-17T09:26:04Z</time>
</trkpt>
<trkpt lat="49.059449918568134" lon="8.991846973076463">
<ele>218</ele>
<time>2023-05-17T09:26:05Z</time>
</trkpt>
<trkpt lat="49.059404991567135" lon="8.991876980289817">
<ele>218.20000000000005</ele>
<time>2023-05-17T09:26:06Z</time>
</trkpt>
<trkpt lat="49.059359980747104" lon="8.991911932826042">
<ele>218.39999999999998</ele>
<time>2023-05-17T09:26:07Z</time>
</trkpt>
<trkpt lat="49.05931496992707" lon="8.991949986666441">
<ele>218.60000000000002</ele>
<time>2023-05-17T09:26:08Z</time>
</trkpt>
<trkpt lat="49.05926995910704" lon="8.99199198000133">
<ele>218.79999999999995</ele>
<time>2023-05-17T09:26:09Z</time>
</trkpt>
<trkpt lat="49.05922193080187" lon="8.992029950022697">
<ele>219.20000000000005</ele>
<time>2023-05-17T09:26:10Z</time>
</trkpt>
<trkpt lat="49.059171974658966" lon="8.992062974721193">
<ele>219.39999999999998</ele>
<time>2023-05-17T09:26:11Z</time>
</trkpt>
<trkpt lat="49.05912193469703" lon="8.992091976106167">
<ele>219.79999999999995</ele>
<time>2023-05-17T09:26:12Z</time>
</trkpt>
<trkpt lat="49.05907298438251" lon="8.992117960005999">
<ele>220</ele>
<time>2023-05-17T09:26:13Z</time>
</trkpt>
<trkpt lat="49.05902495607734" lon="8.99214293807745">
<ele>220.39999999999998</ele>
<time>2023-05-17T09:26:14Z</time>
</trkpt>
<trkpt lat="49.058977933600545" lon="8.992164982482791">
<ele>220.60000000000002</ele>
<time>2023-05-17T09:26:15Z</time>
</trkpt>
<trkpt lat="49.058929989114404" lon="8.992179986089468">
<ele>221</ele>
<time>2023-05-17T09:26:16Z</time>
</trkpt>
<trkpt lat="49.05888497829437" lon="8.9921869430691">
<ele>221.20000000000005</ele>
<time>2023-05-17T09:26:17Z</time>
</trkpt>
<trkpt lat="49.05883996747434" lon="8.992189960554242">
<ele>221.39999999999998</ele>
<time>2023-05-17T09:26:18Z</time>
</trkpt>
<trkpt lat="49.05879797413945" lon="8.992187948897481">
<ele>221.60000000000002</ele>
<time>2023-05-17T09:26:19Z</time>
</trkpt>
<trkpt lat="49.058757992461324" lon="8.992187948897481">
<ele>221.79999999999995</ele>
<time>2023-05-17T09:26:20Z</time>
</trkpt>
<trkpt lat="49.058717926964164" lon="8.9921869430691">
<ele>222.20000000000005</ele>
<time>2023-05-17T09:26:21Z</time>
</trkpt>
<trkpt lat="49.0586799569428" lon="8.99218493141234">
<ele>222.39999999999998</ele>
<time>2023-05-17T09:26:22Z</time>
</trkpt>
<trkpt lat="49.05863997526467" lon="8.99218493141234">
<ele>222.60000000000002</ele>
<time>2023-05-17T09:26:23Z</time>
</trkpt>
<trkpt lat="49.05859999358654" lon="8.992179986089468">
<ele>222.79999999999995</ele>
<time>2023-05-17T09:26:24Z</time>
</trkpt>
<trkpt lat="49.05855791643262" lon="8.992177974432707">
<ele>223</ele>
<time>2023-05-17T09:26:25Z</time>
</trkpt>
<trkpt lat="49.05851692892611" lon="8.992177974432707">
<ele>223.39999999999998</ele>
<time>2023-05-17T09:26:26Z</time>
</trkpt>
<trkpt lat="49.05847292393446" lon="8.992179986089468">
<ele>223.60000000000002</ele>
<time>2023-05-17T09:26:27Z</time>
</trkpt>
<trkpt lat="49.05842992477119" lon="8.992176968604326">
<ele>224</ele>
<time>2023-05-17T09:26:28Z</time>
</trkpt>
<trkpt lat="49.0583879314363" lon="8.992171939462423">
<ele>224.20000000000005</ele>
<time>2023-05-17T09:26:29Z</time>
</trkpt>
<trkpt lat="49.05834794975817" lon="8.99216297082603">
<ele>224.60000000000002</ele>
<time>2023-05-17T09:26:30Z</time>
</trkpt>
<trkpt lat="49.058309979736805" lon="8.992156935855746">
<ele>224.79999999999995</ele>
<time>2023-05-17T09:26:31Z</time>
</trkpt>
<trkpt lat="49.058271925896406" lon="8.992152996361256">
<ele>225.20000000000005</ele>
<time>2023-05-17T09:26:32Z</time>
</trkpt>
<trkpt lat="49.05823797918856" lon="8.992147967219353">
<ele>225.60000000000002</ele>
<time>2023-05-17T09:26:33Z</time>
</trkpt>
<trkpt lat="49.058204954490066" lon="8.992137992754579">
<ele>226</ele>
<time>2023-05-17T09:26:34Z</time>
</trkpt>
<trkpt lat="49.05817695893347" lon="8.992116954177618">
<ele>226.20000000000005</ele>
<time>2023-05-17T09:26:35Z</time>
</trkpt>
<trkpt lat="49.05815198086202" lon="8.992079989984632">
<ele>226.60000000000002</ele>
<time>2023-05-17T09:26:36Z</time>
</trkpt>
<trkpt lat="49.05813295394182" lon="8.992027938365936">
<ele>226.79999999999995</ele>
<time>2023-05-17T09:26:37Z</time>
</trkpt>
<trkpt lat="49.05812197364867" lon="8.99196993559599">
<ele>227.20000000000005</ele>
<time>2023-05-17T09:26:38Z</time>
</trkpt>
<trkpt lat="49.05811292119324" lon="8.99190497584641">
<ele>227.39999999999998</ele>
<time>2023-05-17T09:26:39Z</time>
</trkpt>
<trkpt lat="49.05810294672847" lon="8.991834986954927">
<ele>227.60000000000002</ele>
<time>2023-05-17T09:26:40Z</time>
</trkpt>
<trkpt lat="49.058092972263694" lon="8.991762986406684">
<ele>227.79999999999995</ele>
<time>2023-05-17T09:26:41Z</time>
</trkpt>
<trkpt lat="49.05808299779892" lon="8.99168998003006">
<ele>227.79999999999995</ele>
<time>2023-05-17T09:26:42Z</time>
</trkpt>
<trkpt lat="49.058074951171875" lon="8.991616973653436">
<ele>228</ele>
<time>2023-05-17T09:26:43Z</time>
</trkpt>
<trkpt lat="49.05806296505034" lon="8.991542961448431">
<ele>228</ele>
<time>2023-05-17T09:26:44Z</time>
</trkpt>
<trkpt lat="49.058052990585566" lon="8.991467943415046">
<ele>228</ele>
<time>2023-05-17T09:26:45Z</time>
</trkpt>
<trkpt lat="49.05804192647338" lon="8.99138999171555">
<ele>228</ele>
<time>2023-05-17T09:26:46Z</time>
</trkpt>
<trkpt lat="49.058031952008605" lon="8.991307932883501">
<ele>228</ele>
<time>2023-05-17T09:26:47Z</time>
</trkpt>
<trkpt lat="49.05802197754383" lon="8.991227969527245">
<ele>228</ele>
<time>2023-05-17T09:26:48Z</time>
</trkpt>
<trkpt lat="49.058011919260025" lon="8.991147922351956">
<ele>228</ele>
<time>2023-05-17T09:26:49Z</time>
</trkpt>
<trkpt lat="49.05799993313849" lon="8.9910679589957">
<ele>228</ele>
<time>2023-05-17T09:26:50Z</time>
</trkpt>
<trkpt lat="49.057987947016954" lon="8.990987995639443">
<ele>228</ele>
<time>2023-05-17T09:26:51Z</time>
</trkpt>
<trkpt lat="49.0579769667238" lon="8.990906942635775">
<ele>228</ele>
<time>2023-05-17T09:26:52Z</time>
</trkpt>
<trkpt lat="49.057966992259026" lon="8.990824967622757">
<ele>228</ele>
<time>2023-05-17T09:26:53Z</time>
</trkpt>
<trkpt lat="49.05795492231846" lon="8.990741986781359">
<ele>227.79999999999995</ele>
<time>2023-05-17T09:26:54Z</time>
</trkpt>
<trkpt lat="49.05794293619692" lon="8.990657916292548">
<ele>227.79999999999995</ele>
<time>2023-05-17T09:26:55Z</time>
</trkpt>
<trkpt lat="49.05793296173215" lon="8.990572923794389">
<ele>227.79999999999995</ele>
<time>2023-05-17T09:26:56Z</time>
</trkpt>
<trkpt lat="49.057922987267375" lon="8.990492960438132">
<ele>227.79999999999995</ele>
<time>2023-05-17T09:26:57Z</time>
</trkpt>
<trkpt lat="49.05791292898357" lon="8.990416936576366">
<ele>227.79999999999995</ele>
<time>2023-05-17T09:26:58Z</time>
</trkpt>
<trkpt lat="49.05789993703365" lon="8.990339990705252">
<ele>227.60000000000002</ele>
<time>2023-05-17T09:26:59Z</time>
</trkpt>
<trkpt lat="49.05788996256888" lon="8.990266984328628">
<ele>227.60000000000002</ele>
<time>2023-05-17T09:27:00Z</time>
</trkpt>
<trkpt lat="49.057882921770215" lon="8.990197917446494">
<ele>227.60000000000002</ele>
<time>2023-05-17T09:27:01Z</time>
</trkpt>
<trkpt lat="49.0578749589622" lon="8.990136981010437">
<ele>227.39999999999998</ele>
<time>2023-05-17T09:27:02Z</time>
</trkpt>
<trkpt lat="49.05786498449743" lon="8.99007998406887">
<ele>227.20000000000005</ele>
<time>2023-05-17T09:27:03Z</time>
</trkpt>
<trkpt lat="49.057857943698764" lon="8.990022987127304">
<ele>227.20000000000005</ele>
<time>2023-05-17T09:27:04Z</time>
</trkpt>
<trkpt lat="49.05785299837589" lon="8.989974958822131">
<ele>227</ele>
<time>2023-05-17T09:27:05Z</time>
</trkpt>
<trkpt lat="49.05784495174885" lon="8.9899299480021">
<ele>226.79999999999995</ele>
<time>2023-05-17T09:27:06Z</time>
</trkpt>
<trkpt lat="49.057834977284074" lon="8.989882925525308">
<ele>226.79999999999995</ele>
<time>2023-05-17T09:27:07Z</time>
</trkpt>
<trkpt lat="49.05782491900027" lon="8.989836992695928">
<ele>226.60000000000002</ele>
<time>2023-05-17T09:27:08Z</time>
</trkpt>
<trkpt lat="49.057817962020636" lon="8.989787958562374">
<ele>226.39999999999998</ele>
<time>2023-05-17T09:27:09Z</time>
</trkpt>
<trkpt lat="49.057814944535494" lon="8.989741941913962">
<ele>226.20000000000005</ele>
<time>2023-05-17T09:27:10Z</time>
</trkpt>
<trkpt lat="49.057814944535494" lon="8.989696931093931">
<ele>226</ele>
<time>2023-05-17T09:27:11Z</time>
</trkpt>
<trkpt lat="49.057816956192255" lon="8.989656949415803">
<ele>225.79999999999995</ele>
<time>2023-05-17T09:27:12Z</time>
</trkpt>
<trkpt lat="49.057816956192255" lon="8.989616967737675">
<ele>225.60000000000002</ele>
<time>2023-05-17T09:27:13Z</time>
</trkpt>
<trkpt lat="49.057816956192255" lon="8.989574974402785">
<ele>225.39999999999998</ele>
<time>2023-05-17T09:27:14Z</time>
</trkpt>
<trkpt lat="49.057814944535494" lon="8.989532981067896">
<ele>225</ele>
<time>2023-05-17T09:27:15Z</time>
</trkpt>
<trkpt lat="49.05781293287873" lon="8.989489981904626">
<ele>224.79999999999995</ele>
<time>2023-05-17T09:27:16Z</time>
</trkpt>
<trkpt lat="49.05780698172748" lon="8.989447988569736">
<ele>224.60000000000002</ele>
<time>2023-05-17T09:27:17Z</time>
</trkpt>
<trkpt lat="49.057797929272056" lon="8.989406917244196">
<ele>224.20000000000005</ele>
<time>2023-05-17T09:27:18Z</time>
</trkpt>
<trkpt lat="49.057791978120804" lon="8.989362996071577">
<ele>224</ele>
<time>2023-05-17T09:27:19Z</time>
</trkpt>
<trkpt lat="49.0577869489789" lon="8.989314967766404">
<ele>223.79999999999995</ele>
<time>2023-05-17T09:27:20Z</time>
</trkpt>
<trkpt lat="49.0577869489789" lon="8.989267945289612">
<ele>223.39999999999998</ele>
<time>2023-05-17T09:27:21Z</time>
</trkpt>
<trkpt lat="49.057792983949184" lon="8.98922293446958">
<ele>223.20000000000005</ele>
<time>2023-05-17T09:27:22Z</time>
</trkpt>
<trkpt lat="49.05780798755586" lon="8.989186976104975">
<ele>223</ele>
<time>2023-05-17T09:27:23Z</time>
</trkpt>
<trkpt lat="49.05783195979893" lon="8.98915696889162">
<ele>222.79999999999995</ele>
<time>2023-05-17T09:27:24Z</time>
</trkpt>
<trkpt lat="49.05786297284067" lon="8.98913299664855">
<ele>222.60000000000002</ele>
<time>2023-05-17T09:27:25Z</time>
</trkpt>
<trkpt lat="49.05789792537689" lon="8.98911195807159">
<ele>222.39999999999998</ele>
<time>2023-05-17T09:27:26Z</time>
</trkpt>
<trkpt lat="49.05793296173215" lon="8.989086980000138">
<ele>222.39999999999998</ele>
<time>2023-05-17T09:27:27Z</time>
</trkpt>
<trkpt lat="49.0579719375819" lon="8.989056972786784">
<ele>222.20000000000005</ele>
<time>2023-05-17T09:27:28Z</time>
</trkpt>
<trkpt lat="49.058009991422296" lon="8.989024953916669">
<ele>222</ele>
<time>2023-05-17T09:27:29Z</time>
</trkpt>
<trkpt lat="49.05804796144366" lon="8.988992935046554">
<ele>221.79999999999995</ele>
<time>2023-05-17T09:27:30Z</time>
</trkpt>
<trkpt lat="49.05808492563665" lon="8.98895999416709">
<ele>221.60000000000002</ele>
<time>2023-05-17T09:27:31Z</time>
</trkpt>
<trkpt lat="49.05812197364867" lon="8.988922946155071">
<ele>221.60000000000002</ele>
<time>2023-05-17T09:27:32Z</time>
</trkpt>
<trkpt lat="49.058159943670034" lon="8.988887993618846">
<ele>221.39999999999998</ele>
<time>2023-05-17T09:27:33Z</time>
</trkpt>
<trkpt lat="49.058201937004924" lon="8.988852957263589">
<ele>221.20000000000005</ele>
<time>2023-05-17T09:27:34Z</time>
</trkpt>
<trkpt lat="49.05824292451143" lon="8.988817920908332">
<ele>221.20000000000005</ele>
<time>2023-05-17T09:27:35Z</time>
</trkpt>
<trkpt lat="49.05828692950308" lon="8.988779950886965">
<ele>221</ele>
<time>2023-05-17T09:27:36Z</time>
</trkpt>
<trkpt lat="49.058332946151495" lon="8.988739969208837">
<ele>221</ele>
<time>2023-05-17T09:27:37Z</time>
</trkpt>
<trkpt lat="49.05838198028505" lon="8.988696970045567">
<ele>220.79999999999995</ele>
<time>2023-05-17T09:27:38Z</time>
</trkpt>
<trkpt lat="49.05842799693346" lon="8.988651959225535">
<ele>220.79999999999995</ele>
<time>2023-05-17T09:27:39Z</time>
</trkpt>
<trkpt lat="49.05847292393446" lon="8.988606948405504">
<ele>220.60000000000002</ele>
<time>2023-05-17T09:27:40Z</time>
</trkpt>
<trkpt lat="49.05851994641125" lon="8.988561937585473">
<ele>220.39999999999998</ele>
<time>2023-05-17T09:27:41Z</time>
</trkpt>
<trkpt lat="49.058566968888044" lon="8.988521955907345">
<ele>220.39999999999998</ele>
<time>2023-05-17T09:27:42Z</time>
</trkpt>
<trkpt lat="49.05861499719322" lon="8.988476945087314">
<ele>220.20000000000005</ele>
<time>2023-05-17T09:27:43Z</time>
</trkpt>
<trkpt lat="49.05866495333612" lon="8.988431934267282">
<ele>220.20000000000005</ele>
<time>2023-05-17T09:27:44Z</time>
</trkpt>
<trkpt lat="49.05871298164129" lon="8.98838298395276">
<ele>220</ele>
<time>2023-05-17T09:27:45Z</time>
</trkpt>
<trkpt lat="49.05875992029905" lon="8.988334955647588">
<ele>220</ele>
<time>2023-05-17T09:27:46Z</time>
</trkpt>
<trkpt lat="49.058807948604226" lon="8.988286927342415">
<ele>219.79999999999995</ele>
<time>2023-05-17T09:27:47Z</time>
</trkpt>
<trkpt lat="49.05885798856616" lon="8.988237977027893">
<ele>219.60000000000002</ele>
<time>2023-05-17T09:27:48Z</time>
</trkpt>
<trkpt lat="49.05890794470906" lon="8.988191960379481">
<ele>219.60000000000002</ele>
<time>2023-05-17T09:27:49Z</time>
</trkpt>
<trkpt lat="49.05895999632776" lon="8.988141920417547">
<ele>219.39999999999998</ele>
<time>2023-05-17T09:27:50Z</time>
</trkpt>
<trkpt lat="49.0590079408139" lon="8.988089952617884">
<ele>219.39999999999998</ele>
<time>2023-05-17T09:27:51Z</time>
</trkpt>
<trkpt lat="49.059061920270324" lon="8.98803798481822">
<ele>219.20000000000005</ele>
<time>2023-05-17T09:27:52Z</time>
</trkpt>
<trkpt lat="49.05911698937416" lon="8.987986939027905">
<ele>219</ele>
<time>2023-05-17T09:27:53Z</time>
</trkpt>
<trkpt lat="49.059169963002205" lon="8.9879319537431">
<ele>219</ele>
<time>2023-05-17T09:27:54Z</time>
</trkpt>
<trkpt lat="49.05922494828701" lon="8.987879985943437">
<ele>218.79999999999995</ele>
<time>2023-05-17T09:27:55Z</time>
</trkpt>
<trkpt lat="49.059277921915054" lon="8.98782692849636">
<ele>218.60000000000002</ele>
<time>2023-05-17T09:27:56Z</time>
</trkpt>
<trkpt lat="49.05933198519051" lon="8.987772949039936">
<ele>218.39999999999998</ele>
<time>2023-05-17T09:27:57Z</time>
</trkpt>
<trkpt lat="49.059386970475316" lon="8.98771796375513">
<ele>218.39999999999998</ele>
<time>2023-05-17T09:27:58Z</time>
</trkpt>
<trkpt lat="49.05943994410336" lon="8.987669935449958">
<ele>218.20000000000005</ele>
<time>2023-05-17T09:27:59Z</time>
</trkpt>
<trkpt lat="49.059491995722055" lon="8.987622996792197">
<ele>217.79999999999995</ele>
<time>2023-05-17T09:28:00Z</time>
</trkpt>
<trkpt lat="49.05954195186496" lon="8.987576980143785">
<ele>217.60000000000002</ele>
<time>2023-05-17T09:28:01Z</time>
</trkpt>
<trkpt lat="49.05958796851337" lon="8.987532975152135">
<ele>217.39999999999998</ele>
<time>2023-05-17T09:28:02Z</time>
</trkpt>
<trkpt lat="49.05963499099016" lon="8.987487964332104">
<ele>217</ele>
<time>2023-05-17T09:28:03Z</time>
</trkpt>
<trkpt lat="49.05968192964792" lon="8.987446976825595">
<ele>216.79999999999995</ele>
<time>2023-05-17T09:28:04Z</time>
</trkpt>
<trkpt lat="49.059727946296334" lon="8.987402971833944">
<ele>216.60000000000002</ele>
<time>2023-05-17T09:28:05Z</time>
</trkpt>
<trkpt lat="49.059772957116365" lon="8.987359972670674">
<ele>216.39999999999998</ele>
<time>2023-05-17T09:28:06Z</time>
</trkpt>
<trkpt lat="49.0598179679364" lon="8.987316973507404">
<ele>216.20000000000005</ele>
<time>2023-05-17T09:28:07Z</time>
</trkpt>
<trkpt lat="49.05986691825092" lon="8.987274980172515">
<ele>216.20000000000005</ele>
<time>2023-05-17T09:28:08Z</time>
</trkpt>
<trkpt lat="49.05991192907095" lon="8.987231981009245">
<ele>216</ele>
<time>2023-05-17T09:28:09Z</time>
</trkpt>
<trkpt lat="49.05995492823422" lon="8.987186970189214">
<ele>216</ele>
<time>2023-05-17T09:28:10Z</time>
</trkpt>
<trkpt lat="49.06000195071101" lon="8.987142965197563">
<ele>216</ele>
<time>2023-05-17T09:28:11Z</time>
</trkpt>
<trkpt lat="49.06004696153104" lon="8.987099966034293">
<ele>216</ele>
<time>2023-05-17T09:28:12Z</time>
</trkpt>
<trkpt lat="49.060091972351074" lon="8.987059984356165">
<ele>215.79999999999995</ele>
<time>2023-05-17T09:28:13Z</time>
</trkpt>
<trkpt lat="49.060136983171105" lon="8.987017991021276">
<ele>215.79999999999995</ele>
<time>2023-05-17T09:28:14Z</time>
</trkpt>
<trkpt lat="49.06018199399114" lon="8.986974991858006">
<ele>215.79999999999995</ele>
<time>2023-05-17T09:28:15Z</time>
</trkpt>
<trkpt lat="49.06022499315441" lon="8.986931992694736">
<ele>215.60000000000002</ele>
<time>2023-05-17T09:28:16Z</time>
</trkpt>
<trkpt lat="49.060269920155406" lon="8.986894944682717">
<ele>215.60000000000002</ele>
<time>2023-05-17T09:28:17Z</time>
</trkpt>
<trkpt lat="49.060312919318676" lon="8.98685798048973">
<ele>215.60000000000002</ele>
<time>2023-05-17T09:28:18Z</time>
</trkpt>
<trkpt lat="49.06035692431033" lon="8.986816992983222">
<ele>215.60000000000002</ele>
<time>2023-05-17T09:28:19Z</time>
</trkpt>
<trkpt lat="49.0603999234736" lon="8.986772987991571">
<ele>215.39999999999998</ele>
<time>2023-05-17T09:28:20Z</time>
</trkpt>
<trkpt lat="49.06043998897076" lon="8.98673191666603">
<ele>215.39999999999998</ele>
<time>2023-05-17T09:28:21Z</time>
</trkpt>
<trkpt lat="49.06048298813403" lon="8.986692940816283">
<ele>215.20000000000005</ele>
<time>2023-05-17T09:28:22Z</time>
</trkpt>
<trkpt lat="49.060524981468916" lon="8.986647929996252">
<ele>215.20000000000005</ele>
<time>2023-05-17T09:28:23Z</time>
</trkpt>
<trkpt lat="49.060567980632186" lon="8.986606942489743">
<ele>215</ele>
<time>2023-05-17T09:28:24Z</time>
</trkpt>
<trkpt lat="49.060609973967075" lon="8.986566960811615">
<ele>215</ele>
<time>2023-05-17T09:28:25Z</time>
</trkpt>
<trkpt lat="49.060651967301965" lon="8.986527984961867">
<ele>215</ele>
<time>2023-05-17T09:28:26Z</time>
</trkpt>
<trkpt lat="49.060692954808474" lon="8.986489931121469">
<ele>214.79999999999995</ele>
<time>2023-05-17T09:28:27Z</time>
</trkpt>
<trkpt lat="49.0607329364866" lon="8.986452966928482">
<ele>214.79999999999995</ele>
<time>2023-05-17T09:28:28Z</time>
</trkpt>
<trkpt lat="49.06077291816473" lon="8.986414996907115">
<ele>214.79999999999995</ele>
<time>2023-05-17T09:28:29Z</time>
</trkpt>
<trkpt lat="49.06080996617675" lon="8.986371997743845">
<ele>214.60000000000002</ele>
<time>2023-05-17T09:28:30Z</time>
</trkpt>
<trkpt lat="49.0608399733901" lon="8.986317934468389">
<ele>214.60000000000002</ele>
<time>2023-05-17T09:28:31Z</time>
</trkpt>
<trkpt lat="49.06086193397641" lon="8.986256998032331">
<ele>214.60000000000002</ele>
<time>2023-05-17T09:28:32Z</time>
</trkpt>
<trkpt lat="49.06086998060346" lon="8.986186925321817">
<ele>214.39999999999998</ele>
<time>2023-05-17T09:28:33Z</time>
</trkpt>
<trkpt lat="49.06086293980479" lon="8.986116936430335">
<ele>214.39999999999998</ele>
<time>2023-05-17T09:28:34Z</time>
</trkpt>
<trkpt lat="49.06084994785488" lon="8.986044935882092">
<ele>214.39999999999998</ele>
<time>2023-05-17T09:28:35Z</time>
</trkpt>
<trkpt lat="49.06083293259144" lon="8.985969917848706">
<ele>214.39999999999998</ele>
<time>2023-05-17T09:28:36Z</time>
</trkpt>
<trkpt lat="49.06081792898476" lon="8.985896995291114">
<ele>214.20000000000005</ele>
<time>2023-05-17T09:28:37Z</time>
</trkpt>
<trkpt lat="49.060802925378084" lon="8.985819965600967">
<ele>214.20000000000005</ele>
<time>2023-05-17T09:28:38Z</time>
</trkpt>
<trkpt lat="49.06078699976206" lon="8.98574193008244">
<ele>214.20000000000005</ele>
<time>2023-05-17T09:28:39Z</time>
</trkpt>
<trkpt lat="49.06077291816473" lon="8.985661966726184">
<ele>214.20000000000005</ele>
<time>2023-05-17T09:28:40Z</time>
</trkpt>
<trkpt lat="49.060759926214814" lon="8.985582925379276">
<ele>214.20000000000005</ele>
<time>2023-05-17T09:28:41Z</time>
</trkpt>
<trkpt lat="49.06074995175004" lon="8.98550195619464">
<ele>214.20000000000005</ele>
<time>2023-05-17T09:28:42Z</time>
</trkpt>
<trkpt lat="49.060737965628505" lon="8.98541696369648">
<ele>214.20000000000005</ele>
<time>2023-05-17T09:28:43Z</time>
</trkpt>
<trkpt lat="49.06072799116373" lon="8.98532995954156">
<ele>214.20000000000005</ele>
<time>2023-05-17T09:28:44Z</time>
</trkpt>
<trkpt lat="49.060712987557054" lon="8.9852449670434">
<ele>214.20000000000005</ele>
<time>2023-05-17T09:28:45Z</time>
</trkpt>
<trkpt lat="49.06069798395038" lon="8.98515997454524">
<ele>214.20000000000005</ele>
<time>2023-05-17T09:28:46Z</time>
</trkpt>
<trkpt lat="49.06068499200046" lon="8.985079927369952">
<ele>214.39999999999998</ele>
<time>2023-05-17T09:28:47Z</time>
</trkpt>
<trkpt lat="49.060672922059894" lon="8.985002981498837">
<ele>214.39999999999998</ele>
<time>2023-05-17T09:28:48Z</time>
</trkpt>
<trkpt lat="49.06066294759512" lon="8.98492494598031">
<ele>214.39999999999998</ele>
<time>2023-05-17T09:28:49Z</time>
</trkpt>
<trkpt lat="49.060652973130345" lon="8.984852945432067">
<ele>214.60000000000002</ele>
<time>2023-05-17T09:28:50Z</time>
</trkpt>
<trkpt lat="49.0606449265033" lon="8.984782956540585">
<ele>214.60000000000002</ele>
<time>2023-05-17T09:28:51Z</time>
</trkpt>
<trkpt lat="49.06063796952367" lon="8.984714979305863">
<ele>214.79999999999995</ele>
<time>2023-05-17T09:28:52Z</time>
</trkpt>
<trkpt lat="49.060629922896624" lon="8.98464297875762">
<ele>214.79999999999995</ele>
<time>2023-05-17T09:28:53Z</time>
</trkpt>
<trkpt lat="49.06061793677509" lon="8.984571984037757">
<ele>214.79999999999995</ele>
<time>2023-05-17T09:28:54Z</time>
</trkpt>
<trkpt lat="49.060606956481934" lon="8.984499983489513">
<ele>215</ele>
<time>2023-05-17T09:28:55Z</time>
</trkpt>
<trkpt lat="49.0605949703604" lon="8.984429994598031">
<ele>215.20000000000005</ele>
<time>2023-05-17T09:28:56Z</time>
</trkpt>
<trkpt lat="49.06058298423886" lon="8.984361933544278">
<ele>215.39999999999998</ele>
<time>2023-05-17T09:28:57Z</time>
</trkpt>
<trkpt lat="49.06057192012668" lon="8.984289932996035">
<ele>215.60000000000002</ele>
<time>2023-05-17T09:28:58Z</time>
</trkpt>
<trkpt lat="49.0605619456619" lon="8.984219944104552">
<ele>215.60000000000002</ele>
<time>2023-05-17T09:28:59Z</time>
</trkpt>
<trkpt lat="49.06055197119713" lon="8.984154984354973">
<ele>215.79999999999995</ele>
<time>2023-05-17T09:29:00Z</time>
</trkpt>
<trkpt lat="49.060541996732354" lon="8.9840879291296">
<ele>216</ele>
<time>2023-05-17T09:29:01Z</time>
</trkpt>
<trkpt lat="49.06053193844855" lon="8.98402196355164">
<ele>216.20000000000005</ele>
<time>2023-05-17T09:29:02Z</time>
</trkpt>
<trkpt lat="49.060521963983774" lon="8.98395691998303">
<ele>216.20000000000005</ele>
<time>2023-05-17T09:29:03Z</time>
</trkpt>
<trkpt lat="49.060511989519" lon="8.983887936919928">
<ele>216.39999999999998</ele>
<time>2023-05-17T09:29:04Z</time>
</trkpt>
<trkpt lat="49.06049991957843" lon="8.983819959685206">
<ele>216.39999999999998</ele>
<time>2023-05-17T09:29:05Z</time>
</trkpt>
<trkpt lat="49.06048994511366" lon="8.983751982450485">
<ele>216.60000000000002</ele>
<time>2023-05-17T09:29:06Z</time>
</trkpt>
<trkpt lat="49.060479970648885" lon="8.983682999387383">
<ele>216.60000000000002</ele>
<time>2023-05-17T09:29:07Z</time>
</trkpt>
<trkpt lat="49.06046798452735" lon="8.983617955818772">
<ele>216.79999999999995</ele>
<time>2023-05-17T09:29:08Z</time>
</trkpt>
<trkpt lat="49.06045692041516" lon="8.983551990240812">
<ele>216.79999999999995</ele>
<time>2023-05-17T09:29:09Z</time>
</trkpt>
<trkpt lat="49.06044694595039" lon="8.983487952500582">
<ele>216.79999999999995</ele>
<time>2023-05-17T09:29:10Z</time>
</trkpt>
<trkpt lat="49.060434959828854" lon="8.983427938073874">
<ele>217</ele>
<time>2023-05-17T09:29:11Z</time>
</trkpt>
<trkpt lat="49.06042196787894" lon="8.983369935303926">
<ele>217</ele>
<time>2023-05-17T09:29:12Z</time>
</trkpt>
<trkpt lat="49.06040797010064" lon="8.98331193253398">
<ele>217</ele>
<time>2023-05-17T09:29:13Z</time>
</trkpt>
<trkpt lat="49.06039698980749" lon="8.983257953077555">
<ele>217</ele>
<time>2023-05-17T09:29:14Z</time>
</trkpt>
<trkpt lat="49.06038491986692" lon="8.98320497944951">
<ele>217</ele>
<time>2023-05-17T09:29:15Z</time>
</trkpt>
<trkpt lat="49.060371927917004" lon="8.983147982507944">
<ele>217</ele>
<time>2023-05-17T09:29:16Z</time>
</trkpt>
<trkpt lat="49.06035994179547" lon="8.983091991394758">
<ele>217.20000000000005</ele>
<time>2023-05-17T09:29:17Z</time>
</trkpt>
<trkpt lat="49.06034694984555" lon="8.98303197696805">
<ele>217.20000000000005</ele>
<time>2023-05-17T09:29:18Z</time>
</trkpt>
<trkpt lat="49.060331946238875" lon="8.982974980026484">
<ele>217.20000000000005</ele>
<time>2023-05-17T09:29:19Z</time>
</trkpt>
<trkpt lat="49.0603169426322" lon="8.982919994741678">
<ele>217.20000000000005</ele>
<time>2023-05-17T09:29:20Z</time>
</trkpt>
<trkpt lat="49.06030193902552" lon="8.982862997800112">
<ele>217.20000000000005</ele>
<time>2023-05-17T09:29:21Z</time>
</trkpt>
<trkpt lat="49.060287941247225" lon="8.982801977545023">
<ele>217.20000000000005</ele>
<time>2023-05-17T09:29:22Z</time>
</trkpt>
<trkpt lat="49.06027193181217" lon="8.98273492231965">
<ele>217.20000000000005</ele>
<time>2023-05-17T09:29:23Z</time>
</trkpt>
<trkpt lat="49.06025692820549" lon="8.98266795091331">
<ele>217.20000000000005</ele>
<time>2023-05-17T09:29:24Z</time>
</trkpt>
<trkpt lat="49.06024192459881" lon="8.982606930658221">
<ele>217.20000000000005</ele>
<time>2023-05-17T09:29:25Z</time>
</trkpt>
<trkpt lat="49.06022499315441" lon="8.982542976737022">
<ele>217</ele>
<time>2023-05-17T09:29:26Z</time>
</trkpt>
<trkpt lat="49.06020496040583" lon="8.982481956481934">
<ele>217</ele>
<time>2023-05-17T09:29:27Z</time>
</trkpt>
<trkpt lat="49.06018693931401" lon="8.982416996732354">
<ele>217</ele>
<time>2023-05-17T09:29:28Z</time>
</trkpt>
<trkpt lat="49.06016992405057" lon="8.98234692402184">
<ele>217</ele>
<time>2023-05-17T09:29:29Z</time>
</trkpt>
<trkpt lat="49.06015198677778" lon="8.982272995635867">
<ele>217</ele>
<time>2023-05-17T09:29:30Z</time>
</trkpt>
<trkpt lat="49.06013295985758" lon="8.982197977602482">
<ele>216.79999999999995</ele>
<time>2023-05-17T09:29:31Z</time>
</trkpt>
<trkpt lat="49.060114938765764" lon="8.982119942083955">
<ele>216.60000000000002</ele>
<time>2023-05-17T09:29:32Z</time>
</trkpt>
<trkpt lat="49.060092978179455" lon="8.982039978727698">
<ele>216.60000000000002</ele>
<time>2023-05-17T09:29:33Z</time>
</trkpt>
<trkpt lat="49.06006992794573" lon="8.981957919895649">
<ele>216.39999999999998</ele>
<time>2023-05-17T09:29:34Z</time>
</trkpt>
<trkpt lat="49.060047967359424" lon="8.98187292739749">
<ele>216.20000000000005</ele>
<time>2023-05-17T09:29:35Z</time>
</trkpt>
<trkpt lat="49.0600249171257" lon="8.98178692907095">
<ele>215.79999999999995</ele>
<time>2023-05-17T09:29:36Z</time>
</trkpt>
<trkpt lat="49.06000295653939" lon="8.981699924916029">
<ele>215.60000000000002</ele>
<time>2023-05-17T09:29:37Z</time>
</trkpt>
<trkpt lat="49.0599799901247" lon="8.981609987094998">
<ele>215.39999999999998</ele>
<time>2023-05-17T09:29:38Z</time>
</trkpt>
<trkpt lat="49.05995794571936" lon="8.981517953798175">
<ele>215.20000000000005</ele>
<time>2023-05-17T09:29:39Z</time>
</trkpt>
<trkpt lat="49.05993699096143" lon="8.981426926329732">
<ele>215</ele>
<time>2023-05-17T09:29:40Z</time>
</trkpt>
<trkpt lat="49.05991494655609" lon="8.98133497685194">
<ele>214.79999999999995</ele>
<time>2023-05-17T09:29:41Z</time>
</trkpt>
<trkpt lat="49.05989298596978" lon="8.981242943555117">
<ele>214.60000000000002</ele>
<time>2023-05-17T09:29:42Z</time>
</trkpt>
<trkpt lat="49.05987194739282" lon="8.981151999905705">
<ele>214.60000000000002</ele>
<time>2023-05-17T09:29:43Z</time>
</trkpt>
<trkpt lat="49.05984797514975" lon="8.98105694912374">
<ele>214.39999999999998</ele>
<time>2023-05-17T09:29:44Z</time>
</trkpt>
<trkpt lat="49.05982492491603" lon="8.980966927483678">
<ele>214.20000000000005</ele>
<time>2023-05-17T09:29:45Z</time>
</trkpt>
<trkpt lat="49.059796929359436" lon="8.980876989662647">
<ele>214.20000000000005</ele>
<time>2023-05-17T09:29:46Z</time>
</trkpt>
<trkpt lat="49.05976692214608" lon="8.980789985507727">
<ele>214</ele>
<time>2023-05-17T09:29:47Z</time>
</trkpt>
<trkpt lat="49.059729957953095" lon="8.980709938332438">
<ele>214</ele>
<time>2023-05-17T09:29:48Z</time>
</trkpt>
<trkpt lat="49.05969198793173" lon="8.980631986632943">
<ele>213.79999999999995</ele>
<time>2023-05-17T09:29:49Z</time>
</trkpt>
<trkpt lat="49.05965192243457" lon="8.980554956942797">
<ele>213.79999999999995</ele>
<time>2023-05-17T09:29:50Z</time>
</trkpt>
<trkpt lat="49.05961294658482" lon="8.980479938909411">
<ele>213.60000000000002</ele>
<time>2023-05-17T09:29:51Z</time>
</trkpt>
<trkpt lat="49.05957195907831" lon="8.980404920876026">
<ele>213.60000000000002</ele>
<time>2023-05-17T09:29:52Z</time>
</trkpt>
<trkpt lat="49.059532983228564" lon="8.980327975004911">
<ele>213.39999999999998</ele>
<time>2023-05-17T09:29:53Z</time>
</trkpt>
<trkpt lat="49.059494929388165" lon="8.980254968628287">
<ele>213.39999999999998</ele>
<time>2023-05-17T09:29:54Z</time>
</trkpt>
<trkpt lat="49.0594569593668" lon="8.980179950594902">
<ele>213.39999999999998</ele>
<time>2023-05-17T09:29:55Z</time>
</trkpt>
<trkpt lat="49.05941999517381" lon="8.980106944218278">
<ele>213.20000000000005</ele>
<time>2023-05-17T09:29:56Z</time>
</trkpt>
<trkpt lat="49.059382947161794" lon="8.980031926184893">
<ele>213.20000000000005</ele>
<time>2023-05-17T09:29:57Z</time>
</trkpt>
<trkpt lat="49.05934698879719" lon="8.97996193729341">
<ele>213.20000000000005</ele>
<time>2023-05-17T09:29:58Z</time>
</trkpt>
<trkpt lat="49.05930994078517" lon="8.97989496588707">
<ele>213.20000000000005</ele>
<time>2023-05-17T09:29:59Z</time>
</trkpt>
<trkpt lat="49.05927297659218" lon="8.979827994480729">
<ele>213.20000000000005</ele>
<time>2023-05-17T09:30:00Z</time>
</trkpt>
<trkpt lat="49.059236934408545" lon="8.979761945083737">
<ele>213</ele>
<time>2023-05-17T09:30:01Z</time>
</trkpt>
<trkpt lat="49.05919997021556" lon="8.979691956192255">
<ele>213</ele>
<time>2023-05-17T09:30:02Z</time>
</trkpt>
<trkpt lat="49.0591649338603" lon="8.979621967300773">
<ele>213</ele>
<time>2023-05-17T09:30:03Z</time>
</trkpt>
<trkpt lat="49.059127969667315" lon="8.97954996675253">
<ele>213</ele>
<time>2023-05-17T09:30:04Z</time>
</trkpt>
<trkpt lat="49.05909293331206" lon="8.979477966204286">
<ele>213</ele>
<time>2023-05-17T09:30:05Z</time>
</trkpt>
<trkpt lat="49.05905798077583" lon="8.9794029481709">
<ele>213</ele>
<time>2023-05-17T09:30:06Z</time>
</trkpt>
<trkpt lat="49.059022944420576" lon="8.979326924309134">
<ele>213</ele>
<time>2023-05-17T09:30:07Z</time>
</trkpt>
<trkpt lat="49.05898698605597" lon="8.979252995923162">
<ele>212.79999999999995</ele>
<time>2023-05-17T09:30:08Z</time>
</trkpt>
<trkpt lat="49.05894792638719" lon="8.979184934869409">
<ele>212.79999999999995</ele>
<time>2023-05-17T09:30:09Z</time>
</trkpt>
<trkpt lat="49.058911968022585" lon="8.979114945977926">
<ele>212.60000000000002</ele>
<time>2023-05-17T09:30:10Z</time>
</trkpt>
<trkpt lat="49.05887693166733" lon="8.979046968743205">
<ele>212.60000000000002</ele>
<time>2023-05-17T09:30:11Z</time>
</trkpt>
<trkpt lat="49.05883996747434" lon="8.978977985680103">
<ele>212.60000000000002</ele>
<time>2023-05-17T09:30:12Z</time>
</trkpt>
<trkpt lat="49.058804931119084" lon="8.978912942111492">
<ele>212.39999999999998</ele>
<time>2023-05-17T09:30:13Z</time>
</trkpt>
<trkpt lat="49.05877199023962" lon="8.978846976533532">
<ele>212.39999999999998</ele>
<time>2023-05-17T09:30:14Z</time>
</trkpt>
<trkpt lat="49.058739971369505" lon="8.978784950450063">
<ele>212.39999999999998</ele>
<time>2023-05-17T09:30:15Z</time>
</trkpt>
<trkpt lat="49.05870493501425" lon="8.978726947680116">
<ele>212.39999999999998</ele>
<time>2023-05-17T09:30:16Z</time>
</trkpt>
<trkpt lat="49.05866998247802" lon="8.978667939081788">
<ele>212.39999999999998</ele>
<time>2023-05-17T09:30:17Z</time>
</trkpt>
<trkpt lat="49.058634946122766" lon="8.978612953796983">
<ele>212.20000000000005</ele>
<time>2023-05-17T09:30:18Z</time>
</trkpt>
<trkpt lat="49.05860192142427" lon="8.978559980168939">
<ele>212.20000000000005</ele>
<time>2023-05-17T09:30:19Z</time>
</trkpt>
<trkpt lat="49.058569986373186" lon="8.978507928550243">
<ele>212.20000000000005</ele>
<time>2023-05-17T09:30:20Z</time>
</trkpt>
<trkpt lat="49.05853997915983" lon="8.978457972407341">
<ele>212.20000000000005</ele>
<time>2023-05-17T09:30:21Z</time>
</trkpt>
<trkpt lat="49.05850997194648" lon="8.978407932445407">
<ele>212.39999999999998</ele>
<time>2023-05-17T09:30:22Z</time>
</trkpt>
<trkpt lat="49.058481976389885" lon="8.978356970474124">
<ele>212.39999999999998</ele>
<time>2023-05-17T09:30:23Z</time>
</trkpt>
<trkpt lat="49.05845196917653" lon="8.978299973532557">
<ele>212.39999999999998</ele>
<time>2023-05-17T09:30:24Z</time>
</trkpt>
<trkpt lat="49.05842296779156" lon="8.97823995910585">
<ele>212.39999999999998</ele>
<time>2023-05-17T09:30:25Z</time>
</trkpt>
<trkpt lat="49.0584069583565" lon="8.978169970214367">
<ele>212.39999999999998</ele>
<time>2023-05-17T09:30:26Z</time>
</trkpt>
<trkpt lat="49.058397989720106" lon="8.978097969666123">
<ele>212.39999999999998</ele>
<time>2023-05-17T09:30:27Z</time>
</trkpt>
<trkpt lat="49.058399917557836" lon="8.978022951632738">
<ele>212.39999999999998</ele>
<time>2023-05-17T09:30:28Z</time>
</trkpt>
<trkpt lat="49.0584119874984" lon="8.977944999933243">
<ele>212.39999999999998</ele>
<time>2023-05-17T09:30:29Z</time>
</trkpt>
<trkpt lat="49.05842992477119" lon="8.977861935272813">
<ele>212.39999999999998</ele>
<time>2023-05-17T09:30:30Z</time>
</trkpt>
<trkpt lat="49.05844694003463" lon="8.977776942774653">
<ele>212.39999999999998</ele>
<time>2023-05-17T09:30:31Z</time>
</trkpt>
<trkpt lat="49.05846496112645" lon="8.977691950276494">
<ele>212.39999999999998</ele>
<time>2023-05-17T09:30:32Z</time>
</trkpt>
<trkpt lat="49.058486921712756" lon="8.977606957778335">
<ele>212.39999999999998</ele>
<time>2023-05-17T09:30:33Z</time>
</trkpt>
<trkpt lat="49.05851198360324" lon="8.977521965280175">
<ele>212.39999999999998</ele>
<time>2023-05-17T09:30:34Z</time>
</trkpt>
<trkpt lat="49.058542996644974" lon="8.977441918104887">
<ele>212.39999999999998</ele>
<time>2023-05-17T09:30:35Z</time>
</trkpt>
<trkpt lat="49.05858691781759" lon="8.977376958355308">
<ele>212.39999999999998</ele>
<time>2023-05-17T09:30:36Z</time>
</trkpt>
<trkpt lat="49.05863796360791" lon="8.977327924221754">
<ele>212.39999999999998</ele>
<time>2023-05-17T09:30:37Z</time>
</trkpt>
<trkpt lat="49.05868993140757" lon="8.977299928665161">
<ele>212.39999999999998</ele>
<time>2023-05-17T09:30:38Z</time>
</trkpt>
<trkpt lat="49.058741983026266" lon="8.977284925058484">
<ele>212.39999999999998</ele>
<time>2023-05-17T09:30:39Z</time>
</trkpt>
<trkpt lat="49.05879193916917" lon="8.977282997220755">
<ele>212.39999999999998</ele>
<time>2023-05-17T09:30:40Z</time>
</trkpt>
<trkpt lat="49.058847930282354" lon="8.977282997220755">
<ele>212.20000000000005</ele>
<time>2023-05-17T09:30:41Z</time>
</trkpt>
<trkpt lat="49.05890492722392" lon="8.977287942543626">
<ele>212.20000000000005</ele>
<time>2023-05-17T09:30:42Z</time>
</trkpt>
<trkpt lat="49.05895999632776" lon="8.9772979170084">
<ele>212</ele>
<time>2023-05-17T09:30:43Z</time>
</trkpt>
<trkpt lat="49.059017999097705" lon="8.977312920615077">
<ele>212</ele>
<time>2023-05-17T09:30:44Z</time>
</trkpt>
<trkpt lat="49.05907792970538" lon="8.977329935878515">
<ele>211.79999999999995</ele>
<time>2023-05-17T09:30:45Z</time>
</trkpt>
<trkpt lat="49.05913794413209" lon="8.977347956970334">
<ele>211.60000000000002</ele>
<time>2023-05-17T09:30:46Z</time>
</trkpt>
<trkpt lat="49.05919695273042" lon="8.977364972233772">
<ele>211.60000000000002</ele>
<time>2023-05-17T09:30:47Z</time>
</trkpt>
<trkpt lat="49.059254955500364" lon="8.977377964183688">
<ele>211.39999999999998</ele>
<time>2023-05-17T09:30:48Z</time>
</trkpt>
<trkpt lat="49.05931195244193" lon="8.977391961961985">
<ele>211.20000000000005</ele>
<time>2023-05-17T09:30:49Z</time>
</trkpt>
<trkpt lat="49.059366937726736" lon="8.97740294225514">
<ele>211</ele>
<time>2023-05-17T09:30:50Z</time>
</trkpt>
<trkpt lat="49.05941999517381" lon="8.977409983053803">
<ele>211</ele>
<time>2023-05-17T09:30:51Z</time>
</trkpt>
<trkpt lat="49.05947498045862" lon="8.977412916719913">
<ele>210.79999999999995</ele>
<time>2023-05-17T09:30:52Z</time>
</trkpt>
<trkpt lat="49.05952795408666" lon="8.977414928376675">
<ele>210.79999999999995</ele>
<time>2023-05-17T09:30:53Z</time>
</trkpt>
<trkpt lat="49.059581933543086" lon="8.977414928376675">
<ele>210.60000000000002</ele>
<time>2023-05-17T09:30:54Z</time>
</trkpt>
<trkpt lat="49.0596329793334" lon="8.977409983053803">
<ele>210.60000000000002</ele>
<time>2023-05-17T09:30:55Z</time>
</trkpt>
<trkpt lat="49.0596829354763" lon="8.977401936426759">
<ele>210.60000000000002</ele>
<time>2023-05-17T09:30:56Z</time>
</trkpt>
<trkpt lat="49.05973297543824" lon="8.977386932820082">
<ele>210.39999999999998</ele>
<time>2023-05-17T09:30:57Z</time>
</trkpt>
<trkpt lat="49.05978695489466" lon="8.977362960577011">
<ele>210.39999999999998</ele>
<time>2023-05-17T09:30:58Z</time>
</trkpt>
<trkpt lat="49.059839928522706" lon="8.977339994162321">
<ele>210.39999999999998</ele>
<time>2023-05-17T09:30:59Z</time>
</trkpt>
<trkpt lat="49.0598869509995" lon="8.977311998605728">
<ele>210.39999999999998</ele>
<time>2023-05-17T09:31:00Z</time>
</trkpt>
<trkpt lat="49.059922993183136" lon="8.977277968078852">
<ele>210.20000000000005</ele>
<time>2023-05-17T09:31:01Z</time>
</trkpt>
<trkpt lat="49.05995199456811" lon="8.977239998057485">
<ele>210.20000000000005</ele>
<time>2023-05-17T09:31:02Z</time>
</trkpt>
<trkpt lat="49.05998191796243" lon="8.977197920903563">
<ele>210.20000000000005</ele>
<time>2023-05-17T09:31:03Z</time>
</trkpt>
<trkpt lat="49.060006979852915" lon="8.97714494727552">
<ele>210.20000000000005</ele>
<time>2023-05-17T09:31:04Z</time>
</trkpt>
<trkpt lat="49.06003799289465" lon="8.977099936455488">
<ele>210.20000000000005</ele>
<time>2023-05-17T09:31:05Z</time>
</trkpt>
<trkpt lat="49.06006498262286" lon="8.977056937292218">
<ele>210</ele>
<time>2023-05-17T09:31:06Z</time>
</trkpt>
<trkpt lat="49.060092978179455" lon="8.977021984755993">
<ele>210</ele>
<time>2023-05-17T09:31:07Z</time>
</trkpt>
<trkpt lat="49.06012499704957" lon="8.976987954229116">
<ele>210</ele>
<time>2023-05-17T09:31:08Z</time>
</trkpt>
<trkpt lat="49.060156932100654" lon="8.97695291787386">
<ele>209.79999999999995</ele>
<time>2023-05-17T09:31:09Z</time>
</trkpt>
<trkpt lat="49.06018693931401" lon="8.976916959509254">
<ele>209.79999999999995</ele>
<time>2023-05-17T09:31:10Z</time>
</trkpt>
<trkpt lat="49.060221975669265" lon="8.976877983659506">
<ele>209.79999999999995</ele>
<time>2023-05-17T09:31:11Z</time>
</trkpt>
<trkpt lat="49.06025491654873" lon="8.976839929819107">
<ele>209.79999999999995</ele>
<time>2023-05-17T09:31:12Z</time>
</trkpt>
<trkpt lat="49.060286935418844" lon="8.976796930655837">
<ele>209.79999999999995</ele>
<time>2023-05-17T09:31:13Z</time>
</trkpt>
<trkpt lat="49.060312919318676" lon="8.976742951199412">
<ele>209.79999999999995</ele>
<time>2023-05-17T09:31:14Z</time>
</trkpt>
<trkpt lat="49.06032792292535" lon="8.976679919287562">
<ele>209.60000000000002</ele>
<time>2023-05-17T09:31:15Z</time>
</trkpt>
<trkpt lat="49.060331946238875" lon="8.976614959537983">
<ele>209.60000000000002</ele>
<time>2023-05-17T09:31:16Z</time>
</trkpt>
<trkpt lat="49.060332952067256" lon="8.97654295898974">
<ele>209.60000000000002</ele>
<time>2023-05-17T09:31:17Z</time>
</trkpt>
<trkpt lat="49.06033496372402" lon="8.976464923471212">
<ele>209.60000000000002</ele>
<time>2023-05-17T09:31:18Z</time>
</trkpt>
<trkpt lat="49.06033999286592" lon="8.976379930973053">
<ele>209.60000000000002</ele>
<time>2023-05-17T09:31:19Z</time>
</trkpt>
<trkpt lat="49.06034795567393" lon="8.976292926818132">
<ele>209.60000000000002</ele>
<time>2023-05-17T09:31:20Z</time>
</trkpt>
<trkpt lat="49.0603549964726" lon="8.976214975118637">
<ele>209.60000000000002</ele>
<time>2023-05-17T09:31:21Z</time>
</trkpt>
<trkpt lat="49.06036295928061" lon="8.976132916286588">
<ele>209.60000000000002</ele>
<time>2023-05-17T09:31:22Z</time>
</trkpt>
<trkpt lat="49.060372933745384" lon="8.976047923788428">
<ele>209.79999999999995</ele>
<time>2023-05-17T09:31:23Z</time>
</trkpt>
<trkpt lat="49.06037997454405" lon="8.97596494294703">
<ele>209.79999999999995</ele>
<time>2023-05-17T09:31:24Z</time>
</trkpt>
<trkpt lat="49.06038299202919" lon="8.975881962105632">
<ele>209.79999999999995</ele>
<time>2023-05-17T09:31:25Z</time>
</trkpt>
<trkpt lat="49.06038994900882" lon="8.975797975435853">
<ele>209.79999999999995</ele>
<time>2023-05-17T09:31:26Z</time>
</trkpt>
<trkpt lat="49.060392966493964" lon="8.975716922432184">
<ele>209.79999999999995</ele>
<time>2023-05-17T09:31:27Z</time>
</trkpt>
<trkpt lat="49.0603999234736" lon="8.975632935762405">
<ele>209.79999999999995</ele>
<time>2023-05-17T09:31:28Z</time>
</trkpt>
<trkpt lat="49.06040797010064" lon="8.975551966577768">
<ele>210</ele>
<time>2023-05-17T09:31:29Z</time>
</trkpt>
<trkpt lat="49.060411993414164" lon="8.97547191940248">
<ele>210</ele>
<time>2023-05-17T09:31:30Z</time>
</trkpt>
<trkpt lat="49.06042196787894" lon="8.975389944389462">
<ele>210</ele>
<time>2023-05-17T09:31:31Z</time>
</trkpt>
<trkpt lat="49.06042791903019" lon="8.975314926356077">
<ele>210.20000000000005</ele>
<time>2023-05-17T09:31:32Z</time>
</trkpt>
<trkpt lat="49.060434959828854" lon="8.975229933857918">
<ele>210.20000000000005</ele>
<time>2023-05-17T09:31:33Z</time>
</trkpt>
<trkpt lat="49.060437977313995" lon="8.9751479588449">
<ele>210.20000000000005</ele>
<time>2023-05-17T09:31:34Z</time>
</trkpt>
<trkpt lat="49.06044795177877" lon="8.97506196051836">
<ele>210.39999999999998</ele>
<time>2023-05-17T09:31:35Z</time>
</trkpt>
<trkpt lat="49.060457926243544" lon="8.9749769680202">
<ele>210.39999999999998</ele>
<time>2023-05-17T09:31:36Z</time>
</trkpt>
<trkpt lat="49.06046798452735" lon="8.97488996386528">
<ele>210.39999999999998</ele>
<time>2023-05-17T09:31:37Z</time>
</trkpt>
<trkpt lat="49.06047494150698" lon="8.974809916689992">
<ele>210.39999999999998</ele>
<time>2023-05-17T09:31:38Z</time>
</trkpt>
<trkpt lat="49.060479970648885" lon="8.974729953333735">
<ele>210.39999999999998</ele>
<time>2023-05-17T09:31:39Z</time>
</trkpt>
<trkpt lat="49.06048994511366" lon="8.974649989977479">
<ele>210.39999999999998</ele>
<time>2023-05-17T09:31:40Z</time>
</trkpt>
<trkpt lat="49.0604929625988" lon="8.974571954458952">
<ele>210.39999999999998</ele>
<time>2023-05-17T09:31:41Z</time>
</trkpt>
<trkpt lat="49.06049698591232" lon="8.974487967789173">
<ele>210.39999999999998</ele>
<time>2023-05-17T09:31:42Z</time>
</trkpt>
<trkpt lat="49.060504948720336" lon="8.974402975291014">
<ele>210.39999999999998</ele>
<time>2023-05-17T09:31:43Z</time>
</trkpt>
<trkpt lat="49.06051492318511" lon="8.974319994449615">
<ele>210.20000000000005</ele>
<time>2023-05-17T09:31:44Z</time>
</trkpt>
<trkpt lat="49.06051995232701" lon="8.974237935617566">
<ele>210.20000000000005</ele>
<time>2023-05-17T09:31:45Z</time>
</trkpt>
<trkpt lat="49.060521963983774" lon="8.97415797226131">
<ele>210.20000000000005</ele>
<time>2023-05-17T09:31:46Z</time>
</trkpt>
<trkpt lat="49.060524981468916" lon="8.974081948399544">
<ele>210.20000000000005</ele>
<time>2023-05-17T09:31:47Z</time>
</trkpt>
<trkpt lat="49.06053294427693" lon="8.974007936194539">
<ele>210</ele>
<time>2023-05-17T09:31:48Z</time>
</trkpt>
<trkpt lat="49.06053998507559" lon="8.973937947303057">
<ele>210</ele>
<time>2023-05-17T09:31:49Z</time>
</trkpt>
<trkpt lat="49.060546942055225" lon="8.973867958411574">
<ele>210</ele>
<time>2023-05-17T09:31:50Z</time>
</trkpt>
<trkpt lat="49.06055197119713" lon="8.973804926499724">
<ele>210</ele>
<time>2023-05-17T09:31:51Z</time>
</trkpt>
<trkpt lat="49.06055498868227" lon="8.973741978406906">
<ele>209.79999999999995</ele>
<time>2023-05-17T09:31:52Z</time>
</trkpt>
<trkpt lat="49.06055197119713" lon="8.973679952323437">
<ele>209.79999999999995</ele>
<time>2023-05-17T09:31:53Z</time>
</trkpt>
<trkpt lat="49.0605429187417" lon="8.973626978695393">
<ele>209.79999999999995</ele>
<time>2023-05-17T09:31:54Z</time>
</trkpt>
<trkpt lat="49.06052699312568" lon="8.973577944561839">
<ele>209.79999999999995</ele>
<time>2023-05-17T09:31:55Z</time>
</trkpt>
<trkpt lat="49.060501931235194" lon="8.973539974540472">
<ele>209.79999999999995</ele>
<time>2023-05-17T09:31:56Z</time>
</trkpt>
<trkpt lat="49.06046999618411" lon="8.973511978983879">
<ele>209.79999999999995</ele>
<time>2023-05-17T09:31:57Z</time>
</trkpt>
<trkpt lat="49.060434959828854" lon="8.973491946235299">
<ele>209.79999999999995</ele>
<time>2023-05-17T09:31:58Z</time>
</trkpt>
<trkpt lat="49.060394978150725" lon="8.973476942628622">
<ele>209.79999999999995</ele>
<time>2023-05-17T09:31:59Z</time>
</trkpt>
<trkpt lat="49.060352984815836" lon="8.973464956507087">
<ele>209.79999999999995</ele>
<time>2023-05-17T09:32:00Z</time>
</trkpt>
<trkpt lat="49.060309985652566" lon="8.97345196455717">
<ele>210</ele>
<time>2023-05-17T09:32:01Z</time>
</trkpt>
<trkpt lat="49.060264974832535" lon="8.973436960950494">
<ele>210</ele>
<time>2023-05-17T09:32:02Z</time>
</trkpt>
<trkpt lat="49.060222981497645" lon="8.973419945687056">
<ele>210</ele>
<time>2023-05-17T09:32:03Z</time>
</trkpt>
<trkpt lat="49.06018693931401" lon="8.973402930423617">
<ele>210.20000000000005</ele>
<time>2023-05-17T09:32:04Z</time>
</trkpt>
<trkpt lat="49.06014997512102" lon="8.973392955958843">
<ele>210.39999999999998</ele>
<time>2023-05-17T09:32:05Z</time>
</trkpt>
<trkpt lat="49.060116950422525" lon="8.97338499315083">
<ele>210.39999999999998</ele>
<time>2023-05-17T09:32:06Z</time>
</trkpt>
<trkpt lat="49.06008694320917" lon="8.973376946523786">
<ele>210.60000000000002</ele>
<time>2023-05-17T09:32:07Z</time>
</trkpt>
<trkpt lat="49.06005693599582" lon="8.973361942917109">
<ele>210.79999999999995</ele>
<time>2023-05-17T09:32:08Z</time>
</trkpt>
<trkpt lat="49.060029946267605" lon="8.973334953188896">
<ele>210.79999999999995</ele>
<time>2023-05-17T09:32:09Z</time>
</trkpt>
<trkpt lat="49.06001293100417" lon="8.973294971510768">
<ele>211</ele>
<time>2023-05-17T09:32:10Z</time>
</trkpt>
<trkpt lat="49.060007985681295" lon="8.973239986225963">
<ele>211.20000000000005</ele>
<time>2023-05-17T09:32:11Z</time>
</trkpt>
<trkpt lat="49.06001695431769" lon="8.973179971799254">
<ele>211.20000000000005</ele>
<time>2023-05-17T09:32:12Z</time>
</trkpt>
<trkpt lat="49.060031957924366" lon="8.973114928230643">
<ele>211.20000000000005</ele>
<time>2023-05-17T09:32:13Z</time>
</trkpt>
<trkpt lat="49.06004696153104" lon="8.973037982359529">
<ele>211.20000000000005</ele>
<time>2023-05-17T09:32:14Z</time>
</trkpt>
<trkpt lat="49.06005693599582" lon="8.972959946841002">
<ele>211.20000000000005</ele>
<time>2023-05-17T09:32:15Z</time>
</trkpt>
<trkpt lat="49.06006791628897" lon="8.972881995141506">
<ele>211.20000000000005</ele>
<time>2023-05-17T09:32:16Z</time>
</trkpt>
<trkpt lat="49.06007998622954" lon="8.972806977108121">
<ele>211.20000000000005</ele>
<time>2023-05-17T09:32:17Z</time>
</trkpt>
<trkpt lat="49.060091972351074" lon="8.972732964903116">
<ele>211.20000000000005</ele>
<time>2023-05-17T09:32:18Z</time>
</trkpt>
<trkpt lat="49.06010496430099" lon="8.972659958526492">
<ele>211.20000000000005</ele>
<time>2023-05-17T09:32:19Z</time>
</trkpt>
<trkpt lat="49.060114938765764" lon="8.972582928836346">
<ele>211.20000000000005</ele>
<time>2023-05-17T09:32:20Z</time>
</trkpt>
<trkpt lat="49.0601269248873" lon="8.972506988793612">
<ele>211.20000000000005</ele>
<time>2023-05-17T09:32:21Z</time>
</trkpt>
<trkpt lat="49.060134971514344" lon="8.972432976588607">
<ele>211.20000000000005</ele>
<time>2023-05-17T09:32:22Z</time>
</trkpt>
<trkpt lat="49.06014293432236" lon="8.972357958555222">
<ele>211.20000000000005</ele>
<time>2023-05-17T09:32:23Z</time>
</trkpt>
<trkpt lat="49.06014997512102" lon="8.972286963835359">
<ele>211.20000000000005</ele>
<time>2023-05-17T09:32:24Z</time>
</trkpt>
<trkpt lat="49.06015492044389" lon="8.972207922488451">
<ele>211.20000000000005</ele>
<time>2023-05-17T09:32:25Z</time>
</trkpt>
<trkpt lat="49.06015492044389" lon="8.972129970788956">
<ele>211.20000000000005</ele>
<time>2023-05-17T09:32:26Z</time>
</trkpt>
<trkpt lat="49.06015492044389" lon="8.972056964412332">
<ele>211.20000000000005</ele>
<time>2023-05-17T09:32:27Z</time>
</trkpt>
<trkpt lat="49.06015492044389" lon="8.971981946378946">
<ele>211.20000000000005</ele>
<time>2023-05-17T09:32:28Z</time>
</trkpt>
<trkpt lat="49.06015492044389" lon="8.9719049166888">
<ele>211.20000000000005</ele>
<time>2023-05-17T09:32:29Z</time>
</trkpt>
<trkpt lat="49.06015492044389" lon="8.971829982474446">
<ele>211.20000000000005</ele>
<time>2023-05-17T09:32:30Z</time>
</trkpt>
<trkpt lat="49.06015299260616" lon="8.9717529527843">
<ele>211.20000000000005</ele>
<time>2023-05-17T09:32:31Z</time>
</trkpt>
<trkpt lat="49.06014796346426" lon="8.971677934750915">
<ele>211.20000000000005</ele>
<time>2023-05-17T09:32:32Z</time>
</trkpt>
<trkpt lat="49.06014695763588" lon="8.97160291671753">
<ele>211.20000000000005</ele>
<time>2023-05-17T09:32:33Z</time>
</trkpt>
<trkpt lat="49.06014293432236" lon="8.971527982503176">
<ele>211</ele>
<time>2023-05-17T09:32:34Z</time>
</trkpt>
<trkpt lat="49.060139916837215" lon="8.97145195864141">
<ele>211</ele>
<time>2023-05-17T09:32:35Z</time>
</trkpt>
<trkpt lat="49.060136983171105" lon="8.971374928951263">
<ele>211</ele>
<time>2023-05-17T09:32:36Z</time>
</trkpt>
<trkpt lat="49.0601319540292" lon="8.971296977251768">
<ele>211</ele>
<time>2023-05-17T09:32:37Z</time>
</trkpt>
<trkpt lat="49.06012298539281" lon="8.97121693007648">
<ele>211</ele>
<time>2023-05-17T09:32:38Z</time>
</trkpt>
<trkpt lat="49.060116950422525" lon="8.971139984205365">
<ele>211</ele>
<time>2023-05-17T09:32:39Z</time>
</trkpt>
<trkpt lat="49.06010999344289" lon="8.97106496617198">
<ele>211</ele>
<time>2023-05-17T09:32:40Z</time>
</trkpt>
<trkpt lat="49.06010496430099" lon="8.970989948138595">
<ele>211</ele>
<time>2023-05-17T09:32:41Z</time>
</trkpt>
<trkpt lat="49.06009993515909" lon="8.97091493010521">
<ele>211</ele>
<time>2023-05-17T09:32:42Z</time>
</trkpt>
<trkpt lat="49.060094989836216" lon="8.970841923728585">
<ele>211</ele>
<time>2023-05-17T09:32:43Z</time>
</trkpt>
<trkpt lat="49.060091972351074" lon="8.970772940665483">
<ele>211.20000000000005</ele>
<time>2023-05-17T09:32:44Z</time>
</trkpt>
<trkpt lat="49.06008291989565" lon="8.970704963430762">
<ele>211.20000000000005</ele>
<time>2023-05-17T09:32:45Z</time>
</trkpt>
<trkpt lat="49.06007797457278" lon="8.970639919862151">
<ele>211.20000000000005</ele>
<time>2023-05-17T09:32:46Z</time>
</trkpt>
<trkpt lat="49.060071939602494" lon="8.970576971769333">
<ele>211.20000000000005</ele>
<time>2023-05-17T09:32:47Z</time>
</trkpt>
<trkpt lat="49.06006699427962" lon="8.970519974827766">
<ele>211.20000000000005</ele>
<time>2023-05-17T09:32:48Z</time>
</trkpt>
<trkpt lat="49.06006196513772" lon="8.970467923209071">
<ele>211.20000000000005</ele>
<time>2023-05-17T09:32:49Z</time>
</trkpt>
<trkpt lat="49.06005693599582" lon="8.97041997872293">
<ele>211.20000000000005</ele>
<time>2023-05-17T09:32:50Z</time>
</trkpt>
<trkpt lat="49.06005299650133" lon="8.970371950417757">
<ele>211.39999999999998</ele>
<time>2023-05-17T09:32:51Z</time>
</trkpt>
<trkpt lat="49.060051990672946" lon="8.970326939597726">
<ele>211.39999999999998</ele>
<time>2023-05-17T09:32:52Z</time>
</trkpt>
<trkpt lat="49.06005299650133" lon="8.970282934606075">
<ele>211.39999999999998</ele>
<time>2023-05-17T09:32:53Z</time>
</trkpt>
<trkpt lat="49.060049979016185" lon="8.970234990119934">
<ele>211.39999999999998</ele>
<time>2023-05-17T09:32:54Z</time>
</trkpt>
<trkpt lat="49.060047967359424" lon="8.970179921016097">
<ele>211.39999999999998</ele>
<time>2023-05-17T09:32:55Z</time>
</trkpt>
<trkpt lat="49.06004494987428" lon="8.97012191824615">
<ele>211.39999999999998</ele>
<time>2023-05-17T09:32:56Z</time>
</trkpt>
<trkpt lat="49.06004293821752" lon="8.970061987638474">
<ele>211.39999999999998</ele>
<time>2023-05-17T09:32:57Z</time>
</trkpt>
<trkpt lat="49.06003992073238" lon="8.969994932413101">
<ele>211.39999999999998</ele>
<time>2023-05-17T09:32:58Z</time>
</trkpt>
<trkpt lat="49.06003497540951" lon="8.96992695517838">
<ele>211.60000000000002</ele>
<time>2023-05-17T09:32:59Z</time>
</trkpt>
<trkpt lat="49.060029946267605" lon="8.969854954630136">
<ele>211.60000000000002</ele>
<time>2023-05-17T09:33:00Z</time>
</trkpt>
<trkpt lat="49.06001997180283" lon="8.969782954081893">
<ele>211.60000000000002</ele>
<time>2023-05-17T09:33:01Z</time>
</trkpt>
<trkpt lat="49.060004968196154" lon="8.96971195936203">
<ele>211.60000000000002</ele>
<time>2023-05-17T09:33:02Z</time>
</trkpt>
<trkpt lat="49.05998996458948" lon="8.969637947157025">
<ele>211.60000000000002</ele>
<time>2023-05-17T09:33:03Z</time>
</trkpt>
<trkpt lat="49.0599699318409" lon="8.969564940780401">
<ele>211.60000000000002</ele>
<time>2023-05-17T09:33:04Z</time>
</trkpt>
<trkpt lat="49.05994696542621" lon="8.969491934403777">
<ele>211.60000000000002</ele>
<time>2023-05-17T09:33:05Z</time>
</trkpt>
<trkpt lat="49.059919975697994" lon="8.969419933855534">
<ele>211.60000000000002</ele>
<time>2023-05-17T09:33:06Z</time>
</trkpt>
<trkpt lat="49.05989692546427" lon="8.96934692747891">
<ele>211.60000000000002</ele>
<time>2023-05-17T09:33:07Z</time>
</trkpt>
<trkpt lat="49.05987194739282" lon="8.969276938587427">
<ele>211.60000000000002</ele>
<time>2023-05-17T09:33:08Z</time>
</trkpt>
<trkpt lat="49.05984696932137" lon="8.969204938039184">
<ele>211.79999999999995</ele>
<time>2023-05-17T09:33:09Z</time>
</trkpt>
<trkpt lat="49.05981997959316" lon="8.969136960804462">
<ele>211.79999999999995</ele>
<time>2023-05-17T09:33:10Z</time>
</trkpt>
<trkpt lat="49.059792989864945" lon="8.969064960256219">
<ele>211.79999999999995</ele>
<time>2023-05-17T09:33:11Z</time>
</trkpt>
<trkpt lat="49.05976692214608" lon="8.968996983021498">
<ele>211.79999999999995</ele>
<time>2023-05-17T09:33:12Z</time>
</trkpt>
<trkpt lat="49.05973699875176" lon="8.968929927796125">
<ele>212</ele>
<time>2023-05-17T09:33:13Z</time>
</trkpt>
<trkpt lat="49.059706991538405" lon="8.968862956389785">
<ele>212</ele>
<time>2023-05-17T09:33:14Z</time>
</trkpt>
<trkpt lat="49.05967799015343" lon="8.968797996640205">
<ele>212.20000000000005</ele>
<time>2023-05-17T09:33:15Z</time>
</trkpt>
<trkpt lat="49.05964999459684" lon="8.968732953071594">
<ele>212.39999999999998</ele>
<time>2023-05-17T09:33:16Z</time>
</trkpt>
<trkpt lat="49.059622921049595" lon="8.968666987493634">
<ele>212.39999999999998</ele>
<time>2023-05-17T09:33:17Z</time>
</trkpt>
<trkpt lat="49.05959693714976" lon="8.968601943925023">
<ele>212.60000000000002</ele>
<time>2023-05-17T09:33:18Z</time>
</trkpt>
<trkpt lat="49.05956994742155" lon="8.968534972518682">
<ele>212.60000000000002</ele>
<time>2023-05-17T09:33:19Z</time>
</trkpt>
<trkpt lat="49.05954195186496" lon="8.968469928950071">
<ele>212.79999999999995</ele>
<time>2023-05-17T09:33:20Z</time>
</trkpt>
<trkpt lat="49.059514962136745" lon="8.968404969200492">
<ele>213</ele>
<time>2023-05-17T09:33:21Z</time>
</trkpt>
<trkpt lat="49.05948696658015" lon="8.968344954773784">
<ele>213</ele>
<time>2023-05-17T09:33:22Z</time>
</trkpt>
<trkpt lat="49.05945997685194" lon="8.968282928690314">
<ele>213.20000000000005</ele>
<time>2023-05-17T09:33:23Z</time>
</trkpt>
<trkpt lat="49.05943298712373" lon="8.968222998082638">
<ele>213.39999999999998</ele>
<time>2023-05-17T09:33:24Z</time>
</trkpt>
<trkpt lat="49.059407925233245" lon="8.968161977827549">
<ele>213.39999999999998</ele>
<time>2023-05-17T09:33:25Z</time>
</trkpt>
<trkpt lat="49.059382947161794" lon="8.968097940087318">
<ele>213.60000000000002</ele>
<time>2023-05-17T09:33:26Z</time>
</trkpt>
<trkpt lat="49.059361992403865" lon="8.96803691983223">
<ele>213.79999999999995</ele>
<time>2023-05-17T09:33:27Z</time>
</trkpt>
<trkpt lat="49.059339947998524" lon="8.967974977567792">
<ele>214</ele>
<time>2023-05-17T09:33:28Z</time>
</trkpt>
<trkpt lat="49.059319999068975" lon="8.967911945655942">
<ele>214</ele>
<time>2023-05-17T09:33:29Z</time>
</trkpt>
<trkpt lat="49.059297954663634" lon="8.967851931229234">
<ele>214.20000000000005</ele>
<time>2023-05-17T09:33:30Z</time>
</trkpt>
<trkpt lat="49.059276999905705" lon="8.967792922630906">
<ele>214.39999999999998</ele>
<time>2023-05-17T09:33:31Z</time>
</trkpt>
<trkpt lat="49.059256967157125" lon="8.96773299202323">
<ele>214.60000000000002</ele>
<time>2023-05-17T09:33:32Z</time>
</trkpt>
<trkpt lat="49.059236934408545" lon="8.967672977596521">
<ele>214.60000000000002</ele>
<time>2023-05-17T09:33:33Z</time>
</trkpt>
<trkpt lat="49.059216985479" lon="8.967611957341433">
<ele>214.79999999999995</ele>
<time>2023-05-17T09:33:34Z</time>
</trkpt>
<trkpt lat="49.05919695273042" lon="8.967547919601202">
<ele>215</ele>
<time>2023-05-17T09:33:35Z</time>
</trkpt>
<trkpt lat="49.05917691998184" lon="8.967484971508384">
<ele>215.20000000000005</ele>
<time>2023-05-17T09:33:36Z</time>
</trkpt>
<trkpt lat="49.05916191637516" lon="8.967422945424914">
<ele>215.20000000000005</ele>
<time>2023-05-17T09:33:37Z</time>
</trkpt>
<trkpt lat="49.059144984930754" lon="8.967361925169826">
<ele>215.39999999999998</ele>
<time>2023-05-17T09:33:38Z</time>
</trkpt>
<trkpt lat="49.059127969667315" lon="8.967301994562149">
<ele>215.60000000000002</ele>
<time>2023-05-17T09:33:39Z</time>
</trkpt>
<trkpt lat="49.05911296606064" lon="8.96724198013544">
<ele>215.79999999999995</ele>
<time>2023-05-17T09:33:40Z</time>
</trkpt>
<trkpt lat="49.05909997411072" lon="8.967181965708733">
<ele>216</ele>
<time>2023-05-17T09:33:41Z</time>
</trkpt>
<trkpt lat="49.05908698216081" lon="8.967119939625263">
<ele>216</ele>
<time>2023-05-17T09:33:42Z</time>
</trkpt>
<trkpt lat="49.05907298438251" lon="8.967057997360826">
<ele>216.20000000000005</ele>
<time>2023-05-17T09:33:43Z</time>
</trkpt>
<trkpt lat="49.059061920270324" lon="8.966991947963834">
<ele>216.39999999999998</ele>
<time>2023-05-17T09:33:44Z</time>
</trkpt>
<trkpt lat="49.05904691666365" lon="8.966921959072351">
<ele>216.39999999999998</ele>
<time>2023-05-17T09:33:45Z</time>
</trkpt>
<trkpt lat="49.05903291888535" lon="8.966857921332121">
<ele>216.60000000000002</ele>
<time>2023-05-17T09:33:46Z</time>
</trkpt>
<trkpt lat="49.059021938592196" lon="8.966792961582541">
<ele>216.79999999999995</ele>
<time>2023-05-17T09:33:47Z</time>
</trkpt>
<trkpt lat="49.05900995247066" lon="8.966729929670691">
<ele>216.79999999999995</ele>
<time>2023-05-17T09:33:48Z</time>
</trkpt>
<trkpt lat="49.058997966349125" lon="8.966666981577873">
<ele>217</ele>
<time>2023-05-17T09:33:49Z</time>
</trkpt>
<trkpt lat="49.05898799188435" lon="8.966602943837643">
<ele>217</ele>
<time>2023-05-17T09:33:50Z</time>
</trkpt>
<trkpt lat="49.058977933600545" lon="8.966544941067696">
<ele>217.20000000000005</ele>
<time>2023-05-17T09:33:51Z</time>
</trkpt>
<trkpt lat="49.05896997079253" lon="8.966486938297749">
<ele>217.20000000000005</ele>
<time>2023-05-17T09:33:52Z</time>
</trkpt>
<trkpt lat="49.05896292999387" lon="8.966431953012943">
<ele>217.39999999999998</ele>
<time>2023-05-17T09:33:53Z</time>
</trkpt>
<trkpt lat="49.058956978842616" lon="8.966371938586235">
<ele>217.39999999999998</ele>
<time>2023-05-17T09:33:54Z</time>
</trkpt>
<trkpt lat="49.05894792638719" lon="8.966312929987907">
<ele>217.60000000000002</ele>
<time>2023-05-17T09:33:55Z</time>
</trkpt>
<trkpt lat="49.05894197523594" lon="8.966257944703102">
<ele>217.60000000000002</ele>
<time>2023-05-17T09:33:56Z</time>
</trkpt>
<trkpt lat="49.058932922780514" lon="8.966196924448013">
<ele>217.79999999999995</ele>
<time>2023-05-17T09:33:57Z</time>
</trkpt>
<trkpt lat="49.05892294831574" lon="8.966134982183576">
<ele>218</ele>
<time>2023-05-17T09:33:58Z</time>
</trkpt>
<trkpt lat="49.05891498550773" lon="8.966074967756867">
<ele>218</ele>
<time>2023-05-17T09:33:59Z</time>
</trkpt>
<trkpt lat="49.05890794470906" lon="8.966009924188256">
<ele>218.20000000000005</ele>
<time>2023-05-17T09:34:00Z</time>
</trkpt>
<trkpt lat="49.05890199355781" lon="8.965941946953535">
<ele>218.20000000000005</ele>
<time>2023-05-17T09:34:01Z</time>
</trkpt>
<trkpt lat="49.058892941102386" lon="8.965879920870066">
<ele>218.20000000000005</ele>
<time>2023-05-17T09:34:02Z</time>
</trkpt>
<trkpt lat="49.058886989951134" lon="8.965814961120486">
<ele>218.39999999999998</ele>
<time>2023-05-17T09:34:03Z</time>
</trkpt>
<trkpt lat="49.05888296663761" lon="8.965747989714146">
<ele>218.39999999999998</ele>
<time>2023-05-17T09:34:04Z</time>
</trkpt>
<trkpt lat="49.05887693166733" lon="8.965684957802296">
<ele>218.39999999999998</ele>
<time>2023-05-17T09:34:05Z</time>
</trkpt>
<trkpt lat="49.058869974687696" lon="8.965624943375587">
<ele>218.60000000000002</ele>
<time>2023-05-17T09:34:06Z</time>
</trkpt>
<trkpt lat="49.05886293388903" lon="8.96556694060564">
<ele>218.60000000000002</ele>
<time>2023-05-17T09:34:07Z</time>
</trkpt>
<trkpt lat="49.05885798856616" lon="8.965506926178932">
<ele>218.60000000000002</ele>
<time>2023-05-17T09:34:08Z</time>
</trkpt>
<trkpt lat="49.05885195359588" lon="8.965446995571256">
<ele>218.79999999999995</ele>
<time>2023-05-17T09:34:09Z</time>
</trkpt>
<trkpt lat="49.058844996616244" lon="8.965384969487786">
<ele>218.79999999999995</ele>
<time>2023-05-17T09:34:10Z</time>
</trkpt>
<trkpt lat="49.05883795581758" lon="8.965322943404317">
<ele>218.79999999999995</ele>
<time>2023-05-17T09:34:11Z</time>
</trkpt>
<trkpt lat="49.0588319208473" lon="8.96526494063437">
<ele>218.79999999999995</ele>
<time>2023-05-17T09:34:12Z</time>
</trkpt>
<trkpt lat="49.05882194638252" lon="8.965206937864423">
<ele>218.79999999999995</ele>
<time>2023-05-17T09:34:13Z</time>
</trkpt>
<trkpt lat="49.05881197191775" lon="8.965147929266095">
<ele>218.79999999999995</ele>
<time>2023-05-17T09:34:14Z</time>
</trkpt>
<trkpt lat="49.05879797413945" lon="8.96509294398129">
<ele>218.79999999999995</ele>
<time>2023-05-17T09:34:15Z</time>
</trkpt>
<trkpt lat="49.058781964704394" lon="8.965039970353246">
<ele>218.79999999999995</ele>
<time>2023-05-17T09:34:16Z</time>
</trkpt>
<trkpt lat="49.058764949440956" lon="8.96498791873455">
<ele>218.79999999999995</ele>
<time>2023-05-17T09:34:17Z</time>
</trkpt>
<trkpt lat="49.05874994583428" lon="8.96494198590517">
<ele>219</ele>
<time>2023-05-17T09:34:18Z</time>
</trkpt>
<trkpt lat="49.0587349422276" lon="8.964894963428378">
<ele>219</ele>
<time>2023-05-17T09:34:19Z</time>
</trkpt>
<trkpt lat="49.058717926964164" lon="8.964844923466444">
<ele>219</ele>
<time>2023-05-17T09:34:20Z</time>
</trkpt>
<trkpt lat="49.05870493501425" lon="8.964794967323542">
<ele>219</ele>
<time>2023-05-17T09:34:21Z</time>
</trkpt>
<trkpt lat="49.058694960549474" lon="8.964739982038736">
<ele>219</ele>
<time>2023-05-17T09:34:22Z</time>
</trkpt>
<trkpt lat="49.05868791975081" lon="8.964684996753931">
<ele>219.20000000000005</ele>
<time>2023-05-17T09:34:23Z</time>
</trkpt>
<trkpt lat="49.05868699774146" lon="8.964627999812365">
<ele>219.20000000000005</ele>
<time>2023-05-17T09:34:24Z</time>
</trkpt>
<trkpt lat="49.0586849860847" lon="8.964571924880147">
<ele>219.20000000000005</ele>
<time>2023-05-17T09:34:25Z</time>
</trkpt>
<trkpt lat="49.0586849860847" lon="8.96451199427247">
<ele>219.39999999999998</ele>
<time>2023-05-17T09:34:26Z</time>
</trkpt>
<trkpt lat="49.05868791975081" lon="8.964444939047098">
<ele>219.39999999999998</ele>
<time>2023-05-17T09:34:27Z</time>
</trkpt>
<trkpt lat="49.058694960549474" lon="8.964374950155616">
<ele>219.39999999999998</ele>
<time>2023-05-17T09:34:28Z</time>
</trkpt>
<trkpt lat="49.058701917529106" lon="8.964302949607372">
<ele>219.60000000000002</ele>
<time>2023-05-17T09:34:29Z</time>
</trkpt>
<trkpt lat="49.05870795249939" lon="8.964227931573987">
<ele>219.60000000000002</ele>
<time>2023-05-17T09:34:30Z</time>
</trkpt>
<trkpt lat="49.05871692113578" lon="8.964154925197363">
<ele>219.60000000000002</ele>
<time>2023-05-17T09:34:31Z</time>
</trkpt>
<trkpt lat="49.058717926964164" lon="8.964081918820739">
<ele>219.60000000000002</ele>
<time>2023-05-17T09:34:32Z</time>
</trkpt>
<trkpt lat="49.058717926964164" lon="8.964004972949624">
<ele>219.60000000000002</ele>
<time>2023-05-17T09:34:33Z</time>
</trkpt>
<trkpt lat="49.058714993298054" lon="8.963929954916239">
<ele>219.60000000000002</ele>
<time>2023-05-17T09:34:34Z</time>
</trkpt>
<trkpt lat="49.05870996415615" lon="8.963854936882854">
<ele>219.79999999999995</ele>
<time>2023-05-17T09:34:35Z</time>
</trkpt>
<trkpt lat="49.05870292335749" lon="8.96378293633461">
<ele>219.79999999999995</ele>
<time>2023-05-17T09:34:36Z</time>
</trkpt>
<trkpt lat="49.058697978034616" lon="8.963709929957986">
<ele>219.79999999999995</ele>
<time>2023-05-17T09:34:37Z</time>
</trkpt>
<trkpt lat="49.05869294889271" lon="8.963637929409742">
<ele>220</ele>
<time>2023-05-17T09:34:38Z</time>
</trkpt>
<trkpt lat="49.0586849860847" lon="8.963569952175021">
<ele>220</ele>
<time>2023-05-17T09:34:39Z</time>
</trkpt>
<trkpt lat="49.058677945286036" lon="8.963499963283539">
<ele>220.20000000000005</ele>
<time>2023-05-17T09:34:40Z</time>
</trkpt>
<trkpt lat="49.058671994134784" lon="8.963431986048818">
<ele>220.39999999999998</ele>
<time>2023-05-17T09:34:41Z</time>
</trkpt>
<trkpt lat="49.05866294167936" lon="8.963361997157335">
<ele>220.39999999999998</ele>
<time>2023-05-17T09:34:42Z</time>
</trkpt>
<trkpt lat="49.05865799635649" lon="8.963296953588724">
<ele>220.60000000000002</ele>
<time>2023-05-17T09:34:43Z</time>
</trkpt>
<trkpt lat="49.058651961386204" lon="8.963232999667525">
<ele>220.79999999999995</ele>
<time>2023-05-17T09:34:44Z</time>
</trkpt>
<trkpt lat="49.0586469322443" lon="8.963171979412436">
<ele>221</ele>
<time>2023-05-17T09:34:45Z</time>
</trkpt>
<trkpt lat="49.05864299274981" lon="8.963107941672206">
<ele>221.20000000000005</ele>
<time>2023-05-17T09:34:46Z</time>
</trkpt>
<trkpt lat="49.058634946122766" lon="8.963039964437485">
<ele>221.39999999999998</ele>
<time>2023-05-17T09:34:47Z</time>
</trkpt>
<trkpt lat="49.05862698331475" lon="8.962971987202764">
<ele>221.39999999999998</ele>
<time>2023-05-17T09:34:48Z</time>
</trkpt>
<trkpt lat="49.05861793085933" lon="8.96290292032063">
<ele>221.60000000000002</ele>
<time>2023-05-17T09:34:49Z</time>
</trkpt>
<trkpt lat="49.058609968051314" lon="8.962832931429148">
<ele>221.79999999999995</ele>
<time>2023-05-17T09:34:50Z</time>
</trkpt>
<trkpt lat="49.05860493890941" lon="8.962764954194427">
<ele>222</ele>
<time>2023-05-17T09:34:51Z</time>
</trkpt>
<trkpt lat="49.05859798192978" lon="8.962702928110957">
<ele>222</ele>
<time>2023-05-17T09:34:52Z</time>
</trkpt>
<trkpt lat="49.058592952787876" lon="8.96264492534101">
<ele>222.20000000000005</ele>
<time>2023-05-17T09:34:53Z</time>
</trkpt>
<trkpt lat="49.05858691781759" lon="8.962589940056205">
<ele>222.39999999999998</ele>
<time>2023-05-17T09:34:54Z</time>
</trkpt>
<trkpt lat="49.05857996083796" lon="8.962537972256541">
<ele>222.60000000000002</ele>
<time>2023-05-17T09:34:55Z</time>
</trkpt>
<trkpt lat="49.05857493169606" lon="8.962484998628497">
<ele>222.79999999999995</ele>
<time>2023-05-17T09:34:56Z</time>
</trkpt>
<trkpt lat="49.05857199802995" lon="8.962434958666563">
<ele>222.79999999999995</ele>
<time>2023-05-17T09:34:57Z</time>
</trkpt>
<trkpt lat="49.05856495723128" lon="8.9623829908669">
<ele>223</ele>
<time>2023-05-17T09:34:58Z</time>
</trkpt>
<trkpt lat="49.05855498276651" lon="8.962332950904965">
<ele>223.20000000000005</ele>
<time>2023-05-17T09:34:59Z</time>
</trkpt>
<trkpt lat="49.058546936139464" lon="8.96227796562016">
<ele>223.39999999999998</ele>
<time>2023-05-17T09:35:00Z</time>
</trkpt>
<trkpt lat="49.05853997915983" lon="8.962222980335355">
<ele>223.60000000000002</ele>
<time>2023-05-17T09:35:01Z</time>
</trkpt>
<trkpt lat="49.05853495001793" lon="8.96216799505055">
<ele>223.79999999999995</ele>
<time>2023-05-17T09:35:02Z</time>
</trkpt>
<trkpt lat="49.0585279930383" lon="8.962112925946712">
<ele>224</ele>
<time>2023-05-17T09:35:03Z</time>
</trkpt>
<trkpt lat="49.05852195806801" lon="8.962059952318668">
<ele>224.20000000000005</ele>
<time>2023-05-17T09:35:04Z</time>
</trkpt>
<trkpt lat="49.05851793475449" lon="8.962009996175766">
<ele>224.39999999999998</ele>
<time>2023-05-17T09:35:05Z</time>
</trkpt>
<trkpt lat="49.05851198360324" lon="8.961959956213832">
<ele>224.60000000000002</ele>
<time>2023-05-17T09:35:06Z</time>
</trkpt>
<trkpt lat="49.058504942804575" lon="8.961906982585788">
<ele>224.79999999999995</ele>
<time>2023-05-17T09:35:07Z</time>
</trkpt>
<trkpt lat="49.058499997481704" lon="8.961854930967093">
<ele>225</ele>
<time>2023-05-17T09:35:08Z</time>
</trkpt>
<trkpt lat="49.05849697999656" lon="8.961802963167429">
<ele>225.20000000000005</ele>
<time>2023-05-17T09:35:09Z</time>
</trkpt>
<trkpt lat="49.05849295668304" lon="8.961751917377114">
<ele>225.60000000000002</ele>
<time>2023-05-17T09:35:10Z</time>
</trkpt>
<trkpt lat="49.0584899391979" lon="8.96169994957745">
<ele>225.79999999999995</ele>
<time>2023-05-17T09:35:11Z</time>
</trkpt>
<trkpt lat="49.058486921712756" lon="8.961651921272278">
<ele>226</ele>
<time>2023-05-17T09:35:12Z</time>
</trkpt>
<trkpt lat="49.058482982218266" lon="8.961602970957756">
<ele>226.20000000000005</ele>
<time>2023-05-17T09:35:13Z</time>
</trkpt>
<trkpt lat="49.05847795307636" lon="8.961549997329712">
<ele>226.39999999999998</ele>
<time>2023-05-17T09:35:14Z</time>
</trkpt>
<trkpt lat="49.05847191810608" lon="8.961501969024539">
<ele>226.60000000000002</ele>
<time>2023-05-17T09:35:15Z</time>
</trkpt>
<trkpt lat="49.05846697278321" lon="8.961451929062605">
<ele>226.79999999999995</ele>
<time>2023-05-17T09:35:16Z</time>
</trkpt>
<trkpt lat="49.05845792032778" lon="8.961401972919703">
<ele>227</ele>
<time>2023-05-17T09:35:17Z</time>
</trkpt>
<trkpt lat="49.05844995751977" lon="8.961351932957768">
<ele>227.20000000000005</ele>
<time>2023-05-17T09:35:18Z</time>
</trkpt>
<trkpt lat="49.05844694003463" lon="8.961302982643247">
<ele>227.39999999999998</ele>
<time>2023-05-17T09:35:19Z</time>
</trkpt>
<trkpt lat="49.058439983054996" lon="8.961252942681313">
<ele>227.60000000000002</ele>
<time>2023-05-17T09:35:20Z</time>
</trkpt>
<trkpt lat="49.05843294225633" lon="8.961207931861281">
<ele>227.79999999999995</ele>
<time>2023-05-17T09:35:21Z</time>
</trkpt>
<trkpt lat="49.05842699110508" lon="8.961156969889998">
<ele>228</ele>
<time>2023-05-17T09:35:22Z</time>
</trkpt>
<trkpt lat="49.05842196196318" lon="8.961107935756445">
<ele>228</ele>
<time>2023-05-17T09:35:23Z</time>
</trkpt>
<trkpt lat="49.058417938649654" lon="8.9610549621284">
<ele>228.20000000000005</ele>
<time>2023-05-17T09:35:24Z</time>
</trkpt>
<trkpt lat="49.0584119874984" lon="8.961002994328737">
<ele>228.39999999999998</ele>
<time>2023-05-17T09:35:25Z</time>
</trkpt>
<trkpt lat="49.05840494669974" lon="8.960949936881661">
<ele>228.39999999999998</ele>
<time>2023-05-17T09:35:26Z</time>
</trkpt>
<trkpt lat="49.058399917557836" lon="8.960892939940095">
<ele>228.60000000000002</ele>
<time>2023-05-17T09:35:27Z</time>
</trkpt>
<trkpt lat="49.0583929605782" lon="8.96083996631205">
<ele>228.60000000000002</ele>
<time>2023-05-17T09:35:28Z</time>
</trkpt>
<trkpt lat="49.05838499777019" lon="8.960779951885343">
<ele>228.79999999999995</ele>
<time>2023-05-17T09:35:29Z</time>
</trkpt>
<trkpt lat="49.058377956971526" lon="8.960716919973493">
<ele>228.79999999999995</ele>
<time>2023-05-17T09:35:30Z</time>
</trkpt>
<trkpt lat="49.05836999416351" lon="8.960656989365816">
<ele>228.79999999999995</ele>
<time>2023-05-17T09:35:31Z</time>
</trkpt>
<trkpt lat="49.05836194753647" lon="8.960596974939108">
<ele>228.79999999999995</ele>
<time>2023-05-17T09:35:32Z</time>
</trkpt>
<trkpt lat="49.058356918394566" lon="8.960534948855639">
<ele>228.79999999999995</ele>
<time>2023-05-17T09:35:33Z</time>
</trkpt>
<trkpt lat="49.05834794975817" lon="8.960477951914072">
<ele>229</ele>
<time>2023-05-17T09:35:34Z</time>
</trkpt>
<trkpt lat="49.05833696946502" lon="8.960426989942789">
<ele>229</ele>
<time>2023-05-17T09:35:35Z</time>
</trkpt>
<trkpt lat="49.05832699500024" lon="8.960374938324094">
<ele>228.79999999999995</ele>
<time>2023-05-17T09:35:36Z</time>
</trkpt>
<trkpt lat="49.05831794254482" lon="8.96032196469605">
<ele>228.79999999999995</ele>
<time>2023-05-17T09:35:37Z</time>
</trkpt>
<trkpt lat="49.05831299722195" lon="8.960266979411244">
<ele>228.79999999999995</ele>
<time>2023-05-17T09:35:38Z</time>
</trkpt>
<trkpt lat="49.0583049505949" lon="8.960206964984536">
<ele>228.79999999999995</ele>
<time>2023-05-17T09:35:39Z</time>
</trkpt>
<trkpt lat="49.05829698778689" lon="8.96014996804297">
<ele>228.79999999999995</ele>
<time>2023-05-17T09:35:40Z</time>
</trkpt>
<trkpt lat="49.058291958644986" lon="8.960079979151487">
<ele>228.60000000000002</ele>
<time>2023-05-17T09:35:41Z</time>
</trkpt>
<trkpt lat="49.05828692950308" lon="8.960004961118102">
<ele>228.60000000000002</ele>
<time>2023-05-17T09:35:42Z</time>
</trkpt>
<trkpt lat="49.05827796086669" lon="8.959926925599575">
<ele>228.60000000000002</ele>
<time>2023-05-17T09:35:43Z</time>
</trkpt>
<trkpt lat="49.058267986401916" lon="8.9598479680717">
<ele>228.60000000000002</ele>
<time>2023-05-17T09:35:44Z</time>
</trkpt>
<trkpt lat="49.05825792811811" lon="8.959756940603256">
<ele>228.39999999999998</ele>
<time>2023-05-17T09:35:45Z</time>
</trkpt>
<trkpt lat="49.05824191868305" lon="8.959671948105097">
<ele>228.39999999999998</ele>
<time>2023-05-17T09:35:46Z</time>
</trkpt>
<trkpt lat="49.05822699889541" lon="8.95959198474884">
<ele>228.39999999999998</ele>
<time>2023-05-17T09:35:47Z</time>
</trkpt>
<trkpt lat="49.0582169406116" lon="8.959507998079062">
<ele>228.20000000000005</ele>
<time>2023-05-17T09:35:48Z</time>
</trkpt>
<trkpt lat="49.05820998363197" lon="8.959426945075393">
<ele>228</ele>
<time>2023-05-17T09:35:49Z</time>
</trkpt>
<trkpt lat="49.058204954490066" lon="8.959346981719136">
<ele>228</ele>
<time>2023-05-17T09:35:50Z</time>
</trkpt>
<trkpt lat="49.05819296836853" lon="8.959266934543848">
<ele>227.79999999999995</ele>
<time>2023-05-17T09:35:51Z</time>
</trkpt>
<trkpt lat="49.058179976418614" lon="8.95918294787407">
<ele>227.60000000000002</ele>
<time>2023-05-17T09:35:52Z</time>
</trkpt>
<trkpt lat="49.05816799029708" lon="8.95909795537591">
<ele>227.60000000000002</ele>
<time>2023-05-17T09:35:53Z</time>
</trkpt>
<trkpt lat="49.0581529866904" lon="8.959006927907467">
<ele>227.39999999999998</ele>
<time>2023-05-17T09:35:54Z</time>
</trkpt>
<trkpt lat="49.058139994740486" lon="8.958914978429675">
<ele>227.20000000000005</ele>
<time>2023-05-17T09:35:55Z</time>
</trkpt>
<trkpt lat="49.05812691897154" lon="8.958821939304471">
<ele>227</ele>
<time>2023-05-17T09:35:56Z</time>
</trkpt>
<trkpt lat="49.05810998752713" lon="8.95872998982668">
<ele>227</ele>
<time>2023-05-17T09:35:57Z</time>
</trkpt>
<trkpt lat="49.058096995577216" lon="8.958637956529856">
<ele>226.79999999999995</ele>
<time>2023-05-17T09:35:58Z</time>
</trkpt>
<trkpt lat="49.05807796865702" lon="8.958546929061413">
<ele>226.60000000000002</ele>
<time>2023-05-17T09:35:59Z</time>
</trkpt>
<trkpt lat="49.05806195922196" lon="8.95845296792686">
<ele>226.20000000000005</ele>
<time>2023-05-17T09:36:00Z</time>
</trkpt>
<trkpt lat="49.05804293230176" lon="8.958352971822023">
<ele>226</ele>
<time>2023-05-17T09:36:01Z</time>
</trkpt>
<trkpt lat="49.05802792869508" lon="8.958244929090142">
<ele>225.60000000000002</ele>
<time>2023-05-17T09:36:02Z</time>
</trkpt>
<trkpt lat="49.05801493674517" lon="8.95813194103539">
<ele>225.20000000000005</ele>
<time>2023-05-17T09:36:03Z</time>
</trkpt>
<trkpt lat="49.05799993313849" lon="8.958011996001005">
<ele>224.79999999999995</ele>
<time>2023-05-17T09:36:04Z</time>
</trkpt>
<trkpt lat="49.05798492953181" lon="8.957886938005686">
<ele>224.39999999999998</ele>
<time>2023-05-17T09:36:05Z</time>
</trkpt>
<trkpt lat="49.0579769667238" lon="8.957757940515876">
<ele>224</ele>
<time>2023-05-17T09:36:06Z</time>
</trkpt>
<trkpt lat="49.05797495506704" lon="8.957626931369305">
<ele>223.60000000000002</ele>
<time>2023-05-17T09:36:07Z</time>
</trkpt>
<trkpt lat="49.0579819958657" lon="8.957494916394353">
<ele>223.39999999999998</ele>
<time>2023-05-17T09:36:08Z</time>
</trkpt>
<trkpt lat="49.05799297615886" lon="8.957367930561304">
<ele>223</ele>
<time>2023-05-17T09:36:09Z</time>
</trkpt>
<trkpt lat="49.058009991422296" lon="8.957246979698539">
<ele>222.79999999999995</ele>
<time>2023-05-17T09:36:10Z</time>
</trkpt>
<trkpt lat="49.058029940351844" lon="8.957124939188361">
<ele>222.60000000000002</ele>
<time>2023-05-17T09:36:11Z</time>
</trkpt>
<trkpt lat="49.05804796144366" lon="8.957011951133609">
<ele>222.39999999999998</ele>
<time>2023-05-17T09:36:12Z</time>
</trkpt>
<trkpt lat="49.0580599475652" lon="8.956902986392379">
<ele>222.20000000000005</ele>
<time>2023-05-17T09:36:13Z</time>
</trkpt>
<trkpt lat="49.05806296505034" lon="8.956804918125272">
<ele>222</ele>
<time>2023-05-17T09:36:14Z</time>
</trkpt>
<trkpt lat="49.05806195922196" lon="8.956714980304241">
<ele>222</ele>
<time>2023-05-17T09:36:15Z</time>
</trkpt>
<trkpt lat="49.058052990585566" lon="8.956634933128953">
<ele>221.79999999999995</ele>
<time>2023-05-17T09:36:16Z</time>
</trkpt>
<trkpt lat="49.05804293230176" lon="8.95656494423747">
<ele>221.79999999999995</ele>
<time>2023-05-17T09:36:17Z</time>
</trkpt>
<trkpt lat="49.05803496949375" lon="8.95649797283113">
<ele>222</ele>
<time>2023-05-17T09:36:18Z</time>
</trkpt>
<trkpt lat="49.058029940351844" lon="8.956437958404422">
<ele>222</ele>
<time>2023-05-17T09:36:19Z</time>
</trkpt>
<trkpt lat="49.05802792869508" lon="8.956386996433139">
<ele>222</ele>
<time>2023-05-17T09:36:20Z</time>
</trkpt>
<trkpt lat="49.058032957836986" lon="8.956334944814444">
<ele>222.20000000000005</ele>
<time>2023-05-17T09:36:21Z</time>
</trkpt>
<trkpt lat="49.05804192647338" lon="8.956292951479554">
<ele>222.20000000000005</ele>
<time>2023-05-17T09:36:22Z</time>
</trkpt>
<trkpt lat="49.058056930080056" lon="8.956256993114948">
<ele>222.20000000000005</ele>
<time>2023-05-17T09:36:23Z</time>
</trkpt>
<trkpt lat="49.058074951171875" lon="8.956222962588072">
<ele>222.20000000000005</ele>
<time>2023-05-17T09:36:24Z</time>
</trkpt>
<trkpt lat="49.058092972263694" lon="8.956201924011111">
<ele>222.20000000000005</ele>
<time>2023-05-17T09:36:25Z</time>
</trkpt>
<trkpt lat="49.05811199918389" lon="8.956182980909944">
<ele>222.20000000000005</ele>
<time>2023-05-17T09:36:26Z</time>
</trkpt>
<trkpt lat="49.05812993645668" lon="8.956172922626138">
<ele>222.20000000000005</ele>
<time>2023-05-17T09:36:27Z</time>
</trkpt>
<trkpt lat="49.05814695172012" lon="8.956169988960028">
<ele>222.20000000000005</ele>
<time>2023-05-17T09:36:28Z</time>
</trkpt>
<trkpt lat="49.0581669844687" lon="8.956171916797757">
<ele>222.20000000000005</ele>
<time>2023-05-17T09:36:29Z</time>
</trkpt>
<trkpt lat="49.058182993903756" lon="8.956172922626138">
<ele>222.20000000000005</ele>
<time>2023-05-17T09:36:30Z</time>
</trkpt>
<trkpt lat="49.05819799751043" lon="8.95617694593966">
<ele>222.20000000000005</ele>
<time>2023-05-17T09:36:31Z</time>
</trkpt>
<trkpt lat="49.05821199528873" lon="8.956181975081563">
<ele>222.20000000000005</ele>
<time>2023-05-17T09:36:32Z</time>
</trkpt>
<trkpt lat="49.05822699889541" lon="8.956189937889576">
<ele>222.20000000000005</ele>
<time>2023-05-17T09:36:33Z</time>
</trkpt>
<trkpt lat="49.05824191868305" lon="8.956199996173382">
<ele>222.20000000000005</ele>
<time>2023-05-17T09:36:34Z</time>
</trkpt>
<trkpt lat="49.05825692228973" lon="8.956209970638156">
<ele>222.20000000000005</ele>
<time>2023-05-17T09:36:35Z</time>
</trkpt>
<trkpt lat="49.05827293172479" lon="8.95621994510293">
<ele>222</ele>
<time>2023-05-17T09:36:36Z</time>
</trkpt>
<trkpt lat="49.05829497613013" lon="8.956222962588072">
<ele>222</ele>
<time>2023-05-17T09:36:37Z</time>
</trkpt>
<trkpt lat="49.058314925059676" lon="8.956222962588072">
<ele>221.79999999999995</ele>
<time>2023-05-17T09:36:38Z</time>
</trkpt>
<trkpt lat="49.058334957808256" lon="8.956216927617788">
<ele>221.79999999999995</ele>
<time>2023-05-17T09:36:39Z</time>
</trkpt>
<trkpt lat="49.058352978900075" lon="8.956191949546337">
<ele>221.60000000000002</ele>
<time>2023-05-17T09:36:40Z</time>
</trkpt>
<trkpt lat="49.05837292782962" lon="8.956149956211448">
<ele>221.60000000000002</ele>
<time>2023-05-17T09:36:41Z</time>
</trkpt>
<trkpt lat="49.05839195474982" lon="8.956099916249514">
<ele>221.39999999999998</ele>
<time>2023-05-17T09:36:42Z</time>
</trkpt>
<trkpt lat="49.0584069583565" lon="8.956042919307947">
<ele>221.39999999999998</ele>
<time>2023-05-17T09:36:43Z</time>
</trkpt>
<trkpt lat="49.05842196196318" lon="8.955984916538">
<ele>221.20000000000005</ele>
<time>2023-05-17T09:36:44Z</time>
</trkpt>
<trkpt lat="49.05843294225633" lon="8.955922974273562">
<ele>221.20000000000005</ele>
<time>2023-05-17T09:36:45Z</time>
</trkpt>
<trkpt lat="49.05844694003463" lon="8.955857930704951">
<ele>221</ele>
<time>2023-05-17T09:36:46Z</time>
</trkpt>
<trkpt lat="49.058462949469686" lon="8.955796994268894">
<ele>221</ele>
<time>2023-05-17T09:36:47Z</time>
</trkpt>
<trkpt lat="49.058481976389885" lon="8.955731950700283">
<ele>221</ele>
<time>2023-05-17T09:36:48Z</time>
</trkpt>
<trkpt lat="49.05849697999656" lon="8.955667996779084">
<ele>220.79999999999995</ele>
<time>2023-05-17T09:36:49Z</time>
</trkpt>
<trkpt lat="49.05851298943162" lon="8.955601947382092">
<ele>220.79999999999995</ele>
<time>2023-05-17T09:36:50Z</time>
</trkpt>
<trkpt lat="49.0585279930383" lon="8.955534975975752">
<ele>220.79999999999995</ele>
<time>2023-05-17T09:36:51Z</time>
</trkpt>
<trkpt lat="49.05854199081659" lon="8.95546993240714">
<ele>220.60000000000002</ele>
<time>2023-05-17T09:36:52Z</time>
</trkpt>
<trkpt lat="49.05855699442327" lon="8.95540195517242">
<ele>220.60000000000002</ele>
<time>2023-05-17T09:36:53Z</time>
</trkpt>
<trkpt lat="49.05857199802995" lon="8.955329954624176">
<ele>220.60000000000002</ele>
<time>2023-05-17T09:36:54Z</time>
</trkpt>
<trkpt lat="49.058589935302734" lon="8.955256948247552">
<ele>220.60000000000002</ele>
<time>2023-05-17T09:36:55Z</time>
</trkpt>
<trkpt lat="49.058609968051314" lon="8.955182936042547">
<ele>220.60000000000002</ele>
<time>2023-05-17T09:36:56Z</time>
</trkpt>
<trkpt lat="49.05862798914313" lon="8.955109929665923">
<ele>220.60000000000002</ele>
<time>2023-05-17T09:36:57Z</time>
</trkpt>
<trkpt lat="49.05864793807268" lon="8.955031977966428">
<ele>220.60000000000002</ele>
<time>2023-05-17T09:36:58Z</time>
</trkpt>
<trkpt lat="49.05866294167936" lon="8.954949919134378">
<ele>220.39999999999998</ele>
<time>2023-05-17T09:36:59Z</time>
</trkpt>
<trkpt lat="49.0586799569428" lon="8.954869955778122">
<ele>220.39999999999998</ele>
<time>2023-05-17T09:37:00Z</time>
</trkpt>
<trkpt lat="49.058696972206235" lon="8.954789992421865">
<ele>220.39999999999998</ele>
<time>2023-05-17T09:37:01Z</time>
</trkpt>
<trkpt lat="49.058714993298054" lon="8.954707933589816">
<ele>220.20000000000005</ele>
<time>2023-05-17T09:37:02Z</time>
</trkpt>
<trkpt lat="49.05873192474246" lon="8.954624952748418">
<ele>220.20000000000005</ele>
<time>2023-05-17T09:37:03Z</time>
</trkpt>
<trkpt lat="49.05874793417752" lon="8.9545429777354">
<ele>220.20000000000005</ele>
<time>2023-05-17T09:37:04Z</time>
</trkpt>
<trkpt lat="49.058762937784195" lon="8.954461924731731">
<ele>220.20000000000005</ele>
<time>2023-05-17T09:37:05Z</time>
</trkpt>
<trkpt lat="49.05877794139087" lon="8.954379949718714">
<ele>220.20000000000005</ele>
<time>2023-05-17T09:37:06Z</time>
</trkpt>
<trkpt lat="49.05879193916917" lon="8.954297974705696">
<ele>220.20000000000005</ele>
<time>2023-05-17T09:37:07Z</time>
</trkpt>
<trkpt lat="49.05880291946232" lon="8.954214993864298">
<ele>220</ele>
<time>2023-05-17T09:37:08Z</time>
</trkpt>
<trkpt lat="49.05881297774613" lon="8.954129917547107">
<ele>220</ele>
<time>2023-05-17T09:37:09Z</time>
</trkpt>
<trkpt lat="49.05882194638252" lon="8.954046936705709">
<ele>220</ele>
<time>2023-05-17T09:37:10Z</time>
</trkpt>
<trkpt lat="49.058827981352806" lon="8.95396295003593">
<ele>219.79999999999995</ele>
<time>2023-05-17T09:37:11Z</time>
</trkpt>
<trkpt lat="49.0588319208473" lon="8.95387795753777">
<ele>219.79999999999995</ele>
<time>2023-05-17T09:37:12Z</time>
</trkpt>
<trkpt lat="49.05883493833244" lon="8.953787935897708">
<ele>219.60000000000002</ele>
<time>2023-05-17T09:37:13Z</time>
</trkpt>
<trkpt lat="49.0588369499892" lon="8.953696992248297">
<ele>219.60000000000002</ele>
<time>2023-05-17T09:37:14Z</time>
</trkpt>
<trkpt lat="49.05883795581758" lon="8.953602947294712">
<ele>219.60000000000002</ele>
<time>2023-05-17T09:37:15Z</time>
</trkpt>
<trkpt lat="49.05883795581758" lon="8.953517954796553">
<ele>219.60000000000002</ele>
<time>2023-05-17T09:37:16Z</time>
</trkpt>
<trkpt lat="49.05883493833244" lon="8.95342692732811">
<ele>219.39999999999998</ele>
<time>2023-05-17T09:37:17Z</time>
</trkpt>
<trkpt lat="49.0588319208473" lon="8.953334977850318">
<ele>219.39999999999998</ele>
<time>2023-05-17T09:37:18Z</time>
</trkpt>
<trkpt lat="49.058827981352806" lon="8.953244956210256">
<ele>219.39999999999998</ele>
<time>2023-05-17T09:37:19Z</time>
</trkpt>
<trkpt lat="49.05882194638252" lon="8.953152922913432">
<ele>219.39999999999998</ele>
<time>2023-05-17T09:37:20Z</time>
</trkpt>
<trkpt lat="49.05881691724062" lon="8.953062985092402">
<ele>219.20000000000005</ele>
<time>2023-05-17T09:37:21Z</time>
</trkpt>
<trkpt lat="49.05880996026099" lon="8.95297296345234">
<ele>219.20000000000005</ele>
<time>2023-05-17T09:37:22Z</time>
</trkpt>
<trkpt lat="49.058801997452974" lon="8.952884953469038">
<ele>219</ele>
<time>2023-05-17T09:37:23Z</time>
</trkpt>
<trkpt lat="49.05879193916917" lon="8.952796943485737">
<ele>219</ele>
<time>2023-05-17T09:37:24Z</time>
</trkpt>
<trkpt lat="49.05877995304763" lon="8.952709939330816">
<ele>219</ele>
<time>2023-05-17T09:37:25Z</time>
</trkpt>
<trkpt lat="49.0587679669261" lon="8.952624946832657">
<ele>219</ele>
<time>2023-05-17T09:37:26Z</time>
</trkpt>
<trkpt lat="49.05875497497618" lon="8.952536936849356">
<ele>218.79999999999995</ele>
<time>2023-05-17T09:37:27Z</time>
</trkpt>
<trkpt lat="49.058741983026266" lon="8.952451944351196">
<ele>218.79999999999995</ele>
<time>2023-05-17T09:37:28Z</time>
</trkpt>
<trkpt lat="49.05872798524797" lon="8.952367957681417">
<ele>218.60000000000002</ele>
<time>2023-05-17T09:37:29Z</time>
</trkpt>
<trkpt lat="49.058714993298054" lon="8.95228497684002">
<ele>218.60000000000002</ele>
<time>2023-05-17T09:37:30Z</time>
</trkpt>
<trkpt lat="49.05870292335749" lon="8.952201995998621">
<ele>218.39999999999998</ele>
<time>2023-05-17T09:37:31Z</time>
</trkpt>
<trkpt lat="49.05869194306433" lon="8.95211691968143">
<ele>218.39999999999998</ele>
<time>2023-05-17T09:37:32Z</time>
</trkpt>
<trkpt lat="49.0586799569428" lon="8.95203192718327">
<ele>218.20000000000005</ele>
<time>2023-05-17T09:37:33Z</time>
</trkpt>
<trkpt lat="49.05866294167936" lon="8.951946934685111">
<ele>218.20000000000005</ele>
<time>2023-05-17T09:37:34Z</time>
</trkpt>
<trkpt lat="49.05864793807268" lon="8.95185993053019">
<ele>218</ele>
<time>2023-05-17T09:37:35Z</time>
</trkpt>
<trkpt lat="49.058631928637624" lon="8.95177292637527">
<ele>218</ele>
<time>2023-05-17T09:37:36Z</time>
</trkpt>
<trkpt lat="49.058611979708076" lon="8.95168692804873">
<ele>217.79999999999995</ele>
<time>2023-05-17T09:37:37Z</time>
</trkpt>
<trkpt lat="49.05859496444464" lon="8.951606964692473">
<ele>217.79999999999995</ele>
<time>2023-05-17T09:37:38Z</time>
</trkpt>
<trkpt lat="49.0585779491812" lon="8.951522978022695">
<ele>217.79999999999995</ele>
<time>2023-05-17T09:37:39Z</time>
</trkpt>
<trkpt lat="49.05855992808938" lon="8.95144997164607">
<ele>217.60000000000002</ele>
<time>2023-05-17T09:37:40Z</time>
</trkpt>
<trkpt lat="49.05854199081659" lon="8.951366990804672">
<ele>217.60000000000002</ele>
<time>2023-05-17T09:37:41Z</time>
</trkpt>
<trkpt lat="49.058522963896394" lon="8.951279986649752">
<ele>217.60000000000002</ele>
<time>2023-05-17T09:37:42Z</time>
</trkpt>
<trkpt lat="49.058506954461336" lon="8.951196921989322">
<ele>217.60000000000002</ele>
<time>2023-05-17T09:37:43Z</time>
</trkpt>
<trkpt lat="49.0584899391979" lon="8.951114946976304">
<ele>217.39999999999998</ele>
<time>2023-05-17T09:37:44Z</time>
</trkpt>
<trkpt lat="49.05847292393446" lon="8.951032971963286">
<ele>217.39999999999998</ele>
<time>2023-05-17T09:37:45Z</time>
</trkpt>
<trkpt lat="49.058456998318434" lon="8.95095694810152">
<ele>217.39999999999998</ele>
<time>2023-05-17T09:37:46Z</time>
</trkpt>
<trkpt lat="49.05843193642795" lon="8.950884947553277">
<ele>217.39999999999998</ele>
<time>2023-05-17T09:37:47Z</time>
</trkpt>
<trkpt lat="49.058417938649654" lon="8.950824933126569">
<ele>217.39999999999998</ele>
<time>2023-05-17T09:37:48Z</time>
</trkpt>
<trkpt lat="49.0584019292146" lon="8.950762990862131">
<ele>217.39999999999998</ele>
<time>2023-05-17T09:37:49Z</time>
</trkpt>
<trkpt lat="49.05838298611343" lon="8.950701970607042">
<ele>217.39999999999998</ele>
<time>2023-05-17T09:37:50Z</time>
</trkpt>
<trkpt lat="49.05836295336485" lon="8.950642962008715">
<ele>217.39999999999998</ele>
<time>2023-05-17T09:37:51Z</time>
</trkpt>
<trkpt lat="49.05834493227303" lon="8.950584959238768">
<ele>217.39999999999998</ele>
<time>2023-05-17T09:37:52Z</time>
</trkpt>
<trkpt lat="49.05831995420158" lon="8.950529973953962">
<ele>217.39999999999998</ele>
<time>2023-05-17T09:37:53Z</time>
</trkpt>
<trkpt lat="49.05830193310976" lon="8.950469959527254">
<ele>217.39999999999998</ele>
<time>2023-05-17T09:37:54Z</time>
</trkpt>
<trkpt lat="49.05828692950308" lon="8.950409945100546">
<ele>217.39999999999998</ele>
<time>2023-05-17T09:37:55Z</time>
</trkpt>
<trkpt lat="49.05826999805868" lon="8.950351942330599">
<ele>217.39999999999998</ele>
<time>2023-05-17T09:37:56Z</time>
</trkpt>
<trkpt lat="49.0582499653101" lon="8.950299974530935">
<ele>217.39999999999998</ele>
<time>2023-05-17T09:37:57Z</time>
</trkpt>
<trkpt lat="49.05823295004666" lon="8.950249934569001">
<ele>217.39999999999998</ele>
<time>2023-05-17T09:37:58Z</time>
</trkpt>
<trkpt lat="49.0582169406116" lon="8.95020199008286">
<ele>217.39999999999998</ele>
<time>2023-05-17T09:37:59Z</time>
</trkpt>
<trkpt lat="49.05819992534816" lon="8.950151950120926">
<ele>217.39999999999998</ele>
<time>2023-05-17T09:38:00Z</time>
</trkpt>
<trkpt lat="49.058179976418614" lon="8.950107945129275">
<ele>217.39999999999998</ele>
<time>2023-05-17T09:38:01Z</time>
</trkpt>
<trkpt lat="49.058161955326796" lon="8.950069975107908">
<ele>217.39999999999998</ele>
<time>2023-05-17T09:38:02Z</time>
</trkpt>
<trkpt lat="49.058142928406596" lon="8.95003292709589">
<ele>217.20000000000005</ele>
<time>2023-05-17T09:38:03Z</time>
</trkpt>
<trkpt lat="49.05812792479992" lon="8.949997974559665">
<ele>217.20000000000005</ele>
<time>2023-05-17T09:38:04Z</time>
</trkpt>
<trkpt lat="49.05811199918389" lon="8.949964949861169">
<ele>217.20000000000005</ele>
<time>2023-05-17T09:38:05Z</time>
</trkpt>
<trkpt lat="49.058094983920455" lon="8.949929997324944">
<ele>217.20000000000005</ele>
<time>2023-05-17T09:38:06Z</time>
</trkpt>
<trkpt lat="49.05807998031378" lon="8.949891943484545">
<ele>217.20000000000005</ele>
<time>2023-05-17T09:38:07Z</time>
</trkpt>
<trkpt lat="49.0580649767071" lon="8.949854979291558">
<ele>217.20000000000005</ele>
<time>2023-05-17T09:38:08Z</time>
</trkpt>
<trkpt lat="49.05804695561528" lon="8.94981793127954">
<ele>217</ele>
<time>2023-05-17T09:38:09Z</time>
</trkpt>
<trkpt lat="49.05802792869508" lon="8.949777949601412">
<ele>217</ele>
<time>2023-05-17T09:38:10Z</time>
</trkpt>
<trkpt lat="49.058012925088406" lon="8.949734950438142">
<ele>217</ele>
<time>2023-05-17T09:38:11Z</time>
</trkpt>
<trkpt lat="49.058011919260025" lon="8.94968499429524">
<ele>217</ele>
<time>2023-05-17T09:38:12Z</time>
</trkpt>
<trkpt lat="49.05802298337221" lon="8.949637971818447">
<ele>217</ele>
<time>2023-05-17T09:38:13Z</time>
</trkpt>
<trkpt lat="49.058049973100424" lon="8.94960293546319">
<ele>216.79999999999995</ele>
<time>2023-05-17T09:38:14Z</time>
</trkpt>
<trkpt lat="49.05808199197054" lon="8.949561947956681">
<ele>216.79999999999995</ele>
<time>2023-05-17T09:38:15Z</time>
</trkpt>
<trkpt lat="49.058119961991906" lon="8.949532946571708">
<ele>216.79999999999995</ele>
<time>2023-05-17T09:38:16Z</time>
</trkpt>
<trkpt lat="49.058162961155176" lon="8.949507968500257">
<ele>216.79999999999995</ele>
<time>2023-05-17T09:38:17Z</time>
</trkpt>
<trkpt lat="49.05820696614683" lon="8.94947494380176">
<ele>216.60000000000002</ele>
<time>2023-05-17T09:38:18Z</time>
</trkpt>
<trkpt lat="49.0582499653101" lon="8.949437979608774">
<ele>216.60000000000002</ele>
<time>2023-05-17T09:38:19Z</time>
</trkpt>
<trkpt lat="49.05828692950308" lon="8.949397997930646">
<ele>216.60000000000002</ele>
<time>2023-05-17T09:38:20Z</time>
</trkpt>
<trkpt lat="49.05832992866635" lon="8.949361955747008">
<ele>216.39999999999998</ele>
<time>2023-05-17T09:38:21Z</time>
</trkpt>
<trkpt lat="49.05836999416351" lon="8.949331948533654">
<ele>216.39999999999998</ele>
<time>2023-05-17T09:38:22Z</time>
</trkpt>
<trkpt lat="49.0584119874984" lon="8.949309987947345">
<ele>216.39999999999998</ele>
<time>2023-05-17T09:38:23Z</time>
</trkpt>
<trkpt lat="49.05845792032778" lon="8.949284926056862">
<ele>216.20000000000005</ele>
<time>2023-05-17T09:38:24Z</time>
</trkpt>
<trkpt lat="49.058504942804575" lon="8.94925793632865">
<ele>216.20000000000005</ele>
<time>2023-05-17T09:38:25Z</time>
</trkpt>
<trkpt lat="49.05855196528137" lon="8.949241926893592">
<ele>216.20000000000005</ele>
<time>2023-05-17T09:38:26Z</time>
</trkpt>
<trkpt lat="49.05859798192978" lon="8.949231952428818">
<ele>216</ele>
<time>2023-05-17T09:38:27Z</time>
</trkpt>
<trkpt lat="49.05864994972944" lon="8.949221977964044">
<ele>216</ele>
<time>2023-05-17T09:38:28Z</time>
</trkpt>
<trkpt lat="49.05869294889271" lon="8.949212925508618">
<ele>216</ele>
<time>2023-05-17T09:38:29Z</time>
</trkpt>
<trkpt lat="49.05872999690473" lon="8.949206974357367">
<ele>215.79999999999995</ele>
<time>2023-05-17T09:38:30Z</time>
</trkpt>
<trkpt lat="49.058764949440956" lon="8.949199933558702">
<ele>215.79999999999995</ele>
<time>2023-05-17T09:38:31Z</time>
</trkpt>
<trkpt lat="49.05879998579621" lon="8.94919197075069">
<ele>215.79999999999995</ele>
<time>2023-05-17T09:38:32Z</time>
</trkpt>
<trkpt lat="49.05883292667568" lon="8.949181996285915">
<ele>215.79999999999995</ele>
<time>2023-05-17T09:38:33Z</time>
</trkpt>
<trkpt lat="49.05885798856616" lon="8.949167998507619">
<ele>215.60000000000002</ele>
<time>2023-05-17T09:38:34Z</time>
</trkpt>
<trkpt lat="49.05888196080923" lon="8.949159951880574">
<ele>215.60000000000002</ele>
<time>2023-05-17T09:38:35Z</time>
</trkpt>
<trkpt lat="49.05890299938619" lon="8.949156934395432">
<ele>215.60000000000002</ele>
<time>2023-05-17T09:38:36Z</time>
</trkpt>
<trkpt lat="49.058932922780514" lon="8.949154922738671">
<ele>215.60000000000002</ele>
<time>2023-05-17T09:38:37Z</time>
</trkpt>
<trkpt lat="49.05896192416549" lon="8.949152994900942">
<ele>215.60000000000002</ele>
<time>2023-05-17T09:38:38Z</time>
</trkpt>
<trkpt lat="49.05899293720722" lon="8.949147965759039">
<ele>215.60000000000002</ele>
<time>2023-05-17T09:38:39Z</time>
</trkpt>
<trkpt lat="49.059021938592196" lon="8.949124999344349">
<ele>215.39999999999998</ele>
<time>2023-05-17T09:38:40Z</time>
</trkpt>
<trkpt lat="49.059041971340775" lon="8.949089962989092">
<ele>215.39999999999998</ele>
<time>2023-05-17T09:38:41Z</time>
</trkpt>
<trkpt lat="49.059042977169156" lon="8.949049981310964">
<ele>215.39999999999998</ele>
<time>2023-05-17T09:38:42Z</time>
</trkpt>
<trkpt lat="49.05903794802725" lon="8.94899994134903">
<ele>215.39999999999998</ele>
<time>2023-05-17T09:38:43Z</time>
</trkpt>
<trkpt lat="49.059022944420576" lon="8.948939926922321">
<ele>215.20000000000005</ele>
<time>2023-05-17T09:38:44Z</time>
</trkpt>
<trkpt lat="49.0590079408139" lon="8.948874967172742">
<ele>215.20000000000005</ele>
<time>2023-05-17T09:38:45Z</time>
</trkpt>
<trkpt lat="49.058996960520744" lon="8.948802966624498">
<ele>215.20000000000005</ele>
<time>2023-05-17T09:38:46Z</time>
</trkpt>
<trkpt lat="49.05898698605597" lon="8.948729960247874">
<ele>215</ele>
<time>2023-05-17T09:38:47Z</time>
</trkpt>
<trkpt lat="49.058974999934435" lon="8.948654942214489">
<ele>215</ele>
<time>2023-05-17T09:38:48Z</time>
</trkpt>
<trkpt lat="49.05896494165063" lon="8.948579924181104">
<ele>215</ele>
<time>2023-05-17T09:38:49Z</time>
</trkpt>
<trkpt lat="49.058956978842616" lon="8.948499960824847">
<ele>215</ele>
<time>2023-05-17T09:38:50Z</time>
</trkpt>
<trkpt lat="49.05894692055881" lon="8.94842192530632">
<ele>215</ele>
<time>2023-05-17T09:38:51Z</time>
</trkpt>
<trkpt lat="49.058932922780514" lon="8.948341961950064">
<ele>215</ele>
<time>2023-05-17T09:38:52Z</time>
</trkpt>
<trkpt lat="49.05891791917384" lon="8.948262920603156">
<ele>215</ele>
<time>2023-05-17T09:38:53Z</time>
</trkpt>
<trkpt lat="49.05890299938619" lon="8.9481829572469">
<ele>215</ele>
<time>2023-05-17T09:38:54Z</time>
</trkpt>
<trkpt lat="49.058891935274005" lon="8.948102993890643">
<ele>215</ele>
<time>2023-05-17T09:38:55Z</time>
</trkpt>
<trkpt lat="49.05888196080923" lon="8.948021940886974">
<ele>215</ele>
<time>2023-05-17T09:38:56Z</time>
</trkpt>
<trkpt lat="49.058869974687696" lon="8.947942983359098">
<ele>215</ele>
<time>2023-05-17T09:38:57Z</time>
</trkpt>
<trkpt lat="49.05885497108102" lon="8.947864947840571">
<ele>214.79999999999995</ele>
<time>2023-05-17T09:38:58Z</time>
</trkpt>
<trkpt lat="49.0588419791311" lon="8.947789929807186">
<ele>214.79999999999995</ele>
<time>2023-05-17T09:38:59Z</time>
</trkpt>
<trkpt lat="49.05882999300957" lon="8.947714995592833">
<ele>214.79999999999995</ele>
<time>2023-05-17T09:39:00Z</time>
</trkpt>
<trkpt lat="49.058817923069" lon="8.947639977559447">
<ele>214.79999999999995</ele>
<time>2023-05-17T09:39:01Z</time>
</trkpt>
<trkpt lat="49.058804931119084" lon="8.947564959526062">
<ele>214.79999999999995</ele>
<time>2023-05-17T09:39:02Z</time>
</trkpt>
<trkpt lat="49.05879294499755" lon="8.947497988119721">
<ele>214.79999999999995</ele>
<time>2023-05-17T09:39:03Z</time>
</trkpt>
<trkpt lat="49.058781964704394" lon="8.94743193872273">
<ele>214.79999999999995</ele>
<time>2023-05-17T09:39:04Z</time>
</trkpt>
<trkpt lat="49.0587679669261" lon="8.947361949831247">
<ele>214.79999999999995</ele>
<time>2023-05-17T09:39:05Z</time>
</trkpt>
<trkpt lat="49.05875992029905" lon="8.947291960939765">
<ele>214.79999999999995</ele>
<time>2023-05-17T09:39:06Z</time>
</trkpt>
<trkpt lat="49.05875698663294" lon="8.94721694290638">
<ele>214.79999999999995</ele>
<time>2023-05-17T09:39:07Z</time>
</trkpt>
<trkpt lat="49.05874994583428" lon="8.947142930701375">
<ele>214.79999999999995</ele>
<time>2023-05-17T09:39:08Z</time>
</trkpt>
<trkpt lat="49.05874298885465" lon="8.947069924324751">
<ele>214.79999999999995</ele>
<time>2023-05-17T09:39:09Z</time>
</trkpt>
<trkpt lat="49.058737959712744" lon="8.946999935433269">
<ele>214.79999999999995</ele>
<time>2023-05-17T09:39:10Z</time>
</trkpt>
<trkpt lat="49.05872999690473" lon="8.946931958198547">
<ele>214.79999999999995</ele>
<time>2023-05-17T09:39:11Z</time>
</trkpt>
<trkpt lat="49.058721950277686" lon="8.946864986792207">
<ele>214.79999999999995</ele>
<time>2023-05-17T09:39:12Z</time>
</trkpt>
<trkpt lat="49.05871298164129" lon="8.946799943223596">
<ele>214.79999999999995</ele>
<time>2023-05-17T09:39:13Z</time>
</trkpt>
<trkpt lat="49.058701917529106" lon="8.946726936846972">
<ele>214.79999999999995</ele>
<time>2023-05-17T09:39:14Z</time>
</trkpt>
<trkpt lat="49.05868699774146" lon="8.946649990975857">
<ele>214.79999999999995</ele>
<time>2023-05-17T09:39:15Z</time>
</trkpt>
<trkpt lat="49.05866998247802" lon="8.946576984599233">
<ele>214.79999999999995</ele>
<time>2023-05-17T09:39:16Z</time>
</trkpt>
<trkpt lat="49.05865699052811" lon="8.94650699570775">
<ele>214.79999999999995</ele>
<time>2023-05-17T09:39:17Z</time>
</trkpt>
<trkpt lat="49.05864793807268" lon="8.946437928825617">
<ele>214.79999999999995</ele>
<time>2023-05-17T09:39:18Z</time>
</trkpt>
<trkpt lat="49.05864198692143" lon="8.946369951590896">
<ele>214.79999999999995</ele>
<time>2023-05-17T09:39:19Z</time>
</trkpt>
<trkpt lat="49.05862991698086" lon="8.946302980184555">
<ele>214.79999999999995</ele>
<time>2023-05-17T09:39:20Z</time>
</trkpt>
<trkpt lat="49.058612985536456" lon="8.946232991293073">
<ele>214.79999999999995</ele>
<time>2023-05-17T09:39:21Z</time>
</trkpt>
<trkpt lat="49.058592952787876" lon="8.946162918582559">
<ele>215</ele>
<time>2023-05-17T09:39:22Z</time>
</trkpt>
<trkpt lat="49.05857694335282" lon="8.946087984368205">
<ele>215</ele>
<time>2023-05-17T09:39:23Z</time>
</trkpt>
<trkpt lat="49.05855992808938" lon="8.946016989648342">
<ele>215</ele>
<time>2023-05-17T09:39:24Z</time>
</trkpt>
<trkpt lat="49.0585449244827" lon="8.945944989100099">
<ele>215</ele>
<time>2023-05-17T09:39:25Z</time>
</trkpt>
<trkpt lat="49.05853193253279" lon="8.945876928046346">
<ele>215</ele>
<time>2023-05-17T09:39:26Z</time>
</trkpt>
<trkpt lat="49.05851692892611" lon="8.945807944983244">
<ele>215</ele>
<time>2023-05-17T09:39:27Z</time>
</trkpt>
<trkpt lat="49.05850192531943" lon="8.945739967748523">
<ele>215</ele>
<time>2023-05-17T09:39:28Z</time>
</trkpt>
<trkpt lat="49.058486921712756" lon="8.94566796720028">
<ele>215.20000000000005</ele>
<time>2023-05-17T09:39:29Z</time>
</trkpt>
<trkpt lat="49.05847795307636" lon="8.945596972480416">
<ele>215.20000000000005</ele>
<time>2023-05-17T09:39:30Z</time>
</trkpt>
<trkpt lat="49.05847191810608" lon="8.945524971932173">
<ele>215.20000000000005</ele>
<time>2023-05-17T09:39:31Z</time>
</trkpt>
<trkpt lat="49.05846797861159" lon="8.945451965555549">
<ele>215.20000000000005</ele>
<time>2023-05-17T09:39:32Z</time>
</trkpt>
<trkpt lat="49.058462949469686" lon="8.945379965007305">
<ele>215.39999999999998</ele>
<time>2023-05-17T09:39:33Z</time>
</trkpt>
<trkpt lat="49.058459931984544" lon="8.945307964459062">
<ele>215.39999999999998</ele>
<time>2023-05-17T09:39:34Z</time>
</trkpt>
<trkpt lat="49.05845297500491" lon="8.94523797556758">
<ele>215.39999999999998</ele>
<time>2023-05-17T09:39:35Z</time>
</trkpt>
<trkpt lat="49.05844492837787" lon="8.945169998332858">
<ele>215.39999999999998</ele>
<time>2023-05-17T09:39:36Z</time>
</trkpt>
<trkpt lat="49.05843294225633" lon="8.945099925622344">
<ele>215.39999999999998</ele>
<time>2023-05-17T09:39:37Z</time>
</trkpt>
<trkpt lat="49.05842196196318" lon="8.9450279250741">
<ele>215.60000000000002</ele>
<time>2023-05-17T09:39:38Z</time>
</trkpt>
<trkpt lat="49.05840796418488" lon="8.944957936182618">
<ele>215.60000000000002</ele>
<time>2023-05-17T09:39:39Z</time>
</trkpt>
<trkpt lat="49.058394972234964" lon="8.944884929805994">
<ele>215.60000000000002</ele>
<time>2023-05-17T09:39:40Z</time>
</trkpt>
<trkpt lat="49.05838692560792" lon="8.94481192342937">
<ele>215.60000000000002</ele>
<time>2023-05-17T09:39:41Z</time>
</trkpt>
<trkpt lat="49.05836999416351" lon="8.944739922881126">
<ele>215.60000000000002</ele>
<time>2023-05-17T09:39:42Z</time>
</trkpt>
<trkpt lat="49.058351973071694" lon="8.944669933989644">
<ele>215.79999999999995</ele>
<time>2023-05-17T09:39:43Z</time>
</trkpt>
<trkpt lat="49.058331940323114" lon="8.944599945098162">
<ele>215.79999999999995</ele>
<time>2023-05-17T09:39:44Z</time>
</trkpt>
<trkpt lat="49.058307968080044" lon="8.94453196786344">
<ele>215.79999999999995</ele>
<time>2023-05-17T09:39:45Z</time>
</trkpt>
<trkpt lat="49.058287935331464" lon="8.944461978971958">
<ele>215.79999999999995</ele>
<time>2023-05-17T09:39:46Z</time>
</trkpt>
<trkpt lat="49.058267986401916" lon="8.944389978423715">
<ele>215.79999999999995</ele>
<time>2023-05-17T09:39:47Z</time>
</trkpt>
<trkpt lat="49.0582499653101" lon="8.94431496039033">
<ele>215.79999999999995</ele>
<time>2023-05-17T09:39:48Z</time>
</trkpt>
<trkpt lat="49.05823295004666" lon="8.944239942356944">
<ele>216</ele>
<time>2023-05-17T09:39:49Z</time>
</trkpt>
<trkpt lat="49.05821995809674" lon="8.944164924323559">
<ele>216</ele>
<time>2023-05-17T09:39:50Z</time>
</trkpt>
<trkpt lat="49.058204954490066" lon="8.944091917946935">
<ele>216</ele>
<time>2023-05-17T09:39:51Z</time>
</trkpt>
<trkpt lat="49.05818793922663" lon="8.944017989560962">
<ele>216</ele>
<time>2023-05-17T09:39:52Z</time>
</trkpt>
<trkpt lat="49.05817293561995" lon="8.943946994841099">
<ele>216</ele>
<time>2023-05-17T09:39:53Z</time>
</trkpt>
<trkpt lat="49.05815692618489" lon="8.943876922130585">
<ele>216</ele>
<time>2023-05-17T09:39:54Z</time>
</trkpt>
<trkpt lat="49.058141922578216" lon="8.943807939067483">
<ele>216</ele>
<time>2023-05-17T09:39:55Z</time>
</trkpt>
<trkpt lat="49.05812297947705" lon="8.943744990974665">
<ele>216</ele>
<time>2023-05-17T09:39:56Z</time>
</trkpt>
<trkpt lat="49.05810697004199" lon="8.943677935749292">
<ele>216.20000000000005</ele>
<time>2023-05-17T09:39:57Z</time>
</trkpt>
<trkpt lat="49.05808794312179" lon="8.943612975999713">
<ele>216.20000000000005</ele>
<time>2023-05-17T09:39:58Z</time>
</trkpt>
<trkpt lat="49.05806799419224" lon="8.943544998764992">
<ele>216.20000000000005</ele>
<time>2023-05-17T09:39:59Z</time>
</trkpt>
<trkpt lat="49.05804796144366" lon="8.943476937711239">
<ele>216.20000000000005</ele>
<time>2023-05-17T09:40:00Z</time>
</trkpt>
<trkpt lat="49.05802792869508" lon="8.943407954648137">
<ele>216.20000000000005</ele>
<time>2023-05-17T09:40:01Z</time>
</trkpt>
<trkpt lat="49.058009991422296" lon="8.943339977413416">
<ele>216.20000000000005</ele>
<time>2023-05-17T09:40:02Z</time>
</trkpt>
<trkpt lat="49.05799197033048" lon="8.943269988521934">
<ele>216.20000000000005</ele>
<time>2023-05-17T09:40:03Z</time>
</trkpt>
<trkpt lat="49.05797294341028" lon="8.94319798797369">
<ele>216.20000000000005</ele>
<time>2023-05-17T09:40:04Z</time>
</trkpt>
<trkpt lat="49.05795492231846" lon="8.943126993253827">
<ele>216.20000000000005</ele>
<time>2023-05-17T09:40:05Z</time>
</trkpt>
<trkpt lat="49.05793698504567" lon="8.943054992705584">
<ele>216.20000000000005</ele>
<time>2023-05-17T09:40:06Z</time>
</trkpt>
<trkpt lat="49.057922987267375" lon="8.942979974672198">
<ele>216.20000000000005</ele>
<time>2023-05-17T09:40:07Z</time>
</trkpt>
<trkpt lat="49.05791192315519" lon="8.942901939153671">
<ele>216.20000000000005</ele>
<time>2023-05-17T09:40:08Z</time>
</trkpt>
<trkpt lat="49.05789691954851" lon="8.942824993282557">
<ele>216.20000000000005</ele>
<time>2023-05-17T09:40:09Z</time>
</trkpt>
<trkpt lat="49.057881999760866" lon="8.94274796359241">
<ele>216.20000000000005</ele>
<time>2023-05-17T09:40:10Z</time>
</trkpt>
<trkpt lat="49.0578699298203" lon="8.942669928073883">
<ele>216.39999999999998</ele>
<time>2023-05-17T09:40:11Z</time>
</trkpt>
<trkpt lat="49.05785299837589" lon="8.942596921697259">
<ele>216.39999999999998</ele>
<time>2023-05-17T09:40:12Z</time>
</trkpt>
<trkpt lat="49.057836988940835" lon="8.942524921149015">
<ele>216.39999999999998</ele>
<time>2023-05-17T09:40:13Z</time>
</trkpt>
<trkpt lat="49.05782198533416" lon="8.942449986934662">
<ele>216.39999999999998</ele>
<time>2023-05-17T09:40:14Z</time>
</trkpt>
<trkpt lat="49.05780798755586" lon="8.942376980558038">
<ele>216.39999999999998</ele>
<time>2023-05-17T09:40:15Z</time>
</trkpt>
<trkpt lat="49.057791978120804" lon="8.942302968353033">
<ele>216.39999999999998</ele>
<time>2023-05-17T09:40:16Z</time>
</trkpt>
<trkpt lat="49.057774962857366" lon="8.94223197363317">
<ele>216.39999999999998</ele>
<time>2023-05-17T09:40:17Z</time>
</trkpt>
<trkpt lat="49.057751996442676" lon="8.942164918407798">
<ele>216.39999999999998</ele>
<time>2023-05-17T09:40:18Z</time>
</trkpt>
<trkpt lat="49.05772693455219" lon="8.942097947001457">
<ele>216.39999999999998</ele>
<time>2023-05-17T09:40:19Z</time>
</trkpt>
<trkpt lat="49.05769793316722" lon="8.942031981423497">
<ele>216.60000000000002</ele>
<time>2023-05-17T09:40:20Z</time>
</trkpt>
<trkpt lat="49.057669937610626" lon="8.941961992532015">
<ele>216.60000000000002</ele>
<time>2023-05-17T09:40:21Z</time>
</trkpt>
<trkpt lat="49.05763993039727" lon="8.941896948963404">
<ele>216.60000000000002</ele>
<time>2023-05-17T09:40:22Z</time>
</trkpt>
<trkpt lat="49.05761193484068" lon="8.941834922879934">
<ele>216.60000000000002</ele>
<time>2023-05-17T09:40:23Z</time>
</trkpt>
<trkpt lat="49.05758494511247" lon="8.941767951473594">
<ele>216.60000000000002</ele>
<time>2023-05-17T09:40:24Z</time>
</trkpt>
<trkpt lat="49.05756298452616" lon="8.941701985895634">
<ele>216.60000000000002</ele>
<time>2023-05-17T09:40:25Z</time>
</trkpt>
<trkpt lat="49.0575469750911" lon="8.94162998534739">
<ele>216.60000000000002</ele>
<time>2023-05-17T09:40:26Z</time>
</trkpt>
<trkpt lat="49.057534988969564" lon="8.941554967314005">
<ele>216.60000000000002</ele>
<time>2023-05-17T09:40:27Z</time>
</trkpt>
<trkpt lat="49.0575279481709" lon="8.941477937623858">
<ele>216.60000000000002</ele>
<time>2023-05-17T09:40:28Z</time>
</trkpt>
<trkpt lat="49.05751998536289" lon="8.941404931247234">
<ele>216.60000000000002</ele>
<time>2023-05-17T09:40:29Z</time>
</trkpt>
<trkpt lat="49.05751294456422" lon="8.94133192487061">
<ele>216.60000000000002</ele>
<time>2023-05-17T09:40:30Z</time>
</trkpt>
<trkpt lat="49.05750799924135" lon="8.941259924322367">
<ele>216.60000000000002</ele>
<time>2023-05-17T09:40:31Z</time>
</trkpt>
<trkpt lat="49.05750297009945" lon="8.941191947087646">
<ele>216.79999999999995</ele>
<time>2023-05-17T09:40:32Z</time>
</trkpt>
<trkpt lat="49.05749995261431" lon="8.941126987338066">
<ele>216.79999999999995</ele>
<time>2023-05-17T09:40:33Z</time>
</trkpt>
<trkpt lat="49.057491989806294" lon="8.941056998446584">
<ele>216.79999999999995</ele>
<time>2023-05-17T09:40:34Z</time>
</trkpt>
<trkpt lat="49.057474974542856" lon="8.940992960706353">
<ele>216.79999999999995</ele>
<time>2023-05-17T09:40:35Z</time>
</trkpt>
<trkpt lat="49.057451924309134" lon="8.940934957936406">
<ele>216.79999999999995</ele>
<time>2023-05-17T09:40:36Z</time>
</trkpt>
<trkpt lat="49.05742493458092" lon="8.94087796099484">
<ele>216.79999999999995</ele>
<time>2023-05-17T09:40:37Z</time>
</trkpt>
<trkpt lat="49.05739794485271" lon="8.940821969881654">
<ele>217</ele>
<time>2023-05-17T09:40:38Z</time>
</trkpt>
<trkpt lat="49.05737196095288" lon="8.940764972940087">
<ele>217</ele>
<time>2023-05-17T09:40:39Z</time>
</trkpt>
<trkpt lat="49.05734991654754" lon="8.94070697017014">
<ele>217</ele>
<time>2023-05-17T09:40:40Z</time>
</trkpt>
<trkpt lat="49.05732996761799" lon="8.940649973228574">
<ele>217</ele>
<time>2023-05-17T09:40:41Z</time>
</trkpt>
<trkpt lat="49.05730993486941" lon="8.94059699960053">
<ele>217</ele>
<time>2023-05-17T09:40:42Z</time>
</trkpt>
<trkpt lat="49.05728998593986" lon="8.940542936325073">
<ele>217.20000000000005</ele>
<time>2023-05-17T09:40:43Z</time>
</trkpt>
<trkpt lat="49.05726693570614" lon="8.94049197435379">
<ele>217.20000000000005</ele>
<time>2023-05-17T09:40:44Z</time>
</trkpt>
<trkpt lat="49.05724195763469" lon="8.940441934391856">
<ele>217.20000000000005</ele>
<time>2023-05-17T09:40:45Z</time>
</trkpt>
<trkpt lat="49.057212956249714" lon="8.940396923571825">
<ele>217.20000000000005</ele>
<time>2023-05-17T09:40:46Z</time>
</trkpt>
<trkpt lat="49.05718797817826" lon="8.94036297686398">
<ele>217.39999999999998</ele>
<time>2023-05-17T09:40:47Z</time>
</trkpt>
<trkpt lat="49.05715998262167" lon="8.940324923023582">
<ele>217.39999999999998</ele>
<time>2023-05-17T09:40:48Z</time>
</trkpt>
<trkpt lat="49.05713693238795" lon="8.940289970487356">
<ele>217.39999999999998</ele>
<time>2023-05-17T09:40:49Z</time>
</trkpt>
<trkpt lat="49.0571119543165" lon="8.940257951617241">
<ele>217.60000000000002</ele>
<time>2023-05-17T09:40:50Z</time>
</trkpt>
<trkpt lat="49.05708999373019" lon="8.940221993252635">
<ele>217.60000000000002</ele>
<time>2023-05-17T09:40:51Z</time>
</trkpt>
<trkpt lat="49.05707297846675" lon="8.940184945240617">
<ele>217.60000000000002</ele>
<time>2023-05-17T09:40:52Z</time>
</trkpt>
<trkpt lat="49.057061998173594" lon="8.94014697521925">
<ele>217.79999999999995</ele>
<time>2023-05-17T09:40:53Z</time>
</trkpt>
<trkpt lat="49.05704992823303" lon="8.9401029702276">
<ele>217.79999999999995</ele>
<time>2023-05-17T09:40:54Z</time>
</trkpt>
<trkpt lat="49.05703995376825" lon="8.940056953579187">
<ele>218</ele>
<time>2023-05-17T09:40:55Z</time>
</trkpt>
<trkpt lat="49.05702796764672" lon="8.940002974122763">
<ele>218</ele>
<time>2023-05-17T09:40:56Z</time>
</trkpt>
<trkpt lat="49.0570099465549" lon="8.939946983009577">
<ele>218</ele>
<time>2023-05-17T09:40:57Z</time>
</trkpt>
<trkpt lat="49.05698798596859" lon="8.939884956926107">
<ele>218</ele>
<time>2023-05-17T09:40:58Z</time>
</trkpt>
<trkpt lat="49.05696493573487" lon="8.939821925014257">
<ele>218</ele>
<time>2023-05-17T09:40:59Z</time>
</trkpt>
<trkpt lat="49.05694196932018" lon="8.939756965264678">
<ele>218</ele>
<time>2023-05-17T09:41:00Z</time>
</trkpt>
<trkpt lat="49.05691699124873" lon="8.939694939181209">
<ele>218</ele>
<time>2023-05-17T09:41:01Z</time>
</trkpt>
<trkpt lat="49.05688991770148" lon="8.93962997943163">
<ele>218</ele>
<time>2023-05-17T09:41:02Z</time>
</trkpt>
<trkpt lat="49.05686292797327" lon="8.93956694751978">
<ele>217.79999999999995</ele>
<time>2023-05-17T09:41:03Z</time>
</trkpt>
<trkpt lat="49.056832920759916" lon="8.93950299359858">
<ele>217.79999999999995</ele>
<time>2023-05-17T09:41:04Z</time>
</trkpt>
<trkpt lat="49.056806936860085" lon="8.93943795002997">
<ele>217.79999999999995</ele>
<time>2023-05-17T09:41:05Z</time>
</trkpt>
<trkpt lat="49.05677793547511" lon="8.93937491811812">
<ele>217.79999999999995</ele>
<time>2023-05-17T09:41:06Z</time>
</trkpt>
<trkpt lat="49.05675698071718" lon="8.939307946711779">
<ele>217.79999999999995</ele>
<time>2023-05-17T09:41:07Z</time>
</trkpt>
<trkpt lat="49.05673795379698" lon="8.939239969477057">
<ele>217.79999999999995</ele>
<time>2023-05-17T09:41:08Z</time>
</trkpt>
<trkpt lat="49.056721944361925" lon="8.939171992242336">
<ele>217.79999999999995</ele>
<time>2023-05-17T09:41:09Z</time>
</trkpt>
<trkpt lat="49.05670694075525" lon="8.939104937016964">
<ele>217.79999999999995</ele>
<time>2023-05-17T09:41:10Z</time>
</trkpt>
<trkpt lat="49.0566869918257" lon="8.939039977267385">
<ele>217.79999999999995</ele>
<time>2023-05-17T09:41:11Z</time>
</trkpt>
<trkpt lat="49.05666695907712" lon="8.93898499198258">
<ele>217.79999999999995</ele>
<time>2023-05-17T09:41:12Z</time>
</trkpt>
<trkpt lat="49.05664793215692" lon="8.938927995041013">
<ele>217.79999999999995</ele>
<time>2023-05-17T09:41:13Z</time>
</trkpt>
<trkpt lat="49.05663292855024" lon="8.938872925937176">
<ele>217.79999999999995</ele>
<time>2023-05-17T09:41:14Z</time>
</trkpt>
<trkpt lat="49.05661993660033" lon="8.938819952309132">
<ele>217.79999999999995</ele>
<time>2023-05-17T09:41:15Z</time>
</trkpt>
<trkpt lat="49.05660795047879" lon="8.93877292983234">
<ele>217.79999999999995</ele>
<time>2023-05-17T09:41:16Z</time>
</trkpt>
<trkpt lat="49.05659797601402" lon="8.93872993066907">
<ele>217.79999999999995</ele>
<time>2023-05-17T09:41:17Z</time>
</trkpt>
<trkpt lat="49.05658699572086" lon="8.9386869315058">
<ele>217.79999999999995</ele>
<time>2023-05-17T09:41:18Z</time>
</trkpt>
<trkpt lat="49.05658196657896" lon="8.938642926514149">
<ele>218</ele>
<time>2023-05-17T09:41:19Z</time>
</trkpt>
<trkpt lat="49.056574925780296" lon="8.93859799951315">
<ele>218</ele>
<time>2023-05-17T09:41:20Z</time>
</trkpt>
<trkpt lat="49.05656696297228" lon="8.938554916530848">
<ele>218</ele>
<time>2023-05-17T09:41:21Z</time>
</trkpt>
<trkpt lat="49.05655698850751" lon="8.938504960387945">
<ele>218</ele>
<time>2023-05-17T09:41:22Z</time>
</trkpt>
<trkpt lat="49.05655296519399" lon="8.938456932082772">
<ele>218</ele>
<time>2023-05-17T09:41:23Z</time>
</trkpt>
<trkpt lat="49.05654491856694" lon="8.938392978161573">
<ele>218</ele>
<time>2023-05-17T09:41:24Z</time>
</trkpt>
<trkpt lat="49.0565299987793" lon="8.938327934592962">
<ele>218.20000000000005</ele>
<time>2023-05-17T09:41:25Z</time>
</trkpt>
<trkpt lat="49.05651994049549" lon="8.938261969015002">
<ele>218.20000000000005</ele>
<time>2023-05-17T09:41:26Z</time>
</trkpt>
<trkpt lat="49.056507954373956" lon="8.93819198012352">
<ele>218.20000000000005</ele>
<time>2023-05-17T09:41:27Z</time>
</trkpt>
<trkpt lat="49.05649999156594" lon="8.938121991232038">
<ele>218.20000000000005</ele>
<time>2023-05-17T09:41:28Z</time>
</trkpt>
<trkpt lat="49.0564969740808" lon="8.938059965148568">
<ele>218.20000000000005</ele>
<time>2023-05-17T09:41:29Z</time>
</trkpt>
<trkpt lat="49.05648993328214" lon="8.937991987913847">
<ele>218.39999999999998</ele>
<time>2023-05-17T09:41:30Z</time>
</trkpt>
<trkpt lat="49.05647995881736" lon="8.937917975708842">
<ele>218.39999999999998</ele>
<time>2023-05-17T09:41:31Z</time>
</trkpt>
<trkpt lat="49.05646998435259" lon="8.93784798681736">
<ele>218.39999999999998</ele>
<time>2023-05-17T09:41:32Z</time>
</trkpt>
<trkpt lat="49.056461937725544" lon="8.937779925763607">
<ele>218.39999999999998</ele>
<time>2023-05-17T09:41:33Z</time>
</trkpt>
<trkpt lat="49.05645498074591" lon="8.937712954357266">
<ele>218.60000000000002</ele>
<time>2023-05-17T09:41:34Z</time>
</trkpt>
<trkpt lat="49.056442994624376" lon="8.937639947980642">
<ele>218.60000000000002</ele>
<time>2023-05-17T09:41:35Z</time>
</trkpt>
<trkpt lat="49.05643193051219" lon="8.937571970745921">
<ele>218.60000000000002</ele>
<time>2023-05-17T09:41:36Z</time>
</trkpt>
<trkpt lat="49.056422961875796" lon="8.93750793300569">
<ele>218.60000000000002</ele>
<time>2023-05-17T09:41:37Z</time>
</trkpt>
<trkpt lat="49.05641298741102" lon="8.93743995577097">
<ele>218.79999999999995</ele>
<time>2023-05-17T09:41:38Z</time>
</trkpt>
<trkpt lat="49.056401923298836" lon="8.937371978536248">
<ele>218.79999999999995</ele>
<time>2023-05-17T09:41:39Z</time>
</trkpt>
<trkpt lat="49.05638792552054" lon="8.937307940796018">
<ele>218.79999999999995</ele>
<time>2023-05-17T09:41:40Z</time>
</trkpt>
<trkpt lat="49.05636797659099" lon="8.9372449927032">
<ele>219</ele>
<time>2023-05-17T09:41:41Z</time>
</trkpt>
<trkpt lat="49.05634492635727" lon="8.937176931649446">
<ele>219</ele>
<time>2023-05-17T09:41:42Z</time>
</trkpt>
<trkpt lat="49.05631994828582" lon="8.937099985778332">
<ele>219</ele>
<time>2023-05-17T09:41:43Z</time>
</trkpt>
<trkpt lat="49.056291952729225" lon="8.937039971351624">
<ele>219</ele>
<time>2023-05-17T09:41:44Z</time>
</trkpt>
<trkpt lat="49.05625792220235" lon="8.936977945268154">
<ele>219</ele>
<time>2023-05-17T09:41:45Z</time>
</trkpt>
<trkpt lat="49.05622196383774" lon="8.936911979690194">
<ele>219.20000000000005</ele>
<time>2023-05-17T09:41:46Z</time>
</trkpt>
<trkpt lat="49.056184999644756" lon="8.936852971091866">
<ele>219.20000000000005</ele>
<time>2023-05-17T09:41:47Z</time>
</trkpt>
<trkpt lat="49.0561499632895" lon="8.936799997463822">
<ele>219.20000000000005</ele>
<time>2023-05-17T09:41:48Z</time>
</trkpt>
<trkpt lat="49.056117944419384" lon="8.936746940016747">
<ele>219.20000000000005</ele>
<time>2023-05-17T09:41:49Z</time>
</trkpt>
<trkpt lat="49.05608693137765" lon="8.936694972217083">
<ele>219.20000000000005</ele>
<time>2023-05-17T09:41:50Z</time>
</trkpt>
<trkpt lat="49.056057929992676" lon="8.936641998589039">
<ele>219.20000000000005</ele>
<time>2023-05-17T09:41:51Z</time>
</trkpt>
<trkpt lat="49.05602993443608" lon="8.936591958627105">
<ele>219.39999999999998</ele>
<time>2023-05-17T09:41:52Z</time>
</trkpt>
<trkpt lat="49.05599992722273" lon="8.936539990827441">
<ele>219.39999999999998</ele>
<time>2023-05-17T09:41:53Z</time>
</trkpt>
<trkpt lat="49.055967992171645" lon="8.936487939208746">
<ele>219.60000000000002</ele>
<time>2023-05-17T09:41:54Z</time>
</trkpt>
<trkpt lat="49.05593697912991" lon="8.936434965580702">
<ele>219.60000000000002</ele>
<time>2023-05-17T09:41:55Z</time>
</trkpt>
<trkpt lat="49.055902948603034" lon="8.936381991952658">
<ele>219.60000000000002</ele>
<time>2023-05-17T09:41:56Z</time>
</trkpt>
<trkpt lat="49.05586992390454" lon="8.93632692284882">
<ele>219.79999999999995</ele>
<time>2023-05-17T09:41:57Z</time>
</trkpt>
<trkpt lat="49.055836983025074" lon="8.936267998069525">
<ele>219.79999999999995</ele>
<time>2023-05-17T09:41:58Z</time>
</trkpt>
<trkpt lat="49.05580496415496" lon="8.936211923137307">
<ele>219.79999999999995</ele>
<time>2023-05-17T09:41:59Z</time>
</trkpt>
<trkpt lat="49.05577294528484" lon="8.936157943680882">
<ele>220</ele>
<time>2023-05-17T09:42:00Z</time>
</trkpt>
<trkpt lat="49.05574696138501" lon="8.9361069817096">
<ele>220</ele>
<time>2023-05-17T09:42:01Z</time>
</trkpt>
<trkpt lat="49.05571796000004" lon="8.936059959232807">
<ele>220</ele>
<time>2023-05-17T09:42:02Z</time>
</trkpt>
<trkpt lat="49.055691976100206" lon="8.936012936756015">
<ele>220</ele>
<time>2023-05-17T09:42:03Z</time>
</trkpt>
<trkpt lat="49.055666998028755" lon="8.935966920107603">
<ele>220</ele>
<time>2023-05-17T09:42:04Z</time>
</trkpt>
<trkpt lat="49.05564294196665" lon="8.935917969793081">
<ele>220</ele>
<time>2023-05-17T09:42:05Z</time>
</trkpt>
<trkpt lat="49.055621987208724" lon="8.93587195314467">
<ele>220</ele>
<time>2023-05-17T09:42:06Z</time>
</trkpt>
<trkpt lat="49.05559692531824" lon="8.935827948153019">
<ele>220</ele>
<time>2023-05-17T09:42:07Z</time>
</trkpt>
<trkpt lat="49.05557194724679" lon="8.935784948989749">
<ele>220</ele>
<time>2023-05-17T09:42:08Z</time>
</trkpt>
<trkpt lat="49.05554495751858" lon="8.93574496731162">
<ele>220</ele>
<time>2023-05-17T09:42:09Z</time>
</trkpt>
<trkpt lat="49.05551495030522" lon="8.935706997290254">
<ele>220</ele>
<time>2023-05-17T09:42:10Z</time>
</trkpt>
<trkpt lat="49.05548293143511" lon="8.935669949278235">
<ele>220</ele>
<time>2023-05-17T09:42:11Z</time>
</trkpt>
<trkpt lat="49.055449990555644" lon="8.935632985085249">
<ele>220.20000000000005</ele>
<time>2023-05-17T09:42:12Z</time>
</trkpt>
<trkpt lat="49.05541696585715" lon="8.935596942901611">
<ele>220.20000000000005</ele>
<time>2023-05-17T09:42:13Z</time>
</trkpt>
<trkpt lat="49.05538192950189" lon="8.935556961223483">
<ele>220.20000000000005</ele>
<time>2023-05-17T09:42:14Z</time>
</trkpt>
<trkpt lat="49.05534999445081" lon="8.935514967888594">
<ele>220.20000000000005</ele>
<time>2023-05-17T09:42:15Z</time>
</trkpt>
<trkpt lat="49.05531998723745" lon="8.93546492792666">
<ele>220.20000000000005</ele>
<time>2023-05-17T09:42:16Z</time>
</trkpt>
<trkpt lat="49.05529492534697" lon="8.935409942641854">
<ele>220.20000000000005</ele>
<time>2023-05-17T09:42:17Z</time>
</trkpt>
<trkpt lat="49.05527195893228" lon="8.935351939871907">
<ele>220.20000000000005</ele>
<time>2023-05-17T09:42:18Z</time>
</trkpt>
<trkpt lat="49.0552519261837" lon="8.935286980122328">
<ele>220.20000000000005</ele>
<time>2023-05-17T09:42:19Z</time>
</trkpt>
<trkpt lat="49.05523298308253" lon="8.935217997059226">
<ele>220.20000000000005</ele>
<time>2023-05-17T09:42:20Z</time>
</trkpt>
<trkpt lat="49.055216973647475" lon="8.935151947662234">
<ele>220.39999999999998</ele>
<time>2023-05-17T09:42:21Z</time>
</trkpt>
<trkpt lat="49.05520498752594" lon="8.935084976255894">
<ele>220.39999999999998</ele>
<time>2023-05-17T09:42:22Z</time>
</trkpt>
<trkpt lat="49.055197946727276" lon="8.935016999021173">
<ele>220.39999999999998</ele>
<time>2023-05-17T09:42:23Z</time>
</trkpt>
<trkpt lat="49.05519291758537" lon="8.934944998472929">
<ele>220.39999999999998</ele>
<time>2023-05-17T09:42:24Z</time>
</trkpt>
<trkpt lat="49.0551829431206" lon="8.934877943247557">
<ele>220.60000000000002</ele>
<time>2023-05-17T09:42:25Z</time>
</trkpt>
<trkpt lat="49.055174980312586" lon="8.934811977669597">
<ele>220.60000000000002</ele>
<time>2023-05-17T09:42:26Z</time>
</trkpt>
<trkpt lat="49.05516198836267" lon="8.934744922444224">
<ele>220.60000000000002</ele>
<time>2023-05-17T09:42:27Z</time>
</trkpt>
<trkpt lat="49.05514799058437" lon="8.934676945209503">
<ele>220.79999999999995</ele>
<time>2023-05-17T09:42:28Z</time>
</trkpt>
<trkpt lat="49.05513692647219" lon="8.934607962146401">
<ele>220.79999999999995</ele>
<time>2023-05-17T09:42:29Z</time>
</trkpt>
<trkpt lat="49.05512292869389" lon="8.934541996568441">
<ele>220.79999999999995</ele>
<time>2023-05-17T09:42:30Z</time>
</trkpt>
<trkpt lat="49.055109936743975" lon="8.934472929686308">
<ele>221</ele>
<time>2023-05-17T09:42:31Z</time>
</trkpt>
<trkpt lat="49.05509694479406" lon="8.934402940794826">
<ele>221</ele>
<time>2023-05-17T09:42:32Z</time>
</trkpt>
<trkpt lat="49.05508294701576" lon="8.934332951903343">
<ele>221</ele>
<time>2023-05-17T09:42:33Z</time>
</trkpt>
<trkpt lat="49.05507196672261" lon="8.934264974668622">
<ele>221.20000000000005</ele>
<time>2023-05-17T09:42:34Z</time>
</trkpt>
<trkpt lat="49.055066937580705" lon="8.934191968291998">
<ele>221.20000000000005</ele>
<time>2023-05-17T09:42:35Z</time>
</trkpt>
<trkpt lat="49.055066937580705" lon="8.934122985228896">
<ele>221.20000000000005</ele>
<time>2023-05-17T09:42:36Z</time>
</trkpt>
<trkpt lat="49.055066937580705" lon="8.934054924175143">
<ele>221.20000000000005</ele>
<time>2023-05-17T09:42:37Z</time>
</trkpt>
<trkpt lat="49.05507297255099" lon="8.933984935283661">
<ele>221.20000000000005</ele>
<time>2023-05-17T09:42:38Z</time>
</trkpt>
<trkpt lat="49.05508294701576" lon="8.933911928907037">
<ele>221.39999999999998</ele>
<time>2023-05-17T09:42:39Z</time>
</trkpt>
<trkpt lat="49.05509292148054" lon="8.933836994692683">
<ele>221.39999999999998</ele>
<time>2023-05-17T09:42:40Z</time>
</trkpt>
<trkpt lat="49.05510297976434" lon="8.93376792781055">
<ele>221.39999999999998</ele>
<time>2023-05-17T09:42:41Z</time>
</trkpt>
<trkpt lat="49.055112954229116" lon="8.93370296806097">
<ele>221.60000000000002</ele>
<time>2023-05-17T09:42:42Z</time>
</trkpt>
<trkpt lat="49.055129969492555" lon="8.93363792449236">
<ele>221.60000000000002</ele>
<time>2023-05-17T09:42:43Z</time>
</trkpt>
<trkpt lat="49.0551499184221" lon="8.933574976399541">
<ele>221.60000000000002</ele>
<time>2023-05-17T09:42:44Z</time>
</trkpt>
<trkpt lat="49.05516995117068" lon="8.933511944487691">
<ele>221.60000000000002</ele>
<time>2023-05-17T09:42:45Z</time>
</trkpt>
<trkpt lat="49.055194929242134" lon="8.933454947546124">
<ele>221.60000000000002</ele>
<time>2023-05-17T09:42:46Z</time>
</trkpt>
<trkpt lat="49.055216973647475" lon="8.933389987796545">
<ele>221.60000000000002</ele>
<time>2023-05-17T09:42:47Z</time>
</trkpt>
<trkpt lat="49.055234994739294" lon="8.933316981419921">
<ele>221.60000000000002</ele>
<time>2023-05-17T09:42:48Z</time>
</trkpt>
<trkpt lat="49.0552569553256" lon="8.933249926194549">
<ele>221.79999999999995</ele>
<time>2023-05-17T09:42:49Z</time>
</trkpt>
<trkpt lat="49.05527698807418" lon="8.933182954788208">
<ele>221.79999999999995</ele>
<time>2023-05-17T09:42:50Z</time>
</trkpt>
<trkpt lat="49.05529794283211" lon="8.93312193453312">
<ele>221.79999999999995</ele>
<time>2023-05-17T09:42:51Z</time>
</trkpt>
<trkpt lat="49.055324932560325" lon="8.933062925934792">
<ele>221.79999999999995</ele>
<time>2023-05-17T09:42:52Z</time>
</trkpt>
<trkpt lat="49.05534999445081" lon="8.933004923164845">
<ele>221.79999999999995</ele>
<time>2023-05-17T09:42:53Z</time>
</trkpt>
<trkpt lat="49.0553729608655" lon="8.932939963415265">
<ele>221.79999999999995</ele>
<time>2023-05-17T09:42:54Z</time>
</trkpt>
<trkpt lat="49.05539693310857" lon="8.932877937331796">
<ele>221.79999999999995</ele>
<time>2023-05-17T09:42:55Z</time>
</trkpt>
<trkpt lat="49.05542199499905" lon="8.932816917076707">
<ele>221.79999999999995</ele>
<time>2023-05-17T09:42:56Z</time>
</trkpt>
<trkpt lat="49.0554469730705" lon="8.932752963155508">
<ele>221.79999999999995</ele>
<time>2023-05-17T09:42:57Z</time>
</trkpt>
<trkpt lat="49.055472956970334" lon="8.932696972042322">
<ele>222</ele>
<time>2023-05-17T09:42:58Z</time>
</trkpt>
<trkpt lat="49.05549491755664" lon="8.932641986757517">
<ele>222</ele>
<time>2023-05-17T09:42:59Z</time>
</trkpt>
<trkpt lat="49.055517967790365" lon="8.93258297815919">
<ele>222</ele>
<time>2023-05-17T09:43:00Z</time>
</trkpt>
<trkpt lat="49.05554797500372" lon="8.932524975389242">
<ele>222</ele>
<time>2023-05-17T09:43:01Z</time>
</trkpt>
<trkpt lat="49.05557496473193" lon="8.932466972619295">
<ele>222</ele>
<time>2023-05-17T09:43:02Z</time>
</trkpt>
<trkpt lat="49.055602960288525" lon="8.932409975677729">
<ele>222</ele>
<time>2023-05-17T09:43:03Z</time>
</trkpt>
<trkpt lat="49.05563296750188" lon="8.93234996125102">
<ele>222.20000000000005</ele>
<time>2023-05-17T09:43:04Z</time>
</trkpt>
<trkpt lat="49.05566196888685" lon="8.932292964309454">
<ele>222.20000000000005</ele>
<time>2023-05-17T09:43:05Z</time>
</trkpt>
<trkpt lat="49.05569298192859" lon="8.93223999068141">
<ele>222.20000000000005</ele>
<time>2023-05-17T09:43:06Z</time>
</trkpt>
<trkpt lat="49.05572298914194" lon="8.932187939062715">
<ele>222.20000000000005</ele>
<time>2023-05-17T09:43:07Z</time>
</trkpt>
<trkpt lat="49.055754924193025" lon="8.932136977091432">
<ele>222.39999999999998</ele>
<time>2023-05-17T09:43:08Z</time>
</trkpt>
<trkpt lat="49.05578694306314" lon="8.932079980149865">
<ele>222.39999999999998</ele>
<time>2023-05-17T09:43:09Z</time>
</trkpt>
<trkpt lat="49.055817956104875" lon="8.93202792853117">
<ele>222.60000000000002</ele>
<time>2023-05-17T09:43:10Z</time>
</trkpt>
<trkpt lat="49.05585299246013" lon="8.9319849293679">
<ele>222.60000000000002</ele>
<time>2023-05-17T09:43:11Z</time>
</trkpt>
<trkpt lat="49.05588995665312" lon="8.93194293603301">
<ele>222.60000000000002</ele>
<time>2023-05-17T09:43:12Z</time>
</trkpt>
<trkpt lat="49.055929938331246" lon="8.93189792521298">
<ele>222.60000000000002</ele>
<time>2023-05-17T09:43:13Z</time>
</trkpt>
<trkpt lat="49.055966986343265" lon="8.931859955191612">
<ele>222.79999999999995</ele>
<time>2023-05-17T09:43:14Z</time>
</trkpt>
<trkpt lat="49.05599992722273" lon="8.931816956028342">
<ele>222.79999999999995</ele>
<time>2023-05-17T09:43:15Z</time>
</trkpt>
<trkpt lat="49.05603798106313" lon="8.931776974350214">
<ele>222.79999999999995</ele>
<time>2023-05-17T09:43:16Z</time>
</trkpt>
<trkpt lat="49.05608198605478" lon="8.931734981015325">
<ele>223</ele>
<time>2023-05-17T09:43:17Z</time>
</trkpt>
<trkpt lat="49.05612699687481" lon="8.931692987680435">
<ele>223</ele>
<time>2023-05-17T09:43:18Z</time>
</trkpt>
<trkpt lat="49.05617192387581" lon="8.931654933840036">
<ele>223</ele>
<time>2023-05-17T09:43:19Z</time>
</trkpt>
<trkpt lat="49.05621299520135" lon="8.931611934676766">
<ele>223</ele>
<time>2023-05-17T09:43:20Z</time>
</trkpt>
<trkpt lat="49.05625297687948" lon="8.931569941341877">
<ele>223</ele>
<time>2023-05-17T09:43:21Z</time>
</trkpt>
<trkpt lat="49.056291952729225" lon="8.931524930521846">
<ele>223</ele>
<time>2023-05-17T09:43:22Z</time>
</trkpt>
<trkpt lat="49.05632698908448" lon="8.931477991864085">
<ele>223</ele>
<time>2023-05-17T09:43:23Z</time>
</trkpt>
<trkpt lat="49.056359929963946" lon="8.931427951902151">
<ele>223.20000000000005</ele>
<time>2023-05-17T09:43:24Z</time>
</trkpt>
<trkpt lat="49.05639194883406" lon="8.93138193525374">
<ele>223.20000000000005</ele>
<time>2023-05-17T09:43:25Z</time>
</trkpt>
<trkpt lat="49.05642497353256" lon="8.931337930262089">
<ele>223.20000000000005</ele>
<time>2023-05-17T09:43:26Z</time>
</trkpt>
<trkpt lat="49.05645799823105" lon="8.931286968290806">
<ele>223.20000000000005</ele>
<time>2023-05-17T09:43:27Z</time>
</trkpt>
<trkpt lat="49.0564919449389" lon="8.931237934157252">
<ele>223.20000000000005</ele>
<time>2023-05-17T09:43:28Z</time>
</trkpt>
<trkpt lat="49.05653293244541" lon="8.931196946650743">
<ele>223.20000000000005</ele>
<time>2023-05-17T09:43:29Z</time>
</trkpt>
<trkpt lat="49.05657693743706" lon="8.931157970800996">
<ele>223.20000000000005</ele>
<time>2023-05-17T09:43:30Z</time>
</trkpt>
<trkpt lat="49.056612979620695" lon="8.931117989122868">
<ele>223.20000000000005</ele>
<time>2023-05-17T09:43:31Z</time>
</trkpt>
<trkpt lat="49.05665195547044" lon="8.931086976081133">
<ele>223.20000000000005</ele>
<time>2023-05-17T09:43:32Z</time>
</trkpt>
<trkpt lat="49.05668799765408" lon="8.931054957211018">
<ele>223.20000000000005</ele>
<time>2023-05-17T09:43:33Z</time>
</trkpt>
<trkpt lat="49.056719932705164" lon="8.931021932512522">
<ele>223.20000000000005</ele>
<time>2023-05-17T09:43:34Z</time>
</trkpt>
<trkpt lat="49.05674993991852" lon="8.930987985804677">
<ele>223.20000000000005</ele>
<time>2023-05-17T09:43:35Z</time>
</trkpt>
<trkpt lat="49.05678195878863" lon="8.930962923914194">
<ele>223.20000000000005</ele>
<time>2023-05-17T09:43:36Z</time>
</trkpt>
<trkpt lat="49.056809954345226" lon="8.930934928357601">
<ele>223.20000000000005</ele>
<time>2023-05-17T09:43:37Z</time>
</trkpt>
<trkpt lat="49.05683694407344" lon="8.93090995028615">
<ele>223.39999999999998</ele>
<time>2023-05-17T09:43:38Z</time>
</trkpt>
<trkpt lat="49.05685697682202" lon="8.93086695112288">
<ele>223.39999999999998</ele>
<time>2023-05-17T09:43:39Z</time>
</trkpt>
<trkpt lat="49.05688296072185" lon="8.930834932252765">
<ele>223.60000000000002</ele>
<time>2023-05-17T09:43:40Z</time>
</trkpt>
<trkpt lat="49.05690995045006" lon="8.930797968059778">
<ele>223.60000000000002</ele>
<time>2023-05-17T09:43:41Z</time>
</trkpt>
<trkpt lat="49.056931994855404" lon="8.930754968896508">
<ele>223.60000000000002</ele>
<time>2023-05-17T09:43:42Z</time>
</trkpt>
<trkpt lat="49.05695294961333" lon="8.930716998875141">
<ele>223.79999999999995</ele>
<time>2023-05-17T09:43:43Z</time>
</trkpt>
<trkpt lat="49.0569769218564" lon="8.930679950863123">
<ele>223.79999999999995</ele>
<time>2023-05-17T09:43:44Z</time>
</trkpt>
<trkpt lat="49.056997960433364" lon="8.930642986670136">
<ele>223.79999999999995</ele>
<time>2023-05-17T09:43:45Z</time>
</trkpt>
<trkpt lat="49.05701195821166" lon="8.930602921172976">
<ele>223.79999999999995</ele>
<time>2023-05-17T09:43:46Z</time>
</trkpt>
<trkpt lat="49.057024950161576" lon="8.93056495115161">
<ele>224</ele>
<time>2023-05-17T09:43:47Z</time>
</trkpt>
<trkpt lat="49.05703693628311" lon="8.930531926453114">
<ele>224</ele>
<time>2023-05-17T09:43:48Z</time>
</trkpt>
<trkpt lat="49.05704699456692" lon="8.930497979745269">
<ele>224</ele>
<time>2023-05-17T09:43:49Z</time>
</trkpt>
<trkpt lat="49.05705696903169" lon="8.930462943390012">
<ele>224</ele>
<time>2023-05-17T09:43:50Z</time>
</trkpt>
<trkpt lat="49.057067949324846" lon="8.930422961711884">
<ele>224.20000000000005</ele>
<time>2023-05-17T09:43:51Z</time>
</trkpt>
<trkpt lat="49.05707297846675" lon="8.930376945063472">
<ele>224.20000000000005</ele>
<time>2023-05-17T09:43:52Z</time>
</trkpt>
<trkpt lat="49.05707499012351" lon="8.93032799474895">
<ele>224.20000000000005</ele>
<time>2023-05-17T09:43:53Z</time>
</trkpt>
<trkpt lat="49.05707297846675" lon="8.930274937301874">
<ele>224.39999999999998</ele>
<time>2023-05-17T09:43:54Z</time>
</trkpt>
<trkpt lat="49.05707499012351" lon="8.930219952017069">
<ele>224.39999999999998</ele>
<time>2023-05-17T09:43:55Z</time>
</trkpt>
<trkpt lat="49.05707691796124" lon="8.93015993759036">
<ele>224.39999999999998</ele>
<time>2023-05-17T09:43:56Z</time>
</trkpt>
<trkpt lat="49.05707792378962" lon="8.930096989497542">
<ele>224.39999999999998</ele>
<time>2023-05-17T09:43:57Z</time>
</trkpt>
<trkpt lat="49.05707792378962" lon="8.930031945928931">
<ele>224.60000000000002</ele>
<time>2023-05-17T09:43:58Z</time>
</trkpt>
<trkpt lat="49.05708194710314" lon="8.929967992007732">
<ele>224.60000000000002</ele>
<time>2023-05-17T09:43:59Z</time>
</trkpt>
<trkpt lat="49.057086976245046" lon="8.929907977581024">
<ele>224.60000000000002</ele>
<time>2023-05-17T09:44:00Z</time>
</trkpt>
<trkpt lat="49.05709192156792" lon="8.929851986467838">
<ele>224.60000000000002</ele>
<time>2023-05-17T09:44:01Z</time>
</trkpt>
<trkpt lat="49.05709493905306" lon="8.929794989526272">
<ele>224.60000000000002</ele>
<time>2023-05-17T09:44:02Z</time>
</trkpt>
<trkpt lat="49.05709493905306" lon="8.929736986756325">
<ele>224.60000000000002</ele>
<time>2023-05-17T09:44:03Z</time>
</trkpt>
<trkpt lat="49.0570929273963" lon="8.929679989814758">
<ele>224.60000000000002</ele>
<time>2023-05-17T09:44:04Z</time>
</trkpt>
<trkpt lat="49.057087982073426" lon="8.929621987044811">
<ele>224.79999999999995</ele>
<time>2023-05-17T09:44:05Z</time>
</trkpt>
<trkpt lat="49.05708295293152" lon="8.929564990103245">
<ele>224.79999999999995</ele>
<time>2023-05-17T09:44:06Z</time>
</trkpt>
<trkpt lat="49.05707792378962" lon="8.929507993161678">
<ele>224.79999999999995</ele>
<time>2023-05-17T09:44:07Z</time>
</trkpt>
<trkpt lat="49.05707197263837" lon="8.929464993998408">
<ele>224.79999999999995</ele>
<time>2023-05-17T09:44:08Z</time>
</trkpt>
<trkpt lat="49.057067949324846" lon="8.929439932107925">
<ele>224.79999999999995</ele>
<time>2023-05-17T09:44:09Z</time>
</trkpt>
<trkpt lat="49.057061998173594" lon="8.929421994835138">
<ele>225</ele>
<time>2023-05-17T09:44:10Z</time>
</trkpt>
<trkpt lat="49.05705797486007" lon="8.929401962086558">
<ele>225</ele>
<time>2023-05-17T09:44:11Z</time>
</trkpt>
<trkpt lat="49.05705495737493" lon="8.92938494682312">
<ele>225</ele>
<time>2023-05-17T09:44:12Z</time>
</trkpt>
<trkpt lat="49.05705696903169" lon="8.92936298623681">
<ele>225.20000000000005</ele>
<time>2023-05-17T09:44:13Z</time>
</trkpt>
<trkpt lat="49.05705797486007" lon="8.929336918517947">
<ele>225.20000000000005</ele>
<time>2023-05-17T09:44:14Z</time>
</trkpt>
<trkpt lat="49.05706292018294" lon="8.929307917132974">
<ele>225.20000000000005</ele>
<time>2023-05-17T09:44:15Z</time>
</trkpt>
<trkpt lat="49.05707297846675" lon="8.929281933233142">
<ele>225.20000000000005</ele>
<time>2023-05-17T09:44:16Z</time>
</trkpt>
<trkpt lat="49.05708999373019" lon="8.929252931848168">
<ele>225.20000000000005</ele>
<time>2023-05-17T09:44:17Z</time>
</trkpt>
<trkpt lat="49.0571119543165" lon="8.929219990968704">
<ele>225.39999999999998</ele>
<time>2023-05-17T09:44:18Z</time>
</trkpt>
<trkpt lat="49.05713793821633" lon="8.929182942956686">
<ele>225.39999999999998</ele>
<time>2023-05-17T09:44:19Z</time>
</trkpt>
<trkpt lat="49.05716492794454" lon="8.92914698459208">
<ele>225.39999999999998</ele>
<time>2023-05-17T09:44:20Z</time>
</trkpt>
<trkpt lat="49.057196946814656" lon="8.9291079249233">
<ele>225.39999999999998</ele>
<time>2023-05-17T09:44:21Z</time>
</trkpt>
<trkpt lat="49.05722997151315" lon="8.929067943245173">
<ele>225.60000000000002</ele>
<time>2023-05-17T09:44:22Z</time>
</trkpt>
<trkpt lat="49.05726199038327" lon="8.929027961567044">
<ele>225.60000000000002</ele>
<time>2023-05-17T09:44:23Z</time>
</trkpt>
<trkpt lat="49.05729199759662" lon="8.928979933261871">
<ele>225.60000000000002</ele>
<time>2023-05-17T09:44:24Z</time>
</trkpt>
<trkpt lat="49.057319993153214" lon="8.92893299460411">
<ele>225.79999999999995</ele>
<time>2023-05-17T09:44:25Z</time>
</trkpt>
<trkpt lat="49.057342959567904" lon="8.928884966298938">
<ele>225.79999999999995</ele>
<time>2023-05-17T09:44:26Z</time>
</trkpt>
<trkpt lat="49.05736994929612" lon="8.928842972964048">
<ele>225.79999999999995</ele>
<time>2023-05-17T09:44:27Z</time>
</trkpt>
<trkpt lat="49.05739693902433" lon="8.928799973800778">
<ele>226</ele>
<time>2023-05-17T09:44:28Z</time>
</trkpt>
<trkpt lat="49.05742292292416" lon="8.928756974637508">
<ele>226.20000000000005</ele>
<time>2023-05-17T09:44:29Z</time>
</trkpt>
<trkpt lat="49.057451924309134" lon="8.92871799878776">
<ele>226.39999999999998</ele>
<time>2023-05-17T09:44:30Z</time>
</trkpt>
<trkpt lat="49.05747698619962" lon="8.92867692746222">
<ele>226.39999999999998</ele>
<time>2023-05-17T09:44:31Z</time>
</trkpt>
<trkpt lat="49.05750498175621" lon="8.928631916642189">
<ele>226.60000000000002</ele>
<time>2023-05-17T09:44:32Z</time>
</trkpt>
<trkpt lat="49.05753197148442" lon="8.9285899233073">
<ele>226.79999999999995</ele>
<time>2023-05-17T09:44:33Z</time>
</trkpt>
<trkpt lat="49.05755493789911" lon="8.928532926365733">
<ele>227</ele>
<time>2023-05-17T09:44:34Z</time>
</trkpt>
<trkpt lat="49.057577988132834" lon="8.928487999364734">
<ele>227</ele>
<time>2023-05-17T09:44:35Z</time>
</trkpt>
<trkpt lat="49.057602966204286" lon="8.92843997105956">
<ele>227.20000000000005</ele>
<time>2023-05-17T09:44:36Z</time>
</trkpt>
<trkpt lat="49.05762794427574" lon="8.928392948582768">
<ele>227.39999999999998</ele>
<time>2023-05-17T09:44:37Z</time>
</trkpt>
<trkpt lat="49.05765694566071" lon="8.928344920277596">
<ele>227.39999999999998</ele>
<time>2023-05-17T09:44:38Z</time>
</trkpt>
<trkpt lat="49.0576849412173" lon="8.928292952477932">
<ele>227.60000000000002</ele>
<time>2023-05-17T09:44:39Z</time>
</trkpt>
<trkpt lat="49.057711930945516" lon="8.928241990506649">
<ele>227.60000000000002</ele>
<time>2023-05-17T09:44:40Z</time>
</trkpt>
<trkpt lat="49.05774193815887" lon="8.928187927231193">
<ele>227.79999999999995</ele>
<time>2023-05-17T09:44:41Z</time>
</trkpt>
<trkpt lat="49.05776993371546" lon="8.928131936118007">
<ele>227.79999999999995</ele>
<time>2023-05-17T09:44:42Z</time>
</trkpt>
<trkpt lat="49.057797929272056" lon="8.928071921691298">
<ele>228</ele>
<time>2023-05-17T09:44:43Z</time>
</trkpt>
<trkpt lat="49.05782994814217" lon="8.92800997942686">
<ele>228</ele>
<time>2023-05-17T09:44:44Z</time>
</trkpt>
<trkpt lat="49.057861967012286" lon="8.927951976656914">
<ele>228.20000000000005</ele>
<time>2023-05-17T09:44:45Z</time>
</trkpt>
<trkpt lat="49.05788996256888" lon="8.927887938916683">
<ele>228.20000000000005</ele>
<time>2023-05-17T09:44:46Z</time>
</trkpt>
<trkpt lat="49.05791494064033" lon="8.927819961681962">
<ele>228.20000000000005</ele>
<time>2023-05-17T09:44:47Z</time>
</trkpt>
<trkpt lat="49.05793991871178" lon="8.92775491811335">
<ele>228.39999999999998</ele>
<time>2023-05-17T09:44:48Z</time>
</trkpt>
<trkpt lat="49.057964980602264" lon="8.927692975848913">
<ele>228.39999999999998</ele>
<time>2023-05-17T09:44:49Z</time>
</trkpt>
<trkpt lat="49.057989958673716" lon="8.927626926451921">
<ele>228.39999999999998</ele>
<time>2023-05-17T09:44:50Z</time>
</trkpt>
<trkpt lat="49.058012925088406" lon="8.92755794338882">
<ele>228.39999999999998</ele>
<time>2023-05-17T09:44:51Z</time>
</trkpt>
<trkpt lat="49.05803698115051" lon="8.927489966154099">
<ele>228.39999999999998</ele>
<time>2023-05-17T09:44:52Z</time>
</trkpt>
<trkpt lat="49.058056930080056" lon="8.927422994747758">
<ele>228.39999999999998</ele>
<time>2023-05-17T09:44:53Z</time>
</trkpt>
<trkpt lat="49.058072939515114" lon="8.927349988371134">
<ele>228.39999999999998</ele>
<time>2023-05-17T09:44:54Z</time>
</trkpt>
<trkpt lat="49.05808995477855" lon="8.92727698199451">
<ele>228.39999999999998</ele>
<time>2023-05-17T09:44:55Z</time>
</trkpt>
<trkpt lat="49.05810294672847" lon="8.927204981446266">
<ele>228.39999999999998</ele>
<time>2023-05-17T09:44:56Z</time>
</trkpt>
<trkpt lat="49.058116944506764" lon="8.927124934270978">
<ele>228.39999999999998</ele>
<time>2023-05-17T09:44:57Z</time>
</trkpt>
<trkpt lat="49.05812792479992" lon="8.927039941772819">
<ele>228.39999999999998</ele>
<time>2023-05-17T09:44:58Z</time>
</trkpt>
<trkpt lat="49.058136977255344" lon="8.926957966759801">
<ele>228.39999999999998</ele>
<time>2023-05-17T09:44:59Z</time>
</trkpt>
<trkpt lat="49.05814695172012" lon="8.926876997575164">
<ele>228.39999999999998</ele>
<time>2023-05-17T09:45:00Z</time>
</trkpt>
<trkpt lat="49.05815692618489" lon="8.926796950399876">
<ele>228.39999999999998</ele>
<time>2023-05-17T09:45:01Z</time>
</trkpt>
<trkpt lat="49.058162961155176" lon="8.92671698704362">
<ele>228.39999999999998</ele>
<time>2023-05-17T09:45:02Z</time>
</trkpt>
<trkpt lat="49.0581669844687" lon="8.926639957353473">
<ele>228.39999999999998</ele>
<time>2023-05-17T09:45:03Z</time>
</trkpt>
<trkpt lat="49.05817192979157" lon="8.926566950976849">
<ele>228.39999999999998</ele>
<time>2023-05-17T09:45:04Z</time>
</trkpt>
<trkpt lat="49.05817494727671" lon="8.926496962085366">
<ele>228.39999999999998</ele>
<time>2023-05-17T09:45:05Z</time>
</trkpt>
<trkpt lat="49.058179976418614" lon="8.926427979022264">
<ele>228.39999999999998</ele>
<time>2023-05-17T09:45:06Z</time>
</trkpt>
<trkpt lat="49.058184921741486" lon="8.926362935453653">
<ele>228.60000000000002</ele>
<time>2023-05-17T09:45:07Z</time>
</trkpt>
<trkpt lat="49.05818995088339" lon="8.926299987360835">
<ele>228.60000000000002</ele>
<time>2023-05-17T09:45:08Z</time>
</trkpt>
<trkpt lat="49.05819699168205" lon="8.926232932135463">
<ele>228.79999999999995</ele>
<time>2023-05-17T09:45:09Z</time>
</trkpt>
<trkpt lat="49.058201937004924" lon="8.926166966557503">
<ele>229</ele>
<time>2023-05-17T09:45:10Z</time>
</trkpt>
<trkpt lat="49.058204954490066" lon="8.926097983494401">
<ele>229</ele>
<time>2023-05-17T09:45:11Z</time>
</trkpt>
<trkpt lat="49.05820998363197" lon="8.926026988774538">
<ele>229.20000000000005</ele>
<time>2023-05-17T09:45:12Z</time>
</trkpt>
<trkpt lat="49.05821492895484" lon="8.925956999883056">
<ele>229.39999999999998</ele>
<time>2023-05-17T09:45:13Z</time>
</trkpt>
<trkpt lat="49.058221969753504" lon="8.925886927172542">
<ele>229.39999999999998</ele>
<time>2023-05-17T09:45:14Z</time>
</trkpt>
<trkpt lat="49.058222975581884" lon="8.925821967422962">
<ele>229.60000000000002</ele>
<time>2023-05-17T09:45:15Z</time>
</trkpt>
<trkpt lat="49.05821794643998" lon="8.92575197853148">
<ele>229.60000000000002</ele>
<time>2023-05-17T09:45:16Z</time>
</trkpt>
<trkpt lat="49.05821199528873" lon="8.925684923306108">
<ele>229.79999999999995</ele>
<time>2023-05-17T09:45:17Z</time>
</trkpt>
<trkpt lat="49.058202942833304" lon="8.925614934414625">
<ele>229.79999999999995</ele>
<time>2023-05-17T09:45:18Z</time>
</trkpt>
<trkpt lat="49.05819498002529" lon="8.925546957179904">
<ele>229.79999999999995</ele>
<time>2023-05-17T09:45:19Z</time>
</trkpt>
<trkpt lat="49.05818793922663" lon="8.925477974116802">
<ele>229.79999999999995</ele>
<time>2023-05-17T09:45:20Z</time>
</trkpt>
<trkpt lat="49.05817695893347" lon="8.925414942204952">
<ele>230</ele>
<time>2023-05-17T09:45:21Z</time>
</trkpt>
<trkpt lat="49.05816991813481" lon="8.92534495331347">
<ele>230</ele>
<time>2023-05-17T09:45:22Z</time>
</trkpt>
<trkpt lat="49.05816497281194" lon="8.925271946936846">
<ele>230</ele>
<time>2023-05-17T09:45:23Z</time>
</trkpt>
<trkpt lat="49.058161955326796" lon="8.925199946388602">
<ele>230</ele>
<time>2023-05-17T09:45:24Z</time>
</trkpt>
<trkpt lat="49.05815692618489" lon="8.925122916698456">
<ele>229.79999999999995</ele>
<time>2023-05-17T09:45:25Z</time>
</trkpt>
<trkpt lat="49.05815499834716" lon="8.925047982484102">
<ele>229.79999999999995</ele>
<time>2023-05-17T09:45:26Z</time>
</trkpt>
<trkpt lat="49.05815692618489" lon="8.924969946965575">
<ele>229.79999999999995</ele>
<time>2023-05-17T09:45:27Z</time>
</trkpt>
<trkpt lat="49.05815692618489" lon="8.924889983609319">
<ele>229.60000000000002</ele>
<time>2023-05-17T09:45:28Z</time>
</trkpt>
<trkpt lat="49.058159943670034" lon="8.924811948090792">
<ele>229.60000000000002</ele>
<time>2023-05-17T09:45:29Z</time>
</trkpt>
<trkpt lat="49.058162961155176" lon="8.924734918400645">
<ele>229.60000000000002</ele>
<time>2023-05-17T09:45:30Z</time>
</trkpt>
<trkpt lat="49.058161955326796" lon="8.924654955044389">
<ele>229.39999999999998</ele>
<time>2023-05-17T09:45:31Z</time>
</trkpt>
<trkpt lat="49.05815499834716" lon="8.924577925354242">
<ele>229.39999999999998</ele>
<time>2023-05-17T09:45:32Z</time>
</trkpt>
<trkpt lat="49.058141922578216" lon="8.92450693063438">
<ele>229.39999999999998</ele>
<time>2023-05-17T09:45:33Z</time>
</trkpt>
<trkpt lat="49.05812993645668" lon="8.924432918429375">
<ele>229.39999999999998</ele>
<time>2023-05-17T09:45:34Z</time>
</trkpt>
<trkpt lat="49.05812297947705" lon="8.924359995871782">
<ele>229.39999999999998</ele>
<time>2023-05-17T09:45:35Z</time>
</trkpt>
<trkpt lat="49.058117950335145" lon="8.924287995323539">
<ele>229.39999999999998</ele>
<time>2023-05-17T09:45:36Z</time>
</trkpt>
<trkpt lat="49.05811493285" lon="8.924217922613025">
<ele>229.39999999999998</ele>
<time>2023-05-17T09:45:37Z</time>
</trkpt>
<trkpt lat="49.05811292119324" lon="8.924151957035065">
<ele>229.39999999999998</ele>
<time>2023-05-17T09:45:38Z</time>
</trkpt>
<trkpt lat="49.058116944506764" lon="8.924091942608356">
<ele>229.39999999999998</ele>
<time>2023-05-17T09:45:39Z</time>
</trkpt>
<trkpt lat="49.058116944506764" lon="8.924024971202016">
<ele>229.39999999999998</ele>
<time>2023-05-17T09:45:40Z</time>
</trkpt>
<trkpt lat="49.05811292119324" lon="8.923962945118546">
<ele>229.39999999999998</ele>
<time>2023-05-17T09:45:41Z</time>
</trkpt>
<trkpt lat="49.05810797587037" lon="8.923902930691838">
<ele>229.39999999999998</ele>
<time>2023-05-17T09:45:42Z</time>
</trkpt>
<trkpt lat="49.05810797587037" lon="8.923841994255781">
<ele>229.39999999999998</ele>
<time>2023-05-17T09:45:43Z</time>
</trkpt>
<trkpt lat="49.05810797587037" lon="8.923781979829073">
<ele>229.39999999999998</ele>
<time>2023-05-17T09:45:44Z</time>
</trkpt>
<trkpt lat="49.05810797587037" lon="8.923717942088842">
<ele>229.60000000000002</ele>
<time>2023-05-17T09:45:45Z</time>
</trkpt>
<trkpt lat="49.05810797587037" lon="8.923656921833754">
<ele>229.79999999999995</ele>
<time>2023-05-17T09:45:46Z</time>
</trkpt>
<trkpt lat="49.05810697004199" lon="8.923594979569316">
<ele>229.79999999999995</ele>
<time>2023-05-17T09:45:47Z</time>
</trkpt>
<trkpt lat="49.05810697004199" lon="8.923532953485847">
<ele>230</ele>
<time>2023-05-17T09:45:48Z</time>
</trkpt>
<trkpt lat="49.05810495838523" lon="8.923467993736267">
<ele>230.20000000000005</ele>
<time>2023-05-17T09:45:49Z</time>
</trkpt>
<trkpt lat="49.05810697004199" lon="8.923402950167656">
<ele>230.39999999999998</ele>
<time>2023-05-17T09:45:50Z</time>
</trkpt>
<trkpt lat="49.05810998752713" lon="8.923341929912567">
<ele>230.60000000000002</ele>
<time>2023-05-17T09:45:51Z</time>
</trkpt>
<trkpt lat="49.05811199918389" lon="8.92327998764813">
<ele>230.79999999999995</ele>
<time>2023-05-17T09:45:52Z</time>
</trkpt>
<trkpt lat="49.05810998752713" lon="8.92321796156466">
<ele>231</ele>
<time>2023-05-17T09:45:53Z</time>
</trkpt>
<trkpt lat="49.05810495838523" lon="8.923161970451474">
<ele>231.20000000000005</ele>
<time>2023-05-17T09:45:54Z</time>
</trkpt>
<trkpt lat="49.058096995577216" lon="8.923104973509908">
<ele>231.39999999999998</ele>
<time>2023-05-17T09:45:55Z</time>
</trkpt>
<trkpt lat="49.05808794312179" lon="8.92304697073996">
<ele>231.60000000000002</ele>
<time>2023-05-17T09:45:56Z</time>
</trkpt>
<trkpt lat="49.058076962828636" lon="8.922984944656491">
<ele>231.79999999999995</ele>
<time>2023-05-17T09:45:57Z</time>
</trkpt>
<trkpt lat="49.05806296505034" lon="8.922921996563673">
<ele>232</ele>
<time>2023-05-17T09:45:58Z</time>
</trkpt>
<trkpt lat="49.058051984757185" lon="8.922864999622107">
<ele>232.20000000000005</ele>
<time>2023-05-17T09:45:59Z</time>
</trkpt>
<trkpt lat="49.05803698115051" lon="8.922804985195398">
<ele>232.39999999999998</ele>
<time>2023-05-17T09:46:00Z</time>
</trkpt>
<trkpt lat="49.05802499502897" lon="8.92274497076869">
<ele>232.60000000000002</ele>
<time>2023-05-17T09:46:01Z</time>
</trkpt>
<trkpt lat="49.058009991422296" lon="8.92268294468522">
<ele>232.79999999999995</ele>
<time>2023-05-17T09:46:02Z</time>
</trkpt>
<trkpt lat="49.05799699947238" lon="8.922624941915274">
<ele>232.79999999999995</ele>
<time>2023-05-17T09:46:03Z</time>
</trkpt>
<trkpt lat="49.05797998420894" lon="8.922566939145327">
<ele>233</ele>
<time>2023-05-17T09:46:04Z</time>
</trkpt>
<trkpt lat="49.057964980602264" lon="8.922506924718618">
<ele>233.20000000000005</ele>
<time>2023-05-17T09:46:05Z</time>
</trkpt>
<trkpt lat="49.057946959510446" lon="8.922446994110942">
<ele>233.39999999999998</ele>
<time>2023-05-17T09:46:06Z</time>
</trkpt>
<trkpt lat="49.057924998924136" lon="8.922386979684234">
<ele>233.60000000000002</ele>
<time>2023-05-17T09:46:07Z</time>
</trkpt>
<trkpt lat="49.057902954518795" lon="8.922327971085906">
<ele>233.60000000000002</ele>
<time>2023-05-17T09:46:08Z</time>
</trkpt>
<trkpt lat="49.057882921770215" lon="8.922269968315959">
<ele>233.79999999999995</ele>
<time>2023-05-17T09:46:09Z</time>
</trkpt>
<trkpt lat="49.05786297284067" lon="8.92220995388925">
<ele>234</ele>
<time>2023-05-17T09:46:10Z</time>
</trkpt>
<trkpt lat="49.05784696340561" lon="8.922152956947684">
<ele>234.20000000000005</ele>
<time>2023-05-17T09:46:11Z</time>
</trkpt>
<trkpt lat="49.05782994814217" lon="8.922092942520976">
<ele>234.39999999999998</ele>
<time>2023-05-17T09:46:12Z</time>
</trkpt>
<trkpt lat="49.05781192705035" lon="8.922032928094268">
<ele>234.60000000000002</ele>
<time>2023-05-17T09:46:13Z</time>
</trkpt>
<trkpt lat="49.057794995605946" lon="8.92197492532432">
<ele>234.79999999999995</ele>
<time>2023-05-17T09:46:14Z</time>
</trkpt>
<trkpt lat="49.05777697451413" lon="8.921919940039515">
<ele>235</ele>
<time>2023-05-17T09:46:15Z</time>
</trkpt>
<trkpt lat="49.05775794759393" lon="8.921862943097949">
<ele>235.20000000000005</ele>
<time>2023-05-17T09:46:16Z</time>
</trkpt>
<trkpt lat="49.05774495564401" lon="8.921811981126666">
<ele>235.39999999999998</ele>
<time>2023-05-17T09:46:17Z</time>
</trkpt>
<trkpt lat="49.057732969522476" lon="8.92175992950797">
<ele>235.60000000000002</ele>
<time>2023-05-17T09:46:18Z</time>
</trkpt>
<trkpt lat="49.05771997757256" lon="8.921704944223166">
<ele>235.60000000000002</ele>
<time>2023-05-17T09:46:19Z</time>
</trkpt>
<trkpt lat="49.05770296230912" lon="8.92164995893836">
<ele>235.79999999999995</ele>
<time>2023-05-17T09:46:20Z</time>
</trkpt>
<trkpt lat="49.057687958702445" lon="8.921601930633187">
<ele>236</ele>
<time>2023-05-17T09:46:21Z</time>
</trkpt>
<trkpt lat="49.05767697840929" lon="8.921559937298298">
<ele>236.20000000000005</ele>
<time>2023-05-17T09:46:22Z</time>
</trkpt>
<trkpt lat="49.057662980630994" lon="8.92152196727693">
<ele>236.39999999999998</ele>
<time>2023-05-17T09:46:23Z</time>
</trkpt>
<trkpt lat="49.05765191651881" lon="8.921481985598803">
<ele>236.60000000000002</ele>
<time>2023-05-17T09:46:24Z</time>
</trkpt>
<trkpt lat="49.05763791874051" lon="8.921437980607152">
<ele>236.79999999999995</ele>
<time>2023-05-17T09:46:25Z</time>
</trkpt>
<trkpt lat="49.057624926790595" lon="8.921397998929024">
<ele>237</ele>
<time>2023-05-17T09:46:26Z</time>
</trkpt>
<trkpt lat="49.05761294066906" lon="8.921359945088625">
<ele>237.20000000000005</ele>
<time>2023-05-17T09:46:27Z</time>
</trkpt>
<trkpt lat="49.057602966204286" lon="8.921322980895638">
<ele>237.60000000000002</ele>
<time>2023-05-17T09:46:28Z</time>
</trkpt>
<trkpt lat="49.05759491957724" lon="8.921286938712">
<ele>237.79999999999995</ele>
<time>2023-05-17T09:46:29Z</time>
</trkpt>
<trkpt lat="49.05758796259761" lon="8.921249974519014">
<ele>238</ele>
<time>2023-05-17T09:46:30Z</time>
</trkpt>
<trkpt lat="49.057577988132834" lon="8.921209992840886">
<ele>238.20000000000005</ele>
<time>2023-05-17T09:46:31Z</time>
</trkpt>
<trkpt lat="49.05756692402065" lon="8.921171939000487">
<ele>238.39999999999998</ele>
<time>2023-05-17T09:46:32Z</time>
</trkpt>
<trkpt lat="49.05755292624235" lon="8.921131957322359">
<ele>238.60000000000002</ele>
<time>2023-05-17T09:46:33Z</time>
</trkpt>
<trkpt lat="49.057537922635674" lon="8.92109197564423">
<ele>238.79999999999995</ele>
<time>2023-05-17T09:46:34Z</time>
</trkpt>
<trkpt lat="49.05752493068576" lon="8.921052999794483">
<ele>239</ele>
<time>2023-05-17T09:46:35Z</time>
</trkpt>
<trkpt lat="49.05751193873584" lon="8.921012934297323">
<ele>239.20000000000005</ele>
<time>2023-05-17T09:46:36Z</time>
</trkpt>
<trkpt lat="49.057496935129166" lon="8.920969935134053">
<ele>239.39999999999998</ele>
<time>2023-05-17T09:46:37Z</time>
</trkpt>
<trkpt lat="49.05748193152249" lon="8.920924924314022">
<ele>239.60000000000002</ele>
<time>2023-05-17T09:46:38Z</time>
</trkpt>
<trkpt lat="49.05746491625905" lon="8.920881925150752">
<ele>239.79999999999995</ele>
<time>2023-05-17T09:46:39Z</time>
</trkpt>
<trkpt lat="49.057447984814644" lon="8.920837920159101">
<ele>240</ele>
<time>2023-05-17T09:46:40Z</time>
</trkpt>
<trkpt lat="49.057429963722825" lon="8.920796932652593">
<ele>240.20000000000005</ele>
<time>2023-05-17T09:46:41Z</time>
</trkpt>
<trkpt lat="49.05741294845939" lon="8.920752927660942">
<ele>240.39999999999998</ele>
<time>2023-05-17T09:46:42Z</time>
</trkpt>
<trkpt lat="49.05739693902433" lon="8.920707916840911">
<ele>240.60000000000002</ele>
<time>2023-05-17T09:46:43Z</time>
</trkpt>
<trkpt lat="49.05738294124603" lon="8.920664917677641">
<ele>240.79999999999995</ele>
<time>2023-05-17T09:46:44Z</time>
</trkpt>
<trkpt lat="49.057366931810975" lon="8.920619990676641">
<ele>240.79999999999995</ele>
<time>2023-05-17T09:46:45Z</time>
</trkpt>
<trkpt lat="49.05734991654754" lon="8.92057497985661">
<ele>241</ele>
<time>2023-05-17T09:46:46Z</time>
</trkpt>
<trkpt lat="49.05733197927475" lon="8.92053198069334">
<ele>241.20000000000005</ele>
<time>2023-05-17T09:46:47Z</time>
</trkpt>
<trkpt lat="49.05731295235455" lon="8.920489987358451">
<ele>241.39999999999998</ele>
<time>2023-05-17T09:46:48Z</time>
</trkpt>
<trkpt lat="49.05729493126273" lon="8.920446988195181">
<ele>241.60000000000002</ele>
<time>2023-05-17T09:46:49Z</time>
</trkpt>
<trkpt lat="49.057277999818325" lon="8.92040197737515">
<ele>241.79999999999995</ele>
<time>2023-05-17T09:46:50Z</time>
</trkpt>
<trkpt lat="49.05726199038327" lon="8.920361995697021">
<ele>242</ele>
<time>2023-05-17T09:46:51Z</time>
</trkpt>
<trkpt lat="49.05724698677659" lon="8.9203199185431">
<ele>242</ele>
<time>2023-05-17T09:46:52Z</time>
</trkpt>
<trkpt lat="49.05722997151315" lon="8.920279936864972">
<ele>242.20000000000005</ele>
<time>2023-05-17T09:46:53Z</time>
</trkpt>
<trkpt lat="49.057214967906475" lon="8.920236937701702">
<ele>242.39999999999998</ele>
<time>2023-05-17T09:46:54Z</time>
</trkpt>
<trkpt lat="49.05720197595656" lon="8.920189999043941">
<ele>242.60000000000002</ele>
<time>2023-05-17T09:46:55Z</time>
</trkpt>
<trkpt lat="49.05718697234988" lon="8.920141970738769">
<ele>242.79999999999995</ele>
<time>2023-05-17T09:46:56Z</time>
</trkpt>
<trkpt lat="49.057172974571586" lon="8.920091930776834">
<ele>243</ele>
<time>2023-05-17T09:46:57Z</time>
</trkpt>
<trkpt lat="49.05715797096491" lon="8.920042980462313">
<ele>243</ele>
<time>2023-05-17T09:46:58Z</time>
</trkpt>
<trkpt lat="49.05714497901499" lon="8.919996963813901">
<ele>243.20000000000005</ele>
<time>2023-05-17T09:46:59Z</time>
</trkpt>
<trkpt lat="49.057126957923174" lon="8.91995195299387">
<ele>243.39999999999998</ele>
<time>2023-05-17T09:47:00Z</time>
</trkpt>
<trkpt lat="49.057107931002975" lon="8.919904930517077">
<ele>243.39999999999998</ele>
<time>2023-05-17T09:47:01Z</time>
</trkpt>
<trkpt lat="49.05708999373019" lon="8.919856986030936">
<ele>243.60000000000002</ele>
<time>2023-05-17T09:47:02Z</time>
</trkpt>
<trkpt lat="49.05707499012351" lon="8.919809963554144">
<ele>243.79999999999995</ele>
<time>2023-05-17T09:47:03Z</time>
</trkpt>
<trkpt lat="49.05705495737493" lon="8.919761935248971">
<ele>243.79999999999995</ele>
<time>2023-05-17T09:47:04Z</time>
</trkpt>
<trkpt lat="49.05703794211149" lon="8.91971499659121">
<ele>244</ele>
<time>2023-05-17T09:47:05Z</time>
</trkpt>
<trkpt lat="49.057022938504815" lon="8.919667974114418">
<ele>244</ele>
<time>2023-05-17T09:47:06Z</time>
</trkpt>
<trkpt lat="49.05700793489814" lon="8.919621957466006">
<ele>244</ele>
<time>2023-05-17T09:47:07Z</time>
</trkpt>
<trkpt lat="49.05698999762535" lon="8.919574934989214">
<ele>244.20000000000005</ele>
<time>2023-05-17T09:47:08Z</time>
</trkpt>
<trkpt lat="49.056974994018674" lon="8.919529924169183">
<ele>244.20000000000005</ele>
<time>2023-05-17T09:47:09Z</time>
</trkpt>
<trkpt lat="49.056961918249726" lon="8.91947996802628">
<ele>244.39999999999998</ele>
<time>2023-05-17T09:47:10Z</time>
</trkpt>
<trkpt lat="49.05694792047143" lon="8.91943495720625">
<ele>244.39999999999998</ele>
<time>2023-05-17T09:47:11Z</time>
</trkpt>
<trkpt lat="49.05693291686475" lon="8.919386928901076">
<ele>244.60000000000002</ele>
<time>2023-05-17T09:47:12Z</time>
</trkpt>
<trkpt lat="49.05691992491484" lon="8.919337978586555">
<ele>244.79999999999995</ele>
<time>2023-05-17T09:47:13Z</time>
</trkpt>
<trkpt lat="49.05690693296492" lon="8.919289950281382">
<ele>244.79999999999995</ele>
<time>2023-05-17T09:47:14Z</time>
</trkpt>
<trkpt lat="49.05688798986375" lon="8.919241921976209">
<ele>245</ele>
<time>2023-05-17T09:47:15Z</time>
</trkpt>
<trkpt lat="49.05687692575157" lon="8.919202946126461">
<ele>245</ele>
<time>2023-05-17T09:47:16Z</time>
</trkpt>
<trkpt lat="49.05686493963003" lon="8.919162964448333">
<ele>245.20000000000005</ele>
<time>2023-05-17T09:47:17Z</time>
</trkpt>
<trkpt lat="49.056851947680116" lon="8.919122982770205">
<ele>245.20000000000005</ele>
<time>2023-05-17T09:47:18Z</time>
</trkpt>
<trkpt lat="49.05683996155858" lon="8.919081995263696">
<ele>245.39999999999998</ele>
<time>2023-05-17T09:47:19Z</time>
</trkpt>
<trkpt lat="49.056827975437045" lon="8.919041929766536">
<ele>245.39999999999998</ele>
<time>2023-05-17T09:47:20Z</time>
</trkpt>
<trkpt lat="49.05681699514389" lon="8.918996918946505">
<ele>245.60000000000002</ele>
<time>2023-05-17T09:47:21Z</time>
</trkpt>
<trkpt lat="49.056806936860085" lon="8.918952997773886">
<ele>245.79999999999995</ele>
<time>2023-05-17T09:47:22Z</time>
</trkpt>
<trkpt lat="49.05679293908179" lon="8.918907986953855">
<ele>245.79999999999995</ele>
<time>2023-05-17T09:47:23Z</time>
</trkpt>
<trkpt lat="49.05677994713187" lon="8.918866999447346">
<ele>246</ele>
<time>2023-05-17T09:47:24Z</time>
</trkpt>
<trkpt lat="49.056764943525195" lon="8.918831963092089">
<ele>246.20000000000005</ele>
<time>2023-05-17T09:47:25Z</time>
</trkpt>
<trkpt lat="49.05674993991852" lon="8.918801955878735">
<ele>246.20000000000005</ele>
<time>2023-05-17T09:47:26Z</time>
</trkpt>
<trkpt lat="49.056742982938886" lon="8.91876993700862">
<ele>246.39999999999998</ele>
<time>2023-05-17T09:47:27Z</time>
</trkpt>
<trkpt lat="49.0567319188267" lon="8.918729955330491">
<ele>246.60000000000002</ele>
<time>2023-05-17T09:47:28Z</time>
</trkpt>
<trkpt lat="49.056719932705164" lon="8.918687961995602">
<ele>246.60000000000002</ele>
<time>2023-05-17T09:47:29Z</time>
</trkpt>
<trkpt lat="49.05671196989715" lon="8.918647980317473">
<ele>246.79999999999995</ele>
<time>2023-05-17T09:47:30Z</time>
</trkpt>
<trkpt lat="49.056699983775616" lon="8.918604981154203">
<ele>247</ele>
<time>2023-05-17T09:47:31Z</time>
</trkpt>
<trkpt lat="49.05669193714857" lon="8.918557958677411">
<ele>247.20000000000005</ele>
<time>2023-05-17T09:47:32Z</time>
</trkpt>
<trkpt lat="49.0566819626838" lon="8.918514959514141">
<ele>247.20000000000005</ele>
<time>2023-05-17T09:47:33Z</time>
</trkpt>
<trkpt lat="49.05666997656226" lon="8.918476989492774">
<ele>247.39999999999998</ele>
<time>2023-05-17T09:47:34Z</time>
</trkpt>
<trkpt lat="49.056659918278456" lon="8.918431978672743">
<ele>247.60000000000002</ele>
<time>2023-05-17T09:47:35Z</time>
</trkpt>
<trkpt lat="49.05664994381368" lon="8.918392919003963">
<ele>247.79999999999995</ele>
<time>2023-05-17T09:47:36Z</time>
</trkpt>
<trkpt lat="49.05664198100567" lon="8.918352937325835">
<ele>248</ele>
<time>2023-05-17T09:47:37Z</time>
</trkpt>
<trkpt lat="49.056634940207005" lon="8.918312955647707">
<ele>248.20000000000005</ele>
<time>2023-05-17T09:47:38Z</time>
</trkpt>
<trkpt lat="49.05662295408547" lon="8.918262999504805">
<ele>248.39999999999998</ele>
<time>2023-05-17T09:47:39Z</time>
</trkpt>
<trkpt lat="49.05660996213555" lon="8.918214971199632">
<ele>248.60000000000002</ele>
<time>2023-05-17T09:47:40Z</time>
</trkpt>
<trkpt lat="49.05659697018564" lon="8.918172977864742">
<ele>248.79999999999995</ele>
<time>2023-05-17T09:47:41Z</time>
</trkpt>
<trkpt lat="49.05658297240734" lon="8.918131990358233">
<ele>249</ele>
<time>2023-05-17T09:47:42Z</time>
</trkpt>
<trkpt lat="49.056574925780296" lon="8.918091924861073">
<ele>249.20000000000005</ele>
<time>2023-05-17T09:47:43Z</time>
</trkpt>
<trkpt lat="49.056567968800664" lon="8.918051943182945">
<ele>249.39999999999998</ele>
<time>2023-05-17T09:47:44Z</time>
</trkpt>
<trkpt lat="49.05655799433589" lon="8.918007938191295">
<ele>249.60000000000002</ele>
<time>2023-05-17T09:47:45Z</time>
</trkpt>
<trkpt lat="49.056551959365606" lon="8.917966950684786">
<ele>249.60000000000002</ele>
<time>2023-05-17T09:47:46Z</time>
</trkpt>
<trkpt lat="49.05654198490083" lon="8.91793493181467">
<ele>249.79999999999995</ele>
<time>2023-05-17T09:47:47Z</time>
</trkpt>
<trkpt lat="49.05653293244541" lon="8.917899979278445">
<ele>250</ele>
<time>2023-05-17T09:47:48Z</time>
</trkpt>
<trkpt lat="49.056524969637394" lon="8.91786695457995">
<ele>250.20000000000005</ele>
<time>2023-05-17T09:47:49Z</time>
</trkpt>
<trkpt lat="49.05651792883873" lon="8.917834935709834">
<ele>250.39999999999998</ele>
<time>2023-05-17T09:47:50Z</time>
</trkpt>
<trkpt lat="49.05651197768748" lon="8.917799983173609">
<ele>250.60000000000002</ele>
<time>2023-05-17T09:47:51Z</time>
</trkpt>
<trkpt lat="49.056506948545575" lon="8.91776192933321">
<ele>250.60000000000002</ele>
<time>2023-05-17T09:47:52Z</time>
</trkpt>
<trkpt lat="49.056506948545575" lon="8.917726976796985">
<ele>250.79999999999995</ele>
<time>2023-05-17T09:47:53Z</time>
</trkpt>
<trkpt lat="49.05651298351586" lon="8.91769495792687">
<ele>251</ele>
<time>2023-05-17T09:47:54Z</time>
</trkpt>
<trkpt lat="49.05652295798063" lon="8.917667968198657">
<ele>251.20000000000005</ele>
<time>2023-05-17T09:47:55Z</time>
</trkpt>
<trkpt lat="49.05653997324407" lon="8.917647935450077">
<ele>251.39999999999998</ele>
<time>2023-05-17T09:47:56Z</time>
</trkpt>
<trkpt lat="49.05655992217362" lon="8.91763192601502">
<ele>251.60000000000002</ele>
<time>2023-05-17T09:47:57Z</time>
</trkpt>
<trkpt lat="49.05658196657896" lon="8.917616922408342">
<ele>251.79999999999995</ele>
<time>2023-05-17T09:47:58Z</time>
</trkpt>
<trkpt lat="49.05659797601402" lon="8.917604936286807">
<ele>252.20000000000005</ele>
<time>2023-05-17T09:47:59Z</time>
</trkpt>
<trkpt lat="49.056611973792315" lon="8.917591944336891">
<ele>252.39999999999998</ele>
<time>2023-05-17T09:48:00Z</time>
</trkpt>
<trkpt lat="49.05662697739899" lon="8.917576940730214">
<ele>252.60000000000002</ele>
<time>2023-05-17T09:48:01Z</time>
</trkpt>
<trkpt lat="49.05664198100567" lon="8.917556991800666">
<ele>253</ele>
<time>2023-05-17T09:48:02Z</time>
</trkpt>
<trkpt lat="49.056657990440726" lon="8.917536959052086">
<ele>253.20000000000005</ele>
<time>2023-05-17T09:48:03Z</time>
</trkpt>
<trkpt lat="49.05667492188513" lon="8.917517932131886">
<ele>253.60000000000002</ele>
<time>2023-05-17T09:48:04Z</time>
</trkpt>
<trkpt lat="49.05668992549181" lon="8.91750494018197">
<ele>253.79999999999995</ele>
<time>2023-05-17T09:48:05Z</time>
</trkpt>
<trkpt lat="49.05670794658363" lon="8.917491948232055">
<ele>254.20000000000005</ele>
<time>2023-05-17T09:48:06Z</time>
</trkpt>
<trkpt lat="49.0567319188267" lon="8.91748197376728">
<ele>254.60000000000002</ele>
<time>2023-05-17T09:48:07Z</time>
</trkpt>
<trkpt lat="49.05675496906042" lon="8.917467975988984">
<ele>254.79999999999995</ele>
<time>2023-05-17T09:48:08Z</time>
</trkpt>
<trkpt lat="49.05678195878863" lon="8.917452972382307">
<ele>255.20000000000005</ele>
<time>2023-05-17T09:48:09Z</time>
</trkpt>
<trkpt lat="49.056802997365594" lon="8.91743696294725">
<ele>255.39999999999998</ele>
<time>2023-05-17T09:48:10Z</time>
</trkpt>
<trkpt lat="49.0568249579519" lon="8.917414918541908">
<ele>255.60000000000002</ele>
<time>2023-05-17T09:48:11Z</time>
</trkpt>
<trkpt lat="49.056849936023355" lon="8.917386922985315">
<ele>255.79999999999995</ele>
<time>2023-05-17T09:48:12Z</time>
</trkpt>
<trkpt lat="49.056872986257076" lon="8.91735297627747">
<ele>256</ele>
<time>2023-05-17T09:48:13Z</time>
</trkpt>
<trkpt lat="49.05690299347043" lon="8.917311988770962">
<ele>256</ele>
<time>2023-05-17T09:48:14Z</time>
</trkpt>
<trkpt lat="49.05692797154188" lon="8.917257925495505">
<ele>256</ele>
<time>2023-05-17T09:48:15Z</time>
</trkpt>
<trkpt lat="49.056959990412" lon="8.917192965745926">
<ele>256</ele>
<time>2023-05-17T09:48:16Z</time>
</trkpt>
<trkpt lat="49.05698798596859" lon="8.917124988511205">
<ele>255.79999999999995</ele>
<time>2023-05-17T09:48:17Z</time>
</trkpt>
<trkpt lat="49.05701296404004" lon="8.91705198213458">
<ele>255.60000000000002</ele>
<time>2023-05-17T09:48:18Z</time>
</trkpt>
<trkpt lat="49.05702796764672" lon="8.916966989636421">
<ele>255.20000000000005</ele>
<time>2023-05-17T09:48:19Z</time>
</trkpt>
<trkpt lat="49.05703492462635" lon="8.916876967996359">
<ele>255</ele>
<time>2023-05-17T09:48:20Z</time>
</trkpt>
<trkpt lat="49.05703794211149" lon="8.916786946356297">
<ele>254.60000000000002</ele>
<time>2023-05-17T09:48:21Z</time>
</trkpt>
<trkpt lat="49.05702997930348" lon="8.916689967736602">
<ele>254</ele>
<time>2023-05-17T09:48:22Z</time>
</trkpt>
<trkpt lat="49.0570149756968" lon="8.916586954146624">
<ele>253.60000000000002</ele>
<time>2023-05-17T09:48:23Z</time>
</trkpt>
<trkpt lat="49.05699494294822" lon="8.916484946385026">
<ele>253.20000000000005</ele>
<time>2023-05-17T09:48:24Z</time>
</trkpt>
<trkpt lat="49.05697298236191" lon="8.916391991078854">
<ele>252.79999999999995</ele>
<time>2023-05-17T09:48:25Z</time>
</trkpt>
<trkpt lat="49.05694792047143" lon="8.916301969438791">
<ele>252.20000000000005</ele>
<time>2023-05-17T09:48:26Z</time>
</trkpt>
<trkpt lat="49.05692495405674" lon="8.91621496528387">
<ele>251.79999999999995</ele>
<time>2023-05-17T09:48:27Z</time>
</trkpt>
<trkpt lat="49.05690198764205" lon="8.916129972785711">
<ele>251.20000000000005</ele>
<time>2023-05-17T09:48:28Z</time>
</trkpt>
<trkpt lat="49.05688798986375" lon="8.91604196280241">
<ele>250.79999999999995</ele>
<time>2023-05-17T09:48:29Z</time>
</trkpt>
<trkpt lat="49.05688296072185" lon="8.91595495864749">
<ele>250.39999999999998</ele>
<time>2023-05-17T09:48:30Z</time>
</trkpt>
<trkpt lat="49.05688497237861" lon="8.915881952270865">
<ele>250</ele>
<time>2023-05-17T09:48:31Z</time>
</trkpt>
<trkpt lat="49.05688991770148" lon="8.91582696698606">
<ele>249.60000000000002</ele>
<time>2023-05-17T09:48:32Z</time>
</trkpt>
<trkpt lat="49.05688991770148" lon="8.91578296199441">
<ele>249.39999999999998</ele>
<time>2023-05-17T09:48:33Z</time>
</trkpt>
<trkpt lat="49.05688798986375" lon="8.915744991973042">
<ele>249.20000000000005</ele>
<time>2023-05-17T09:48:34Z</time>
</trkpt>
<trkpt lat="49.056891929358244" lon="8.915714984759688">
<ele>249</ele>
<time>2023-05-17T09:48:35Z</time>
</trkpt>
<trkpt lat="49.056891929358244" lon="8.915684977546334">
<ele>248.79999999999995</ele>
<time>2023-05-17T09:48:36Z</time>
</trkpt>
<trkpt lat="49.056892935186625" lon="8.915651952847838">
<ele>248.60000000000002</ele>
<time>2023-05-17T09:48:37Z</time>
</trkpt>
<trkpt lat="49.056892935186625" lon="8.915617922320962">
<ele>248.60000000000002</ele>
<time>2023-05-17T09:48:38Z</time>
</trkpt>
<trkpt lat="49.056894946843386" lon="8.915584981441498">
<ele>248.39999999999998</ele>
<time>2023-05-17T09:48:39Z</time>
</trkpt>
<trkpt lat="49.05689796432853" lon="8.915554974228144">
<ele>248.39999999999998</ele>
<time>2023-05-17T09:48:40Z</time>
</trkpt>
<trkpt lat="49.05689796432853" lon="8.915519937872887">
<ele>248.20000000000005</ele>
<time>2023-05-17T09:48:41Z</time>
</trkpt>
<trkpt lat="49.05689796432853" lon="8.9154829736799">
<ele>248.20000000000005</ele>
<time>2023-05-17T09:48:42Z</time>
</trkpt>
<trkpt lat="49.05689796432853" lon="8.915442992001772">
<ele>248.20000000000005</ele>
<time>2023-05-17T09:48:43Z</time>
</trkpt>
<trkpt lat="49.05690995045006" lon="8.91539697535336">
<ele>248</ele>
<time>2023-05-17T09:48:44Z</time>
</trkpt>
<trkpt lat="49.05692294239998" lon="8.915342995896935">
<ele>248</ele>
<time>2023-05-17T09:48:45Z</time>
</trkpt>
<trkpt lat="49.056936940178275" lon="8.915284993126988">
<ele>248</ele>
<time>2023-05-17T09:48:46Z</time>
</trkpt>
<trkpt lat="49.05694993212819" lon="8.915222967043519">
<ele>248</ele>
<time>2023-05-17T09:48:47Z</time>
</trkpt>
<trkpt lat="49.05696493573487" lon="8.915157923474908">
<ele>248</ele>
<time>2023-05-17T09:48:48Z</time>
</trkpt>
<trkpt lat="49.05698496848345" lon="8.91509497538209">
<ele>247.79999999999995</ele>
<time>2023-05-17T09:48:49Z</time>
</trkpt>
<trkpt lat="49.056999972090125" lon="8.915036972612143">
<ele>247.79999999999995</ele>
<time>2023-05-17T09:48:50Z</time>
</trkpt>
<trkpt lat="49.0570149756968" lon="8.914977964013815">
<ele>247.79999999999995</ele>
<time>2023-05-17T09:48:51Z</time>
</trkpt>
<trkpt lat="49.057024950161576" lon="8.914917949587107">
<ele>247.79999999999995</ele>
<time>2023-05-17T09:48:52Z</time>
</trkpt>
<trkpt lat="49.05703794211149" lon="8.91485994681716">
<ele>247.79999999999995</ele>
<time>2023-05-17T09:48:53Z</time>
</trkpt>
<trkpt lat="49.05705193988979" lon="8.914804961532354">
<ele>247.79999999999995</ele>
<time>2023-05-17T09:48:54Z</time>
</trkpt>
<trkpt lat="49.057067949324846" lon="8.914747964590788">
<ele>247.79999999999995</ele>
<time>2023-05-17T09:48:55Z</time>
</trkpt>
<trkpt lat="49.057086976245046" lon="8.914694990962744">
<ele>247.60000000000002</ele>
<time>2023-05-17T09:48:56Z</time>
</trkpt>
<trkpt lat="49.057104997336864" lon="8.914639921858907">
<ele>247.60000000000002</ele>
<time>2023-05-17T09:48:57Z</time>
</trkpt>
<trkpt lat="49.05711991712451" lon="8.914584936574101">
<ele>247.60000000000002</ele>
<time>2023-05-17T09:48:58Z</time>
</trkpt>
<trkpt lat="49.05713299289346" lon="8.914532968774438">
<ele>247.60000000000002</ele>
<time>2023-05-17T09:48:59Z</time>
</trkpt>
<trkpt lat="49.057147996500134" lon="8.914482928812504">
<ele>247.60000000000002</ele>
<time>2023-05-17T09:49:00Z</time>
</trkpt>
<trkpt lat="49.05716291628778" lon="8.914432972669601">
<ele>247.60000000000002</ele>
<time>2023-05-17T09:49:01Z</time>
</trkpt>
<trkpt lat="49.05717699788511" lon="8.914382932707667">
<ele>247.60000000000002</ele>
<time>2023-05-17T09:49:02Z</time>
</trkpt>
<trkpt lat="49.05718797817826" lon="8.914334988221526">
<ele>247.60000000000002</ele>
<time>2023-05-17T09:49:03Z</time>
</trkpt>
<trkpt lat="49.0571999642998" lon="8.914284948259592">
<ele>247.60000000000002</ele>
<time>2023-05-17T09:49:04Z</time>
</trkpt>
<trkpt lat="49.057214967906475" lon="8.9142379257828">
<ele>247.60000000000002</ele>
<time>2023-05-17T09:49:05Z</time>
</trkpt>
<trkpt lat="49.05722997151315" lon="8.91419199295342">
<ele>247.60000000000002</ele>
<time>2023-05-17T09:49:06Z</time>
</trkpt>
<trkpt lat="49.05724497511983" lon="8.914147987961769">
<ele>247.60000000000002</ele>
<time>2023-05-17T09:49:07Z</time>
</trkpt>
<trkpt lat="49.05726299621165" lon="8.914104988798499">
<ele>247.60000000000002</ele>
<time>2023-05-17T09:49:08Z</time>
</trkpt>
<trkpt lat="49.057282945141196" lon="8.914061989635229">
<ele>247.60000000000002</ele>
<time>2023-05-17T09:49:09Z</time>
</trkpt>
<trkpt lat="49.057299960404634" lon="8.914017984643579">
<ele>247.60000000000002</ele>
<time>2023-05-17T09:49:10Z</time>
</trkpt>
<trkpt lat="49.05731697566807" lon="8.913972973823547">
<ele>247.60000000000002</ele>
<time>2023-05-17T09:49:11Z</time>
</trkpt>
<trkpt lat="49.05733298510313" lon="8.91393299214542">
<ele>247.60000000000002</ele>
<time>2023-05-17T09:49:12Z</time>
</trkpt>
<trkpt lat="49.0573519282043" lon="8.913887981325388">
<ele>247.60000000000002</ele>
<time>2023-05-17T09:49:13Z</time>
</trkpt>
<trkpt lat="49.057366931810975" lon="8.913842970505357">
<ele>247.60000000000002</ele>
<time>2023-05-17T09:49:14Z</time>
</trkpt>
<trkpt lat="49.05738294124603" lon="8.913801982998848">
<ele>247.60000000000002</ele>
<time>2023-05-17T09:49:15Z</time>
</trkpt>
<trkpt lat="49.05739995650947" lon="8.913761917501688">
<ele>247.79999999999995</ele>
<time>2023-05-17T09:49:16Z</time>
</trkpt>
<trkpt lat="49.05741797760129" lon="8.91372193582356">
<ele>247.79999999999995</ele>
<time>2023-05-17T09:49:17Z</time>
</trkpt>
<trkpt lat="49.05743298120797" lon="8.913682959973812">
<ele>247.79999999999995</ele>
<time>2023-05-17T09:49:18Z</time>
</trkpt>
<trkpt lat="49.057451924309134" lon="8.913644989952445">
<ele>247.79999999999995</ele>
<time>2023-05-17T09:49:19Z</time>
</trkpt>
<trkpt lat="49.057472962886095" lon="8.913606936112046">
<ele>247.79999999999995</ele>
<time>2023-05-17T09:49:20Z</time>
</trkpt>
<trkpt lat="49.057496935129166" lon="8.913566954433918">
<ele>247.79999999999995</ele>
<time>2023-05-17T09:49:21Z</time>
</trkpt>
<trkpt lat="49.05751998536289" lon="8.913524961099029">
<ele>247.79999999999995</ele>
<time>2023-05-17T09:49:22Z</time>
</trkpt>
<trkpt lat="49.0575419459492" lon="8.913481961935759">
<ele>247.79999999999995</ele>
<time>2023-05-17T09:49:23Z</time>
</trkpt>
<trkpt lat="49.057559967041016" lon="8.913442986086011">
<ele>247.79999999999995</ele>
<time>2023-05-17T09:49:24Z</time>
</trkpt>
<trkpt lat="49.057576982304454" lon="8.913411973044276">
<ele>247.79999999999995</ele>
<time>2023-05-17T09:49:25Z</time>
</trkpt>
<trkpt lat="49.05759198591113" lon="8.913384983316064">
<ele>247.79999999999995</ele>
<time>2023-05-17T09:49:26Z</time>
</trkpt>
<trkpt lat="49.05760698951781" lon="8.913362938910723">
<ele>247.79999999999995</ele>
<time>2023-05-17T09:49:27Z</time>
</trkpt>
<trkpt lat="49.057621993124485" lon="8.913341984152794">
<ele>247.79999999999995</ele>
<time>2023-05-17T09:49:28Z</time>
</trkpt>
<trkpt lat="49.05763297341764" lon="8.913322957232594">
<ele>247.79999999999995</ele>
<time>2023-05-17T09:49:29Z</time>
</trkpt>
<trkpt lat="49.05764194205403" lon="8.913304936140776">
<ele>247.79999999999995</ele>
<time>2023-05-17T09:49:30Z</time>
</trkpt>
<trkpt lat="49.057646971195936" lon="8.913287920877337">
<ele>247.79999999999995</ele>
<time>2023-05-17T09:49:31Z</time>
</trkpt>
<trkpt lat="49.05765191651881" lon="8.913274928927422">
<ele>247.79999999999995</ele>
<time>2023-05-17T09:49:32Z</time>
</trkpt>
<trkpt lat="49.05765694566071" lon="8.913261936977506">
<ele>247.79999999999995</ele>
<time>2023-05-17T09:49:33Z</time>
</trkpt>
<trkpt lat="49.05765795148909" lon="8.913252968341112">
<ele>247.79999999999995</ele>
<time>2023-05-17T09:49:34Z</time>
</trkpt>
<trkpt lat="49.05765795148909" lon="8.913251962512732">
<ele>247.79999999999995</ele>
<time>2023-05-17T09:49:35Z</time>
</trkpt>
<trkpt lat="49.05765795148909" lon="8.91324995085597">
<ele>247.79999999999995</ele>
<time>2023-05-17T09:49:36Z</time>
</trkpt>
<trkpt lat="49.05771494843066" lon="8.913152972236276">
<ele>247.20000000000005</ele>
<time>2023-05-17T09:49:36Z</time>
</trkpt>
<trkpt lat="49.057731963694096" lon="8.913127994164824">
<ele>247.20000000000005</ele>
<time>2023-05-17T09:49:37Z</time>
</trkpt>
<trkpt lat="49.057751996442676" lon="8.913099998608232">
<ele>247.20000000000005</ele>
<time>2023-05-17T09:49:38Z</time>
</trkpt>
<trkpt lat="49.057774962857366" lon="8.913069991394877">
<ele>247.20000000000005</ele>
<time>2023-05-17T09:49:39Z</time>
</trkpt>
<trkpt lat="49.057796923443675" lon="8.913036966696382">
<ele>247.20000000000005</ele>
<time>2023-05-17T09:49:40Z</time>
</trkpt>
<trkpt lat="49.057817962020636" lon="8.912999918684363">
<ele>247.20000000000005</ele>
<time>2023-05-17T09:49:41Z</time>
</trkpt>
<trkpt lat="49.057839922606945" lon="8.912964966148138">
<ele>247.20000000000005</ele>
<time>2023-05-17T09:49:42Z</time>
</trkpt>
<trkpt lat="49.05786498449743" lon="8.91292791813612">
<ele>247.20000000000005</ele>
<time>2023-05-17T09:49:43Z</time>
</trkpt>
<trkpt lat="49.05789197422564" lon="8.912889948114753">
<ele>247.20000000000005</ele>
<time>2023-05-17T09:49:44Z</time>
</trkpt>
<trkpt lat="49.057922987267375" lon="8.912854995578527">
<ele>247.20000000000005</ele>
<time>2023-05-17T09:49:45Z</time>
</trkpt>
<trkpt lat="49.05795492231846" lon="8.91281794756651">
<ele>247.20000000000005</ele>
<time>2023-05-17T09:49:46Z</time>
</trkpt>
<trkpt lat="49.057986941188574" lon="8.912781989201903">
<ele>247.20000000000005</ele>
<time>2023-05-17T09:49:47Z</time>
</trkpt>
<trkpt lat="49.05801996588707" lon="8.912746952846646">
<ele>247.20000000000005</ele>
<time>2023-05-17T09:49:48Z</time>
</trkpt>
<trkpt lat="49.058051984757185" lon="8.91270998865366">
<ele>247.20000000000005</ele>
<time>2023-05-17T09:49:49Z</time>
</trkpt>
<trkpt lat="49.05808299779892" lon="8.912672940641642">
<ele>247.39999999999998</ele>
<time>2023-05-17T09:49:50Z</time>
</trkpt>
<trkpt lat="49.05811292119324" lon="8.912634970620275">
<ele>247.39999999999998</ele>
<time>2023-05-17T09:49:51Z</time>
</trkpt>
<trkpt lat="49.05814494006336" lon="8.912599934265018">
<ele>247.39999999999998</ele>
<time>2023-05-17T09:49:52Z</time>
</trkpt>
<trkpt lat="49.058179976418614" lon="8.912567999213934">
<ele>247.39999999999998</ele>
<time>2023-05-17T09:49:53Z</time>
</trkpt>
<trkpt lat="49.05821291729808" lon="8.91253991983831">
<ele>247.39999999999998</ele>
<time>2023-05-17T09:49:54Z</time>
</trkpt>
<trkpt lat="49.058246947824955" lon="8.912511924281716">
<ele>247.60000000000002</ele>
<time>2023-05-17T09:49:55Z</time>
</trkpt>
<trkpt lat="49.05827293172479" lon="8.912482922896743">
<ele>247.60000000000002</ele>
<time>2023-05-17T09:49:56Z</time>
</trkpt>
<trkpt lat="49.058299921453" lon="8.912457944825292">
<ele>247.79999999999995</ele>
<time>2023-05-17T09:49:57Z</time>
</trkpt>
<trkpt lat="49.05832699500024" lon="8.912436990067363">
<ele>247.79999999999995</ele>
<time>2023-05-17T09:49:58Z</time>
</trkpt>
<trkpt lat="49.058352978900075" lon="8.912417963147163">
<ele>248</ele>
<time>2023-05-17T09:49:59Z</time>
</trkpt>
<trkpt lat="49.058377956971526" lon="8.912406982854009">
<ele>248.20000000000005</ele>
<time>2023-05-17T09:50:00Z</time>
</trkpt>
<trkpt lat="49.05840293504298" lon="8.912399942055345">
<ele>248.20000000000005</ele>
<time>2023-05-17T09:50:01Z</time>
</trkpt>
<trkpt lat="49.05842699110508" lon="8.912394996732473">
<ele>248.39999999999998</ele>
<time>2023-05-17T09:50:02Z</time>
</trkpt>
<trkpt lat="49.05845297500491" lon="8.912391979247332">
<ele>248.60000000000002</ele>
<time>2023-05-17T09:50:03Z</time>
</trkpt>
<trkpt lat="49.05847694724798" lon="8.912384938448668">
<ele>248.60000000000002</ele>
<time>2023-05-17T09:50:04Z</time>
</trkpt>
<trkpt lat="49.058506954461336" lon="8.912372952327132">
<ele>248.79999999999995</ele>
<time>2023-05-17T09:50:05Z</time>
</trkpt>
<trkpt lat="49.05853997915983" lon="8.912356942892075">
<ele>248.79999999999995</ele>
<time>2023-05-17T09:50:06Z</time>
</trkpt>
<trkpt lat="49.05857493169606" lon="8.912337999790907">
<ele>248.79999999999995</ele>
<time>2023-05-17T09:50:07Z</time>
</trkpt>
<trkpt lat="49.058612985536456" lon="8.912306986749172">
<ele>248.60000000000002</ele>
<time>2023-05-17T09:50:08Z</time>
</trkpt>
<trkpt lat="49.05864994972944" lon="8.912264993414283">
<ele>248.60000000000002</ele>
<time>2023-05-17T09:50:09Z</time>
</trkpt>
<trkpt lat="49.05868791975081" lon="8.912212941795588">
<ele>248.60000000000002</ele>
<time>2023-05-17T09:50:10Z</time>
</trkpt>
<trkpt lat="49.05872496776283" lon="8.91215493902564">
<ele>248.60000000000002</ele>
<time>2023-05-17T09:50:11Z</time>
</trkpt>
<trkpt lat="49.058761931955814" lon="8.912091990932822">
<ele>248.39999999999998</ele>
<time>2023-05-17T09:50:12Z</time>
</trkpt>
<trkpt lat="49.05879998579621" lon="8.912026947364211">
<ele>248.39999999999998</ele>
<time>2023-05-17T09:50:13Z</time>
</trkpt>
<trkpt lat="49.0588369499892" lon="8.911962993443012">
<ele>248.20000000000005</ele>
<time>2023-05-17T09:50:14Z</time>
</trkpt>
<trkpt lat="49.05887198634446" lon="8.911897949874401">
<ele>247.79999999999995</ele>
<time>2023-05-17T09:50:15Z</time>
</trkpt>
<trkpt lat="49.05890492722392" lon="8.911836929619312">
<ele>247.39999999999998</ele>
<time>2023-05-17T09:50:16Z</time>
</trkpt>
<trkpt lat="49.058936946094036" lon="8.911774987354875">
<ele>247</ele>
<time>2023-05-17T09:50:17Z</time>
</trkpt>
<trkpt lat="49.05895999632776" lon="8.911717990413308">
<ele>246.39999999999998</ele>
<time>2023-05-17T09:50:18Z</time>
</trkpt>
<trkpt lat="49.05898799188435" lon="8.911664932966232">
<ele>245.79999999999995</ele>
<time>2023-05-17T09:50:19Z</time>
</trkpt>
<trkpt lat="49.059022944420576" lon="8.911617994308472">
<ele>245</ele>
<time>2023-05-17T09:50:20Z</time>
</trkpt>
<trkpt lat="49.05905798077583" lon="8.911587987095118">
<ele>244.39999999999998</ele>
<time>2023-05-17T09:50:21Z</time>
</trkpt>
<trkpt lat="49.05909997411072" lon="8.911569966003299">
<ele>243.60000000000002</ele>
<time>2023-05-17T09:50:22Z</time>
</trkpt>
<trkpt lat="49.059149930253625" lon="8.911559991538525">
<ele>243</ele>
<time>2023-05-17T09:50:23Z</time>
</trkpt>
<trkpt lat="49.05920499935746" lon="8.91157197766006">
<ele>242.39999999999998</ele>
<time>2023-05-17T09:50:24Z</time>
</trkpt>
<trkpt lat="49.05925998464227" lon="8.911599973216653">
<ele>241.79999999999995</ele>
<time>2023-05-17T09:50:25Z</time>
</trkpt>
<trkpt lat="49.059316981583834" lon="8.911646995693445">
<ele>241.20000000000005</ele>
<time>2023-05-17T09:50:26Z</time>
</trkpt>
<trkpt lat="49.05937498435378" lon="8.911696951836348">
<ele>240.60000000000002</ele>
<time>2023-05-17T09:50:27Z</time>
</trkpt>
<trkpt lat="49.0594379324466" lon="8.911759983748198">
<ele>240.20000000000005</ele>
<time>2023-05-17T09:50:28Z</time>
</trkpt>
<trkpt lat="49.05950197018683" lon="8.911814969033003">
<ele>239.60000000000002</ele>
<time>2023-05-17T09:50:29Z</time>
</trkpt>
<trkpt lat="49.05956299044192" lon="8.911869954317808">
<ele>239.20000000000005</ele>
<time>2023-05-17T09:50:30Z</time>
</trkpt>
<trkpt lat="49.059622921049595" lon="8.911924939602613">
<ele>238.60000000000002</ele>
<time>2023-05-17T09:50:31Z</time>
</trkpt>
<trkpt lat="49.0596829354763" lon="8.911979924887419">
<ele>238.20000000000005</ele>
<time>2023-05-17T09:50:32Z</time>
</trkpt>
<trkpt lat="49.05974294990301" lon="8.912027953192592">
<ele>237.79999999999995</ele>
<time>2023-05-17T09:50:33Z</time>
</trkpt>
<trkpt lat="49.05980296432972" lon="8.912074975669384">
<ele>237.60000000000002</ele>
<time>2023-05-17T09:50:34Z</time>
</trkpt>
<trkpt lat="49.05986691825092" lon="8.912116969004273">
<ele>237.20000000000005</ele>
<time>2023-05-17T09:50:35Z</time>
</trkpt>
<trkpt lat="49.05992693267763" lon="8.91215292736888">
<ele>237</ele>
<time>2023-05-17T09:50:36Z</time>
</trkpt>
<trkpt lat="49.05998292379081" lon="8.912179917097092">
<ele>236.79999999999995</ele>
<time>2023-05-17T09:50:37Z</time>
</trkpt>
<trkpt lat="49.06003799289465" lon="8.912181928753853">
<ele>236.79999999999995</ele>
<time>2023-05-17T09:50:38Z</time>
</trkpt>
<trkpt lat="49.06008794903755" lon="8.912161979824305">
<ele>236.60000000000002</ele>
<time>2023-05-17T09:50:39Z</time>
</trkpt>
<trkpt lat="49.060134971514344" lon="8.91213197261095">
<ele>236.60000000000002</ele>
<time>2023-05-17T09:50:40Z</time>
</trkpt>
<trkpt lat="49.06017294153571" lon="8.912091990932822">
<ele>236.39999999999998</ele>
<time>2023-05-17T09:50:41Z</time>
</trkpt>
<trkpt lat="49.06020697206259" lon="8.912056954577565">
<ele>236.39999999999998</ele>
<time>2023-05-17T09:50:42Z</time>
</trkpt>
<trkpt lat="49.060244942083955" lon="8.912036921828985">
<ele>236.20000000000005</ele>
<time>2023-05-17T09:50:43Z</time>
</trkpt>
<trkpt lat="49.06028199009597" lon="8.912034993991256">
<ele>236.20000000000005</ele>
<time>2023-05-17T09:50:44Z</time>
</trkpt>
<trkpt lat="49.0603169426322" lon="8.912039939314127">
<ele>236.20000000000005</ele>
<time>2023-05-17T09:50:45Z</time>
</trkpt>
<trkpt lat="49.06034795567393" lon="8.91204496845603">
<ele>236.20000000000005</ele>
<time>2023-05-17T09:50:46Z</time>
</trkpt>
<trkpt lat="49.06037695705891" lon="8.912032982334495">
<ele>236.20000000000005</ele>
<time>2023-05-17T09:50:47Z</time>
</trkpt>
<trkpt lat="49.06040696427226" lon="8.912009932100773">
<ele>236.20000000000005</ele>
<time>2023-05-17T09:50:48Z</time>
</trkpt>
<trkpt lat="49.06043194234371" lon="8.91197799704969">
<ele>236.20000000000005</ele>
<time>2023-05-17T09:50:49Z</time>
</trkpt>
<trkpt lat="49.060459937900305" lon="8.91193793155253">
<ele>236.39999999999998</ele>
<time>2023-05-17T09:50:50Z</time>
</trkpt>
<trkpt lat="49.06049195677042" lon="8.911897949874401">
<ele>236.39999999999998</ele>
<time>2023-05-17T09:50:51Z</time>
</trkpt>
<trkpt lat="49.060521963983774" lon="8.911849921569228">
<ele>236.39999999999998</ele>
<time>2023-05-17T09:50:52Z</time>
</trkpt>
<trkpt lat="49.0605429187417" lon="8.911796947941184">
<ele>236.39999999999998</ele>
<time>2023-05-17T09:50:53Z</time>
</trkpt>
<trkpt lat="49.06055792234838" lon="8.911729976534843">
<ele>236.39999999999998</ele>
<time>2023-05-17T09:50:54Z</time>
</trkpt>
<trkpt lat="49.060566974803805" lon="8.911661999300122">
<ele>236.39999999999998</ele>
<time>2023-05-17T09:50:55Z</time>
</trkpt>
<trkpt lat="49.06057795509696" lon="8.911589998751879">
<ele>236.39999999999998</ele>
<time>2023-05-17T09:50:56Z</time>
</trkpt>
<trkpt lat="49.06059295870364" lon="8.911519926041365">
<ele>236.60000000000002</ele>
<time>2023-05-17T09:50:57Z</time>
</trkpt>
<trkpt lat="49.060607962310314" lon="8.911449937149882">
<ele>236.60000000000002</ele>
<time>2023-05-17T09:50:58Z</time>
</trkpt>
<trkpt lat="49.06061994843185" lon="8.9113799482584">
<ele>236.60000000000002</ele>
<time>2023-05-17T09:50:59Z</time>
</trkpt>
<trkpt lat="49.060632940381765" lon="8.911311971023679">
<ele>236.60000000000002</ele>
<time>2023-05-17T09:51:00Z</time>
</trkpt>
<trkpt lat="49.0606449265033" lon="8.911242987960577">
<ele>236.79999999999995</ele>
<time>2023-05-17T09:51:01Z</time>
</trkpt>
<trkpt lat="49.06065791845322" lon="8.911171993240714">
<ele>236.79999999999995</ele>
<time>2023-05-17T09:51:02Z</time>
</trkpt>
<trkpt lat="49.060672922059894" lon="8.9111019205302">
<ele>236.79999999999995</ele>
<time>2023-05-17T09:51:03Z</time>
</trkpt>
<trkpt lat="49.06068792566657" lon="8.911029919981956">
<ele>237</ele>
<time>2023-05-17T09:51:04Z</time>
</trkpt>
<trkpt lat="49.06070494093001" lon="8.910959931090474">
<ele>237</ele>
<time>2023-05-17T09:51:05Z</time>
</trkpt>
<trkpt lat="49.06072296202183" lon="8.910892959684134">
<ele>237.20000000000005</ele>
<time>2023-05-17T09:51:06Z</time>
</trkpt>
<trkpt lat="49.060739977285266" lon="8.910824982449412">
<ele>237.20000000000005</ele>
<time>2023-05-17T09:51:07Z</time>
</trkpt>
<trkpt lat="49.060757998377085" lon="8.91075692139566">
<ele>237.20000000000005</ele>
<time>2023-05-17T09:51:08Z</time>
</trkpt>
<trkpt lat="49.06077694147825" lon="8.910689949989319">
<ele>237.20000000000005</ele>
<time>2023-05-17T09:51:09Z</time>
</trkpt>
<trkpt lat="49.06079697422683" lon="8.910622978582978">
<ele>237.39999999999998</ele>
<time>2023-05-17T09:51:10Z</time>
</trkpt>
<trkpt lat="49.06081499531865" lon="8.910557935014367">
<ele>237.39999999999998</ele>
<time>2023-05-17T09:51:11Z</time>
</trkpt>
<trkpt lat="49.0608349442482" lon="8.91049699857831">
<ele>237.39999999999998</ele>
<time>2023-05-17T09:51:12Z</time>
</trkpt>
<trkpt lat="49.06085698865354" lon="8.910431955009699">
<ele>237.60000000000002</ele>
<time>2023-05-17T09:51:13Z</time>
</trkpt>
<trkpt lat="49.06087693758309" lon="8.910367917269468">
<ele>237.60000000000002</ele>
<time>2023-05-17T09:51:14Z</time>
</trkpt>
<trkpt lat="49.06089495867491" lon="8.910302957519889">
<ele>237.60000000000002</ele>
<time>2023-05-17T09:51:15Z</time>
</trkpt>
<trkpt lat="49.06091499142349" lon="8.910236991941929">
<ele>237.60000000000002</ele>
<time>2023-05-17T09:51:16Z</time>
</trkpt>
<trkpt lat="49.0609369520098" lon="8.910171948373318">
<ele>237.79999999999995</ele>
<time>2023-05-17T09:51:17Z</time>
</trkpt>
<trkpt lat="49.06095991842449" lon="8.910106988623738">
<ele>237.79999999999995</ele>
<time>2023-05-17T09:51:18Z</time>
</trkpt>
<trkpt lat="49.06098296865821" lon="8.910041945055127">
<ele>237.79999999999995</ele>
<time>2023-05-17T09:51:19Z</time>
</trkpt>
<trkpt lat="49.06100492924452" lon="8.909977991133928">
<ele>237.79999999999995</ele>
<time>2023-05-17T09:51:20Z</time>
</trkpt>
<trkpt lat="49.06102797947824" lon="8.909914959222078">
<ele>237.79999999999995</ele>
<time>2023-05-17T09:51:21Z</time>
</trkpt>
<trkpt lat="49.06105295754969" lon="8.90985494479537">
<ele>237.79999999999995</ele>
<time>2023-05-17T09:51:22Z</time>
</trkpt>
<trkpt lat="49.06107793562114" lon="8.909794930368662">
<ele>237.79999999999995</ele>
<time>2023-05-17T09:51:23Z</time>
</trkpt>
<trkpt lat="49.061104925349355" lon="8.909734999760985">
<ele>238</ele>
<time>2023-05-17T09:51:24Z</time>
</trkpt>
<trkpt lat="49.0611319988966" lon="8.909672973677516">
<ele>238</ele>
<time>2023-05-17T09:51:25Z</time>
</trkpt>
<trkpt lat="49.06115798279643" lon="8.909612959250808">
<ele>238</ele>
<time>2023-05-17T09:51:26Z</time>
</trkpt>
<trkpt lat="49.06118497252464" lon="8.909549927338958">
<ele>238</ele>
<time>2023-05-17T09:51:27Z</time>
</trkpt>
<trkpt lat="49.06120693311095" lon="8.90948697924614">
<ele>238</ele>
<time>2023-05-17T09:51:28Z</time>
</trkpt>
<trkpt lat="49.06122696585953" lon="8.909422941505909">
<ele>238.20000000000005</ele>
<time>2023-05-17T09:51:29Z</time>
</trkpt>
<trkpt lat="49.06124297529459" lon="8.909354964271188">
<ele>238.20000000000005</ele>
<time>2023-05-17T09:51:30Z</time>
</trkpt>
<trkpt lat="49.06126191839576" lon="8.909286987036467">
<ele>238.39999999999998</ele>
<time>2023-05-17T09:51:31Z</time>
</trkpt>
<trkpt lat="49.061277927830815" lon="8.909216998144984">
<ele>238.39999999999998</ele>
<time>2023-05-17T09:51:32Z</time>
</trkpt>
<trkpt lat="49.06129192560911" lon="8.90914692543447">
<ele>238.39999999999998</ele>
<time>2023-05-17T09:51:33Z</time>
</trkpt>
<trkpt lat="49.06130491755903" lon="8.909076936542988">
<ele>238.39999999999998</ele>
<time>2023-05-17T09:51:34Z</time>
</trkpt>
<trkpt lat="49.061317993327975" lon="8.909011976793408">
<ele>238.39999999999998</ele>
<time>2023-05-17T09:51:35Z</time>
</trkpt>
<trkpt lat="49.06133794225752" lon="8.908956991508603">
<ele>238.39999999999998</ele>
<time>2023-05-17T09:51:36Z</time>
</trkpt>
<trkpt lat="49.06135696917772" lon="8.90890996903181">
<ele>238.39999999999998</ele>
<time>2023-05-17T09:51:37Z</time>
</trkpt>
<trkpt lat="49.0613719727844" lon="8.90886696986854">
<ele>238.39999999999998</ele>
<time>2023-05-17T09:51:38Z</time>
</trkpt>
<trkpt lat="49.06138697639108" lon="8.908827994018793">
<ele>238.39999999999998</ele>
<time>2023-05-17T09:51:39Z</time>
</trkpt>
<trkpt lat="49.06139996834099" lon="8.908787928521633">
<ele>238.39999999999998</ele>
<time>2023-05-17T09:51:40Z</time>
</trkpt>
<trkpt lat="49.06140994280577" lon="8.908749958500266">
<ele>238.39999999999998</ele>
<time>2023-05-17T09:51:41Z</time>
</trkpt>
<trkpt lat="49.0614219289273" lon="8.908711988478899">
<ele>238.39999999999998</ele>
<time>2023-05-17T09:51:42Z</time>
</trkpt>
<trkpt lat="49.06143299303949" lon="8.90867494046688">
<ele>238.39999999999998</ele>
<time>2023-05-17T09:51:43Z</time>
</trkpt>
<trkpt lat="49.061444979161024" lon="8.908641999587417">
<ele>238.39999999999998</ele>
<time>2023-05-17T09:51:44Z</time>
</trkpt>
<trkpt lat="49.06145696528256" lon="8.90860696323216">
<ele>238.39999999999998</ele>
<time>2023-05-17T09:51:45Z</time>
</trkpt>
<trkpt lat="49.06146693974733" lon="8.908572932705283">
<ele>238.39999999999998</ele>
<time>2023-05-17T09:51:46Z</time>
</trkpt>
<trkpt lat="49.06147699803114" lon="8.908537980169058">
<ele>238.39999999999998</ele>
<time>2023-05-17T09:51:47Z</time>
</trkpt>
<trkpt lat="49.06148697249591" lon="8.908509984612465">
<ele>238.39999999999998</ele>
<time>2023-05-17T09:51:48Z</time>
</trkpt>
<trkpt lat="49.06149694696069" lon="8.908481989055872">
<ele>238.39999999999998</ele>
<time>2023-05-17T09:51:49Z</time>
</trkpt>
<trkpt lat="49.06150298193097" lon="8.908447958528996">
<ele>238.39999999999998</ele>
<time>2023-05-17T09:51:50Z</time>
</trkpt>
<trkpt lat="49.06150692142546" lon="8.9084149338305">
<ele>238.39999999999998</ele>
<time>2023-05-17T09:51:51Z</time>
</trkpt>
<trkpt lat="49.061511950567365" lon="8.908382998779416">
<ele>238.39999999999998</ele>
<time>2023-05-17T09:51:52Z</time>
</trkpt>
<trkpt lat="49.06151798553765" lon="8.908352991566062">
<ele>238.39999999999998</ele>
<time>2023-05-17T09:51:53Z</time>
</trkpt>
<trkpt lat="49.06152695417404" lon="8.908324996009469">
<ele>238.39999999999998</ele>
<time>2023-05-17T09:51:54Z</time>
</trkpt>
<trkpt lat="49.061536928638816" lon="8.908301945775747">
<ele>238.39999999999998</ele>
<time>2023-05-17T09:51:55Z</time>
</trkpt>
<trkpt lat="49.0615429636091" lon="8.908276967704296">
<ele>238.39999999999998</ele>
<time>2023-05-17T09:51:56Z</time>
</trkpt>
<trkpt lat="49.061547992751" lon="8.908246960490942">
<ele>238.39999999999998</ele>
<time>2023-05-17T09:51:57Z</time>
</trkpt>
<trkpt lat="49.061556961387396" lon="8.908217959105968">
<ele>238.39999999999998</ele>
<time>2023-05-17T09:51:58Z</time>
</trkpt>
<trkpt lat="49.06156299635768" lon="8.908189963549376">
<ele>238.39999999999998</ele>
<time>2023-05-17T09:51:59Z</time>
</trkpt>
<trkpt lat="49.06157196499407" lon="8.908162973821163">
<ele>238.39999999999998</ele>
<time>2023-05-17T09:52:00Z</time>
</trkpt>
<trkpt lat="49.061576994135976" lon="8.908132966607809">
<ele>238.39999999999998</ele>
<time>2023-05-17T09:52:01Z</time>
</trkpt>
<trkpt lat="49.06158294528723" lon="8.908104971051216">
<ele>238.39999999999998</ele>
<time>2023-05-17T09:52:02Z</time>
</trkpt>
<trkpt lat="49.06158797442913" lon="8.908074963837862">
<ele>238.60000000000002</ele>
<time>2023-05-17T09:52:03Z</time>
</trkpt>
<trkpt lat="49.06159493140876" lon="8.908044956624508">
<ele>238.60000000000002</ele>
<time>2023-05-17T09:52:04Z</time>
</trkpt>
<trkpt lat="49.06160297803581" lon="8.90800992026925">
<ele>238.60000000000002</ele>
<time>2023-05-17T09:52:05Z</time>
</trkpt>
<trkpt lat="49.06160993501544" lon="8.907976979389787">
<ele>238.60000000000002</ele>
<time>2023-05-17T09:52:06Z</time>
</trkpt>
<trkpt lat="49.061616975814104" lon="8.907946972176433">
<ele>238.60000000000002</ele>
<time>2023-05-17T09:52:07Z</time>
</trkpt>
<trkpt lat="49.06162493862212" lon="8.907914953306317">
<ele>238.60000000000002</ele>
<time>2023-05-17T09:52:08Z</time>
</trkpt>
<trkpt lat="49.06163197942078" lon="8.907881928607821">
<ele>238.60000000000002</ele>
<time>2023-05-17T09:52:09Z</time>
</trkpt>
<trkpt lat="49.06163692474365" lon="8.907846976071596">
<ele>238.79999999999995</ele>
<time>2023-05-17T09:52:10Z</time>
</trkpt>
<trkpt lat="49.061641953885555" lon="8.90781495720148">
<ele>238.79999999999995</ele>
<time>2023-05-17T09:52:11Z</time>
</trkpt>
<trkpt lat="49.0616449713707" lon="8.907777993008494">
<ele>238.79999999999995</ele>
<time>2023-05-17T09:52:12Z</time>
</trkpt>
<trkpt lat="49.06164991669357" lon="8.907744968309999">
<ele>238.79999999999995</ele>
<time>2023-05-17T09:52:13Z</time>
</trkpt>
<trkpt lat="49.06165494583547" lon="8.907709931954741">
<ele>238.79999999999995</ele>
<time>2023-05-17T09:52:14Z</time>
</trkpt>
<trkpt lat="49.061659974977374" lon="8.907677996903658">
<ele>238.79999999999995</ele>
<time>2023-05-17T09:52:15Z</time>
</trkpt>
<trkpt lat="49.061664920300245" lon="8.907647989690304">
<ele>238.79999999999995</ele>
<time>2023-05-17T09:52:16Z</time>
</trkpt>
<trkpt lat="49.06166994944215" lon="8.90762192197144">
<ele>239</ele>
<time>2023-05-17T09:52:17Z</time>
</trkpt>
<trkpt lat="49.06167296692729" lon="8.907594932243228">
<ele>239</ele>
<time>2023-05-17T09:52:18Z</time>
</trkpt>
<trkpt lat="49.06167497858405" lon="8.907569954171777">
<ele>239</ele>
<time>2023-05-17T09:52:19Z</time>
</trkpt>
<trkpt lat="49.06167497858405" lon="8.907544976100326">
<ele>239</ele>
<time>2023-05-17T09:52:20Z</time>
</trkpt>
<trkpt lat="49.06167699024081" lon="8.907519998028874">
<ele>239</ele>
<time>2023-05-17T09:52:21Z</time>
</trkpt>
<trkpt lat="49.06167799606919" lon="8.90749292448163">
<ele>239</ele>
<time>2023-05-17T09:52:22Z</time>
</trkpt>
<trkpt lat="49.06168193556368" lon="8.907466940581799">
<ele>239</ele>
<time>2023-05-17T09:52:23Z</time>
</trkpt>
<trkpt lat="49.061686964705586" lon="8.907439950853586">
<ele>239</ele>
<time>2023-05-17T09:52:24Z</time>
</trkpt>
<trkpt lat="49.06169199384749" lon="8.907411955296993">
<ele>239</ele>
<time>2023-05-17T09:52:25Z</time>
</trkpt>
<trkpt lat="49.06169693917036" lon="8.90738194808364">
<ele>239</ele>
<time>2023-05-17T09:52:26Z</time>
</trkpt>
<trkpt lat="49.06169794499874" lon="8.907349929213524">
<ele>239</ele>
<time>2023-05-17T09:52:27Z</time>
</trkpt>
<trkpt lat="49.0616999566555" lon="8.90731698833406">
<ele>239</ele>
<time>2023-05-17T09:52:28Z</time>
</trkpt>
<trkpt lat="49.06170196831226" lon="8.907282957807183">
<ele>239</ele>
<time>2023-05-17T09:52:29Z</time>
</trkpt>
<trkpt lat="49.061702974140644" lon="8.907251944765449">
<ele>239</ele>
<time>2023-05-17T09:52:30Z</time>
</trkpt>
<trkpt lat="49.061706997454166" lon="8.907216992229223">
<ele>239</ele>
<time>2023-05-17T09:52:31Z</time>
</trkpt>
<trkpt lat="49.06170993112028" lon="8.907179944217205">
<ele>239</ele>
<time>2023-05-17T09:52:32Z</time>
</trkpt>
<trkpt lat="49.06171496026218" lon="8.907142980024219">
<ele>239</ele>
<time>2023-05-17T09:52:33Z</time>
</trkpt>
<trkpt lat="49.06171998940408" lon="8.90710492618382">
<ele>239</ele>
<time>2023-05-17T09:52:34Z</time>
</trkpt>
<trkpt lat="49.06172292307019" lon="8.907064944505692">
<ele>239</ele>
<time>2023-05-17T09:52:35Z</time>
</trkpt>
<trkpt lat="49.06172493472695" lon="8.907027980312705">
<ele>239</ele>
<time>2023-05-17T09:52:36Z</time>
</trkpt>
<trkpt lat="49.06173197552562" lon="8.906991938129067">
<ele>239</ele>
<time>2023-05-17T09:52:37Z</time>
</trkpt>
<trkpt lat="49.06173499301076" lon="8.906959919258952">
<ele>239</ele>
<time>2023-05-17T09:52:38Z</time>
</trkpt>
<trkpt lat="49.06173692084849" lon="8.906927984207869">
<ele>239</ele>
<time>2023-05-17T09:52:39Z</time>
</trkpt>
<trkpt lat="49.06173692084849" lon="8.906896971166134">
<ele>239.20000000000005</ele>
<time>2023-05-17T09:52:40Z</time>
</trkpt>
<trkpt lat="49.06173499301076" lon="8.906862940639257">
<ele>239.20000000000005</ele>
<time>2023-05-17T09:52:41Z</time>
</trkpt>
<trkpt lat="49.06173499301076" lon="8.906827988103032">
<ele>239.20000000000005</ele>
<time>2023-05-17T09:52:42Z</time>
</trkpt>
<trkpt lat="49.06173792667687" lon="8.906789934262633">
<ele>239.20000000000005</ele>
<time>2023-05-17T09:52:43Z</time>
</trkpt>
<trkpt lat="49.06173993833363" lon="8.906749952584505">
<ele>239.20000000000005</ele>
<time>2023-05-17T09:52:44Z</time>
</trkpt>
<trkpt lat="49.06174194999039" lon="8.906706953421235">
<ele>239.20000000000005</ele>
<time>2023-05-17T09:52:45Z</time>
</trkpt>
<trkpt lat="49.06174295581877" lon="8.906661942601204">
<ele>239.39999999999998</ele>
<time>2023-05-17T09:52:46Z</time>
</trkpt>
<trkpt lat="49.06174496747553" lon="8.906616931781173">
<ele>239.39999999999998</ele>
<time>2023-05-17T09:52:47Z</time>
</trkpt>
<trkpt lat="49.06174496747553" lon="8.906572926789522">
<ele>239.39999999999998</ele>
<time>2023-05-17T09:52:48Z</time>
</trkpt>
<trkpt lat="49.06174496747553" lon="8.906527999788523">
<ele>239.39999999999998</ele>
<time>2023-05-17T09:52:49Z</time>
</trkpt>
<trkpt lat="49.061747984960675" lon="8.906481983140111">
<ele>239.39999999999998</ele>
<time>2023-05-17T09:52:50Z</time>
</trkpt>
<trkpt lat="49.061746979132295" lon="8.906434960663319">
<ele>239.39999999999998</ele>
<time>2023-05-17T09:52:51Z</time>
</trkpt>
<trkpt lat="49.061746979132295" lon="8.906384920701385">
<ele>239.60000000000002</ele>
<time>2023-05-17T09:52:52Z</time>
</trkpt>
<trkpt lat="49.061746979132295" lon="8.906336976215243">
<ele>239.60000000000002</ele>
<time>2023-05-17T09:52:53Z</time>
</trkpt>
<trkpt lat="49.061746979132295" lon="8.906284924596548">
<ele>239.60000000000002</ele>
<time>2023-05-17T09:52:54Z</time>
</trkpt>
<trkpt lat="49.061747984960675" lon="8.906232956796885">
<ele>239.60000000000002</ele>
<time>2023-05-17T09:52:55Z</time>
</trkpt>
<trkpt lat="49.061746979132295" lon="8.90617797151208">
<ele>239.60000000000002</ele>
<time>2023-05-17T09:52:56Z</time>
</trkpt>
<trkpt lat="49.061746979132295" lon="8.906122986227274">
<ele>239.60000000000002</ele>
<time>2023-05-17T09:52:57Z</time>
</trkpt>
<trkpt lat="49.06174496747553" lon="8.906069928780198">
<ele>239.79999999999995</ele>
<time>2023-05-17T09:52:58Z</time>
</trkpt>
<trkpt lat="49.06174295581877" lon="8.906016955152154">
<ele>239.79999999999995</ele>
<time>2023-05-17T09:52:59Z</time>
</trkpt>
<trkpt lat="49.06174295581877" lon="8.90596498735249">
<ele>239.79999999999995</ele>
<time>2023-05-17T09:53:00Z</time>
</trkpt>
<trkpt lat="49.06174194999039" lon="8.905912935733795">
<ele>239.79999999999995</ele>
<time>2023-05-17T09:53:01Z</time>
</trkpt>
<trkpt lat="49.06174194999039" lon="8.905862979590893">
<ele>239.79999999999995</ele>
<time>2023-05-17T09:53:02Z</time>
</trkpt>
<trkpt lat="49.06173993833363" lon="8.905812939628959">
<ele>240</ele>
<time>2023-05-17T09:53:03Z</time>
</trkpt>
<trkpt lat="49.06173993833363" lon="8.905756948515773">
<ele>240</ele>
<time>2023-05-17T09:53:04Z</time>
</trkpt>
<trkpt lat="49.06173792667687" lon="8.905701963230968">
<ele>240</ele>
<time>2023-05-17T09:53:05Z</time>
</trkpt>
<trkpt lat="49.06173692084849" lon="8.905639937147498">
<ele>240</ele>
<time>2023-05-17T09:53:06Z</time>
</trkpt>
<trkpt lat="49.06173499301076" lon="8.905574977397919">
<ele>240.20000000000005</ele>
<time>2023-05-17T09:53:07Z</time>
</trkpt>
<trkpt lat="49.06173692084849" lon="8.905501971021295">
<ele>240.20000000000005</ele>
<time>2023-05-17T09:53:08Z</time>
</trkpt>
<trkpt lat="49.06173499301076" lon="8.90542795881629">
<ele>240.20000000000005</ele>
<time>2023-05-17T09:53:09Z</time>
</trkpt>
<trkpt lat="49.06173499301076" lon="8.905351934954524">
<ele>240.39999999999998</ele>
<time>2023-05-17T09:53:10Z</time>
</trkpt>
<trkpt lat="49.06173499301076" lon="8.90527792274952">
<ele>240.39999999999998</ele>
<time>2023-05-17T09:53:11Z</time>
</trkpt>
<trkpt lat="49.06173692084849" lon="8.905199971050024">
<ele>240.39999999999998</ele>
<time>2023-05-17T09:53:12Z</time>
</trkpt>
<trkpt lat="49.06173792667687" lon="8.905117996037006">
<ele>240.60000000000002</ele>
<time>2023-05-17T09:53:13Z</time>
</trkpt>
<trkpt lat="49.06173692084849" lon="8.905031997710466">
<ele>240.60000000000002</ele>
<time>2023-05-17T09:53:14Z</time>
</trkpt>
<trkpt lat="49.06173499301076" lon="8.904947927221656">
<ele>240.79999999999995</ele>
<time>2023-05-17T09:53:15Z</time>
</trkpt>
<trkpt lat="49.061732981354" lon="8.904864946380258">
<ele>240.79999999999995</ele>
<time>2023-05-17T09:53:16Z</time>
</trkpt>
<trkpt lat="49.061729963868856" lon="8.90478297136724">
<ele>241</ele>
<time>2023-05-17T09:53:17Z</time>
</trkpt>
<trkpt lat="49.061727952212095" lon="8.90469797886908">
<ele>241</ele>
<time>2023-05-17T09:53:18Z</time>
</trkpt>
<trkpt lat="49.061727952212095" lon="8.90461198054254">
<ele>241.20000000000005</ele>
<time>2023-05-17T09:53:19Z</time>
</trkpt>
<trkpt lat="49.061727952212095" lon="8.90452497638762">
<ele>241.20000000000005</ele>
<time>2023-05-17T09:53:20Z</time>
</trkpt>
<trkpt lat="49.061727952212095" lon="8.9044379722327">
<ele>241.39999999999998</ele>
<time>2023-05-17T09:53:21Z</time>
</trkpt>
<trkpt lat="49.061727952212095" lon="8.904354991391301">
<ele>241.39999999999998</ele>
<time>2023-05-17T09:53:22Z</time>
</trkpt>
<trkpt lat="49.061729963868856" lon="8.90426798723638">
<ele>241.60000000000002</ele>
<time>2023-05-17T09:53:23Z</time>
</trkpt>
<trkpt lat="49.06173499301076" lon="8.904186934232712">
<ele>241.60000000000002</ele>
<time>2023-05-17T09:53:24Z</time>
</trkpt>
<trkpt lat="49.06173993833363" lon="8.904107976704836">
<ele>241.79999999999995</ele>
<time>2023-05-17T09:53:25Z</time>
</trkpt>
<trkpt lat="49.06174496747553" lon="8.904027929529548">
<ele>242</ele>
<time>2023-05-17T09:53:26Z</time>
</trkpt>
<trkpt lat="49.061746979132295" lon="8.903951989486814">
<ele>242</ele>
<time>2023-05-17T09:53:27Z</time>
</trkpt>
<trkpt lat="49.061747984960675" lon="8.903874959796667">
<ele>242.20000000000005</ele>
<time>2023-05-17T09:53:28Z</time>
</trkpt>
<trkpt lat="49.061749996617436" lon="8.903791978955269">
<ele>242.20000000000005</ele>
<time>2023-05-17T09:53:29Z</time>
</trkpt>
<trkpt lat="49.06175494194031" lon="8.90371193177998">
<ele>242.39999999999998</ele>
<time>2023-05-17T09:53:30Z</time>
</trkpt>
<trkpt lat="49.06175997108221" lon="8.903639931231737">
<ele>242.39999999999998</ele>
<time>2023-05-17T09:53:31Z</time>
</trkpt>
<trkpt lat="49.06176298856735" lon="8.903567930683494">
<ele>242.60000000000002</ele>
<time>2023-05-17T09:53:32Z</time>
</trkpt>
<trkpt lat="49.06176491640508" lon="8.903502970933914">
<ele>242.60000000000002</ele>
<time>2023-05-17T09:53:33Z</time>
</trkpt>
<trkpt lat="49.06176692806184" lon="8.903437927365303">
<ele>242.79999999999995</ele>
<time>2023-05-17T09:53:34Z</time>
</trkpt>
<trkpt lat="49.061771957203746" lon="8.903374979272485">
<ele>242.79999999999995</ele>
<time>2023-05-17T09:53:35Z</time>
</trkpt>
<trkpt lat="49.06177698634565" lon="8.903314964845777">
<ele>243</ele>
<time>2023-05-17T09:53:36Z</time>
</trkpt>
<trkpt lat="49.06177992001176" lon="8.90325796790421">
<ele>243</ele>
<time>2023-05-17T09:53:37Z</time>
</trkpt>
<trkpt lat="49.0617829374969" lon="8.903201976791024">
<ele>243.20000000000005</ele>
<time>2023-05-17T09:53:38Z</time>
</trkpt>
<trkpt lat="49.0617879666388" lon="8.903149925172329">
<ele>243.20000000000005</ele>
<time>2023-05-17T09:53:39Z</time>
</trkpt>
<trkpt lat="49.061791989952326" lon="8.903102986514568">
<ele>243.39999999999998</ele>
<time>2023-05-17T09:53:40Z</time>
</trkpt>
<trkpt lat="49.0618019644171" lon="8.90306493267417">
<ele>243.39999999999998</ele>
<time>2023-05-17T09:53:41Z</time>
</trkpt>
<trkpt lat="49.06182291917503" lon="8.903032997623086">
<ele>243.39999999999998</ele>
<time>2023-05-17T09:53:42Z</time>
</trkpt>
<trkpt lat="49.061854938045144" lon="8.903009947389364">
<ele>243.60000000000002</ele>
<time>2023-05-17T09:53:43Z</time>
</trkpt>
<trkpt lat="49.06188695691526" lon="8.902982957661152">
<ele>243.60000000000002</ele>
<time>2023-05-17T09:53:44Z</time>
</trkpt>
<trkpt lat="49.06191294081509" lon="8.902944987639785">
<ele>243.79999999999995</ele>
<time>2023-05-17T09:53:45Z</time>
</trkpt>
<trkpt lat="49.0619399305433" lon="8.902899976819754">
<ele>243.79999999999995</ele>
<time>2023-05-17T09:53:46Z</time>
</trkpt>
<trkpt lat="49.06195996329188" lon="8.90285194851458">
<ele>243.79999999999995</ele>
<time>2023-05-17T09:53:47Z</time>
</trkpt>
<trkpt lat="49.0619779843837" lon="8.902796963229775">
<ele>244</ele>
<time>2023-05-17T09:53:48Z</time>
</trkpt>
<trkpt lat="49.06199793331325" lon="8.902737954631448">
<ele>244</ele>
<time>2023-05-17T09:53:49Z</time>
</trkpt>
<trkpt lat="49.06202299520373" lon="8.902676934376359">
<ele>244.20000000000005</ele>
<time>2023-05-17T09:53:50Z</time>
</trkpt>
<trkpt lat="49.062046967446804" lon="8.90261298045516">
<ele>244.20000000000005</ele>
<time>2023-05-17T09:53:51Z</time>
</trkpt>
<trkpt lat="49.062069933861494" lon="8.90254994854331">
<ele>244.20000000000005</ele>
<time>2023-05-17T09:53:52Z</time>
</trkpt>
<trkpt lat="49.062096923589706" lon="8.90248792245984">
<ele>244.39999999999998</ele>
<time>2023-05-17T09:53:53Z</time>
</trkpt>
<trkpt lat="49.06212299130857" lon="8.902426986023784">
<ele>244.39999999999998</ele>
<time>2023-05-17T09:53:54Z</time>
</trkpt>
<trkpt lat="49.062152998521924" lon="8.902361942455173">
<ele>244.39999999999998</ele>
<time>2023-05-17T09:53:55Z</time>
</trkpt>
<trkpt lat="49.062182921916246" lon="8.902299916371703">
<ele>244.60000000000002</ele>
<time>2023-05-17T09:53:56Z</time>
</trkpt>
<trkpt lat="49.06221192330122" lon="8.902237974107265">
<ele>244.60000000000002</ele>
<time>2023-05-17T09:53:57Z</time>
</trkpt>
<trkpt lat="49.062241930514574" lon="8.902176953852177">
<ele>244.60000000000002</ele>
<time>2023-05-17T09:53:58Z</time>
</trkpt>
<trkpt lat="49.06226799823344" lon="8.902117945253849">
<ele>244.79999999999995</ele>
<time>2023-05-17T09:53:59Z</time>
</trkpt>
<trkpt lat="49.06230194494128" lon="8.902062959969044">
<ele>244.79999999999995</ele>
<time>2023-05-17T09:54:00Z</time>
</trkpt>
<trkpt lat="49.06233496963978" lon="8.902007974684238">
<ele>244.79999999999995</ele>
<time>2023-05-17T09:54:01Z</time>
</trkpt>
<trkpt lat="49.062367994338274" lon="8.90194796025753">
<ele>244.79999999999995</ele>
<time>2023-05-17T09:54:02Z</time>
</trkpt>
<trkpt lat="49.06240194104612" lon="8.901894986629486">
<ele>244.79999999999995</ele>
<time>2023-05-17T09:54:03Z</time>
</trkpt>
<trkpt lat="49.06243295408785" lon="8.90184293501079">
<ele>244.79999999999995</ele>
<time>2023-05-17T09:54:04Z</time>
</trkpt>
<trkpt lat="49.062459943816066" lon="8.901792978867888">
<ele>244.79999999999995</ele>
<time>2023-05-17T09:54:05Z</time>
</trkpt>
<trkpt lat="49.06248693354428" lon="8.901741933077574">
<ele>244.79999999999995</ele>
<time>2023-05-17T09:54:06Z</time>
</trkpt>
<trkpt lat="49.06251199543476" lon="8.901694994419813">
<ele>244.79999999999995</ele>
<time>2023-05-17T09:54:07Z</time>
</trkpt>
<trkpt lat="49.06253194436431" lon="8.901651995256543">
<ele>245</ele>
<time>2023-05-17T09:54:08Z</time>
</trkpt>
<trkpt lat="49.06254191882908" lon="8.90160497277975">
<ele>245</ele>
<time>2023-05-17T09:54:09Z</time>
</trkpt>
<trkpt lat="49.0625599399209" lon="8.901564991101623">
<ele>245</ele>
<time>2023-05-17T09:54:10Z</time>
</trkpt>
<trkpt lat="49.06257494352758" lon="8.901519980281591">
<ele>245</ele>
<time>2023-05-17T09:54:11Z</time>
</trkpt>
<trkpt lat="49.0625979937613" lon="8.901472957804799">
<ele>245</ele>
<time>2023-05-17T09:54:12Z</time>
</trkpt>
<trkpt lat="49.062626995146275" lon="8.901419984176755">
<ele>245</ele>
<time>2023-05-17T09:54:13Z</time>
</trkpt>
<trkpt lat="49.062652979046106" lon="8.901356952264905">
<ele>245.20000000000005</ele>
<time>2023-05-17T09:54:14Z</time>
</trkpt>
<trkpt lat="49.06267795711756" lon="8.901291992515326">
<ele>245.20000000000005</ele>
<time>2023-05-17T09:54:15Z</time>
</trkpt>
<trkpt lat="49.06269798986614" lon="8.901222925633192">
<ele>245.20000000000005</ele>
<time>2023-05-17T09:54:16Z</time>
</trkpt>
<trkpt lat="49.062717938795686" lon="8.90115494839847">
<ele>245.39999999999998</ele>
<time>2023-05-17T09:54:17Z</time>
</trkpt>
<trkpt lat="49.062736965715885" lon="8.901082947850227">
<ele>245.60000000000002</ele>
<time>2023-05-17T09:54:18Z</time>
</trkpt>
<trkpt lat="49.062754986807704" lon="8.901006923988461">
<ele>245.60000000000002</ele>
<time>2023-05-17T09:54:19Z</time>
</trkpt>
<trkpt lat="49.06277191825211" lon="8.900927966460586">
<ele>245.79999999999995</ele>
<time>2023-05-17T09:54:20Z</time>
</trkpt>
<trkpt lat="49.06278993934393" lon="8.900846997275949">
<ele>246</ele>
<time>2023-05-17T09:54:21Z</time>
</trkpt>
<trkpt lat="49.06280997209251" lon="8.9007649384439">
<ele>246</ele>
<time>2023-05-17T09:54:22Z</time>
</trkpt>
<trkpt lat="49.06282992102206" lon="8.90067994594574">
<ele>246.20000000000005</ele>
<time>2023-05-17T09:54:23Z</time>
</trkpt>
<trkpt lat="49.062847942113876" lon="8.90059495344758">
<ele>246.39999999999998</ele>
<time>2023-05-17T09:54:24Z</time>
</trkpt>
<trkpt lat="49.062867974862456" lon="8.90050694346428">
<ele>246.60000000000002</ele>
<time>2023-05-17T09:54:25Z</time>
</trkpt>
<trkpt lat="49.062887923792005" lon="8.900419939309359">
<ele>246.60000000000002</ele>
<time>2023-05-17T09:54:26Z</time>
</trkpt>
<trkpt lat="49.062909968197346" lon="8.900332935154438">
<ele>246.79999999999995</ele>
<time>2023-05-17T09:54:27Z</time>
</trkpt>
<trkpt lat="49.062929917126894" lon="8.900247942656279">
<ele>247</ele>
<time>2023-05-17T09:54:28Z</time>
</trkpt>
<trkpt lat="49.062949949875474" lon="8.90016496181488">
<ele>247.20000000000005</ele>
<time>2023-05-17T09:54:29Z</time>
</trkpt>
<trkpt lat="49.06296696513891" lon="8.900084998458624">
<ele>247.39999999999998</ele>
<time>2023-05-17T09:54:30Z</time>
</trkpt>
<trkpt lat="49.06298297457397" lon="8.900006962940097">
<ele>247.60000000000002</ele>
<time>2023-05-17T09:54:31Z</time>
</trkpt>
<trkpt lat="49.06299797818065" lon="8.89992498792708">
<ele>247.79999999999995</ele>
<time>2023-05-17T09:54:32Z</time>
</trkpt>
<trkpt lat="49.063014993444085" lon="8.899844940751791">
<ele>248</ele>
<time>2023-05-17T09:54:33Z</time>
</trkpt>
<trkpt lat="49.06302999705076" lon="8.899759948253632">
<ele>248.20000000000005</ele>
<time>2023-05-17T09:54:34Z</time>
</trkpt>
<trkpt lat="49.06304298900068" lon="8.89966799877584">
<ele>248.39999999999998</ele>
<time>2023-05-17T09:54:35Z</time>
</trkpt>
<trkpt lat="49.063057992607355" lon="8.899582922458649">
<ele>248.60000000000002</ele>
<time>2023-05-17T09:54:36Z</time>
</trkpt>
<trkpt lat="49.06307299621403" lon="8.899496924132109">
<ele>249</ele>
<time>2023-05-17T09:54:37Z</time>
</trkpt>
<trkpt lat="49.06308992765844" lon="8.89941193163395">
<ele>249.20000000000005</ele>
<time>2023-05-17T09:54:38Z</time>
</trkpt>
<trkpt lat="49.06310794875026" lon="8.89932794496417">
<ele>249.39999999999998</ele>
<time>2023-05-17T09:54:39Z</time>
</trkpt>
<trkpt lat="49.063124964013696" lon="8.899244964122772">
<ele>249.60000000000002</ele>
<time>2023-05-17T09:54:40Z</time>
</trkpt>
<trkpt lat="49.063141979277134" lon="8.899164916947484">
<ele>249.79999999999995</ele>
<time>2023-05-17T09:54:41Z</time>
</trkpt>
<trkpt lat="49.06315798871219" lon="8.89908998273313">
<ele>250</ele>
<time>2023-05-17T09:54:42Z</time>
</trkpt>
<trkpt lat="49.06317793764174" lon="8.899019993841648">
<ele>250.39999999999998</ele>
<time>2023-05-17T09:54:43Z</time>
</trkpt>
<trkpt lat="49.06319696456194" lon="8.898956961929798">
<ele>250.60000000000002</ele>
<time>2023-05-17T09:54:44Z</time>
</trkpt>
<trkpt lat="49.063209956511855" lon="8.898894935846329">
<ele>250.79999999999995</ele>
<time>2023-05-17T09:54:45Z</time>
</trkpt>
<trkpt lat="49.06322496011853" lon="8.898836933076382">
<ele>251</ele>
<time>2023-05-17T09:54:46Z</time>
</trkpt>
<trkpt lat="49.06323795206845" lon="8.898779936134815">
<ele>251.39999999999998</ele>
<time>2023-05-17T09:54:47Z</time>
</trkpt>
<trkpt lat="49.063252955675125" lon="8.898722939193249">
<ele>251.60000000000002</ele>
<time>2023-05-17T09:54:48Z</time>
</trkpt>
<trkpt lat="49.06326695345342" lon="8.898671977221966">
<ele>251.79999999999995</ele>
<time>2023-05-17T09:54:49Z</time>
</trkpt>
<trkpt lat="49.06327994540334" lon="8.898612968623638">
<ele>252.20000000000005</ele>
<time>2023-05-17T09:54:50Z</time>
</trkpt>
<trkpt lat="49.063294949010015" lon="8.89855295419693">
<ele>252.39999999999998</ele>
<time>2023-05-17T09:54:51Z</time>
</trkpt>
<trkpt lat="49.06330794095993" lon="8.898492939770222">
<ele>252.60000000000002</ele>
<time>2023-05-17T09:54:52Z</time>
</trkpt>
<trkpt lat="49.06332294456661" lon="8.898432925343513">
<ele>252.79999999999995</ele>
<time>2023-05-17T09:54:53Z</time>
</trkpt>
<trkpt lat="49.063337948173285" lon="8.89837995171547">
<ele>253.20000000000005</ele>
<time>2023-05-17T09:54:54Z</time>
</trkpt>
<trkpt lat="49.06334993429482" lon="8.898324966430664">
<ele>253.39999999999998</ele>
<time>2023-05-17T09:54:55Z</time>
</trkpt>
<trkpt lat="49.0633649379015" lon="8.898266963660717">
<ele>253.60000000000002</ele>
<time>2023-05-17T09:54:56Z</time>
</trkpt>
<trkpt lat="49.063379941508174" lon="8.898212984204292">
<ele>253.79999999999995</ele>
<time>2023-05-17T09:54:57Z</time>
</trkpt>
<trkpt lat="49.06339494511485" lon="8.898157998919487">
<ele>254</ele>
<time>2023-05-17T09:54:58Z</time>
</trkpt>
<trkpt lat="49.06341296620667" lon="8.898106953129172">
<ele>254.20000000000005</ele>
<time>2023-05-17T09:54:59Z</time>
</trkpt>
<trkpt lat="49.06343199312687" lon="8.898051967844367">
<ele>254.20000000000005</ele>
<time>2023-05-17T09:55:00Z</time>
</trkpt>
<trkpt lat="49.063449930399656" lon="8.897991953417659">
<ele>254.39999999999998</ele>
<time>2023-05-17T09:55:01Z</time>
</trkpt>
<trkpt lat="49.063466945663095" lon="8.897934956476092">
<ele>254.60000000000002</ele>
<time>2023-05-17T09:55:02Z</time>
</trkpt>
<trkpt lat="49.06348295509815" lon="8.897877959534526">
<ele>254.60000000000002</ele>
<time>2023-05-17T09:55:03Z</time>
</trkpt>
<trkpt lat="49.06350198201835" lon="8.897817945107818">
<ele>254.60000000000002</ele>
<time>2023-05-17T09:55:04Z</time>
</trkpt>
<trkpt lat="49.06351991929114" lon="8.89775994233787">
<ele>254.79999999999995</ele>
<time>2023-05-17T09:55:05Z</time>
</trkpt>
<trkpt lat="49.06353995203972" lon="8.897699927911162">
<ele>254.79999999999995</ele>
<time>2023-05-17T09:55:06Z</time>
</trkpt>
<trkpt lat="49.0635599847883" lon="8.897639997303486">
<ele>254.79999999999995</ele>
<time>2023-05-17T09:55:07Z</time>
</trkpt>
<trkpt lat="49.06357993371785" lon="8.897577971220016">
<ele>254.79999999999995</ele>
<time>2023-05-17T09:55:08Z</time>
</trkpt>
<trkpt lat="49.06360298395157" lon="8.897514939308167">
<ele>254.79999999999995</ele>
<time>2023-05-17T09:55:09Z</time>
</trkpt>
<trkpt lat="49.06362494453788" lon="8.897452997043729">
<ele>254.79999999999995</ele>
<time>2023-05-17T09:55:10Z</time>
</trkpt>
<trkpt lat="49.06364698894322" lon="8.897387953475118">
<ele>254.79999999999995</ele>
<time>2023-05-17T09:55:11Z</time>
</trkpt>
<trkpt lat="49.06366693787277" lon="8.897321987897158">
<ele>254.79999999999995</ele>
<time>2023-05-17T09:55:12Z</time>
</trkpt>
<trkpt lat="49.063684958964586" lon="8.897254932671785">
<ele>254.79999999999995</ele>
<time>2023-05-17T09:55:13Z</time>
</trkpt>
<trkpt lat="49.063706919550896" lon="8.897179998457432">
<ele>254.79999999999995</ele>
<time>2023-05-17T09:55:14Z</time>
</trkpt>
<trkpt lat="49.06371999531984" lon="8.897104980424047">
<ele>254.79999999999995</ele>
<time>2023-05-17T09:55:15Z</time>
</trkpt>
<trkpt lat="49.06373994424939" lon="8.897032979875803">
<ele>254.79999999999995</ele>
<time>2023-05-17T09:55:16Z</time>
</trkpt>
<trkpt lat="49.06376299448311" lon="8.89696198515594">
<ele>254.79999999999995</ele>
<time>2023-05-17T09:55:17Z</time>
</trkpt>
<trkpt lat="49.063787972554564" lon="8.896884955465794">
<ele>254.79999999999995</ele>
<time>2023-05-17T09:55:18Z</time>
</trkpt>
<trkpt lat="49.06380792148411" lon="8.89681194908917">
<ele>254.79999999999995</ele>
<time>2023-05-17T09:55:19Z</time>
</trkpt>
<trkpt lat="49.063832983374596" lon="8.896741960197687">
<ele>254.79999999999995</ele>
<time>2023-05-17T09:55:20Z</time>
</trkpt>
<trkpt lat="49.06386198475957" lon="8.896672977134585">
<ele>254.79999999999995</ele>
<time>2023-05-17T09:55:21Z</time>
</trkpt>
<trkpt lat="49.06389199197292" lon="8.896612962707877">
<ele>254.79999999999995</ele>
<time>2023-05-17T09:55:22Z</time>
</trkpt>
<trkpt lat="49.063922921195626" lon="8.896549930796027">
<ele>254.79999999999995</ele>
<time>2023-05-17T09:55:23Z</time>
</trkpt>
<trkpt lat="49.06395494006574" lon="8.896486982703209">
<ele>254.79999999999995</ele>
<time>2023-05-17T09:55:24Z</time>
</trkpt>
<trkpt lat="49.063982935622334" lon="8.896421939134598">
<ele>254.79999999999995</ele>
<time>2023-05-17T09:55:25Z</time>
</trkpt>
<trkpt lat="49.06401193700731" lon="8.896357985213399">
<ele>254.79999999999995</ele>
<time>2023-05-17T09:55:26Z</time>
</trkpt>
<trkpt lat="49.06404295004904" lon="8.896299982443452">
<ele>254.79999999999995</ele>
<time>2023-05-17T09:55:27Z</time>
</trkpt>
<trkpt lat="49.0640729572624" lon="8.896241979673505">
<ele>254.79999999999995</ele>
<time>2023-05-17T09:55:28Z</time>
</trkpt>
<trkpt lat="49.06410296447575" lon="8.896171990782022">
<ele>254.79999999999995</ele>
<time>2023-05-17T09:55:29Z</time>
</trkpt>
<trkpt lat="49.06412995420396" lon="8.896109964698553">
<ele>255</ele>
<time>2023-05-17T09:55:30Z</time>
</trkpt>
<trkpt lat="49.064157949760556" lon="8.89603997580707">
<ele>255</ele>
<time>2023-05-17T09:55:31Z</time>
</trkpt>
<trkpt lat="49.06418795697391" lon="8.895977949723601">
<ele>255</ele>
<time>2023-05-17T09:55:32Z</time>
</trkpt>
<trkpt lat="49.06421293504536" lon="8.895916929468513">
<ele>255</ele>
<time>2023-05-17T09:55:33Z</time>
</trkpt>
<trkpt lat="49.064241936430335" lon="8.895859932526946">
<ele>255</ele>
<time>2023-05-17T09:55:34Z</time>
</trkpt>
<trkpt lat="49.06427496112883" lon="8.895799918100238">
<ele>255</ele>
<time>2023-05-17T09:55:35Z</time>
</trkpt>
<trkpt lat="49.064302956685424" lon="8.895741999149323">
<ele>255</ele>
<time>2023-05-17T09:55:36Z</time>
</trkpt>
<trkpt lat="49.0643319580704" lon="8.895682990550995">
<ele>255.20000000000005</ele>
<time>2023-05-17T09:55:37Z</time>
</trkpt>
<trkpt lat="49.06436498276889" lon="8.895624987781048">
<ele>255.20000000000005</ele>
<time>2023-05-17T09:55:38Z</time>
</trkpt>
<trkpt lat="49.064392978325486" lon="8.8955669850111">
<ele>255.20000000000005</ele>
<time>2023-05-17T09:55:39Z</time>
</trkpt>
<trkpt lat="49.0644199680537" lon="8.895507976412773">
<ele>255.39999999999998</ele>
<time>2023-05-17T09:55:40Z</time>
</trkpt>
<trkpt lat="49.06444695778191" lon="8.895451985299587">
<ele>255.39999999999998</ele>
<time>2023-05-17T09:55:41Z</time>
</trkpt>
<trkpt lat="49.064476964995265" lon="8.895389959216118">
<ele>255.60000000000002</ele>
<time>2023-05-17T09:55:42Z</time>
</trkpt>
<trkpt lat="49.0645029488951" lon="8.895324999466538">
<ele>255.60000000000002</ele>
<time>2023-05-17T09:55:43Z</time>
</trkpt>
<trkpt lat="49.06452692113817" lon="8.895262973383069">
<ele>255.60000000000002</ele>
<time>2023-05-17T09:55:44Z</time>
</trkpt>
<trkpt lat="49.06455298885703" lon="8.895206982269883">
<ele>255.79999999999995</ele>
<time>2023-05-17T09:55:45Z</time>
</trkpt>
<trkpt lat="49.06457997858524" lon="8.895142944529653">
<ele>255.79999999999995</ele>
<time>2023-05-17T09:55:46Z</time>
</trkpt>
<trkpt lat="49.064607974141836" lon="8.895076978951693">
<ele>255.79999999999995</ele>
<time>2023-05-17T09:55:47Z</time>
</trkpt>
<trkpt lat="49.06463798135519" lon="8.895002966746688">
<ele>256</ele>
<time>2023-05-17T09:55:48Z</time>
</trkpt>
<trkpt lat="49.064666982740164" lon="8.894931972026825">
<ele>256</ele>
<time>2023-05-17T09:55:49Z</time>
</trkpt>
<trkpt lat="49.064689949154854" lon="8.89485695399344">
<ele>256</ele>
<time>2023-05-17T09:55:50Z</time>
</trkpt>
<trkpt lat="49.06470495276153" lon="8.894776990637183">
<ele>256.20000000000005</ele>
<time>2023-05-17T09:55:51Z</time>
</trkpt>
<trkpt lat="49.06471995636821" lon="8.894702978432178">
<ele>256.20000000000005</ele>
<time>2023-05-17T09:55:52Z</time>
</trkpt>
<trkpt lat="49.06472993083298" lon="8.894627960398793">
<ele>256.20000000000005</ele>
<time>2023-05-17T09:55:53Z</time>
</trkpt>
<trkpt lat="49.06473797746003" lon="8.89455797150731">
<ele>256.4</ele>
<time>2023-05-17T09:55:54Z</time>
</trkpt>
<trkpt lat="49.06473998911679" lon="8.89449192211032">
<ele>256.4</ele>
<time>2023-05-17T09:55:55Z</time>
</trkpt>
<trkpt lat="49.064736971631646" lon="8.89442796818912">
<ele>256.4</ele>
<time>2023-05-17T09:55:56Z</time>
</trkpt>
<trkpt lat="49.06472498551011" lon="8.894366947934031">
<ele>256.6</ele>
<time>2023-05-17T09:55:57Z</time>
</trkpt>
<trkpt lat="49.06470696441829" lon="8.894306933507323">
<ele>256.6</ele>
<time>2023-05-17T09:55:58Z</time>
</trkpt>
<trkpt lat="49.06468492001295" lon="8.894256977364421">
<ele>256.6</ele>
<time>2023-05-17T09:55:59Z</time>
</trkpt>
<trkpt lat="49.06466295942664" lon="8.894202997907996">
<ele>256.79999999999995</ele>
<time>2023-05-17T09:56:00Z</time>
</trkpt>
<trkpt lat="49.06464292667806" lon="8.894151952117682">
<ele>256.79999999999995</ele>
<time>2023-05-17T09:56:01Z</time>
</trkpt>
<trkpt lat="49.06462297774851" lon="8.894102917984128">
<ele>257</ele>
<time>2023-05-17T09:56:02Z</time>
</trkpt>
<trkpt lat="49.06460294499993" lon="8.894059918820858">
<ele>257</ele>
<time>2023-05-17T09:56:03Z</time>
</trkpt>
<trkpt lat="49.064582996070385" lon="8.894011974334717">
<ele>257.20000000000005</ele>
<time>2023-05-17T09:56:04Z</time>
</trkpt>
<trkpt lat="49.06455994583666" lon="8.893956989049911">
<ele>257.4</ele>
<time>2023-05-17T09:56:05Z</time>
</trkpt>
<trkpt lat="49.06453195028007" lon="8.893904937431216">
<ele>257.4</ele>
<time>2023-05-17T09:56:06Z</time>
</trkpt>
<trkpt lat="49.06450496055186" lon="8.893851963803172">
<ele>257.6</ele>
<time>2023-05-17T09:56:07Z</time>
</trkpt>
<trkpt lat="49.06447998248041" lon="8.893797984346747">
<ele>257.6</ele>
<time>2023-05-17T09:56:08Z</time>
</trkpt>
<trkpt lat="49.064454920589924" lon="8.893747944384813">
<ele>257.79999999999995</ele>
<time>2023-05-17T09:56:09Z</time>
</trkpt>
<trkpt lat="49.06442994251847" lon="8.893699999898672">
<ele>258</ele>
<time>2023-05-17T09:56:10Z</time>
</trkpt>
<trkpt lat="49.06440496444702" lon="8.8936519715935">
<ele>258</ele>
<time>2023-05-17T09:56:11Z</time>
</trkpt>
<trkpt lat="49.06438199803233" lon="8.893604949116707">
<ele>258.20000000000005</ele>
<time>2023-05-17T09:56:12Z</time>
</trkpt>
<trkpt lat="49.06435693614185" lon="8.893557926639915">
<ele>258.4</ele>
<time>2023-05-17T09:56:13Z</time>
</trkpt>
<trkpt lat="49.06433497555554" lon="8.893512999638915">
<ele>258.4</ele>
<time>2023-05-17T09:56:14Z</time>
</trkpt>
<trkpt lat="49.0643129311502" lon="8.893467988818884">
<ele>258.6</ele>
<time>2023-05-17T09:56:15Z</time>
</trkpt>
<trkpt lat="49.06428795307875" lon="8.893426917493343">
<ele>258.79999999999995</ele>
<time>2023-05-17T09:56:16Z</time>
</trkpt>
<trkpt lat="49.06425492838025" lon="8.893381990492344">
<ele>258.79999999999995</ele>
<time>2023-05-17T09:56:17Z</time>
</trkpt>
<trkpt lat="49.0642249211669" lon="8.893336979672313">
<ele>259</ele>
<time>2023-05-17T09:56:18Z</time>
</trkpt>
<trkpt lat="49.064196925610304" lon="8.893296997994184">
<ele>259.20000000000005</ele>
<time>2023-05-17T09:56:19Z</time>
</trkpt>
<trkpt lat="49.064174965023994" lon="8.893256932497025">
<ele>259.4</ele>
<time>2023-05-17T09:56:20Z</time>
</trkpt>
<trkpt lat="49.064151998609304" lon="8.893219968304038">
<ele>259.6</ele>
<time>2023-05-17T09:56:21Z</time>
</trkpt>
<trkpt lat="49.064132971689105" lon="8.893187949433923">
<ele>259.6</ele>
<time>2023-05-17T09:56:22Z</time>
</trkpt>
<trkpt lat="49.064111933112144" lon="8.893152996897697">
<ele>259.79999999999995</ele>
<time>2023-05-17T09:56:23Z</time>
</trkpt>
<trkpt lat="49.064087960869074" lon="8.893119972199202">
<ele>259.79999999999995</ele>
<time>2023-05-17T09:56:24Z</time>
</trkpt>
<trkpt lat="49.064064994454384" lon="8.893082924187183">
<ele>260</ele>
<time>2023-05-17T09:56:25Z</time>
</trkpt>
<trkpt lat="49.06403297558427" lon="8.893037997186184">
<ele>260.20000000000005</ele>
<time>2023-05-17T09:56:26Z</time>
</trkpt>
<trkpt lat="49.06400799751282" lon="8.892997931689024">
<ele>260.4</ele>
<time>2023-05-17T09:56:27Z</time>
</trkpt>
<trkpt lat="49.063981929793954" lon="8.892969936132431">
<ele>260.4</ele>
<time>2023-05-17T09:56:28Z</time>
</trkpt>
<trkpt lat="49.0639569517225" lon="8.892949987202883">
<ele>260.6</ele>
<time>2023-05-17T09:56:29Z</time>
</trkpt>
<trkpt lat="49.06393197365105" lon="8.892914950847626">
<ele>260.79999999999995</ele>
<time>2023-05-17T09:56:30Z</time>
</trkpt>
<trkpt lat="49.06391194090247" lon="8.89288192614913">
<ele>261</ele>
<time>2023-05-17T09:56:31Z</time>
</trkpt>
<trkpt lat="49.06389492563903" lon="8.892847979441285">
<ele>261</ele>
<time>2023-05-17T09:56:32Z</time>
</trkpt>
<trkpt lat="49.063874976709485" lon="8.892811937257648">
<ele>261.20000000000005</ele>
<time>2023-05-17T09:56:33Z</time>
</trkpt>
<trkpt lat="49.063856955617666" lon="8.892774973064661">
<ele>261.4</ele>
<time>2023-05-17T09:56:34Z</time>
</trkpt>
<trkpt lat="49.06383499503136" lon="8.892734991386533">
<ele>261.6</ele>
<time>2023-05-17T09:56:35Z</time>
</trkpt>
<trkpt lat="49.063812950626016" lon="8.892691992223263">
<ele>261.79999999999995</ele>
<time>2023-05-17T09:56:36Z</time>
</trkpt>
<trkpt lat="49.063792917877436" lon="8.892651926726103">
<ele>262</ele>
<time>2023-05-17T09:56:37Z</time>
</trkpt>
<trkpt lat="49.063769951462746" lon="8.892611945047975">
<ele>262.20000000000005</ele>
<time>2023-05-17T09:56:38Z</time>
</trkpt>
<trkpt lat="49.063749918714166" lon="8.892572969198227">
<ele>262.4</ele>
<time>2023-05-17T09:56:39Z</time>
</trkpt>
<trkpt lat="49.06373298726976" lon="8.89253499917686">
<ele>262.6</ele>
<time>2023-05-17T09:56:40Z</time>
</trkpt>
<trkpt lat="49.0637169778347" lon="8.892491916194558">
<ele>262.79999999999995</ele>
<time>2023-05-17T09:56:41Z</time>
</trkpt>
<trkpt lat="49.06369694508612" lon="8.89245193451643">
<ele>263</ele>
<time>2023-05-17T09:56:42Z</time>
</trkpt>
<trkpt lat="49.06367498449981" lon="8.892416981980205">
<ele>263.20000000000005</ele>
<time>2023-05-17T09:56:43Z</time>
</trkpt>
<trkpt lat="49.06365495175123" lon="8.892382951453328">
<ele>263.4</ele>
<time>2023-05-17T09:56:44Z</time>
</trkpt>
<trkpt lat="49.063641959801316" lon="8.892347998917103">
<ele>263.6</ele>
<time>2023-05-17T09:56:45Z</time>
</trkpt>
<trkpt lat="49.06362494453788" lon="8.892317991703749">
<ele>264</ele>
<time>2023-05-17T09:56:46Z</time>
</trkpt>
<trkpt lat="49.06361195258796" lon="8.892274992540479">
<ele>264.20000000000005</ele>
<time>2023-05-17T09:56:47Z</time>
</trkpt>
<trkpt lat="49.063596948981285" lon="8.892229981720448">
<ele>264.4</ele>
<time>2023-05-17T09:56:48Z</time>
</trkpt>
<trkpt lat="49.063577922061086" lon="8.892191927880049">
<ele>264.6</ele>
<time>2023-05-17T09:56:49Z</time>
</trkpt>
<trkpt lat="49.06356694176793" lon="8.892154963687062">
<ele>264.79999999999995</ele>
<time>2023-05-17T09:56:50Z</time>
</trkpt>
<trkpt lat="49.063552943989635" lon="8.892121938988566">
<ele>265</ele>
<time>2023-05-17T09:56:51Z</time>
</trkpt>
<trkpt lat="49.063534922897816" lon="8.892087992280722">
<ele>265.20000000000005</ele>
<time>2023-05-17T09:56:52Z</time>
</trkpt>
<trkpt lat="49.06351497396827" lon="8.892067959532142">
<ele>265.20000000000005</ele>
<time>2023-05-17T09:56:53Z</time>
</trkpt>
<trkpt lat="49.06349795870483" lon="8.892037952318788">
<ele>265.4</ele>
<time>2023-05-17T09:56:54Z</time>
</trkpt>
<trkpt lat="49.06348194926977" lon="8.892006939277053">
<ele>265.6</ele>
<time>2023-05-17T09:56:55Z</time>
</trkpt>
<trkpt lat="49.063466945663095" lon="8.891971986740828">
<ele>265.79999999999995</ele>
<time>2023-05-17T09:56:56Z</time>
</trkpt>
<trkpt lat="49.063449930399656" lon="8.89193695038557">
<ele>266</ele>
<time>2023-05-17T09:56:57Z</time>
</trkpt>
<trkpt lat="49.06343794427812" lon="8.891901997849345">
<ele>266.20000000000005</ele>
<time>2023-05-17T09:56:58Z</time>
</trkpt>
<trkpt lat="49.063422940671444" lon="8.891866961494088">
<ele>266.4</ele>
<time>2023-05-17T09:56:59Z</time>
</trkpt>
<trkpt lat="49.06341196037829" lon="8.891836954280734">
<ele>266.6</ele>
<time>2023-05-17T09:57:00Z</time>
</trkpt>
<trkpt lat="49.063399974256754" lon="8.891802923753858">
<ele>266.79999999999995</ele>
<time>2023-05-17T09:57:01Z</time>
</trkpt>
<trkpt lat="49.06338798813522" lon="8.891769982874393">
<ele>267</ele>
<time>2023-05-17T09:57:02Z</time>
</trkpt>
<trkpt lat="49.06337792985141" lon="8.89173997566104">
<ele>267.4</ele>
<time>2023-05-17T09:57:03Z</time>
</trkpt>
<trkpt lat="49.063359992578626" lon="8.891709968447685">
<ele>267.6</ele>
<time>2023-05-17T09:57:04Z</time>
</trkpt>
<trkpt lat="49.06334498897195" lon="8.891674932092428">
<ele>267.79999999999995</ele>
<time>2023-05-17T09:57:05Z</time>
</trkpt>
<trkpt lat="49.06332998536527" lon="8.8916349504143">
<ele>268</ele>
<time>2023-05-17T09:57:06Z</time>
</trkpt>
<trkpt lat="49.06331297010183" lon="8.891594968736172">
<ele>268.20000000000005</ele>
<time>2023-05-17T09:57:07Z</time>
</trkpt>
<trkpt lat="49.06329997815192" lon="8.891559932380915">
<ele>268.4</ele>
<time>2023-05-17T09:57:08Z</time>
</trkpt>
<trkpt lat="49.06328497454524" lon="8.891519950702786">
<ele>268.6</ele>
<time>2023-05-17T09:57:09Z</time>
</trkpt>
<trkpt lat="49.063272988423705" lon="8.8914829865098">
<ele>268.79999999999995</ele>
<time>2023-05-17T09:57:10Z</time>
</trkpt>
<trkpt lat="49.06325999647379" lon="8.891447950154543">
<ele>269</ele>
<time>2023-05-17T09:57:11Z</time>
</trkpt>
<trkpt lat="49.06324692070484" lon="8.891414925456047">
<ele>269.20000000000005</ele>
<time>2023-05-17T09:57:12Z</time>
</trkpt>
<trkpt lat="49.06323694624007" lon="8.89137796126306">
<ele>269.4</ele>
<time>2023-05-17T09:57:13Z</time>
</trkpt>
<trkpt lat="49.063227977603674" lon="8.891344936564565">
<ele>269.6</ele>
<time>2023-05-17T09:57:14Z</time>
</trkpt>
<trkpt lat="49.06321791931987" lon="8.89130998402834">
<ele>269.79999999999995</ele>
<time>2023-05-17T09:57:15Z</time>
</trkpt>
<trkpt lat="49.06320492736995" lon="8.89127193018794">
<ele>270.20000000000005</ele>
<time>2023-05-17T09:57:16Z</time>
</trkpt>
<trkpt lat="49.063191935420036" lon="8.891232954338193">
<ele>270.4</ele>
<time>2023-05-17T09:57:17Z</time>
</trkpt>
<trkpt lat="49.06318196095526" lon="8.891194984316826">
<ele>270.6</ele>
<time>2023-05-17T09:57:18Z</time>
</trkpt>
<trkpt lat="49.06317198649049" lon="8.891154918819666">
<ele>270.79999999999995</ele>
<time>2023-05-17T09:57:19Z</time>
</trkpt>
<trkpt lat="49.06316192820668" lon="8.891116948798299">
<ele>271</ele>
<time>2023-05-17T09:57:20Z</time>
</trkpt>
<trkpt lat="49.06314994208515" lon="8.891079984605312">
<ele>271.20000000000005</ele>
<time>2023-05-17T09:57:21Z</time>
</trkpt>
<trkpt lat="49.06313996762037" lon="8.891044948250055">
<ele>271.4</ele>
<time>2023-05-17T09:57:22Z</time>
</trkpt>
<trkpt lat="49.06313192099333" lon="8.89101192355156">
<ele>271.6</ele>
<time>2023-05-17T09:57:23Z</time>
</trkpt>
<trkpt lat="49.063122952356935" lon="8.890977976843715">
<ele>272</ele>
<time>2023-05-17T09:57:24Z</time>
</trkpt>
<trkpt lat="49.06311197206378" lon="8.890942940488458">
<ele>272.20000000000005</ele>
<time>2023-05-17T09:57:25Z</time>
</trkpt>
<trkpt lat="49.063102919608355" lon="8.890907987952232">
<ele>272.4</ele>
<time>2023-05-17T09:57:26Z</time>
</trkpt>
<trkpt lat="49.06309294514358" lon="8.890871945768595">
<ele>272.6</ele>
<time>2023-05-17T09:57:27Z</time>
</trkpt>
<trkpt lat="49.063082970678806" lon="8.890834981575608">
<ele>272.79999999999995</ele>
<time>2023-05-17T09:57:28Z</time>
</trkpt>
<trkpt lat="49.06307299621403" lon="8.89079692773521">
<ele>273</ele>
<time>2023-05-17T09:57:29Z</time>
</trkpt>
<trkpt lat="49.06306997872889" lon="8.890759963542223">
<ele>273.20000000000005</ele>
<time>2023-05-17T09:57:30Z</time>
</trkpt>
<trkpt lat="49.06306494958699" lon="8.890721993520856">
<ele>273.4</ele>
<time>2023-05-17T09:57:31Z</time>
</trkpt>
<trkpt lat="49.063059920445085" lon="8.89068796299398">
<ele>273.6</ele>
<time>2023-05-17T09:57:32Z</time>
</trkpt>
<trkpt lat="49.06305497512221" lon="8.890654938295484">
<ele>274</ele>
<time>2023-05-17T09:57:33Z</time>
</trkpt>
<trkpt lat="49.06305195763707" lon="8.89062493108213">
<ele>274.20000000000005</ele>
<time>2023-05-17T09:57:34Z</time>
</trkpt>
<trkpt lat="49.06304793432355" lon="8.890599953010678">
<ele>274.4</ele>
<time>2023-05-17T09:57:35Z</time>
</trkpt>
<trkpt lat="49.06304491683841" lon="8.890579920262098">
<ele>274.6</ele>
<time>2023-05-17T09:57:36Z</time>
</trkpt>
<trkpt lat="49.063037959858775" lon="8.890564916655421">
<ele>274.79999999999995</ele>
<time>2023-05-17T09:57:37Z</time>
</trkpt>
<trkpt lat="49.06302697956562" lon="8.890552930533886">
<ele>275</ele>
<time>2023-05-17T09:57:38Z</time>
</trkpt>
<trkpt lat="49.063016921281815" lon="8.890531975775957">
<ele>275.20000000000005</ele>
<time>2023-05-17T09:57:39Z</time>
</trkpt>
<trkpt lat="49.063012981787324" lon="8.890512948855758">
<ele>275.6</ele>
<time>2023-05-17T09:57:40Z</time>
</trkpt>
<trkpt lat="49.06300292350352" lon="8.890502974390984">
<ele>275.79999999999995</ele>
<time>2023-05-17T09:57:41Z</time>
</trkpt>
<trkpt lat="49.062994960695505" lon="8.890481935814023">
<ele>276</ele>
<time>2023-05-17T09:57:42Z</time>
</trkpt>
<trkpt lat="49.06298791989684" lon="8.890457963570952">
<ele>276.20000000000005</ele>
<time>2023-05-17T09:57:43Z</time>
</trkpt>
<trkpt lat="49.06298196874559" lon="8.890427956357598">
<ele>276.4</ele>
<time>2023-05-17T09:57:44Z</time>
</trkpt>
<trkpt lat="49.062972916290164" lon="8.890394931659102">
<ele>276.6</ele>
<time>2023-05-17T09:57:45Z</time>
</trkpt>
<trkpt lat="49.06296495348215" lon="8.890362996608019">
<ele>277</ele>
<time>2023-05-17T09:57:46Z</time>
</trkpt>
<trkpt lat="49.06296294182539" lon="8.890322931110859">
<ele>277.20000000000005</ele>
<time>2023-05-17T09:57:47Z</time>
</trkpt>
<trkpt lat="49.06296294182539" lon="8.890291918069124">
<ele>277.4</ele>
<time>2023-05-17T09:57:48Z</time>
</trkpt>
<trkpt lat="49.06296193599701" lon="8.890252942219377">
<ele>277.6</ele>
<time>2023-05-17T09:57:49Z</time>
</trkpt>
<trkpt lat="49.06296294182539" lon="8.890222935006022">
<ele>277.79999999999995</ele>
<time>2023-05-17T09:57:50Z</time>
</trkpt>
<trkpt lat="49.06295699067414" lon="8.890199968591332">
<ele>278</ele>
<time>2023-05-17T09:57:51Z</time>
</trkpt>
<trkpt lat="49.062951961532235" lon="8.89017197303474">
<ele>278.4</ele>
<time>2023-05-17T09:57:52Z</time>
</trkpt>
<trkpt lat="49.06294492073357" lon="8.890149928629398">
<ele>278.6</ele>
<time>2023-05-17T09:57:53Z</time>
</trkpt>
<trkpt lat="49.06293695792556" lon="8.89012997969985">
<ele>278.79999999999995</ele>
<time>2023-05-17T09:57:54Z</time>
</trkpt>
<trkpt lat="49.06293695792556" lon="8.890094943344593">
<ele>279</ele>
<time>2023-05-17T09:57:55Z</time>
</trkpt>
<trkpt lat="49.062927989289165" lon="8.890069965273142">
<ele>279.20000000000005</ele>
<time>2023-05-17T09:57:56Z</time>
</trkpt>
<trkpt lat="49.06292195431888" lon="8.890039958059788">
<ele>279.4</ele>
<time>2023-05-17T09:57:57Z</time>
</trkpt>
<trkpt lat="49.06291298568249" lon="8.890009950846434">
<ele>279.6</ele>
<time>2023-05-17T09:57:58Z</time>
</trkpt>
<trkpt lat="49.06291197985411" lon="8.889972986653447">
<ele>280</ele>
<time>2023-05-17T09:57:59Z</time>
</trkpt>
<trkpt lat="49.062907956540585" lon="8.889939961954951">
<ele>280.20000000000005</ele>
<time>2023-05-17T09:58:00Z</time>
</trkpt>
<trkpt lat="49.062906950712204" lon="8.889897968620062">
<ele>280.4</ele>
<time>2023-05-17T09:58:01Z</time>
</trkpt>
<trkpt lat="49.06289999373257" lon="8.889859998598695">
<ele>280.6</ele>
<time>2023-05-17T09:58:02Z</time>
</trkpt>
<trkpt lat="49.06289194710553" lon="8.88982999138534">
<ele>280.79999999999995</ele>
<time>2023-05-17T09:58:03Z</time>
</trkpt>
<trkpt lat="49.062886917963624" lon="8.889797972515225">
<ele>281</ele>
<time>2023-05-17T09:58:04Z</time>
</trkpt>
<trkpt lat="49.06287794932723" lon="8.88976494781673">
<ele>281.20000000000005</ele>
<time>2023-05-17T09:58:05Z</time>
</trkpt>
<trkpt lat="49.06286998651922" lon="8.889731923118234">
<ele>281.4</ele>
<time>2023-05-17T09:58:06Z</time>
</trkpt>
<trkpt lat="49.06286294572055" lon="8.889696970582008">
<ele>281.6</ele>
<time>2023-05-17T09:58:07Z</time>
</trkpt>
<trkpt lat="49.06285498291254" lon="8.88965698890388">
<ele>281.79999999999995</ele>
<time>2023-05-17T09:58:08Z</time>
</trkpt>
<trkpt lat="49.0628519654274" lon="8.889621952548623">
<ele>282</ele>
<time>2023-05-17T09:58:09Z</time>
</trkpt>
<trkpt lat="49.062846936285496" lon="8.88959295116365">
<ele>282.4</ele>
<time>2023-05-17T09:58:10Z</time>
</trkpt>
<trkpt lat="49.06283997930586" lon="8.889564955607057">
<ele>282.6</ele>
<time>2023-05-17T09:58:11Z</time>
</trkpt>
<trkpt lat="49.06282992102206" lon="8.889537965878844">
<ele>282.79999999999995</ele>
<time>2023-05-17T09:58:12Z</time>
</trkpt>
<trkpt lat="49.06281994655728" lon="8.889504941180348">
<ele>283</ele>
<time>2023-05-17T09:58:13Z</time>
</trkpt>
<trkpt lat="49.06280796043575" lon="8.889472922310233">
<ele>283.20000000000005</ele>
<time>2023-05-17T09:58:14Z</time>
</trkpt>
<trkpt lat="49.062797985970974" lon="8.889446938410401">
<ele>283.4</ele>
<time>2023-05-17T09:58:15Z</time>
</trkpt>
<trkpt lat="49.06278993934393" lon="8.88942196033895">
<ele>283.6</ele>
<time>2023-05-17T09:58:16Z</time>
</trkpt>
<trkpt lat="49.062779964879155" lon="8.889392958953977">
<ele>283.79999999999995</ele>
<time>2023-05-17T09:58:17Z</time>
</trkpt>
<trkpt lat="49.06276797875762" lon="8.889364963397384">
<ele>284.20000000000005</ele>
<time>2023-05-17T09:58:18Z</time>
</trkpt>
<trkpt lat="49.062761943787336" lon="8.889337973669171">
<ele>284.4</ele>
<time>2023-05-17T09:58:19Z</time>
</trkpt>
<trkpt lat="49.06274794600904" lon="8.889304948970675">
<ele>284.6</ele>
<time>2023-05-17T09:58:20Z</time>
</trkpt>
<trkpt lat="49.06273294240236" lon="8.88926999643445">
<ele>284.79999999999995</ele>
<time>2023-05-17T09:58:21Z</time>
</trkpt>
<trkpt lat="49.06271995045245" lon="8.889236971735954">
<ele>285</ele>
<time>2023-05-17T09:58:22Z</time>
</trkpt>
<trkpt lat="49.062711987644434" lon="8.889214927330613">
<ele>285.20000000000005</ele>
<time>2023-05-17T09:58:23Z</time>
</trkpt>
<trkpt lat="49.06270192936063" lon="8.889189949259162">
<ele>285.4</ele>
<time>2023-05-17T09:58:24Z</time>
</trkpt>
<trkpt lat="49.06269698403776" lon="8.889166982844472">
<ele>285.6</ele>
<time>2023-05-17T09:58:25Z</time>
</trkpt>
<trkpt lat="49.06268793158233" lon="8.889149967581034">
<ele>286</ele>
<time>2023-05-17T09:58:26Z</time>
</trkpt>
<trkpt lat="49.062672927975655" lon="8.889127923175693">
<ele>286.20000000000005</ele>
<time>2023-05-17T09:58:27Z</time>
</trkpt>
<trkpt lat="49.06265792436898" lon="8.88910193927586">
<ele>286.4</ele>
<time>2023-05-17T09:58:28Z</time>
</trkpt>
<trkpt lat="49.06264493241906" lon="8.889086935669184">
<ele>286.6</ele>
<time>2023-05-17T09:58:29Z</time>
</trkpt>
<trkpt lat="49.062626995146275" lon="8.889062963426113">
<ele>286.79999999999995</ele>
<time>2023-05-17T09:58:30Z</time>
</trkpt>
<trkpt lat="49.0626119915396" lon="8.889036979526281">
<ele>287</ele>
<time>2023-05-17T09:58:31Z</time>
</trkpt>
<trkpt lat="49.06259698793292" lon="8.889007978141308">
<ele>287.20000000000005</ele>
<time>2023-05-17T09:58:32Z</time>
</trkpt>
<trkpt lat="49.06257997266948" lon="8.888976965099573">
<ele>287.4</ele>
<time>2023-05-17T09:58:33Z</time>
</trkpt>
<trkpt lat="49.06256195157766" lon="8.888939917087555">
<ele>287.79999999999995</ele>
<time>2023-05-17T09:58:34Z</time>
</trkpt>
<trkpt lat="49.06255197711289" lon="8.88890697620809">
<ele>288</ele>
<time>2023-05-17T09:58:35Z</time>
</trkpt>
<trkpt lat="49.062539990991354" lon="8.88888199813664">
<ele>288.20000000000005</ele>
<time>2023-05-17T09:58:36Z</time>
</trkpt>
<trkpt lat="49.06252699904144" lon="8.888851990923285">
<ele>288.4</ele>
<time>2023-05-17T09:58:37Z</time>
</trkpt>
<trkpt lat="49.062509983778" lon="8.888822989538312">
<ele>288.6</ele>
<time>2023-05-17T09:58:38Z</time>
</trkpt>
<trkpt lat="49.062496991828084" lon="8.888797927647829">
<ele>288.79999999999995</ele>
<time>2023-05-17T09:58:39Z</time>
</trkpt>
<trkpt lat="49.06248198822141" lon="8.888781918212771">
<ele>289.20000000000005</ele>
<time>2023-05-17T09:58:40Z</time>
</trkpt>
<trkpt lat="49.06246799044311" lon="8.888764986768365">
<ele>289.4</ele>
<time>2023-05-17T09:58:41Z</time>
</trkpt>
<trkpt lat="49.062456926330924" lon="8.888742942363024">
<ele>289.6</ele>
<time>2023-05-17T09:58:42Z</time>
</trkpt>
<trkpt lat="49.06243999488652" lon="8.88871494680643">
<ele>289.79999999999995</ele>
<time>2023-05-17T09:58:43Z</time>
</trkpt>
<trkpt lat="49.0624219737947" lon="8.888687957078218">
<ele>290</ele>
<time>2023-05-17T09:58:44Z</time>
</trkpt>
<trkpt lat="49.06240194104612" lon="8.888654932379723">
<ele>290.20000000000005</ele>
<time>2023-05-17T09:58:45Z</time>
</trkpt>
<trkpt lat="49.06238693743944" lon="8.888624925166368">
<ele>290.4</ele>
<time>2023-05-17T09:58:46Z</time>
</trkpt>
<trkpt lat="49.062367994338274" lon="8.888596929609776">
<ele>290.6</ele>
<time>2023-05-17T09:58:47Z</time>
</trkpt>
<trkpt lat="49.0623529907316" lon="8.888572957366705">
<ele>290.79999999999995</ele>
<time>2023-05-17T09:58:48Z</time>
</trkpt>
<trkpt lat="49.06233496963978" lon="8.888551918789744">
<ele>291.20000000000005</ele>
<time>2023-05-17T09:58:49Z</time>
</trkpt>
<trkpt lat="49.0623149368912" lon="8.888529958203435">
<ele>291.4</ele>
<time>2023-05-17T09:58:50Z</time>
</trkpt>
<trkpt lat="49.06230194494128" lon="8.888507997617126">
<ele>291.6</ele>
<time>2023-05-17T09:58:51Z</time>
</trkpt>
<trkpt lat="49.062287947162986" lon="8.888482935726643">
<ele>291.79999999999995</ele>
<time>2023-05-17T09:58:52Z</time>
</trkpt>
<trkpt lat="49.06227294355631" lon="8.88845494017005">
<ele>292</ele>
<time>2023-05-17T09:58:53Z</time>
</trkpt>
<trkpt lat="49.062261963263154" lon="8.88843297958374">
<ele>292.20000000000005</ele>
<time>2023-05-17T09:58:54Z</time>
</trkpt>
<trkpt lat="49.06224796548486" lon="8.88841194100678">
<ele>292.4</ele>
<time>2023-05-17T09:58:55Z</time>
</trkpt>
<trkpt lat="49.06223296187818" lon="8.888391992077231">
<ele>292.6</ele>
<time>2023-05-17T09:58:56Z</time>
</trkpt>
<trkpt lat="49.0622179582715" lon="8.88836994767189">
<ele>293</ele>
<time>2023-05-17T09:58:57Z</time>
</trkpt>
<trkpt lat="49.06219691969454" lon="8.8883469812572">
<ele>293.20000000000005</ele>
<time>2023-05-17T09:58:58Z</time>
</trkpt>
<trkpt lat="49.062177976593375" lon="8.888317979872227">
<ele>293.4</ele>
<time>2023-05-17T09:58:59Z</time>
</trkpt>
<trkpt lat="49.062157943844795" lon="8.888289984315634">
<ele>293.6</ele>
<time>2023-05-17T09:59:00Z</time>
</trkpt>
<trkpt lat="49.062139922752976" lon="8.888266934081912">
<ele>293.79999999999995</ele>
<time>2023-05-17T09:59:01Z</time>
</trkpt>
<trkpt lat="49.06212693080306" lon="8.888246985152364">
<ele>294</ele>
<time>2023-05-17T09:59:02Z</time>
</trkpt>
<trkpt lat="49.062112933024764" lon="8.888226952403784">
<ele>294.20000000000005</ele>
<time>2023-05-17T09:59:03Z</time>
</trkpt>
<trkpt lat="49.06209792941809" lon="8.888199962675571">
<ele>294.4</ele>
<time>2023-05-17T09:59:04Z</time>
</trkpt>
<trkpt lat="49.06208493746817" lon="8.888172972947359">
<ele>294.6</ele>
<time>2023-05-17T09:59:05Z</time>
</trkpt>
<trkpt lat="49.062072951346636" lon="8.888146989047527">
<ele>294.79999999999995</ele>
<time>2023-05-17T09:59:06Z</time>
</trkpt>
<trkpt lat="49.06205694191158" lon="8.888114970177412">
<ele>295</ele>
<time>2023-05-17T09:59:07Z</time>
</trkpt>
<trkpt lat="49.06203799881041" lon="8.888084962964058">
<ele>295.20000000000005</ele>
<time>2023-05-17T09:59:08Z</time>
</trkpt>
<trkpt lat="49.06201696023345" lon="8.888052944093943">
<ele>295.4</ele>
<time>2023-05-17T09:59:09Z</time>
</trkpt>
<trkpt lat="49.06199793331325" lon="8.888021931052208">
<ele>295.6</ele>
<time>2023-05-17T09:59:10Z</time>
</trkpt>
<trkpt lat="49.0619779843837" lon="8.887996952980757">
<ele>295.79999999999995</ele>
<time>2023-05-17T09:59:11Z</time>
</trkpt>
<trkpt lat="49.06195795163512" lon="8.887974992394447">
<ele>296</ele>
<time>2023-05-17T09:59:12Z</time>
</trkpt>
<trkpt lat="49.0619399305433" lon="8.887952947989106">
<ele>296.20000000000005</ele>
<time>2023-05-17T09:59:13Z</time>
</trkpt>
<trkpt lat="49.061917969956994" lon="8.88793794438243">
<ele>296.4</ele>
<time>2023-05-17T09:59:14Z</time>
</trkpt>
<trkpt lat="49.061901960521936" lon="8.8879169896245">
<ele>296.6</ele>
<time>2023-05-17T09:59:15Z</time>
</trkpt>
<trkpt lat="49.06187999993563" lon="8.887887988239527">
<ele>296.79999999999995</ele>
<time>2023-05-17T09:59:16Z</time>
</trkpt>
<trkpt lat="49.06185996718705" lon="8.887861920520663">
<ele>297</ele>
<time>2023-05-17T09:59:17Z</time>
</trkpt>
<trkpt lat="49.06184194609523" lon="8.887834930792451">
<ele>297.20000000000005</ele>
<time>2023-05-17T09:59:18Z</time>
</trkpt>
<trkpt lat="49.06182199716568" lon="8.887806935235858">
<ele>297.4</ele>
<time>2023-05-17T09:59:19Z</time>
</trkpt>
<trkpt lat="49.0618019644171" lon="8.887777933850884">
<ele>297.4</ele>
<time>2023-05-17T09:59:20Z</time>
</trkpt>
<trkpt lat="49.0617829374969" lon="8.887752955779433">
<ele>297.6</ele>
<time>2023-05-17T09:59:21Z</time>
</trkpt>
<trkpt lat="49.06175795942545" lon="8.887721942737699">
<ele>297.79999999999995</ele>
<time>2023-05-17T09:59:22Z</time>
</trkpt>
<trkpt lat="49.06173792667687" lon="8.887694953009486">
<ele>298</ele>
<time>2023-05-17T09:59:23Z</time>
</trkpt>
<trkpt lat="49.06172191724181" lon="8.887669974938035">
<ele>298.20000000000005</ele>
<time>2023-05-17T09:59:24Z</time>
</trkpt>
<trkpt lat="49.061704985797405" lon="8.887646924704313">
<ele>298.4</ele>
<time>2023-05-17T09:59:25Z</time>
</trkpt>
<trkpt lat="49.061684953048825" lon="8.887622952461243">
<ele>298.6</ele>
<time>2023-05-17T09:59:26Z</time>
</trkpt>
<trkpt lat="49.06166693195701" lon="8.88759495690465">
<ele>298.79999999999995</ele>
<time>2023-05-17T09:59:27Z</time>
</trkpt>
<trkpt lat="49.06164698302746" lon="8.887569978833199">
<ele>299</ele>
<time>2023-05-17T09:59:28Z</time>
</trkpt>
<trkpt lat="49.06162795610726" lon="8.887544916942716">
<ele>299.20000000000005</ele>
<time>2023-05-17T09:59:29Z</time>
</trkpt>
<trkpt lat="49.0616069175303" lon="8.887517927214503">
<ele>299.4</ele>
<time>2023-05-17T09:59:30Z</time>
</trkpt>
<trkpt lat="49.06158495694399" lon="8.88748792000115">
<ele>299.6</ele>
<time>2023-05-17T09:59:31Z</time>
</trkpt>
<trkpt lat="49.06156693585217" lon="8.88746495358646">
<ele>299.79999999999995</ele>
<time>2023-05-17T09:59:32Z</time>
</trkpt>
<trkpt lat="49.061547992751" lon="8.887436958029866">
<ele>300</ele>
<time>2023-05-17T09:59:33Z</time>
</trkpt>
<trkpt lat="49.06152695417404" lon="8.88740292750299">
<ele>300.20000000000005</ele>
<time>2023-05-17T09:59:34Z</time>
</trkpt>
<trkpt lat="49.06150499358773" lon="8.887369986623526">
<ele>300.4</ele>
<time>2023-05-17T09:59:35Z</time>
</trkpt>
<trkpt lat="49.06148194335401" lon="8.88733696192503">
<ele>300.6</ele>
<time>2023-05-17T09:59:36Z</time>
</trkpt>
<trkpt lat="49.06145696528256" lon="8.887302931398153">
<ele>300.79999999999995</ele>
<time>2023-05-17T09:59:37Z</time>
</trkpt>
<trkpt lat="49.06143198721111" lon="8.887267978861928">
<ele>301</ele>
<time>2023-05-17T09:59:38Z</time>
</trkpt>
<trkpt lat="49.061406925320625" lon="8.88723193667829">
<ele>301.20000000000005</ele>
<time>2023-05-17T09:59:39Z</time>
</trkpt>
<trkpt lat="49.061381947249174" lon="8.887197989970446">
<ele>301.4</ele>
<time>2023-05-17T09:59:40Z</time>
</trkpt>
<trkpt lat="49.06135696917772" lon="8.887162953615189">
<ele>301.6</ele>
<time>2023-05-17T09:59:41Z</time>
</trkpt>
<trkpt lat="49.06132997944951" lon="8.887129928916693">
<ele>301.79999999999995</ele>
<time>2023-05-17T09:59:42Z</time>
</trkpt>
<trkpt lat="49.06130491755903" lon="8.887094976380467">
<ele>302</ele>
<time>2023-05-17T09:59:43Z</time>
</trkpt>
<trkpt lat="49.061277927830815" lon="8.887056922540069">
<ele>302.20000000000005</ele>
<time>2023-05-17T09:59:44Z</time>
</trkpt>
<trkpt lat="49.061254961416125" lon="8.88701694086194">
<ele>302.4</ele>
<time>2023-05-17T09:59:45Z</time>
</trkpt>
<trkpt lat="49.06122797168791" lon="8.886979976668954">
<ele>302.6</ele>
<time>2023-05-17T09:59:46Z</time>
</trkpt>
<trkpt lat="49.06120198778808" lon="8.886942928656936">
<ele>302.79999999999995</ele>
<time>2023-05-17T09:59:47Z</time>
</trkpt>
<trkpt lat="49.06117499805987" lon="8.886902946978807">
<ele>303</ele>
<time>2023-05-17T09:59:48Z</time>
</trkpt>
<trkpt lat="49.061147924512625" lon="8.88686497695744">
<ele>303.20000000000005</ele>
<time>2023-05-17T09:59:49Z</time>
</trkpt>
<trkpt lat="49.06112194061279" lon="8.886826923117042">
<ele>303.4</ele>
<time>2023-05-17T09:59:50Z</time>
</trkpt>
<trkpt lat="49.06109495088458" lon="8.886787947267294">
<ele>303.6</ele>
<time>2023-05-17T09:59:51Z</time>
</trkpt>
<trkpt lat="49.06106796115637" lon="8.886749977245927">
<ele>303.79999999999995</ele>
<time>2023-05-17T09:59:52Z</time>
</trkpt>
<trkpt lat="49.06104298308492" lon="8.886707983911037">
<ele>304</ele>
<time>2023-05-17T09:59:53Z</time>
</trkpt>
<trkpt lat="49.061019932851195" lon="8.886669930070639">
<ele>304.20000000000005</ele>
<time>2023-05-17T09:59:54Z</time>
</trkpt>
<trkpt lat="49.060994954779744" lon="8.886631960049272">
<ele>304.4</ele>
<time>2023-05-17T09:59:55Z</time>
</trkpt>
<trkpt lat="49.06096997670829" lon="8.886592984199524">
<ele>304.6</ele>
<time>2023-05-17T09:59:56Z</time>
</trkpt>
<trkpt lat="49.06094692647457" lon="8.886556942015886">
<ele>305</ele>
<time>2023-05-17T09:59:57Z</time>
</trkpt>
<trkpt lat="49.06092194840312" lon="8.886516960337758">
<ele>305.20000000000005</ele>
<time>2023-05-17T09:59:58Z</time>
</trkpt>
<trkpt lat="49.06089495867491" lon="8.88647798448801">
<ele>305.4</ele>
<time>2023-05-17T09:59:59Z</time>
</trkpt>
<trkpt lat="49.06086998060346" lon="8.886442948132753">
<ele>305.6</ele>
<time>2023-05-17T10:00:00Z</time>
</trkpt>
<trkpt lat="49.060844918712974" lon="8.886404978111386">
<ele>305.79999999999995</ele>
<time>2023-05-17T10:00:01Z</time>
</trkpt>
<trkpt lat="49.06081792898476" lon="8.88636994175613">
<ele>306</ele>
<time>2023-05-17T10:00:02Z</time>
</trkpt>
<trkpt lat="49.06079295091331" lon="8.88632794842124">
<ele>306</ele>
<time>2023-05-17T10:00:03Z</time>
</trkpt>
<trkpt lat="49.06076797284186" lon="8.886289978399873">
<ele>306.20000000000005</ele>
<time>2023-05-17T10:00:04Z</time>
</trkpt>
<trkpt lat="49.06074198894203" lon="8.886249996721745">
<ele>306.4</ele>
<time>2023-05-17T10:00:05Z</time>
</trkpt>
<trkpt lat="49.060714999213815" lon="8.886206997558475">
<ele>306.6</ele>
<time>2023-05-17T10:00:06Z</time>
</trkpt>
<trkpt lat="49.06068993732333" lon="8.886161986738443">
<ele>306.79999999999995</ele>
<time>2023-05-17T10:00:07Z</time>
</trkpt>
<trkpt lat="49.06066294759512" lon="8.886119993403554">
<ele>307</ele>
<time>2023-05-17T10:00:08Z</time>
</trkpt>
<trkpt lat="49.06063696369529" lon="8.886081939563155">
<ele>307.20000000000005</ele>
<time>2023-05-17T10:00:09Z</time>
</trkpt>
<trkpt lat="49.060609973967075" lon="8.886044975370169">
<ele>307.4</ele>
<time>2023-05-17T10:00:10Z</time>
</trkpt>
<trkpt lat="49.06058197841048" lon="8.88600499369204">
<ele>307.6</ele>
<time>2023-05-17T10:00:11Z</time>
</trkpt>
<trkpt lat="49.06055498868227" lon="8.885966939851642">
<ele>307.79999999999995</ele>
<time>2023-05-17T10:00:12Z</time>
</trkpt>
<trkpt lat="49.06053193844855" lon="8.885927964001894">
<ele>307.79999999999995</ele>
<time>2023-05-17T10:00:13Z</time>
</trkpt>
<trkpt lat="49.060504948720336" lon="8.885894939303398">
<ele>308</ele>
<time>2023-05-17T10:00:14Z</time>
</trkpt>
<trkpt lat="49.060477958992124" lon="8.885857975110412">
<ele>308.20000000000005</ele>
<time>2023-05-17T10:00:15Z</time>
</trkpt>
<trkpt lat="49.06045298092067" lon="8.885819921270013">
<ele>308.4</ele>
<time>2023-05-17T10:00:16Z</time>
</trkpt>
<trkpt lat="49.06042699702084" lon="8.885777927935123">
<ele>308.6</ele>
<time>2023-05-17T10:00:17Z</time>
</trkpt>
<trkpt lat="49.0603999234736" lon="8.885732917115092">
<ele>308.79999999999995</ele>
<time>2023-05-17T10:00:18Z</time>
</trkpt>
<trkpt lat="49.060371927917004" lon="8.885686984285712">
<ele>308.79999999999995</ele>
<time>2023-05-17T10:00:19Z</time>
</trkpt>
<trkpt lat="49.06033999286592" lon="8.885642979294062">
<ele>309</ele>
<time>2023-05-17T10:00:20Z</time>
</trkpt>
<trkpt lat="49.060307973995805" lon="8.88559796847403">
<ele>309.20000000000005</ele>
<time>2023-05-17T10:00:21Z</time>
</trkpt>
<trkpt lat="49.06027796678245" lon="8.885551951825619">
<ele>309.4</ele>
<time>2023-05-17T10:00:22Z</time>
</trkpt>
<trkpt lat="49.060246953740716" lon="8.885506941005588">
<ele>309.6</ele>
<time>2023-05-17T10:00:23Z</time>
</trkpt>
<trkpt lat="49.0602149348706" lon="8.885459918528795">
<ele>309.79999999999995</ele>
<time>2023-05-17T10:00:24Z</time>
</trkpt>
<trkpt lat="49.06018492765725" lon="8.885416919365525">
<ele>310</ele>
<time>2023-05-17T10:00:25Z</time>
</trkpt>
<trkpt lat="49.06015299260616" lon="8.885367969051003">
<ele>310.20000000000005</ele>
<time>2023-05-17T10:00:26Z</time>
</trkpt>
<trkpt lat="49.06012197956443" lon="8.885321952402592">
<ele>310.4</ele>
<time>2023-05-17T10:00:27Z</time>
</trkpt>
<trkpt lat="49.060094989836216" lon="8.88527694158256">
<ele>310.6</ele>
<time>2023-05-17T10:00:28Z</time>
</trkpt>
<trkpt lat="49.06006498262286" lon="8.88523193076253">
<ele>310.79999999999995</ele>
<time>2023-05-17T10:00:29Z</time>
</trkpt>
<trkpt lat="49.06003497540951" lon="8.885186919942498">
<ele>310.79999999999995</ele>
<time>2023-05-17T10:00:30Z</time>
</trkpt>
<trkpt lat="49.060004968196154" lon="8.885139981284738">
<ele>311</ele>
<time>2023-05-17T10:00:31Z</time>
</trkpt>
<trkpt lat="49.05997697263956" lon="8.885091952979565">
<ele>311.20000000000005</ele>
<time>2023-05-17T10:00:32Z</time>
</trkpt>
<trkpt lat="49.05994797125459" lon="8.885046942159534">
<ele>311.4</ele>
<time>2023-05-17T10:00:33Z</time>
</trkpt>
<trkpt lat="49.05991695821285" lon="8.884999919682741">
<ele>311.6</ele>
<time>2023-05-17T10:00:34Z</time>
</trkpt>
<trkpt lat="49.05988493934274" lon="8.884954992681742">
<ele>311.79999999999995</ele>
<time>2023-05-17T10:00:35Z</time>
</trkpt>
<trkpt lat="49.05985493212938" lon="8.884904952719808">
<ele>312</ele>
<time>2023-05-17T10:00:36Z</time>
</trkpt>
<trkpt lat="49.0598229970783" lon="8.884854996576905">
<ele>312</ele>
<time>2023-05-17T10:00:37Z</time>
</trkpt>
<trkpt lat="49.059791984036565" lon="8.884804956614971">
<ele>312.20000000000005</ele>
<time>2023-05-17T10:00:38Z</time>
</trkpt>
<trkpt lat="49.05975996516645" lon="8.884756928309798">
<ele>312.4</ele>
<time>2023-05-17T10:00:39Z</time>
</trkpt>
<trkpt lat="49.059727946296334" lon="8.884707977995276">
<ele>312.6</ele>
<time>2023-05-17T10:00:40Z</time>
</trkpt>
<trkpt lat="49.05969492159784" lon="8.884661961346865">
<ele>312.79999999999995</ele>
<time>2023-05-17T10:00:41Z</time>
</trkpt>
<trkpt lat="49.059662986546755" lon="8.884612927213311">
<ele>313</ele>
<time>2023-05-17T10:00:42Z</time>
</trkpt>
<trkpt lat="49.05963197350502" lon="8.88456498272717">
<ele>313</ele>
<time>2023-05-17T10:00:43Z</time>
</trkpt>
<trkpt lat="49.059599954634905" lon="8.884517960250378">
<ele>313.20000000000005</ele>
<time>2023-05-17T10:00:44Z</time>
</trkpt>
<trkpt lat="49.05956793576479" lon="8.884467920288444">
<ele>313.4</ele>
<time>2023-05-17T10:00:45Z</time>
</trkpt>
<trkpt lat="49.059534994885325" lon="8.884417964145541">
<ele>313.6</ele>
<time>2023-05-17T10:00:46Z</time>
</trkpt>
<trkpt lat="49.05950197018683" lon="8.884364990517497">
<ele>313.6</ele>
<time>2023-05-17T10:00:47Z</time>
</trkpt>
<trkpt lat="49.05946793965995" lon="8.884312938898802">
<ele>313.79999999999995</ele>
<time>2023-05-17T10:00:48Z</time>
</trkpt>
<trkpt lat="49.05943499878049" lon="8.88426792807877">
<ele>314</ele>
<time>2023-05-17T10:00:49Z</time>
</trkpt>
<trkpt lat="49.059404991567135" lon="8.884226940572262">
<ele>314</ele>
<time>2023-05-17T10:00:50Z</time>
</trkpt>
<trkpt lat="49.05937699601054" lon="8.884184947237372">
<ele>314.20000000000005</ele>
<time>2023-05-17T10:00:51Z</time>
</trkpt>
<trkpt lat="49.05934799462557" lon="8.884142953902483">
<ele>314.20000000000005</ele>
<time>2023-05-17T10:00:52Z</time>
</trkpt>
<trkpt lat="49.05932494439185" lon="8.884106995537877">
<ele>314.4</ele>
<time>2023-05-17T10:00:53Z</time>
</trkpt>
<trkpt lat="49.059297954663634" lon="8.884064918383956">
<ele>314.4</ele>
<time>2023-05-17T10:00:54Z</time>
</trkpt>
<trkpt lat="49.0592719707638" lon="8.884021919220686">
<ele>314.6</ele>
<time>2023-05-17T10:00:55Z</time>
</trkpt>
<trkpt lat="49.05924296937883" lon="8.883979925885797">
<ele>314.6</ele>
<time>2023-05-17T10:00:56Z</time>
</trkpt>
<trkpt lat="49.059214973822236" lon="8.883936926722527">
<ele>314.79999999999995</ele>
<time>2023-05-17T10:00:57Z</time>
</trkpt>
<trkpt lat="49.05918697826564" lon="8.883891999721527">
<ele>314.79999999999995</ele>
<time>2023-05-17T10:00:58Z</time>
</trkpt>
<trkpt lat="49.05915797688067" lon="8.883846988901496">
<ele>314.79999999999995</ele>
<time>2023-05-17T10:00:59Z</time>
</trkpt>
<trkpt lat="49.05912998132408" lon="8.883804995566607">
<ele>315</ele>
<time>2023-05-17T10:01:00Z</time>
</trkpt>
<trkpt lat="49.059101985767484" lon="8.883761996403337">
<ele>315</ele>
<time>2023-05-17T10:01:01Z</time>
</trkpt>
<trkpt lat="49.05907197855413" lon="8.883716985583305">
<ele>315</ele>
<time>2023-05-17T10:01:02Z</time>
</trkpt>
<trkpt lat="49.059041971340775" lon="8.883669963106513">
<ele>315</ele>
<time>2023-05-17T10:01:03Z</time>
</trkpt>
<trkpt lat="49.05901196412742" lon="8.88362294062972">
<ele>315</ele>
<time>2023-05-17T10:01:04Z</time>
</trkpt>
<trkpt lat="49.058979945257306" lon="8.88357994146645">
<ele>315.20000000000005</ele>
<time>2023-05-17T10:01:05Z</time>
</trkpt>
<trkpt lat="49.05894792638719" lon="8.88353493064642">
<ele>315.20000000000005</ele>
<time>2023-05-17T10:01:06Z</time>
</trkpt>
<trkpt lat="49.05891699716449" lon="8.883489919826388">
<ele>315.20000000000005</ele>
<time>2023-05-17T10:01:07Z</time>
</trkpt>
<trkpt lat="49.058886989951134" lon="8.883444992825389">
<ele>315.20000000000005</ele>
<time>2023-05-17T10:01:08Z</time>
</trkpt>
<trkpt lat="49.05885798856616" lon="8.883399982005358">
<ele>315.4</ele>
<time>2023-05-17T10:01:09Z</time>
</trkpt>
<trkpt lat="49.05882999300957" lon="8.883352959528565">
<ele>315.4</ele>
<time>2023-05-17T10:01:10Z</time>
</trkpt>
<trkpt lat="49.05879797413945" lon="8.883306942880154">
<ele>315.4</ele>
<time>2023-05-17T10:01:11Z</time>
</trkpt>
<trkpt lat="49.05876696109772" lon="8.883261932060122">
<ele>315.4</ele>
<time>2023-05-17T10:01:12Z</time>
</trkpt>
<trkpt lat="49.05873293057084" lon="8.883214993402362">
<ele>315.4</ele>
<time>2023-05-17T10:01:13Z</time>
</trkpt>
<trkpt lat="49.05869998969138" lon="8.88316797092557">
<ele>315.4</ele>
<time>2023-05-17T10:01:14Z</time>
</trkpt>
<trkpt lat="49.05866696499288" lon="8.883116925135255">
<ele>315.6</ele>
<time>2023-05-17T10:01:15Z</time>
</trkpt>
<trkpt lat="49.058632934466004" lon="8.883066968992352">
<ele>315.6</ele>
<time>2023-05-17T10:01:16Z</time>
</trkpt>
<trkpt lat="49.05859798192978" lon="8.883012989535928">
<ele>315.6</ele>
<time>2023-05-17T10:01:17Z</time>
</trkpt>
<trkpt lat="49.05856495723128" lon="8.882959932088852">
<ele>315.6</ele>
<time>2023-05-17T10:01:18Z</time>
</trkpt>
<trkpt lat="49.058529920876026" lon="8.882904946804047">
<ele>315.6</ele>
<time>2023-05-17T10:01:19Z</time>
</trkpt>
<trkpt lat="49.0584949683398" lon="8.882851973176003">
<ele>315.6</ele>
<time>2023-05-17T10:01:20Z</time>
</trkpt>
<trkpt lat="49.058456998318434" lon="8.882792964577675">
<ele>315.6</ele>
<time>2023-05-17T10:01:21Z</time>
</trkpt>
<trkpt lat="49.058417938649654" lon="8.88273797929287">
<ele>315.6</ele>
<time>2023-05-17T10:01:22Z</time>
</trkpt>
<trkpt lat="49.05837996862829" lon="8.882679976522923">
<ele>315.6</ele>
<time>2023-05-17T10:01:23Z</time>
</trkpt>
<trkpt lat="49.05834199860692" lon="8.882621973752975">
<ele>315.6</ele>
<time>2023-05-17T10:01:24Z</time>
</trkpt>
<trkpt lat="49.05830293893814" lon="8.882561959326267">
<ele>315.4</ele>
<time>2023-05-17T10:01:25Z</time>
</trkpt>
<trkpt lat="49.05826295726001" lon="8.88250295072794">
<ele>315.4</ele>
<time>2023-05-17T10:01:26Z</time>
</trkpt>
<trkpt lat="49.058221969753504" lon="8.882444947957993">
<ele>315.4</ele>
<time>2023-05-17T10:01:27Z</time>
</trkpt>
<trkpt lat="49.058179976418614" lon="8.882387951016426">
<ele>315.4</ele>
<time>2023-05-17T10:01:28Z</time>
</trkpt>
<trkpt lat="49.058139994740486" lon="8.882327936589718">
<ele>315.20000000000005</ele>
<time>2023-05-17T10:01:29Z</time>
</trkpt>
<trkpt lat="49.058097917586565" lon="8.88226993381977">
<ele>315.20000000000005</ele>
<time>2023-05-17T10:01:30Z</time>
</trkpt>
<trkpt lat="49.05805793590844" lon="8.882206985726953">
<ele>315.20000000000005</ele>
<time>2023-05-17T10:01:31Z</time>
</trkpt>
<trkpt lat="49.05801795423031" lon="8.882141942158341">
<ele>315</ele>
<time>2023-05-17T10:01:32Z</time>
</trkpt>
<trkpt lat="49.05797797255218" lon="8.882077988237143">
<ele>315</ele>
<time>2023-05-17T10:01:33Z</time>
</trkpt>
<trkpt lat="49.05793698504567" lon="8.882017973810434">
<ele>315</ele>
<time>2023-05-17T10:01:34Z</time>
</trkpt>
<trkpt lat="49.05789499171078" lon="8.881956953555346">
<ele>314.79999999999995</ele>
<time>2023-05-17T10:01:35Z</time>
</trkpt>
<trkpt lat="49.05785492621362" lon="8.881894927471876">
<ele>314.79999999999995</ele>
<time>2023-05-17T10:01:36Z</time>
</trkpt>
<trkpt lat="49.05781293287873" lon="8.881829967722297">
<ele>314.6</ele>
<time>2023-05-17T10:01:37Z</time>
</trkpt>
<trkpt lat="49.057774962857366" lon="8.881764924153686">
<ele>314.6</ele>
<time>2023-05-17T10:01:38Z</time>
</trkpt>
<trkpt lat="49.05773799866438" lon="8.881701976060867">
<ele>314.4</ele>
<time>2023-05-17T10:01:39Z</time>
</trkpt>
<trkpt lat="49.05770195648074" lon="8.881641961634159">
<ele>314.20000000000005</ele>
<time>2023-05-17T10:01:40Z</time>
</trkpt>
<trkpt lat="49.057666920125484" lon="8.88157993555069">
<ele>314.20000000000005</ele>
<time>2023-05-17T10:01:41Z</time>
</trkpt>
<trkpt lat="49.0576349850744" lon="8.881519921123981">
<ele>314.20000000000005</ele>
<time>2023-05-17T10:01:42Z</time>
</trkpt>
<trkpt lat="49.057599948719144" lon="8.881459990516305">
<ele>314</ele>
<time>2023-05-17T10:01:43Z</time>
</trkpt>
<trkpt lat="49.05756692402065" lon="8.881402993574739">
<ele>314</ele>
<time>2023-05-17T10:01:44Z</time>
</trkpt>
<trkpt lat="49.0575329773128" lon="8.88134297914803">
<ele>314</ele>
<time>2023-05-17T10:01:45Z</time>
</trkpt>
<trkpt lat="49.057496935129166" lon="8.881281958892941">
<ele>314</ele>
<time>2023-05-17T10:01:46Z</time>
</trkpt>
<trkpt lat="49.05746298842132" lon="8.88121297582984">
<ele>313.79999999999995</ele>
<time>2023-05-17T10:01:47Z</time>
</trkpt>
<trkpt lat="49.057431975379586" lon="8.881144998595119">
<ele>313.79999999999995</ele>
<time>2023-05-17T10:01:48Z</time>
</trkpt>
<trkpt lat="49.05740196816623" lon="8.881072998046875">
<ele>313.79999999999995</ele>
<time>2023-05-17T10:01:49Z</time>
</trkpt>
<trkpt lat="49.05737497843802" lon="8.880999991670251">
<ele>313.79999999999995</ele>
<time>2023-05-17T10:01:50Z</time>
</trkpt>
<trkpt lat="49.05734798870981" lon="8.880926985293627">
<ele>313.79999999999995</ele>
<time>2023-05-17T10:01:51Z</time>
</trkpt>
<trkpt lat="49.057321920990944" lon="8.880851967260242">
<ele>313.79999999999995</ele>
<time>2023-05-17T10:01:52Z</time>
</trkpt>
<trkpt lat="49.05729694291949" lon="8.880777955055237">
<ele>313.79999999999995</ele>
<time>2023-05-17T10:01:53Z</time>
</trkpt>
<trkpt lat="49.05727196484804" lon="8.88069991953671">
<ele>313.6</ele>
<time>2023-05-17T10:01:54Z</time>
</trkpt>
<trkpt lat="49.05724799260497" lon="8.880624985322356">
<ele>313.6</ele>
<time>2023-05-17T10:01:55Z</time>
</trkpt>
<trkpt lat="49.05722494237125" lon="8.88054795563221">
<ele>313.6</ele>
<time>2023-05-17T10:01:56Z</time>
</trkpt>
<trkpt lat="49.05720298178494" lon="8.880471931770444">
<ele>313.6</ele>
<time>2023-05-17T10:01:57Z</time>
</trkpt>
<trkpt lat="49.05718294903636" lon="8.880391968414187">
<ele>313.6</ele>
<time>2023-05-17T10:01:58Z</time>
</trkpt>
<trkpt lat="49.05716291628778" lon="8.8803119212389">
<ele>313.6</ele>
<time>2023-05-17T10:01:59Z</time>
</trkpt>
<trkpt lat="49.057146990671754" lon="8.88022793456912">
<ele>313.6</ele>
<time>2023-05-17T10:02:00Z</time>
</trkpt>
<trkpt lat="49.057127963751554" lon="8.880144953727722">
<ele>313.6</ele>
<time>2023-05-17T10:02:01Z</time>
</trkpt>
<trkpt lat="49.0571119543165" lon="8.880059961229563">
<ele>313.6</ele>
<time>2023-05-17T10:02:02Z</time>
</trkpt>
<trkpt lat="49.05709493905306" lon="8.879972957074642">
<ele>313.6</ele>
<time>2023-05-17T10:02:03Z</time>
</trkpt>
<trkpt lat="49.05707792378962" lon="8.879887964576483">
<ele>313.6</ele>
<time>2023-05-17T10:02:04Z</time>
</trkpt>
<trkpt lat="49.057061998173594" lon="8.879799954593182">
<ele>313.6</ele>
<time>2023-05-17T10:02:05Z</time>
</trkpt>
<trkpt lat="49.05704699456692" lon="8.879714962095022">
<ele>313.6</ele>
<time>2023-05-17T10:02:06Z</time>
</trkpt>
<trkpt lat="49.05703199096024" lon="8.879627957940102">
<ele>313.6</ele>
<time>2023-05-17T10:02:07Z</time>
</trkpt>
<trkpt lat="49.057017993181944" lon="8.879541959613562">
<ele>313.6</ele>
<time>2023-05-17T10:02:08Z</time>
</trkpt>
<trkpt lat="49.05700793489814" lon="8.879456967115402">
<ele>313.6</ele>
<time>2023-05-17T10:02:09Z</time>
</trkpt>
<trkpt lat="49.056997960433364" lon="8.879369962960482">
<ele>313.6</ele>
<time>2023-05-17T10:02:10Z</time>
</trkpt>
<trkpt lat="49.05698798596859" lon="8.879284970462322">
<ele>313.6</ele>
<time>2023-05-17T10:02:11Z</time>
</trkpt>
<trkpt lat="49.0569769218564" lon="8.879199977964163">
<ele>313.6</ele>
<time>2023-05-17T10:02:12Z</time>
</trkpt>
<trkpt lat="49.05696493573487" lon="8.879116997122765">
<ele>313.6</ele>
<time>2023-05-17T10:02:13Z</time>
</trkpt>
<trkpt lat="49.056954961270094" lon="8.879034938290715">
<ele>313.6</ele>
<time>2023-05-17T10:02:14Z</time>
</trkpt>
<trkpt lat="49.05694498680532" lon="8.878952963277698">
<ele>313.6</ele>
<time>2023-05-17T10:02:15Z</time>
</trkpt>
<trkpt lat="49.056936940178275" lon="8.878872999921441">
<ele>313.6</ele>
<time>2023-05-17T10:02:16Z</time>
</trkpt>
<trkpt lat="49.0569269657135" lon="8.878789935261011">
<ele>313.79999999999995</ele>
<time>2023-05-17T10:02:17Z</time>
</trkpt>
<trkpt lat="49.05691699124873" lon="8.878709971904755">
<ele>313.79999999999995</ele>
<time>2023-05-17T10:02:18Z</time>
</trkpt>
<trkpt lat="49.0569079387933" lon="8.878632942214608">
<ele>313.79999999999995</ele>
<time>2023-05-17T10:02:19Z</time>
</trkpt>
<trkpt lat="49.05689695850015" lon="8.878557924181223">
<ele>314</ele>
<time>2023-05-17T10:02:20Z</time>
</trkpt>
<trkpt lat="49.05688698403537" lon="8.878481984138489">
<ele>314</ele>
<time>2023-05-17T10:02:21Z</time>
</trkpt>
<trkpt lat="49.05687793157995" lon="8.878402942791581">
<ele>314</ele>
<time>2023-05-17T10:02:22Z</time>
</trkpt>
<trkpt lat="49.05686795711517" lon="8.878326918929815">
<ele>314.20000000000005</ele>
<time>2023-05-17T10:02:23Z</time>
</trkpt>
<trkpt lat="49.0568579826504" lon="8.8782499730587">
<ele>314.20000000000005</ele>
<time>2023-05-17T10:02:24Z</time>
</trkpt>
<trkpt lat="49.05684792436659" lon="8.878174955025315">
<ele>314.20000000000005</ele>
<time>2023-05-17T10:02:25Z</time>
</trkpt>
<trkpt lat="49.05683794990182" lon="8.87809993699193">
<ele>314.4</ele>
<time>2023-05-17T10:02:26Z</time>
</trkpt>
<trkpt lat="49.056829987093806" lon="8.878027936443686">
<ele>314.4</ele>
<time>2023-05-17T10:02:27Z</time>
</trkpt>
<trkpt lat="49.05682194046676" lon="8.877957947552204">
<ele>314.4</ele>
<time>2023-05-17T10:02:28Z</time>
</trkpt>
<trkpt lat="49.05681498348713" lon="8.877889970317483">
<ele>314.4</ele>
<time>2023-05-17T10:02:29Z</time>
</trkpt>
<trkpt lat="49.056806936860085" lon="8.877822998911142">
<ele>314.6</ele>
<time>2023-05-17T10:02:30Z</time>
</trkpt>
<trkpt lat="49.05679796822369" lon="8.87775493785739">
<ele>314.6</ele>
<time>2023-05-17T10:02:31Z</time>
</trkpt>
<trkpt lat="49.05679193325341" lon="8.877684948965907">
<ele>314.6</ele>
<time>2023-05-17T10:02:32Z</time>
</trkpt>
<trkpt lat="49.056784976273775" lon="8.877614960074425">
<ele>314.6</ele>
<time>2023-05-17T10:02:33Z</time>
</trkpt>
<trkpt lat="49.05677692964673" lon="8.877542959526181">
<ele>314.79999999999995</ele>
<time>2023-05-17T10:02:34Z</time>
</trkpt>
<trkpt lat="49.05676796101034" lon="8.877472970634699">
<ele>314.79999999999995</ele>
<time>2023-05-17T10:02:35Z</time>
</trkpt>
<trkpt lat="49.056759998202324" lon="8.877401975914836">
<ele>314.79999999999995</ele>
<time>2023-05-17T10:02:36Z</time>
</trkpt>
<trkpt lat="49.05674993991852" lon="8.877327963709831">
<ele>314.79999999999995</ele>
<time>2023-05-17T10:02:37Z</time>
</trkpt>
<trkpt lat="49.056742982938886" lon="8.877254957333207">
<ele>314.79999999999995</ele>
<time>2023-05-17T10:02:38Z</time>
</trkpt>
<trkpt lat="49.0567369479686" lon="8.877181950956583">
<ele>314.79999999999995</ele>
<time>2023-05-17T10:02:39Z</time>
</trkpt>
<trkpt lat="49.05672999098897" lon="8.877106932923198">
<ele>314.79999999999995</ele>
<time>2023-05-17T10:02:40Z</time>
</trkpt>
<trkpt lat="49.056722950190306" lon="8.877032920718193">
<ele>315</ele>
<time>2023-05-17T10:02:41Z</time>
</trkpt>
<trkpt lat="49.05671498738229" lon="8.87695798650384">
<ele>315</ele>
<time>2023-05-17T10:02:42Z</time>
</trkpt>
<trkpt lat="49.056702917441726" lon="8.876882968470454">
<ele>315</ele>
<time>2023-05-17T10:02:43Z</time>
</trkpt>
<trkpt lat="49.05669495463371" lon="8.87680996209383">
<ele>315</ele>
<time>2023-05-17T10:02:44Z</time>
</trkpt>
<trkpt lat="49.0566869918257" lon="8.876734944060445">
<ele>315</ele>
<time>2023-05-17T10:02:45Z</time>
</trkpt>
<trkpt lat="49.056677939370275" lon="8.87665699236095">
<ele>315</ele>
<time>2023-05-17T10:02:46Z</time>
</trkpt>
<trkpt lat="49.0566679649055" lon="8.876577951014042">
<ele>315</ele>
<time>2023-05-17T10:02:47Z</time>
</trkpt>
<trkpt lat="49.056659918278456" lon="8.876496981829405">
<ele>315</ele>
<time>2023-05-17T10:02:48Z</time>
</trkpt>
<trkpt lat="49.05665296129882" lon="8.8764229696244">
<ele>315</ele>
<time>2023-05-17T10:02:49Z</time>
</trkpt>
<trkpt lat="49.05664499849081" lon="8.876346945762634">
<ele>315</ele>
<time>2023-05-17T10:02:50Z</time>
</trkpt>
<trkpt lat="49.056637957692146" lon="8.876271927729249">
<ele>314.79999999999995</ele>
<time>2023-05-17T10:02:51Z</time>
</trkpt>
<trkpt lat="49.05662999488413" lon="8.876194981858134">
<ele>314.79999999999995</ele>
<time>2023-05-17T10:02:52Z</time>
</trkpt>
<trkpt lat="49.05662295408547" lon="8.87612298130989">
<ele>314.79999999999995</ele>
<time>2023-05-17T10:02:53Z</time>
</trkpt>
<trkpt lat="49.056614991277456" lon="8.876052992418408">
<ele>314.79999999999995</ele>
<time>2023-05-17T10:02:54Z</time>
</trkpt>
<trkpt lat="49.05660694465041" lon="8.875982919707894">
<ele>314.79999999999995</ele>
<time>2023-05-17T10:02:55Z</time>
</trkpt>
<trkpt lat="49.05659998767078" lon="8.875914942473173">
<ele>314.6</ele>
<time>2023-05-17T10:02:56Z</time>
</trkpt>
<trkpt lat="49.056591941043735" lon="8.87584495358169">
<ele>314.6</ele>
<time>2023-05-17T10:02:57Z</time>
</trkpt>
<trkpt lat="49.05658297240734" lon="8.875774964690208">
<ele>314.4</ele>
<time>2023-05-17T10:02:58Z</time>
</trkpt>
<trkpt lat="49.05657299794257" lon="8.875702964141965">
<ele>314.20000000000005</ele>
<time>2023-05-17T10:02:59Z</time>
</trkpt>
<trkpt lat="49.05656495131552" lon="8.87562794610858">
<ele>314.20000000000005</ele>
<time>2023-05-17T10:03:00Z</time>
</trkpt>
<trkpt lat="49.05655698850751" lon="8.875551922246814">
<ele>314.20000000000005</ele>
<time>2023-05-17T10:03:01Z</time>
</trkpt>
<trkpt lat="49.0565469302237" lon="8.875472964718938">
<ele>314.20000000000005</ele>
<time>2023-05-17T10:03:02Z</time>
</trkpt>
<trkpt lat="49.05653796158731" lon="8.8753919955343">
<ele>314</ele>
<time>2023-05-17T10:03:03Z</time>
</trkpt>
<trkpt lat="49.056527987122536" lon="8.875311948359013">
<ele>314</ele>
<time>2023-05-17T10:03:04Z</time>
</trkpt>
<trkpt lat="49.05651792883873" lon="8.875229973345995">
<ele>314</ele>
<time>2023-05-17T10:03:05Z</time>
</trkpt>
<trkpt lat="49.056507954373956" lon="8.875147998332977">
<ele>313.79999999999995</ele>
<time>2023-05-17T10:03:06Z</time>
</trkpt>
<trkpt lat="49.05649797990918" lon="8.875066945329309">
<ele>313.79999999999995</ele>
<time>2023-05-17T10:03:07Z</time>
</trkpt>
<trkpt lat="49.056487921625376" lon="8.874981952831149">
<ele>313.6</ele>
<time>2023-05-17T10:03:08Z</time>
</trkpt>
<trkpt lat="49.0564779471606" lon="8.87489696033299">
<ele>313.6</ele>
<time>2023-05-17T10:03:09Z</time>
</trkpt>
<trkpt lat="49.05646797269583" lon="8.87480995617807">
<ele>313.4</ele>
<time>2023-05-17T10:03:10Z</time>
</trkpt>
<trkpt lat="49.05645992606878" lon="8.87472697533667">
<ele>313.4</ele>
<time>2023-05-17T10:03:11Z</time>
</trkpt>
<trkpt lat="49.05645196326077" lon="8.874641982838511">
<ele>313.20000000000005</ele>
<time>2023-05-17T10:03:12Z</time>
</trkpt>
<trkpt lat="49.056441988795996" lon="8.874556990340352">
<ele>313.20000000000005</ele>
<time>2023-05-17T10:03:13Z</time>
</trkpt>
<trkpt lat="49.05642991885543" lon="8.874471997842193">
<ele>313</ele>
<time>2023-05-17T10:03:14Z</time>
</trkpt>
<trkpt lat="49.056419944390655" lon="8.874386921525002">
<ele>312.79999999999995</ele>
<time>2023-05-17T10:03:15Z</time>
</trkpt>
<trkpt lat="49.05640695244074" lon="8.874297989532351">
<ele>312.6</ele>
<time>2023-05-17T10:03:16Z</time>
</trkpt>
<trkpt lat="49.056396977975965" lon="8.874211991205812">
<ele>312.4</ele>
<time>2023-05-17T10:03:17Z</time>
</trkpt>
<trkpt lat="49.05638298019767" lon="8.874117946252227">
<ele>312.4</ele>
<time>2023-05-17T10:03:18Z</time>
</trkpt>
<trkpt lat="49.05637199990451" lon="8.874026918783784">
<ele>312.20000000000005</ele>
<time>2023-05-17T10:03:19Z</time>
</trkpt>
<trkpt lat="49.056356996297836" lon="8.87393195182085">
<ele>312</ele>
<time>2023-05-17T10:03:20Z</time>
</trkpt>
<trkpt lat="49.0563399810344" lon="8.873832961544394">
<ele>311.79999999999995</ele>
<time>2023-05-17T10:03:21Z</time>
</trkpt>
<trkpt lat="49.05632195994258" lon="8.87373497709632">
<ele>311.6</ele>
<time>2023-05-17T10:03:22Z</time>
</trkpt>
<trkpt lat="49.05629798769951" lon="8.873634980991483">
<ele>311.4</ele>
<time>2023-05-17T10:03:23Z</time>
</trkpt>
<trkpt lat="49.056271919980645" lon="8.873531967401505">
<ele>311.20000000000005</ele>
<time>2023-05-17T10:03:24Z</time>
</trkpt>
<trkpt lat="49.05624199658632" lon="8.873424930498004">
<ele>311</ele>
<time>2023-05-17T10:03:25Z</time>
</trkpt>
<trkpt lat="49.056207966059446" lon="8.873317977413535">
<ele>310.6</ele>
<time>2023-05-17T10:03:26Z</time>
</trkpt>
<trkpt lat="49.05617192387581" lon="8.873206917196512">
<ele>310.4</ele>
<time>2023-05-17T10:03:27Z</time>
</trkpt>
<trkpt lat="49.05613194219768" lon="8.87309292331338">
<ele>310</ele>
<time>2023-05-17T10:03:28Z</time>
</trkpt>
<trkpt lat="49.056094978004694" lon="8.872977923601866">
<ele>309.79999999999995</ele>
<time>2023-05-17T10:03:29Z</time>
</trkpt>
<trkpt lat="49.056054996326566" lon="8.872857978567481">
<ele>309.4</ele>
<time>2023-05-17T10:03:30Z</time>
</trkpt>
<trkpt lat="49.056014930829406" lon="8.872734932228923">
<ele>309</ele>
<time>2023-05-17T10:03:31Z</time>
</trkpt>
<trkpt lat="49.05597696080804" lon="8.872609958052635">
<ele>308.6</ele>
<time>2023-05-17T10:03:32Z</time>
</trkpt>
<trkpt lat="49.05593697912991" lon="8.872484983876348">
<ele>308</ele>
<time>2023-05-17T10:03:33Z</time>
</trkpt>
<trkpt lat="49.05589297413826" lon="8.872357998043299">
<ele>307.6</ele>
<time>2023-05-17T10:03:34Z</time>
</trkpt>
<trkpt lat="49.05584796331823" lon="8.872226988896728">
<ele>307</ele>
<time>2023-05-17T10:03:35Z</time>
</trkpt>
<trkpt lat="49.0558029524982" lon="8.872094973921776">
<ele>306.6</ele>
<time>2023-05-17T10:03:36Z</time>
</trkpt>
<trkpt lat="49.05575995333493" lon="8.871957929804921">
<ele>306</ele>
<time>2023-05-17T10:03:37Z</time>
</trkpt>
<trkpt lat="49.055714942514896" lon="8.871816946193576">
<ele>305.4</ele>
<time>2023-05-17T10:03:38Z</time>
</trkpt>
<trkpt lat="49.055671943351626" lon="8.871672945097089">
<ele>304.79999999999995</ele>
<time>2023-05-17T10:03:39Z</time>
</trkpt>
<trkpt lat="49.055624920874834" lon="8.87152492068708">
<ele>304.20000000000005</ele>
<time>2023-05-17T10:03:40Z</time>
</trkpt>
<trkpt lat="49.05556993559003" lon="8.871381925418973">
<ele>303.6</ele>
<time>2023-05-17T10:03:41Z</time>
</trkpt>
<trkpt lat="49.05551495030522" lon="8.871234990656376">
<ele>303</ele>
<time>2023-05-17T10:03:42Z</time>
</trkpt>
<trkpt lat="49.055456947535276" lon="8.871077997609973">
<ele>302.20000000000005</ele>
<time>2023-05-17T10:03:43Z</time>
</trkpt>
<trkpt lat="49.05540196225047" lon="8.870917987078428">
<ele>301.6</ele>
<time>2023-05-17T10:03:44Z</time>
</trkpt>
<trkpt lat="49.05534999445081" lon="8.87075294740498">
<ele>300.79999999999995</ele>
<time>2023-05-17T10:03:45Z</time>
</trkpt>
<trkpt lat="49.05529492534697" lon="8.870584974065423">
<ele>300.20000000000005</ele>
<time>2023-05-17T10:03:46Z</time>
</trkpt>
<trkpt lat="49.055237928405404" lon="8.870417922735214">
<ele>299.6</ele>
<time>2023-05-17T10:03:47Z</time>
</trkpt>
<trkpt lat="49.05517992563546" lon="8.870239974930882">
<ele>299</ele>
<time>2023-05-17T10:03:48Z</time>
</trkpt>
<trkpt lat="49.05512795783579" lon="8.870077952742577">
<ele>298.4</ele>
<time>2023-05-17T10:03:49Z</time>
</trkpt>
<trkpt lat="49.05508495867252" lon="8.86989296413958">
<ele>297.79999999999995</ele>
<time>2023-05-17T10:03:50Z</time>
</trkpt>
<trkpt lat="49.05504992231727" lon="8.869727924466133">
<ele>297.20000000000005</ele>
<time>2023-05-17T10:03:51Z</time>
</trkpt>
<trkpt lat="49.05501496978104" lon="8.869557939469814">
<ele>296.79999999999995</ele>
<time>2023-05-17T10:03:52Z</time>
</trkpt>
<trkpt lat="49.054982950910926" lon="8.869392983615398">
<ele>296.20000000000005</ele>
<time>2023-05-17T10:03:53Z</time>
</trkpt>
<trkpt lat="49.05495294369757" lon="8.869221992790699">
<ele>296</ele>
<time>2023-05-17T10:03:54Z</time>
</trkpt>
<trkpt lat="49.05492193065584" lon="8.869064999744296">
<ele>295.6</ele>
<time>2023-05-17T10:03:55Z</time>
</trkpt>
<trkpt lat="49.05489997006953" lon="8.868921920657158">
<ele>295.4</ele>
<time>2023-05-17T10:03:56Z</time>
</trkpt>
<trkpt lat="49.054872980341315" lon="8.868782948702574">
<ele>295.20000000000005</ele>
<time>2023-05-17T10:03:57Z</time>
</trkpt>
<trkpt lat="49.05484993010759" lon="8.868659986183047">
<ele>295</ele>
<time>2023-05-17T10:03:58Z</time>
</trkpt>
<trkpt lat="49.054827969521284" lon="8.868536939844489">
<ele>295</ele>
<time>2023-05-17T10:03:59Z</time>
</trkpt>
<trkpt lat="49.054809948429465" lon="8.868416994810104">
<ele>294.79999999999995</ele>
<time>2023-05-17T10:04:00Z</time>
</trkpt>
<trkpt lat="49.054786982014775" lon="8.868294954299927">
<ele>294.6</ele>
<time>2023-05-17T10:04:01Z</time>
</trkpt>
<trkpt lat="49.05476292595267" lon="8.86817492544651">
<ele>294.6</ele>
<time>2023-05-17T10:04:02Z</time>
</trkpt>
<trkpt lat="49.054742977023125" lon="8.868057997897267">
<ele>294.4</ele>
<time>2023-05-17T10:04:03Z</time>
</trkpt>
<trkpt lat="49.054722944274545" lon="8.867946937680244">
<ele>294.20000000000005</ele>
<time>2023-05-17T10:04:04Z</time>
</trkpt>
<trkpt lat="49.054701989516616" lon="8.867836967110634">
<ele>294</ele>
<time>2023-05-17T10:04:05Z</time>
</trkpt>
<trkpt lat="49.054681956768036" lon="8.867727918550372">
<ele>293.79999999999995</ele>
<time>2023-05-17T10:04:06Z</time>
</trkpt>
<trkpt lat="49.054661924019456" lon="8.867622977122664">
<ele>293.6</ele>
<time>2023-05-17T10:04:07Z</time>
</trkpt>
<trkpt lat="49.05464298091829" lon="8.867516946047544">
<ele>293.4</ele>
<time>2023-05-17T10:04:08Z</time>
</trkpt>
<trkpt lat="49.05462294816971" lon="8.867407981306314">
<ele>293.20000000000005</ele>
<time>2023-05-17T10:04:09Z</time>
</trkpt>
<trkpt lat="49.05460299924016" lon="8.867299938574433">
<ele>293</ele>
<time>2023-05-17T10:04:10Z</time>
</trkpt>
<trkpt lat="49.0545819606632" lon="8.867187956348062">
<ele>292.79999999999995</ele>
<time>2023-05-17T10:04:11Z</time>
</trkpt>
<trkpt lat="49.05456192791462" lon="8.86707496829331">
<ele>292.4</ele>
<time>2023-05-17T10:04:12Z</time>
</trkpt>
<trkpt lat="49.05454197898507" lon="8.866956951096654">
<ele>292.20000000000005</ele>
<time>2023-05-17T10:04:13Z</time>
</trkpt>
<trkpt lat="49.05451993457973" lon="8.86683993972838">
<ele>292</ele>
<time>2023-05-17T10:04:14Z</time>
</trkpt>
<trkpt lat="49.05449797399342" lon="8.866721922531724">
<ele>291.6</ele>
<time>2023-05-17T10:04:15Z</time>
</trkpt>
<trkpt lat="49.05447299592197" lon="8.86660298332572">
<ele>291.20000000000005</ele>
<time>2023-05-17T10:04:16Z</time>
</trkpt>
<trkpt lat="49.05444994568825" lon="8.866482954472303">
<ele>291</ele>
<time>2023-05-17T10:04:17Z</time>
</trkpt>
<trkpt lat="49.0544249676168" lon="8.866359991952777">
<ele>290.6</ele>
<time>2023-05-17T10:04:18Z</time>
</trkpt>
<trkpt lat="49.054401917383075" lon="8.866231916472316">
<ele>290.4</ele>
<time>2023-05-17T10:04:19Z</time>
</trkpt>
<trkpt lat="49.054377945140004" lon="8.866102918982506">
<ele>290</ele>
<time>2023-05-17T10:04:20Z</time>
</trkpt>
<trkpt lat="49.05435196124017" lon="8.865969981998205">
<ele>289.6</ele>
<time>2023-05-17T10:04:21Z</time>
</trkpt>
<trkpt lat="49.05432497151196" lon="8.865837967023253">
<ele>289.20000000000005</ele>
<time>2023-05-17T10:04:22Z</time>
</trkpt>
<trkpt lat="49.054292952641845" lon="8.865707963705063">
<ele>289</ele>
<time>2023-05-17T10:04:23Z</time>
</trkpt>
<trkpt lat="49.054271997883916" lon="8.86557293124497">
<ele>288.4</ele>
<time>2023-05-17T10:04:24Z</time>
</trkpt>
<trkpt lat="49.054269986227155" lon="8.865441922098398">
<ele>288</ele>
<time>2023-05-17T10:04:25Z</time>
</trkpt>
<trkpt lat="49.0542399790138" lon="8.86531493626535">
<ele>287.6</ele>
<time>2023-05-17T10:04:26Z</time>
</trkpt>
<trkpt lat="49.054206954315305" lon="8.8651879504323">
<ele>287.20000000000005</ele>
<time>2023-05-17T10:04:27Z</time>
</trkpt>
<trkpt lat="49.05417493544519" lon="8.86505694128573">
<ele>286.6</ele>
<time>2023-05-17T10:04:28Z</time>
</trkpt>
<trkpt lat="49.054142916575074" lon="8.864919980987906">
<ele>286.20000000000005</ele>
<time>2023-05-17T10:04:29Z</time>
</trkpt>
<trkpt lat="49.05411198735237" lon="8.86477991938591">
<ele>285.79999999999995</ele>
<time>2023-05-17T10:04:30Z</time>
</trkpt>
<trkpt lat="49.05408198013902" lon="8.864641953259706">
<ele>285.20000000000005</ele>
<time>2023-05-17T10:04:31Z</time>
</trkpt>
<trkpt lat="49.0540499612689" lon="8.864501975476742">
<ele>284.79999999999995</ele>
<time>2023-05-17T10:04:32Z</time>
</trkpt>
<trkpt lat="49.054011991247535" lon="8.864357974380255">
<ele>284.20000000000005</ele>
<time>2023-05-17T10:04:33Z</time>
</trkpt>
<trkpt lat="49.05397695489228" lon="8.86421992443502">
<ele>283.79999999999995</ele>
<time>2023-05-17T10:04:34Z</time>
</trkpt>
<trkpt lat="49.05394493602216" lon="8.864086987450719">
<ele>283.4</ele>
<time>2023-05-17T10:04:35Z</time>
</trkpt>
<trkpt lat="49.05391291715205" lon="8.863949943333864">
<ele>282.79999999999995</ele>
<time>2023-05-17T10:04:36Z</time>
</trkpt>
<trkpt lat="49.05387997627258" lon="8.86381197720766">
<ele>282.4</ele>
<time>2023-05-17T10:04:37Z</time>
</trkpt>
<trkpt lat="49.05384996905923" lon="8.863674933090806">
<ele>282</ele>
<time>2023-05-17T10:04:38Z</time>
</trkpt>
<trkpt lat="49.05381694436073" lon="8.863544929772615">
<ele>281.6</ele>
<time>2023-05-17T10:04:39Z</time>
</trkpt>
<trkpt lat="49.05378693714738" lon="8.863412998616695">
<ele>281.20000000000005</ele>
<time>2023-05-17T10:04:40Z</time>
</trkpt>
<trkpt lat="49.053757935762405" lon="8.863289952278137">
<ele>280.79999999999995</ele>
<time>2023-05-17T10:04:41Z</time>
</trkpt>
<trkpt lat="49.053732957690954" lon="8.863176964223385">
<ele>280.6</ele>
<time>2023-05-17T10:04:42Z</time>
</trkpt>
<trkpt lat="49.053711919113994" lon="8.86307998560369">
<ele>280.4</ele>
<time>2023-05-17T10:04:43Z</time>
</trkpt>
<trkpt lat="49.053691970184445" lon="8.862989963963628">
<ele>280.4</ele>
<time>2023-05-17T10:04:44Z</time>
</trkpt>
<trkpt lat="49.053671937435865" lon="8.86290698312223">
<ele>280.4</ele>
<time>2023-05-17T10:04:45Z</time>
</trkpt>
<trkpt lat="49.05365492217243" lon="8.862832970917225">
<ele>280.4</ele>
<time>2023-05-17T10:04:46Z</time>
</trkpt>
<trkpt lat="49.05364193022251" lon="8.862766921520233">
<ele>280.4</ele>
<time>2023-05-17T10:04:47Z</time>
</trkpt>
<trkpt lat="49.053626926615834" lon="8.862704979255795">
<ele>280.4</ele>
<time>2023-05-17T10:04:48Z</time>
</trkpt>
<trkpt lat="49.05361292883754" lon="8.862647982314229">
<ele>280.4</ele>
<time>2023-05-17T10:04:49Z</time>
</trkpt>
<trkpt lat="49.05360194854438" lon="8.862596936523914">
<ele>280.6</ele>
<time>2023-05-17T10:04:50Z</time>
</trkpt>
<trkpt lat="49.05358996242285" lon="8.862546980381012">
<ele>280.79999999999995</ele>
<time>2023-05-17T10:04:51Z</time>
</trkpt>
<trkpt lat="49.05357797630131" lon="8.86250196956098">
<ele>281</ele>
<time>2023-05-17T10:04:52Z</time>
</trkpt>
<trkpt lat="49.053562972694635" lon="8.86245796456933">
<ele>281</ele>
<time>2023-05-17T10:04:53Z</time>
</trkpt>
<trkpt lat="49.05354998074472" lon="8.86241496540606">
<ele>281.20000000000005</ele>
<time>2023-05-17T10:04:54Z</time>
</trkpt>
<trkpt lat="49.053536988794804" lon="8.86237196624279">
<ele>281.4</ele>
<time>2023-05-17T10:04:55Z</time>
</trkpt>
<trkpt lat="49.05352299101651" lon="8.862322932109237">
<ele>281.4</ele>
<time>2023-05-17T10:04:56Z</time>
</trkpt>
<trkpt lat="49.05351192690432" lon="8.862272975966334">
<ele>281.6</ele>
<time>2023-05-17T10:04:57Z</time>
</trkpt>
<trkpt lat="49.053499940782785" lon="8.862224947661161">
<ele>281.79999999999995</ele>
<time>2023-05-17T10:04:58Z</time>
</trkpt>
<trkpt lat="49.05348694883287" lon="8.862174991518259">
<ele>282.20000000000005</ele>
<time>2023-05-17T10:04:59Z</time>
</trkpt>
<trkpt lat="49.053474962711334" lon="8.862126963213086">
<ele>282.4</ele>
<time>2023-05-17T10:05:00Z</time>
</trkpt>
<trkpt lat="49.05346498824656" lon="8.862081952393055">
<ele>282.79999999999995</ele>
<time>2023-05-17T10:05:01Z</time>
</trkpt>
<trkpt lat="49.053454929962754" lon="8.862032918259501">
<ele>283.20000000000005</ele>
<time>2023-05-17T10:05:02Z</time>
</trkpt>
<trkpt lat="49.05344495549798" lon="8.861979944631457">
<ele>283.4</ele>
<time>2023-05-17T10:05:03Z</time>
</trkpt>
<trkpt lat="49.053432969376445" lon="8.861926971003413">
<ele>283.79999999999995</ele>
<time>2023-05-17T10:05:04Z</time>
</trkpt>
<trkpt lat="49.05342198908329" lon="8.861876931041479">
<ele>284</ele>
<time>2023-05-17T10:05:05Z</time>
</trkpt>
<trkpt lat="49.05340991914272" lon="8.861827980726957">
<ele>284.4</ele>
<time>2023-05-17T10:05:06Z</time>
</trkpt>
<trkpt lat="49.05339793302119" lon="8.861777940765023">
<ele>284.79999999999995</ele>
<time>2023-05-17T10:05:07Z</time>
</trkpt>
<trkpt lat="49.05338695272803" lon="8.86172798462212">
<ele>285</ele>
<time>2023-05-17T10:05:08Z</time>
</trkpt>
<trkpt lat="49.0533749666065" lon="8.861676938831806">
<ele>285.4</ele>
<time>2023-05-17T10:05:09Z</time>
</trkpt>
<trkpt lat="49.05336298048496" lon="8.861624971032143">
<ele>285.79999999999995</ele>
<time>2023-05-17T10:05:10Z</time>
</trkpt>
<trkpt lat="49.05334998853505" lon="8.86157694272697">
<ele>286</ele>
<time>2023-05-17T10:05:11Z</time>
</trkpt>
<trkpt lat="49.05333498492837" lon="8.861524974927306">
<ele>286.4</ele>
<time>2023-05-17T10:05:12Z</time>
</trkpt>
<trkpt lat="49.053321992978454" lon="8.861472923308611">
<ele>286.6</ele>
<time>2023-05-17T10:05:13Z</time>
</trkpt>
<trkpt lat="49.05330799520016" lon="8.861422967165709">
<ele>287</ele>
<time>2023-05-17T10:05:14Z</time>
</trkpt>
<trkpt lat="49.05329793691635" lon="8.861369993537664">
<ele>287.20000000000005</ele>
<time>2023-05-17T10:05:15Z</time>
</trkpt>
<trkpt lat="49.0532869566232" lon="8.861316936090589">
<ele>287.6</ele>
<time>2023-05-17T10:05:16Z</time>
</trkpt>
<trkpt lat="49.0532779879868" lon="8.861266979947686">
<ele>288</ele>
<time>2023-05-17T10:05:17Z</time>
</trkpt>
<trkpt lat="49.053267929703" lon="8.861217945814133">
<ele>288.4</ele>
<time>2023-05-17T10:05:18Z</time>
</trkpt>
<trkpt lat="49.05325795523822" lon="8.86116698384285">
<ele>288.6</ele>
<time>2023-05-17T10:05:19Z</time>
</trkpt>
<trkpt lat="49.053242951631546" lon="8.861114932224154">
<ele>289</ele>
<time>2023-05-17T10:05:20Z</time>
</trkpt>
<trkpt lat="49.05323197133839" lon="8.861064976081252">
<ele>289.4</ele>
<time>2023-05-17T10:05:21Z</time>
</trkpt>
<trkpt lat="49.053217973560095" lon="8.861012924462557">
<ele>289.6</ele>
<time>2023-05-17T10:05:22Z</time>
</trkpt>
<trkpt lat="49.05320498161018" lon="8.860964979976416">
<ele>290</ele>
<time>2023-05-17T10:05:23Z</time>
</trkpt>
<trkpt lat="49.0531899780035" lon="8.860917957499623">
<ele>290.4</ele>
<time>2023-05-17T10:05:24Z</time>
</trkpt>
<trkpt lat="49.053172962740064" lon="8.86086791753769">
<ele>290.6</ele>
<time>2023-05-17T10:05:25Z</time>
</trkpt>
<trkpt lat="49.05315997079015" lon="8.860817961394787">
<ele>290.79999999999995</ele>
<time>2023-05-17T10:05:26Z</time>
</trkpt>
<trkpt lat="49.05314697884023" lon="8.860767921432853">
<ele>291.20000000000005</ele>
<time>2023-05-17T10:05:27Z</time>
</trkpt>
<trkpt lat="49.053131975233555" lon="8.86071695946157">
<ele>291.4</ele>
<time>2023-05-17T10:05:28Z</time>
</trkpt>
<trkpt lat="49.05311495997012" lon="8.860666919499636">
<ele>291.6</ele>
<time>2023-05-17T10:05:29Z</time>
</trkpt>
<trkpt lat="49.05309995636344" lon="8.860622998327017">
<ele>292</ele>
<time>2023-05-17T10:05:30Z</time>
</trkpt>
<trkpt lat="49.05308193527162" lon="8.860577987506986">
<ele>292.20000000000005</ele>
<time>2023-05-17T10:05:31Z</time>
</trkpt>
<trkpt lat="49.05306299217045" lon="8.860534988343716">
<ele>292.6</ele>
<time>2023-05-17T10:05:32Z</time>
</trkpt>
<trkpt lat="49.05304295942187" lon="8.860491989180446">
<ele>292.79999999999995</ele>
<time>2023-05-17T10:05:33Z</time>
</trkpt>
<trkpt lat="49.05302292667329" lon="8.860449995845556">
<ele>293.20000000000005</ele>
<time>2023-05-17T10:05:34Z</time>
</trkpt>
<trkpt lat="49.053004989400506" lon="8.860406996682286">
<ele>293.4</ele>
<time>2023-05-17T10:05:35Z</time>
</trkpt>
<trkpt lat="49.05298696830869" lon="8.860366931185126">
<ele>293.79999999999995</ele>
<time>2023-05-17T10:05:36Z</time>
</trkpt>
<trkpt lat="49.05296794138849" lon="8.860327955335379">
<ele>294</ele>
<time>2023-05-17T10:05:37Z</time>
</trkpt>
<trkpt lat="49.05294992029667" lon="8.86028696782887">
<ele>294.20000000000005</ele>
<time>2023-05-17T10:05:38Z</time>
</trkpt>
<trkpt lat="49.05293298885226" lon="8.860247991979122">
<ele>294.4</ele>
<time>2023-05-17T10:05:39Z</time>
</trkpt>
<trkpt lat="49.05291295610368" lon="8.860202981159091">
<ele>294.79999999999995</ele>
<time>2023-05-17T10:05:40Z</time>
</trkpt>
<trkpt lat="49.05289191752672" lon="8.860159981995821">
<ele>295</ele>
<time>2023-05-17T10:05:41Z</time>
</trkpt>
<trkpt lat="49.05286995694041" lon="8.860112959519029">
<ele>295.20000000000005</ele>
<time>2023-05-17T10:05:42Z</time>
</trkpt>
<trkpt lat="49.05284699052572" lon="8.86007197201252">
<ele>295.6</ele>
<time>2023-05-17T10:05:43Z</time>
</trkpt>
<trkpt lat="49.05282293446362" lon="8.860026961192489">
<ele>295.79999999999995</ele>
<time>2023-05-17T10:05:44Z</time>
</trkpt>
<trkpt lat="49.05280197970569" lon="8.859982956200838">
<ele>296</ele>
<time>2023-05-17T10:05:45Z</time>
</trkpt>
<trkpt lat="49.05277792364359" lon="8.85994297452271">
<ele>296.20000000000005</ele>
<time>2023-05-17T10:05:46Z</time>
</trkpt>
<trkpt lat="49.0527549572289" lon="8.85989997535944">
<ele>296.4</ele>
<time>2023-05-17T10:05:47Z</time>
</trkpt>
<trkpt lat="49.05272997915745" lon="8.85985798202455">
<ele>296.6</ele>
<time>2023-05-17T10:05:48Z</time>
</trkpt>
<trkpt lat="49.052704917266965" lon="8.859816994518042">
<ele>296.79999999999995</ele>
<time>2023-05-17T10:05:49Z</time>
</trkpt>
<trkpt lat="49.052681950852275" lon="8.85977198369801">
<ele>297</ele>
<time>2023-05-17T10:05:50Z</time>
</trkpt>
<trkpt lat="49.05265496112406" lon="8.85972697287798">
<ele>297.20000000000005</ele>
<time>2023-05-17T10:05:51Z</time>
</trkpt>
<trkpt lat="49.05263199470937" lon="8.85968497954309">
<ele>297.4</ele>
<time>2023-05-17T10:05:52Z</time>
</trkpt>
<trkpt lat="49.05260693281889" lon="8.8596429862082">
<ele>297.6</ele>
<time>2023-05-17T10:05:53Z</time>
</trkpt>
<trkpt lat="49.05258296057582" lon="8.859601998701692">
<ele>297.79999999999995</ele>
<time>2023-05-17T10:05:54Z</time>
</trkpt>
<trkpt lat="49.05255697667599" lon="8.859557993710041">
<ele>298</ele>
<time>2023-05-17T10:05:55Z</time>
</trkpt>
<trkpt lat="49.052531998604536" lon="8.859514994546771">
<ele>298</ele>
<time>2023-05-17T10:05:56Z</time>
</trkpt>
<trkpt lat="49.05250492505729" lon="8.85946998372674">
<ele>298.20000000000005</ele>
<time>2023-05-17T10:05:57Z</time>
</trkpt>
<trkpt lat="49.05247793532908" lon="8.859422961249948">
<ele>298.4</ele>
<time>2023-05-17T10:05:58Z</time>
</trkpt>
<trkpt lat="49.05245195142925" lon="8.859374932944775">
<ele>298.4</ele>
<time>2023-05-17T10:05:59Z</time>
</trkpt>
<trkpt lat="49.052422950044274" lon="8.859326988458633">
<ele>298.6</ele>
<time>2023-05-17T10:06:00Z</time>
</trkpt>
<trkpt lat="49.05239495448768" lon="8.859274936839938">
<ele>298.79999999999995</ele>
<time>2023-05-17T10:06:01Z</time>
</trkpt>
<trkpt lat="49.05236695893109" lon="8.859222969040275">
<ele>298.79999999999995</ele>
<time>2023-05-17T10:06:02Z</time>
</trkpt>
<trkpt lat="49.052337957546115" lon="8.859174940735102">
<ele>299</ele>
<time>2023-05-17T10:06:03Z</time>
</trkpt>
<trkpt lat="49.05230996198952" lon="8.85912791825831">
<ele>299.20000000000005</ele>
<time>2023-05-17T10:06:04Z</time>
</trkpt>
<trkpt lat="49.05228297226131" lon="8.859077962115407">
<ele>299.4</ele>
<time>2023-05-17T10:06:05Z</time>
</trkpt>
<trkpt lat="49.052252965047956" lon="8.859026916325092">
<ele>299.4</ele>
<time>2023-05-17T10:06:06Z</time>
</trkpt>
<trkpt lat="49.05222496949136" lon="8.85897696018219">
<ele>299.6</ele>
<time>2023-05-17T10:06:07Z</time>
</trkpt>
<trkpt lat="49.05219496227801" lon="8.858926920220256">
<ele>299.6</ele>
<time>2023-05-17T10:06:08Z</time>
</trkpt>
<trkpt lat="49.052166966721416" lon="8.858876964077353">
<ele>299.6</ele>
<time>2023-05-17T10:06:09Z</time>
</trkpt>
<trkpt lat="49.05213695950806" lon="8.8588279299438">
<ele>299.79999999999995</ele>
<time>2023-05-17T10:06:10Z</time>
</trkpt>
<trkpt lat="49.05210695229471" lon="8.858772944658995">
<ele>299.79999999999995</ele>
<time>2023-05-17T10:06:11Z</time>
</trkpt>
<trkpt lat="49.052077950909734" lon="8.85871795937419">
<ele>300</ele>
<time>2023-05-17T10:06:12Z</time>
</trkpt>
<trkpt lat="49.05204794369638" lon="8.858666997402906">
<ele>300</ele>
<time>2023-05-17T10:06:13Z</time>
</trkpt>
<trkpt lat="49.052014918997884" lon="8.858607988804579">
<ele>300.20000000000005</ele>
<time>2023-05-17T10:06:14Z</time>
</trkpt>
<trkpt lat="49.05198499560356" lon="8.858554931357503">
<ele>300.20000000000005</ele>
<time>2023-05-17T10:06:15Z</time>
</trkpt>
<trkpt lat="49.05195498839021" lon="8.858499946072698">
<ele>300.20000000000005</ele>
<time>2023-05-17T10:06:16Z</time>
</trkpt>
<trkpt lat="49.05191995203495" lon="8.858446972444654">
<ele>300.4</ele>
<time>2023-05-17T10:06:17Z</time>
</trkpt>
<trkpt lat="49.051887933164835" lon="8.858392992988229">
<ele>300.6</ele>
<time>2023-05-17T10:06:18Z</time>
</trkpt>
<trkpt lat="49.05185792595148" lon="8.858341947197914">
<ele>300.6</ele>
<time>2023-05-17T10:06:19Z</time>
</trkpt>
<trkpt lat="49.05182699672878" lon="8.85828997939825">
<ele>300.79999999999995</ele>
<time>2023-05-17T10:06:20Z</time>
</trkpt>
<trkpt lat="49.051797995343804" lon="8.858237927779555">
<ele>300.79999999999995</ele>
<time>2023-05-17T10:06:21Z</time>
</trkpt>
<trkpt lat="49.05176999978721" lon="8.858184954151511">
<ele>301</ele>
<time>2023-05-17T10:06:22Z</time>
</trkpt>
<trkpt lat="49.05174192041159" lon="8.858132986351848">
<ele>301</ele>
<time>2023-05-17T10:06:23Z</time>
</trkpt>
<trkpt lat="49.051714930683374" lon="8.858081940561533">
<ele>301</ele>
<time>2023-05-17T10:06:24Z</time>
</trkpt>
<trkpt lat="49.05168794095516" lon="8.85803198441863">
<ele>301.20000000000005</ele>
<time>2023-05-17T10:06:25Z</time>
</trkpt>
<trkpt lat="49.05166195705533" lon="8.857977921143174">
<ele>301.20000000000005</ele>
<time>2023-05-17T10:06:26Z</time>
</trkpt>
<trkpt lat="49.05163697898388" lon="8.85792494751513">
<ele>301.4</ele>
<time>2023-05-17T10:06:27Z</time>
</trkpt>
<trkpt lat="49.051611917093396" lon="8.857867950573564">
<ele>301.4</ele>
<time>2023-05-17T10:06:28Z</time>
</trkpt>
<trkpt lat="49.051586939021945" lon="8.857807936146855">
<ele>301.4</ele>
<time>2023-05-17T10:06:29Z</time>
</trkpt>
<trkpt lat="49.051562966778874" lon="8.857749933376908">
<ele>301.6</ele>
<time>2023-05-17T10:06:30Z</time>
</trkpt>
<trkpt lat="49.05153991654515" lon="8.85768799111247">
<ele>301.6</ele>
<time>2023-05-17T10:06:31Z</time>
</trkpt>
<trkpt lat="49.051519967615604" lon="8.857626970857382">
<ele>301.79999999999995</ele>
<time>2023-05-17T10:06:32Z</time>
</trkpt>
<trkpt lat="49.051499934867024" lon="8.85756192728877">
<ele>301.79999999999995</ele>
<time>2023-05-17T10:06:33Z</time>
</trkpt>
<trkpt lat="49.05148199759424" lon="8.857502918690443">
<ele>302</ele>
<time>2023-05-17T10:06:34Z</time>
</trkpt>
<trkpt lat="49.0514649823308" lon="8.857441982254386">
<ele>302.20000000000005</ele>
<time>2023-05-17T10:06:35Z</time>
</trkpt>
<trkpt lat="49.05144796706736" lon="8.857382973656058">
<ele>302.20000000000005</ele>
<time>2023-05-17T10:06:36Z</time>
</trkpt>
<trkpt lat="49.051434975117445" lon="8.857324970886111">
<ele>302.4</ele>
<time>2023-05-17T10:06:37Z</time>
</trkpt>
<trkpt lat="49.05141997151077" lon="8.857262944802642">
<ele>302.4</ele>
<time>2023-05-17T10:06:38Z</time>
</trkpt>
<trkpt lat="49.05140697956085" lon="8.857201924547553">
<ele>302.6</ele>
<time>2023-05-17T10:06:39Z</time>
</trkpt>
<trkpt lat="49.05139792710543" lon="8.857142999768257">
<ele>302.79999999999995</ele>
<time>2023-05-17T10:06:40Z</time>
</trkpt>
<trkpt lat="49.05138795264065" lon="8.857081979513168">
<ele>302.79999999999995</ele>
<time>2023-05-17T10:06:41Z</time>
</trkpt>
<trkpt lat="49.05138292349875" lon="8.857017941772938">
<ele>303</ele>
<time>2023-05-17T10:06:42Z</time>
</trkpt>
<trkpt lat="49.05137998983264" lon="8.85695499368012">
<ele>303.20000000000005</ele>
<time>2023-05-17T10:06:43Z</time>
</trkpt>
<trkpt lat="49.051372949033976" lon="8.856894979253411">
<ele>303.4</ele>
<time>2023-05-17T10:06:44Z</time>
</trkpt>
<trkpt lat="49.051371943205595" lon="8.856839993968606">
<ele>303.4</ele>
<time>2023-05-17T10:06:45Z</time>
</trkpt>
<trkpt lat="49.051366997882724" lon="8.85678693652153">
<ele>303.6</ele>
<time>2023-05-17T10:06:46Z</time>
</trkpt>
<trkpt lat="49.0513579454273" lon="8.856737986207008">
<ele>303.79999999999995</ele>
<time>2023-05-17T10:06:47Z</time>
</trkpt>
<trkpt lat="49.051347970962524" lon="8.856692975386977">
<ele>303.79999999999995</ele>
<time>2023-05-17T10:06:48Z</time>
</trkpt>
<trkpt lat="49.05133699066937" lon="8.856646958738565">
<ele>304</ele>
<time>2023-05-17T10:06:49Z</time>
</trkpt>
<trkpt lat="49.051326932385564" lon="8.856599936261773">
<ele>304.20000000000005</ele>
<time>2023-05-17T10:06:50Z</time>
</trkpt>
<trkpt lat="49.05131796374917" lon="8.856556937098503">
<ele>304.4</ele>
<time>2023-05-17T10:06:51Z</time>
</trkpt>
<trkpt lat="49.051309917122126" lon="8.856514943763614">
<ele>304.4</ele>
<time>2023-05-17T10:06:52Z</time>
</trkpt>
<trkpt lat="49.05130296014249" lon="8.856471944600344">
<ele>304.6</ele>
<time>2023-05-17T10:06:53Z</time>
</trkpt>
<trkpt lat="49.05129793100059" lon="8.856427939608693">
<ele>304.79999999999995</ele>
<time>2023-05-17T10:06:54Z</time>
</trkpt>
<trkpt lat="49.05129197984934" lon="8.856386952102184">
<ele>305</ele>
<time>2023-05-17T10:06:55Z</time>
</trkpt>
<trkpt lat="49.051284939050674" lon="8.856344958767295">
<ele>305.20000000000005</ele>
<time>2023-05-17T10:06:56Z</time>
</trkpt>
<trkpt lat="49.05128192156553" lon="8.856311934068799">
<ele>305.20000000000005</ele>
<time>2023-05-17T10:06:57Z</time>
</trkpt>
<trkpt lat="49.05127798207104" lon="8.85627195239067">
<ele>305.4</ele>
<time>2023-05-17T10:06:58Z</time>
</trkpt>
<trkpt lat="49.05127295292914" lon="8.856229959055781">
<ele>305.6</ele>
<time>2023-05-17T10:06:59Z</time>
</trkpt>
<trkpt lat="49.051266917958856" lon="8.856189977377653">
<ele>305.6</ele>
<time>2023-05-17T10:07:00Z</time>
</trkpt>
<trkpt lat="49.051262978464365" lon="8.856154941022396">
<ele>305.79999999999995</ele>
<time>2023-05-17T10:07:01Z</time>
</trkpt>
<trkpt lat="49.05125794932246" lon="8.85611797682941">
<ele>306</ele>
<time>2023-05-17T10:07:02Z</time>
</trkpt>
<trkpt lat="49.05124998651445" lon="8.856077995151281">
<ele>306.20000000000005</ele>
<time>2023-05-17T10:07:03Z</time>
</trkpt>
<trkpt lat="49.051244957372546" lon="8.856039941310883">
<ele>306.20000000000005</ele>
<time>2023-05-17T10:07:04Z</time>
</trkpt>
<trkpt lat="49.05123791657388" lon="8.856001971289515">
<ele>306.4</ele>
<time>2023-05-17T10:07:05Z</time>
</trkpt>
<trkpt lat="49.05123297125101" lon="8.855962995439768">
<ele>306.6</ele>
<time>2023-05-17T10:07:06Z</time>
</trkpt>
<trkpt lat="49.05122995376587" lon="8.85592695325613">
<ele>306.79999999999995</ele>
<time>2023-05-17T10:07:07Z</time>
</trkpt>
<trkpt lat="49.051224924623966" lon="8.85588294826448">
<ele>307</ele>
<time>2023-05-17T10:07:08Z</time>
</trkpt>
<trkpt lat="49.051217967644334" lon="8.85583994910121">
<ele>307</ele>
<time>2023-05-17T10:07:09Z</time>
</trkpt>
<trkpt lat="49.05121193267405" lon="8.855791920796037">
<ele>307.20000000000005</ele>
<time>2023-05-17T10:07:10Z</time>
</trkpt>
<trkpt lat="49.05120698735118" lon="8.855751939117908">
<ele>307.4</ele>
<time>2023-05-17T10:07:11Z</time>
</trkpt>
<trkpt lat="49.051201958209276" lon="8.85571296326816">
<ele>307.6</ele>
<time>2023-05-17T10:07:12Z</time>
</trkpt>
<trkpt lat="49.05119491741061" lon="8.855674993246794">
<ele>307.79999999999995</ele>
<time>2023-05-17T10:07:13Z</time>
</trkpt>
<trkpt lat="49.05118293128908" lon="8.855636939406395">
<ele>308</ele>
<time>2023-05-17T10:07:14Z</time>
</trkpt>
<trkpt lat="49.051177985966206" lon="8.855594946071506">
<ele>308</ele>
<time>2023-05-17T10:07:15Z</time>
</trkpt>
<trkpt lat="49.0511729568243" lon="8.855557981878519">
<ele>308.20000000000005</ele>
<time>2023-05-17T10:07:16Z</time>
</trkpt>
<trkpt lat="49.05116993933916" lon="8.855521939694881">
<ele>308.4</ele>
<time>2023-05-17T10:07:17Z</time>
</trkpt>
<trkpt lat="49.05116692185402" lon="8.855482963845134">
<ele>308.6</ele>
<time>2023-05-17T10:07:18Z</time>
</trkpt>
<trkpt lat="49.05116298235953" lon="8.855444993823767">
<ele>308.79999999999995</ele>
<time>2023-05-17T10:07:19Z</time>
</trkpt>
<trkpt lat="49.051156947389245" lon="8.855404928326607">
<ele>309</ele>
<time>2023-05-17T10:07:20Z</time>
</trkpt>
<trkpt lat="49.05115191824734" lon="8.855359917506576">
<ele>309.20000000000005</ele>
<time>2023-05-17T10:07:21Z</time>
</trkpt>
<trkpt lat="49.05114496126771" lon="8.855319935828447">
<ele>309.4</ele>
<time>2023-05-17T10:07:22Z</time>
</trkpt>
<trkpt lat="49.051137920469046" lon="8.855279954150319">
<ele>309.6</ele>
<time>2023-05-17T10:07:23Z</time>
</trkpt>
<trkpt lat="49.051132975146174" lon="8.855241984128952">
<ele>309.79999999999995</ele>
<time>2023-05-17T10:07:24Z</time>
</trkpt>
<trkpt lat="49.05112995766103" lon="8.855202924460173">
<ele>310</ele>
<time>2023-05-17T10:07:25Z</time>
</trkpt>
<trkpt lat="49.05112694017589" lon="8.855161936953664">
<ele>310.20000000000005</ele>
<time>2023-05-17T10:07:26Z</time>
</trkpt>
<trkpt lat="49.05111998319626" lon="8.855122961103916">
<ele>310.4</ele>
<time>2023-05-17T10:07:27Z</time>
</trkpt>
<trkpt lat="49.051112942397594" lon="8.855086918920279">
<ele>310.6</ele>
<time>2023-05-17T10:07:28Z</time>
</trkpt>
<trkpt lat="49.05110497958958" lon="8.855047943070531">
<ele>310.79999999999995</ele>
<time>2023-05-17T10:07:29Z</time>
</trkpt>
<trkpt lat="49.05109793879092" lon="8.855009973049164">
<ele>311</ele>
<time>2023-05-17T10:07:30Z</time>
</trkpt>
<trkpt lat="49.051091987639666" lon="8.854969991371036">
<ele>311.20000000000005</ele>
<time>2023-05-17T10:07:31Z</time>
</trkpt>
<trkpt lat="49.051084946841" lon="8.854929925873876">
<ele>311.4</ele>
<time>2023-05-17T10:07:32Z</time>
</trkpt>
<trkpt lat="49.0510799176991" lon="8.854889944195747">
<ele>311.6</ele>
<time>2023-05-17T10:07:33Z</time>
</trkpt>
<trkpt lat="49.051072960719466" lon="8.854846945032477">
<ele>311.79999999999995</ele>
<time>2023-05-17T10:07:34Z</time>
</trkpt>
<trkpt lat="49.051069943234324" lon="8.854802940040827">
<ele>312</ele>
<time>2023-05-17T10:07:35Z</time>
</trkpt>
<trkpt lat="49.05106692574918" lon="8.854759940877557">
<ele>312.4</ele>
<time>2023-05-17T10:07:36Z</time>
</trkpt>
<trkpt lat="49.05106198042631" lon="8.854719959199429">
<ele>312.6</ele>
<time>2023-05-17T10:07:37Z</time>
</trkpt>
<trkpt lat="49.05105795711279" lon="8.854681989178061">
<ele>312.79999999999995</ele>
<time>2023-05-17T10:07:38Z</time>
</trkpt>
<trkpt lat="49.05105493962765" lon="8.854639995843172">
<ele>313</ele>
<time>2023-05-17T10:07:39Z</time>
</trkpt>
<trkpt lat="49.051052927970886" lon="8.854594985023141">
<ele>313.20000000000005</ele>
<time>2023-05-17T10:07:40Z</time>
</trkpt>
<trkpt lat="49.051049994304776" lon="8.854546956717968">
<ele>313.4</ele>
<time>2023-05-17T10:07:41Z</time>
</trkpt>
<trkpt lat="49.051047982648015" lon="8.854496916756034">
<ele>313.6</ele>
<time>2023-05-17T10:07:42Z</time>
</trkpt>
<trkpt lat="49.05104295350611" lon="8.854446960613132">
<ele>313.79999999999995</ele>
<time>2023-05-17T10:07:43Z</time>
</trkpt>
<trkpt lat="49.05103691853583" lon="8.854402955621481">
<ele>314.20000000000005</ele>
<time>2023-05-17T10:07:44Z</time>
</trkpt>
<trkpt lat="49.051027949899435" lon="8.854361968114972">
<ele>314.4</ele>
<time>2023-05-17T10:07:45Z</time>
</trkpt>
<trkpt lat="49.05102199874818" lon="8.854324920102954">
<ele>314.6</ele>
<time>2023-05-17T10:07:46Z</time>
</trkpt>
<trkpt lat="49.05101294629276" lon="8.854286950081587">
<ele>315</ele>
<time>2023-05-17T10:07:47Z</time>
</trkpt>
<trkpt lat="49.051007917150855" lon="8.8542499858886">
<ele>315.20000000000005</ele>
<time>2023-05-17T10:07:48Z</time>
</trkpt>
<trkpt lat="49.05099995434284" lon="8.854207992553711">
<ele>315.4</ele>
<time>2023-05-17T10:07:49Z</time>
</trkpt>
<trkpt lat="49.05099299736321" lon="8.854171950370073">
<ele>315.6</ele>
<time>2023-05-17T10:07:50Z</time>
</trkpt>
<trkpt lat="49.05098796822131" lon="8.854131968691945">
<ele>315.79999999999995</ele>
<time>2023-05-17T10:07:51Z</time>
</trkpt>
<trkpt lat="49.050984950736165" lon="8.854092992842197">
<ele>315.79999999999995</ele>
<time>2023-05-17T10:07:52Z</time>
</trkpt>
<trkpt lat="49.050982939079404" lon="8.854054939001799">
<ele>316</ele>
<time>2023-05-17T10:07:53Z</time>
</trkpt>
<trkpt lat="49.05097799375653" lon="8.85401495732367">
<ele>316.20000000000005</ele>
<time>2023-05-17T10:07:54Z</time>
</trkpt>
<trkpt lat="49.05097296461463" lon="8.853974975645542">
<ele>316.4</ele>
<time>2023-05-17T10:07:55Z</time>
</trkpt>
<trkpt lat="49.05096793547273" lon="8.853934993967414">
<ele>316.6</ele>
<time>2023-05-17T10:07:56Z</time>
</trkpt>
<trkpt lat="49.050961984321475" lon="8.853892916813493">
<ele>316.6</ele>
<time>2023-05-17T10:07:57Z</time>
</trkpt>
<trkpt lat="49.05095494352281" lon="8.853852935135365">
<ele>316.79999999999995</ele>
<time>2023-05-17T10:07:58Z</time>
</trkpt>
<trkpt lat="49.05094999819994" lon="8.853814965113997">
<ele>317</ele>
<time>2023-05-17T10:07:59Z</time>
</trkpt>
<trkpt lat="49.050942957401276" lon="8.853771965950727">
<ele>317.20000000000005</ele>
<time>2023-05-17T10:08:00Z</time>
</trkpt>
<trkpt lat="49.05093499459326" lon="8.853722931817174">
<ele>317.4</ele>
<time>2023-05-17T10:08:01Z</time>
</trkpt>
<trkpt lat="49.05092996545136" lon="8.853679932653904">
<ele>317.6</ele>
<time>2023-05-17T10:08:02Z</time>
</trkpt>
<trkpt lat="49.050922924652696" lon="8.853634921833873">
<ele>317.79999999999995</ele>
<time>2023-05-17T10:08:03Z</time>
</trkpt>
<trkpt lat="49.05091496184468" lon="8.853589994832873">
<ele>318</ele>
<time>2023-05-17T10:08:04Z</time>
</trkpt>
<trkpt lat="49.05090498737991" lon="8.853542972356081">
<ele>318.20000000000005</ele>
<time>2023-05-17T10:08:05Z</time>
</trkpt>
<trkpt lat="49.050896940752864" lon="8.853499973192811">
<ele>318.4</ele>
<time>2023-05-17T10:08:06Z</time>
</trkpt>
<trkpt lat="49.05088998377323" lon="8.853457979857922">
<ele>318.6</ele>
<time>2023-05-17T10:08:07Z</time>
</trkpt>
<trkpt lat="49.05088193714619" lon="8.853419926017523">
<ele>318.79999999999995</ele>
<time>2023-05-17T10:08:08Z</time>
</trkpt>
<trkpt lat="49.05086995102465" lon="8.853379944339395">
<ele>318.79999999999995</ele>
<time>2023-05-17T10:08:09Z</time>
</trkpt>
<trkpt lat="49.050856959074736" lon="8.85334499180317">
<ele>319</ele>
<time>2023-05-17T10:08:10Z</time>
</trkpt>
<trkpt lat="49.0508399438113" lon="8.853312972933054">
<ele>319.20000000000005</ele>
<time>2023-05-17T10:08:11Z</time>
</trkpt>
<trkpt lat="49.05082695186138" lon="8.853276930749416">
<ele>319.4</ele>
<time>2023-05-17T10:08:12Z</time>
</trkpt>
<trkpt lat="49.05080993659794" lon="8.853234937414527">
<ele>319.6</ele>
<time>2023-05-17T10:08:13Z</time>
</trkpt>
<trkpt lat="49.05079694464803" lon="8.85319696739316">
<ele>319.79999999999995</ele>
<time>2023-05-17T10:08:14Z</time>
</trkpt>
<trkpt lat="49.05078495852649" lon="8.853149944916368">
<ele>320</ele>
<time>2023-05-17T10:08:15Z</time>
</trkpt>
<trkpt lat="49.050771966576576" lon="8.853106945753098">
<ele>320.20000000000005</ele>
<time>2023-05-17T10:08:16Z</time>
</trkpt>
<trkpt lat="49.05075796879828" lon="8.853061934933066">
<ele>320.4</ele>
<time>2023-05-17T10:08:17Z</time>
</trkpt>
<trkpt lat="49.050747994333506" lon="8.853021953254938">
<ele>320.6</ele>
<time>2023-05-17T10:08:18Z</time>
</trkpt>
<trkpt lat="49.050744976848364" lon="8.852992951869965">
<ele>320.79999999999995</ele>
<time>2023-05-17T10:08:19Z</time>
</trkpt>
<trkpt lat="49.0507379360497" lon="8.852964956313372">
<ele>321</ele>
<time>2023-05-17T10:08:20Z</time>
</trkpt>
<trkpt lat="49.050726955756545" lon="8.852927992120385">
<ele>321.20000000000005</ele>
<time>2023-05-17T10:08:21Z</time>
</trkpt>
<trkpt lat="49.05071195214987" lon="8.852889938279986">
<ele>321.4</ele>
<time>2023-05-17T10:08:22Z</time>
</trkpt>
<trkpt lat="49.05069694854319" lon="8.852847944945097">
<ele>321.6</ele>
<time>2023-05-17T10:08:23Z</time>
</trkpt>
<trkpt lat="49.050684962421656" lon="8.852799916639924">
<ele>321.79999999999995</ele>
<time>2023-05-17T10:08:24Z</time>
</trkpt>
<trkpt lat="49.05067792162299" lon="8.852757923305035">
<ele>322</ele>
<time>2023-05-17T10:08:25Z</time>
</trkpt>
<trkpt lat="49.05066995881498" lon="8.852714924141765">
<ele>322.20000000000005</ele>
<time>2023-05-17T10:08:26Z</time>
</trkpt>
<trkpt lat="49.05066694132984" lon="8.852674942463636">
<ele>322.4</ele>
<time>2023-05-17T10:08:27Z</time>
</trkpt>
<trkpt lat="49.050662918016315" lon="8.852622974663973">
<ele>322.4</ele>
<time>2023-05-17T10:08:28Z</time>
</trkpt>
<trkpt lat="49.05065696686506" lon="8.8525749463588">
<ele>322.6</ele>
<time>2023-05-17T10:08:29Z</time>
</trkpt>
<trkpt lat="49.05065193772316" lon="8.852527923882008">
<ele>322.79999999999995</ele>
<time>2023-05-17T10:08:30Z</time>
</trkpt>
<trkpt lat="49.05064498074353" lon="8.852481991052628">
<ele>323</ele>
<time>2023-05-17T10:08:31Z</time>
</trkpt>
<trkpt lat="49.050642969086766" lon="8.852429939433932">
<ele>323.20000000000005</ele>
<time>2023-05-17T10:08:32Z</time>
</trkpt>
<trkpt lat="49.050641963258386" lon="8.85237998329103">
<ele>323.4</ele>
<time>2023-05-17T10:08:33Z</time>
</trkpt>
<trkpt lat="49.050642969086766" lon="8.852327931672335">
<ele>323.4</ele>
<time>2023-05-17T10:08:34Z</time>
</trkpt>
<trkpt lat="49.05064498074353" lon="8.852271940559149">
<ele>323.6</ele>
<time>2023-05-17T10:08:35Z</time>
</trkpt>
<trkpt lat="49.05064498074353" lon="8.852212931960821">
<ele>323.6</ele>
<time>2023-05-17T10:08:36Z</time>
</trkpt>
<trkpt lat="49.050642969086766" lon="8.852149983868003">
<ele>323.79999999999995</ele>
<time>2023-05-17T10:08:37Z</time>
</trkpt>
<trkpt lat="49.050642969086766" lon="8.852084940299392">
<ele>323.79999999999995</ele>
<time>2023-05-17T10:08:38Z</time>
</trkpt>
<trkpt lat="49.050641963258386" lon="8.852019980549812">
<ele>323.79999999999995</ele>
<time>2023-05-17T10:08:39Z</time>
</trkpt>
<trkpt lat="49.050639951601624" lon="8.85195292532444">
<ele>323.79999999999995</ele>
<time>2023-05-17T10:08:40Z</time>
</trkpt>
<trkpt lat="49.05063693411648" lon="8.85188695974648">
<ele>323.79999999999995</ele>
<time>2023-05-17T10:08:41Z</time>
</trkpt>
<trkpt lat="49.05063198879361" lon="8.8518219999969">
<ele>323.79999999999995</ele>
<time>2023-05-17T10:08:42Z</time>
</trkpt>
<trkpt lat="49.05062695965171" lon="8.85175695642829">
<ele>323.79999999999995</ele>
<time>2023-05-17T10:08:43Z</time>
</trkpt>
<trkpt lat="49.050616985186934" lon="8.851689985021949">
<ele>323.79999999999995</ele>
<time>2023-05-17T10:08:44Z</time>
</trkpt>
<trkpt lat="49.05061195604503" lon="8.85162795893848">
<ele>323.79999999999995</ele>
<time>2023-05-17T10:08:45Z</time>
</trkpt>
<trkpt lat="49.0506049990654" lon="8.85156693868339">
<ele>323.6</ele>
<time>2023-05-17T10:08:46Z</time>
</trkpt>
<trkpt lat="49.050596952438354" lon="8.851507930085063">
<ele>323.6</ele>
<time>2023-05-17T10:08:47Z</time>
</trkpt>
<trkpt lat="49.05058496631682" lon="8.851451938971877">
<ele>323.6</ele>
<time>2023-05-17T10:08:48Z</time>
</trkpt>
<trkpt lat="49.050574991852045" lon="8.851401982828975">
<ele>323.6</ele>
<time>2023-05-17T10:08:49Z</time>
</trkpt>
<trkpt lat="49.050566945225" lon="8.851361917331815">
<ele>323.6</ele>
<time>2023-05-17T10:08:50Z</time>
</trkpt>
<trkpt lat="49.05055797658861" lon="8.85132696479559">
<ele>323.6</ele>
<time>2023-05-17T10:08:51Z</time>
</trkpt>
<trkpt lat="49.05054992996156" lon="8.851294945925474">
<ele>323.6</ele>
<time>2023-05-17T10:08:52Z</time>
</trkpt>
<trkpt lat="49.050529981032014" lon="8.851271979510784">
<ele>323.6</ele>
<time>2023-05-17T10:08:53Z</time>
</trkpt>
<trkpt lat="49.05051497742534" lon="8.85124297812581">
<ele>323.6</ele>
<time>2023-05-17T10:08:54Z</time>
</trkpt>
<trkpt lat="49.05050693079829" lon="8.851216994225979">
<ele>323.6</ele>
<time>2023-05-17T10:08:55Z</time>
</trkpt>
<trkpt lat="49.05050491914153" lon="8.851187992841005">
<ele>323.6</ele>
<time>2023-05-17T10:08:56Z</time>
</trkpt>
<trkpt lat="49.05050198547542" lon="8.85115496814251">
<ele>323.6</ele>
<time>2023-05-17T10:08:57Z</time>
</trkpt>
<trkpt lat="49.050492933019996" lon="8.851122949272394">
<ele>323.6</ele>
<time>2023-05-17T10:08:58Z</time>
</trkpt>
<trkpt lat="49.050486981868744" lon="8.851097971200943">
<ele>323.6</ele>
<time>2023-05-17T10:08:59Z</time>
</trkpt>
<trkpt lat="49.05047994107008" lon="8.851081961765885">
<ele>323.6</ele>
<time>2023-05-17T10:09:00Z</time>
</trkpt>
<trkpt lat="49.05047692358494" lon="8.851066958159208">
<ele>323.6</ele>
<time>2023-05-17T10:09:01Z</time>
</trkpt>
<trkpt lat="49.05047692358494" lon="8.851047931239009">
<ele>323.6</ele>
<time>2023-05-17T10:09:02Z</time>
</trkpt>
<trkpt lat="49.05047692358494" lon="8.851032927632332">
<ele>323.6</ele>
<time>2023-05-17T10:09:03Z</time>
</trkpt>
<trkpt lat="49.05047792941332" lon="8.851029993966222">
<ele>323.6</ele>
<time>2023-05-17T10:09:04Z</time>
</trkpt>
<trkpt lat="49.05047994107008" lon="8.851029993966222">
<ele>323.6</ele>
<time>2023-05-17T10:09:05Z</time>
</trkpt>
<trkpt lat="49.05045999214053" lon="8.850979954004288">
<ele>323.20000000000005</ele>
<time>2023-05-17T10:09:05Z</time>
</trkpt>
<trkpt lat="49.05045194551349" lon="8.850976936519146">
<ele>323</ele>
<time>2023-05-17T10:09:06Z</time>
</trkpt>
<trkpt lat="49.05045194551349" lon="8.850974924862385">
<ele>323</ele>
<time>2023-05-17T10:09:08Z</time>
</trkpt>
<trkpt lat="49.050449933856726" lon="8.850972997024655">
<ele>323</ele>
<time>2023-05-17T10:09:09Z</time>
</trkpt>
<trkpt lat="49.050446916371584" lon="8.850971991196275">
<ele>323.20000000000005</ele>
<time>2023-05-17T10:09:10Z</time>
</trkpt>
<trkpt lat="49.050489999353886" lon="8.850924968719482">
<ele>323</ele>
<time>2023-05-17T10:09:10Z</time>
</trkpt>
<trkpt lat="49.0505169890821" lon="8.850882975384593">
<ele>322.6</ele>
<time>2023-05-17T10:09:12Z</time>
</trkpt>
<trkpt lat="49.05052193440497" lon="8.850871995091438">
<ele>322.6</ele>
<time>2023-05-17T10:09:13Z</time>
</trkpt>
<trkpt lat="49.05052294023335" lon="8.850859925150871">
<ele>322.4</ele>
<time>2023-05-17T10:09:14Z</time>
</trkpt>
<trkpt lat="49.05052294023335" lon="8.850854979828">
<ele>322.4</ele>
<time>2023-05-17T10:09:15Z</time>
</trkpt>
<trkpt lat="49.05051992274821" lon="8.850802928209305">
<ele>322</ele>
<time>2023-05-17T10:09:15Z</time>
</trkpt>
<trkpt lat="49.05052193440497" lon="8.850781973451376">
<ele>322</ele>
<time>2023-05-17T10:09:16Z</time>
</trkpt>
<trkpt lat="49.05052294023335" lon="8.850759929046035">
<ele>322</ele>
<time>2023-05-17T10:09:17Z</time>
</trkpt>
<trkpt lat="49.05052796937525" lon="8.850739980116487">
<ele>322</ele>
<time>2023-05-17T10:09:18Z</time>
</trkpt>
<trkpt lat="49.050534926354885" lon="8.850722964853048">
<ele>321.79999999999995</ele>
<time>2023-05-17T10:09:19Z</time>
</trkpt>
<trkpt lat="49.05054196715355" lon="8.850702932104468">
<ele>321.79999999999995</ele>
<time>2023-05-17T10:09:20Z</time>
</trkpt>
<trkpt lat="49.05055194161832" lon="8.85068298317492">
<ele>321.6</ele>
<time>2023-05-17T10:09:21Z</time>
</trkpt>
<trkpt lat="49.050566945225" lon="8.850666973739862">
<ele>321.6</ele>
<time>2023-05-17T10:09:22Z</time>
</trkpt>
<trkpt lat="49.05058295466006" lon="8.850647946819663">
<ele>321.4</ele>
<time>2023-05-17T10:09:23Z</time>
</trkpt>
<trkpt lat="49.05060298740864" lon="8.850631937384605">
<ele>321.20000000000005</ele>
<time>2023-05-17T10:09:24Z</time>
</trkpt>
<trkpt lat="49.05062695965171" lon="8.850609976798296">
<ele>321</ele>
<time>2023-05-17T10:09:25Z</time>
</trkpt>
<trkpt lat="49.05065193772316" lon="8.850591955706477">
<ele>320.79999999999995</ele>
<time>2023-05-17T10:09:26Z</time>
</trkpt>
<trkpt lat="49.05067699961364" lon="8.850562954321504">
<ele>320.6</ele>
<time>2023-05-17T10:09:27Z</time>
</trkpt>
<trkpt lat="49.050704995170236" lon="8.85053294710815">
<ele>320.20000000000005</ele>
<time>2023-05-17T10:09:28Z</time>
</trkpt>
<trkpt lat="49.05072997324169" lon="8.850501934066415">
<ele>320</ele>
<time>2023-05-17T10:09:29Z</time>
</trkpt>
<trkpt lat="49.0507569629699" lon="8.85046698153019">
<ele>319.6</ele>
<time>2023-05-17T10:09:30Z</time>
</trkpt>
<trkpt lat="49.050789987668395" lon="8.850422976538539">
<ele>319.20000000000005</ele>
<time>2023-05-17T10:09:31Z</time>
</trkpt>
<trkpt lat="49.050831981003284" lon="8.850371930748224">
<ele>318.79999999999995</ele>
<time>2023-05-17T10:09:32Z</time>
</trkpt>
<trkpt lat="49.05086995102465" lon="8.8503179512918">
<ele>318.6</ele>
<time>2023-05-17T10:09:33Z</time>
</trkpt>
<trkpt lat="49.05090699903667" lon="8.850266989320517">
<ele>318.20000000000005</ele>
<time>2023-05-17T10:09:34Z</time>
</trkpt>
<trkpt lat="49.050942957401276" lon="8.850216949358582">
<ele>317.6</ele>
<time>2023-05-17T10:09:35Z</time>
</trkpt>
<trkpt lat="49.05098796822131" lon="8.85016799904406">
<ele>317.20000000000005</ele>
<time>2023-05-17T10:09:36Z</time>
</trkpt>
<trkpt lat="49.05103792436421" lon="8.850112929940224">
<ele>316.79999999999995</ele>
<time>2023-05-17T10:09:37Z</time>
</trkpt>
<trkpt lat="49.051084946841" lon="8.850047970190644">
<ele>316.20000000000005</ele>
<time>2023-05-17T10:09:38Z</time>
</trkpt>
<trkpt lat="49.05112291686237" lon="8.849977981299162">
<ele>315.79999999999995</ele>
<time>2023-05-17T10:09:39Z</time>
</trkpt>
<trkpt lat="49.051157953217626" lon="8.849899945780635">
<ele>315.4</ele>
<time>2023-05-17T10:09:40Z</time>
</trkpt>
<trkpt lat="49.0511919837445" lon="8.849812941625714">
<ele>315</ele>
<time>2023-05-17T10:09:41Z</time>
</trkpt>
<trkpt lat="49.05122299678624" lon="8.849722919985652">
<ele>314.6</ele>
<time>2023-05-17T10:09:42Z</time>
</trkpt>
<trkpt lat="49.05125493183732" lon="8.849634993821383">
<ele>314.20000000000005</ele>
<time>2023-05-17T10:09:43Z</time>
</trkpt>
<trkpt lat="49.051284939050674" lon="8.849551929160953">
<ele>314</ele>
<time>2023-05-17T10:09:44Z</time>
</trkpt>
<trkpt lat="49.05131494626403" lon="8.849471965804696">
<ele>313.79999999999995</ele>
<time>2023-05-17T10:09:45Z</time>
</trkpt>
<trkpt lat="49.05134495347738" lon="8.84939694777131">
<ele>313.79999999999995</ele>
<time>2023-05-17T10:09:46Z</time>
</trkpt>
<trkpt lat="49.05137496069074" lon="8.849319918081164">
<ele>313.6</ele>
<time>2023-05-17T10:09:47Z</time>
</trkpt>
<trkpt lat="49.05140697956085" lon="8.84924498386681">
<ele>313.6</ele>
<time>2023-05-17T10:09:48Z</time>
</trkpt>
<trkpt lat="49.051436986774206" lon="8.849171977490187">
<ele>313.4</ele>
<time>2023-05-17T10:09:49Z</time>
</trkpt>
<trkpt lat="49.0514649823308" lon="8.849092936143279">
<ele>313.4</ele>
<time>2023-05-17T10:09:50Z</time>
</trkpt>
<trkpt lat="49.05149297788739" lon="8.849012972787023">
<ele>313.4</ele>
<time>2023-05-17T10:09:51Z</time>
</trkpt>
<trkpt lat="49.051522985100746" lon="8.848934937268496">
<ele>313.20000000000005</ele>
<time>2023-05-17T10:09:52Z</time>
</trkpt>
<trkpt lat="49.05155492015183" lon="8.848856985569">
<ele>313.20000000000005</ele>
<time>2023-05-17T10:09:53Z</time>
</trkpt>
<trkpt lat="49.051584927365184" lon="8.848782973363996">
<ele>313</ele>
<time>2023-05-17T10:09:54Z</time>
</trkpt>
<trkpt lat="49.05161292292178" lon="8.84870694950223">
<ele>313</ele>
<time>2023-05-17T10:09:55Z</time>
</trkpt>
<trkpt lat="49.05164192430675" lon="8.848631931468844">
<ele>313</ele>
<time>2023-05-17T10:09:56Z</time>
</trkpt>
<trkpt lat="49.05166698619723" lon="8.84855498559773">
<ele>312.79999999999995</ele>
<time>2023-05-17T10:09:57Z</time>
</trkpt>
<trkpt lat="49.051692970097065" lon="8.848476950079203">
<ele>312.79999999999995</ele>
<time>2023-05-17T10:09:58Z</time>
</trkpt>
<trkpt lat="49.05171995982528" lon="8.848397992551327">
<ele>312.79999999999995</ele>
<time>2023-05-17T10:09:59Z</time>
</trkpt>
<trkpt lat="49.05174292623997" lon="8.848316939547658">
<ele>312.79999999999995</ele>
<time>2023-05-17T10:10:00Z</time>
</trkpt>
<trkpt lat="49.05176798813045" lon="8.848241921514273">
<ele>312.79999999999995</ele>
<time>2023-05-17T10:10:01Z</time>
</trkpt>
<trkpt lat="49.051797995343804" lon="8.848172938451171">
<ele>312.79999999999995</ele>
<time>2023-05-17T10:10:02Z</time>
</trkpt>
<trkpt lat="49.051822973415256" lon="8.848101943731308">
<ele>312.6</ele>
<time>2023-05-17T10:10:03Z</time>
</trkpt>
<trkpt lat="49.05185197480023" lon="8.848027931526303">
<ele>312.6</ele>
<time>2023-05-17T10:10:04Z</time>
</trkpt>
<trkpt lat="49.05188198201358" lon="8.847957942634821">
<ele>312.6</ele>
<time>2023-05-17T10:10:05Z</time>
</trkpt>
<trkpt lat="49.051909977570176" lon="8.8478899654001">
<ele>312.6</ele>
<time>2023-05-17T10:10:06Z</time>
</trkpt>
<trkpt lat="49.05194199644029" lon="8.847819976508617">
<ele>312.4</ele>
<time>2023-05-17T10:10:07Z</time>
</trkpt>
<trkpt lat="49.051969991996884" lon="8.847751999273896">
<ele>312.4</ele>
<time>2023-05-17T10:10:08Z</time>
</trkpt>
<trkpt lat="49.0519969817251" lon="8.847676981240511">
<ele>312.4</ele>
<time>2023-05-17T10:10:09Z</time>
</trkpt>
<trkpt lat="49.05202296562493" lon="8.847599951550364">
<ele>312.4</ele>
<time>2023-05-17T10:10:10Z</time>
</trkpt>
<trkpt lat="49.0520519670099" lon="8.847522921860218">
<ele>312.20000000000005</ele>
<time>2023-05-17T10:10:11Z</time>
</trkpt>
<trkpt lat="49.052079962566495" lon="8.847447987645864">
<ele>312.20000000000005</ele>
<time>2023-05-17T10:10:12Z</time>
</trkpt>
<trkpt lat="49.05210795812309" lon="8.847364922985435">
<ele>312</ele>
<time>2023-05-17T10:10:13Z</time>
</trkpt>
<trkpt lat="49.0521349478513" lon="8.847277918830514">
<ele>311.79999999999995</ele>
<time>2023-05-17T10:10:14Z</time>
</trkpt>
<trkpt lat="49.052164955064654" lon="8.847196949645877">
<ele>311.6</ele>
<time>2023-05-17T10:10:15Z</time>
</trkpt>
<trkpt lat="49.05219194479287" lon="8.847111957147717">
<ele>311.4</ele>
<time>2023-05-17T10:10:16Z</time>
</trkpt>
<trkpt lat="49.0522179286927" lon="8.847024952992797">
<ele>311.20000000000005</ele>
<time>2023-05-17T10:10:17Z</time>
</trkpt>
<trkpt lat="49.05224491842091" lon="8.846937948837876">
<ele>311</ele>
<time>2023-05-17T10:10:18Z</time>
</trkpt>
<trkpt lat="49.052271991968155" lon="8.846851950511336">
<ele>310.6</ele>
<time>2023-05-17T10:10:19Z</time>
</trkpt>
<trkpt lat="49.052296970039606" lon="8.846761928871274">
<ele>310.4</ele>
<time>2023-05-17T10:10:20Z</time>
</trkpt>
<trkpt lat="49.05232798308134" lon="8.846676936373115">
<ele>310.20000000000005</ele>
<time>2023-05-17T10:10:21Z</time>
</trkpt>
<trkpt lat="49.052362935617566" lon="8.846586998552084">
<ele>310</ele>
<time>2023-05-17T10:10:22Z</time>
</trkpt>
<trkpt lat="49.052399983629584" lon="8.846499994397163">
<ele>309.79999999999995</ele>
<time>2023-05-17T10:10:23Z</time>
</trkpt>
<trkpt lat="49.05243493616581" lon="8.846412990242243">
<ele>309.6</ele>
<time>2023-05-17T10:10:24Z</time>
</trkpt>
<trkpt lat="49.05246997252107" lon="8.846329925581813">
<ele>309.6</ele>
<time>2023-05-17T10:10:25Z</time>
</trkpt>
<trkpt lat="49.05250299721956" lon="8.84623495861888">
<ele>309.4</ele>
<time>2023-05-17T10:10:26Z</time>
</trkpt>
<trkpt lat="49.05253694392741" lon="8.846136974170804">
<ele>309.20000000000005</ele>
<time>2023-05-17T10:10:27Z</time>
</trkpt>
<trkpt lat="49.05256695114076" lon="8.846031948924065">
<ele>309</ele>
<time>2023-05-17T10:10:28Z</time>
</trkpt>
<trkpt lat="49.052594946697354" lon="8.845924995839596">
<ele>309</ele>
<time>2023-05-17T10:10:29Z</time>
</trkpt>
<trkpt lat="49.05262294225395" lon="8.845819970592856">
<ele>308.79999999999995</ele>
<time>2023-05-17T10:10:30Z</time>
</trkpt>
<trkpt lat="49.05264498665929" lon="8.84571997448802">
<ele>308.6</ele>
<time>2023-05-17T10:10:31Z</time>
</trkpt>
<trkpt lat="49.0526669472456" lon="8.845621990039945">
<ele>308.4</ele>
<time>2023-05-17T10:10:32Z</time>
</trkpt>
<trkpt lat="49.052682956680655" lon="8.845519982278347">
<ele>308.20000000000005</ele>
<time>2023-05-17T10:10:33Z</time>
</trkpt>
<trkpt lat="49.05269695445895" lon="8.845414957031608">
<ele>308</ele>
<time>2023-05-17T10:10:34Z</time>
</trkpt>
<trkpt lat="49.05270793475211" lon="8.845309931784868">
<ele>307.79999999999995</ele>
<time>2023-05-17T10:10:35Z</time>
</trkpt>
<trkpt lat="49.05271698720753" lon="8.84520691819489">
<ele>307.6</ele>
<time>2023-05-17T10:10:36Z</time>
</trkpt>
<trkpt lat="49.052726961672306" lon="8.845106922090054">
<ele>307.6</ele>
<time>2023-05-17T10:10:37Z</time>
</trkpt>
<trkpt lat="49.05272997915745" lon="8.845007931813598">
<ele>307.6</ele>
<time>2023-05-17T10:10:38Z</time>
</trkpt>
<trkpt lat="49.05273299664259" lon="8.844907935708761">
<ele>307.4</ele>
<time>2023-05-17T10:10:39Z</time>
</trkpt>
<trkpt lat="49.05273299664259" lon="8.844809951260686">
<ele>307.4</ele>
<time>2023-05-17T10:10:40Z</time>
</trkpt>
<trkpt lat="49.05273492448032" lon="8.844714984297752">
<ele>307.4</ele>
<time>2023-05-17T10:10:41Z</time>
</trkpt>
<trkpt lat="49.05273693613708" lon="8.844619933515787">
<ele>307.4</ele>
<time>2023-05-17T10:10:42Z</time>
</trkpt>
<trkpt lat="49.05273794196546" lon="8.844527984037995">
<ele>307.4</ele>
<time>2023-05-17T10:10:43Z</time>
</trkpt>
<trkpt lat="49.05273995362222" lon="8.844434944912791">
<ele>307.4</ele>
<time>2023-05-17T10:10:44Z</time>
</trkpt>
<trkpt lat="49.05273794196546" lon="8.844342995435">
<ele>307.20000000000005</ele>
<time>2023-05-17T10:10:45Z</time>
</trkpt>
<trkpt lat="49.05273693613708" lon="8.844252973794937">
<ele>307.20000000000005</ele>
<time>2023-05-17T10:10:46Z</time>
</trkpt>
<trkpt lat="49.05273995362222" lon="8.844167981296778">
<ele>307.20000000000005</ele>
<time>2023-05-17T10:10:47Z</time>
</trkpt>
<trkpt lat="49.052742971107364" lon="8.844082988798618">
<ele>307.20000000000005</ele>
<time>2023-05-17T10:10:48Z</time>
</trkpt>
<trkpt lat="49.052746994420886" lon="8.843992967158556">
<ele>307.20000000000005</ele>
<time>2023-05-17T10:10:49Z</time>
</trkpt>
<trkpt lat="49.052749928086996" lon="8.84389791637659">
<ele>307.20000000000005</ele>
<time>2023-05-17T10:10:50Z</time>
</trkpt>
<trkpt lat="49.05275294557214" lon="8.843801943585277">
<ele>307.20000000000005</ele>
<time>2023-05-17T10:10:51Z</time>
</trkpt>
<trkpt lat="49.0527549572289" lon="8.84370295330882">
<ele>307.20000000000005</ele>
<time>2023-05-17T10:10:52Z</time>
</trkpt>
<trkpt lat="49.05275696888566" lon="8.843609998002648">
<ele>307.20000000000005</ele>
<time>2023-05-17T10:10:53Z</time>
</trkpt>
<trkpt lat="49.05275696888566" lon="8.843517964705825">
<ele>307.20000000000005</ele>
<time>2023-05-17T10:10:54Z</time>
</trkpt>
<trkpt lat="49.05275294557214" lon="8.843426937237382">
<ele>307.20000000000005</ele>
<time>2023-05-17T10:10:55Z</time>
</trkpt>
<trkpt lat="49.052749928086996" lon="8.8433379214257">
<ele>307.20000000000005</ele>
<time>2023-05-17T10:10:56Z</time>
</trkpt>
<trkpt lat="49.052746994420886" lon="8.84324798360467">
<ele>307</ele>
<time>2023-05-17T10:10:57Z</time>
</trkpt>
<trkpt lat="49.052742971107364" lon="8.843157961964607">
<ele>307</ele>
<time>2023-05-17T10:10:58Z</time>
</trkpt>
<trkpt lat="49.052746994420886" lon="8.843066934496164">
<ele>307</ele>
<time>2023-05-17T10:10:59Z</time>
</trkpt>
<trkpt lat="49.052746994420886" lon="8.842976996675134">
<ele>307.20000000000005</ele>
<time>2023-05-17T10:11:00Z</time>
</trkpt>
<trkpt lat="49.052746994420886" lon="8.842886975035071">
<ele>307.20000000000005</ele>
<time>2023-05-17T10:11:01Z</time>
</trkpt>
<trkpt lat="49.052746994420886" lon="8.84279795922339">
<ele>307.20000000000005</ele>
<time>2023-05-17T10:11:02Z</time>
</trkpt>
<trkpt lat="49.052746994420886" lon="8.842707937583327">
<ele>307.20000000000005</ele>
<time>2023-05-17T10:11:03Z</time>
</trkpt>
<trkpt lat="49.052746994420886" lon="8.842619927600026">
<ele>307</ele>
<time>2023-05-17T10:11:04Z</time>
</trkpt>
<trkpt lat="49.052746994420886" lon="8.842531917616725">
<ele>307</ele>
<time>2023-05-17T10:11:05Z</time>
</trkpt>
<trkpt lat="49.052744982764125" lon="8.842441979795694">
<ele>307</ele>
<time>2023-05-17T10:11:06Z</time>
</trkpt>
<trkpt lat="49.052742971107364" lon="8.842344917356968">
<ele>306.79999999999995</ele>
<time>2023-05-17T10:11:07Z</time>
</trkpt>
<trkpt lat="49.05274196527898" lon="8.842249950394034">
<ele>306.79999999999995</ele>
<time>2023-05-17T10:11:08Z</time>
</trkpt>
<trkpt lat="49.05274196527898" lon="8.84215297177434">
<ele>306.6</ele>
<time>2023-05-17T10:11:09Z</time>
</trkpt>
<trkpt lat="49.05273995362222" lon="8.842054987326264">
<ele>306.4</ele>
<time>2023-05-17T10:11:10Z</time>
</trkpt>
<trkpt lat="49.05273995362222" lon="8.841952979564667">
<ele>306.4</ele>
<time>2023-05-17T10:11:11Z</time>
</trkpt>
<trkpt lat="49.05274196527898" lon="8.841844936832786">
<ele>306.20000000000005</ele>
<time>2023-05-17T10:11:12Z</time>
</trkpt>
<trkpt lat="49.05274196527898" lon="8.841736977919936">
<ele>306</ele>
<time>2023-05-17T10:11:13Z</time>
</trkpt>
<trkpt lat="49.052742971107364" lon="8.841619966551661">
<ele>305.79999999999995</ele>
<time>2023-05-17T10:11:14Z</time>
</trkpt>
<trkpt lat="49.052742971107364" lon="8.841502955183387">
<ele>305.4</ele>
<time>2023-05-17T10:11:15Z</time>
</trkpt>
<trkpt lat="49.052746994420886" lon="8.84138292632997">
<ele>305.20000000000005</ele>
<time>2023-05-17T10:11:16Z</time>
</trkpt>
<trkpt lat="49.052749928086996" lon="8.841259963810444">
<ele>304.79999999999995</ele>
<time>2023-05-17T10:11:17Z</time>
</trkpt>
<trkpt lat="49.05275193974376" lon="8.841136917471886">
<ele>304.6</ele>
<time>2023-05-17T10:11:18Z</time>
</trkpt>
<trkpt lat="49.0527549572289" lon="8.841012949123979">
<ele>304.20000000000005</ele>
<time>2023-05-17T10:11:19Z</time>
</trkpt>
<trkpt lat="49.0527599863708" lon="8.84088696911931">
<ele>303.79999999999995</ele>
<time>2023-05-17T10:11:20Z</time>
</trkpt>
<trkpt lat="49.052766943350434" lon="8.8407579716295">
<ele>303.4</ele>
<time>2023-05-17T10:11:21Z</time>
</trkpt>
<trkpt lat="49.05277993530035" lon="8.840629979968071">
<ele>303</ele>
<time>2023-05-17T10:11:22Z</time>
</trkpt>
<trkpt lat="49.05279695056379" lon="8.84049796499312">
<ele>302.6</ele>
<time>2023-05-17T10:11:23Z</time>
</trkpt>
<trkpt lat="49.05281798914075" lon="8.840366955846548">
<ele>302</ele>
<time>2023-05-17T10:11:24Z</time>
</trkpt>
<trkpt lat="49.0528379380703" lon="8.8402399700135">
<ele>301.4</ele>
<time>2023-05-17T10:11:25Z</time>
</trkpt>
<trkpt lat="49.05286693945527" lon="8.840109966695309">
<ele>300.79999999999995</ele>
<time>2023-05-17T10:11:26Z</time>
</trkpt>
<trkpt lat="49.052894935011864" lon="8.839974934235215">
<ele>300.20000000000005</ele>
<time>2023-05-17T10:11:27Z</time>
</trkpt>
<trkpt lat="49.05293692834675" lon="8.83985691703856">
<ele>299.4</ele>
<time>2023-05-17T10:11:28Z</time>
</trkpt>
<trkpt lat="49.05297196470201" lon="8.83972791954875">
<ele>298.79999999999995</ele>
<time>2023-05-17T10:11:29Z</time>
</trkpt>
<trkpt lat="49.05301496386528" lon="8.839602945372462">
<ele>298</ele>
<time>2023-05-17T10:11:30Z</time>
</trkpt>
<trkpt lat="49.053069949150085" lon="8.839476965367794">
<ele>297.20000000000005</ele>
<time>2023-05-17T10:11:31Z</time>
</trkpt>
<trkpt lat="49.05314194969833" lon="8.839349979534745">
<ele>296.20000000000005</ele>
<time>2023-05-17T10:11:32Z</time>
</trkpt>
<trkpt lat="49.05323498882353" lon="8.839256940409541">
<ele>295.4</ele>
<time>2023-05-17T10:11:33Z</time>
</trkpt>
<trkpt lat="49.05330799520016" lon="8.839157950133085">
<ele>294.4</ele>
<time>2023-05-17T10:11:34Z</time>
</trkpt>
<trkpt lat="49.0533749666065" lon="8.83907999843359">
<ele>293.4</ele>
<time>2023-05-17T10:11:35Z</time>
</trkpt>
<trkpt lat="49.05344998463988" lon="8.839042950421572">
<ele>292.4</ele>
<time>2023-05-17T10:11:36Z</time>
</trkpt>
<trkpt lat="49.053536988794804" lon="8.839012943208218">
<ele>291.4</ele>
<time>2023-05-17T10:11:37Z</time>
</trkpt>
<trkpt lat="49.05361695215106" lon="8.838979918509722">
<ele>290.6</ele>
<time>2023-05-17T10:11:38Z</time>
</trkpt>
<trkpt lat="49.05369993299246" lon="8.838969944044948">
<ele>289.6</ele>
<time>2023-05-17T10:11:39Z</time>
</trkpt>
<trkpt lat="49.05379196628928" lon="8.838971955701709">
<ele>288.79999999999995</ele>
<time>2023-05-17T10:11:40Z</time>
</trkpt>
<trkpt lat="49.053882993757725" lon="8.838982935994864">
<ele>287.79999999999995</ele>
<time>2023-05-17T10:11:41Z</time>
</trkpt>
<trkpt lat="49.053971925750375" lon="8.838979918509722">
<ele>287</ele>
<time>2023-05-17T10:11:42Z</time>
</trkpt>
<trkpt lat="49.054057924076915" lon="8.83899693377316">
<ele>286.20000000000005</ele>
<time>2023-05-17T10:11:43Z</time>
</trkpt>
<trkpt lat="49.05413696542382" lon="8.839004980400205">
<ele>285.4</ele>
<time>2023-05-17T10:11:44Z</time>
</trkpt>
<trkpt lat="49.05422195792198" lon="8.839011937379837">
<ele>284.6</ele>
<time>2023-05-17T10:11:45Z</time>
</trkpt>
<trkpt lat="49.05430292710662" lon="8.839006992056966">
<ele>283.79999999999995</ele>
<time>2023-05-17T10:11:46Z</time>
</trkpt>
<trkpt lat="49.05438498593867" lon="8.83899299427867">
<ele>283.20000000000005</ele>
<time>2023-05-17T10:11:47Z</time>
</trkpt>
<trkpt lat="49.05444793403149" lon="8.838961981236935">
<ele>282.4</ele>
<time>2023-05-17T10:11:48Z</time>
</trkpt>
<trkpt lat="49.05452295206487" lon="8.838896937668324">
<ele>281.6</ele>
<time>2023-05-17T10:11:49Z</time>
</trkpt>
<trkpt lat="49.054591935127974" lon="8.838804988190532">
<ele>280.79999999999995</ele>
<time>2023-05-17T10:11:50Z</time>
</trkpt>
<trkpt lat="49.05465295538306" lon="8.838676996529102">
<ele>280</ele>
<time>2023-05-17T10:11:51Z</time>
</trkpt>
<trkpt lat="49.05470995232463" lon="8.838559985160828">
<ele>279.20000000000005</ele>
<time>2023-05-17T10:11:52Z</time>
</trkpt>
<trkpt lat="49.05475697480142" lon="8.838427970185876">
<ele>278.4</ele>
<time>2023-05-17T10:11:53Z</time>
</trkpt>
<trkpt lat="49.05480299144983" lon="8.838297966867685">
<ele>277.6</ele>
<time>2023-05-17T10:11:54Z</time>
</trkpt>
<trkpt lat="49.05484993010759" lon="8.83817994967103">
<ele>276.79999999999995</ele>
<time>2023-05-17T10:11:55Z</time>
</trkpt>
<trkpt lat="49.054894940927625" lon="8.838052963837981">
<ele>276</ele>
<time>2023-05-17T10:11:56Z</time>
</trkpt>
<trkpt lat="49.054936934262514" lon="8.837934946641326">
<ele>275.4</ele>
<time>2023-05-17T10:11:57Z</time>
</trkpt>
<trkpt lat="49.054982950910926" lon="8.83781692944467">
<ele>274.6</ele>
<time>2023-05-17T10:11:58Z</time>
</trkpt>
<trkpt lat="49.055019998922944" lon="8.837704947218299">
<ele>274</ele>
<time>2023-05-17T10:11:59Z</time>
</trkpt>
<trkpt lat="49.05505998060107" lon="8.837586930021644">
<ele>273.4</ele>
<time>2023-05-17T10:12:00Z</time>
</trkpt>
<trkpt lat="49.05510691925883" lon="8.837466984987259">
<ele>272.6</ele>
<time>2023-05-17T10:12:01Z</time>
</trkpt>
<trkpt lat="49.055152935907245" lon="8.837337987497449">
<ele>272</ele>
<time>2023-05-17T10:12:02Z</time>
</trkpt>
<trkpt lat="49.055197946727276" lon="8.837207984179258">
<ele>271.6</ele>
<time>2023-05-17T10:12:03Z</time>
</trkpt>
<trkpt lat="49.05524295754731" lon="8.837074963375926">
<ele>271</ele>
<time>2023-05-17T10:12:04Z</time>
</trkpt>
<trkpt lat="49.055282939225435" lon="8.83695493452251">
<ele>270.6</ele>
<time>2023-05-17T10:12:05Z</time>
</trkpt>
<trkpt lat="49.055327950045466" lon="8.836834989488125">
<ele>270.20000000000005</ele>
<time>2023-05-17T10:12:06Z</time>
</trkpt>
<trkpt lat="49.055366925895214" lon="8.836714960634708">
<ele>269.79999999999995</ele>
<time>2023-05-17T10:12:07Z</time>
</trkpt>
<trkpt lat="49.05540296807885" lon="8.836597949266434">
<ele>269.4</ele>
<time>2023-05-17T10:12:08Z</time>
</trkpt>
<trkpt lat="49.05543792061508" lon="8.836484961211681">
<ele>269.20000000000005</ele>
<time>2023-05-17T10:12:09Z</time>
</trkpt>
<trkpt lat="49.05546792782843" lon="8.836369961500168">
<ele>268.79999999999995</ele>
<time>2023-05-17T10:12:10Z</time>
</trkpt>
<trkpt lat="49.05549198389053" lon="8.836252950131893">
<ele>268.4</ele>
<time>2023-05-17T10:12:11Z</time>
</trkpt>
<trkpt lat="49.05550992116332" lon="8.836141973733902">
<ele>268</ele>
<time>2023-05-17T10:12:12Z</time>
</trkpt>
<trkpt lat="49.05552492477" lon="8.836022950708866">
<ele>267.6</ele>
<time>2023-05-17T10:12:13Z</time>
</trkpt>
<trkpt lat="49.0555349830538" lon="8.835892947390676">
<ele>267.20000000000005</ele>
<time>2023-05-17T10:12:14Z</time>
</trkpt>
<trkpt lat="49.0555349830538" lon="8.83575296960771">
<ele>266.79999999999995</ele>
<time>2023-05-17T10:12:15Z</time>
</trkpt>
<trkpt lat="49.0555299539119" lon="8.835611985996366">
<ele>266.4</ele>
<time>2023-05-17T10:12:16Z</time>
</trkpt>
<trkpt lat="49.05551495030522" lon="8.835444934666157">
<ele>265.79999999999995</ele>
<time>2023-05-17T10:12:17Z</time>
</trkpt>
<trkpt lat="49.05548796057701" lon="8.835292970761657">
<ele>265.4</ele>
<time>2023-05-17T10:12:18Z</time>
</trkpt>
<trkpt lat="49.055456947535276" lon="8.835136983543634">
<ele>264.79999999999995</ele>
<time>2023-05-17T10:12:19Z</time>
</trkpt>
<trkpt lat="49.0554229170084" lon="8.834986947476864">
<ele>264.20000000000005</ele>
<time>2023-05-17T10:12:20Z</time>
</trkpt>
<trkpt lat="49.055386958643794" lon="8.834809921681881">
<ele>263.4</ele>
<time>2023-05-17T10:12:21Z</time>
</trkpt>
<trkpt lat="49.05534999445081" lon="8.834659969434142">
<ele>262.6</ele>
<time>2023-05-17T10:12:22Z</time>
</trkpt>
<trkpt lat="49.05531194061041" lon="8.834486966952682">
<ele>261.6</ele>
<time>2023-05-17T10:12:23Z</time>
</trkpt>
<trkpt lat="49.05525494366884" lon="8.834336930885911">
<ele>260.79999999999995</ele>
<time>2023-05-17T10:12:24Z</time>
</trkpt>
<trkpt lat="49.055214961990714" lon="8.834179937839508">
<ele>259.79999999999995</ele>
<time>2023-05-17T10:12:25Z</time>
</trkpt>
<trkpt lat="49.05517799779773" lon="8.834022944793105">
<ele>259</ele>
<time>2023-05-17T10:12:26Z</time>
</trkpt>
<trkpt lat="49.05514698475599" lon="8.83386192843318">
<ele>258</ele>
<time>2023-05-17T10:12:27Z</time>
</trkpt>
<trkpt lat="49.05511697754264" lon="8.833704935386777">
<ele>257.20000000000005</ele>
<time>2023-05-17T10:12:28Z</time>
</trkpt>
<trkpt lat="49.055086970329285" lon="8.833552971482277">
<ele>256.20000000000005</ele>
<time>2023-05-17T10:12:29Z</time>
</trkpt>
<trkpt lat="49.05505696311593" lon="8.833401929587126">
<ele>255</ele>
<time>2023-05-17T10:12:30Z</time>
</trkpt>
<trkpt lat="49.055026955902576" lon="8.833251977339387">
<ele>254.20000000000005</ele>
<time>2023-05-17T10:12:31Z</time>
</trkpt>
<trkpt lat="49.05499191954732" lon="8.833101941272616">
<ele>253.20000000000005</ele>
<time>2023-05-17T10:12:32Z</time>
</trkpt>
<trkpt lat="49.054961996153" lon="8.83295794017613">
<ele>252.39999999999998</ele>
<time>2023-05-17T10:12:33Z</time>
</trkpt>
<trkpt lat="49.05492796562612" lon="8.832812933251262">
<ele>251.39999999999998</ele>
<time>2023-05-17T10:12:34Z</time>
</trkpt>
<trkpt lat="49.054896952584386" lon="8.832662981003523">
<ele>250.60000000000002</ele>
<time>2023-05-17T10:12:35Z</time>
</trkpt>
<trkpt lat="49.05486493371427" lon="8.832512944936752">
<ele>249.79999999999995</ele>
<time>2023-05-17T10:12:36Z</time>
</trkpt>
<trkpt lat="49.054829981178045" lon="8.832361986860633">
<ele>249</ele>
<time>2023-05-17T10:12:37Z</time>
</trkpt>
<trkpt lat="49.054784970358014" lon="8.832194935530424">
<ele>248.20000000000005</ele>
<time>2023-05-17T10:12:38Z</time>
</trkpt>
<trkpt lat="49.054764937609434" lon="8.832024950534105">
<ele>247.39999999999998</ele>
<time>2023-05-17T10:12:39Z</time>
</trkpt>
<trkpt lat="49.05473291873932" lon="8.831854965537786">
<ele>246.39999999999998</ele>
<time>2023-05-17T10:12:40Z</time>
</trkpt>
<trkpt lat="49.054699977859855" lon="8.83168799802661">
<ele>245.60000000000002</ele>
<time>2023-05-17T10:12:41Z</time>
</trkpt>
<trkpt lat="49.05466292984784" lon="8.831521952524781">
<ele>244.79999999999995</ele>
<time>2023-05-17T10:12:42Z</time>
</trkpt>
<trkpt lat="49.05462797731161" lon="8.831374933943152">
<ele>243.79999999999995</ele>
<time>2023-05-17T10:12:43Z</time>
</trkpt>
<trkpt lat="49.05459998175502" lon="8.831216935068369">
<ele>243</ele>
<time>2023-05-17T10:12:44Z</time>
</trkpt>
<trkpt lat="49.054572992026806" lon="8.831039993092418">
<ele>242</ele>
<time>2023-05-17T10:12:45Z</time>
</trkpt>
<trkpt lat="49.054531920701265" lon="8.830869924277067">
<ele>241.20000000000005</ele>
<time>2023-05-17T10:12:46Z</time>
</trkpt>
<trkpt lat="49.05449193902314" lon="8.830706980079412">
<ele>240.20000000000005</ele>
<time>2023-05-17T10:12:47Z</time>
</trkpt>
<trkpt lat="49.05445698648691" lon="8.830546969547868">
<ele>239.39999999999998</ele>
<time>2023-05-17T10:12:48Z</time>
</trkpt>
<trkpt lat="49.05443192459643" lon="8.830389976501465">
<ele>238.60000000000002</ele>
<time>2023-05-17T10:12:49Z</time>
</trkpt>
<trkpt lat="49.05441298149526" lon="8.830231977626681">
<ele>237.60000000000002</ele>
<time>2023-05-17T10:12:50Z</time>
</trkpt>
<trkpt lat="49.05439496040344" lon="8.830074984580278">
<ele>236.79999999999995</ele>
<time>2023-05-17T10:12:51Z</time>
</trkpt>
<trkpt lat="49.05437492765486" lon="8.82992796599865">
<ele>236</ele>
<time>2023-05-17T10:12:52Z</time>
</trkpt>
<trkpt lat="49.054356990382075" lon="8.829782959073782">
<ele>235.39999999999998</ele>
<time>2023-05-17T10:12:53Z</time>
</trkpt>
<trkpt lat="49.05434299260378" lon="8.829639963805676">
<ele>234.79999999999995</ele>
<time>2023-05-17T10:12:54Z</time>
</trkpt>
<trkpt lat="49.05432698316872" lon="8.829482970759273">
<ele>234.20000000000005</ele>
<time>2023-05-17T10:12:55Z</time>
</trkpt>
<trkpt lat="49.05430996790528" lon="8.829342992976308">
<ele>233.60000000000002</ele>
<time>2023-05-17T10:12:56Z</time>
</trkpt>
<trkpt lat="49.05430192127824" lon="8.829212989658117">
<ele>233.20000000000005</ele>
<time>2023-05-17T10:12:57Z</time>
</trkpt>
<trkpt lat="49.054291946813464" lon="8.82907192222774">
<ele>232.79999999999995</ele>
<time>2023-05-17T10:12:58Z</time>
</trkpt>
<trkpt lat="49.054271997883916" lon="8.828936973586679">
<ele>232.39999999999998</ele>
<time>2023-05-17T10:12:59Z</time>
</trkpt>
<trkpt lat="49.05425992794335" lon="8.828799929469824">
<ele>232</ele>
<time>2023-05-17T10:13:00Z</time>
</trkpt>
<trkpt lat="49.05424492433667" lon="8.828647965565324">
<ele>231.60000000000002</ele>
<time>2023-05-17T10:13:01Z</time>
</trkpt>
<trkpt lat="49.05422296375036" lon="8.82851293310523">
<ele>231.20000000000005</ele>
<time>2023-05-17T10:13:02Z</time>
</trkpt>
<trkpt lat="49.05421491712332" lon="8.828367926180363">
<ele>230.79999999999995</ele>
<time>2023-05-17T10:13:03Z</time>
</trkpt>
<trkpt lat="49.05419697985053" lon="8.828212944790721">
<ele>230.39999999999998</ele>
<time>2023-05-17T10:13:04Z</time>
</trkpt>
<trkpt lat="49.054181976243854" lon="8.828071961179376">
<ele>229.79999999999995</ele>
<time>2023-05-17T10:13:05Z</time>
</trkpt>
<trkpt lat="49.054164960980415" lon="8.827916979789734">
<ele>229.39999999999998</ele>
<time>2023-05-17T10:13:06Z</time>
</trkpt>
<trkpt lat="49.0541469398886" lon="8.827782953158021">
<ele>229</ele>
<time>2023-05-17T10:13:07Z</time>
</trkpt>
<trkpt lat="49.05412497930229" lon="8.82762797176838">
<ele>228.60000000000002</ele>
<time>2023-05-17T10:13:08Z</time>
</trkpt>
<trkpt lat="49.05410695821047" lon="8.827477935701609">
<ele>228</ele>
<time>2023-05-17T10:13:09Z</time>
</trkpt>
<trkpt lat="49.054096983745694" lon="8.827329995110631">
<ele>227.39999999999998</ele>
<time>2023-05-17T10:13:10Z</time>
</trkpt>
<trkpt lat="49.05408692546189" lon="8.827194962650537">
<ele>227</ele>
<time>2023-05-17T10:13:11Z</time>
</trkpt>
<trkpt lat="49.05407292768359" lon="8.827041992917657">
<ele>226.39999999999998</ele>
<time>2023-05-17T10:13:12Z</time>
</trkpt>
<trkpt lat="49.054054990410805" lon="8.826884999871254">
<ele>225.79999999999995</ele>
<time>2023-05-17T10:13:13Z</time>
</trkpt>
<trkpt lat="49.05404794961214" lon="8.826737981289625">
<ele>225.39999999999998</ele>
<time>2023-05-17T10:13:14Z</time>
</trkpt>
<trkpt lat="49.054034957662225" lon="8.826592974364758">
<ele>224.79999999999995</ele>
<time>2023-05-17T10:13:15Z</time>
</trkpt>
<trkpt lat="49.05402791686356" lon="8.826451990753412">
<ele>224.39999999999998</ele>
<time>2023-05-17T10:13:16Z</time>
</trkpt>
<trkpt lat="49.054014924913645" lon="8.826302960515022">
<ele>224</ele>
<time>2023-05-17T10:13:17Z</time>
</trkpt>
<trkpt lat="49.05399992130697" lon="8.826159965246916">
<ele>223.39999999999998</ele>
<time>2023-05-17T10:13:18Z</time>
</trkpt>
<trkpt lat="49.05398491770029" lon="8.826011940836906">
<ele>223</ele>
<time>2023-05-17T10:13:19Z</time>
</trkpt>
<trkpt lat="49.053967986255884" lon="8.825861988589168">
<ele>222.39999999999998</ele>
<time>2023-05-17T10:13:20Z</time>
</trkpt>
<trkpt lat="49.0539569221437" lon="8.825712958350778">
<ele>221.79999999999995</ele>
<time>2023-05-17T10:13:21Z</time>
</trkpt>
<trkpt lat="49.053946947678924" lon="8.82556694559753">
<ele>221.20000000000005</ele>
<time>2023-05-17T10:13:22Z</time>
</trkpt>
<trkpt lat="49.05394191853702" lon="8.825417999178171">
<ele>220.79999999999995</ele>
<time>2023-05-17T10:13:23Z</time>
</trkpt>
<trkpt lat="49.05394191853702" lon="8.825264945626259">
<ele>220.20000000000005</ele>
<time>2023-05-17T10:13:24Z</time>
</trkpt>
<trkpt lat="49.05394191853702" lon="8.82511692121625">
<ele>219.79999999999995</ele>
<time>2023-05-17T10:13:25Z</time>
</trkpt>
<trkpt lat="49.05394191853702" lon="8.824976943433285">
<ele>219.39999999999998</ele>
<time>2023-05-17T10:13:26Z</time>
</trkpt>
<trkpt lat="49.053949965164065" lon="8.8248379714787">
<ele>219</ele>
<time>2023-05-17T10:13:27Z</time>
</trkpt>
<trkpt lat="49.05396295711398" lon="8.824701933190227">
<ele>218.60000000000002</ele>
<time>2023-05-17T10:13:28Z</time>
</trkpt>
<trkpt lat="49.05398692935705" lon="8.824566984549165">
<ele>218.20000000000005</ele>
<time>2023-05-17T10:13:29Z</time>
</trkpt>
<trkpt lat="49.05400193296373" lon="8.824419965967536">
<ele>217.79999999999995</ele>
<time>2023-05-17T10:13:30Z</time>
</trkpt>
<trkpt lat="49.05402791686356" lon="8.824294991791248">
<ele>217.60000000000002</ele>
<time>2023-05-17T10:13:31Z</time>
</trkpt>
<trkpt lat="49.054052978754044" lon="8.824169933795929">
<ele>217.39999999999998</ele>
<time>2023-05-17T10:13:32Z</time>
</trkpt>
<trkpt lat="49.054079968482256" lon="8.824047977104783">
<ele>217.20000000000005</ele>
<time>2023-05-17T10:13:33Z</time>
</trkpt>
<trkpt lat="49.05410494655371" lon="8.823921997100115">
<ele>217</ele>
<time>2023-05-17T10:13:34Z</time>
</trkpt>
<trkpt lat="49.05412992462516" lon="8.82380498573184">
<ele>216.60000000000002</ele>
<time>2023-05-17T10:13:35Z</time>
</trkpt>
<trkpt lat="49.05415792018175" lon="8.823689986020327">
<ele>216.39999999999998</ele>
<time>2023-05-17T10:13:36Z</time>
</trkpt>
<trkpt lat="49.054182982072234" lon="8.823566939681768">
<ele>216.39999999999998</ele>
<time>2023-05-17T10:13:37Z</time>
</trkpt>
<trkpt lat="49.054207960143685" lon="8.823446994647384">
<ele>216.20000000000005</ele>
<time>2023-05-17T10:13:38Z</time>
</trkpt>
<trkpt lat="49.05423293821514" lon="8.823326965793967">
<ele>216</ele>
<time>2023-05-17T10:13:39Z</time>
</trkpt>
<trkpt lat="49.05426193960011" lon="8.82320693694055">
<ele>215.79999999999995</ele>
<time>2023-05-17T10:13:40Z</time>
</trkpt>
<trkpt lat="49.05428792349994" lon="8.823091937229037">
<ele>215.60000000000002</ele>
<time>2023-05-17T10:13:41Z</time>
</trkpt>
<trkpt lat="49.054314997047186" lon="8.822974925860763">
<ele>215.60000000000002</ele>
<time>2023-05-17T10:13:42Z</time>
</trkpt>
<trkpt lat="49.0543419867754" lon="8.82285799831152">
<ele>215.39999999999998</ele>
<time>2023-05-17T10:13:43Z</time>
</trkpt>
<trkpt lat="49.05436797067523" lon="8.8227519672364">
<ele>215.20000000000005</ele>
<time>2023-05-17T10:13:44Z</time>
</trkpt>
<trkpt lat="49.05439294874668" lon="8.822639985010028">
<ele>215</ele>
<time>2023-05-17T10:13:45Z</time>
</trkpt>
<trkpt lat="49.054419938474894" lon="8.822532948106527">
<ele>214.79999999999995</ele>
<time>2023-05-17T10:13:46Z</time>
</trkpt>
<trkpt lat="49.054446928203106" lon="8.822426917031407">
<ele>214.60000000000002</ele>
<time>2023-05-17T10:13:47Z</time>
</trkpt>
<trkpt lat="49.05446796678007" lon="8.82232298143208">
<ele>214.60000000000002</ele>
<time>2023-05-17T10:13:48Z</time>
</trkpt>
<trkpt lat="49.05449193902314" lon="8.82221795618534">
<ele>214.39999999999998</ele>
<time>2023-05-17T10:13:49Z</time>
</trkpt>
<trkpt lat="49.05451993457973" lon="8.822112930938601">
<ele>214.20000000000005</ele>
<time>2023-05-17T10:13:50Z</time>
</trkpt>
<trkpt lat="49.054551953449845" lon="8.822009917348623">
<ele>214</ele>
<time>2023-05-17T10:13:51Z</time>
</trkpt>
<trkpt lat="49.0545819606632" lon="8.821907993406057">
<ele>213.79999999999995</ele>
<time>2023-05-17T10:13:52Z</time>
</trkpt>
<trkpt lat="49.05460995621979" lon="8.821799950674176">
<ele>213.60000000000002</ele>
<time>2023-05-17T10:13:53Z</time>
</trkpt>
<trkpt lat="49.054636945948005" lon="8.821687968447804">
<ele>213.39999999999998</ele>
<time>2023-05-17T10:13:54Z</time>
</trkpt>
<trkpt lat="49.0546649415046" lon="8.821562994271517">
<ele>213.20000000000005</ele>
<time>2023-05-17T10:13:55Z</time>
</trkpt>
<trkpt lat="49.05469796620309" lon="8.821439947932959">
<ele>213</ele>
<time>2023-05-17T10:13:56Z</time>
</trkpt>
<trkpt lat="49.054722944274545" lon="8.821324948221445">
<ele>213</ele>
<time>2023-05-17T10:13:57Z</time>
</trkpt>
<trkpt lat="49.054747922345996" lon="8.821211960166693">
<ele>212.79999999999995</ele>
<time>2023-05-17T10:13:58Z</time>
</trkpt>
<trkpt lat="49.0547719784081" lon="8.821091931313276">
<ele>212.60000000000002</ele>
<time>2023-05-17T10:13:59Z</time>
</trkpt>
<trkpt lat="49.05479997396469" lon="8.820961927995086">
<ele>212.39999999999998</ele>
<time>2023-05-17T10:14:00Z</time>
</trkpt>
<trkpt lat="49.05481799505651" lon="8.820824967697263">
<ele>212.39999999999998</ele>
<time>2023-05-17T10:14:01Z</time>
</trkpt>
<trkpt lat="49.05484297312796" lon="8.820697981864214">
<ele>212.20000000000005</ele>
<time>2023-05-17T10:14:02Z</time>
</trkpt>
<trkpt lat="49.05486493371427" lon="8.820576947182417">
<ele>212</ele>
<time>2023-05-17T10:14:03Z</time>
</trkpt>
<trkpt lat="49.05488798394799" lon="8.820461947470903">
<ele>212</ele>
<time>2023-05-17T10:14:04Z</time>
</trkpt>
<trkpt lat="49.054916985332966" lon="8.82034795358777">
<ele>211.79999999999995</ele>
<time>2023-05-17T10:14:05Z</time>
</trkpt>
<trkpt lat="49.05494196340442" lon="8.820242928341031">
<ele>211.79999999999995</ele>
<time>2023-05-17T10:14:06Z</time>
</trkpt>
<trkpt lat="49.05496794730425" lon="8.820137986913323">
<ele>211.60000000000002</ele>
<time>2023-05-17T10:14:07Z</time>
</trkpt>
<trkpt lat="49.0549979545176" lon="8.820034973323345">
<ele>211.60000000000002</ele>
<time>2023-05-17T10:14:08Z</time>
</trkpt>
<trkpt lat="49.055019998922944" lon="8.819929948076606">
<ele>211.39999999999998</ele>
<time>2023-05-17T10:14:09Z</time>
</trkpt>
<trkpt lat="49.05504992231727" lon="8.819819977506995">
<ele>211.20000000000005</ele>
<time>2023-05-17T10:14:10Z</time>
</trkpt>
<trkpt lat="49.05508294701576" lon="8.819716963917017">
<ele>211.20000000000005</ele>
<time>2023-05-17T10:14:11Z</time>
</trkpt>
<trkpt lat="49.055109936743975" lon="8.81959492340684">
<ele>211.20000000000005</ele>
<time>2023-05-17T10:14:12Z</time>
</trkpt>
<trkpt lat="49.05513692647219" lon="8.819482941180468">
<ele>211</ele>
<time>2023-05-17T10:14:13Z</time>
</trkpt>
<trkpt lat="49.05516198836267" lon="8.819369953125715">
<ele>211</ele>
<time>2023-05-17T10:14:14Z</time>
</trkpt>
<trkpt lat="49.055191995576024" lon="8.819259982556105">
<ele>210.79999999999995</ele>
<time>2023-05-17T10:14:15Z</time>
</trkpt>
<trkpt lat="49.05522191897035" lon="8.819156968966126">
<ele>210.79999999999995</ele>
<time>2023-05-17T10:14:16Z</time>
</trkpt>
<trkpt lat="49.05525494366884" lon="8.81905797868967">
<ele>210.60000000000002</ele>
<time>2023-05-17T10:14:17Z</time>
</trkpt>
<trkpt lat="49.0552899800241" lon="8.818966951221228">
<ele>210.60000000000002</ele>
<time>2023-05-17T10:14:18Z</time>
</trkpt>
<trkpt lat="49.055326944217086" lon="8.818872990086675">
<ele>210.39999999999998</ele>
<time>2023-05-17T10:14:19Z</time>
</trkpt>
<trkpt lat="49.055364998057485" lon="8.818786991760135">
<ele>210.39999999999998</ele>
<time>2023-05-17T10:14:20Z</time>
</trkpt>
<trkpt lat="49.05540196225047" lon="8.818694958463311">
<ele>210.20000000000005</ele>
<time>2023-05-17T10:14:21Z</time>
</trkpt>
<trkpt lat="49.05544496141374" lon="8.81860795430839">
<ele>210.20000000000005</ele>
<time>2023-05-17T10:14:22Z</time>
</trkpt>
<trkpt lat="49.055492989718914" lon="8.818527990952134">
<ele>210</ele>
<time>2023-05-17T10:14:23Z</time>
</trkpt>
<trkpt lat="49.055536994710565" lon="8.818446937948465">
<ele>210</ele>
<time>2023-05-17T10:14:24Z</time>
</trkpt>
<trkpt lat="49.055579993873835" lon="8.81836798042059">
<ele>210</ele>
<time>2023-05-17T10:14:25Z</time>
</trkpt>
<trkpt lat="49.05561997555196" lon="8.818289944902062">
<ele>210</ele>
<time>2023-05-17T10:14:26Z</time>
</trkpt>
<trkpt lat="49.05566297471523" lon="8.818216938525438">
<ele>210</ele>
<time>2023-05-17T10:14:27Z</time>
</trkpt>
<trkpt lat="49.05570295639336" lon="8.818142926320434">
<ele>210</ele>
<time>2023-05-17T10:14:28Z</time>
</trkpt>
<trkpt lat="49.05574193224311" lon="8.818077966570854">
<ele>210.20000000000005</ele>
<time>2023-05-17T10:14:29Z</time>
</trkpt>
<trkpt lat="49.055776968598366" lon="8.818014934659004">
<ele>210.20000000000005</ele>
<time>2023-05-17T10:14:30Z</time>
</trkpt>
<trkpt lat="49.05581493861973" lon="8.817947963252664">
<ele>210.39999999999998</ele>
<time>2023-05-17T10:14:31Z</time>
</trkpt>
<trkpt lat="49.05584997497499" lon="8.817887948825955">
<ele>210.39999999999998</ele>
<time>2023-05-17T10:14:32Z</time>
</trkpt>
<trkpt lat="49.05588794499636" lon="8.817826928570867">
<ele>210.60000000000002</ele>
<time>2023-05-17T10:14:33Z</time>
</trkpt>
<trkpt lat="49.055926920846105" lon="8.817764986306429">
<ele>210.60000000000002</ele>
<time>2023-05-17T10:14:34Z</time>
</trkpt>
<trkpt lat="49.055966986343265" lon="8.817701954394579">
<ele>210.79999999999995</ele>
<time>2023-05-17T10:14:35Z</time>
</trkpt>
<trkpt lat="49.05600495636463" lon="8.817632971331477">
<ele>210.79999999999995</ele>
<time>2023-05-17T10:14:36Z</time>
</trkpt>
<trkpt lat="49.05604493804276" lon="8.817572956904769">
<ele>211</ele>
<time>2023-05-17T10:14:37Z</time>
</trkpt>
<trkpt lat="49.05608299188316" lon="8.81751294247806">
<ele>211.20000000000005</ele>
<time>2023-05-17T10:14:38Z</time>
</trkpt>
<trkpt lat="49.056121967732906" lon="8.817452928051353">
<ele>211.39999999999998</ele>
<time>2023-05-17T10:14:39Z</time>
</trkpt>
<trkpt lat="49.056161949411035" lon="8.817391991615295">
<ele>211.39999999999998</ele>
<time>2023-05-17T10:14:40Z</time>
</trkpt>
<trkpt lat="49.05619698576629" lon="8.817334994673729">
<ele>211.60000000000002</ele>
<time>2023-05-17T10:14:41Z</time>
</trkpt>
<trkpt lat="49.05623193830252" lon="8.817281937226653">
<ele>211.79999999999995</ele>
<time>2023-05-17T10:14:42Z</time>
</trkpt>
<trkpt lat="49.056266974657774" lon="8.817227957770228">
<ele>212</ele>
<time>2023-05-17T10:14:43Z</time>
</trkpt>
<trkpt lat="49.056301927194" lon="8.817172972485423">
<ele>212.20000000000005</ele>
<time>2023-05-17T10:14:44Z</time>
</trkpt>
<trkpt lat="49.056336963549256" lon="8.817121926695108">
<ele>212.39999999999998</ele>
<time>2023-05-17T10:14:45Z</time>
</trkpt>
<trkpt lat="49.05637199990451" lon="8.81706291809678">
<ele>212.60000000000002</ele>
<time>2023-05-17T10:14:46Z</time>
</trkpt>
<trkpt lat="49.05640494078398" lon="8.817011956125498">
<ele>212.79999999999995</ele>
<time>2023-05-17T10:14:47Z</time>
</trkpt>
<trkpt lat="49.05643796548247" lon="8.816961999982595">
<ele>212.79999999999995</ele>
<time>2023-05-17T10:14:48Z</time>
</trkpt>
<trkpt lat="49.05647492967546" lon="8.816907936707139">
<ele>213</ele>
<time>2023-05-17T10:14:49Z</time>
</trkpt>
<trkpt lat="49.05651298351586" lon="8.816851945593953">
<ele>213.20000000000005</ele>
<time>2023-05-17T10:14:50Z</time>
</trkpt>
<trkpt lat="49.056549947708845" lon="8.816802995279431">
<ele>213.39999999999998</ele>
<time>2023-05-17T10:14:51Z</time>
</trkpt>
<trkpt lat="49.05658699572086" lon="8.816747926175594">
<ele>213.60000000000002</ele>
<time>2023-05-17T10:14:52Z</time>
</trkpt>
<trkpt lat="49.05662295408547" lon="8.81669495254755">
<ele>213.79999999999995</ele>
<time>2023-05-17T10:14:53Z</time>
</trkpt>
<trkpt lat="49.056659918278456" lon="8.816639967262745">
<ele>213.79999999999995</ele>
<time>2023-05-17T10:14:54Z</time>
</trkpt>
<trkpt lat="49.05669294297695" lon="8.816587999463081">
<ele>214</ele>
<time>2023-05-17T10:14:55Z</time>
</trkpt>
<trkpt lat="49.0567319188267" lon="8.816537959501147">
<ele>214.20000000000005</ele>
<time>2023-05-17T10:14:56Z</time>
</trkpt>
<trkpt lat="49.05676796101034" lon="8.816481968387961">
<ele>214.39999999999998</ele>
<time>2023-05-17T10:14:57Z</time>
</trkpt>
<trkpt lat="49.05680492520332" lon="8.816421953961253">
<ele>214.60000000000002</ele>
<time>2023-05-17T10:14:58Z</time>
</trkpt>
<trkpt lat="49.05684499070048" lon="8.816356994211674">
<ele>214.60000000000002</ele>
<time>2023-05-17T10:14:59Z</time>
</trkpt>
<trkpt lat="49.05688497237861" lon="8.816299997270107">
<ele>214.79999999999995</ele>
<time>2023-05-17T10:15:00Z</time>
</trkpt>
<trkpt lat="49.0569219365716" lon="8.816246939823031">
<ele>215</ele>
<time>2023-05-17T10:15:01Z</time>
</trkpt>
<trkpt lat="49.056956972926855" lon="8.816186925396323">
<ele>215.20000000000005</ele>
<time>2023-05-17T10:15:02Z</time>
</trkpt>
<trkpt lat="49.05699293129146" lon="8.816126994788647">
<ele>215.39999999999998</ele>
<time>2023-05-17T10:15:03Z</time>
</trkpt>
<trkpt lat="49.05702796764672" lon="8.816066980361938">
<ele>215.60000000000002</ele>
<time>2023-05-17T10:15:04Z</time>
</trkpt>
<trkpt lat="49.05706292018294" lon="8.81600797176361">
<ele>215.79999999999995</ele>
<time>2023-05-17T10:15:05Z</time>
</trkpt>
<trkpt lat="49.05709695070982" lon="8.815946951508522">
<ele>216</ele>
<time>2023-05-17T10:15:06Z</time>
</trkpt>
<trkpt lat="49.05713198706508" lon="8.815887942910194">
<ele>216.20000000000005</ele>
<time>2023-05-17T10:15:07Z</time>
</trkpt>
<trkpt lat="49.05716492794454" lon="8.815826922655106">
<ele>216.39999999999998</ele>
<time>2023-05-17T10:15:08Z</time>
</trkpt>
<trkpt lat="49.057196946814656" lon="8.815764980390668">
<ele>216.60000000000002</ele>
<time>2023-05-17T10:15:09Z</time>
</trkpt>
<trkpt lat="49.05723198316991" lon="8.815702954307199">
<ele>216.60000000000002</ele>
<time>2023-05-17T10:15:10Z</time>
</trkpt>
<trkpt lat="49.05726794153452" lon="8.815636988729239">
<ele>216.79999999999995</ele>
<time>2023-05-17T10:15:11Z</time>
</trkpt>
<trkpt lat="49.057302977889776" lon="8.815571945160627">
<ele>216.79999999999995</ele>
<time>2023-05-17T10:15:12Z</time>
</trkpt>
<trkpt lat="49.057337930426" lon="8.815504973754287">
<ele>216.79999999999995</ele>
<time>2023-05-17T10:15:13Z</time>
</trkpt>
<trkpt lat="49.05737497843802" lon="8.815437918528914">
<ele>216.79999999999995</ele>
<time>2023-05-17T10:15:14Z</time>
</trkpt>
<trkpt lat="49.057404985651374" lon="8.815369941294193">
<ele>216.79999999999995</ele>
<time>2023-05-17T10:15:15Z</time>
</trkpt>
<trkpt lat="49.05743692070246" lon="8.81529794074595">
<ele>216.79999999999995</ele>
<time>2023-05-17T10:15:16Z</time>
</trkpt>
<trkpt lat="49.05746793374419" lon="8.815226946026087">
<ele>216.79999999999995</ele>
<time>2023-05-17T10:15:17Z</time>
</trkpt>
<trkpt lat="49.057497940957546" lon="8.815154945477843">
<ele>216.79999999999995</ele>
<time>2023-05-17T10:15:18Z</time>
</trkpt>
<trkpt lat="49.05752694234252" lon="8.815074982121587">
<ele>216.79999999999995</ele>
<time>2023-05-17T10:15:19Z</time>
</trkpt>
<trkpt lat="49.057556949555874" lon="8.81499694660306">
<ele>216.60000000000002</ele>
<time>2023-05-17T10:15:20Z</time>
</trkpt>
<trkpt lat="49.05758796259761" lon="8.814916983246803">
<ele>216.60000000000002</ele>
<time>2023-05-17T10:15:21Z</time>
</trkpt>
<trkpt lat="49.057622998952866" lon="8.814832996577024">
<ele>216.60000000000002</ele>
<time>2023-05-17T10:15:22Z</time>
</trkpt>
<trkpt lat="49.05765694566071" lon="8.814749931916595">
<ele>216.60000000000002</ele>
<time>2023-05-17T10:15:23Z</time>
</trkpt>
<trkpt lat="49.057687958702445" lon="8.814666951075196">
<ele>216.39999999999998</ele>
<time>2023-05-17T10:15:24Z</time>
</trkpt>
<trkpt lat="49.05771997757256" lon="8.814579946920276">
<ele>216.39999999999998</ele>
<time>2023-05-17T10:15:25Z</time>
</trkpt>
<trkpt lat="49.057751996442676" lon="8.814494954422116">
<ele>216.20000000000005</ele>
<time>2023-05-17T10:15:26Z</time>
</trkpt>
<trkpt lat="49.05778493732214" lon="8.814406944438815">
<ele>216</ele>
<time>2023-05-17T10:15:27Z</time>
</trkpt>
<trkpt lat="49.057816956192255" lon="8.814316922798753">
<ele>215.79999999999995</ele>
<time>2023-05-17T10:15:28Z</time>
</trkpt>
<trkpt lat="49.05784998089075" lon="8.814227990806103">
<ele>215.60000000000002</ele>
<time>2023-05-17T10:15:29Z</time>
</trkpt>
<trkpt lat="49.057884933426976" lon="8.814139980822802">
<ele>215.39999999999998</ele>
<time>2023-05-17T10:15:30Z</time>
</trkpt>
<trkpt lat="49.057921981438994" lon="8.81404995918274">
<ele>215</ele>
<time>2023-05-17T10:15:31Z</time>
</trkpt>
<trkpt lat="49.0579579398036" lon="8.813959937542677">
<ele>214.79999999999995</ele>
<time>2023-05-17T10:15:32Z</time>
</trkpt>
<trkpt lat="49.05799498781562" lon="8.813867988064885">
<ele>214.39999999999998</ele>
<time>2023-05-17T10:15:33Z</time>
</trkpt>
<trkpt lat="49.05803798697889" lon="8.813774948939681">
<ele>214</ele>
<time>2023-05-17T10:15:34Z</time>
</trkpt>
<trkpt lat="49.05808492563665" lon="8.813676964491606">
<ele>213.79999999999995</ele>
<time>2023-05-17T10:15:35Z</time>
</trkpt>
<trkpt lat="49.05812792479992" lon="8.813574956730008">
<ele>213.39999999999998</ele>
<time>2023-05-17T10:15:36Z</time>
</trkpt>
<trkpt lat="49.05817192979157" lon="8.813466997817159">
<ele>213</ele>
<time>2023-05-17T10:15:37Z</time>
</trkpt>
<trkpt lat="49.05821199528873" lon="8.813352920114994">
<ele>212.60000000000002</ele>
<time>2023-05-17T10:15:38Z</time>
</trkpt>
<trkpt lat="49.05825197696686" lon="8.81323792040348">
<ele>212.20000000000005</ele>
<time>2023-05-17T10:15:39Z</time>
</trkpt>
<trkpt lat="49.05829296447337" lon="8.813122920691967">
<ele>211.79999999999995</ele>
<time>2023-05-17T10:15:40Z</time>
</trkpt>
<trkpt lat="49.058334957808256" lon="8.813011944293976">
<ele>211.39999999999998</ele>
<time>2023-05-17T10:15:41Z</time>
</trkpt>
<trkpt lat="49.058377956971526" lon="8.812899962067604">
<ele>211</ele>
<time>2023-05-17T10:15:42Z</time>
</trkpt>
<trkpt lat="49.05842296779156" lon="8.812789991497993">
<ele>210.60000000000002</ele>
<time>2023-05-17T10:15:43Z</time>
</trkpt>
<trkpt lat="49.05846999026835" lon="8.81267499178648">
<ele>210.20000000000005</ele>
<time>2023-05-17T10:15:44Z</time>
</trkpt>
<trkpt lat="49.05851491726935" lon="8.812559992074966">
<ele>210</ele>
<time>2023-05-17T10:15:45Z</time>
</trkpt>
<trkpt lat="49.058566968888044" lon="8.812437951564789">
<ele>209.60000000000002</ele>
<time>2023-05-17T10:15:46Z</time>
</trkpt>
<trkpt lat="49.05860795639455" lon="8.812312977388501">
<ele>209</ele>
<time>2023-05-17T10:15:47Z</time>
</trkpt>
<trkpt lat="49.05866193585098" lon="8.812177944928408">
<ele>208.60000000000002</ele>
<time>2023-05-17T10:15:48Z</time>
</trkpt>
<trkpt lat="49.05871197581291" lon="8.812049953266978">
<ele>208</ele>
<time>2023-05-17T10:15:49Z</time>
</trkpt>
<trkpt lat="49.05875992029905" lon="8.811937971040606">
<ele>207.60000000000002</ele>
<time>2023-05-17T10:15:50Z</time>
</trkpt>
<trkpt lat="49.058807948604226" lon="8.811812996864319">
<ele>207.20000000000005</ele>
<time>2023-05-17T10:15:51Z</time>
</trkpt>
<trkpt lat="49.05885991640389" lon="8.811701936647296">
<ele>206.79999999999995</ele>
<time>2023-05-17T10:15:52Z</time>
</trkpt>
<trkpt lat="49.058911968022585" lon="8.811589954420924">
<ele>206.39999999999998</ele>
<time>2023-05-17T10:15:53Z</time>
</trkpt>
<trkpt lat="49.058957984671" lon="8.81147294305265">
<ele>206</ele>
<time>2023-05-17T10:15:54Z</time>
</trkpt>
<trkpt lat="49.058997966349125" lon="8.811351992189884">
<ele>205.60000000000002</ele>
<time>2023-05-17T10:15:55Z</time>
</trkpt>
<trkpt lat="49.059041971340775" lon="8.811231963336468">
<ele>205.39999999999998</ele>
<time>2023-05-17T10:15:56Z</time>
</trkpt>
<trkpt lat="49.059084970504045" lon="8.811117969453335">
<ele>205.20000000000005</ele>
<time>2023-05-17T10:15:57Z</time>
</trkpt>
<trkpt lat="49.059127969667315" lon="8.811011938378215">
<ele>205</ele>
<time>2023-05-17T10:15:58Z</time>
</trkpt>
<trkpt lat="49.059167951345444" lon="8.810907918959856">
<ele>204.79999999999995</ele>
<time>2023-05-17T10:15:59Z</time>
</trkpt>
<trkpt lat="49.05920499935746" lon="8.810814963653684">
<ele>204.60000000000002</ele>
<time>2023-05-17T10:16:00Z</time>
</trkpt>
<trkpt lat="49.059237940236926" lon="8.810726953670382">
<ele>204.39999999999998</ele>
<time>2023-05-17T10:16:01Z</time>
</trkpt>
<trkpt lat="49.05926995910704" lon="8.8106379378587">
<ele>204.39999999999998</ele>
<time>2023-05-17T10:16:02Z</time>
</trkpt>
<trkpt lat="49.05930298380554" lon="8.8105499278754">
<ele>204.20000000000005</ele>
<time>2023-05-17T10:16:03Z</time>
</trkpt>
<trkpt lat="49.05933693051338" lon="8.81046493537724">
<ele>204</ele>
<time>2023-05-17T10:16:04Z</time>
</trkpt>
<trkpt lat="49.05936794355512" lon="8.810381954535842">
<ele>204</ele>
<time>2023-05-17T10:16:05Z</time>
</trkpt>
<trkpt lat="49.05939996242523" lon="8.810294950380921">
<ele>203.79999999999995</ele>
<time>2023-05-17T10:16:06Z</time>
</trkpt>
<trkpt lat="49.05943198129535" lon="8.810209957882762">
<ele>203.79999999999995</ele>
<time>2023-05-17T10:16:07Z</time>
</trkpt>
<trkpt lat="49.05946299433708" lon="8.810126977041364">
<ele>203.79999999999995</ele>
<time>2023-05-17T10:16:08Z</time>
</trkpt>
<trkpt lat="49.059494929388165" lon="8.810037961229682">
<ele>203.60000000000002</ele>
<time>2023-05-17T10:16:09Z</time>
</trkpt>
<trkpt lat="49.05952493660152" lon="8.809957997873425">
<ele>203.39999999999998</ele>
<time>2023-05-17T10:16:10Z</time>
</trkpt>
<trkpt lat="49.059554943814874" lon="8.809879962354898">
<ele>203.39999999999998</ele>
<time>2023-05-17T10:16:11Z</time>
</trkpt>
<trkpt lat="49.05958495102823" lon="8.809799998998642">
<ele>203.20000000000005</ele>
<time>2023-05-17T10:16:12Z</time>
</trkpt>
<trkpt lat="49.05961294658482" lon="8.809726992622018">
<ele>203</ele>
<time>2023-05-17T10:16:13Z</time>
</trkpt>
<trkpt lat="49.059644965454936" lon="8.809651974588633">
<ele>203</ele>
<time>2023-05-17T10:16:14Z</time>
</trkpt>
<trkpt lat="49.05967698432505" lon="8.809569999575615">
<ele>202.79999999999995</ele>
<time>2023-05-17T10:16:15Z</time>
</trkpt>
<trkpt lat="49.059709925204515" lon="8.809492969885468">
<ele>202.79999999999995</ele>
<time>2023-05-17T10:16:16Z</time>
</trkpt>
<trkpt lat="49.05974194407463" lon="8.809417951852083">
<ele>202.60000000000002</ele>
<time>2023-05-17T10:16:17Z</time>
</trkpt>
<trkpt lat="49.059772957116365" lon="8.809339916333556">
<ele>202.60000000000002</ele>
<time>2023-05-17T10:16:18Z</time>
</trkpt>
<trkpt lat="49.05980296432972" lon="8.80926196463406">
<ele>202.39999999999998</ele>
<time>2023-05-17T10:16:19Z</time>
</trkpt>
<trkpt lat="49.059832971543074" lon="8.809186946600676">
<ele>202.39999999999998</ele>
<time>2023-05-17T10:16:20Z</time>
</trkpt>
<trkpt lat="49.059857949614525" lon="8.809119975194335">
<ele>202.20000000000005</ele>
<time>2023-05-17T10:16:21Z</time>
</trkpt>
<trkpt lat="49.059877982363105" lon="8.80906691774726">
<ele>202</ele>
<time>2023-05-17T10:16:22Z</time>
</trkpt>
<trkpt lat="49.0598919801414" lon="8.80902199074626">
<ele>202</ele>
<time>2023-05-17T10:16:23Z</time>
</trkpt>
<trkpt lat="49.059902960434556" lon="8.80898293107748">
<ele>201.79999999999995</ele>
<time>2023-05-17T10:16:24Z</time>
</trkpt>
<trkpt lat="49.05991494655609" lon="8.808954935520887">
<ele>201.79999999999995</ele>
<time>2023-05-17T10:16:25Z</time>
</trkpt>
<trkpt lat="49.05992793850601" lon="8.808932974934578">
<ele>201.79999999999995</ele>
<time>2023-05-17T10:16:26Z</time>
</trkpt>
<trkpt lat="49.05993699096143" lon="8.808912942185998">
<ele>201.79999999999995</ele>
<time>2023-05-17T10:16:27Z</time>
</trkpt>
<trkpt lat="49.059944953769445" lon="8.808899950236082">
<ele>201.60000000000002</ele>
<time>2023-05-17T10:16:28Z</time>
</trkpt>
<trkpt lat="49.05995199456811" lon="8.808884946629405">
<ele>201.60000000000002</ele>
<time>2023-05-17T10:16:29Z</time>
</trkpt>
<trkpt lat="49.05995693989098" lon="8.808861980214715">
<ele>201.60000000000002</ele>
<time>2023-05-17T10:16:30Z</time>
</trkpt>
<trkpt lat="49.059961969032884" lon="8.808844964951277">
<ele>201.60000000000002</ele>
<time>2023-05-17T10:16:31Z</time>
</trkpt>
<trkpt lat="49.0599699318409" lon="8.808827949687839">
<ele>201.39999999999998</ele>
<time>2023-05-17T10:16:32Z</time>
</trkpt>
<trkpt lat="49.05997697263956" lon="8.80880992859602">
<ele>201.39999999999998</ele>
<time>2023-05-17T10:16:33Z</time>
</trkpt>
<trkpt lat="49.05998292379081" lon="8.808794924989343">
<ele>201.39999999999998</ele>
<time>2023-05-17T10:16:34Z</time>
</trkpt>
<trkpt lat="49.05999298207462" lon="8.808779921382666">
<ele>201.39999999999998</ele>
<time>2023-05-17T10:16:35Z</time>
</trkpt>
<trkpt lat="49.06000295653939" lon="8.80876692943275">
<ele>201.39999999999998</ele>
<time>2023-05-17T10:16:36Z</time>
</trkpt>
<trkpt lat="49.06001293100417" lon="8.808747986331582">
<ele>201.20000000000005</ele>
<time>2023-05-17T10:16:37Z</time>
</trkpt>
<trkpt lat="49.06002692878246" lon="8.808729965239763">
<ele>201.20000000000005</ele>
<time>2023-05-17T10:16:38Z</time>
</trkpt>
<trkpt lat="49.06003296375275" lon="8.808706998825073">
<ele>201.20000000000005</ele>
<time>2023-05-17T10:16:39Z</time>
</trkpt>
<trkpt lat="49.06004293821752" lon="8.808686966076493">
<ele>201.20000000000005</ele>
<time>2023-05-17T10:16:40Z</time>
</trkpt>
<trkpt lat="49.060051990672946" lon="8.808661988005042">
<ele>201.20000000000005</ele>
<time>2023-05-17T10:16:41Z</time>
</trkpt>
<trkpt lat="49.06006196513772" lon="8.808629969134927">
<ele>201</ele>
<time>2023-05-17T10:16:42Z</time>
</trkpt>
<trkpt lat="49.06006992794573" lon="8.808587975800037">
<ele>201</ele>
<time>2023-05-17T10:16:43Z</time>
</trkpt>
<trkpt lat="49.06007998622954" lon="8.808546988293529">
<ele>201</ele>
<time>2023-05-17T10:16:44Z</time>
</trkpt>
<trkpt lat="49.060092978179455" lon="8.808502983301878">
<ele>201</ele>
<time>2023-05-17T10:16:45Z</time>
</trkpt>
<trkpt lat="49.06010999344289" lon="8.808456966653466">
<ele>200.79999999999995</ele>
<time>2023-05-17T10:16:46Z</time>
</trkpt>
<trkpt lat="49.06012298539281" lon="8.808407932519913">
<ele>200.79999999999995</ele>
<time>2023-05-17T10:16:47Z</time>
</trkpt>
<trkpt lat="49.06014192849398" lon="8.80835797637701">
<ele>200.79999999999995</ele>
<time>2023-05-17T10:16:48Z</time>
</trkpt>
<trkpt lat="49.060157937929034" lon="8.808307936415076">
<ele>200.60000000000002</ele>
<time>2023-05-17T10:16:49Z</time>
</trkpt>
<trkpt lat="49.06018299981952" lon="8.808254962787032">
<ele>200.60000000000002</ele>
<time>2023-05-17T10:16:50Z</time>
</trkpt>
<trkpt lat="49.06021191738546" lon="8.808187991380692">
<ele>200.60000000000002</ele>
<time>2023-05-17T10:16:51Z</time>
</trkpt>
<trkpt lat="49.06023798510432" lon="8.808116996660829">
<ele>200.39999999999998</ele>
<time>2023-05-17T10:16:52Z</time>
</trkpt>
<trkpt lat="49.06026799231768" lon="8.808044996112585">
<ele>200.20000000000005</ele>
<time>2023-05-17T10:16:53Z</time>
</trkpt>
<trkpt lat="49.06029699370265" lon="8.807974923402071">
<ele>200</ele>
<time>2023-05-17T10:16:54Z</time>
</trkpt>
<trkpt lat="49.06032498925924" lon="8.807899989187717">
<ele>199.79999999999995</ele>
<time>2023-05-17T10:16:55Z</time>
</trkpt>
<trkpt lat="49.0603549964726" lon="8.807834945619106">
<ele>199.79999999999995</ele>
<time>2023-05-17T10:16:56Z</time>
</trkpt>
<trkpt lat="49.06038793735206" lon="8.807771997526288">
<ele>199.60000000000002</ele>
<time>2023-05-17T10:16:57Z</time>
</trkpt>
<trkpt lat="49.060416938737035" lon="8.80771198309958">
<ele>199.39999999999998</ele>
<time>2023-05-17T10:16:58Z</time>
</trkpt>
<trkpt lat="49.060441916808486" lon="8.80764794535935">
<ele>199.20000000000005</ele>
<time>2023-05-17T10:16:59Z</time>
</trkpt>
<trkpt lat="49.060461949557066" lon="8.807584997266531">
<ele>199</ele>
<time>2023-05-17T10:17:00Z</time>
</trkpt>
<trkpt lat="49.06048298813403" lon="8.807517942041159">
<ele>198.79999999999995</ele>
<time>2023-05-17T10:17:01Z</time>
</trkpt>
<trkpt lat="49.0605069603771" lon="8.807451976463199">
<ele>198.60000000000002</ele>
<time>2023-05-17T10:17:02Z</time>
</trkpt>
<trkpt lat="49.06052992679179" lon="8.807386932894588">
<ele>198.60000000000002</ele>
<time>2023-05-17T10:17:03Z</time>
</trkpt>
<trkpt lat="49.06055498868227" lon="8.807322978973389">
<ele>198.39999999999998</ele>
<time>2023-05-17T10:17:04Z</time>
</trkpt>
<trkpt lat="49.06057795509696" lon="8.807259947061539">
<ele>198.20000000000005</ele>
<time>2023-05-17T10:17:05Z</time>
</trkpt>
<trkpt lat="49.06060293316841" lon="8.807192975655198">
<ele>198.20000000000005</ele>
<time>2023-05-17T10:17:06Z</time>
</trkpt>
<trkpt lat="49.060626989230514" lon="8.807121980935335">
<ele>198</ele>
<time>2023-05-17T10:17:07Z</time>
</trkpt>
<trkpt lat="49.060651967301965" lon="8.807051992043853">
<ele>197.79999999999995</ele>
<time>2023-05-17T10:17:08Z</time>
</trkpt>
<trkpt lat="49.060672922059894" lon="8.806981919333339">
<ele>197.60000000000002</ele>
<time>2023-05-17T10:17:09Z</time>
</trkpt>
<trkpt lat="49.06069999560714" lon="8.80691695958376">
<ele>197.39999999999998</ele>
<time>2023-05-17T10:17:10Z</time>
</trkpt>
<trkpt lat="49.06073193065822" lon="8.806857950985432">
<ele>197.20000000000005</ele>
<time>2023-05-17T10:17:11Z</time>
</trkpt>
<trkpt lat="49.060762943699956" lon="8.806802965700626">
<ele>197</ele>
<time>2023-05-17T10:17:12Z</time>
</trkpt>
<trkpt lat="49.06079295091331" lon="8.80674496293068">
<ele>196.79999999999995</ele>
<time>2023-05-17T10:17:13Z</time>
</trkpt>
<trkpt lat="49.060822958126664" lon="8.806676985695958">
<ele>196.79999999999995</ele>
<time>2023-05-17T10:17:14Z</time>
</trkpt>
<trkpt lat="49.06085195951164" lon="8.806609930470586">
<ele>196.60000000000002</ele>
<time>2023-05-17T10:17:15Z</time>
</trkpt>
<trkpt lat="49.06087995506823" lon="8.806537929922342">
<ele>196.39999999999998</ele>
<time>2023-05-17T10:17:16Z</time>
</trkpt>
<trkpt lat="49.06090694479644" lon="8.806461989879608">
<ele>196.20000000000005</ele>
<time>2023-05-17T10:17:17Z</time>
</trkpt>
<trkpt lat="49.060932928696275" lon="8.806384960189462">
<ele>196</ele>
<time>2023-05-17T10:17:18Z</time>
</trkpt>
<trkpt lat="49.06096193008125" lon="8.806306924670935">
<ele>196</ele>
<time>2023-05-17T10:17:19Z</time>
</trkpt>
<trkpt lat="49.06098992563784" lon="8.806224949657917">
<ele>195.79999999999995</ele>
<time>2023-05-17T10:17:20Z</time>
</trkpt>
<trkpt lat="49.061019932851195" lon="8.8061429746449">
<ele>195.60000000000002</ele>
<time>2023-05-17T10:17:21Z</time>
</trkpt>
<trkpt lat="49.06105295754969" lon="8.806059993803501">
<ele>195.39999999999998</ele>
<time>2023-05-17T10:17:22Z</time>
</trkpt>
<trkpt lat="49.06108698807657" lon="8.805976929143071">
<ele>195.20000000000005</ele>
<time>2023-05-17T10:17:23Z</time>
</trkpt>
<trkpt lat="49.06111992895603" lon="8.805904928594828">
<ele>195</ele>
<time>2023-05-17T10:17:24Z</time>
</trkpt>
<trkpt lat="49.06115496531129" lon="8.805824965238571">
<ele>194.79999999999995</ele>
<time>2023-05-17T10:17:25Z</time>
</trkpt>
<trkpt lat="49.061186984181404" lon="8.805742990225554">
<ele>194.60000000000002</ele>
<time>2023-05-17T10:17:26Z</time>
</trkpt>
<trkpt lat="49.06121799722314" lon="8.805659925565124">
<ele>194.39999999999998</ele>
<time>2023-05-17T10:17:27Z</time>
</trkpt>
<trkpt lat="49.06124993227422" lon="8.805574933066964">
<ele>194.20000000000005</ele>
<time>2023-05-17T10:17:28Z</time>
</trkpt>
<trkpt lat="49.06128195114434" lon="8.805484995245934">
<ele>194</ele>
<time>2023-05-17T10:17:29Z</time>
</trkpt>
<trkpt lat="49.06131497584283" lon="8.80539195612073">
<ele>193.79999999999995</ele>
<time>2023-05-17T10:17:30Z</time>
</trkpt>
<trkpt lat="49.06134498305619" lon="8.805292965844274">
<ele>193.60000000000002</ele>
<time>2023-05-17T10:17:31Z</time>
</trkpt>
<trkpt lat="49.06137691810727" lon="8.805194981396198">
<ele>193.39999999999998</ele>
<time>2023-05-17T10:17:32Z</time>
</trkpt>
<trkpt lat="49.061404997482896" lon="8.805097918957472">
<ele>193.20000000000005</ele>
<time>2023-05-17T10:17:33Z</time>
</trkpt>
<trkpt lat="49.06143492087722" lon="8.8050049636513">
<ele>193</ele>
<time>2023-05-17T10:17:34Z</time>
</trkpt>
<trkpt lat="49.061467945575714" lon="8.804917959496379">
<ele>192.60000000000002</ele>
<time>2023-05-17T10:17:35Z</time>
</trkpt>
<trkpt lat="49.06150298193097" lon="8.804826932027936">
<ele>192.39999999999998</ele>
<time>2023-05-17T10:17:36Z</time>
</trkpt>
<trkpt lat="49.061532989144325" lon="8.804732970893383">
<ele>192.20000000000005</ele>
<time>2023-05-17T10:17:37Z</time>
</trkpt>
<trkpt lat="49.06156299635768" lon="8.804644960910082">
<ele>192</ele>
<time>2023-05-17T10:17:38Z</time>
</trkpt>
<trkpt lat="49.061592919752" lon="8.804566925391555">
<ele>191.60000000000002</ele>
<time>2023-05-17T10:17:39Z</time>
</trkpt>
<trkpt lat="49.061617981642485" lon="8.80448997952044">
<ele>191.39999999999998</ele>
<time>2023-05-17T10:17:40Z</time>
</trkpt>
<trkpt lat="49.061639942228794" lon="8.804409932345152">
<ele>191.20000000000005</ele>
<time>2023-05-17T10:17:41Z</time>
</trkpt>
<trkpt lat="49.061659974977374" lon="8.804336925968528">
<ele>191</ele>
<time>2023-05-17T10:17:42Z</time>
</trkpt>
<trkpt lat="49.061682941392064" lon="8.804262997582555">
<ele>190.79999999999995</ele>
<time>2023-05-17T10:17:43Z</time>
</trkpt>
<trkpt lat="49.061707919463515" lon="8.80419292487204">
<ele>190.60000000000002</ele>
<time>2023-05-17T10:17:44Z</time>
</trkpt>
<trkpt lat="49.06173499301076" lon="8.804119918495417">
<ele>190.60000000000002</ele>
<time>2023-05-17T10:17:45Z</time>
</trkpt>
<trkpt lat="49.06175795942545" lon="8.804044984281063">
<ele>190.39999999999998</ele>
<time>2023-05-17T10:17:46Z</time>
</trkpt>
<trkpt lat="49.06177992001176" lon="8.803967954590917">
<ele>190.20000000000005</ele>
<time>2023-05-17T10:17:47Z</time>
</trkpt>
<trkpt lat="49.0618019644171" lon="8.80388799123466">
<ele>190.20000000000005</ele>
<time>2023-05-17T10:17:48Z</time>
</trkpt>
<trkpt lat="49.06182199716568" lon="8.803814984858036">
<ele>190</ele>
<time>2023-05-17T10:17:49Z</time>
</trkpt>
<trkpt lat="49.06183993443847" lon="8.803742984309793">
<ele>190</ele>
<time>2023-05-17T10:17:50Z</time>
</trkpt>
<trkpt lat="49.06185996718705" lon="8.803666960448027">
<ele>189.79999999999995</ele>
<time>2023-05-17T10:17:51Z</time>
</trkpt>
<trkpt lat="49.061881927773356" lon="8.803582973778248">
<ele>189.79999999999995</ele>
<time>2023-05-17T10:17:52Z</time>
</trkpt>
<trkpt lat="49.06190698966384" lon="8.803506949916482">
<ele>189.79999999999995</ele>
<time>2023-05-17T10:17:53Z</time>
</trkpt>
<trkpt lat="49.06192995607853" lon="8.803426986560225">
<ele>189.60000000000002</ele>
<time>2023-05-17T10:17:54Z</time>
</trkpt>
<trkpt lat="49.06195795163512" lon="8.803349956870079">
<ele>189.60000000000002</ele>
<time>2023-05-17T10:17:55Z</time>
</trkpt>
<trkpt lat="49.061987958848476" lon="8.803276950493455">
<ele>189.60000000000002</ele>
<time>2023-05-17T10:17:56Z</time>
</trkpt>
<trkpt lat="49.06202198937535" lon="8.80320193246007">
<ele>189.60000000000002</ele>
<time>2023-05-17T10:17:57Z</time>
</trkpt>
<trkpt lat="49.06205493025482" lon="8.803124986588955">
<ele>189.39999999999998</ele>
<time>2023-05-17T10:17:58Z</time>
</trkpt>
<trkpt lat="49.062089966610074" lon="8.803057931363583">
<ele>189.39999999999998</ele>
<time>2023-05-17T10:17:59Z</time>
</trkpt>
<trkpt lat="49.06212299130857" lon="8.802997916936874">
<ele>189.39999999999998</ele>
<time>2023-05-17T10:18:00Z</time>
</trkpt>
<trkpt lat="49.062159955501556" lon="8.802929939702153">
<ele>189.39999999999998</ele>
<time>2023-05-17T10:18:01Z</time>
</trkpt>
<trkpt lat="49.06219499185681" lon="8.80285793915391">
<ele>189.39999999999998</ele>
<time>2023-05-17T10:18:02Z</time>
</trkpt>
<trkpt lat="49.0622319560498" lon="8.802787950262427">
<ele>189.39999999999998</ele>
<time>2023-05-17T10:18:03Z</time>
</trkpt>
<trkpt lat="49.06226799823344" lon="8.802717961370945">
<ele>189.20000000000005</ele>
<time>2023-05-17T10:18:04Z</time>
</trkpt>
<trkpt lat="49.062306974083185" lon="8.802647972479463">
<ele>189.20000000000005</ele>
<time>2023-05-17T10:18:05Z</time>
</trkpt>
<trkpt lat="49.06233999878168" lon="8.802582928910851">
<ele>189.20000000000005</ele>
<time>2023-05-17T10:18:06Z</time>
</trkpt>
<trkpt lat="49.062372939661145" lon="8.802527943626046">
<ele>189.20000000000005</ele>
<time>2023-05-17T10:18:07Z</time>
</trkpt>
<trkpt lat="49.0624079760164" lon="8.80247295834124">
<ele>189.20000000000005</ele>
<time>2023-05-17T10:18:08Z</time>
</trkpt>
<trkpt lat="49.06244494020939" lon="8.802402969449759">
<ele>189</ele>
<time>2023-05-17T10:18:09Z</time>
</trkpt>
<trkpt lat="49.062477964907885" lon="8.802334992215037">
<ele>189</ele>
<time>2023-05-17T10:18:10Z</time>
</trkpt>
<trkpt lat="49.06251291744411" lon="8.802267936989665">
<ele>189</ele>
<time>2023-05-17T10:18:11Z</time>
</trkpt>
<trkpt lat="49.06254795379937" lon="8.802206916734576">
<ele>189</ele>
<time>2023-05-17T10:18:12Z</time>
</trkpt>
<trkpt lat="49.06257997266948" lon="8.802136927843094">
<ele>189</ele>
<time>2023-05-17T10:18:13Z</time>
</trkpt>
<trkpt lat="49.0626119915396" lon="8.802056964486837">
<ele>189</ele>
<time>2023-05-17T10:18:14Z</time>
</trkpt>
<trkpt lat="49.06264199875295" lon="8.80197691731155">
<ele>189</ele>
<time>2023-05-17T10:18:15Z</time>
</trkpt>
<trkpt lat="49.062674939632416" lon="8.801897959783673">
<ele>188.79999999999995</ele>
<time>2023-05-17T10:18:16Z</time>
</trkpt>
<trkpt lat="49.06271995045245" lon="8.801811961457133">
<ele>188.79999999999995</ele>
<time>2023-05-17T10:18:17Z</time>
</trkpt>
<trkpt lat="49.06276697292924" lon="8.80173996090889">
<ele>188.79999999999995</ele>
<time>2023-05-17T10:18:18Z</time>
</trkpt>
<trkpt lat="49.06280796043575" lon="8.80167692899704">
<ele>188.60000000000002</ele>
<time>2023-05-17T10:18:19Z</time>
</trkpt>
<trkpt lat="49.06284995377064" lon="8.801619932055473">
<ele>188.60000000000002</ele>
<time>2023-05-17T10:18:20Z</time>
</trkpt>
<trkpt lat="49.062887923792005" lon="8.801572993397713">
<ele>188.60000000000002</ele>
<time>2023-05-17T10:18:21Z</time>
</trkpt>
<trkpt lat="49.062927989289165" lon="8.801532927900553">
<ele>188.60000000000002</ele>
<time>2023-05-17T10:18:22Z</time>
</trkpt>
<trkpt lat="49.062969982624054" lon="8.801496969535947">
<ele>188.39999999999998</ele>
<time>2023-05-17T10:18:23Z</time>
</trkpt>
<trkpt lat="49.06300292350352" lon="8.801469979807734">
<ele>188.39999999999998</ele>
<time>2023-05-17T10:18:24Z</time>
</trkpt>
<trkpt lat="49.063037959858775" lon="8.801434943452477">
<ele>188.39999999999998</ele>
<time>2023-05-17T10:18:25Z</time>
</trkpt>
<trkpt lat="49.06306997872889" lon="8.801402924582362">
<ele>188.39999999999998</ele>
<time>2023-05-17T10:18:26Z</time>
</trkpt>
<trkpt lat="49.06309797428548" lon="8.801367972046137">
<ele>188.39999999999998</ele>
<time>2023-05-17T10:18:27Z</time>
</trkpt>
<trkpt lat="49.06312798149884" lon="8.801336959004402">
<ele>188.39999999999998</ele>
<time>2023-05-17T10:18:28Z</time>
</trkpt>
<trkpt lat="49.06315991654992" lon="8.801302928477526">
<ele>188.39999999999998</ele>
<time>2023-05-17T10:18:29Z</time>
</trkpt>
<trkpt lat="49.063186990097165" lon="8.801274932920933">
<ele>188.39999999999998</ele>
<time>2023-05-17T10:18:30Z</time>
</trkpt>
<trkpt lat="49.06320693902671" lon="8.801252972334623">
<ele>188.39999999999998</ele>
<time>2023-05-17T10:18:31Z</time>
</trkpt>
<trkpt lat="49.06322697177529" lon="8.801229922100902">
<ele>188.39999999999998</ele>
<time>2023-05-17T10:18:32Z</time>
</trkpt>
<trkpt lat="49.06324298121035" lon="8.801207961514592">
<ele>188.39999999999998</ele>
<time>2023-05-17T10:18:33Z</time>
</trkpt>
<trkpt lat="49.06325697898865" lon="8.801194969564676">
<ele>188.20000000000005</ele>
<time>2023-05-17T10:18:34Z</time>
</trkpt>
<trkpt lat="49.063271982595325" lon="8.801176948472857">
<ele>188.20000000000005</ele>
<time>2023-05-17T10:18:35Z</time>
</trkpt>
<trkpt lat="49.06328497454524" lon="8.801166974008083">
<ele>188.20000000000005</ele>
<time>2023-05-17T10:18:36Z</time>
</trkpt>
<trkpt lat="49.06329293735325" lon="8.80115699954331">
<ele>188.20000000000005</ele>
<time>2023-05-17T10:18:37Z</time>
</trkpt>
<trkpt lat="49.06330492347479" lon="8.801142917945981">
<ele>188.20000000000005</ele>
<time>2023-05-17T10:18:38Z</time>
</trkpt>
<trkpt lat="49.063314981758595" lon="8.801134955137968">
<ele>188.20000000000005</ele>
<time>2023-05-17T10:18:39Z</time>
</trkpt>
<trkpt lat="49.06332294456661" lon="8.801119951531291">
<ele>188.20000000000005</ele>
<time>2023-05-17T10:18:40Z</time>
</trkpt>
<trkpt lat="49.06333199702203" lon="8.801106959581375">
<ele>188.20000000000005</ele>
<time>2023-05-17T10:18:41Z</time>
</trkpt>
<trkpt lat="49.063339959830046" lon="8.801099918782711">
<ele>188</ele>
<time>2023-05-17T10:18:42Z</time>
</trkpt>
<trkpt lat="49.06335496343672" lon="8.801076952368021">
<ele>188</ele>
<time>2023-05-17T10:18:43Z</time>
</trkpt>
<trkpt lat="49.06336795538664" lon="8.801062954589725">
<ele>188</ele>
<time>2023-05-17T10:18:44Z</time>
</trkpt>
<trkpt lat="49.063382958993316" lon="8.801047950983047">
<ele>188</ele>
<time>2023-05-17T10:18:45Z</time>
</trkpt>
<trkpt lat="49.06339796259999" lon="8.801034959033132">
<ele>188</ele>
<time>2023-05-17T10:18:46Z</time>
</trkpt>
<trkpt lat="49.06341497786343" lon="8.801012998446822">
<ele>188</ele>
<time>2023-05-17T10:18:47Z</time>
</trkpt>
<trkpt lat="49.06343492679298" lon="8.800991959869862">
<ele>188</ele>
<time>2023-05-17T10:18:48Z</time>
</trkpt>
<trkpt lat="49.063469963148236" lon="8.800979973748326">
<ele>188</ele>
<time>2023-05-17T10:18:49Z</time>
</trkpt>
<trkpt lat="49.06349997036159" lon="8.800956923514605">
<ele>188</ele>
<time>2023-05-17T10:18:50Z</time>
</trkpt>
<trkpt lat="49.06352796591818" lon="8.800927922129631">
<ele>188</ele>
<time>2023-05-17T10:18:51Z</time>
</trkpt>
<trkpt lat="49.0635599847883" lon="8.800906967371702">
<ele>188</ele>
<time>2023-05-17T10:18:52Z</time>
</trkpt>
<trkpt lat="49.063594937324524" lon="8.800889952108264">
<ele>188</ele>
<time>2023-05-17T10:18:53Z</time>
</trkpt>
<trkpt lat="49.06362796202302" lon="8.800872936844826">
<ele>188</ele>
<time>2023-05-17T10:18:54Z</time>
</trkpt>
<trkpt lat="49.06366693787277" lon="8.800862962380052">
<ele>188</ele>
<time>2023-05-17T10:18:55Z</time>
</trkpt>
<trkpt lat="49.06370993703604" lon="8.800852987915277">
<ele>188.20000000000005</ele>
<time>2023-05-17T10:18:56Z</time>
</trkpt>
<trkpt lat="49.06375796534121" lon="8.800841923803091">
<ele>188.20000000000005</ele>
<time>2023-05-17T10:18:57Z</time>
</trkpt>
<trkpt lat="49.06380197033286" lon="8.80083697848022">
<ele>188.20000000000005</ele>
<time>2023-05-17T10:18:58Z</time>
</trkpt>
<trkpt lat="49.06384496949613" lon="8.8008379843086">
<ele>188.20000000000005</ele>
<time>2023-05-17T10:18:59Z</time>
</trkpt>
<trkpt lat="49.06388495117426" lon="8.800852987915277">
<ele>188.20000000000005</ele>
<time>2023-05-17T10:19:00Z</time>
</trkpt>
<trkpt lat="49.06392694450915" lon="8.800867991521955">
<ele>188.39999999999998</ele>
<time>2023-05-17T10:19:01Z</time>
</trkpt>
<trkpt lat="49.06396793201566" lon="8.800882995128632">
<ele>188.39999999999998</ele>
<time>2023-05-17T10:19:02Z</time>
</trkpt>
<trkpt lat="49.06400992535055" lon="8.800894981250167">
<ele>188.39999999999998</ele>
<time>2023-05-17T10:19:03Z</time>
</trkpt>
<trkpt lat="49.06405292451382" lon="8.80092197097838">
<ele>188.39999999999998</ele>
<time>2023-05-17T10:19:04Z</time>
</trkpt>
<trkpt lat="49.06409299001098" lon="8.800952984020114">
<ele>188.39999999999998</ele>
<time>2023-05-17T10:19:05Z</time>
</trkpt>
<trkpt lat="49.06412995420396" lon="8.801001934334636">
<ele>188.39999999999998</ele>
<time>2023-05-17T10:19:06Z</time>
</trkpt>
<trkpt lat="49.06416792422533" lon="8.801057925447822">
<ele>188.39999999999998</ele>
<time>2023-05-17T10:19:07Z</time>
</trkpt>
<trkpt lat="49.06420991756022" lon="8.801107965409756">
<ele>188.39999999999998</ele>
<time>2023-05-17T10:19:08Z</time>
</trkpt>
<trkpt lat="49.06425492838025" lon="8.801157921552658">
<ele>188.39999999999998</ele>
<time>2023-05-17T10:19:09Z</time>
</trkpt>
<trkpt lat="49.06429792754352" lon="8.801212990656495">
<ele>188.39999999999998</ele>
<time>2023-05-17T10:19:10Z</time>
</trkpt>
<trkpt lat="49.06433799304068" lon="8.801264958456159">
<ele>188.39999999999998</ele>
<time>2023-05-17T10:19:11Z</time>
</trkpt>
<trkpt lat="49.06437998637557" lon="8.801316926255822">
<ele>188.39999999999998</ele>
<time>2023-05-17T10:19:12Z</time>
</trkpt>
<trkpt lat="49.06442197971046" lon="8.801369983702898">
<ele>188.39999999999998</ele>
<time>2023-05-17T10:19:13Z</time>
</trkpt>
<trkpt lat="49.06445994973183" lon="8.801424968987703">
<ele>188.20000000000005</ele>
<time>2023-05-17T10:19:14Z</time>
</trkpt>
<trkpt lat="49.064499931409955" lon="8.801476936787367">
<ele>188.20000000000005</ele>
<time>2023-05-17T10:19:15Z</time>
</trkpt>
<trkpt lat="49.064539996907115" lon="8.801527982577682">
<ele>188.20000000000005</ele>
<time>2023-05-17T10:19:16Z</time>
</trkpt>
<trkpt lat="49.0645769611001" lon="8.801577938720584">
<ele>188.20000000000005</ele>
<time>2023-05-17T10:19:17Z</time>
</trkpt>
<trkpt lat="49.06461199745536" lon="8.801627978682518">
<ele>188</ele>
<time>2023-05-17T10:19:18Z</time>
</trkpt>
<trkpt lat="49.064647955819964" lon="8.801681958138943">
<ele>188</ele>
<time>2023-05-17T10:19:19Z</time>
</trkpt>
<trkpt lat="49.06468198634684" lon="8.801734931766987">
<ele>188</ele>
<time>2023-05-17T10:19:20Z</time>
</trkpt>
<trkpt lat="49.064714927226305" lon="8.801787989214063">
<ele>187.79999999999995</ele>
<time>2023-05-17T10:19:21Z</time>
</trkpt>
<trkpt lat="49.06474996358156" lon="8.801842974498868">
<ele>187.79999999999995</ele>
<time>2023-05-17T10:19:22Z</time>
</trkpt>
<trkpt lat="49.06478198245168" lon="8.801896953955293">
<ele>187.79999999999995</ele>
<time>2023-05-17T10:19:23Z</time>
</trkpt>
<trkpt lat="49.0648169349879" lon="8.801949927583337">
<ele>187.79999999999995</ele>
<time>2023-05-17T10:19:24Z</time>
</trkpt>
<trkpt lat="49.0648549888283" lon="8.802006924524903">
<ele>187.79999999999995</ele>
<time>2023-05-17T10:19:25Z</time>
</trkpt>
<trkpt lat="49.06489195302129" lon="8.80206492729485">
<ele>187.79999999999995</ele>
<time>2023-05-17T10:19:26Z</time>
</trkpt>
<trkpt lat="49.064927995204926" lon="8.802121924236417">
<ele>187.79999999999995</ele>
<time>2023-05-17T10:19:27Z</time>
</trkpt>
<trkpt lat="49.06496294774115" lon="8.802181938663125">
<ele>187.79999999999995</ele>
<time>2023-05-17T10:19:28Z</time>
</trkpt>
<trkpt lat="49.06499798409641" lon="8.80223692394793">
<ele>187.79999999999995</ele>
<time>2023-05-17T10:19:29Z</time>
</trkpt>
<trkpt lat="49.06503293663263" lon="8.802289981395006">
<ele>187.79999999999995</ele>
<time>2023-05-17T10:19:30Z</time>
</trkpt>
<trkpt lat="49.06507199630141" lon="8.802344966679811">
<ele>188</ele>
<time>2023-05-17T10:19:31Z</time>
</trkpt>
<trkpt lat="49.06510694883764" lon="8.802401963621378">
<ele>188</ele>
<time>2023-05-17T10:19:32Z</time>
</trkpt>
<trkpt lat="49.065142991021276" lon="8.802457954734564">
<ele>188</ele>
<time>2023-05-17T10:19:33Z</time>
</trkpt>
<trkpt lat="49.065182972699404" lon="8.802509922534227">
<ele>188</ele>
<time>2023-05-17T10:19:34Z</time>
</trkpt>
<trkpt lat="49.06522194854915" lon="8.802564991638064">
<ele>188.20000000000005</ele>
<time>2023-05-17T10:19:35Z</time>
</trkpt>
<trkpt lat="49.06525991857052" lon="8.802614947780967">
<ele>188.20000000000005</ele>
<time>2023-05-17T10:19:36Z</time>
</trkpt>
<trkpt lat="49.06529998406768" lon="8.8026649877429">
<ele>188.20000000000005</ele>
<time>2023-05-17T10:19:37Z</time>
</trkpt>
<trkpt lat="49.065337954089046" lon="8.802717961370945">
<ele>188.20000000000005</ele>
<time>2023-05-17T10:19:38Z</time>
</trkpt>
<trkpt lat="49.06537692993879" lon="8.802769929170609">
<ele>188.39999999999998</ele>
<time>2023-05-17T10:19:39Z</time>
</trkpt>
<trkpt lat="49.06541498377919" lon="8.8028169516474">
<ele>188.39999999999998</ele>
<time>2023-05-17T10:19:40Z</time>
</trkpt>
<trkpt lat="49.06545295380056" lon="8.802867997437716">
<ele>188.39999999999998</ele>
<time>2023-05-17T10:19:41Z</time>
</trkpt>
<trkpt lat="49.065489917993546" lon="8.80292197689414">
<ele>188.39999999999998</ele>
<time>2023-05-17T10:19:42Z</time>
</trkpt>
<trkpt lat="49.06552294269204" lon="8.802974950522184">
<ele>188.39999999999998</ele>
<time>2023-05-17T10:19:43Z</time>
</trkpt>
<trkpt lat="49.06555496156216" lon="8.803027924150229">
<ele>188.39999999999998</ele>
<time>2023-05-17T10:19:44Z</time>
</trkpt>
<trkpt lat="49.06558798626065" lon="8.803082993254066">
<ele>188.39999999999998</ele>
<time>2023-05-17T10:19:45Z</time>
</trkpt>
<trkpt lat="49.06562293879688" lon="8.80313697271049">
<ele>188.20000000000005</ele>
<time>2023-05-17T10:19:46Z</time>
</trkpt>
<trkpt lat="49.065659986808896" lon="8.803191957995296">
<ele>188.20000000000005</ele>
<time>2023-05-17T10:19:47Z</time>
</trkpt>
<trkpt lat="49.06569795683026" lon="8.803249960765243">
<ele>188.20000000000005</ele>
<time>2023-05-17T10:19:48Z</time>
</trkpt>
<trkpt lat="49.06573693268001" lon="8.80330796353519">
<ele>188.20000000000005</ele>
<time>2023-05-17T10:19:49Z</time>
</trkpt>
<trkpt lat="49.06577297486365" lon="8.803366972133517">
<ele>188</ele>
<time>2023-05-17T10:19:50Z</time>
</trkpt>
<trkpt lat="49.06581295654178" lon="8.803426986560225">
<ele>187.79999999999995</ele>
<time>2023-05-17T10:19:51Z</time>
</trkpt>
<trkpt lat="49.065852938219905" lon="8.803484989330173">
<ele>187.60000000000002</ele>
<time>2023-05-17T10:19:52Z</time>
</trkpt>
<trkpt lat="49.06589291989803" lon="8.803544919937849">
<ele>187.39999999999998</ele>
<time>2023-05-17T10:19:53Z</time>
</trkpt>
<trkpt lat="49.06593197956681" lon="8.803606946021318">
<ele>187.20000000000005</ele>
<time>2023-05-17T10:19:54Z</time>
</trkpt>
<trkpt lat="49.06597196124494" lon="8.803666960448027">
<ele>187</ele>
<time>2023-05-17T10:19:55Z</time>
</trkpt>
<trkpt lat="49.06600993126631" lon="8.803727980703115">
<ele>186.79999999999995</ele>
<time>2023-05-17T10:19:56Z</time>
</trkpt>
<trkpt lat="49.06604798510671" lon="8.803787995129824">
<ele>186.60000000000002</ele>
<time>2023-05-17T10:19:57Z</time>
</trkpt>
<trkpt lat="49.066089978441596" lon="8.80384691990912">
<ele>186.39999999999998</ele>
<time>2023-05-17T10:19:58Z</time>
</trkpt>
<trkpt lat="49.066129960119724" lon="8.803901989012957">
<ele>186.20000000000005</ele>
<time>2023-05-17T10:19:59Z</time>
</trkpt>
<trkpt lat="49.06616994179785" lon="8.803957980126143">
<ele>186</ele>
<time>2023-05-17T10:20:00Z</time>
</trkpt>
<trkpt lat="49.06621193513274" lon="8.80401698872447">
<ele>185.79999999999995</ele>
<time>2023-05-17T10:20:01Z</time>
</trkpt>
<trkpt lat="49.06625292263925" lon="8.804072979837656">
<ele>185.60000000000002</ele>
<time>2023-05-17T10:20:02Z</time>
</trkpt>
<trkpt lat="49.06628795899451" lon="8.804131988435984">
<ele>185.39999999999998</ele>
<time>2023-05-17T10:20:03Z</time>
</trkpt>
<trkpt lat="49.066326934844255" lon="8.80418999120593">
<ele>185.20000000000005</ele>
<time>2023-05-17T10:20:04Z</time>
</trkpt>
<trkpt lat="49.066364988684654" lon="8.804242964833975">
<ele>185.20000000000005</ele>
<time>2023-05-17T10:20:05Z</time>
</trkpt>
<trkpt lat="49.066406982019544" lon="8.804291998967528">
<ele>185</ele>
<time>2023-05-17T10:20:06Z</time>
</trkpt>
<trkpt lat="49.066451992839575" lon="8.804337931796908">
<ele>185</ele>
<time>2023-05-17T10:20:07Z</time>
</trkpt>
<trkpt lat="49.066499937325716" lon="8.804386965930462">
<ele>184.79999999999995</ele>
<time>2023-05-17T10:20:08Z</time>
</trkpt>
<trkpt lat="49.06654796563089" lon="8.804429965093732">
<ele>184.79999999999995</ele>
<time>2023-05-17T10:20:09Z</time>
</trkpt>
<trkpt lat="49.06659993343055" lon="8.804467935115099">
<ele>184.79999999999995</ele>
<time>2023-05-17T10:20:10Z</time>
</trkpt>
<trkpt lat="49.06665198504925" lon="8.804497942328453">
<ele>184.79999999999995</ele>
<time>2023-05-17T10:20:11Z</time>
</trkpt>
<trkpt lat="49.066707976162434" lon="8.80451294593513">
<ele>184.60000000000002</ele>
<time>2023-05-17T10:20:12Z</time>
</trkpt>
<trkpt lat="49.066764973104" lon="8.80451194010675">
<ele>184.60000000000002</ele>
<time>2023-05-17T10:20:13Z</time>
</trkpt>
<trkpt lat="49.066817946732044" lon="8.804494924843311">
<ele>184.60000000000002</ele>
<time>2023-05-17T10:20:14Z</time>
</trkpt>
<trkpt lat="49.066862957552075" lon="8.804461983963847">
<ele>184.60000000000002</ele>
<time>2023-05-17T10:20:15Z</time>
</trkpt>
<trkpt lat="49.066902939230204" lon="8.804417978972197">
<ele>184.60000000000002</ele>
<time>2023-05-17T10:20:16Z</time>
</trkpt>
<trkpt lat="49.06693194061518" lon="8.80436492152512">
<ele>184.60000000000002</ele>
<time>2023-05-17T10:20:17Z</time>
</trkpt>
<trkpt lat="49.06695691868663" lon="8.804307924583554">
<ele>184.60000000000002</ele>
<time>2023-05-17T10:20:18Z</time>
</trkpt>
<trkpt lat="49.06698298640549" lon="8.804251933470368">
<ele>184.39999999999998</ele>
<time>2023-05-17T10:20:19Z</time>
</trkpt>
<trkpt lat="49.06700796447694" lon="8.804196948185563">
<ele>184.39999999999998</ele>
<time>2023-05-17T10:20:20Z</time>
</trkpt>
<trkpt lat="49.067031936720014" lon="8.804141962900758">
<ele>184.20000000000005</ele>
<time>2023-05-17T10:20:21Z</time>
</trkpt>
<trkpt lat="49.067051969468594" lon="8.804094940423965">
<ele>184.20000000000005</ele>
<time>2023-05-17T10:20:22Z</time>
</trkpt>
<trkpt lat="49.067076947540045" lon="8.804047917947173">
<ele>184.20000000000005</ele>
<time>2023-05-17T10:20:23Z</time>
</trkpt>
<trkpt lat="49.067097986117005" lon="8.804006930440664">
<ele>184</ele>
<time>2023-05-17T10:20:24Z</time>
</trkpt>
<trkpt lat="49.067119946703315" lon="8.803961919620633">
<ele>184</ele>
<time>2023-05-17T10:20:25Z</time>
</trkpt>
<trkpt lat="49.067144924774766" lon="8.803912969306111">
<ele>184</ele>
<time>2023-05-17T10:20:26Z</time>
</trkpt>
<trkpt lat="49.06716998666525" lon="8.803862929344177">
<ele>184</ele>
<time>2023-05-17T10:20:27Z</time>
</trkpt>
<trkpt lat="49.0671949647367" lon="8.803812973201275">
<ele>184</ele>
<time>2023-05-17T10:20:28Z</time>
</trkpt>
<trkpt lat="49.06722195446491" lon="8.803754970431328">
<ele>184</ele>
<time>2023-05-17T10:20:29Z</time>
</trkpt>
<trkpt lat="49.067249950021505" lon="8.803692944347858">
<ele>184</ele>
<time>2023-05-17T10:20:30Z</time>
</trkpt>
<trkpt lat="49.0672779455781" lon="8.80363292992115">
<ele>184</ele>
<time>2023-05-17T10:20:31Z</time>
</trkpt>
<trkpt lat="49.06730191782117" lon="8.803581967949867">
<ele>184</ele>
<time>2023-05-17T10:20:32Z</time>
</trkpt>
<trkpt lat="49.06732295639813" lon="8.803531927987933">
<ele>184</ele>
<time>2023-05-17T10:20:33Z</time>
</trkpt>
<trkpt lat="49.06734198331833" lon="8.803482977673411">
<ele>184</ele>
<time>2023-05-17T10:20:34Z</time>
</trkpt>
<trkpt lat="49.06736293807626" lon="8.803431931883097">
<ele>184</ele>
<time>2023-05-17T10:20:35Z</time>
</trkpt>
<trkpt lat="49.0673849824816" lon="8.803377952426672">
<ele>184</ele>
<time>2023-05-17T10:20:36Z</time>
</trkpt>
<trkpt lat="49.06740694306791" lon="8.803329924121499">
<ele>184</ele>
<time>2023-05-17T10:20:37Z</time>
</trkpt>
<trkpt lat="49.06742496415973" lon="8.80328793078661">
<ele>184</ele>
<time>2023-05-17T10:20:38Z</time>
</trkpt>
<trkpt lat="49.06744499690831" lon="8.803249960765243">
<ele>184</ele>
<time>2023-05-17T10:20:39Z</time>
</trkpt>
<trkpt lat="49.06745991669595" lon="8.803217941895127">
<ele>184</ele>
<time>2023-05-17T10:20:40Z</time>
</trkpt>
<trkpt lat="49.06747198663652" lon="8.803191957995296">
<ele>184</ele>
<time>2023-05-17T10:20:41Z</time>
</trkpt>
<trkpt lat="49.067482966929674" lon="8.803162956610322">
<ele>184.20000000000005</ele>
<time>2023-05-17T10:20:42Z</time>
</trkpt>
<trkpt lat="49.06749294139445" lon="8.803134961053729">
<ele>184.20000000000005</ele>
<time>2023-05-17T10:20:43Z</time>
</trkpt>
<trkpt lat="49.067502999678254" lon="8.803106965497136">
<ele>184.20000000000005</ele>
<time>2023-05-17T10:20:44Z</time>
</trkpt>
<trkpt lat="49.06751993112266" lon="8.80307494662702">
<ele>184.20000000000005</ele>
<time>2023-05-17T10:20:45Z</time>
</trkpt>
<trkpt lat="49.06753996387124" lon="8.803046951070428">
<ele>184.39999999999998</ele>
<time>2023-05-17T10:20:46Z</time>
</trkpt>
<trkpt lat="49.06756494194269" lon="8.803021972998977">
<ele>184.39999999999998</ele>
<time>2023-05-17T10:20:47Z</time>
</trkpt>
<trkpt lat="49.06758992001414" lon="8.802996994927526">
<ele>184.39999999999998</ele>
<time>2023-05-17T10:20:48Z</time>
</trkpt>
<trkpt lat="49.067612970247865" lon="8.802961958572268">
<ele>184.39999999999998</ele>
<time>2023-05-17T10:20:49Z</time>
</trkpt>
<trkpt lat="49.067636942490935" lon="8.802919965237379">
<ele>184.60000000000002</ele>
<time>2023-05-17T10:20:50Z</time>
</trkpt>
<trkpt lat="49.06765295192599" lon="8.802871936932206">
<ele>184.60000000000002</ele>
<time>2023-05-17T10:20:51Z</time>
</trkpt>
<trkpt lat="49.06766694970429" lon="8.80281493999064">
<ele>184.60000000000002</ele>
<time>2023-05-17T10:20:52Z</time>
</trkpt>
<trkpt lat="49.067674996331334" lon="8.802764983847737">
<ele>184.60000000000002</ele>
<time>2023-05-17T10:20:53Z</time>
</trkpt>
<trkpt lat="49.06768195331097" lon="8.80270798690617">
<ele>184.60000000000002</ele>
<time>2023-05-17T10:20:54Z</time>
</trkpt>
<trkpt lat="49.06769293360412" lon="8.802647972479463">
<ele>184.79999999999995</ele>
<time>2023-05-17T10:20:55Z</time>
</trkpt>
<trkpt lat="49.06770994886756" lon="8.802589969709516">
<ele>184.79999999999995</ele>
<time>2023-05-17T10:20:56Z</time>
</trkpt>
<trkpt lat="49.06773299910128" lon="8.802531966939569">
<ele>184.79999999999995</ele>
<time>2023-05-17T10:20:57Z</time>
</trkpt>
<trkpt lat="49.06775797717273" lon="8.80247195251286">
<ele>184.79999999999995</ele>
<time>2023-05-17T10:20:58Z</time>
</trkpt>
<trkpt lat="49.067784966900945" lon="8.80240699276328">
<ele>185</ele>
<time>2023-05-17T10:20:59Z</time>
</trkpt>
<trkpt lat="49.067807933315635" lon="8.802337925881147">
<ele>185</ele>
<time>2023-05-17T10:21:00Z</time>
</trkpt>
<trkpt lat="49.06783198937774" lon="8.802269948646426">
<ele>185.20000000000005</ele>
<time>2023-05-17T10:21:01Z</time>
</trkpt>
<trkpt lat="49.06785495579243" lon="8.802204988896847">
<ele>185.20000000000005</ele>
<time>2023-05-17T10:21:02Z</time>
</trkpt>
<trkpt lat="49.06788496300578" lon="8.802136927843094">
<ele>185.20000000000005</ele>
<time>2023-05-17T10:21:03Z</time>
</trkpt>
<trkpt lat="49.067912958562374" lon="8.80206492729485">
<ele>185.39999999999998</ele>
<time>2023-05-17T10:21:04Z</time>
</trkpt>
<trkpt lat="49.06794195994735" lon="8.801987981423736">
<ele>185.39999999999998</ele>
<time>2023-05-17T10:21:05Z</time>
</trkpt>
<trkpt lat="49.06797297298908" lon="8.801909945905209">
<ele>185.39999999999998</ele>
<time>2023-05-17T10:21:06Z</time>
</trkpt>
<trkpt lat="49.06800792552531" lon="8.801832916215062">
<ele>185.39999999999998</ele>
<time>2023-05-17T10:21:07Z</time>
</trkpt>
<trkpt lat="49.068042961880565" lon="8.801754964515567">
<ele>185.39999999999998</ele>
<time>2023-05-17T10:21:08Z</time>
</trkpt>
<trkpt lat="49.06807699240744" lon="8.801681958138943">
<ele>185.39999999999998</ele>
<time>2023-05-17T10:21:09Z</time>
</trkpt>
<trkpt lat="49.068107921630144" lon="8.80161196924746">
<ele>185.39999999999998</ele>
<time>2023-05-17T10:21:10Z</time>
</trkpt>
<trkpt lat="49.0681429579854" lon="8.801542986184359">
<ele>185.39999999999998</ele>
<time>2023-05-17T10:21:11Z</time>
</trkpt>
<trkpt lat="49.06817799434066" lon="8.801476936787367">
<ele>185.60000000000002</ele>
<time>2023-05-17T10:21:12Z</time>
</trkpt>
<trkpt lat="49.06821294687688" lon="8.801411977037787">
<ele>185.60000000000002</ele>
<time>2023-05-17T10:21:13Z</time>
</trkpt>
<trkpt lat="49.06824295409024" lon="8.801344921812415">
<ele>185.60000000000002</ele>
<time>2023-05-17T10:21:14Z</time>
</trkpt>
<trkpt lat="49.06827296130359" lon="8.801277950406075">
<ele>185.60000000000002</ele>
<time>2023-05-17T10:21:15Z</time>
</trkpt>
<trkpt lat="49.068299951031804" lon="8.801209973171353">
<ele>185.60000000000002</ele>
<time>2023-05-17T10:21:16Z</time>
</trkpt>
<trkpt lat="49.0683279465884" lon="8.801144929602742">
<ele>185.60000000000002</ele>
<time>2023-05-17T10:21:17Z</time>
</trkpt>
<trkpt lat="49.06835694797337" lon="8.801077958196402">
<ele>185.60000000000002</ele>
<time>2023-05-17T10:21:18Z</time>
</trkpt>
<trkpt lat="49.06838192604482" lon="8.801012998446822">
<ele>185.60000000000002</ele>
<time>2023-05-17T10:21:19Z</time>
</trkpt>
<trkpt lat="49.068406987935305" lon="8.800951978191733">
<ele>185.60000000000002</ele>
<time>2023-05-17T10:21:20Z</time>
</trkpt>
<trkpt lat="49.068432971835136" lon="8.800887940451503">
<ele>185.60000000000002</ele>
<time>2023-05-17T10:21:21Z</time>
</trkpt>
<trkpt lat="49.06845794990659" lon="8.800822980701923">
<ele>185.60000000000002</ele>
<time>2023-05-17T10:21:22Z</time>
</trkpt>
<trkpt lat="49.06848795711994" lon="8.800757937133312">
<ele>185.60000000000002</ele>
<time>2023-05-17T10:21:23Z</time>
</trkpt>
<trkpt lat="49.068517964333296" lon="8.80068794824183">
<ele>185.60000000000002</ele>
<time>2023-05-17T10:21:24Z</time>
</trkpt>
<trkpt lat="49.06854696571827" lon="8.800614941865206">
<ele>185.60000000000002</ele>
<time>2023-05-17T10:21:25Z</time>
</trkpt>
<trkpt lat="49.06856993213296" lon="8.800544952973723">
<ele>185.60000000000002</ele>
<time>2023-05-17T10:21:26Z</time>
</trkpt>
<trkpt lat="49.0685869473964" lon="8.800467923283577">
<ele>185.60000000000002</ele>
<time>2023-05-17T10:21:27Z</time>
</trkpt>
<trkpt lat="49.06859298236668" lon="8.800392989069223">
<ele>185.60000000000002</ele>
<time>2023-05-17T10:21:28Z</time>
</trkpt>
<trkpt lat="49.068584935739636" lon="8.800327945500612">
<ele>185.60000000000002</ele>
<time>2023-05-17T10:21:29Z</time>
</trkpt>
<trkpt lat="49.0685679204762" lon="8.800269942730665">
<ele>185.60000000000002</ele>
<time>2023-05-17T10:21:30Z</time>
</trkpt>
<trkpt lat="49.06854495406151" lon="8.80021495744586">
<ele>185.60000000000002</ele>
<time>2023-05-17T10:21:31Z</time>
</trkpt>
<trkpt lat="49.0685229934752" lon="8.800164917483926">
<ele>185.60000000000002</ele>
<time>2023-05-17T10:21:32Z</time>
</trkpt>
<trkpt lat="49.06850195489824" lon="8.800124935805798">
<ele>185.60000000000002</ele>
<time>2023-05-17T10:21:33Z</time>
</trkpt>
<trkpt lat="49.06847999431193" lon="8.800089983269572">
<ele>185.60000000000002</ele>
<time>2023-05-17T10:21:34Z</time>
</trkpt>
<trkpt lat="49.06845996156335" lon="8.800057964399457">
<ele>185.60000000000002</ele>
<time>2023-05-17T10:21:35Z</time>
</trkpt>
<trkpt lat="49.06843992881477" lon="8.80002192221582">
<ele>185.60000000000002</ele>
<time>2023-05-17T10:21:36Z</time>
</trkpt>
<trkpt lat="49.06842299737036" lon="8.799986969679594">
<ele>185.60000000000002</ele>
<time>2023-05-17T10:21:37Z</time>
</trkpt>
<trkpt lat="49.068409921601415" lon="8.799949921667576">
<ele>185.60000000000002</ele>
<time>2023-05-17T10:21:38Z</time>
</trkpt>
<trkpt lat="49.06840296462178" lon="8.799911951646209">
<ele>185.60000000000002</ele>
<time>2023-05-17T10:21:39Z</time>
</trkpt>
<trkpt lat="49.06840296462178" lon="8.79986995831132">
<ele>185.60000000000002</ele>
<time>2023-05-17T10:21:40Z</time>
</trkpt>
<trkpt lat="49.068412939086556" lon="8.799836933612823">
<ele>185.79999999999995</ele>
<time>2023-05-17T10:21:41Z</time>
</trkpt>
<trkpt lat="49.068431966006756" lon="8.79980793222785">
<ele>185.79999999999995</ele>
<time>2023-05-17T10:21:42Z</time>
</trkpt>
<trkpt lat="49.068454932421446" lon="8.799782954156399">
<ele>185.79999999999995</ele>
<time>2023-05-17T10:21:43Z</time>
</trkpt>
<trkpt lat="49.06847798265517" lon="8.799762921407819">
<ele>185.79999999999995</ele>
<time>2023-05-17T10:21:44Z</time>
</trkpt>
<trkpt lat="49.06850296072662" lon="8.799746995791793">
<ele>185.79999999999995</ele>
<time>2023-05-17T10:21:45Z</time>
</trkpt>
<trkpt lat="49.06852995045483" lon="8.799734925851226">
<ele>186</ele>
<time>2023-05-17T10:21:46Z</time>
</trkpt>
<trkpt lat="49.068557946011424" lon="8.799724951386452">
<ele>186</ele>
<time>2023-05-17T10:21:47Z</time>
</trkpt>
<trkpt lat="49.068584935739636" lon="8.79972293972969">
<ele>186</ele>
<time>2023-05-17T10:21:48Z</time>
</trkpt>
<trkpt lat="49.06860999763012" lon="8.799739954993129">
<ele>186</ele>
<time>2023-05-17T10:21:49Z</time>
</trkpt>
<trkpt lat="49.06863992102444" lon="8.799759987741709">
<ele>186</ele>
<time>2023-05-17T10:21:50Z</time>
</trkpt>
<trkpt lat="49.068666994571686" lon="8.799786977469921">
<ele>186</ele>
<time>2023-05-17T10:21:51Z</time>
</trkpt>
<trkpt lat="49.06869499012828" lon="8.799817990511656">
<ele>186</ele>
<time>2023-05-17T10:21:52Z</time>
</trkpt>
<trkpt lat="49.06872692517936" lon="8.79984799772501">
<ele>186</ele>
<time>2023-05-17T10:21:53Z</time>
</trkpt>
<trkpt lat="49.06876196153462" lon="8.79987196996808">
<ele>186</ele>
<time>2023-05-17T10:21:54Z</time>
</trkpt>
<trkpt lat="49.068799931555986" lon="8.799879932776093">
<ele>186</ele>
<time>2023-05-17T10:21:55Z</time>
</trkpt>
<trkpt lat="49.068839997053146" lon="8.799867946654558">
<ele>186</ele>
<time>2023-05-17T10:21:56Z</time>
</trkpt>
<trkpt lat="49.068879978731275" lon="8.799841962754726">
<ele>185.79999999999995</ele>
<time>2023-05-17T10:21:57Z</time>
</trkpt>
<trkpt lat="49.06891794875264" lon="8.79980793222785">
<ele>185.79999999999995</ele>
<time>2023-05-17T10:21:58Z</time>
</trkpt>
<trkpt lat="49.06895692460239" lon="8.799769962206483">
<ele>185.79999999999995</ele>
<time>2023-05-17T10:21:59Z</time>
</trkpt>
<trkpt lat="49.06899799592793" lon="8.799727968871593">
<ele>185.79999999999995</ele>
<time>2023-05-17T10:22:00Z</time>
</trkpt>
<trkpt lat="49.06903998926282" lon="8.799684969708323">
<ele>185.79999999999995</ele>
<time>2023-05-17T10:22:01Z</time>
</trkpt>
<trkpt lat="49.06908298842609" lon="8.79963492974639">
<ele>185.79999999999995</ele>
<time>2023-05-17T10:22:02Z</time>
</trkpt>
<trkpt lat="49.069119952619076" lon="8.799581956118345">
<ele>185.79999999999995</ele>
<time>2023-05-17T10:22:03Z</time>
</trkpt>
<trkpt lat="49.06915691681206" lon="8.799529988318682">
<ele>185.79999999999995</ele>
<time>2023-05-17T10:22:04Z</time>
</trkpt>
<trkpt lat="49.06919195316732" lon="8.799481960013509">
<ele>185.79999999999995</ele>
<time>2023-05-17T10:22:05Z</time>
</trkpt>
<trkpt lat="49.06922799535096" lon="8.799436949193478">
<ele>185.79999999999995</ele>
<time>2023-05-17T10:22:06Z</time>
</trkpt>
<trkpt lat="49.06926294788718" lon="8.799391938373446">
<ele>185.79999999999995</ele>
<time>2023-05-17T10:22:07Z</time>
</trkpt>
<trkpt lat="49.0692999958992" lon="8.799344999715686">
<ele>185.79999999999995</ele>
<time>2023-05-17T10:22:08Z</time>
</trkpt>
<trkpt lat="49.06933796592057" lon="8.799297977238894">
<ele>185.79999999999995</ele>
<time>2023-05-17T10:22:09Z</time>
</trkpt>
<trkpt lat="49.069374930113554" lon="8.79924994893372">
<ele>185.79999999999995</ele>
<time>2023-05-17T10:22:10Z</time>
</trkpt>
<trkpt lat="49.069414995610714" lon="8.799199992790818">
<ele>185.79999999999995</ele>
<time>2023-05-17T10:22:11Z</time>
</trkpt>
<trkpt lat="49.06945497728884" lon="8.799151964485645">
<ele>185.79999999999995</ele>
<time>2023-05-17T10:22:12Z</time>
</trkpt>
<trkpt lat="49.06949495896697" lon="8.79909798502922">
<ele>185.79999999999995</ele>
<time>2023-05-17T10:22:13Z</time>
</trkpt>
<trkpt lat="49.06953695230186" lon="8.799044927582145">
<ele>185.79999999999995</ele>
<time>2023-05-17T10:22:14Z</time>
</trkpt>
<trkpt lat="49.06957793980837" lon="8.7989919539541">
<ele>185.79999999999995</ele>
<time>2023-05-17T10:22:15Z</time>
</trkpt>
<trkpt lat="49.0696179214865" lon="8.798936968669295">
<ele>185.79999999999995</ele>
<time>2023-05-17T10:22:16Z</time>
</trkpt>
<trkpt lat="49.06965999864042" lon="8.798876954242587">
<ele>185.79999999999995</ele>
<time>2023-05-17T10:22:17Z</time>
</trkpt>
<trkpt lat="49.06970299780369" lon="8.798814928159118">
<ele>185.79999999999995</ele>
<time>2023-05-17T10:22:18Z</time>
</trkpt>
<trkpt lat="49.06974691897631" lon="8.7987519800663">
<ele>185.79999999999995</ele>
<time>2023-05-17T10:22:19Z</time>
</trkpt>
<trkpt lat="49.06979192979634" lon="8.798691965639591">
<ele>185.79999999999995</ele>
<time>2023-05-17T10:22:20Z</time>
</trkpt>
<trkpt lat="49.06983492895961" lon="8.798631951212883">
<ele>185.60000000000002</ele>
<time>2023-05-17T10:22:21Z</time>
</trkpt>
<trkpt lat="49.0698769222945" lon="8.798569925129414">
<ele>185.60000000000002</ele>
<time>2023-05-17T10:22:22Z</time>
</trkpt>
<trkpt lat="49.069912964478135" lon="8.798512928187847">
<ele>185.60000000000002</ele>
<time>2023-05-17T10:22:23Z</time>
</trkpt>
<trkpt lat="49.069954957813025" lon="8.7984549254179">
<ele>185.60000000000002</ele>
<time>2023-05-17T10:22:24Z</time>
</trkpt>
<trkpt lat="49.069996951147914" lon="8.798396922647953">
<ele>185.39999999999998</ele>
<time>2023-05-17T10:22:25Z</time>
</trkpt>
<trkpt lat="49.07003492116928" lon="8.798341937363148">
<ele>185.39999999999998</ele>
<time>2023-05-17T10:22:26Z</time>
</trkpt>
<trkpt lat="49.0700719691813" lon="8.798287957906723">
<ele>185.39999999999998</ele>
<time>2023-05-17T10:22:27Z</time>
</trkpt>
<trkpt lat="49.07011295668781" lon="8.798232972621918">
<ele>185.20000000000005</ele>
<time>2023-05-17T10:22:28Z</time>
</trkpt>
<trkpt lat="49.070152938365936" lon="8.79817496985197">
<ele>185.20000000000005</ele>
<time>2023-05-17T10:22:29Z</time>
</trkpt>
<trkpt lat="49.070189986377954" lon="8.798114955425262">
<ele>185.20000000000005</ele>
<time>2023-05-17T10:22:30Z</time>
</trkpt>
<trkpt lat="49.07022795639932" lon="8.798062987625599">
<ele>185.20000000000005</ele>
<time>2023-05-17T10:22:31Z</time>
</trkpt>
<trkpt lat="49.07026793807745" lon="8.798007918521762">
<ele>185.20000000000005</ele>
<time>2023-05-17T10:22:32Z</time>
</trkpt>
<trkpt lat="49.07030498608947" lon="8.797954944893718">
<ele>185.20000000000005</ele>
<time>2023-05-17T10:22:33Z</time>
</trkpt>
<trkpt lat="49.07034697942436" lon="8.79789694212377">
<ele>185.20000000000005</ele>
<time>2023-05-17T10:22:34Z</time>
</trkpt>
<trkpt lat="49.070386961102486" lon="8.797832988202572">
<ele>185.20000000000005</ele>
<time>2023-05-17T10:22:35Z</time>
</trkpt>
<trkpt lat="49.07042493112385" lon="8.797774985432625">
<ele>185.39999999999998</ele>
<time>2023-05-17T10:22:36Z</time>
</trkpt>
<trkpt lat="49.07046499662101" lon="8.797719916328788">
<ele>185.39999999999998</ele>
<time>2023-05-17T10:22:37Z</time>
</trkpt>
<trkpt lat="49.070501960814" lon="8.797672977671027">
<ele>185.39999999999998</ele>
<time>2023-05-17T10:22:38Z</time>
</trkpt>
<trkpt lat="49.070536997169256" lon="8.797627966850996">
<ele>185.39999999999998</ele>
<time>2023-05-17T10:22:39Z</time>
</trkpt>
<trkpt lat="49.07056792639196" lon="8.797582956030965">
<ele>185.60000000000002</ele>
<time>2023-05-17T10:22:40Z</time>
</trkpt>
<trkpt lat="49.070599945262074" lon="8.797532999888062">
<ele>185.60000000000002</ele>
<time>2023-05-17T10:22:41Z</time>
</trkpt>
<trkpt lat="49.07063799910247" lon="8.79748698323965">
<ele>185.60000000000002</ele>
<time>2023-05-17T10:22:42Z</time>
</trkpt>
<trkpt lat="49.07068192027509" lon="8.797437949106097">
<ele>185.60000000000002</ele>
<time>2023-05-17T10:22:43Z</time>
</trkpt>
<trkpt lat="49.07072198577225" lon="8.797386987134814">
<ele>185.60000000000002</ele>
<time>2023-05-17T10:22:44Z</time>
</trkpt>
<trkpt lat="49.07076196745038" lon="8.797326972708106">
<ele>185.60000000000002</ele>
<time>2023-05-17T10:22:45Z</time>
</trkpt>
<trkpt lat="49.07080496661365" lon="8.7972719874233">
<ele>185.60000000000002</ele>
<time>2023-05-17T10:22:46Z</time>
</trkpt>
<trkpt lat="49.07084796577692" lon="8.797217924147844">
<ele>185.60000000000002</ele>
<time>2023-05-17T10:22:47Z</time>
</trkpt>
<trkpt lat="49.07089297659695" lon="8.7971649505198">
<ele>185.60000000000002</ele>
<time>2023-05-17T10:22:48Z</time>
</trkpt>
<trkpt lat="49.070939999073744" lon="8.797111976891756">
<ele>185.60000000000002</ele>
<time>2023-05-17T10:22:49Z</time>
</trkpt>
<trkpt lat="49.07098199240863" lon="8.797057997435331">
<ele>185.39999999999998</ele>
<time>2023-05-17T10:22:50Z</time>
</trkpt>
<trkpt lat="49.07102197408676" lon="8.797006951645017">
<ele>185.39999999999998</ele>
<time>2023-05-17T10:22:51Z</time>
</trkpt>
<trkpt lat="49.07105994410813" lon="8.796954983845353">
<ele>185.20000000000005</ele>
<time>2023-05-17T10:22:52Z</time>
</trkpt>
<trkpt lat="49.07109799794853" lon="8.796902932226658">
<ele>185</ele>
<time>2023-05-17T10:22:53Z</time>
</trkpt>
<trkpt lat="49.071137979626656" lon="8.796851970255375">
<ele>184.79999999999995</ele>
<time>2023-05-17T10:22:54Z</time>
</trkpt>
<trkpt lat="49.0711769554764" lon="8.796792961657047">
<ele>184.60000000000002</ele>
<time>2023-05-17T10:22:55Z</time>
</trkpt>
<trkpt lat="49.07121492549777" lon="8.796736970543861">
<ele>184.20000000000005</ele>
<time>2023-05-17T10:22:56Z</time>
</trkpt>
<trkpt lat="49.07125691883266" lon="8.796679973602295">
<ele>184</ele>
<time>2023-05-17T10:22:57Z</time>
</trkpt>
<trkpt lat="49.0712979901582" lon="8.7966279219836">
<ele>183.79999999999995</ele>
<time>2023-05-17T10:22:58Z</time>
</trkpt>
<trkpt lat="49.07133696600795" lon="8.796576960012317">
<ele>183.39999999999998</ele>
<time>2023-05-17T10:22:59Z</time>
</trkpt>
<trkpt lat="49.07137191854417" lon="8.796524992212653">
<ele>183.20000000000005</ele>
<time>2023-05-17T10:23:00Z</time>
</trkpt>
<trkpt lat="49.07140494324267" lon="8.79647696390748">
<ele>182.79999999999995</ele>
<time>2023-05-17T10:23:01Z</time>
</trkpt>
<trkpt lat="49.071437967941165" lon="8.796426923945546">
<ele>182.60000000000002</ele>
<time>2023-05-17T10:23:02Z</time>
</trkpt>
<trkpt lat="49.07147493213415" lon="8.796377973631024">
<ele>182.39999999999998</ele>
<time>2023-05-17T10:23:03Z</time>
</trkpt>
<trkpt lat="49.07151298597455" lon="8.796329945325851">
<ele>182</ele>
<time>2023-05-17T10:23:04Z</time>
</trkpt>
<trkpt lat="49.07154995016754" lon="8.796279989182949">
<ele>181.79999999999995</ele>
<time>2023-05-17T10:23:05Z</time>
</trkpt>
<trkpt lat="49.071584986522794" lon="8.796226931735873">
<ele>181.79999999999995</ele>
<time>2023-05-17T10:23:06Z</time>
</trkpt>
<trkpt lat="49.07161792740226" lon="8.796171946451068">
<ele>181.60000000000002</ele>
<time>2023-05-17T10:23:07Z</time>
</trkpt>
<trkpt lat="49.07164692878723" lon="8.79611293785274">
<ele>181.39999999999998</ele>
<time>2023-05-17T10:23:08Z</time>
</trkpt>
<trkpt lat="49.07166696153581" lon="8.79604797810316">
<ele>181.39999999999998</ele>
<time>2023-05-17T10:23:09Z</time>
</trkpt>
<trkpt lat="49.07168297097087" lon="8.795979917049408">
<ele>181.20000000000005</ele>
<time>2023-05-17T10:23:10Z</time>
</trkpt>
<trkpt lat="49.07169998623431" lon="8.795909928157926">
<ele>181.20000000000005</ele>
<time>2023-05-17T10:23:11Z</time>
</trkpt>
<trkpt lat="49.07172194682062" lon="8.795842956751585">
<ele>181.20000000000005</ele>
<time>2023-05-17T10:23:12Z</time>
</trkpt>
<trkpt lat="49.071739967912436" lon="8.795771962031722">
<ele>181</ele>
<time>2023-05-17T10:23:13Z</time>
</trkpt>
<trkpt lat="49.07175295986235" lon="8.79570197314024">
<ele>181</ele>
<time>2023-05-17T10:23:14Z</time>
</trkpt>
<trkpt lat="49.07176695764065" lon="8.795634917914867">
<ele>181</ele>
<time>2023-05-17T10:23:15Z</time>
</trkpt>
<trkpt lat="49.071779949590564" lon="8.79557196982205">
<ele>181</ele>
<time>2023-05-17T10:23:16Z</time>
</trkpt>
<trkpt lat="49.07179495319724" lon="8.79550994373858">
<ele>181</ele>
<time>2023-05-17T10:23:17Z</time>
</trkpt>
<trkpt lat="49.07182194292545" lon="8.795456970110536">
<ele>181</ele>
<time>2023-05-17T10:23:18Z</time>
</trkpt>
<trkpt lat="49.07185999676585" lon="8.795416988432407">
<ele>181</ele>
<time>2023-05-17T10:23:19Z</time>
</trkpt>
<trkpt lat="49.07190492376685" lon="8.795407935976982">
<ele>181</ele>
<time>2023-05-17T10:23:20Z</time>
</trkpt>
<trkpt lat="49.071954963728786" lon="8.795421933755279">
<ele>181</ele>
<time>2023-05-17T10:23:21Z</time>
</trkpt>
<trkpt lat="49.07200491987169" lon="8.795441966503859">
<ele>180.79999999999995</ele>
<time>2023-05-17T10:23:22Z</time>
</trkpt>
<trkpt lat="49.07205495983362" lon="8.795444983989">
<ele>180.79999999999995</ele>
<time>2023-05-17T10:23:23Z</time>
</trkpt>
<trkpt lat="49.072102988138795" lon="8.79542293958366">
<ele>180.79999999999995</ele>
<time>2023-05-17T10:23:24Z</time>
</trkpt>
<trkpt lat="49.07214196398854" lon="8.795384969562292">
<ele>180.79999999999995</ele>
<time>2023-05-17T10:23:25Z</time>
</trkpt>
<trkpt lat="49.07217993400991" lon="8.795332917943597">
<ele>180.79999999999995</ele>
<time>2023-05-17T10:23:26Z</time>
</trkpt>
<trkpt lat="49.07221698202193" lon="8.795274998992682">
<ele>180.79999999999995</ele>
<time>2023-05-17T10:23:27Z</time>
</trkpt>
<trkpt lat="49.07225193455815" lon="8.795216996222734">
<ele>180.79999999999995</ele>
<time>2023-05-17T10:23:28Z</time>
</trkpt>
<trkpt lat="49.07228697091341" lon="8.79516494460404">
<ele>180.79999999999995</ele>
<time>2023-05-17T10:23:29Z</time>
</trkpt>
<trkpt lat="49.07232695259154" lon="8.795111970975995">
<ele>180.79999999999995</ele>
<time>2023-05-17T10:23:30Z</time>
</trkpt>
<trkpt lat="49.072362994775176" lon="8.795054974034429">
<ele>180.79999999999995</ele>
<time>2023-05-17T10:23:31Z</time>
</trkpt>
<trkpt lat="49.07239694148302" lon="8.795002922415733">
<ele>180.79999999999995</ele>
<time>2023-05-17T10:23:32Z</time>
</trkpt>
<trkpt lat="49.072426948696375" lon="8.79494994878769">
<ele>180.79999999999995</ele>
<time>2023-05-17T10:23:33Z</time>
</trkpt>
<trkpt lat="49.07245494425297" lon="8.794899992644787">
<ele>180.79999999999995</ele>
<time>2023-05-17T10:23:34Z</time>
</trkpt>
<trkpt lat="49.07248696312308" lon="8.79484492354095">
<ele>180.79999999999995</ele>
<time>2023-05-17T10:23:35Z</time>
</trkpt>
<trkpt lat="49.07251797616482" lon="8.794789938256145">
<ele>181</ele>
<time>2023-05-17T10:23:36Z</time>
</trkpt>
<trkpt lat="49.07254798337817" lon="8.79473495297134">
<ele>181</ele>
<time>2023-05-17T10:23:37Z</time>
</trkpt>
<trkpt lat="49.072579918429255" lon="8.794684996828437">
<ele>181</ele>
<time>2023-05-17T10:23:38Z</time>
</trkpt>
<trkpt lat="49.07261193729937" lon="8.794634956866503">
<ele>181</ele>
<time>2023-05-17T10:23:39Z</time>
</trkpt>
<trkpt lat="49.072639932855964" lon="8.79458793438971">
<ele>181</ele>
<time>2023-05-17T10:23:40Z</time>
</trkpt>
<trkpt lat="49.07266792841256" lon="8.794541917741299">
<ele>181</ele>
<time>2023-05-17T10:23:41Z</time>
</trkpt>
<trkpt lat="49.07269994728267" lon="8.794494979083538">
<ele>181</ele>
<time>2023-05-17T10:23:42Z</time>
</trkpt>
<trkpt lat="49.07273297198117" lon="8.794447956606746">
<ele>181</ele>
<time>2023-05-17T10:23:43Z</time>
</trkpt>
<trkpt lat="49.07276197336614" lon="8.794404957443476">
<ele>181</ele>
<time>2023-05-17T10:23:44Z</time>
</trkpt>
<trkpt lat="49.07279692590237" lon="8.794354917481542">
<ele>181</ele>
<time>2023-05-17T10:23:45Z</time>
</trkpt>
<trkpt lat="49.07283699139953" lon="8.794296998530626">
<ele>181</ele>
<time>2023-05-17T10:23:46Z</time>
</trkpt>
<trkpt lat="49.07286993227899" lon="8.794247964397073">
<ele>181</ele>
<time>2023-05-17T10:23:47Z</time>
</trkpt>
<trkpt lat="49.07291192561388" lon="8.794192979112267">
<ele>181</ele>
<time>2023-05-17T10:23:48Z</time>
</trkpt>
<trkpt lat="49.07295299693942" lon="8.794141933321953">
<ele>181</ele>
<time>2023-05-17T10:23:49Z</time>
</trkpt>
<trkpt lat="49.07299197278917" lon="8.794086948037148">
<ele>181</ele>
<time>2023-05-17T10:23:50Z</time>
</trkpt>
<trkpt lat="49.073026925325394" lon="8.794029951095581">
<ele>180.79999999999995</ele>
<time>2023-05-17T10:23:51Z</time>
</trkpt>
<trkpt lat="49.07306497916579" lon="8.793976977467537">
<ele>180.79999999999995</ele>
<time>2023-05-17T10:23:52Z</time>
</trkpt>
<trkpt lat="49.07309498637915" lon="8.793924925848842">
<ele>180.60000000000002</ele>
<time>2023-05-17T10:23:53Z</time>
</trkpt>
<trkpt lat="49.07312993891537" lon="8.793866923078895">
<ele>180.60000000000002</ele>
<time>2023-05-17T10:23:54Z</time>
</trkpt>
<trkpt lat="49.07316799275577" lon="8.793809926137328">
<ele>180.60000000000002</ele>
<time>2023-05-17T10:23:55Z</time>
</trkpt>
<trkpt lat="49.0732079744339" lon="8.793744966387749">
<ele>180.39999999999998</ele>
<time>2023-05-17T10:23:56Z</time>
</trkpt>
<trkpt lat="49.07324695028365" lon="8.79368495196104">
<ele>180.39999999999998</ele>
<time>2023-05-17T10:23:57Z</time>
</trkpt>
<trkpt lat="49.073282992467284" lon="8.793624937534332">
<ele>180.20000000000005</ele>
<time>2023-05-17T10:23:58Z</time>
</trkpt>
<trkpt lat="49.07331299968064" lon="8.793564923107624">
<ele>180</ele>
<time>2023-05-17T10:23:59Z</time>
</trkpt>
<trkpt lat="49.073349963873625" lon="8.793499963358045">
<ele>179.79999999999995</ele>
<time>2023-05-17T10:24:00Z</time>
</trkpt>
<trkpt lat="49.07338491640985" lon="8.793434919789433">
<ele>179.60000000000002</ele>
<time>2023-05-17T10:24:01Z</time>
</trkpt>
<trkpt lat="49.073414923623204" lon="8.793371971696615">
<ele>179.60000000000002</ele>
<time>2023-05-17T10:24:02Z</time>
</trkpt>
<trkpt lat="49.07344493083656" lon="8.79331799224019">
<ele>179.39999999999998</ele>
<time>2023-05-17T10:24:03Z</time>
</trkpt>
<trkpt lat="49.07347493804991" lon="8.793262923136353">
<ele>179.20000000000005</ele>
<time>2023-05-17T10:24:04Z</time>
</trkpt>
<trkpt lat="49.073501927778125" lon="8.793214978650212">
<ele>179.20000000000005</ele>
<time>2023-05-17T10:24:05Z</time>
</trkpt>
<trkpt lat="49.07352799549699" lon="8.793164938688278">
<ele>179</ele>
<time>2023-05-17T10:24:06Z</time>
</trkpt>
<trkpt lat="49.07355297356844" lon="8.793114982545376">
<ele>179</ele>
<time>2023-05-17T10:24:07Z</time>
</trkpt>
<trkpt lat="49.07357795163989" lon="8.793066954240203">
<ele>179</ele>
<time>2023-05-17T10:24:08Z</time>
</trkpt>
<trkpt lat="49.07360292971134" lon="8.7930169980973">
<ele>178.79999999999995</ele>
<time>2023-05-17T10:24:09Z</time>
</trkpt>
<trkpt lat="49.073626985773444" lon="8.792962934821844">
<ele>178.79999999999995</ele>
<time>2023-05-17T10:24:10Z</time>
</trkpt>
<trkpt lat="49.07364794053137" lon="8.792907949537039">
<ele>178.79999999999995</ele>
<time>2023-05-17T10:24:11Z</time>
</trkpt>
<trkpt lat="49.07366696745157" lon="8.792854975908995">
<ele>178.79999999999995</ele>
<time>2023-05-17T10:24:12Z</time>
</trkpt>
<trkpt lat="49.07368498854339" lon="8.79279999062419">
<ele>178.79999999999995</ele>
<time>2023-05-17T10:24:13Z</time>
</trkpt>
<trkpt lat="49.07369999215007" lon="8.792744921520352">
<ele>178.60000000000002</ele>
<time>2023-05-17T10:24:14Z</time>
</trkpt>
<trkpt lat="49.073717929422855" lon="8.792687924578786">
<ele>178.60000000000002</ele>
<time>2023-05-17T10:24:15Z</time>
</trkpt>
<trkpt lat="49.073737962171435" lon="8.792629921808839">
<ele>178.60000000000002</ele>
<time>2023-05-17T10:24:16Z</time>
</trkpt>
<trkpt lat="49.073756989091635" lon="8.792576948180795">
<ele>178.60000000000002</ele>
<time>2023-05-17T10:24:17Z</time>
</trkpt>
<trkpt lat="49.07377492636442" lon="8.792517939582467">
<ele>178.60000000000002</ele>
<time>2023-05-17T10:24:18Z</time>
</trkpt>
<trkpt lat="49.07379697076976" lon="8.792462954297662">
<ele>178.39999999999998</ele>
<time>2023-05-17T10:24:19Z</time>
</trkpt>
<trkpt lat="49.07381993718445" lon="8.792406963184476">
<ele>178.39999999999998</ele>
<time>2023-05-17T10:24:20Z</time>
</trkpt>
<trkpt lat="49.073841981589794" lon="8.792352983728051">
<ele>178.39999999999998</ele>
<time>2023-05-17T10:24:21Z</time>
</trkpt>
<trkpt lat="49.07385799102485" lon="8.792292969301343">
<ele>178.39999999999998</ele>
<time>2023-05-17T10:24:22Z</time>
</trkpt>
<trkpt lat="49.07387299463153" lon="8.792227925732732">
<ele>178.20000000000005</ele>
<time>2023-05-17T10:24:23Z</time>
</trkpt>
<trkpt lat="49.0738829690963" lon="8.792169922962785">
<ele>178.20000000000005</ele>
<time>2023-05-17T10:24:24Z</time>
</trkpt>
<trkpt lat="49.073887998238206" lon="8.79211493767798">
<ele>178.20000000000005</ele>
<time>2023-05-17T10:24:25Z</time>
</trkpt>
<trkpt lat="49.073889926075935" lon="8.792064981535077">
<ele>178.20000000000005</ele>
<time>2023-05-17T10:24:26Z</time>
</trkpt>
<trkpt lat="49.0738829690963" lon="8.792019970715046">
<ele>178.20000000000005</ele>
<time>2023-05-17T10:24:27Z</time>
</trkpt>
<trkpt lat="49.07387693412602" lon="8.791976971551776">
<ele>178.20000000000005</ele>
<time>2023-05-17T10:24:28Z</time>
</trkpt>
<trkpt lat="49.07387299463153" lon="8.791941935196519">
<ele>178.20000000000005</ele>
<time>2023-05-17T10:24:29Z</time>
</trkpt>
<trkpt lat="49.07387299463153" lon="8.791911927983165">
<ele>178</ele>
<time>2023-05-17T10:24:30Z</time>
</trkpt>
<trkpt lat="49.07387492246926" lon="8.79187798127532">
<ele>178</ele>
<time>2023-05-17T10:24:31Z</time>
</trkpt>
<trkpt lat="49.07388196326792" lon="8.791841939091682">
<ele>178.20000000000005</ele>
<time>2023-05-17T10:24:32Z</time>
</trkpt>
<trkpt lat="49.0738969668746" lon="8.791802963241935">
<ele>178.20000000000005</ele>
<time>2023-05-17T10:24:33Z</time>
</trkpt>
<trkpt lat="49.07391699962318" lon="8.791766921058297">
<ele>178.20000000000005</ele>
<time>2023-05-17T10:24:34Z</time>
</trkpt>
<trkpt lat="49.073932925239205" lon="8.791726939380169">
<ele>178.20000000000005</ele>
<time>2023-05-17T10:24:35Z</time>
</trkpt>
<trkpt lat="49.07395698130131" lon="8.791689975187182">
<ele>178.20000000000005</ele>
<time>2023-05-17T10:24:36Z</time>
</trkpt>
<trkpt lat="49.0739849768579" lon="8.791652927175164">
<ele>178.20000000000005</ele>
<time>2023-05-17T10:24:37Z</time>
</trkpt>
<trkpt lat="49.074016995728016" lon="8.791626943275332">
<ele>178.20000000000005</ele>
<time>2023-05-17T10:24:38Z</time>
</trkpt>
<trkpt lat="49.07405194826424" lon="8.791611939668655">
<ele>178.20000000000005</ele>
<time>2023-05-17T10:24:39Z</time>
</trkpt>
<trkpt lat="49.07408799044788" lon="8.791601965203881">
<ele>178.20000000000005</ele>
<time>2023-05-17T10:24:40Z</time>
</trkpt>
<trkpt lat="49.07412696629763" lon="8.791594924405217">
<ele>178.20000000000005</ele>
<time>2023-05-17T10:24:41Z</time>
</trkpt>
<trkpt lat="49.07416292466223" lon="8.79157698713243">
<ele>178.20000000000005</ele>
<time>2023-05-17T10:24:42Z</time>
</trkpt>
<trkpt lat="49.07419997267425" lon="8.791546979919076">
<ele>178.20000000000005</ele>
<time>2023-05-17T10:24:43Z</time>
</trkpt>
<trkpt lat="49.07423299737275" lon="8.791502974927425">
<ele>178.20000000000005</ele>
<time>2023-05-17T10:24:44Z</time>
</trkpt>
<trkpt lat="49.07425998710096" lon="8.791452934965491">
<ele>178.20000000000005</ele>
<time>2023-05-17T10:24:45Z</time>
</trkpt>
<trkpt lat="49.07428295351565" lon="8.791397949680686">
<ele>178.20000000000005</ele>
<time>2023-05-17T10:24:46Z</time>
</trkpt>
<trkpt lat="49.07430994324386" lon="8.791334917768836">
<ele>178.20000000000005</ele>
<time>2023-05-17T10:24:47Z</time>
</trkpt>
<trkpt lat="49.07433299347758" lon="8.791272975504398">
<ele>178.20000000000005</ele>
<time>2023-05-17T10:24:48Z</time>
</trkpt>
<trkpt lat="49.074357971549034" lon="8.79121195524931">
<ele>178.20000000000005</ele>
<time>2023-05-17T10:24:49Z</time>
</trkpt>
<trkpt lat="49.074381943792105" lon="8.791142972186208">
<ele>178.20000000000005</ele>
<time>2023-05-17T10:24:50Z</time>
</trkpt>
<trkpt lat="49.07440499402583" lon="8.791072983294725">
<ele>178.20000000000005</ele>
<time>2023-05-17T10:24:51Z</time>
</trkpt>
<trkpt lat="49.07442997209728" lon="8.79099796526134">
<ele>178.20000000000005</ele>
<time>2023-05-17T10:24:52Z</time>
</trkpt>
<trkpt lat="49.07445293851197" lon="8.790921941399574">
<ele>178.20000000000005</ele>
<time>2023-05-17T10:24:53Z</time>
</trkpt>
<trkpt lat="49.07447791658342" lon="8.79084792919457">
<ele>178.20000000000005</ele>
<time>2023-05-17T10:24:54Z</time>
</trkpt>
<trkpt lat="49.07450691796839" lon="8.790771989151835">
<ele>178.20000000000005</ele>
<time>2023-05-17T10:24:55Z</time>
</trkpt>
<trkpt lat="49.07453692518175" lon="8.790694959461689">
<ele>178.20000000000005</ele>
<time>2023-05-17T10:24:56Z</time>
</trkpt>
<trkpt lat="49.0745669323951" lon="8.790619941428304">
<ele>178.20000000000005</ele>
<time>2023-05-17T10:24:57Z</time>
</trkpt>
<trkpt lat="49.074597945436835" lon="8.790544923394918">
<ele>178.20000000000005</ele>
<time>2023-05-17T10:24:58Z</time>
</trkpt>
<trkpt lat="49.07462996430695" lon="8.790469989180565">
<ele>178.20000000000005</ele>
<time>2023-05-17T10:24:59Z</time>
</trkpt>
<trkpt lat="49.074661983177066" lon="8.790392959490418">
<ele>178.20000000000005</ele>
<time>2023-05-17T10:25:00Z</time>
</trkpt>
<trkpt lat="49.0746929962188" lon="8.790316935628653">
<ele>178.20000000000005</ele>
<time>2023-05-17T10:25:01Z</time>
</trkpt>
<trkpt lat="49.074726942926645" lon="8.790239989757538">
<ele>178.20000000000005</ele>
<time>2023-05-17T10:25:02Z</time>
</trkpt>
<trkpt lat="49.07475795596838" lon="8.790164971724153">
<ele>178.20000000000005</ele>
<time>2023-05-17T10:25:03Z</time>
</trkpt>
<trkpt lat="49.074789974838495" lon="8.790087942034006">
<ele>178.20000000000005</ele>
<time>2023-05-17T10:25:04Z</time>
</trkpt>
<trkpt lat="49.07482299953699" lon="8.79000999033451">
<ele>178</ele>
<time>2023-05-17T10:25:05Z</time>
</trkpt>
<trkpt lat="49.074854934588075" lon="8.789934972301126">
<ele>178</ele>
<time>2023-05-17T10:25:06Z</time>
</trkpt>
<trkpt lat="49.07488695345819" lon="8.789861965924501">
<ele>177.79999999999995</ele>
<time>2023-05-17T10:25:07Z</time>
</trkpt>
<trkpt lat="49.074919978156686" lon="8.789784936234355">
<ele>177.79999999999995</ele>
<time>2023-05-17T10:25:08Z</time>
</trkpt>
<trkpt lat="49.07495493069291" lon="8.78970698453486">
<ele>177.60000000000002</ele>
<time>2023-05-17T10:25:09Z</time>
</trkpt>
<trkpt lat="49.07498795539141" lon="8.789631966501474">
<ele>177.60000000000002</ele>
<time>2023-05-17T10:25:10Z</time>
</trkpt>
<trkpt lat="49.07502198591828" lon="8.78955795429647">
<ele>177.39999999999998</ele>
<time>2023-05-17T10:25:11Z</time>
</trkpt>
<trkpt lat="49.07505492679775" lon="8.789484947919846">
<ele>177.20000000000005</ele>
<time>2023-05-17T10:25:12Z</time>
</trkpt>
<trkpt lat="49.0750849340111" lon="8.789414959028363">
<ele>177</ele>
<time>2023-05-17T10:25:13Z</time>
</trkpt>
<trkpt lat="49.075114941224456" lon="8.789346981793642">
<ele>177</ele>
<time>2023-05-17T10:25:14Z</time>
</trkpt>
<trkpt lat="49.07514293678105" lon="8.78927992656827">
<ele>176.79999999999995</ele>
<time>2023-05-17T10:25:15Z</time>
</trkpt>
<trkpt lat="49.07517193816602" lon="8.78921295516193">
<ele>176.79999999999995</ele>
<time>2023-05-17T10:25:16Z</time>
</trkpt>
<trkpt lat="49.075201945379376" lon="8.78914799541235">
<ele>176.60000000000002</ele>
<time>2023-05-17T10:25:17Z</time>
</trkpt>
<trkpt lat="49.07522792927921" lon="8.7890849635005">
<ele>176.60000000000002</ele>
<time>2023-05-17T10:25:18Z</time>
</trkpt>
<trkpt lat="49.07525693066418" lon="8.78902293741703">
<ele>176.39999999999998</ele>
<time>2023-05-17T10:25:19Z</time>
</trkpt>
<trkpt lat="49.075282998383045" lon="8.788961917161942">
<ele>176.39999999999998</ele>
<time>2023-05-17T10:25:20Z</time>
</trkpt>
<trkpt lat="49.075307976454496" lon="8.788901986554265">
<ele>176.20000000000005</ele>
<time>2023-05-17T10:25:21Z</time>
</trkpt>
<trkpt lat="49.07533295452595" lon="8.788844989612699">
<ele>176.20000000000005</ele>
<time>2023-05-17T10:25:22Z</time>
</trkpt>
<trkpt lat="49.07535994425416" lon="8.788789920508862">
<ele>176.20000000000005</ele>
<time>2023-05-17T10:25:23Z</time>
</trkpt>
<trkpt lat="49.07538693398237" lon="8.788729989901185">
<ele>176.20000000000005</ele>
<time>2023-05-17T10:25:24Z</time>
</trkpt>
<trkpt lat="49.075414929538965" lon="8.788666957989335">
<ele>176.20000000000005</ele>
<time>2023-05-17T10:25:25Z</time>
</trkpt>
<trkpt lat="49.07544493675232" lon="8.788602920249104">
<ele>176.20000000000005</ele>
<time>2023-05-17T10:25:26Z</time>
</trkpt>
<trkpt lat="49.07547494396567" lon="8.788534943014383">
<ele>176.20000000000005</ele>
<time>2023-05-17T10:25:27Z</time>
</trkpt>
<trkpt lat="49.075502939522266" lon="8.788467971608043">
<ele>176.20000000000005</ele>
<time>2023-05-17T10:25:28Z</time>
</trkpt>
<trkpt lat="49.07553294673562" lon="8.788399994373322">
<ele>176.20000000000005</ele>
<time>2023-05-17T10:25:29Z</time>
</trkpt>
<trkpt lat="49.075562953948975" lon="8.788331933319569">
<ele>176.20000000000005</ele>
<time>2023-05-17T10:25:30Z</time>
</trkpt>
<trkpt lat="49.07559296116233" lon="8.788264961913228">
<ele>176.20000000000005</ele>
<time>2023-05-17T10:25:31Z</time>
</trkpt>
<trkpt lat="49.07562296837568" lon="8.788197990506887">
<ele>176.20000000000005</ele>
<time>2023-05-17T10:25:32Z</time>
</trkpt>
<trkpt lat="49.07565297558904" lon="8.788129929453135">
<ele>176.20000000000005</ele>
<time>2023-05-17T10:25:33Z</time>
</trkpt>
<trkpt lat="49.07568499445915" lon="8.788059940561652">
<ele>176.20000000000005</ele>
<time>2023-05-17T10:25:34Z</time>
</trkpt>
<trkpt lat="49.075717935338616" lon="8.787987940013409">
<ele>176.20000000000005</ele>
<time>2023-05-17T10:25:35Z</time>
</trkpt>
<trkpt lat="49.07574995420873" lon="8.787916945293546">
<ele>176.20000000000005</ele>
<time>2023-05-17T10:25:36Z</time>
</trkpt>
<trkpt lat="49.07578297890723" lon="8.78784192726016">
<ele>176.20000000000005</ele>
<time>2023-05-17T10:25:37Z</time>
</trkpt>
<trkpt lat="49.07581692561507" lon="8.787766993045807">
<ele>176.20000000000005</ele>
<time>2023-05-17T10:25:38Z</time>
</trkpt>
<trkpt lat="49.07584793865681" lon="8.787691975012422">
<ele>176.20000000000005</ele>
<time>2023-05-17T10:25:39Z</time>
</trkpt>
<trkpt lat="49.07588196918368" lon="8.787617962807417">
<ele>176.20000000000005</ele>
<time>2023-05-17T10:25:40Z</time>
</trkpt>
<trkpt lat="49.07591692171991" lon="8.787542944774032">
<ele>176.20000000000005</ele>
<time>2023-05-17T10:25:41Z</time>
</trkpt>
<trkpt lat="49.075949946418405" lon="8.787469938397408">
<ele>176.20000000000005</ele>
<time>2023-05-17T10:25:42Z</time>
</trkpt>
<trkpt lat="49.0759829711169" lon="8.787394920364022">
<ele>176.20000000000005</ele>
<time>2023-05-17T10:25:43Z</time>
</trkpt>
<trkpt lat="49.076014989987016" lon="8.78732199780643">
<ele>176.20000000000005</ele>
<time>2023-05-17T10:25:44Z</time>
</trkpt>
<trkpt lat="49.07604298554361" lon="8.787249997258186">
<ele>176</ele>
<time>2023-05-17T10:25:45Z</time>
</trkpt>
<trkpt lat="49.07607198692858" lon="8.787177996709943">
<ele>176</ele>
<time>2023-05-17T10:25:46Z</time>
</trkpt>
<trkpt lat="49.076097970828414" lon="8.78710993565619">
<ele>176</ele>
<time>2023-05-17T10:25:47Z</time>
</trkpt>
<trkpt lat="49.076121943071485" lon="8.787037935107946">
<ele>176</ele>
<time>2023-05-17T10:25:48Z</time>
</trkpt>
<trkpt lat="49.076142981648445" lon="8.786969957873225">
<ele>175.79999999999995</ele>
<time>2023-05-17T10:25:49Z</time>
</trkpt>
<trkpt lat="49.076164942234755" lon="8.786902986466885">
<ele>175.79999999999995</ele>
<time>2023-05-17T10:25:50Z</time>
</trkpt>
<trkpt lat="49.076184974983335" lon="8.786836937069893">
<ele>175.79999999999995</ele>
<time>2023-05-17T10:25:51Z</time>
</trkpt>
<trkpt lat="49.07620492391288" lon="8.786771977320313">
<ele>175.79999999999995</ele>
<time>2023-05-17T10:25:52Z</time>
</trkpt>
<trkpt lat="49.076226968318224" lon="8.786706933751702">
<ele>175.60000000000002</ele>
<time>2023-05-17T10:25:53Z</time>
</trkpt>
<trkpt lat="49.07624792307615" lon="8.7866379506886">
<ele>175.60000000000002</ele>
<time>2023-05-17T10:25:54Z</time>
</trkpt>
<trkpt lat="49.076271979138255" lon="8.786567961797118">
<ele>175.39999999999998</ele>
<time>2023-05-17T10:25:55Z</time>
</trkpt>
<trkpt lat="49.076296957209706" lon="8.786497972905636">
<ele>175.39999999999998</ele>
<time>2023-05-17T10:25:56Z</time>
</trkpt>
<trkpt lat="49.07632797025144" lon="8.786431923508644">
<ele>175.20000000000005</ele>
<time>2023-05-17T10:25:57Z</time>
</trkpt>
<trkpt lat="49.076361916959286" lon="8.786366963759065">
<ele>175.20000000000005</ele>
<time>2023-05-17T10:25:58Z</time>
</trkpt>
<trkpt lat="49.076399970799685" lon="8.786297980695963">
<ele>175</ele>
<time>2023-05-17T10:25:59Z</time>
</trkpt>
<trkpt lat="49.07643995247781" lon="8.78622991964221">
<ele>175</ele>
<time>2023-05-17T10:26:00Z</time>
</trkpt>
<trkpt lat="49.0764819458127" lon="8.786157919093966">
<ele>174.79999999999995</ele>
<time>2023-05-17T10:26:01Z</time>
</trkpt>
<trkpt lat="49.076527962461114" lon="8.786082984879613">
<ele>174.60000000000002</ele>
<time>2023-05-17T10:26:02Z</time>
</trkpt>
<trkpt lat="49.076574984937906" lon="8.78601199015975">
<ele>174.39999999999998</ele>
<time>2023-05-17T10:26:03Z</time>
</trkpt>
<trkpt lat="49.07661999575794" lon="8.785946946591139">
<ele>174.20000000000005</ele>
<time>2023-05-17T10:26:04Z</time>
</trkpt>
<trkpt lat="49.07666299492121" lon="8.78588198684156">
<ele>174.20000000000005</ele>
<time>2023-05-17T10:26:05Z</time>
</trkpt>
<trkpt lat="49.07670699991286" lon="8.785816943272948">
<ele>174</ele>
<time>2023-05-17T10:26:06Z</time>
</trkpt>
<trkpt lat="49.076746981590986" lon="8.78575298935175">
<ele>173.79999999999995</ele>
<time>2023-05-17T10:26:07Z</time>
</trkpt>
<trkpt lat="49.076786963269114" lon="8.785692974925041">
<ele>173.79999999999995</ele>
<time>2023-05-17T10:26:08Z</time>
</trkpt>
<trkpt lat="49.07682795077562" lon="8.785634972155094">
<ele>173.60000000000002</ele>
<time>2023-05-17T10:26:09Z</time>
</trkpt>
<trkpt lat="49.07686499878764" lon="8.785577975213528">
<ele>173.60000000000002</ele>
<time>2023-05-17T10:26:10Z</time>
</trkpt>
<trkpt lat="49.07689995132387" lon="8.785527935251594">
<ele>173.60000000000002</ele>
<time>2023-05-17T10:26:11Z</time>
</trkpt>
<trkpt lat="49.07692794688046" lon="8.785482924431562">
<ele>173.39999999999998</ele>
<time>2023-05-17T10:26:12Z</time>
</trkpt>
<trkpt lat="49.0769499912858" lon="8.785447971895337">
<ele>173.39999999999998</ele>
<time>2023-05-17T10:26:13Z</time>
</trkpt>
<trkpt lat="49.07697195187211" lon="8.785414947196841">
<ele>173.39999999999998</ele>
<time>2023-05-17T10:26:14Z</time>
</trkpt>
<trkpt lat="49.07699198462069" lon="8.785386951640248">
<ele>173.20000000000005</ele>
<time>2023-05-17T10:26:15Z</time>
</trkpt>
<trkpt lat="49.07700698822737" lon="8.785364991053939">
<ele>173.20000000000005</ele>
<time>2023-05-17T10:26:16Z</time>
</trkpt>
<trkpt lat="49.077022997662425" lon="8.785342946648598">
<ele>173.20000000000005</ele>
<time>2023-05-17T10:26:17Z</time>
</trkpt>
<trkpt lat="49.07703498378396" lon="8.78532794304192">
<ele>173.20000000000005</ele>
<time>2023-05-17T10:26:18Z</time>
</trkpt>
<trkpt lat="49.077046969905496" lon="8.785311933606863">
<ele>173.20000000000005</ele>
<time>2023-05-17T10:26:19Z</time>
</trkpt>
<trkpt lat="49.07705795019865" lon="8.785294918343425">
<ele>173</ele>
<time>2023-05-17T10:26:20Z</time>
</trkpt>
<trkpt lat="49.07707194797695" lon="8.785274969413877">
<ele>173</ele>
<time>2023-05-17T10:26:21Z</time>
</trkpt>
<trkpt lat="49.077086951583624" lon="8.785252925008535">
<ele>173.20000000000005</ele>
<time>2023-05-17T10:26:22Z</time>
</trkpt>
<trkpt lat="49.0771019551903" lon="8.785227946937084">
<ele>173.20000000000005</ele>
<time>2023-05-17T10:26:23Z</time>
</trkpt>
<trkpt lat="49.07711997628212" lon="8.78519793972373">
<ele>173.20000000000005</ele>
<time>2023-05-17T10:26:24Z</time>
</trkpt>
<trkpt lat="49.07713699154556" lon="8.785167932510376">
<ele>173.20000000000005</ele>
<time>2023-05-17T10:26:25Z</time>
</trkpt>
<trkpt lat="49.077152917161584" lon="8.785137925297022">
<ele>173.20000000000005</ele>
<time>2023-05-17T10:26:26Z</time>
</trkpt>
<trkpt lat="49.07716792076826" lon="8.785109929740429">
<ele>173.20000000000005</ele>
<time>2023-05-17T10:26:27Z</time>
</trkpt>
<trkpt lat="49.0771849360317" lon="8.785081934183836">
<ele>173.20000000000005</ele>
<time>2023-05-17T10:26:28Z</time>
</trkpt>
<trkpt lat="49.07720295712352" lon="8.785054944455624">
<ele>173.20000000000005</ele>
<time>2023-05-17T10:26:29Z</time>
</trkpt>
<trkpt lat="49.07722793519497" lon="8.78502694889903">
<ele>173.39999999999998</ele>
<time>2023-05-17T10:26:30Z</time>
</trkpt>
<trkpt lat="49.07725492492318" lon="8.784996941685677">
<ele>173.39999999999998</ele>
<time>2023-05-17T10:26:31Z</time>
</trkpt>
<trkpt lat="49.07728794962168" lon="8.784957965835929">
<ele>173.39999999999998</ele>
<time>2023-05-17T10:26:32Z</time>
</trkpt>
<trkpt lat="49.077327931299806" lon="8.784914966672659">
<ele>173.39999999999998</ele>
<time>2023-05-17T10:26:33Z</time>
</trkpt>
<trkpt lat="49.07737294211984" lon="8.784867944195867">
<ele>173.39999999999998</ele>
<time>2023-05-17T10:26:34Z</time>
</trkpt>
<trkpt lat="49.07742298208177" lon="8.784819999709725">
<ele>173.39999999999998</ele>
<time>2023-05-17T10:26:35Z</time>
</trkpt>
<trkpt lat="49.07747293822467" lon="8.784771971404552">
<ele>173.39999999999998</ele>
<time>2023-05-17T10:26:36Z</time>
</trkpt>
<trkpt lat="49.07752498984337" lon="8.78472494892776">
<ele>173.39999999999998</ele>
<time>2023-05-17T10:26:37Z</time>
</trkpt>
<trkpt lat="49.07757796347141" lon="8.784676920622587">
<ele>173.39999999999998</ele>
<time>2023-05-17T10:26:38Z</time>
</trkpt>
<trkpt lat="49.07763194292784" lon="8.784626964479685">
<ele>173.39999999999998</ele>
<time>2023-05-17T10:26:39Z</time>
</trkpt>
<trkpt lat="49.07768793404102" lon="8.784577930346131">
<ele>173.39999999999998</ele>
<time>2023-05-17T10:26:40Z</time>
</trkpt>
<trkpt lat="49.07774493098259" lon="8.78452998585999">
<ele>173.20000000000005</ele>
<time>2023-05-17T10:26:41Z</time>
</trkpt>
<trkpt lat="49.077799916267395" lon="8.784482963383198">
<ele>173.20000000000005</ele>
<time>2023-05-17T10:26:42Z</time>
</trkpt>
<trkpt lat="49.07785699702799" lon="8.784432923421264">
<ele>173.20000000000005</ele>
<time>2023-05-17T10:26:43Z</time>
</trkpt>
<trkpt lat="49.0779119823128" lon="8.784384978935122">
<ele>173</ele>
<time>2023-05-17T10:26:44Z</time>
</trkpt>
<trkpt lat="49.077967973425984" lon="8.784334938973188">
<ele>173</ele>
<time>2023-05-17T10:26:45Z</time>
</trkpt>
<trkpt lat="49.07802497036755" lon="8.784284982830286">
<ele>173</ele>
<time>2023-05-17T10:26:46Z</time>
</trkpt>
<trkpt lat="49.07808196730912" lon="8.784236954525113">
<ele>172.79999999999995</ele>
<time>2023-05-17T10:26:47Z</time>
</trkpt>
<trkpt lat="49.07813695259392" lon="8.78418699838221">
<ele>172.79999999999995</ele>
<time>2023-05-17T10:26:48Z</time>
</trkpt>
<trkpt lat="49.07819294370711" lon="8.784136958420277">
<ele>172.60000000000002</ele>
<time>2023-05-17T10:26:49Z</time>
</trkpt>
<trkpt lat="49.078249940648675" lon="8.784091947600245">
<ele>172.39999999999998</ele>
<time>2023-05-17T10:26:50Z</time>
</trkpt>
<trkpt lat="49.07830492593348" lon="8.784049954265356">
<ele>172.39999999999998</ele>
<time>2023-05-17T10:26:51Z</time>
</trkpt>
<trkpt lat="49.078357983380556" lon="8.784004943445325">
<ele>172.20000000000005</ele>
<time>2023-05-17T10:26:52Z</time>
</trkpt>
<trkpt lat="49.07840995118022" lon="8.783964961767197">
<ele>172.20000000000005</ele>
<time>2023-05-17T10:26:53Z</time>
</trkpt>
<trkpt lat="49.07845797948539" lon="8.783922968432307">
<ele>172</ele>
<time>2023-05-17T10:26:54Z</time>
</trkpt>
<trkpt lat="49.078506929799914" lon="8.783882986754179">
<ele>172</ele>
<time>2023-05-17T10:26:55Z</time>
</trkpt>
<trkpt lat="49.078551940619946" lon="8.783837975934148">
<ele>172</ele>
<time>2023-05-17T10:26:56Z</time>
</trkpt>
<trkpt lat="49.07859695143998" lon="8.78379799425602">
<ele>172</ele>
<time>2023-05-17T10:26:57Z</time>
</trkpt>
<trkpt lat="49.078637938946486" lon="8.78375994041562">
<ele>172</ele>
<time>2023-05-17T10:26:58Z</time>
</trkpt>
<trkpt lat="49.078676998615265" lon="8.783719958737493">
<ele>172</ele>
<time>2023-05-17T10:26:59Z</time>
</trkpt>
<trkpt lat="49.07871195115149" lon="8.783679977059364">
<ele>172</ele>
<time>2023-05-17T10:27:00Z</time>
</trkpt>
<trkpt lat="49.07873994670808" lon="8.783637983724475">
<ele>172</ele>
<time>2023-05-17T10:27:01Z</time>
</trkpt>
<trkpt lat="49.078761991113424" lon="8.783601941540837">
<ele>172</ele>
<time>2023-05-17T10:27:02Z</time>
</trkpt>
<trkpt lat="49.07877498306334" lon="8.783576963469386">
<ele>172</ele>
<time>2023-05-17T10:27:03Z</time>
</trkpt>
<trkpt lat="49.07877992838621" lon="8.783566989004612">
<ele>172</ele>
<time>2023-05-17T10:27:04Z</time>
</trkpt>
<trkpt lat="49.07878194004297" lon="8.783566989004612">
<ele>172</ele>
<time>2023-05-17T10:27:05Z</time>
</trkpt>
<trkpt lat="49.07878194004297" lon="8.783567994832993">
<ele>172.20000000000005</ele>
<time>2023-05-17T10:27:06Z</time>
</trkpt>
<trkpt lat="49.078849917277694" lon="8.783547962084413">
<ele>172.39999999999998</ele>
<time>2023-05-17T10:27:06Z</time>
</trkpt>
<trkpt lat="49.07886793836951" lon="8.783532958477736">
<ele>172.39999999999998</ele>
<time>2023-05-17T10:27:07Z</time>
</trkpt>
<trkpt lat="49.07888294197619" lon="8.783516949042678">
<ele>172.39999999999998</ele>
<time>2023-05-17T10:27:08Z</time>
</trkpt>
<trkpt lat="49.07889995723963" lon="8.783497922122478">
<ele>172.39999999999998</ele>
<time>2023-05-17T10:27:09Z</time>
</trkpt>
<trkpt lat="49.078914960846305" lon="8.783481996506453">
<ele>172.39999999999998</ele>
<time>2023-05-17T10:27:10Z</time>
</trkpt>
<trkpt lat="49.07892996445298" lon="8.783466992899776">
<ele>172.39999999999998</ele>
<time>2023-05-17T10:27:11Z</time>
</trkpt>
<trkpt lat="49.07894697971642" lon="8.783451989293098">
<ele>172.39999999999998</ele>
<time>2023-05-17T10:27:12Z</time>
</trkpt>
<trkpt lat="49.07896298915148" lon="8.783432962372899">
<ele>172.39999999999998</ele>
<time>2023-05-17T10:27:13Z</time>
</trkpt>
<trkpt lat="49.078982938081026" lon="8.783411923795938">
<ele>172.39999999999998</ele>
<time>2023-05-17T10:27:14Z</time>
</trkpt>
<trkpt lat="49.07900699414313" lon="8.783382922410965">
<ele>172.39999999999998</ele>
<time>2023-05-17T10:27:15Z</time>
</trkpt>
<trkpt lat="49.07903197221458" lon="8.783356938511133">
<ele>172.20000000000005</ele>
<time>2023-05-17T10:27:16Z</time>
</trkpt>
<trkpt lat="49.07905292697251" lon="8.783334977924824">
<ele>172.20000000000005</ele>
<time>2023-05-17T10:27:17Z</time>
</trkpt>
<trkpt lat="49.07907497137785" lon="8.783312933519483">
<ele>172</ele>
<time>2023-05-17T10:27:18Z</time>
</trkpt>
<trkpt lat="49.07909793779254" lon="8.783287955448031">
<ele>172</ele>
<time>2023-05-17T10:27:19Z</time>
</trkpt>
<trkpt lat="49.07911998219788" lon="8.78326297737658">
<ele>171.79999999999995</ele>
<time>2023-05-17T10:27:20Z</time>
</trkpt>
<trkpt lat="49.07914194278419" lon="8.783239927142859">
<ele>171.79999999999995</ele>
<time>2023-05-17T10:27:21Z</time>
</trkpt>
<trkpt lat="49.07915795221925" lon="8.783217966556549">
<ele>171.60000000000002</ele>
<time>2023-05-17T10:27:22Z</time>
</trkpt>
<trkpt lat="49.079174967482686" lon="8.783194916322827">
<ele>171.60000000000002</ele>
<time>2023-05-17T10:27:23Z</time>
</trkpt>
<trkpt lat="49.07918494194746" lon="8.783172955736518">
<ele>171.60000000000002</ele>
<time>2023-05-17T10:27:24Z</time>
</trkpt>
<trkpt lat="49.079196928068995" lon="8.783154934644699">
<ele>171.60000000000002</ele>
<time>2023-05-17T10:27:25Z</time>
</trkpt>
<trkpt lat="49.07920799218118" lon="8.783139931038022">
<ele>171.60000000000002</ele>
<time>2023-05-17T10:27:26Z</time>
</trkpt>
<trkpt lat="49.07922198995948" lon="8.783124927431345">
<ele>171.60000000000002</ele>
<time>2023-05-17T10:27:27Z</time>
</trkpt>
<trkpt lat="49.079234981909394" lon="8.78311294130981">
<ele>171.39999999999998</ele>
<time>2023-05-17T10:27:28Z</time>
</trkpt>
<trkpt lat="49.07924696803093" lon="8.783101961016655">
<ele>171.39999999999998</ele>
<time>2023-05-17T10:27:29Z</time>
</trkpt>
<trkpt lat="49.079259959980845" lon="8.783087963238358">
<ele>171.39999999999998</ele>
<time>2023-05-17T10:27:30Z</time>
</trkpt>
<trkpt lat="49.07927295193076" lon="8.783077988773584">
<ele>171.39999999999998</ele>
<time>2023-05-17T10:27:31Z</time>
</trkpt>
<trkpt lat="49.07928694970906" lon="8.783066924661398">
<ele>171.39999999999998</ele>
<time>2023-05-17T10:27:32Z</time>
</trkpt>
<trkpt lat="49.079301953315735" lon="8.783052926883101">
<ele>171.39999999999998</ele>
<time>2023-05-17T10:27:33Z</time>
</trkpt>
<trkpt lat="49.07931293360889" lon="8.783036917448044">
<ele>171.39999999999998</ele>
<time>2023-05-17T10:27:34Z</time>
</trkpt>
<trkpt lat="49.079326931387186" lon="8.783014956861734">
<ele>171.39999999999998</ele>
<time>2023-05-17T10:27:35Z</time>
</trkpt>
<trkpt lat="49.07934193499386" lon="8.782992996275425">
<ele>171.39999999999998</ele>
<time>2023-05-17T10:27:36Z</time>
</trkpt>
<trkpt lat="49.07935794442892" lon="8.782977992668748">
<ele>171.39999999999998</ele>
<time>2023-05-17T10:27:37Z</time>
</trkpt>
<trkpt lat="49.07937495969236" lon="8.7829649168998">
<ele>171.39999999999998</ele>
<time>2023-05-17T10:27:38Z</time>
</trkpt>
<trkpt lat="49.079387951642275" lon="8.782947985455394">
<ele>171.39999999999998</ele>
<time>2023-05-17T10:27:39Z</time>
</trkpt>
<trkpt lat="49.07939993776381" lon="8.782932981848717">
<ele>171.39999999999998</ele>
<time>2023-05-17T10:27:40Z</time>
</trkpt>
<trkpt lat="49.079412929713726" lon="8.782916972413659">
<ele>171.39999999999998</ele>
<time>2023-05-17T10:27:41Z</time>
</trkpt>
<trkpt lat="49.07942499965429" lon="8.782902974635363">
<ele>171.39999999999998</ele>
<time>2023-05-17T10:27:42Z</time>
</trkpt>
<trkpt lat="49.07943698577583" lon="8.782889982685447">
<ele>171.39999999999998</ele>
<time>2023-05-17T10:27:43Z</time>
</trkpt>
<trkpt lat="49.079451989382505" lon="8.782872967422009">
<ele>171.39999999999998</ele>
<time>2023-05-17T10:27:44Z</time>
</trkpt>
<trkpt lat="49.07946799881756" lon="8.78285695798695">
<ele>171.39999999999998</ele>
<time>2023-05-17T10:27:45Z</time>
</trkpt>
<trkpt lat="49.07948493026197" lon="8.782837931066751">
<ele>171.39999999999998</ele>
<time>2023-05-17T10:27:46Z</time>
</trkpt>
<trkpt lat="49.07950295135379" lon="8.782819993793964">
<ele>171.39999999999998</ele>
<time>2023-05-17T10:27:47Z</time>
</trkpt>
<trkpt lat="49.07952197827399" lon="8.782801972702146">
<ele>171.39999999999998</ele>
<time>2023-05-17T10:27:48Z</time>
</trkpt>
<trkpt lat="49.079537987709045" lon="8.782786969095469">
<ele>171.39999999999998</ele>
<time>2023-05-17T10:27:49Z</time>
</trkpt>
<trkpt lat="49.07955491915345" lon="8.782764924690127">
<ele>171.39999999999998</ele>
<time>2023-05-17T10:27:50Z</time>
</trkpt>
<trkpt lat="49.07957294024527" lon="8.782742964103818">
<ele>171.39999999999998</ele>
<time>2023-05-17T10:27:51Z</time>
</trkpt>
<trkpt lat="49.07958794385195" lon="8.782719997689128">
<ele>171.39999999999998</ele>
<time>2023-05-17T10:27:52Z</time>
</trkpt>
<trkpt lat="49.079604959115386" lon="8.782696947455406">
<ele>171.39999999999998</ele>
<time>2023-05-17T10:27:53Z</time>
</trkpt>
<trkpt lat="49.079621974378824" lon="8.782676998525858">
<ele>171.39999999999998</ele>
<time>2023-05-17T10:27:54Z</time>
</trkpt>
<trkpt lat="49.0796369779855" lon="8.782654954120517">
<ele>171.39999999999998</ele>
<time>2023-05-17T10:27:55Z</time>
</trkpt>
<trkpt lat="49.07965499907732" lon="8.782631987705827">
<ele>171.39999999999998</ele>
<time>2023-05-17T10:27:56Z</time>
</trkpt>
<trkpt lat="49.07967293635011" lon="8.782606925815344">
<ele>171.39999999999998</ele>
<time>2023-05-17T10:27:57Z</time>
</trkpt>
<trkpt lat="49.07969296909869" lon="8.782579936087132">
<ele>171.39999999999998</ele>
<time>2023-05-17T10:27:58Z</time>
</trkpt>
<trkpt lat="49.079714929685" lon="8.782551940530539">
<ele>171.39999999999998</ele>
<time>2023-05-17T10:27:59Z</time>
</trkpt>
<trkpt lat="49.07973797991872" lon="8.782524950802326">
<ele>171.20000000000005</ele>
<time>2023-05-17T10:28:00Z</time>
</trkpt>
<trkpt lat="49.07975994050503" lon="8.782497961074114">
<ele>171.20000000000005</ele>
<time>2023-05-17T10:28:01Z</time>
</trkpt>
<trkpt lat="49.07977997325361" lon="8.782474994659424">
<ele>171.20000000000005</ele>
<time>2023-05-17T10:28:02Z</time>
</trkpt>
<trkpt lat="49.07979799434543" lon="8.782454961910844">
<ele>171.20000000000005</ele>
<time>2023-05-17T10:28:03Z</time>
</trkpt>
<trkpt lat="49.079816937446594" lon="8.782427972182631">
<ele>171.20000000000005</ele>
<time>2023-05-17T10:28:04Z</time>
</trkpt>
<trkpt lat="49.079837976023555" lon="8.78240299411118">
<ele>171.20000000000005</ele>
<time>2023-05-17T10:28:05Z</time>
</trkpt>
<trkpt lat="49.0798579249531" lon="8.782379943877459">
<ele>171.20000000000005</ele>
<time>2023-05-17T10:28:06Z</time>
</trkpt>
<trkpt lat="49.07987795770168" lon="8.782354965806007">
<ele>171.20000000000005</ele>
<time>2023-05-17T10:28:07Z</time>
</trkpt>
<trkpt lat="49.079901929944754" lon="8.782332921400666">
<ele>171.20000000000005</ele>
<time>2023-05-17T10:28:08Z</time>
</trkpt>
<trkpt lat="49.07992699183524" lon="8.782311966642737">
<ele>171.20000000000005</ele>
<time>2023-05-17T10:28:09Z</time>
</trkpt>
<trkpt lat="49.07995498739183" lon="8.782292939722538">
<ele>171.20000000000005</ele>
<time>2023-05-17T10:28:10Z</time>
</trkpt>
<trkpt lat="49.079984994605184" lon="8.782277936115861">
<ele>171.39999999999998</ele>
<time>2023-05-17T10:28:11Z</time>
</trkpt>
<trkpt lat="49.080014917999506" lon="8.782256981357932">
<ele>171.39999999999998</ele>
<time>2023-05-17T10:28:12Z</time>
</trkpt>
<trkpt lat="49.08004492521286" lon="8.782234936952591">
<ele>171.39999999999998</ele>
<time>2023-05-17T10:28:13Z</time>
</trkpt>
<trkpt lat="49.080071998760104" lon="8.782214988023043">
<ele>171.39999999999998</ele>
<time>2023-05-17T10:28:14Z</time>
</trkpt>
<trkpt lat="49.080094965174794" lon="8.782191937789321">
<ele>171.39999999999998</ele>
<time>2023-05-17T10:28:15Z</time>
</trkpt>
<trkpt lat="49.080117931589484" lon="8.78216695971787">
<ele>171.60000000000002</ele>
<time>2023-05-17T10:28:16Z</time>
</trkpt>
<trkpt lat="49.08014198765159" lon="8.782134940847754">
<ele>171.60000000000002</ele>
<time>2023-05-17T10:28:17Z</time>
</trkpt>
<trkpt lat="49.080159924924374" lon="8.78209998831153">
<ele>171.79999999999995</ele>
<time>2023-05-17T10:28:18Z</time>
</trkpt>
<trkpt lat="49.080179957672954" lon="8.78206193447113">
<ele>172</ele>
<time>2023-05-17T10:28:19Z</time>
</trkpt>
<trkpt lat="49.08019797876477" lon="8.782009966671467">
<ele>172</ele>
<time>2023-05-17T10:28:20Z</time>
</trkpt>
<trkpt lat="49.08021792769432" lon="8.78195196390152">
<ele>172.20000000000005</ele>
<time>2023-05-17T10:28:21Z</time>
</trkpt>
<trkpt lat="49.0802379604429" lon="8.78188993781805">
<ele>172.20000000000005</ele>
<time>2023-05-17T10:28:22Z</time>
</trkpt>
<trkpt lat="49.08026293851435" lon="8.781826989725232">
<ele>172.20000000000005</ele>
<time>2023-05-17T10:28:23Z</time>
</trkpt>
<trkpt lat="49.080289928242564" lon="8.781766975298524">
<ele>172.20000000000005</ele>
<time>2023-05-17T10:28:24Z</time>
</trkpt>
<trkpt lat="49.08031792379916" lon="8.781711990013719">
<ele>172.20000000000005</ele>
<time>2023-05-17T10:28:25Z</time>
</trkpt>
<trkpt lat="49.08034692518413" lon="8.781662955880165">
<ele>172.20000000000005</ele>
<time>2023-05-17T10:28:26Z</time>
</trkpt>
<trkpt lat="49.080371987074614" lon="8.781617945060134">
<ele>172.20000000000005</ele>
<time>2023-05-17T10:28:27Z</time>
</trkpt>
<trkpt lat="49.080397970974445" lon="8.781577963382006">
<ele>172.20000000000005</ele>
<time>2023-05-17T10:28:28Z</time>
</trkpt>
<trkpt lat="49.0804229490459" lon="8.781539993360639">
<ele>172.20000000000005</ele>
<time>2023-05-17T10:28:29Z</time>
</trkpt>
<trkpt lat="49.08044692128897" lon="8.781504957005382">
<ele>172.20000000000005</ele>
<time>2023-05-17T10:28:30Z</time>
</trkpt>
<trkpt lat="49.08046795986593" lon="8.781474949792027">
<ele>172.20000000000005</ele>
<time>2023-05-17T10:28:31Z</time>
</trkpt>
<trkpt lat="49.08048799261451" lon="8.781444942578673">
<ele>172.20000000000005</ele>
<time>2023-05-17T10:28:32Z</time>
</trkpt>
<trkpt lat="49.08050995320082" lon="8.781412923708558">
<ele>172.20000000000005</ele>
<time>2023-05-17T10:28:33Z</time>
</trkpt>
<trkpt lat="49.08053199760616" lon="8.781376965343952">
<ele>172.20000000000005</ele>
<time>2023-05-17T10:28:34Z</time>
</trkpt>
<trkpt lat="49.08055697567761" lon="8.781337989494205">
<ele>172.20000000000005</ele>
<time>2023-05-17T10:28:35Z</time>
</trkpt>
<trkpt lat="49.08058195374906" lon="8.781294990330935">
<ele>172.20000000000005</ele>
<time>2023-05-17T10:28:36Z</time>
</trkpt>
<trkpt lat="49.08060693182051" lon="8.781247967854142">
<ele>172.39999999999998</ele>
<time>2023-05-17T10:28:37Z</time>
</trkpt>
<trkpt lat="49.080632999539375" lon="8.78119993954897">
<ele>172.39999999999998</ele>
<time>2023-05-17T10:28:38Z</time>
</trkpt>
<trkpt lat="49.08066191710532" lon="8.781152917072177">
<ele>172.39999999999998</ele>
<time>2023-05-17T10:28:39Z</time>
</trkpt>
<trkpt lat="49.08068798482418" lon="8.781104972586036">
<ele>172.39999999999998</ele>
<time>2023-05-17T10:28:40Z</time>
</trkpt>
<trkpt lat="49.08071296289563" lon="8.781054932624102">
<ele>172.39999999999998</ele>
<time>2023-05-17T10:28:41Z</time>
</trkpt>
<trkpt lat="49.08073794096708" lon="8.78100698813796">
<ele>172.39999999999998</ele>
<time>2023-05-17T10:28:42Z</time>
</trkpt>
<trkpt lat="49.080764930695295" lon="8.78096298314631">
<ele>172.39999999999998</ele>
<time>2023-05-17T10:28:43Z</time>
</trkpt>
<trkpt lat="49.08079292625189" lon="8.780921995639801">
<ele>172.39999999999998</ele>
<time>2023-05-17T10:28:44Z</time>
</trkpt>
<trkpt lat="49.08081999979913" lon="8.78087698481977">
<ele>172.39999999999998</ele>
<time>2023-05-17T10:28:45Z</time>
</trkpt>
<trkpt lat="49.080846989527345" lon="8.780829962342978">
<ele>172.39999999999998</ele>
<time>2023-05-17T10:28:46Z</time>
</trkpt>
<trkpt lat="49.08087498508394" lon="8.780782939866185">
<ele>172.39999999999998</ele>
<time>2023-05-17T10:28:47Z</time>
</trkpt>
<trkpt lat="49.08090499229729" lon="8.780736923217773">
<ele>172.39999999999998</ele>
<time>2023-05-17T10:28:48Z</time>
</trkpt>
<trkpt lat="49.080932987853885" lon="8.780689984560013">
<ele>172.39999999999998</ele>
<time>2023-05-17T10:28:49Z</time>
</trkpt>
<trkpt lat="49.08096299506724" lon="8.780639944598079">
<ele>172.39999999999998</ele>
<time>2023-05-17T10:28:50Z</time>
</trkpt>
<trkpt lat="49.08099291846156" lon="8.780591916292906">
<ele>172.39999999999998</ele>
<time>2023-05-17T10:28:51Z</time>
</trkpt>
<trkpt lat="49.08102493733168" lon="8.780542965978384">
<ele>172.39999999999998</ele>
<time>2023-05-17T10:28:52Z</time>
</trkpt>
<trkpt lat="49.08105494454503" lon="8.780494937673211">
<ele>172.39999999999998</ele>
<time>2023-05-17T10:28:53Z</time>
</trkpt>
<trkpt lat="49.08108796924353" lon="8.78044699318707">
<ele>172.39999999999998</ele>
<time>2023-05-17T10:28:54Z</time>
</trkpt>
<trkpt lat="49.08111998811364" lon="8.780399970710278">
<ele>172.39999999999998</ele>
<time>2023-05-17T10:28:55Z</time>
</trkpt>
<trkpt lat="49.081152928993106" lon="8.780351942405105">
<ele>172.39999999999998</ele>
<time>2023-05-17T10:28:56Z</time>
</trkpt>
<trkpt lat="49.08118695951998" lon="8.780304919928312">
<ele>172.39999999999998</ele>
<time>2023-05-17T10:28:57Z</time>
</trkpt>
<trkpt lat="49.08121797256172" lon="8.780261920765042">
<ele>172.39999999999998</ele>
<time>2023-05-17T10:28:58Z</time>
</trkpt>
<trkpt lat="49.08124999143183" lon="8.780217999592423">
<ele>172.39999999999998</ele>
<time>2023-05-17T10:28:59Z</time>
</trkpt>
<trkpt lat="49.081279998645186" lon="8.780176928266883">
<ele>172.39999999999998</ele>
<time>2023-05-17T10:29:00Z</time>
</trkpt>
<trkpt lat="49.08131193369627" lon="8.780134934931993">
<ele>172.39999999999998</ele>
<time>2023-05-17T10:29:01Z</time>
</trkpt>
<trkpt lat="49.081342946738005" lon="8.780087996274233">
<ele>172.39999999999998</ele>
<time>2023-05-17T10:29:02Z</time>
</trkpt>
<trkpt lat="49.08137496560812" lon="8.780041979625821">
<ele>172.39999999999998</ele>
<time>2023-05-17T10:29:03Z</time>
</trkpt>
<trkpt lat="49.081406984478235" lon="8.779999986290932">
<ele>172.39999999999998</ele>
<time>2023-05-17T10:29:04Z</time>
</trkpt>
<trkpt lat="49.08143699169159" lon="8.779959920793772">
<ele>172.60000000000002</ele>
<time>2023-05-17T10:29:05Z</time>
</trkpt>
<trkpt lat="49.08146993257105" lon="8.779917927458882">
<ele>172.60000000000002</ele>
<time>2023-05-17T10:29:06Z</time>
</trkpt>
<trkpt lat="49.08150195144117" lon="8.779876939952374">
<ele>172.60000000000002</ele>
<time>2023-05-17T10:29:07Z</time>
</trkpt>
<trkpt lat="49.081534976139665" lon="8.779836958274245">
<ele>172.79999999999995</ele>
<time>2023-05-17T10:29:08Z</time>
</trkpt>
<trkpt lat="49.08156699500978" lon="8.779794964939356">
<ele>172.79999999999995</ele>
<time>2023-05-17T10:29:09Z</time>
</trkpt>
<trkpt lat="49.081599935889244" lon="8.779752971604466">
<ele>172.79999999999995</ele>
<time>2023-05-17T10:29:10Z</time>
</trkpt>
<trkpt lat="49.08163195475936" lon="8.779712989926338">
<ele>172.79999999999995</ele>
<time>2023-05-17T10:29:11Z</time>
</trkpt>
<trkpt lat="49.081662967801094" lon="8.77967493608594">
<ele>172.79999999999995</ele>
<time>2023-05-17T10:29:12Z</time>
</trkpt>
<trkpt lat="49.08169498667121" lon="8.779634954407811">
<ele>172.79999999999995</ele>
<time>2023-05-17T10:29:13Z</time>
</trkpt>
<trkpt lat="49.08172499388456" lon="8.779596984386444">
<ele>172.79999999999995</ele>
<time>2023-05-17T10:29:14Z</time>
</trkpt>
<trkpt lat="49.081752989441156" lon="8.779559936374426">
<ele>172.79999999999995</ele>
<time>2023-05-17T10:29:15Z</time>
</trkpt>
<trkpt lat="49.08178199082613" lon="8.779526995494962">
<ele>172.79999999999995</ele>
<time>2023-05-17T10:29:16Z</time>
</trkpt>
<trkpt lat="49.08180797472596" lon="8.779492964968085">
<ele>172.79999999999995</ele>
<time>2023-05-17T10:29:17Z</time>
</trkpt>
<trkpt lat="49.08183194696903" lon="8.77946195192635">
<ele>172.79999999999995</ele>
<time>2023-05-17T10:29:18Z</time>
</trkpt>
<trkpt lat="49.08185298554599" lon="8.779427921399474">
<ele>172.79999999999995</ele>
<time>2023-05-17T10:29:19Z</time>
</trkpt>
<trkpt lat="49.08186798915267" lon="8.779391963034868">
<ele>172.79999999999995</ele>
<time>2023-05-17T10:29:20Z</time>
</trkpt>
<trkpt lat="49.081877963617444" lon="8.779354998841882">
<ele>172.79999999999995</ele>
<time>2023-05-17T10:29:21Z</time>
</trkpt>
<trkpt lat="49.08189196139574" lon="8.779319962486625">
<ele>172.79999999999995</ele>
<time>2023-05-17T10:29:22Z</time>
</trkpt>
<trkpt lat="49.08190696500242" lon="8.779286937788129">
<ele>172.79999999999995</ele>
<time>2023-05-17T10:29:23Z</time>
</trkpt>
<trkpt lat="49.081926997751" lon="8.779262965545058">
<ele>172.79999999999995</ele>
<time>2023-05-17T10:29:24Z</time>
</trkpt>
<trkpt lat="49.08194996416569" lon="8.779242932796478">
<ele>172.79999999999995</ele>
<time>2023-05-17T10:29:25Z</time>
</trkpt>
<trkpt lat="49.08197293058038" lon="8.779219966381788">
<ele>172.79999999999995</ele>
<time>2023-05-17T10:29:26Z</time>
</trkpt>
<trkpt lat="49.08199799247086" lon="8.779191970825195">
<ele>172.79999999999995</ele>
<time>2023-05-17T10:29:27Z</time>
</trkpt>
<trkpt lat="49.08201492391527" lon="8.77915995195508">
<ele>172.79999999999995</ele>
<time>2023-05-17T10:29:28Z</time>
</trkpt>
<trkpt lat="49.08201995305717" lon="8.779122987762094">
<ele>172.79999999999995</ele>
<time>2023-05-17T10:29:29Z</time>
</trkpt>
<trkpt lat="49.08201299607754" lon="8.779091974720359">
<ele>172.79999999999995</ele>
<time>2023-05-17T10:29:30Z</time>
</trkpt>
<trkpt lat="49.08199799247086" lon="8.779052998870611">
<ele>172.79999999999995</ele>
<time>2023-05-17T10:29:31Z</time>
</trkpt>
<trkpt lat="49.08198298886418" lon="8.77900798805058">
<ele>173</ele>
<time>2023-05-17T10:29:32Z</time>
</trkpt>
<trkpt lat="49.08196999691427" lon="8.778962977230549">
<ele>173</ele>
<time>2023-05-17T10:29:33Z</time>
</trkpt>
<trkpt lat="49.08195197582245" lon="8.778912937268615">
<ele>173.20000000000005</ele>
<time>2023-05-17T10:29:34Z</time>
</trkpt>
<trkpt lat="49.08193697221577" lon="8.778861975297332">
<ele>173.39999999999998</ele>
<time>2023-05-17T10:29:35Z</time>
</trkpt>
<trkpt lat="49.081922974437475" lon="8.778809923678637">
<ele>173.60000000000002</ele>
<time>2023-05-17T10:29:36Z</time>
</trkpt>
<trkpt lat="49.08190998248756" lon="8.778756950050592">
<ele>173.79999999999995</ele>
<time>2023-05-17T10:29:37Z</time>
</trkpt>
<trkpt lat="49.081897996366024" lon="8.778704982250929">
<ele>174.20000000000005</ele>
<time>2023-05-17T10:29:38Z</time>
</trkpt>
<trkpt lat="49.08188693225384" lon="8.778649996966124">
<ele>174.39999999999998</ele>
<time>2023-05-17T10:29:39Z</time>
</trkpt>
<trkpt lat="49.08187293447554" lon="8.778594927862287">
<ele>174.60000000000002</ele>
<time>2023-05-17T10:29:40Z</time>
</trkpt>
<trkpt lat="49.08186497166753" lon="8.77853793092072">
<ele>175</ele>
<time>2023-05-17T10:29:41Z</time>
</trkpt>
<trkpt lat="49.081859942525625" lon="8.778477916494012">
<ele>175.20000000000005</ele>
<time>2023-05-17T10:29:42Z</time>
</trkpt>
<trkpt lat="49.08185692504048" lon="8.778422931209207">
<ele>175.39999999999998</ele>
<time>2023-05-17T10:29:43Z</time>
</trkpt>
<trkpt lat="49.08185298554599" lon="8.778381943702698">
<ele>175.60000000000002</ele>
<time>2023-05-17T10:29:44Z</time>
</trkpt>
<trkpt lat="49.08185692504048" lon="8.778347996994853">
<ele>176</ele>
<time>2023-05-17T10:29:45Z</time>
</trkpt>
<trkpt lat="49.081854997202754" lon="8.778317989781499">
<ele>176.20000000000005</ele>
<time>2023-05-17T10:29:46Z</time>
</trkpt>
<trkpt lat="49.08184695057571" lon="8.778284965083003">
<ele>176.60000000000002</ele>
<time>2023-05-17T10:29:47Z</time>
</trkpt>
<trkpt lat="49.08183194696903" lon="8.778244983404875">
<ele>176.79999999999995</ele>
<time>2023-05-17T10:29:48Z</time>
</trkpt>
<trkpt lat="49.08181292004883" lon="8.778207935392857">
<ele>177</ele>
<time>2023-05-17T10:29:49Z</time>
</trkpt>
<trkpt lat="49.08179699443281" lon="8.77817197702825">
<ele>177.39999999999998</ele>
<time>2023-05-17T10:29:50Z</time>
</trkpt>
<trkpt lat="49.08177696168423" lon="8.778129983693361">
<ele>177.60000000000002</ele>
<time>2023-05-17T10:29:51Z</time>
</trkpt>
<trkpt lat="49.08176698721945" lon="8.778086984530091">
<ele>177.79999999999995</ele>
<time>2023-05-17T10:29:52Z</time>
</trkpt>
<trkpt lat="49.081754917278886" lon="8.77804297953844">
<ele>178</ele>
<time>2023-05-17T10:29:53Z</time>
</trkpt>
<trkpt lat="49.08174293115735" lon="8.777996962890029">
<ele>178.39999999999998</ele>
<time>2023-05-17T10:29:54Z</time>
</trkpt>
<trkpt lat="49.081732956692576" lon="8.77795496955514">
<ele>178.60000000000002</ele>
<time>2023-05-17T10:29:55Z</time>
</trkpt>
<trkpt lat="49.08172499388456" lon="8.777904929593205">
<ele>178.79999999999995</ele>
<time>2023-05-17T10:29:56Z</time>
</trkpt>
<trkpt lat="49.08171694725752" lon="8.777854973450303">
<ele>179</ele>
<time>2023-05-17T10:29:57Z</time>
</trkpt>
<trkpt lat="49.081706972792745" lon="8.77780694514513">
<ele>179.20000000000005</ele>
<time>2023-05-17T10:29:58Z</time>
</trkpt>
<trkpt lat="49.08170194365084" lon="8.777761934325099">
<ele>179.39999999999998</ele>
<time>2023-05-17T10:29:59Z</time>
</trkpt>
<trkpt lat="49.08169498667121" lon="8.777717929333448">
<ele>179.79999999999995</ele>
<time>2023-05-17T10:30:00Z</time>
</trkpt>
<trkpt lat="49.08168199472129" lon="8.777669984847307">
<ele>180</ele>
<time>2023-05-17T10:30:01Z</time>
</trkpt>
<trkpt lat="49.081667996943" lon="8.777621956542134">
<ele>180.20000000000005</ele>
<time>2023-05-17T10:30:02Z</time>
</trkpt>
<trkpt lat="49.08165793865919" lon="8.77757292240858">
<ele>180.60000000000002</ele>
<time>2023-05-17T10:30:03Z</time>
</trkpt>
<trkpt lat="49.08164796419442" lon="8.777521960437298">
<ele>180.79999999999995</ele>
<time>2023-05-17T10:30:04Z</time>
</trkpt>
<trkpt lat="49.08163991756737" lon="8.777469992637634">
<ele>181</ele>
<time>2023-05-17T10:30:05Z</time>
</trkpt>
<trkpt lat="49.08162793144584" lon="8.777416935190558">
<ele>181.20000000000005</ele>
<time>2023-05-17T10:30:06Z</time>
</trkpt>
<trkpt lat="49.081621980294585" lon="8.777364967390895">
<ele>181.39999999999998</ele>
<time>2023-05-17T10:30:07Z</time>
</trkpt>
<trkpt lat="49.08161292783916" lon="8.777312999591231">
<ele>181.60000000000002</ele>
<time>2023-05-17T10:30:08Z</time>
</trkpt>
<trkpt lat="49.081602953374386" lon="8.777261953800917">
<ele>181.79999999999995</ele>
<time>2023-05-17T10:30:09Z</time>
</trkpt>
<trkpt lat="49.08158996142447" lon="8.777202945202589">
<ele>182</ele>
<time>2023-05-17T10:30:10Z</time>
</trkpt>
<trkpt lat="49.08157495781779" lon="8.777147959917784">
<ele>182.20000000000005</ele>
<time>2023-05-17T10:30:11Z</time>
</trkpt>
<trkpt lat="49.08156196586788" lon="8.777092974632978">
<ele>182.39999999999998</ele>
<time>2023-05-17T10:30:12Z</time>
</trkpt>
<trkpt lat="49.08154997974634" lon="8.777037989348173">
<ele>182.60000000000002</ele>
<time>2023-05-17T10:30:13Z</time>
</trkpt>
<trkpt lat="49.081537993624806" lon="8.776984931901097">
<ele>182.79999999999995</ele>
<time>2023-05-17T10:30:14Z</time>
</trkpt>
<trkpt lat="49.08152491785586" lon="8.77692793495953">
<ele>183</ele>
<time>2023-05-17T10:30:15Z</time>
</trkpt>
<trkpt lat="49.08150999806821" lon="8.776874961331487">
<ele>183.20000000000005</ele>
<time>2023-05-17T10:30:16Z</time>
</trkpt>
<trkpt lat="49.081497928127646" lon="8.776822993531823">
<ele>183.20000000000005</ele>
<time>2023-05-17T10:30:17Z</time>
</trkpt>
<trkpt lat="49.08148493617773" lon="8.776767924427986">
<ele>183.39999999999998</ele>
<time>2023-05-17T10:30:18Z</time>
</trkpt>
<trkpt lat="49.081471944227815" lon="8.776716962456703">
<ele>183.60000000000002</ele>
<time>2023-05-17T10:30:19Z</time>
</trkpt>
<trkpt lat="49.08145995810628" lon="8.77666499465704">
<ele>183.79999999999995</ele>
<time>2023-05-17T10:30:20Z</time>
</trkpt>
<trkpt lat="49.081447971984744" lon="8.776614954695106">
<ele>183.79999999999995</ele>
<time>2023-05-17T10:30:21Z</time>
</trkpt>
<trkpt lat="49.08143699169159" lon="8.776561981067061">
<ele>184</ele>
<time>2023-05-17T10:30:22Z</time>
</trkpt>
<trkpt lat="49.08142492175102" lon="8.776511941105127">
<ele>184.20000000000005</ele>
<time>2023-05-17T10:30:23Z</time>
</trkpt>
<trkpt lat="49.08141494728625" lon="8.776459973305464">
<ele>184.39999999999998</ele>
<time>2023-05-17T10:30:24Z</time>
</trkpt>
<trkpt lat="49.081404972821474" lon="8.776407921686769">
<ele>184.39999999999998</ele>
<time>2023-05-17T10:30:25Z</time>
</trkpt>
<trkpt lat="49.08139298669994" lon="8.776359977200627">
<ele>184.60000000000002</ele>
<time>2023-05-17T10:30:26Z</time>
</trkpt>
<trkpt lat="49.08138192258775" lon="8.776316978037357">
<ele>184.79999999999995</ele>
<time>2023-05-17T10:30:27Z</time>
</trkpt>
<trkpt lat="49.08137295395136" lon="8.776271967217326">
<ele>185</ele>
<time>2023-05-17T10:30:28Z</time>
</trkpt>
<trkpt lat="49.081362979486585" lon="8.776221927255392">
<ele>185.20000000000005</ele>
<time>2023-05-17T10:30:29Z</time>
</trkpt>
<trkpt lat="49.08134797587991" lon="8.776169959455729">
<ele>185.39999999999998</ele>
<time>2023-05-17T10:30:30Z</time>
</trkpt>
<trkpt lat="49.0813379175961" lon="8.776116985827684">
<ele>185.60000000000002</ele>
<time>2023-05-17T10:30:31Z</time>
</trkpt>
<trkpt lat="49.08132693730295" lon="8.776061916723847">
<ele>185.60000000000002</ele>
<time>2023-05-17T10:30:32Z</time>
</trkpt>
<trkpt lat="49.08131495118141" lon="8.776004919782281">
<ele>185.79999999999995</ele>
<time>2023-05-17T10:30:33Z</time>
</trkpt>
<trkpt lat="49.08130497671664" lon="8.775952951982617">
<ele>186</ele>
<time>2023-05-17T10:30:34Z</time>
</trkpt>
<trkpt lat="49.0812929905951" lon="8.775902995839715">
<ele>186</ele>
<time>2023-05-17T10:30:35Z</time>
</trkpt>
<trkpt lat="49.081281926482916" lon="8.775854967534542">
<ele>186.20000000000005</ele>
<time>2023-05-17T10:30:36Z</time>
</trkpt>
<trkpt lat="49.08126792870462" lon="8.775802999734879">
<ele>186.20000000000005</ele>
<time>2023-05-17T10:30:37Z</time>
</trkpt>
<trkpt lat="49.081257954239845" lon="8.775747930631042">
<ele>186.39999999999998</ele>
<time>2023-05-17T10:30:38Z</time>
</trkpt>
<trkpt lat="49.08124697394669" lon="8.775696968659759">
<ele>186.60000000000002</ele>
<time>2023-05-17T10:30:39Z</time>
</trkpt>
<trkpt lat="49.081236999481916" lon="8.775641983374953">
<ele>186.60000000000002</ele>
<time>2023-05-17T10:30:40Z</time>
</trkpt>
<trkpt lat="49.08122694119811" lon="8.775587920099497">
<ele>186.79999999999995</ele>
<time>2023-05-17T10:30:41Z</time>
</trkpt>
<trkpt lat="49.081214955076575" lon="8.775534946471453">
<ele>187</ele>
<time>2023-05-17T10:30:42Z</time>
</trkpt>
<trkpt lat="49.08120196312666" lon="8.77548792399466">
<ele>187</ele>
<time>2023-05-17T10:30:43Z</time>
</trkpt>
<trkpt lat="49.081189977005124" lon="8.77543997950852">
<ele>187.20000000000005</ele>
<time>2023-05-17T10:30:44Z</time>
</trkpt>
<trkpt lat="49.08117991872132" lon="8.775386922061443">
<ele>187.39999999999998</ele>
<time>2023-05-17T10:30:45Z</time>
</trkpt>
<trkpt lat="49.08116793259978" lon="8.77533495426178">
<ele>187.60000000000002</ele>
<time>2023-05-17T10:30:46Z</time>
</trkpt>
<trkpt lat="49.08115695230663" lon="8.775281980633736">
<ele>187.60000000000002</ele>
<time>2023-05-17T10:30:47Z</time>
</trkpt>
<trkpt lat="49.081146977841854" lon="8.77522791735828">
<ele>187.79999999999995</ele>
<time>2023-05-17T10:30:48Z</time>
</trkpt>
<trkpt lat="49.08113691955805" lon="8.775177961215377">
<ele>188</ele>
<time>2023-05-17T10:30:49Z</time>
</trkpt>
<trkpt lat="49.081127950921655" lon="8.775124987587333">
<ele>188</ele>
<time>2023-05-17T10:30:50Z</time>
</trkpt>
<trkpt lat="49.08111797645688" lon="8.775069918483496">
<ele>188.20000000000005</ele>
<time>2023-05-17T10:30:51Z</time>
</trkpt>
<trkpt lat="49.081106996163726" lon="8.775016944855452">
<ele>188.39999999999998</ele>
<time>2023-05-17T10:30:52Z</time>
</trkpt>
<trkpt lat="49.08109693787992" lon="8.774964977055788">
<ele>188.39999999999998</ele>
<time>2023-05-17T10:30:53Z</time>
</trkpt>
<trkpt lat="49.081084951758385" lon="8.774906974285841">
<ele>188.60000000000002</ele>
<time>2023-05-17T10:30:54Z</time>
</trkpt>
<trkpt lat="49.08107296563685" lon="8.774851989001036">
<ele>188.79999999999995</ele>
<time>2023-05-17T10:30:55Z</time>
</trkpt>
<trkpt lat="49.081064919009805" lon="8.774801949039102">
<ele>188.79999999999995</ele>
<time>2023-05-17T10:30:56Z</time>
</trkpt>
<trkpt lat="49.08105494454503" lon="8.774746963754296">
<ele>189</ele>
<time>2023-05-17T10:30:57Z</time>
</trkpt>
<trkpt lat="49.081042958423495" lon="8.774691978469491">
<ele>189.20000000000005</ele>
<time>2023-05-17T10:30:58Z</time>
</trkpt>
<trkpt lat="49.08103197813034" lon="8.774642944335938">
<ele>189.20000000000005</ele>
<time>2023-05-17T10:30:59Z</time>
</trkpt>
<trkpt lat="49.081022925674915" lon="8.774596927687526">
<ele>189.39999999999998</ele>
<time>2023-05-17T10:31:00Z</time>
</trkpt>
<trkpt lat="49.08101697452366" lon="8.774551916867495">
<ele>189.60000000000002</ele>
<time>2023-05-17T10:31:01Z</time>
</trkpt>
<trkpt lat="49.081009933725" lon="8.774504978209734">
<ele>189.60000000000002</ele>
<time>2023-05-17T10:31:02Z</time>
</trkpt>
<trkpt lat="49.080999959260225" lon="8.774457955732942">
<ele>189.79999999999995</ele>
<time>2023-05-17T10:31:03Z</time>
</trkpt>
<trkpt lat="49.08099291846156" lon="8.774406993761659">
<ele>189.79999999999995</ele>
<time>2023-05-17T10:31:04Z</time>
</trkpt>
<trkpt lat="49.08098696731031" lon="8.774356953799725">
<ele>190</ele>
<time>2023-05-17T10:31:05Z</time>
</trkpt>
<trkpt lat="49.080976992845535" lon="8.774309931322932">
<ele>190.20000000000005</ele>
<time>2023-05-17T10:31:06Z</time>
</trkpt>
<trkpt lat="49.08096794039011" lon="8.774264920502901">
<ele>190.20000000000005</ele>
<time>2023-05-17T10:31:07Z</time>
</trkpt>
<trkpt lat="49.0809599775821" lon="8.774219993501902">
<ele>190.39999999999998</ele>
<time>2023-05-17T10:31:08Z</time>
</trkpt>
<trkpt lat="49.080954948440194" lon="8.774169953539968">
<ele>190.60000000000002</ele>
<time>2023-05-17T10:31:09Z</time>
</trkpt>
<trkpt lat="49.08094698563218" lon="8.774116979911923">
<ele>190.60000000000002</ele>
<time>2023-05-17T10:31:10Z</time>
</trkpt>
<trkpt lat="49.08093994483352" lon="8.774062916636467">
<ele>190.79999999999995</ele>
<time>2023-05-17T10:31:11Z</time>
</trkpt>
<trkpt lat="49.080934999510646" lon="8.774012960493565">
<ele>191</ele>
<time>2023-05-17T10:31:12Z</time>
</trkpt>
<trkpt lat="49.0809269528836" lon="8.77395998686552">
<ele>191.20000000000005</ele>
<time>2023-05-17T10:31:13Z</time>
</trkpt>
<trkpt lat="49.08091999590397" lon="8.773904917761683">
<ele>191.39999999999998</ele>
<time>2023-05-17T10:31:14Z</time>
</trkpt>
<trkpt lat="49.080914966762066" lon="8.77385194413364">
<ele>191.39999999999998</ele>
<time>2023-05-17T10:31:15Z</time>
</trkpt>
<trkpt lat="49.080912955105305" lon="8.773796958848834">
<ele>191.60000000000002</ele>
<time>2023-05-17T10:31:16Z</time>
</trkpt>
<trkpt lat="49.080911949276924" lon="8.773741973564029">
<ele>191.79999999999995</ele>
<time>2023-05-17T10:31:17Z</time>
</trkpt>
<trkpt lat="49.080914966762066" lon="8.773687994107604">
<ele>192</ele>
<time>2023-05-17T10:31:18Z</time>
</trkpt>
<trkpt lat="49.08091697841883" lon="8.77363694831729">
<ele>192</ele>
<time>2023-05-17T10:31:19Z</time>
</trkpt>
<trkpt lat="49.080914966762066" lon="8.773582968860865">
<ele>192.20000000000005</ele>
<time>2023-05-17T10:31:20Z</time>
</trkpt>
<trkpt lat="49.08091798424721" lon="8.773526977747679">
<ele>192.39999999999998</ele>
<time>2023-05-17T10:31:21Z</time>
</trkpt>
<trkpt lat="49.0809219237417" lon="8.773474926128983">
<ele>192.60000000000002</ele>
<time>2023-05-17T10:31:22Z</time>
</trkpt>
<trkpt lat="49.08092494122684" lon="8.773427987471223">
<ele>192.60000000000002</ele>
<time>2023-05-17T10:31:23Z</time>
</trkpt>
<trkpt lat="49.08092997036874" lon="8.773377947509289">
<ele>192.79999999999995</ele>
<time>2023-05-17T10:31:24Z</time>
</trkpt>
<trkpt lat="49.080932987853885" lon="8.773327991366386">
<ele>193</ele>
<time>2023-05-17T10:31:25Z</time>
</trkpt>
<trkpt lat="49.08093994483352" lon="8.77327493391931">
<ele>193</ele>
<time>2023-05-17T10:31:26Z</time>
</trkpt>
<trkpt lat="49.08094799146056" lon="8.773224977776408">
<ele>193.20000000000005</ele>
<time>2023-05-17T10:31:27Z</time>
</trkpt>
<trkpt lat="49.080956960096955" lon="8.773179966956377">
<ele>193.39999999999998</ele>
<time>2023-05-17T10:31:28Z</time>
</trkpt>
<trkpt lat="49.08096492290497" lon="8.773129926994443">
<ele>193.39999999999998</ele>
<time>2023-05-17T10:31:29Z</time>
</trkpt>
<trkpt lat="49.08097296953201" lon="8.77307997085154">
<ele>193.60000000000002</ele>
<time>2023-05-17T10:31:30Z</time>
</trkpt>
<trkpt lat="49.08098495565355" lon="8.773027919232845">
<ele>193.60000000000002</ele>
<time>2023-05-17T10:31:31Z</time>
</trkpt>
<trkpt lat="49.08099694177508" lon="8.772977963089943">
<ele>193.79999999999995</ele>
<time>2023-05-17T10:31:32Z</time>
</trkpt>
<trkpt lat="49.08100498840213" lon="8.772931946441531">
<ele>193.79999999999995</ele>
<time>2023-05-17T10:31:33Z</time>
</trkpt>
<trkpt lat="49.08101697452366" lon="8.772884923964739">
<ele>194</ele>
<time>2023-05-17T10:31:34Z</time>
</trkpt>
<trkpt lat="49.08102996647358" lon="8.772836979478598">
<ele>194</ele>
<time>2023-05-17T10:31:35Z</time>
</trkpt>
<trkpt lat="49.081042958423495" lon="8.772787945345044">
<ele>194.20000000000005</ele>
<time>2023-05-17T10:31:36Z</time>
</trkpt>
<trkpt lat="49.08105997368693" lon="8.772739917039871">
<ele>194.39999999999998</ele>
<time>2023-05-17T10:31:37Z</time>
</trkpt>
<trkpt lat="49.08107296563685" lon="8.772694990038872">
<ele>194.39999999999998</ele>
<time>2023-05-17T10:31:38Z</time>
</trkpt>
<trkpt lat="49.08108796924353" lon="8.77264997921884">
<ele>194.60000000000002</ele>
<time>2023-05-17T10:31:39Z</time>
</trkpt>
<trkpt lat="49.081104984506965" lon="8.77260496839881">
<ele>194.79999999999995</ele>
<time>2023-05-17T10:31:40Z</time>
</trkpt>
<trkpt lat="49.0811219997704" lon="8.77256297506392">
<ele>194.79999999999995</ele>
<time>2023-05-17T10:31:41Z</time>
</trkpt>
<trkpt lat="49.08113993704319" lon="8.772522993385792">
<ele>195</ele>
<time>2023-05-17T10:31:42Z</time>
</trkpt>
<trkpt lat="49.08115795813501" lon="8.77247697673738">
<ele>195.20000000000005</ele>
<time>2023-05-17T10:31:43Z</time>
</trkpt>
<trkpt lat="49.08117698505521" lon="8.772431965917349">
<ele>195.20000000000005</ele>
<time>2023-05-17T10:31:44Z</time>
</trkpt>
<trkpt lat="49.081192994490266" lon="8.772386955097318">
<ele>195.39999999999998</ele>
<time>2023-05-17T10:31:45Z</time>
</trkpt>
<trkpt lat="49.081212943419814" lon="8.77234697341919">
<ele>195.60000000000002</ele>
<time>2023-05-17T10:31:46Z</time>
</trkpt>
<trkpt lat="49.081234987825155" lon="8.772309925407171">
<ele>195.60000000000002</ele>
<time>2023-05-17T10:31:47Z</time>
</trkpt>
<trkpt lat="49.08125191926956" lon="8.772277990356088">
<ele>195.79999999999995</ele>
<time>2023-05-17T10:31:48Z</time>
</trkpt>
<trkpt lat="49.08127295784652" lon="8.77224194817245">
<ele>195.79999999999995</ele>
<time>2023-05-17T10:31:49Z</time>
</trkpt>
<trkpt lat="49.08129793591797" lon="8.77219995483756">
<ele>196</ele>
<time>2023-05-17T10:31:50Z</time>
</trkpt>
<trkpt lat="49.081322997808456" lon="8.77215494401753">
<ele>196</ele>
<time>2023-05-17T10:31:51Z</time>
</trkpt>
<trkpt lat="49.08134797587991" lon="8.772114962339401">
<ele>196.20000000000005</ele>
<time>2023-05-17T10:31:52Z</time>
</trkpt>
<trkpt lat="49.08137697726488" lon="8.772077998146415">
<ele>196.20000000000005</ele>
<time>2023-05-17T10:31:53Z</time>
</trkpt>
<trkpt lat="49.081407990306616" lon="8.772039944306016">
<ele>196.39999999999998</ele>
<time>2023-05-17T10:31:54Z</time>
</trkpt>
<trkpt lat="49.08144193701446" lon="8.7720079254359">
<ele>196.39999999999998</ele>
<time>2023-05-17T10:31:55Z</time>
</trkpt>
<trkpt lat="49.081474961712956" lon="8.77198294736445">
<ele>196.60000000000002</ele>
<time>2023-05-17T10:31:56Z</time>
</trkpt>
<trkpt lat="49.08150798641145" lon="8.771967943757772">
<ele>196.79999999999995</ele>
<time>2023-05-17T10:31:57Z</time>
</trkpt>
<trkpt lat="49.08154495060444" lon="8.771947994828224">
<ele>196.79999999999995</ele>
<time>2023-05-17T10:31:58Z</time>
</trkpt>
<trkpt lat="49.081576969474554" lon="8.77192192710936">
<ele>196.79999999999995</ele>
<time>2023-05-17T10:31:59Z</time>
</trkpt>
<trkpt lat="49.08160798251629" lon="8.771886974573135">
<ele>197</ele>
<time>2023-05-17T10:32:00Z</time>
</trkpt>
<trkpt lat="49.08163798972964" lon="8.771851938217878">
<ele>197</ele>
<time>2023-05-17T10:32:01Z</time>
</trkpt>
<trkpt lat="49.08165693283081" lon="8.771807933226228">
<ele>197</ele>
<time>2023-05-17T10:32:02Z</time>
</trkpt>
<trkpt lat="49.08167294226587" lon="8.771757977083325">
<ele>197</ele>
<time>2023-05-17T10:32:03Z</time>
</trkpt>
<trkpt lat="49.08169792033732" lon="8.771711960434914">
<ele>197</ele>
<time>2023-05-17T10:32:04Z</time>
</trkpt>
<trkpt lat="49.081731950864196" lon="8.771664937958121">
<ele>197</ele>
<time>2023-05-17T10:32:05Z</time>
</trkpt>
<trkpt lat="49.08176992088556" lon="8.771621938794851">
<ele>197</ele>
<time>2023-05-17T10:32:06Z</time>
</trkpt>
<trkpt lat="49.08180797472596" lon="8.771574916318059">
<ele>197</ele>
<time>2023-05-17T10:32:07Z</time>
</trkpt>
<trkpt lat="49.08184493891895" lon="8.771526971831918">
<ele>196.79999999999995</ele>
<time>2023-05-17T10:32:08Z</time>
</trkpt>
<trkpt lat="49.081881986930966" lon="8.771481961011887">
<ele>196.79999999999995</ele>
<time>2023-05-17T10:32:09Z</time>
</trkpt>
<trkpt lat="49.081921968609095" lon="8.771436950191855">
<ele>196.79999999999995</ele>
<time>2023-05-17T10:32:10Z</time>
</trkpt>
<trkpt lat="49.0819629561156" lon="8.771391939371824">
<ele>196.60000000000002</ele>
<time>2023-05-17T10:32:11Z</time>
</trkpt>
<trkpt lat="49.08200494945049" lon="8.771344916895032">
<ele>196.60000000000002</ele>
<time>2023-05-17T10:32:12Z</time>
</trkpt>
<trkpt lat="49.08204694278538" lon="8.771297978237271">
<ele>196.39999999999998</ele>
<time>2023-05-17T10:32:13Z</time>
</trkpt>
<trkpt lat="49.08208499662578" lon="8.77125196158886">
<ele>196.20000000000005</ele>
<time>2023-05-17T10:32:14Z</time>
</trkpt>
<trkpt lat="49.08212698996067" lon="8.771204939112067">
<ele>196.20000000000005</ele>
<time>2023-05-17T10:32:15Z</time>
</trkpt>
<trkpt lat="49.08216797746718" lon="8.771154982969165">
<ele>196</ele>
<time>2023-05-17T10:32:16Z</time>
</trkpt>
<trkpt lat="49.08221198245883" lon="8.77110293135047">
<ele>195.79999999999995</ele>
<time>2023-05-17T10:32:17Z</time>
</trkpt>
<trkpt lat="49.08225799910724" lon="8.771049957722425">
<ele>195.60000000000002</ele>
<time>2023-05-17T10:32:18Z</time>
</trkpt>
<trkpt lat="49.08230694942176" lon="8.770992960780859">
<ele>195.39999999999998</ele>
<time>2023-05-17T10:32:19Z</time>
</trkpt>
<trkpt lat="49.082354977726936" lon="8.77093194052577">
<ele>195.20000000000005</ele>
<time>2023-05-17T10:32:20Z</time>
</trkpt>
<trkpt lat="49.0824069455266" lon="8.770869998261333">
<ele>195</ele>
<time>2023-05-17T10:32:21Z</time>
</trkpt>
<trkpt lat="49.082461930811405" lon="8.770806966349483">
<ele>194.79999999999995</ele>
<time>2023-05-17T10:32:22Z</time>
</trkpt>
<trkpt lat="49.08251498825848" lon="8.770746951922774">
<ele>194.60000000000002</ele>
<time>2023-05-17T10:32:23Z</time>
</trkpt>
<trkpt lat="49.082566956058145" lon="8.770686937496066">
<ele>194.39999999999998</ele>
<time>2023-05-17T10:32:24Z</time>
</trkpt>
<trkpt lat="49.08262194134295" lon="8.770621977746487">
<ele>194.20000000000005</ele>
<time>2023-05-17T10:32:25Z</time>
</trkpt>
<trkpt lat="49.0826799441129" lon="8.770554922521114">
<ele>193.79999999999995</ele>
<time>2023-05-17T10:32:26Z</time>
</trkpt>
<trkpt lat="49.082741970196366" lon="8.770481999963522">
<ele>193.60000000000002</ele>
<time>2023-05-17T10:32:27Z</time>
</trkpt>
<trkpt lat="49.082804918289185" lon="8.770407987758517">
<ele>193.20000000000005</ele>
<time>2023-05-17T10:32:28Z</time>
</trkpt>
<trkpt lat="49.082866944372654" lon="8.770334981381893">
<ele>192.79999999999995</ele>
<time>2023-05-17T10:32:29Z</time>
</trkpt>
<trkpt lat="49.08292796462774" lon="8.77026792615652">
<ele>192.39999999999998</ele>
<time>2023-05-17T10:32:30Z</time>
</trkpt>
<trkpt lat="49.08298697322607" lon="8.77020196057856">
<ele>192</ele>
<time>2023-05-17T10:32:31Z</time>
</trkpt>
<trkpt lat="49.08304799348116" lon="8.770131971687078">
<ele>191.60000000000002</ele>
<time>2023-05-17T10:32:32Z</time>
</trkpt>
<trkpt lat="49.0831099357456" lon="8.770054941996932">
<ele>191.20000000000005</ele>
<time>2023-05-17T10:32:33Z</time>
</trkpt>
<trkpt lat="49.083169950172305" lon="8.769971961155534">
<ele>190.60000000000002</ele>
<time>2023-05-17T10:32:34Z</time>
</trkpt>
<trkpt lat="49.08322292380035" lon="8.769886968657374">
<ele>190.20000000000005</ele>
<time>2023-05-17T10:32:35Z</time>
</trkpt>
<trkpt lat="49.083274975419044" lon="8.769796947017312">
<ele>189.79999999999995</ele>
<time>2023-05-17T10:32:36Z</time>
</trkpt>
<trkpt lat="49.083322919905186" lon="8.769701980054379">
<ele>189.20000000000005</ele>
<time>2023-05-17T10:32:37Z</time>
</trkpt>
<trkpt lat="49.08336793072522" lon="8.769607935100794">
<ele>188.79999999999995</ele>
<time>2023-05-17T10:32:38Z</time>
</trkpt>
<trkpt lat="49.08340799622238" lon="8.769507938995957">
<ele>188.39999999999998</ele>
<time>2023-05-17T10:32:39Z</time>
</trkpt>
<trkpt lat="49.083446972072124" lon="8.769399980083108">
<ele>187.79999999999995</ele>
<time>2023-05-17T10:32:40Z</time>
</trkpt>
<trkpt lat="49.08348293043673" lon="8.769286992028356">
<ele>187.39999999999998</ele>
<time>2023-05-17T10:32:41Z</time>
</trkpt>
<trkpt lat="49.08351696096361" lon="8.76916796900332">
<ele>187</ele>
<time>2023-05-17T10:32:42Z</time>
</trkpt>
<trkpt lat="49.08354294486344" lon="8.769051963463426">
<ele>186.39999999999998</ele>
<time>2023-05-17T10:32:43Z</time>
</trkpt>
<trkpt lat="49.08356691710651" lon="8.768934952095151">
<ele>186</ele>
<time>2023-05-17T10:32:44Z</time>
</trkpt>
<trkpt lat="49.08358493819833" lon="8.768821964040399">
<ele>185.39999999999998</ele>
<time>2023-05-17T10:32:45Z</time>
</trkpt>
<trkpt lat="49.083599941805005" lon="8.768721967935562">
<ele>184.79999999999995</ele>
<time>2023-05-17T10:32:46Z</time>
</trkpt>
<trkpt lat="49.083617962896824" lon="8.768622977659106">
<ele>184.20000000000005</ele>
<time>2023-05-17T10:32:47Z</time>
</trkpt>
<trkpt lat="49.0836329665035" lon="8.768527926877141">
<ele>183.79999999999995</ele>
<time>2023-05-17T10:32:48Z</time>
</trkpt>
<trkpt lat="49.08364797011018" lon="8.768441928550601">
<ele>183.20000000000005</ele>
<time>2023-05-17T10:32:49Z</time>
</trkpt>
<trkpt lat="49.083662973716855" lon="8.768362971022725">
<ele>182.60000000000002</ele>
<time>2023-05-17T10:32:50Z</time>
</trkpt>
<trkpt lat="49.08367797732353" lon="8.768294993788004">
<ele>182.20000000000005</ele>
<time>2023-05-17T10:32:51Z</time>
</trkpt>
<trkpt lat="49.08369298093021" lon="8.768231961876154">
<ele>181.79999999999995</ele>
<time>2023-05-17T10:32:52Z</time>
</trkpt>
<trkpt lat="49.083706978708506" lon="8.768176976591349">
<ele>181.20000000000005</ele>
<time>2023-05-17T10:32:53Z</time>
</trkpt>
<trkpt lat="49.08372198231518" lon="8.768119979649782">
<ele>180.79999999999995</ele>
<time>2023-05-17T10:32:54Z</time>
</trkpt>
<trkpt lat="49.08373799175024" lon="8.768061976879835">
<ele>180.39999999999998</ele>
<time>2023-05-17T10:32:55Z</time>
</trkpt>
<trkpt lat="49.08375995233655" lon="8.768014954403043">
<ele>180</ele>
<time>2023-05-17T10:32:56Z</time>
</trkpt>
<trkpt lat="49.083789959549904" lon="8.767971955239773">
<ele>179.60000000000002</ele>
<time>2023-05-17T10:32:57Z</time>
</trkpt>
<trkpt lat="49.0838179551065" lon="8.767929961904883">
<ele>179.39999999999998</ele>
<time>2023-05-17T10:32:58Z</time>
</trkpt>
<trkpt lat="49.08383999951184" lon="8.767884951084852">
<ele>179</ele>
<time>2023-05-17T10:32:59Z</time>
</trkpt>
<trkpt lat="49.08384997397661" lon="8.767832983285189">
<ele>178.79999999999995</ele>
<time>2023-05-17T10:33:00Z</time>
</trkpt>
<trkpt lat="49.08384695649147" lon="8.767777998000383">
<ele>178.60000000000002</ele>
<time>2023-05-17T10:33:01Z</time>
</trkpt>
<trkpt lat="49.08383195288479" lon="8.76772996969521">
<ele>178.39999999999998</ele>
<time>2023-05-17T10:33:02Z</time>
</trkpt>
<trkpt lat="49.08380295149982" lon="8.76768697053194">
<ele>178.20000000000005</ele>
<time>2023-05-17T10:33:03Z</time>
</trkpt>
<trkpt lat="49.08376498147845" lon="8.767654951661825">
<ele>178.20000000000005</ele>
<time>2023-05-17T10:33:04Z</time>
</trkpt>
<trkpt lat="49.083727933466434" lon="8.76762192696333">
<ele>178.20000000000005</ele>
<time>2023-05-17T10:33:05Z</time>
</trkpt>
<trkpt lat="49.08369298093021" lon="8.767577921971679">
<ele>178.20000000000005</ele>
<time>2023-05-17T10:33:06Z</time>
</trkpt>
<trkpt lat="49.083661967888474" lon="8.767524948343635">
<ele>178</ele>
<time>2023-05-17T10:33:07Z</time>
</trkpt>
<trkpt lat="49.08363497816026" lon="8.767466945573688">
<ele>178</ele>
<time>2023-05-17T10:33:08Z</time>
</trkpt>
<trkpt lat="49.083621986210346" lon="8.767402991652489">
<ele>178.20000000000005</ele>
<time>2023-05-17T10:33:09Z</time>
</trkpt>
<trkpt lat="49.083619974553585" lon="8.767329985275865">
<ele>178.20000000000005</ele>
<time>2023-05-17T10:33:10Z</time>
</trkpt>
<trkpt lat="49.083624919876456" lon="8.767251949757338">
<ele>178.20000000000005</ele>
<time>2023-05-17T10:33:11Z</time>
</trkpt>
<trkpt lat="49.083621986210346" lon="8.767171986401081">
<ele>178.20000000000005</ele>
<time>2023-05-17T10:33:12Z</time>
</trkpt>
<trkpt lat="49.08360991626978" lon="8.767089927569032">
<ele>178.20000000000005</ele>
<time>2023-05-17T10:33:13Z</time>
</trkpt>
<trkpt lat="49.08358996734023" lon="8.767011975869536">
<ele>178</ele>
<time>2023-05-17T10:33:14Z</time>
</trkpt>
<trkpt lat="49.08355996012688" lon="8.766939975321293">
<ele>178</ele>
<time>2023-05-17T10:33:15Z</time>
</trkpt>
<trkpt lat="49.08352199010551" lon="8.766876943409443">
<ele>178</ele>
<time>2023-05-17T10:33:16Z</time>
</trkpt>
<trkpt lat="49.08348293043673" lon="8.766817934811115">
<ele>178</ele>
<time>2023-05-17T10:33:17Z</time>
</trkpt>
<trkpt lat="49.08344496041536" lon="8.76676194369793">
<ele>178</ele>
<time>2023-05-17T10:33:18Z</time>
</trkpt>
<trkpt lat="49.083402967080474" lon="8.766706958413124">
<ele>178</ele>
<time>2023-05-17T10:33:19Z</time>
</trkpt>
<trkpt lat="49.083362985402346" lon="8.766651973128319">
<ele>178</ele>
<time>2023-05-17T10:33:20Z</time>
</trkpt>
<trkpt lat="49.08332694321871" lon="8.766596987843513">
<ele>178</ele>
<time>2023-05-17T10:33:21Z</time>
</trkpt>
<trkpt lat="49.08329299651086" lon="8.76654694788158">
<ele>178</ele>
<time>2023-05-17T10:33:22Z</time>
</trkpt>
<trkpt lat="49.08325997181237" lon="8.766502942889929">
<ele>178.20000000000005</ele>
<time>2023-05-17T10:33:23Z</time>
</trkpt>
<trkpt lat="49.08322996459901" lon="8.766459943726659">
<ele>178.20000000000005</ele>
<time>2023-05-17T10:33:24Z</time>
</trkpt>
<trkpt lat="49.08320196904242" lon="8.766412921249866">
<ele>178.20000000000005</ele>
<time>2023-05-17T10:33:25Z</time>
</trkpt>
<trkpt lat="49.08317799679935" lon="8.766371933743358">
<ele>178.20000000000005</ele>
<time>2023-05-17T10:33:26Z</time>
</trkpt>
<trkpt lat="49.083151929080486" lon="8.76633195206523">
<ele>178.20000000000005</ele>
<time>2023-05-17T10:33:27Z</time>
</trkpt>
<trkpt lat="49.08312192186713" lon="8.766296999529004">
<ele>178.20000000000005</ele>
<time>2023-05-17T10:33:28Z</time>
</trkpt>
<trkpt lat="49.08308797515929" lon="8.766251988708973">
<ele>178.39999999999998</ele>
<time>2023-05-17T10:33:29Z</time>
</trkpt>
<trkpt lat="49.083059979602695" lon="8.766206977888942">
<ele>178.39999999999998</ele>
<time>2023-05-17T10:33:30Z</time>
</trkpt>
<trkpt lat="49.08302997238934" lon="8.766164984554052">
<ele>178.60000000000002</ele>
<time>2023-05-17T10:33:31Z</time>
</trkpt>
<trkpt lat="49.082999965175986" lon="8.76611796207726">
<ele>178.60000000000002</ele>
<time>2023-05-17T10:33:32Z</time>
</trkpt>
<trkpt lat="49.082972975447774" lon="8.766072951257229">
<ele>178.79999999999995</ele>
<time>2023-05-17T10:33:33Z</time>
</trkpt>
<trkpt lat="49.08293995074928" lon="8.766021989285946">
<ele>179</ele>
<time>2023-05-17T10:33:34Z</time>
</trkpt>
<trkpt lat="49.08289795741439" lon="8.76596993766725">
<ele>179</ele>
<time>2023-05-17T10:33:35Z</time>
</trkpt>
<trkpt lat="49.08285495825112" lon="8.765909923240542">
<ele>179.20000000000005</ele>
<time>2023-05-17T10:33:36Z</time>
</trkpt>
<trkpt lat="49.08281296491623" lon="8.765841946005821">
<ele>179.20000000000005</ele>
<time>2023-05-17T10:33:37Z</time>
</trkpt>
<trkpt lat="49.0827679540962" lon="8.765776986256242">
<ele>179.39999999999998</ele>
<time>2023-05-17T10:33:38Z</time>
</trkpt>
<trkpt lat="49.082721937447786" lon="8.765712948516011">
<ele>179.39999999999998</ele>
<time>2023-05-17T10:33:39Z</time>
</trkpt>
<trkpt lat="49.082674998790026" lon="8.765649916604161">
<ele>179.60000000000002</ele>
<time>2023-05-17T10:33:40Z</time>
</trkpt>
<trkpt lat="49.082629987969995" lon="8.765586968511343">
<ele>179.60000000000002</ele>
<time>2023-05-17T10:33:41Z</time>
</trkpt>
<trkpt lat="49.0825969632715" lon="8.765527959913015">
<ele>179.79999999999995</ele>
<time>2023-05-17T10:33:42Z</time>
</trkpt>
<trkpt lat="49.08256494440138" lon="8.765467945486307">
<ele>179.79999999999995</ele>
<time>2023-05-17T10:33:43Z</time>
</trkpt>
<trkpt lat="49.08252194523811" lon="8.765397956594825">
<ele>180</ele>
<time>2023-05-17T10:33:44Z</time>
</trkpt>
<trkpt lat="49.082482969388366" lon="8.765336936339736">
<ele>180</ele>
<time>2023-05-17T10:33:45Z</time>
</trkpt>
<trkpt lat="49.082444999367" lon="8.765277927741408">
<ele>180.20000000000005</ele>
<time>2023-05-17T10:33:46Z</time>
</trkpt>
<trkpt lat="49.08240493386984" lon="8.765229983255267">
<ele>180.39999999999998</ele>
<time>2023-05-17T10:33:47Z</time>
</trkpt>
<trkpt lat="49.08236796967685" lon="8.765177931636572">
<ele>180.39999999999998</ele>
<time>2023-05-17T10:33:48Z</time>
</trkpt>
<trkpt lat="49.082334944978356" lon="8.765124958008528">
<ele>180.60000000000002</ele>
<time>2023-05-17T10:33:49Z</time>
</trkpt>
<trkpt lat="49.08230292610824" lon="8.765081958845258">
<ele>180.79999999999995</ele>
<time>2023-05-17T10:33:50Z</time>
</trkpt>
<trkpt lat="49.08227199688554" lon="8.765034936368465">
<ele>180.79999999999995</ele>
<time>2023-05-17T10:33:51Z</time>
</trkpt>
<trkpt lat="49.08223997801542" lon="8.764989925548434">
<ele>181</ele>
<time>2023-05-17T10:33:52Z</time>
</trkpt>
<trkpt lat="49.08220997080207" lon="8.764946926385164">
<ele>181.20000000000005</ele>
<time>2023-05-17T10:33:53Z</time>
</trkpt>
<trkpt lat="49.082179963588715" lon="8.764901999384165">
<ele>181.39999999999998</ele>
<time>2023-05-17T10:33:54Z</time>
</trkpt>
<trkpt lat="49.08214995637536" lon="8.764857994392514">
<ele>181.39999999999998</ele>
<time>2023-05-17T10:33:55Z</time>
</trkpt>
<trkpt lat="49.082117937505245" lon="8.764812983572483">
<ele>181.60000000000002</ele>
<time>2023-05-17T10:33:56Z</time>
</trkpt>
<trkpt lat="49.08208994194865" lon="8.764766966924071">
<ele>181.79999999999995</ele>
<time>2023-05-17T10:33:57Z</time>
</trkpt>
<trkpt lat="49.08206194639206" lon="8.76472195610404">
<ele>181.79999999999995</ele>
<time>2023-05-17T10:33:58Z</time>
</trkpt>
<trkpt lat="49.082031939178705" lon="8.764676945284009">
<ele>182</ele>
<time>2023-05-17T10:33:59Z</time>
</trkpt>
<trkpt lat="49.08200293779373" lon="8.764632940292358">
<ele>182.20000000000005</ele>
<time>2023-05-17T10:34:00Z</time>
</trkpt>
<trkpt lat="49.08197494223714" lon="8.764589941129088">
<ele>182.20000000000005</ele>
<time>2023-05-17T10:34:01Z</time>
</trkpt>
<trkpt lat="49.081947952508926" lon="8.764547947794199">
<ele>182.39999999999998</ele>
<time>2023-05-17T10:34:02Z</time>
</trkpt>
<trkpt lat="49.081921968609095" lon="8.764502936974168">
<ele>182.60000000000002</ele>
<time>2023-05-17T10:34:03Z</time>
</trkpt>
<trkpt lat="49.08189699053764" lon="8.764459937810898">
<ele>182.79999999999995</ele>
<time>2023-05-17T10:34:04Z</time>
</trkpt>
<trkpt lat="49.08187192864716" lon="8.764426996931434">
<ele>183</ele>
<time>2023-05-17T10:34:05Z</time>
</trkpt>
<trkpt lat="49.08184493891895" lon="8.764386931434274">
<ele>183.20000000000005</ele>
<time>2023-05-17T10:34:06Z</time>
</trkpt>
<trkpt lat="49.08182297833264" lon="8.764342926442623">
<ele>183.20000000000005</ele>
<time>2023-05-17T10:34:07Z</time>
</trkpt>
<trkpt lat="49.08180193975568" lon="8.764299927279353">
<ele>183.39999999999998</ele>
<time>2023-05-17T10:34:08Z</time>
</trkpt>
<trkpt lat="49.08177696168423" lon="8.764261957257986">
<ele>183.60000000000002</ele>
<time>2023-05-17T10:34:09Z</time>
</trkpt>
<trkpt lat="49.08175692893565" lon="8.764226920902729">
<ele>183.79999999999995</ele>
<time>2023-05-17T10:34:10Z</time>
</trkpt>
<trkpt lat="49.08173496834934" lon="8.764196997508407">
<ele>184</ele>
<time>2023-05-17T10:34:11Z</time>
</trkpt>
<trkpt lat="49.081711918115616" lon="8.764159949496388">
<ele>184.20000000000005</ele>
<time>2023-05-17T10:34:12Z</time>
</trkpt>
<trkpt lat="49.081686940044165" lon="8.764122985303402">
<ele>184.39999999999998</ele>
<time>2023-05-17T10:34:13Z</time>
</trkpt>
<trkpt lat="49.08165995031595" lon="8.764084931463003">
<ele>184.60000000000002</ele>
<time>2023-05-17T10:34:14Z</time>
</trkpt>
<trkpt lat="49.08163296058774" lon="8.764049978926778">
<ele>184.79999999999995</ele>
<time>2023-05-17T10:34:15Z</time>
</trkpt>
<trkpt lat="49.08160697668791" lon="8.76401293091476">
<ele>185</ele>
<time>2023-05-17T10:34:16Z</time>
</trkpt>
<trkpt lat="49.081576969474554" lon="8.76396993175149">
<ele>185.20000000000005</ele>
<time>2023-05-17T10:34:17Z</time>
</trkpt>
<trkpt lat="49.0815469622612" lon="8.763924920931458">
<ele>185.39999999999998</ele>
<time>2023-05-17T10:34:18Z</time>
</trkpt>
<trkpt lat="49.081516955047846" lon="8.763881921768188">
<ele>185.39999999999998</ele>
<time>2023-05-17T10:34:19Z</time>
</trkpt>
<trkpt lat="49.08148694783449" lon="8.76384194009006">
<ele>185.60000000000002</ele>
<time>2023-05-17T10:34:20Z</time>
</trkpt>
<trkpt lat="49.08145794644952" lon="8.763801958411932">
<ele>185.79999999999995</ele>
<time>2023-05-17T10:34:21Z</time>
</trkpt>
<trkpt lat="49.081427939236164" lon="8.763759965077043">
<ele>185.79999999999995</ele>
<time>2023-05-17T10:34:22Z</time>
</trkpt>
<trkpt lat="49.08139994367957" lon="8.763717971742153">
<ele>186</ele>
<time>2023-05-17T10:34:23Z</time>
</trkpt>
<trkpt lat="49.08137295395136" lon="8.763674972578883">
<ele>186</ele>
<time>2023-05-17T10:34:24Z</time>
</trkpt>
<trkpt lat="49.081344958394766" lon="8.763631973415613">
<ele>186.20000000000005</ele>
<time>2023-05-17T10:34:25Z</time>
</trkpt>
<trkpt lat="49.08131193369627" lon="8.763589980080724">
<ele>186.20000000000005</ele>
<time>2023-05-17T10:34:26Z</time>
</trkpt>
<trkpt lat="49.0812829323113" lon="8.763551926240325">
<ele>186.39999999999998</ele>
<time>2023-05-17T10:34:27Z</time>
</trkpt>
<trkpt lat="49.08125292509794" lon="8.763511944562197">
<ele>186.39999999999998</ele>
<time>2023-05-17T10:34:28Z</time>
</trkpt>
<trkpt lat="49.08122291788459" lon="8.763469951227307">
<ele>186.60000000000002</ele>
<time>2023-05-17T10:34:29Z</time>
</trkpt>
<trkpt lat="49.08119793981314" lon="8.763422928750515">
<ele>186.60000000000002</ele>
<time>2023-05-17T10:34:30Z</time>
</trkpt>
<trkpt lat="49.081171955913305" lon="8.763379929587245">
<ele>186.79999999999995</ele>
<time>2023-05-17T10:34:31Z</time>
</trkpt>
<trkpt lat="49.08114295452833" lon="8.763337936252356">
<ele>186.79999999999995</ele>
<time>2023-05-17T10:34:32Z</time>
</trkpt>
<trkpt lat="49.0811169706285" lon="8.763297954574227">
<ele>187</ele>
<time>2023-05-17T10:34:33Z</time>
</trkpt>
<trkpt lat="49.08108998090029" lon="8.763257972896099">
<ele>187</ele>
<time>2023-05-17T10:34:34Z</time>
</trkpt>
<trkpt lat="49.081064919009805" lon="8.76321698538959">
<ele>187.20000000000005</ele>
<time>2023-05-17T10:34:35Z</time>
</trkpt>
<trkpt lat="49.08103692345321" lon="8.763169962912798">
<ele>187.20000000000005</ele>
<time>2023-05-17T10:34:36Z</time>
</trkpt>
<trkpt lat="49.081009933725" lon="8.76312998123467">
<ele>187.39999999999998</ele>
<time>2023-05-17T10:34:37Z</time>
</trkpt>
<trkpt lat="49.08098294399679" lon="8.763091927394271">
<ele>187.39999999999998</ele>
<time>2023-05-17T10:34:38Z</time>
</trkpt>
<trkpt lat="49.0809599775821" lon="8.76304498873651">
<ele>187.60000000000002</ele>
<time>2023-05-17T10:34:39Z</time>
</trkpt>
<trkpt lat="49.080931982025504" lon="8.762999977916479">
<ele>187.60000000000002</ele>
<time>2023-05-17T10:34:40Z</time>
</trkpt>
<trkpt lat="49.08089996315539" lon="8.762954967096448">
<ele>187.79999999999995</ele>
<time>2023-05-17T10:34:41Z</time>
</trkpt>
<trkpt lat="49.08086693845689" lon="8.762911967933178">
<ele>188</ele>
<time>2023-05-17T10:34:42Z</time>
</trkpt>
<trkpt lat="49.08083299174905" lon="8.762861927971244">
<ele>188</ele>
<time>2023-05-17T10:34:43Z</time>
</trkpt>
<trkpt lat="49.080804996192455" lon="8.76280996017158">
<ele>188.20000000000005</ele>
<time>2023-05-17T10:34:44Z</time>
</trkpt>
<trkpt lat="49.08077792264521" lon="8.762757992371917">
<ele>188.20000000000005</ele>
<time>2023-05-17T10:34:45Z</time>
</trkpt>
<trkpt lat="49.08074799925089" lon="8.7627019174397">
<ele>188.20000000000005</ele>
<time>2023-05-17T10:34:46Z</time>
</trkpt>
<trkpt lat="49.080716986209154" lon="8.762646932154894">
<ele>188.39999999999998</ele>
<time>2023-05-17T10:34:47Z</time>
</trkpt>
<trkpt lat="49.08068999648094" lon="8.76259496435523">
<ele>188.39999999999998</ele>
<time>2023-05-17T10:34:48Z</time>
</trkpt>
<trkpt lat="49.0806629229337" lon="8.762541990727186">
<ele>188.60000000000002</ele>
<time>2023-05-17T10:34:49Z</time>
</trkpt>
<trkpt lat="49.08063995651901" lon="8.76248499378562">
<ele>188.79999999999995</ele>
<time>2023-05-17T10:34:50Z</time>
</trkpt>
<trkpt lat="49.0806179959327" lon="8.762427996844053">
<ele>188.79999999999995</ele>
<time>2023-05-17T10:34:51Z</time>
</trkpt>
<trkpt lat="49.08059796318412" lon="8.762371921911836">
<ele>189</ele>
<time>2023-05-17T10:34:52Z</time>
</trkpt>
<trkpt lat="49.0805799420923" lon="8.76231693662703">
<ele>189</ele>
<time>2023-05-17T10:34:53Z</time>
</trkpt>
<trkpt lat="49.08056192100048" lon="8.762262957170606">
<ele>189.20000000000005</ele>
<time>2023-05-17T10:34:54Z</time>
</trkpt>
<trkpt lat="49.080544989556074" lon="8.762211995199323">
<ele>189.20000000000005</ele>
<time>2023-05-17T10:34:55Z</time>
</trkpt>
<trkpt lat="49.08053199760616" lon="8.762156926095486">
<ele>189.39999999999998</ele>
<time>2023-05-17T10:34:56Z</time>
</trkpt>
<trkpt lat="49.08051799982786" lon="8.76210194081068">
<ele>189.39999999999998</ele>
<time>2023-05-17T10:34:57Z</time>
</trkpt>
<trkpt lat="49.080502996221185" lon="8.762042932212353">
<ele>189.39999999999998</ele>
<time>2023-05-17T10:34:58Z</time>
</trkpt>
<trkpt lat="49.08048799261451" lon="8.761984929442406">
<ele>189.60000000000002</ele>
<time>2023-05-17T10:34:59Z</time>
</trkpt>
<trkpt lat="49.08047298900783" lon="8.7619299441576">
<ele>189.60000000000002</ele>
<time>2023-05-17T10:35:00Z</time>
</trkpt>
<trkpt lat="49.080457985401154" lon="8.761876970529556">
<ele>189.60000000000002</ele>
<time>2023-05-17T10:35:01Z</time>
</trkpt>
<trkpt lat="49.08044499345124" lon="8.761822991073132">
<ele>189.79999999999995</ele>
<time>2023-05-17T10:35:02Z</time>
</trkpt>
<trkpt lat="49.08043292351067" lon="8.761769933626056">
<ele>189.79999999999995</ele>
<time>2023-05-17T10:35:03Z</time>
</trkpt>
<trkpt lat="49.080421943217516" lon="8.761717965826392">
<ele>190</ele>
<time>2023-05-17T10:35:04Z</time>
</trkpt>
<trkpt lat="49.08040693961084" lon="8.761662980541587">
<ele>190</ele>
<time>2023-05-17T10:35:05Z</time>
</trkpt>
<trkpt lat="49.08039193600416" lon="8.761607995256782">
<ele>190.20000000000005</ele>
<time>2023-05-17T10:35:06Z</time>
</trkpt>
<trkpt lat="49.080374920740724" lon="8.761551920324564">
<ele>190.20000000000005</ele>
<time>2023-05-17T10:35:07Z</time>
</trkpt>
<trkpt lat="49.08035798929632" lon="8.761496935039759">
<ele>190.39999999999998</ele>
<time>2023-05-17T10:35:08Z</time>
</trkpt>
<trkpt lat="49.0803449973464" lon="8.761442955583334">
<ele>190.39999999999998</ele>
<time>2023-05-17T10:35:09Z</time>
</trkpt>
<trkpt lat="49.080331921577454" lon="8.761392999440432">
<ele>190.60000000000002</ele>
<time>2023-05-17T10:35:10Z</time>
</trkpt>
<trkpt lat="49.08031792379916" lon="8.761344971135259">
<ele>190.79999999999995</ele>
<time>2023-05-17T10:35:11Z</time>
</trkpt>
<trkpt lat="49.08030493184924" lon="8.761296942830086">
<ele>190.79999999999995</ele>
<time>2023-05-17T10:35:12Z</time>
</trkpt>
<trkpt lat="49.080291939899325" lon="8.761246986687183">
<ele>191</ele>
<time>2023-05-17T10:35:13Z</time>
</trkpt>
<trkpt lat="49.08027995377779" lon="8.761194935068488">
<ele>191</ele>
<time>2023-05-17T10:35:14Z</time>
</trkpt>
<trkpt lat="49.080266961827874" lon="8.761142967268825">
<ele>191.20000000000005</ele>
<time>2023-05-17T10:35:15Z</time>
</trkpt>
<trkpt lat="49.08025296404958" lon="8.76108999364078">
<ele>191.20000000000005</ele>
<time>2023-05-17T10:35:16Z</time>
</trkpt>
<trkpt lat="49.0802379604429" lon="8.761036936193705">
<ele>191.39999999999998</ele>
<time>2023-05-17T10:35:17Z</time>
</trkpt>
<trkpt lat="49.080226980149746" lon="8.7609819509089">
<ele>191.39999999999998</ele>
<time>2023-05-17T10:35:18Z</time>
</trkpt>
<trkpt lat="49.08021692186594" lon="8.760929983109236">
<ele>191.60000000000002</ele>
<time>2023-05-17T10:35:19Z</time>
</trkpt>
<trkpt lat="49.080204935744405" lon="8.76087692566216">
<ele>191.60000000000002</ele>
<time>2023-05-17T10:35:20Z</time>
</trkpt>
<trkpt lat="49.08019294962287" lon="8.760824957862496">
<ele>191.79999999999995</ele>
<time>2023-05-17T10:35:21Z</time>
</trkpt>
<trkpt lat="49.080179957672954" lon="8.760772990062833">
<ele>192</ele>
<time>2023-05-17T10:35:22Z</time>
</trkpt>
<trkpt lat="49.08016495406628" lon="8.760721944272518">
<ele>192</ele>
<time>2023-05-17T10:35:23Z</time>
</trkpt>
<trkpt lat="49.08015196211636" lon="8.760667964816093">
<ele>192.20000000000005</ele>
<time>2023-05-17T10:35:24Z</time>
</trkpt>
<trkpt lat="49.080139975994825" lon="8.76061792485416">
<ele>192.39999999999998</ele>
<time>2023-05-17T10:35:25Z</time>
</trkpt>
<trkpt lat="49.08012497238815" lon="8.76057199202478">
<ele>192.39999999999998</ele>
<time>2023-05-17T10:35:26Z</time>
</trkpt>
<trkpt lat="49.08010695129633" lon="8.760522957891226">
<ele>192.60000000000002</ele>
<time>2023-05-17T10:35:27Z</time>
</trkpt>
<trkpt lat="49.08008792437613" lon="8.760471995919943">
<ele>192.79999999999995</ele>
<time>2023-05-17T10:35:28Z</time>
</trkpt>
<trkpt lat="49.080071998760104" lon="8.760419944301248">
<ele>192.79999999999995</ele>
<time>2023-05-17T10:35:29Z</time>
</trkpt>
<trkpt lat="49.080054983496666" lon="8.760367976501584">
<ele>193</ele>
<time>2023-05-17T10:35:30Z</time>
</trkpt>
<trkpt lat="49.080034950748086" lon="8.76031793653965">
<ele>193</ele>
<time>2023-05-17T10:35:31Z</time>
</trkpt>
<trkpt lat="49.08001692965627" lon="8.760271919891238">
<ele>193.20000000000005</ele>
<time>2023-05-17T10:35:32Z</time>
</trkpt>
<trkpt lat="49.07999698072672" lon="8.760222969576716">
<ele>193.20000000000005</ele>
<time>2023-05-17T10:35:33Z</time>
</trkpt>
<trkpt lat="49.07997795380652" lon="8.760171923786402">
<ele>193.39999999999998</ele>
<time>2023-05-17T10:35:34Z</time>
</trkpt>
<trkpt lat="49.07995699904859" lon="8.760119955986738">
<ele>193.39999999999998</ele>
<time>2023-05-17T10:35:35Z</time>
</trkpt>
<trkpt lat="49.07993495464325" lon="8.760069999843836">
<ele>193.60000000000002</ele>
<time>2023-05-17T10:35:36Z</time>
</trkpt>
<trkpt lat="49.07991492189467" lon="8.760021971538663">
<ele>193.79999999999995</ele>
<time>2023-05-17T10:35:37Z</time>
</trkpt>
<trkpt lat="49.07989698462188" lon="8.759971931576729">
<ele>193.79999999999995</ele>
<time>2023-05-17T10:35:38Z</time>
</trkpt>
<trkpt lat="49.07987795770168" lon="8.759922981262207">
<ele>194</ele>
<time>2023-05-17T10:35:39Z</time>
</trkpt>
<trkpt lat="49.07985691912472" lon="8.759871935471892">
<ele>194</ele>
<time>2023-05-17T10:35:40Z</time>
</trkpt>
<trkpt lat="49.079836970195174" lon="8.75982197932899">
<ele>194.20000000000005</ele>
<time>2023-05-17T10:35:41Z</time>
</trkpt>
<trkpt lat="49.079819954931736" lon="8.759769927710295">
<ele>194.20000000000005</ele>
<time>2023-05-17T10:35:42Z</time>
</trkpt>
<trkpt lat="49.0798029396683" lon="8.759717959910631">
<ele>194.39999999999998</ele>
<time>2023-05-17T10:35:43Z</time>
</trkpt>
<trkpt lat="49.07978693023324" lon="8.759667919948697">
<ele>194.39999999999998</ele>
<time>2023-05-17T10:35:44Z</time>
</trkpt>
<trkpt lat="49.079769998788834" lon="8.759621987119317">
<ele>194.60000000000002</ele>
<time>2023-05-17T10:35:45Z</time>
</trkpt>
<trkpt lat="49.079749966040254" lon="8.759574964642525">
<ele>194.60000000000002</ele>
<time>2023-05-17T10:35:46Z</time>
</trkpt>
<trkpt lat="49.079729933291674" lon="8.75952492468059">
<ele>194.79999999999995</ele>
<time>2023-05-17T10:35:47Z</time>
</trkpt>
<trkpt lat="49.07971199601889" lon="8.759471951052547">
<ele>195</ele>
<time>2023-05-17T10:35:48Z</time>
</trkpt>
<trkpt lat="49.079689951613545" lon="8.759416965767741">
<ele>195</ele>
<time>2023-05-17T10:35:49Z</time>
</trkpt>
<trkpt lat="49.079669918864965" lon="8.759364997968078">
<ele>195.20000000000005</ele>
<time>2023-05-17T10:35:50Z</time>
</trkpt>
<trkpt lat="49.07964996993542" lon="8.759314958006144">
<ele>195.39999999999998</ele>
<time>2023-05-17T10:35:51Z</time>
</trkpt>
<trkpt lat="49.07962993718684" lon="8.75926491804421">
<ele>195.60000000000002</ele>
<time>2023-05-17T10:35:52Z</time>
</trkpt>
<trkpt lat="49.07961199991405" lon="8.759216973558068">
<ele>195.79999999999995</ele>
<time>2023-05-17T10:35:53Z</time>
</trkpt>
<trkpt lat="49.07959498465061" lon="8.759167939424515">
<ele>195.79999999999995</ele>
<time>2023-05-17T10:35:54Z</time>
</trkpt>
<trkpt lat="49.07957495190203" lon="8.759119994938374">
<ele>196</ele>
<time>2023-05-17T10:35:55Z</time>
</trkpt>
<trkpt lat="49.07955491915345" lon="8.759074984118342">
<ele>196.20000000000005</ele>
<time>2023-05-17T10:35:56Z</time>
</trkpt>
<trkpt lat="49.079536981880665" lon="8.75902796164155">
<ele>196.39999999999998</ele>
<time>2023-05-17T10:35:57Z</time>
</trkpt>
<trkpt lat="49.07952197827399" lon="8.758979933336377">
<ele>196.60000000000002</ele>
<time>2023-05-17T10:35:58Z</time>
</trkpt>
<trkpt lat="49.07950496301055" lon="8.758931988850236">
<ele>196.60000000000002</ele>
<time>2023-05-17T10:35:59Z</time>
</trkpt>
<trkpt lat="49.07948794774711" lon="8.758886978030205">
<ele>196.79999999999995</ele>
<time>2023-05-17T10:36:00Z</time>
</trkpt>
<trkpt lat="49.079472944140434" lon="8.758839955553412">
<ele>197</ele>
<time>2023-05-17T10:36:01Z</time>
</trkpt>
<trkpt lat="49.07945693470538" lon="8.758796956390142">
<ele>197.20000000000005</ele>
<time>2023-05-17T10:36:02Z</time>
</trkpt>
<trkpt lat="49.07943698577583" lon="8.758752951398492">
<ele>197.39999999999998</ele>
<time>2023-05-17T10:36:03Z</time>
</trkpt>
<trkpt lat="49.079412929713726" lon="8.75870794057846">
<ele>197.60000000000002</ele>
<time>2023-05-17T10:36:04Z</time>
</trkpt>
<trkpt lat="49.07939298078418" lon="8.75866292975843">
<ele>197.79999999999995</ele>
<time>2023-05-17T10:36:05Z</time>
</trkpt>
<trkpt lat="49.07937495969236" lon="8.758614985272288">
<ele>198</ele>
<time>2023-05-17T10:36:06Z</time>
</trkpt>
<trkpt lat="49.07935794442892" lon="8.758564945310354">
<ele>198.20000000000005</ele>
<time>2023-05-17T10:36:07Z</time>
</trkpt>
<trkpt lat="49.0793399233371" lon="8.758519934490323">
<ele>198.39999999999998</ele>
<time>2023-05-17T10:36:08Z</time>
</trkpt>
<trkpt lat="49.079324919730425" lon="8.758477941155434">
<ele>198.60000000000002</ele>
<time>2023-05-17T10:36:09Z</time>
</trkpt>
<trkpt lat="49.07930798828602" lon="8.758436953648925">
<ele>198.79999999999995</ele>
<time>2023-05-17T10:36:10Z</time>
</trkpt>
<trkpt lat="49.0792899671942" lon="8.7583829741925">
<ele>199</ele>
<time>2023-05-17T10:36:11Z</time>
</trkpt>
<trkpt lat="49.07926993444562" lon="8.758334945887327">
<ele>199.20000000000005</ele>
<time>2023-05-17T10:36:12Z</time>
</trkpt>
<trkpt lat="49.07925493083894" lon="8.758289935067296">
<ele>199.39999999999998</ele>
<time>2023-05-17T10:36:13Z</time>
</trkpt>
<trkpt lat="49.079239927232265" lon="8.758246935904026">
<ele>199.79999999999995</ele>
<time>2023-05-17T10:36:14Z</time>
</trkpt>
<trkpt lat="49.07922299578786" lon="8.758207960054278">
<ele>200</ele>
<time>2023-05-17T10:36:15Z</time>
</trkpt>
<trkpt lat="49.0792069863528" lon="8.75817191787064">
<ele>200.39999999999998</ele>
<time>2023-05-17T10:36:16Z</time>
</trkpt>
<trkpt lat="49.0791879594326" lon="8.758134953677654">
<ele>200.60000000000002</ele>
<time>2023-05-17T10:36:17Z</time>
</trkpt>
<trkpt lat="49.07916499301791" lon="8.758097989484668">
<ele>201</ele>
<time>2023-05-17T10:36:18Z</time>
</trkpt>
<trkpt lat="49.07914194278419" lon="8.75806194730103">
<ele>201.20000000000005</ele>
<time>2023-05-17T10:36:19Z</time>
</trkpt>
<trkpt lat="49.07911696471274" lon="8.758022971451283">
<ele>201.39999999999998</ele>
<time>2023-05-17T10:36:20Z</time>
</trkpt>
<trkpt lat="49.07909299246967" lon="8.757984917610884">
<ele>201.79999999999995</ele>
<time>2023-05-17T10:36:21Z</time>
</trkpt>
<trkpt lat="49.079067930579185" lon="8.757944935932755">
<ele>202</ele>
<time>2023-05-17T10:36:22Z</time>
</trkpt>
<trkpt lat="49.079042952507734" lon="8.757904954254627">
<ele>202.20000000000005</ele>
<time>2023-05-17T10:36:23Z</time>
</trkpt>
<trkpt lat="49.0790169686079" lon="8.75786698423326">
<ele>202.39999999999998</ele>
<time>2023-05-17T10:36:24Z</time>
</trkpt>
<trkpt lat="49.07898997887969" lon="8.75782792456448">
<ele>202.60000000000002</ele>
<time>2023-05-17T10:36:25Z</time>
</trkpt>
<trkpt lat="49.07896793447435" lon="8.757791966199875">
<ele>202.79999999999995</ele>
<time>2023-05-17T10:36:26Z</time>
</trkpt>
<trkpt lat="49.07894496805966" lon="8.757757935672998">
<ele>203</ele>
<time>2023-05-17T10:36:27Z</time>
</trkpt>
<trkpt lat="49.07891998998821" lon="8.757724994793534">
<ele>203.20000000000005</ele>
<time>2023-05-17T10:36:28Z</time>
</trkpt>
<trkpt lat="49.078894928097725" lon="8.757696999236941">
<ele>203.39999999999998</ele>
<time>2023-05-17T10:36:29Z</time>
</trkpt>
<trkpt lat="49.078872967511415" lon="8.757671937346458">
<ele>203.60000000000002</ele>
<time>2023-05-17T10:36:30Z</time>
</trkpt>
<trkpt lat="49.078852934762836" lon="8.757642935961485">
<ele>203.79999999999995</ele>
<time>2023-05-17T10:36:31Z</time>
</trkpt>
<trkpt lat="49.07883298583329" lon="8.75761292874813">
<ele>203.79999999999995</ele>
<time>2023-05-17T10:36:32Z</time>
</trkpt>
<trkpt lat="49.07881295308471" lon="8.757579987868667">
<ele>204</ele>
<time>2023-05-17T10:36:33Z</time>
</trkpt>
<trkpt lat="49.07879493199289" lon="8.757542939856648">
<ele>204.20000000000005</ele>
<time>2023-05-17T10:36:34Z</time>
</trkpt>
<trkpt lat="49.0787719655782" lon="8.757506981492043">
<ele>204.39999999999998</ele>
<time>2023-05-17T10:36:35Z</time>
</trkpt>
<trkpt lat="49.078744975849986" lon="8.757471945136786">
<ele>204.60000000000002</ele>
<time>2023-05-17T10:36:36Z</time>
</trkpt>
<trkpt lat="49.07871698029339" lon="8.75743699260056">
<ele>204.79999999999995</ele>
<time>2023-05-17T10:36:37Z</time>
</trkpt>
<trkpt lat="49.07868797890842" lon="8.757399944588542">
<ele>205</ele>
<time>2023-05-17T10:36:38Z</time>
</trkpt>
<trkpt lat="49.07866199500859" lon="8.757359962910414">
<ele>205.20000000000005</ele>
<time>2023-05-17T10:36:39Z</time>
</trkpt>
<trkpt lat="49.078634921461344" lon="8.757321992889047">
<ele>205.39999999999998</ele>
<time>2023-05-17T10:36:40Z</time>
</trkpt>
<trkpt lat="49.07860994338989" lon="8.757282933220267">
<ele>205.60000000000002</ele>
<time>2023-05-17T10:36:41Z</time>
</trkpt>
<trkpt lat="49.07858295366168" lon="8.757246974855661">
<ele>205.79999999999995</ele>
<time>2023-05-17T10:36:42Z</time>
</trkpt>
<trkpt lat="49.07855495810509" lon="8.757211938500404">
<ele>206</ele>
<time>2023-05-17T10:36:43Z</time>
</trkpt>
<trkpt lat="49.078527968376875" lon="8.757171956822276">
<ele>206.20000000000005</ele>
<time>2023-05-17T10:36:44Z</time>
</trkpt>
<trkpt lat="49.07850491814315" lon="8.757136920467019">
<ele>206.39999999999998</ele>
<time>2023-05-17T10:36:45Z</time>
</trkpt>
<trkpt lat="49.07848195172846" lon="8.757097944617271">
<ele>206.39999999999998</ele>
<time>2023-05-17T10:36:46Z</time>
</trkpt>
<trkpt lat="49.07845697365701" lon="8.757061986252666">
<ele>206.60000000000002</ele>
<time>2023-05-17T10:36:47Z</time>
</trkpt>
<trkpt lat="49.07843492925167" lon="8.757019992917776">
<ele>206.79999999999995</ele>
<time>2023-05-17T10:36:48Z</time>
</trkpt>
<trkpt lat="49.07841196283698" lon="8.756972970440984">
<ele>207</ele>
<time>2023-05-17T10:36:49Z</time>
</trkpt>
<trkpt lat="49.0783919300884" lon="8.75692494213581">
<ele>207.39999999999998</ele>
<time>2023-05-17T10:36:50Z</time>
</trkpt>
<trkpt lat="49.07837198115885" lon="8.75687699764967">
<ele>207.60000000000002</ele>
<time>2023-05-17T10:36:51Z</time>
</trkpt>
<trkpt lat="49.078354965895414" lon="8.756831986829638">
<ele>207.79999999999995</ele>
<time>2023-05-17T10:36:52Z</time>
</trkpt>
<trkpt lat="49.078334933146834" lon="8.756786976009607">
<ele>208</ele>
<time>2023-05-17T10:36:53Z</time>
</trkpt>
<trkpt lat="49.078311966732144" lon="8.756737941876054">
<ele>208</ele>
<time>2023-05-17T10:36:54Z</time>
</trkpt>
<trkpt lat="49.078294951468706" lon="8.756694942712784">
<ele>208.20000000000005</ele>
<time>2023-05-17T10:36:55Z</time>
</trkpt>
<trkpt lat="49.07828195951879" lon="8.756651943549514">
<ele>208.39999999999998</ele>
<time>2023-05-17T10:36:56Z</time>
</trkpt>
<trkpt lat="49.07826494425535" lon="8.756606932729483">
<ele>208.60000000000002</ele>
<time>2023-05-17T10:36:57Z</time>
</trkpt>
<trkpt lat="49.078249940648675" lon="8.756561921909451">
<ele>208.79999999999995</ele>
<time>2023-05-17T10:36:58Z</time>
</trkpt>
<trkpt lat="49.078234937042" lon="8.75651498325169">
<ele>209</ele>
<time>2023-05-17T10:36:59Z</time>
</trkpt>
<trkpt lat="49.07821792177856" lon="8.75646997243166">
<ele>209.20000000000005</ele>
<time>2023-05-17T10:37:00Z</time>
</trkpt>
<trkpt lat="49.07819998450577" lon="8.756422949954867">
<ele>209.39999999999998</ele>
<time>2023-05-17T10:37:01Z</time>
</trkpt>
<trkpt lat="49.078181963413954" lon="8.756377939134836">
<ele>209.60000000000002</ele>
<time>2023-05-17T10:37:02Z</time>
</trkpt>
<trkpt lat="49.078164948150516" lon="8.756334939971566">
<ele>209.79999999999995</ele>
<time>2023-05-17T10:37:03Z</time>
</trkpt>
<trkpt lat="49.07814793288708" lon="8.756292946636677">
<ele>210</ele>
<time>2023-05-17T10:37:04Z</time>
</trkpt>
<trkpt lat="49.07813494093716" lon="8.756251959130168">
<ele>210.20000000000005</ele>
<time>2023-05-17T10:37:05Z</time>
</trkpt>
<trkpt lat="49.078122954815626" lon="8.75621298328042">
<ele>210.20000000000005</ele>
<time>2023-05-17T10:37:06Z</time>
</trkpt>
<trkpt lat="49.07810996286571" lon="8.756174929440022">
<ele>210.39999999999998</ele>
<time>2023-05-17T10:37:07Z</time>
</trkpt>
<trkpt lat="49.078096970915794" lon="8.756134947761893">
<ele>210.60000000000002</ele>
<time>2023-05-17T10:37:08Z</time>
</trkpt>
<trkpt lat="49.07808196730912" lon="8.756094966083765">
<ele>210.79999999999995</ele>
<time>2023-05-17T10:37:09Z</time>
</trkpt>
<trkpt lat="49.07806495204568" lon="8.756052972748876">
<ele>211</ele>
<time>2023-05-17T10:37:10Z</time>
</trkpt>
<trkpt lat="49.07804793678224" lon="8.756011985242367">
<ele>211.20000000000005</ele>
<time>2023-05-17T10:37:11Z</time>
</trkpt>
<trkpt lat="49.078029999509454" lon="8.755971919745207">
<ele>211.60000000000002</ele>
<time>2023-05-17T10:37:12Z</time>
</trkpt>
<trkpt lat="49.078012984246016" lon="8.755931938067079">
<ele>211.79999999999995</ele>
<time>2023-05-17T10:37:13Z</time>
</trkpt>
<trkpt lat="49.07799798063934" lon="8.75589195638895">
<ele>212</ele>
<time>2023-05-17T10:37:14Z</time>
</trkpt>
<trkpt lat="49.07798498868942" lon="8.7558479513973">
<ele>212.20000000000005</ele>
<time>2023-05-17T10:37:15Z</time>
</trkpt>
<trkpt lat="49.077969985082746" lon="8.755807969719172">
<ele>212.39999999999998</ele>
<time>2023-05-17T10:37:16Z</time>
</trkpt>
<trkpt lat="49.07795296981931" lon="8.75576295889914">
<ele>212.60000000000002</ele>
<time>2023-05-17T10:37:17Z</time>
</trkpt>
<trkpt lat="49.07793796621263" lon="8.75571995973587">
<ele>212.79999999999995</ele>
<time>2023-05-17T10:37:18Z</time>
</trkpt>
<trkpt lat="49.077924974262714" lon="8.755681989714503">
<ele>213</ele>
<time>2023-05-17T10:37:19Z</time>
</trkpt>
<trkpt lat="49.07791298814118" lon="8.755642930045724">
<ele>213.20000000000005</ele>
<time>2023-05-17T10:37:20Z</time>
</trkpt>
<trkpt lat="49.07789999619126" lon="8.755604960024357">
<ele>213.39999999999998</ele>
<time>2023-05-17T10:37:21Z</time>
</trkpt>
<trkpt lat="49.077886920422316" lon="8.75556699000299">
<ele>213.79999999999995</ele>
<time>2023-05-17T10:37:22Z</time>
</trkpt>
<trkpt lat="49.07787493430078" lon="8.755531953647733">
<ele>214</ele>
<time>2023-05-17T10:37:23Z</time>
</trkpt>
<trkpt lat="49.077862948179245" lon="8.755494989454746">
<ele>214.20000000000005</ele>
<time>2023-05-17T10:37:24Z</time>
</trkpt>
<trkpt lat="49.07784995622933" lon="8.755457941442728">
<ele>214.39999999999998</ele>
<time>2023-05-17T10:37:25Z</time>
</trkpt>
<trkpt lat="49.077837970107794" lon="8.755421983078122">
<ele>214.60000000000002</ele>
<time>2023-05-17T10:37:26Z</time>
</trkpt>
<trkpt lat="49.07782698981464" lon="8.755386946722865">
<ele>214.79999999999995</ele>
<time>2023-05-17T10:37:27Z</time>
</trkpt>
<trkpt lat="49.07781198620796" lon="8.755349982529879">
<ele>215.20000000000005</ele>
<time>2023-05-17T10:37:28Z</time>
</trkpt>
<trkpt lat="49.077796982601285" lon="8.75531192868948">
<ele>215.39999999999998</ele>
<time>2023-05-17T10:37:29Z</time>
</trkpt>
<trkpt lat="49.07778298482299" lon="8.755272952839732">
<ele>215.60000000000002</ele>
<time>2023-05-17T10:37:30Z</time>
</trkpt>
<trkpt lat="49.07776999287307" lon="8.755236994475126">
<ele>215.79999999999995</ele>
<time>2023-05-17T10:37:31Z</time>
</trkpt>
<trkpt lat="49.077757922932506" lon="8.755199946463108">
<ele>216.20000000000005</ele>
<time>2023-05-17T10:37:32Z</time>
</trkpt>
<trkpt lat="49.07774493098259" lon="8.755162982270122">
<ele>216.39999999999998</ele>
<time>2023-05-17T10:37:33Z</time>
</trkpt>
<trkpt lat="49.077732944861054" lon="8.755129957571626">
<ele>216.60000000000002</ele>
<time>2023-05-17T10:37:34Z</time>
</trkpt>
<trkpt lat="49.0777219645679" lon="8.755094921216369">
<ele>217</ele>
<time>2023-05-17T10:37:35Z</time>
</trkpt>
<trkpt lat="49.077711990103126" lon="8.755062986165285">
<ele>217.20000000000005</ele>
<time>2023-05-17T10:37:36Z</time>
</trkpt>
<trkpt lat="49.07769799232483" lon="8.75502996146679">
<ele>217.39999999999998</ele>
<time>2023-05-17T10:37:37Z</time>
</trkpt>
<trkpt lat="49.07768198288977" lon="8.754992997273803">
<ele>217.79999999999995</ele>
<time>2023-05-17T10:37:38Z</time>
</trkpt>
<trkpt lat="49.077667985111475" lon="8.754956955090165">
<ele>218</ele>
<time>2023-05-17T10:37:39Z</time>
</trkpt>
<trkpt lat="49.07765692099929" lon="8.754917979240417">
<ele>218.20000000000005</ele>
<time>2023-05-17T10:37:40Z</time>
</trkpt>
<trkpt lat="49.07764493487775" lon="8.754879925400019">
<ele>218.60000000000002</ele>
<time>2023-05-17T10:37:41Z</time>
</trkpt>
<trkpt lat="49.07763194292784" lon="8.754846984520555">
<ele>218.79999999999995</ele>
<time>2023-05-17T10:37:42Z</time>
</trkpt>
<trkpt lat="49.07761693932116" lon="8.754812953993678">
<ele>219.20000000000005</ele>
<time>2023-05-17T10:37:43Z</time>
</trkpt>
<trkpt lat="49.07760193571448" lon="8.754779929295182">
<ele>219.39999999999998</ele>
<time>2023-05-17T10:37:44Z</time>
</trkpt>
<trkpt lat="49.07758793793619" lon="8.754746988415718">
<ele>219.79999999999995</ele>
<time>2023-05-17T10:37:45Z</time>
</trkpt>
<trkpt lat="49.07757695764303" lon="8.754714969545603">
<ele>220.20000000000005</ele>
<time>2023-05-17T10:37:46Z</time>
</trkpt>
<trkpt lat="49.07756798900664" lon="8.754682950675488">
<ele>220.39999999999998</ele>
<time>2023-05-17T10:37:47Z</time>
</trkpt>
<trkpt lat="49.077561954036355" lon="8.754651937633753">
<ele>220.79999999999995</ele>
<time>2023-05-17T10:37:48Z</time>
</trkpt>
<trkpt lat="49.07755793072283" lon="8.754614973440766">
<ele>221.20000000000005</ele>
<time>2023-05-17T10:37:49Z</time>
</trkpt>
<trkpt lat="49.07755298539996" lon="8.754574991762638">
<ele>221.39999999999998</ele>
<time>2023-05-17T10:37:50Z</time>
</trkpt>
<trkpt lat="49.07755499705672" lon="8.75453693792224">
<ele>221.79999999999995</ele>
<time>2023-05-17T10:37:51Z</time>
</trkpt>
<trkpt lat="49.07756798900664" lon="8.754502991214395">
<ele>222</ele>
<time>2023-05-17T10:37:52Z</time>
</trkpt>
<trkpt lat="49.077582992613316" lon="8.754474995657802">
<ele>222.20000000000005</ele>
<time>2023-05-17T10:37:53Z</time>
</trkpt>
<trkpt lat="49.07759992405772" lon="8.754446916282177">
<ele>222.39999999999998</ele>
<time>2023-05-17T10:37:54Z</time>
</trkpt>
<trkpt lat="49.07761794514954" lon="8.754416992887855">
<ele>222.60000000000002</ele>
<time>2023-05-17T10:37:55Z</time>
</trkpt>
<trkpt lat="49.07763697206974" lon="8.754387991502881">
<ele>222.79999999999995</ele>
<time>2023-05-17T10:37:56Z</time>
</trkpt>
<trkpt lat="49.07765499316156" lon="8.754357984289527">
<ele>223</ele>
<time>2023-05-17T10:37:57Z</time>
</trkpt>
<trkpt lat="49.07767494209111" lon="8.754332922399044">
<ele>223.20000000000005</ele>
<time>2023-05-17T10:37:58Z</time>
</trkpt>
<trkpt lat="49.07769497483969" lon="8.754307944327593">
<ele>223.60000000000002</ele>
<time>2023-05-17T10:37:59Z</time>
</trkpt>
<trkpt lat="49.077714923769236" lon="8.754284977912903">
<ele>223.79999999999995</ele>
<time>2023-05-17T10:38:00Z</time>
</trkpt>
<trkpt lat="49.077734956517816" lon="8.754261927679181">
<ele>224</ele>
<time>2023-05-17T10:38:01Z</time>
</trkpt>
<trkpt lat="49.077752977609634" lon="8.754234937950969">
<ele>224.20000000000005</ele>
<time>2023-05-17T10:38:02Z</time>
</trkpt>
<trkpt lat="49.0777719207108" lon="8.754211971536279">
<ele>224.60000000000002</ele>
<time>2023-05-17T10:38:03Z</time>
</trkpt>
<trkpt lat="49.07778793014586" lon="8.754189927130938">
<ele>224.79999999999995</ele>
<time>2023-05-17T10:38:04Z</time>
</trkpt>
<trkpt lat="49.07780695706606" lon="8.75416997820139">
<ele>225</ele>
<time>2023-05-17T10:38:05Z</time>
</trkpt>
<trkpt lat="49.07782698981464" lon="8.754152962937951">
<ele>225.20000000000005</ele>
<time>2023-05-17T10:38:06Z</time>
</trkpt>
<trkpt lat="49.077844927087426" lon="8.754134941846132">
<ele>225.60000000000002</ele>
<time>2023-05-17T10:38:07Z</time>
</trkpt>
<trkpt lat="49.077864959836006" lon="8.754112981259823">
<ele>225.79999999999995</ele>
<time>2023-05-17T10:38:08Z</time>
</trkpt>
<trkpt lat="49.077882980927825" lon="8.754096971824765">
<ele>226</ele>
<time>2023-05-17T10:38:09Z</time>
</trkpt>
<trkpt lat="49.07790292985737" lon="8.754079956561327">
<ele>226.39999999999998</ele>
<time>2023-05-17T10:38:10Z</time>
</trkpt>
<trkpt lat="49.07792195677757" lon="8.754059923812747">
<ele>226.60000000000002</ele>
<time>2023-05-17T10:38:11Z</time>
</trkpt>
<trkpt lat="49.07794198952615" lon="8.754037963226438">
<ele>226.79999999999995</ele>
<time>2023-05-17T10:38:12Z</time>
</trkpt>
<trkpt lat="49.0779619384557" lon="8.754016924649477">
<ele>227.20000000000005</ele>
<time>2023-05-17T10:38:13Z</time>
</trkpt>
<trkpt lat="49.07797995954752" lon="8.75399798154831">
<ele>227.39999999999998</ele>
<time>2023-05-17T10:38:14Z</time>
</trkpt>
<trkpt lat="49.0779999922961" lon="8.753976942971349">
<ele>227.79999999999995</ele>
<time>2023-05-17T10:38:15Z</time>
</trkpt>
<trkpt lat="49.07801994122565" lon="8.753957999870181">
<ele>228</ele>
<time>2023-05-17T10:38:16Z</time>
</trkpt>
<trkpt lat="49.07803997397423" lon="8.753942996263504">
<ele>228.39999999999998</ele>
<time>2023-05-17T10:38:17Z</time>
</trkpt>
<trkpt lat="49.07805799506605" lon="8.753926986828446">
<ele>228.60000000000002</ele>
<time>2023-05-17T10:38:18Z</time>
</trkpt>
<trkpt lat="49.078077943995595" lon="8.753907959908247">
<ele>229</ele>
<time>2023-05-17T10:38:19Z</time>
</trkpt>
<trkpt lat="49.078097976744175" lon="8.75389295630157">
<ele>229.20000000000005</ele>
<time>2023-05-17T10:38:20Z</time>
</trkpt>
<trkpt lat="49.07811792567372" lon="8.753876946866512">
<ele>229.60000000000002</ele>
<time>2023-05-17T10:38:21Z</time>
</trkpt>
<trkpt lat="49.07813695259392" lon="8.753857919946313">
<ele>229.79999999999995</ele>
<time>2023-05-17T10:38:22Z</time>
</trkpt>
<trkpt lat="49.0781569853425" lon="8.753834953531623">
<ele>230.20000000000005</ele>
<time>2023-05-17T10:38:23Z</time>
</trkpt>
<trkpt lat="49.07817693427205" lon="8.753816932439804">
<ele>230.39999999999998</ele>
<time>2023-05-17T10:38:24Z</time>
</trkpt>
<trkpt lat="49.07819696702063" lon="8.753797989338636">
<ele>230.79999999999995</ele>
<time>2023-05-17T10:38:25Z</time>
</trkpt>
<trkpt lat="49.07821792177856" lon="8.753779968246818">
<ele>231</ele>
<time>2023-05-17T10:38:26Z</time>
</trkpt>
<trkpt lat="49.07823694869876" lon="8.753761947154999">
<ele>231.39999999999998</ele>
<time>2023-05-17T10:38:27Z</time>
</trkpt>
<trkpt lat="49.07825698144734" lon="8.753734957426786">
<ele>231.79999999999995</ele>
<time>2023-05-17T10:38:28Z</time>
</trkpt>
<trkpt lat="49.078274918720126" lon="8.753712996840477">
<ele>232</ele>
<time>2023-05-17T10:38:29Z</time>
</trkpt>
<trkpt lat="49.07829696312547" lon="8.753687934949994">
<ele>232.39999999999998</ele>
<time>2023-05-17T10:38:30Z</time>
</trkpt>
<trkpt lat="49.078317917883396" lon="8.753664968535304">
<ele>232.60000000000002</ele>
<time>2023-05-17T10:38:31Z</time>
</trkpt>
<trkpt lat="49.078337950631976" lon="8.753639990463853">
<ele>233</ele>
<time>2023-05-17T10:38:32Z</time>
</trkpt>
<trkpt lat="49.078357983380556" lon="8.753616940230131">
<ele>233.20000000000005</ele>
<time>2023-05-17T10:38:33Z</time>
</trkpt>
<trkpt lat="49.07838195562363" lon="8.753594979643822">
<ele>233.60000000000002</ele>
<time>2023-05-17T10:38:34Z</time>
</trkpt>
<trkpt lat="49.07840299420059" lon="8.753569917753339">
<ele>233.79999999999995</ele>
<time>2023-05-17T10:38:35Z</time>
</trkpt>
<trkpt lat="49.0784249547869" lon="8.753544939681888">
<ele>234</ele>
<time>2023-05-17T10:38:36Z</time>
</trkpt>
<trkpt lat="49.07844699919224" lon="8.753521973267198">
<ele>234.20000000000005</ele>
<time>2023-05-17T10:38:37Z</time>
</trkpt>
<trkpt lat="49.078466948121786" lon="8.753496995195746">
<ele>234.39999999999998</ele>
<time>2023-05-17T10:38:38Z</time>
</trkpt>
<trkpt lat="49.078486980870366" lon="8.753471933305264">
<ele>234.60000000000002</ele>
<time>2023-05-17T10:38:39Z</time>
</trkpt>
<trkpt lat="49.078507935628295" lon="8.753446955233812">
<ele>234.79999999999995</ele>
<time>2023-05-17T10:38:40Z</time>
</trkpt>
<trkpt lat="49.078526962548494" lon="8.753416948020458">
<ele>235</ele>
<time>2023-05-17T10:38:41Z</time>
</trkpt>
<trkpt lat="49.07854498364031" lon="8.753386940807104">
<ele>235.20000000000005</ele>
<time>2023-05-17T10:38:42Z</time>
</trkpt>
<trkpt lat="49.0785629209131" lon="8.753359951078892">
<ele>235.39999999999998</ele>
<time>2023-05-17T10:38:43Z</time>
</trkpt>
<trkpt lat="49.0785819478333" lon="8.753331955522299">
<ele>235.60000000000002</ele>
<time>2023-05-17T10:38:44Z</time>
</trkpt>
<trkpt lat="49.07859795726836" lon="8.753304965794086">
<ele>235.60000000000002</ele>
<time>2023-05-17T10:38:45Z</time>
</trkpt>
<trkpt lat="49.078612960875034" lon="8.753276970237494">
<ele>235.79999999999995</ele>
<time>2023-05-17T10:38:46Z</time>
</trkpt>
<trkpt lat="49.07862997613847" lon="8.75324796885252">
<ele>235.79999999999995</ele>
<time>2023-05-17T10:38:47Z</time>
</trkpt>
<trkpt lat="49.07864799723029" lon="8.753217961639166">
<ele>235.79999999999995</ele>
<time>2023-05-17T10:38:48Z</time>
</trkpt>
<trkpt lat="49.0786649286747" lon="8.753189966082573">
<ele>235.79999999999995</ele>
<time>2023-05-17T10:38:49Z</time>
</trkpt>
<trkpt lat="49.078681943938136" lon="8.753157947212458">
<ele>236</ele>
<time>2023-05-17T10:38:50Z</time>
</trkpt>
<trkpt lat="49.078697953373194" lon="8.753124922513962">
<ele>236</ele>
<time>2023-05-17T10:38:51Z</time>
</trkpt>
<trkpt lat="49.078717986121774" lon="8.753091981634498">
<ele>236</ele>
<time>2023-05-17T10:38:52Z</time>
</trkpt>
<trkpt lat="49.07873793505132" lon="8.753052921965718">
<ele>236</ele>
<time>2023-05-17T10:38:53Z</time>
</trkpt>
<trkpt lat="49.07875997945666" lon="8.75301294028759">
<ele>235.79999999999995</ele>
<time>2023-05-17T10:38:54Z</time>
</trkpt>
<trkpt lat="49.078784957528114" lon="8.752966923639178">
<ele>235.79999999999995</ele>
<time>2023-05-17T10:38:55Z</time>
</trkpt>
<trkpt lat="49.078807923942804" lon="8.752916967496276">
<ele>235.60000000000002</ele>
<time>2023-05-17T10:38:56Z</time>
</trkpt>
<trkpt lat="49.07883198000491" lon="8.752862988039851">
<ele>235.60000000000002</ele>
<time>2023-05-17T10:38:57Z</time>
</trkpt>
<trkpt lat="49.07885796390474" lon="8.752802973613143">
<ele>235.39999999999998</ele>
<time>2023-05-17T10:38:58Z</time>
</trkpt>
<trkpt lat="49.07888495363295" lon="8.752737930044532">
<ele>235.20000000000005</ele>
<time>2023-05-17T10:38:59Z</time>
</trkpt>
<trkpt lat="49.078912949189544" lon="8.75266794115305">
<ele>235</ele>
<time>2023-05-17T10:39:00Z</time>
</trkpt>
<trkpt lat="49.07894496805966" lon="8.752594934776425">
<ele>234.79999999999995</ele>
<time>2023-05-17T10:39:01Z</time>
</trkpt>
<trkpt lat="49.078977992758155" lon="8.75251698307693">
<ele>234.60000000000002</ele>
<time>2023-05-17T10:39:02Z</time>
</trkpt>
<trkpt lat="49.079011939466" lon="8.752432996407151">
<ele>234.20000000000005</ele>
<time>2023-05-17T10:39:03Z</time>
</trkpt>
<trkpt lat="49.07904798164964" lon="8.752342974767089">
<ele>233.79999999999995</ele>
<time>2023-05-17T10:39:04Z</time>
</trkpt>
<trkpt lat="49.079084945842624" lon="8.752249935641885">
<ele>233.20000000000005</ele>
<time>2023-05-17T10:39:05Z</time>
</trkpt>
<trkpt lat="49.07912492752075" lon="8.75215295702219">
<ele>232.79999999999995</ele>
<time>2023-05-17T10:39:06Z</time>
</trkpt>
<trkpt lat="49.07916792668402" lon="8.752051955088973">
<ele>232.20000000000005</ele>
<time>2023-05-17T10:39:07Z</time>
</trkpt>
<trkpt lat="49.07921293750405" lon="8.75195698812604">
<ele>231.60000000000002</ele>
<time>2023-05-17T10:39:08Z</time>
</trkpt>
<trkpt lat="49.079257948324084" lon="8.751864954829216">
<ele>231</ele>
<time>2023-05-17T10:39:09Z</time>
</trkpt>
<trkpt lat="49.079302959144115" lon="8.751772921532393">
<ele>230.20000000000005</ele>
<time>2023-05-17T10:39:10Z</time>
</trkpt>
<trkpt lat="49.07935299910605" lon="8.751682983711362">
<ele>229.60000000000002</ele>
<time>2023-05-17T10:39:11Z</time>
</trkpt>
<trkpt lat="49.07940295524895" lon="8.751597991213202">
<ele>228.79999999999995</ele>
<time>2023-05-17T10:39:12Z</time>
</trkpt>
<trkpt lat="49.07945794053376" lon="8.751512998715043">
<ele>228</ele>
<time>2023-05-17T10:39:13Z</time>
</trkpt>
<trkpt lat="49.079517954960465" lon="8.751426916569471">
<ele>227.20000000000005</ele>
<time>2023-05-17T10:39:14Z</time>
</trkpt>
<trkpt lat="49.07958299852908" lon="8.751339996233582">
<ele>226.39999999999998</ele>
<time>2023-05-17T10:39:15Z</time>
</trkpt>
<trkpt lat="49.07965499907732" lon="8.751247962936759">
<ele>225.39999999999998</ele>
<time>2023-05-17T10:39:16Z</time>
</trkpt>
<trkpt lat="49.07973999157548" lon="8.751146961003542">
<ele>224.39999999999998</ele>
<time>2023-05-17T10:39:17Z</time>
</trkpt>
<trkpt lat="49.079816937446594" lon="8.751059956848621">
<ele>223.39999999999998</ele>
<time>2023-05-17T10:39:18Z</time>
</trkpt>
<trkpt lat="49.079902935773134" lon="8.750946968793869">
<ele>222.20000000000005</ele>
<time>2023-05-17T10:39:19Z</time>
</trkpt>
<trkpt lat="49.079971918836236" lon="8.75084294937551">
<ele>221.20000000000005</ele>
<time>2023-05-17T10:39:20Z</time>
</trkpt>
<trkpt lat="49.08003696240485" lon="8.750751921907067">
<ele>220.20000000000005</ele>
<time>2023-05-17T10:39:21Z</time>
</trkpt>
<trkpt lat="49.08009194768965" lon="8.75066994689405">
<ele>219.39999999999998</ele>
<time>2023-05-17T10:39:22Z</time>
</trkpt>
<trkpt lat="49.0801449213177" lon="8.750591995194554">
<ele>218.39999999999998</ele>
<time>2023-05-17T10:39:23Z</time>
</trkpt>
<trkpt lat="49.08019797876477" lon="8.750516977161169">
<ele>217.79999999999995</ele>
<time>2023-05-17T10:39:24Z</time>
</trkpt>
<trkpt lat="49.080246929079294" lon="8.750444976612926">
<ele>217</ele>
<time>2023-05-17T10:39:25Z</time>
</trkpt>
<trkpt lat="49.080292945727706" lon="8.750377921387553">
<ele>216.39999999999998</ele>
<time>2023-05-17T10:39:26Z</time>
</trkpt>
<trkpt lat="49.08033695071936" lon="8.750311955809593">
<ele>215.79999999999995</ele>
<time>2023-05-17T10:39:27Z</time>
</trkpt>
<trkpt lat="49.080376932397485" lon="8.750251941382885">
<ele>215.20000000000005</ele>
<time>2023-05-17T10:39:28Z</time>
</trkpt>
<trkpt lat="49.08041196875274" lon="8.750184969976544">
<ele>214.79999999999995</ele>
<time>2023-05-17T10:39:29Z</time>
</trkpt>
<trkpt lat="49.08043694682419" lon="8.750114981085062">
<ele>214.39999999999998</ele>
<time>2023-05-17T10:39:30Z</time>
</trkpt>
<trkpt lat="49.08044692128897" lon="8.75004499219358">
<ele>214</ele>
<time>2023-05-17T10:39:31Z</time>
</trkpt>
<trkpt lat="49.08044298179448" lon="8.749969974160194">
<ele>213.79999999999995</ele>
<time>2023-05-17T10:39:32Z</time>
</trkpt>
<trkpt lat="49.08043292351067" lon="8.749892944470048">
<ele>213.60000000000002</ele>
<time>2023-05-17T10:39:33Z</time>
</trkpt>
<trkpt lat="49.080416997894645" lon="8.749816920608282">
<ele>213.39999999999998</ele>
<time>2023-05-17T10:39:34Z</time>
</trkpt>
<trkpt lat="49.08039998263121" lon="8.749737963080406">
<ele>213.20000000000005</ele>
<time>2023-05-17T10:39:35Z</time>
</trkpt>
<trkpt lat="49.08037994988263" lon="8.74966193921864">
<ele>213.20000000000005</ele>
<time>2023-05-17T10:39:36Z</time>
</trkpt>
<trkpt lat="49.08035798929632" lon="8.749587927013636">
<ele>213.20000000000005</ele>
<time>2023-05-17T10:39:37Z</time>
</trkpt>
<trkpt lat="49.08033795654774" lon="8.749517938122153">
<ele>213.20000000000005</ele>
<time>2023-05-17T10:39:38Z</time>
</trkpt>
<trkpt lat="49.08031792379916" lon="8.749442920088768">
<ele>213.20000000000005</ele>
<time>2023-05-17T10:39:39Z</time>
</trkpt>
<trkpt lat="49.08029998652637" lon="8.749374942854047">
<ele>213.20000000000005</ele>
<time>2023-05-17T10:39:40Z</time>
</trkpt>
<trkpt lat="49.08027995377779" lon="8.749306965619326">
<ele>213.20000000000005</ele>
<time>2023-05-17T10:39:41Z</time>
</trkpt>
<trkpt lat="49.08026495017111" lon="8.749232953414321">
<ele>213.20000000000005</ele>
<time>2023-05-17T10:39:42Z</time>
</trkpt>
<trkpt lat="49.08025296404958" lon="8.749157935380936">
<ele>213</ele>
<time>2023-05-17T10:39:43Z</time>
</trkpt>
<trkpt lat="49.080247934907675" lon="8.74907797202468">
<ele>213</ele>
<time>2023-05-17T10:39:44Z</time>
</trkpt>
<trkpt lat="49.080249946564436" lon="8.748994991183281">
<ele>213</ele>
<time>2023-05-17T10:39:45Z</time>
</trkpt>
<trkpt lat="49.08025799319148" lon="8.748909998685122">
<ele>212.79999999999995</ele>
<time>2023-05-17T10:39:46Z</time>
</trkpt>
<trkpt lat="49.080269979313016" lon="8.748822994530201">
<ele>212.60000000000002</ele>
<time>2023-05-17T10:39:47Z</time>
</trkpt>
<trkpt lat="49.0802879165858" lon="8.74873791821301">
<ele>212.39999999999998</ele>
<time>2023-05-17T10:39:48Z</time>
</trkpt>
<trkpt lat="49.080311972647905" lon="8.748657954856753">
<ele>212.39999999999998</ele>
<time>2023-05-17T10:39:49Z</time>
</trkpt>
<trkpt lat="49.0803399682045" lon="8.74858494848013">
<ele>212.20000000000005</ele>
<time>2023-05-17T10:39:50Z</time>
</trkpt>
<trkpt lat="49.08036997541785" lon="8.74851998873055">
<ele>212</ele>
<time>2023-05-17T10:39:51Z</time>
</trkpt>
<trkpt lat="49.08039998263121" lon="8.7484569568187">
<ele>211.79999999999995</ele>
<time>2023-05-17T10:39:52Z</time>
</trkpt>
<trkpt lat="49.08042998984456" lon="8.748396942391992">
<ele>211.60000000000002</ele>
<time>2023-05-17T10:39:53Z</time>
</trkpt>
<trkpt lat="49.080459997057915" lon="8.748344974592328">
<ele>211.39999999999998</ele>
<time>2023-05-17T10:39:54Z</time>
</trkpt>
<trkpt lat="49.080491932109" lon="8.748292922973633">
<ele>211.39999999999998</ele>
<time>2023-05-17T10:39:55Z</time>
</trkpt>
<trkpt lat="49.08052294515073" lon="8.748244978487492">
<ele>211.20000000000005</ele>
<time>2023-05-17T10:39:56Z</time>
</trkpt>
<trkpt lat="49.08055295236409" lon="8.7481979560107">
<ele>211.20000000000005</ele>
<time>2023-05-17T10:39:57Z</time>
</trkpt>
<trkpt lat="49.0805799420923" lon="8.74815696850419">
<ele>211</ele>
<time>2023-05-17T10:39:58Z</time>
</trkpt>
<trkpt lat="49.08060198649764" lon="8.748116986826062">
<ele>211</ele>
<time>2023-05-17T10:39:59Z</time>
</trkpt>
<trkpt lat="49.0806179959327" lon="8.748071976006031">
<ele>211</ele>
<time>2023-05-17T10:40:00Z</time>
</trkpt>
<trkpt lat="49.08062797039747" lon="8.748019924387336">
<ele>210.79999999999995</ele>
<time>2023-05-17T10:40:01Z</time>
</trkpt>
<trkpt lat="49.08062797039747" lon="8.747957982122898">
<ele>210.79999999999995</ele>
<time>2023-05-17T10:40:02Z</time>
</trkpt>
<trkpt lat="49.08061992377043" lon="8.747894950211048">
<ele>210.79999999999995</ele>
<time>2023-05-17T10:40:03Z</time>
</trkpt>
<trkpt lat="49.08060299232602" lon="8.74783493578434">
<ele>210.60000000000002</ele>
<time>2023-05-17T10:40:04Z</time>
</trkpt>
<trkpt lat="49.08057499676943" lon="8.747784979641438">
<ele>210.60000000000002</ele>
<time>2023-05-17T10:40:05Z</time>
</trkpt>
<trkpt lat="49.08053794875741" lon="8.747736951336265">
<ele>210.39999999999998</ele>
<time>2023-05-17T10:40:06Z</time>
</trkpt>
<trkpt lat="49.08049293793738" lon="8.747687917202711">
<ele>210.20000000000005</ele>
<time>2023-05-17T10:40:07Z</time>
</trkpt>
<trkpt lat="49.08044499345124" lon="8.747641984373331">
<ele>210</ele>
<time>2023-05-17T10:40:08Z</time>
</trkpt>
<trkpt lat="49.080396965146065" lon="8.747586999088526">
<ele>209.60000000000002</ele>
<time>2023-05-17T10:40:09Z</time>
</trkpt>
<trkpt lat="49.08034793101251" lon="8.747524973005056">
<ele>209.39999999999998</ele>
<time>2023-05-17T10:40:10Z</time>
</trkpt>
<trkpt lat="49.08029696904123" lon="8.747461941093206">
<ele>209</ele>
<time>2023-05-17T10:40:11Z</time>
</trkpt>
<trkpt lat="49.08024198375642" lon="8.747394969686866">
<ele>208.79999999999995</ele>
<time>2023-05-17T10:40:12Z</time>
</trkpt>
<trkpt lat="49.08018699847162" lon="8.747321963310242">
<ele>208.39999999999998</ele>
<time>2023-05-17T10:40:13Z</time>
</trkpt>
<trkpt lat="49.08012798987329" lon="8.747247951105237">
<ele>208</ele>
<time>2023-05-17T10:40:14Z</time>
</trkpt>
<trkpt lat="49.08006495796144" lon="8.747176956385374">
<ele>207.79999999999995</ele>
<time>2023-05-17T10:40:15Z</time>
</trkpt>
<trkpt lat="49.07999999821186" lon="8.747101938351989">
<ele>207.39999999999998</ele>
<time>2023-05-17T10:40:16Z</time>
</trkpt>
<trkpt lat="49.07993193715811" lon="8.747027926146984">
<ele>207</ele>
<time>2023-05-17T10:40:17Z</time>
</trkpt>
<trkpt lat="49.07986496575177" lon="8.74695299193263">
<ele>206.60000000000002</ele>
<time>2023-05-17T10:40:18Z</time>
</trkpt>
<trkpt lat="49.079799922183156" lon="8.746877973899245">
<ele>206</ele>
<time>2023-05-17T10:40:19Z</time>
</trkpt>
<trkpt lat="49.07973496243358" lon="8.74680295586586">
<ele>205.60000000000002</ele>
<time>2023-05-17T10:40:20Z</time>
</trkpt>
<trkpt lat="49.07967293635011" lon="8.746724920347333">
<ele>205</ele>
<time>2023-05-17T10:40:21Z</time>
</trkpt>
<trkpt lat="49.0796129219234" lon="8.746647974476218">
<ele>204.60000000000002</ele>
<time>2023-05-17T10:40:22Z</time>
</trkpt>
<trkpt lat="49.07955299131572" lon="8.74656792730093">
<ele>204</ele>
<time>2023-05-17T10:40:23Z</time>
</trkpt>
<trkpt lat="49.079494988545775" lon="8.746487963944674">
<ele>203.60000000000002</ele>
<time>2023-05-17T10:40:24Z</time>
</trkpt>
<trkpt lat="49.07943991944194" lon="8.746406994760036">
<ele>203</ele>
<time>2023-05-17T10:40:25Z</time>
</trkpt>
<trkpt lat="49.079389963299036" lon="8.746322924271226">
<ele>202.60000000000002</ele>
<time>2023-05-17T10:40:26Z</time>
</trkpt>
<trkpt lat="49.0793399233371" lon="8.746239943429828">
<ele>202</ele>
<time>2023-05-17T10:40:27Z</time>
</trkpt>
<trkpt lat="49.07929692417383" lon="8.746161991730332">
<ele>201.60000000000002</ele>
<time>2023-05-17T10:40:28Z</time>
</trkpt>
<trkpt lat="49.079259959980845" lon="8.746087979525328">
<ele>201.20000000000005</ele>
<time>2023-05-17T10:40:29Z</time>
</trkpt>
<trkpt lat="49.07922492362559" lon="8.746021930128336">
<ele>200.79999999999995</ele>
<time>2023-05-17T10:40:30Z</time>
</trkpt>
<trkpt lat="49.07918494194746" lon="8.745951941236854">
<ele>200.20000000000005</ele>
<time>2023-05-17T10:40:31Z</time>
</trkpt>
<trkpt lat="49.07914697192609" lon="8.745884969830513">
<ele>199.79999999999995</ele>
<time>2023-05-17T10:40:32Z</time>
</trkpt>
<trkpt lat="49.079106990247965" lon="8.745822943747044">
<ele>199.20000000000005</ele>
<time>2023-05-17T10:40:33Z</time>
</trkpt>
<trkpt lat="49.079066924750805" lon="8.745762929320335">
<ele>198.79999999999995</ele>
<time>2023-05-17T10:40:34Z</time>
</trkpt>
<trkpt lat="49.07902794890106" lon="8.745701992884278">
<ele>198.20000000000005</ele>
<time>2023-05-17T10:40:35Z</time>
</trkpt>
<trkpt lat="49.07898796722293" lon="8.745636949315667">
<ele>197.60000000000002</ele>
<time>2023-05-17T10:40:36Z</time>
</trkpt>
<trkpt lat="49.07894697971642" lon="8.74557794071734">
<ele>197</ele>
<time>2023-05-17T10:40:37Z</time>
</trkpt>
<trkpt lat="49.07890792004764" lon="8.745522955432534">
<ele>196.39999999999998</ele>
<time>2023-05-17T10:40:38Z</time>
</trkpt>
<trkpt lat="49.07887497916818" lon="8.745474927127361">
<ele>195.79999999999995</ele>
<time>2023-05-17T10:40:39Z</time>
</trkpt>
<trkpt lat="49.078847989439964" lon="8.745432933792472">
<ele>195.20000000000005</ele>
<time>2023-05-17T10:40:40Z</time>
</trkpt>
<trkpt lat="49.078827956691384" lon="8.745391946285963">
<ele>194.79999999999995</ele>
<time>2023-05-17T10:40:41Z</time>
</trkpt>
<trkpt lat="49.07881496474147" lon="8.74536294490099">
<ele>194.20000000000005</ele>
<time>2023-05-17T10:40:42Z</time>
</trkpt>
<trkpt lat="49.07880197279155" lon="8.745322963222861">
<ele>193.60000000000002</ele>
<time>2023-05-17T10:40:43Z</time>
</trkpt>
<trkpt lat="49.07879199832678" lon="8.745286921039224">
<ele>193.20000000000005</ele>
<time>2023-05-17T10:40:44Z</time>
</trkpt>
<trkpt lat="49.07878998667002" lon="8.745246939361095">
<ele>192.60000000000002</ele>
<time>2023-05-17T10:40:45Z</time>
</trkpt>
<trkpt lat="49.07879199832678" lon="8.74521198682487">
<ele>192.20000000000005</ele>
<time>2023-05-17T10:40:46Z</time>
</trkpt>
<trkpt lat="49.07879292033613" lon="8.745174938812852">
<ele>191.79999999999995</ele>
<time>2023-05-17T10:40:47Z</time>
</trkpt>
<trkpt lat="49.07879996113479" lon="8.745136968791485">
<ele>191.20000000000005</ele>
<time>2023-05-17T10:40:48Z</time>
</trkpt>
<trkpt lat="49.078804990276694" lon="8.745094975456595">
<ele>190.79999999999995</ele>
<time>2023-05-17T10:40:49Z</time>
</trkpt>
<trkpt lat="49.078807923942804" lon="8.745052982121706">
<ele>190.39999999999998</ele>
<time>2023-05-17T10:40:50Z</time>
</trkpt>
<trkpt lat="49.078806918114424" lon="8.745011994615197">
<ele>190.20000000000005</ele>
<time>2023-05-17T10:40:51Z</time>
</trkpt>
<trkpt lat="49.07879493199289" lon="8.744966983795166">
<ele>189.79999999999995</ele>
<time>2023-05-17T10:40:52Z</time>
</trkpt>
<trkpt lat="49.0787719655782" lon="8.744919961318374">
<ele>189.60000000000002</ele>
<time>2023-05-17T10:40:53Z</time>
</trkpt>
<trkpt lat="49.078741958364844" lon="8.744882997125387">
<ele>189.39999999999998</ele>
<time>2023-05-17T10:40:54Z</time>
</trkpt>
<trkpt lat="49.07870499417186" lon="8.744856929406524">
<ele>189.20000000000005</ele>
<time>2023-05-17T10:40:55Z</time>
</trkpt>
<trkpt lat="49.07866794615984" lon="8.744822982698679">
<ele>189.20000000000005</ele>
<time>2023-05-17T10:40:56Z</time>
</trkpt>
<trkpt lat="49.07862695865333" lon="8.744797920808196">
<ele>189</ele>
<time>2023-05-17T10:40:57Z</time>
</trkpt>
<trkpt lat="49.07858496531844" lon="8.744772942736745">
<ele>189</ele>
<time>2023-05-17T10:40:58Z</time>
</trkpt>
<trkpt lat="49.078549928963184" lon="8.744739918038249">
<ele>188.79999999999995</ele>
<time>2023-05-17T10:40:59Z</time>
</trkpt>
<trkpt lat="49.07851195894182" lon="8.744709994643927">
<ele>188.79999999999995</ele>
<time>2023-05-17T10:41:00Z</time>
</trkpt>
<trkpt lat="49.07847499474883" lon="8.744677975773811">
<ele>188.79999999999995</ele>
<time>2023-05-17T10:41:01Z</time>
</trkpt>
<trkpt lat="49.07843199558556" lon="8.744637994095683">
<ele>188.79999999999995</ele>
<time>2023-05-17T10:41:02Z</time>
</trkpt>
<trkpt lat="49.0783919300884" lon="8.744606981053948">
<ele>188.79999999999995</ele>
<time>2023-05-17T10:41:03Z</time>
</trkpt>
<trkpt lat="49.07834297977388" lon="8.744577979668975">
<ele>188.79999999999995</ele>
<time>2023-05-17T10:41:04Z</time>
</trkpt>
<trkpt lat="49.078294951468706" lon="8.744544954970479">
<ele>188.79999999999995</ele>
<time>2023-05-17T10:41:05Z</time>
</trkpt>
<trkpt lat="49.078244995325804" lon="8.744507990777493">
<ele>188.79999999999995</ele>
<time>2023-05-17T10:41:06Z</time>
</trkpt>
<trkpt lat="49.07819696702063" lon="8.744476977735758">
<ele>188.79999999999995</ele>
<time>2023-05-17T10:41:07Z</time>
</trkpt>
<trkpt lat="49.0781469270587" lon="8.744444958865643">
<ele>188.79999999999995</ele>
<time>2023-05-17T10:41:08Z</time>
</trkpt>
<trkpt lat="49.078102922067046" lon="8.744407994672656">
<ele>188.79999999999995</ele>
<time>2023-05-17T10:41:09Z</time>
</trkpt>
<trkpt lat="49.078059922903776" lon="8.744377987459302">
<ele>188.79999999999995</ele>
<time>2023-05-17T10:41:10Z</time>
</trkpt>
<trkpt lat="49.07802295871079" lon="8.744347980245948">
<ele>188.79999999999995</ele>
<time>2023-05-17T10:41:11Z</time>
</trkpt>
<trkpt lat="49.07798297703266" lon="8.744322918355465">
<ele>189</ele>
<time>2023-05-17T10:41:12Z</time>
</trkpt>
<trkpt lat="49.077946934849024" lon="8.744297940284014">
<ele>189</ele>
<time>2023-05-17T10:41:13Z</time>
</trkpt>
<trkpt lat="49.0779119823128" lon="8.744274973869324">
<ele>189</ele>
<time>2023-05-17T10:41:14Z</time>
</trkpt>
<trkpt lat="49.07787996344268" lon="8.744247984141111">
<ele>189</ele>
<time>2023-05-17T10:41:15Z</time>
</trkpt>
<trkpt lat="49.07785791903734" lon="8.744212947785854">
<ele>189</ele>
<time>2023-05-17T10:41:16Z</time>
</trkpt>
<trkpt lat="49.07785498537123" lon="8.744167936965823">
<ele>189</ele>
<time>2023-05-17T10:41:17Z</time>
</trkpt>
<trkpt lat="49.07785699702799" lon="8.744119992479682">
<ele>189</ele>
<time>2023-05-17T10:41:18Z</time>
</trkpt>
<trkpt lat="49.077864959836006" lon="8.744069952517748">
<ele>189</ele>
<time>2023-05-17T10:41:19Z</time>
</trkpt>
<trkpt lat="49.07787292264402" lon="8.744006920605898">
<ele>189</ele>
<time>2023-05-17T10:41:20Z</time>
</trkpt>
<trkpt lat="49.077886920422316" lon="8.743936931714416">
<ele>189</ele>
<time>2023-05-17T10:41:21Z</time>
</trkpt>
<trkpt lat="49.07790192402899" lon="8.743866942822933">
<ele>189</ele>
<time>2023-05-17T10:41:22Z</time>
</trkpt>
<trkpt lat="49.07791499979794" lon="8.74379494227469">
<ele>189</ele>
<time>2023-05-17T10:41:23Z</time>
</trkpt>
<trkpt lat="49.077929919585586" lon="8.743726965039968">
<ele>188.79999999999995</ele>
<time>2023-05-17T10:41:24Z</time>
</trkpt>
<trkpt lat="49.07794299535453" lon="8.743654964491725">
<ele>188.79999999999995</ele>
<time>2023-05-17T10:41:25Z</time>
</trkpt>
<trkpt lat="49.07795699313283" lon="8.743584975600243">
<ele>188.79999999999995</ele>
<time>2023-05-17T10:41:26Z</time>
</trkpt>
<trkpt lat="49.077972918748856" lon="8.74351792037487">
<ele>188.60000000000002</ele>
<time>2023-05-17T10:41:27Z</time>
</trkpt>
<trkpt lat="49.077991945669055" lon="8.74344994314015">
<ele>188.60000000000002</ele>
<time>2023-05-17T10:41:28Z</time>
</trkpt>
<trkpt lat="49.078009966760874" lon="8.743381965905428">
<ele>188.39999999999998</ele>
<time>2023-05-17T10:41:29Z</time>
</trkpt>
<trkpt lat="49.07802497036755" lon="8.743314994499087">
<ele>188.39999999999998</ele>
<time>2023-05-17T10:41:30Z</time>
</trkpt>
<trkpt lat="49.07803997397423" lon="8.743247939273715">
<ele>188.20000000000005</ele>
<time>2023-05-17T10:41:31Z</time>
</trkpt>
<trkpt lat="49.07805196009576" lon="8.743182979524136">
<ele>188</ele>
<time>2023-05-17T10:41:32Z</time>
</trkpt>
<trkpt lat="49.078059922903776" lon="8.743116930127144">
<ele>188</ele>
<time>2023-05-17T10:41:33Z</time>
</trkpt>
<trkpt lat="49.07807199284434" lon="8.743054987862706">
<ele>187.79999999999995</ele>
<time>2023-05-17T10:41:34Z</time>
</trkpt>
<trkpt lat="49.078077943995595" lon="8.74299698509276">
<ele>187.79999999999995</ele>
<time>2023-05-17T10:41:35Z</time>
</trkpt>
<trkpt lat="49.078079955652356" lon="8.742939988151193">
<ele>187.79999999999995</ele>
<time>2023-05-17T10:41:36Z</time>
</trkpt>
<trkpt lat="49.0780829731375" lon="8.742887936532497">
<ele>187.79999999999995</ele>
<time>2023-05-17T10:41:37Z</time>
</trkpt>
<trkpt lat="49.07808699645102" lon="8.742844937369227">
<ele>187.79999999999995</ele>
<time>2023-05-17T10:41:38Z</time>
</trkpt>
<trkpt lat="49.07809294760227" lon="8.742797998711467">
<ele>187.79999999999995</ele>
<time>2023-05-17T10:41:39Z</time>
</trkpt>
<trkpt lat="49.07809495925903" lon="8.742754999548197">
<ele>187.79999999999995</ele>
<time>2023-05-17T10:41:40Z</time>
</trkpt>
<trkpt lat="49.07809294760227" lon="8.742709988728166">
<ele>187.79999999999995</ele>
<time>2023-05-17T10:41:41Z</time>
</trkpt>
<trkpt lat="49.078099988400936" lon="8.742659948766232">
<ele>188</ele>
<time>2023-05-17T10:41:42Z</time>
</trkpt>
<trkpt lat="49.078101916238666" lon="8.74261292628944">
<ele>188</ele>
<time>2023-05-17T10:41:43Z</time>
</trkpt>
<trkpt lat="49.078102922067046" lon="8.742562970146537">
<ele>188</ele>
<time>2023-05-17T10:41:44Z</time>
</trkpt>
<trkpt lat="49.07810996286571" lon="8.742516953498125">
<ele>188.20000000000005</ele>
<time>2023-05-17T10:41:45Z</time>
</trkpt>
<trkpt lat="49.078119937330484" lon="8.742469931021333">
<ele>188.39999999999998</ele>
<time>2023-05-17T10:41:46Z</time>
</trkpt>
<trkpt lat="49.07812798395753" lon="8.742426931858063">
<ele>188.60000000000002</ele>
<time>2023-05-17T10:41:47Z</time>
</trkpt>
<trkpt lat="49.07813494093716" lon="8.742386950179935">
<ele>188.79999999999995</ele>
<time>2023-05-17T10:41:48Z</time>
</trkpt>
<trkpt lat="49.078141981735826" lon="8.742349985986948">
<ele>189.20000000000005</ele>
<time>2023-05-17T10:41:49Z</time>
</trkpt>
<trkpt lat="49.0781469270587" lon="8.74231193214655">
<ele>189.39999999999998</ele>
<time>2023-05-17T10:41:50Z</time>
</trkpt>
<trkpt lat="49.0781519562006" lon="8.742272956296802">
<ele>189.79999999999995</ele>
<time>2023-05-17T10:41:51Z</time>
</trkpt>
<trkpt lat="49.07815799117088" lon="8.742237919941545">
<ele>190.20000000000005</ele>
<time>2023-05-17T10:41:52Z</time>
</trkpt>
<trkpt lat="49.07816796563566" lon="8.74220296740532">
<ele>190.39999999999998</ele>
<time>2023-05-17T10:41:53Z</time>
</trkpt>
<trkpt lat="49.07818699255586" lon="8.742174971848726">
<ele>190.79999999999995</ele>
<time>2023-05-17T10:41:54Z</time>
</trkpt>
<trkpt lat="49.07820995897055" lon="8.74216197989881">
<ele>191</ele>
<time>2023-05-17T10:41:55Z</time>
</trkpt>
<trkpt lat="49.07823795452714" lon="8.742164997383952">
<ele>191.20000000000005</ele>
<time>2023-05-17T10:41:56Z</time>
</trkpt>
<trkpt lat="49.078271985054016" lon="8.742174971848726">
<ele>191.39999999999998</ele>
<time>2023-05-17T10:41:57Z</time>
</trkpt>
<trkpt lat="49.07830693759024" lon="8.742187963798642">
<ele>191.60000000000002</ele>
<time>2023-05-17T10:41:58Z</time>
</trkpt>
<trkpt lat="49.07834499143064" lon="8.742194920778275">
<ele>191.79999999999995</ele>
<time>2023-05-17T10:41:59Z</time>
</trkpt>
<trkpt lat="49.07838497310877" lon="8.74220296740532">
<ele>191.79999999999995</ele>
<time>2023-05-17T10:42:00Z</time>
</trkpt>
<trkpt lat="49.07842696644366" lon="8.742211936041713">
<ele>191.79999999999995</ele>
<time>2023-05-17T10:42:01Z</time>
</trkpt>
<trkpt lat="49.07846795395017" lon="8.742221994325519">
<ele>191.79999999999995</ele>
<time>2023-05-17T10:42:02Z</time>
</trkpt>
<trkpt lat="49.078507935628295" lon="8.742234986275434">
<ele>191.79999999999995</ele>
<time>2023-05-17T10:42:03Z</time>
</trkpt>
<trkpt lat="49.07854791730642" lon="8.74224697239697">
<ele>191.79999999999995</ele>
<time>2023-05-17T10:42:04Z</time>
</trkpt>
<trkpt lat="49.078589994460344" lon="8.742256946861744">
<ele>191.79999999999995</ele>
<time>2023-05-17T10:42:05Z</time>
</trkpt>
<trkpt lat="49.078631987795234" lon="8.742266921326518">
<ele>191.79999999999995</ele>
<time>2023-05-17T10:42:06Z</time>
</trkpt>
<trkpt lat="49.078674986958504" lon="8.742276979610324">
<ele>191.79999999999995</ele>
<time>2023-05-17T10:42:07Z</time>
</trkpt>
<trkpt lat="49.078717986121774" lon="8.742286954075098">
<ele>191.79999999999995</ele>
<time>2023-05-17T10:42:08Z</time>
</trkpt>
<trkpt lat="49.07875696197152" lon="8.742287959903479">
<ele>191.79999999999995</ele>
<time>2023-05-17T10:42:09Z</time>
</trkpt>
<trkpt lat="49.07879199832678" lon="8.742274967953563">
<ele>191.79999999999995</ele>
<time>2023-05-17T10:42:10Z</time>
</trkpt>
<trkpt lat="49.0788219217211" lon="8.742244960740209">
<ele>191.60000000000002</ele>
<time>2023-05-17T10:42:11Z</time>
</trkpt>
<trkpt lat="49.07884296029806" lon="8.74220497906208">
<ele>191.60000000000002</ele>
<time>2023-05-17T10:42:12Z</time>
</trkpt>
<trkpt lat="49.07885796390474" lon="8.742157956585288">
<ele>191.60000000000002</ele>
<time>2023-05-17T10:42:13Z</time>
</trkpt>
<trkpt lat="49.07886492088437" lon="8.742102971300483">
<ele>191.60000000000002</ele>
<time>2023-05-17T10:42:14Z</time>
</trkpt>
<trkpt lat="49.07886793836951" lon="8.742047986015677">
<ele>191.60000000000002</ele>
<time>2023-05-17T10:42:15Z</time>
</trkpt>
<trkpt lat="49.078871961683035" lon="8.741999957710505">
<ele>191.60000000000002</ele>
<time>2023-05-17T10:42:16Z</time>
</trkpt>
<trkpt lat="49.078869950026274" lon="8.741957964375615">
<ele>191.60000000000002</ele>
<time>2023-05-17T10:42:17Z</time>
</trkpt>
<trkpt lat="49.07886693254113" lon="8.741919994354248">
<ele>191.60000000000002</ele>
<time>2023-05-17T10:42:18Z</time>
</trkpt>
<trkpt lat="49.07886299304664" lon="8.74188294634223">
<ele>191.60000000000002</ele>
<time>2023-05-17T10:42:19Z</time>
</trkpt>
<trkpt lat="49.07885796390474" lon="8.741841958835721">
<ele>191.60000000000002</ele>
<time>2023-05-17T10:42:20Z</time>
</trkpt>
<trkpt lat="49.078849917277694" lon="8.741801977157593">
<ele>191.79999999999995</ele>
<time>2023-05-17T10:42:21Z</time>
</trkpt>
<trkpt lat="49.07884296029806" lon="8.741756966337562">
<ele>191.79999999999995</ele>
<time>2023-05-17T10:42:22Z</time>
</trkpt>
<trkpt lat="49.07883692532778" lon="8.74170994386077">
<ele>192</ele>
<time>2023-05-17T10:42:23Z</time>
</trkpt>
<trkpt lat="49.07883198000491" lon="8.741661999374628">
<ele>192.20000000000005</ele>
<time>2023-05-17T10:42:24Z</time>
</trkpt>
<trkpt lat="49.07882493920624" lon="8.741616988554597">
<ele>192.39999999999998</ele>
<time>2023-05-17T10:42:25Z</time>
</trkpt>
<trkpt lat="49.07881697639823" lon="8.741564936935902">
<ele>192.79999999999995</ele>
<time>2023-05-17T10:42:26Z</time>
</trkpt>
<trkpt lat="49.078807923942804" lon="8.74151992611587">
<ele>193.20000000000005</ele>
<time>2023-05-17T10:42:27Z</time>
</trkpt>
<trkpt lat="49.07880197279155" lon="8.74147298745811">
<ele>193.60000000000002</ele>
<time>2023-05-17T10:42:28Z</time>
</trkpt>
<trkpt lat="49.07879493199289" lon="8.741426970809698">
<ele>194</ele>
<time>2023-05-17T10:42:29Z</time>
</trkpt>
<trkpt lat="49.078787975013256" lon="8.741381959989667">
<ele>194.39999999999998</ele>
<time>2023-05-17T10:42:30Z</time>
</trkpt>
<trkpt lat="49.07878294587135" lon="8.741334937512875">
<ele>194.60000000000002</ele>
<time>2023-05-17T10:42:31Z</time>
</trkpt>
<trkpt lat="49.07877992838621" lon="8.741286993026733">
<ele>195</ele>
<time>2023-05-17T10:42:32Z</time>
</trkpt>
<trkpt lat="49.0787769947201" lon="8.741241982206702">
<ele>195.39999999999998</ele>
<time>2023-05-17T10:42:33Z</time>
</trkpt>
<trkpt lat="49.07877297140658" lon="8.741192948073149">
<ele>195.60000000000002</ele>
<time>2023-05-17T10:42:34Z</time>
</trkpt>
<trkpt lat="49.07876995392144" lon="8.741146931424737">
<ele>196</ele>
<time>2023-05-17T10:42:35Z</time>
</trkpt>
<trkpt lat="49.078766936436296" lon="8.741099992766976">
<ele>196.20000000000005</ele>
<time>2023-05-17T10:42:36Z</time>
</trkpt>
<trkpt lat="49.078762996941805" lon="8.741052970290184">
<ele>196.60000000000002</ele>
<time>2023-05-17T10:42:37Z</time>
</trkpt>
<trkpt lat="49.0787579677999" lon="8.741007959470153">
<ele>196.79999999999995</ele>
<time>2023-05-17T10:42:38Z</time>
</trkpt>
<trkpt lat="49.07875495031476" lon="8.740962948650122">
<ele>197</ele>
<time>2023-05-17T10:42:39Z</time>
</trkpt>
<trkpt lat="49.07874799333513" lon="8.74091793783009">
<ele>197.20000000000005</ele>
<time>2023-05-17T10:42:40Z</time>
</trkpt>
<trkpt lat="49.078744975849986" lon="8.74087292701006">
<ele>197.60000000000002</ele>
<time>2023-05-17T10:42:41Z</time>
</trkpt>
<trkpt lat="49.078742964193225" lon="8.740827916190028">
<ele>197.79999999999995</ele>
<time>2023-05-17T10:42:42Z</time>
</trkpt>
<trkpt lat="49.07873994670808" lon="8.740782989189029">
<ele>198</ele>
<time>2023-05-17T10:42:43Z</time>
</trkpt>
<trkpt lat="49.07873491756618" lon="8.740734960883856">
<ele>198.20000000000005</ele>
<time>2023-05-17T10:42:44Z</time>
</trkpt>
<trkpt lat="49.07873198390007" lon="8.740689950063825">
<ele>198.39999999999998</ele>
<time>2023-05-17T10:42:45Z</time>
</trkpt>
<trkpt lat="49.07872997224331" lon="8.740644939243793">
<ele>198.60000000000002</ele>
<time>2023-05-17T10:42:46Z</time>
</trkpt>
<trkpt lat="49.07872695475817" lon="8.740597916767001">
<ele>199</ele>
<time>2023-05-17T10:42:47Z</time>
</trkpt>
<trkpt lat="49.078724943101406" lon="8.740551983937621">
<ele>199.20000000000005</ele>
<time>2023-05-17T10:42:48Z</time>
</trkpt>
<trkpt lat="49.078721925616264" lon="8.740502949804068">
<ele>199.39999999999998</ele>
<time>2023-05-17T10:42:49Z</time>
</trkpt>
<trkpt lat="49.078717986121774" lon="8.740459950640798">
<ele>199.60000000000002</ele>
<time>2023-05-17T10:42:50Z</time>
</trkpt>
<trkpt lat="49.078717986121774" lon="8.740412928164005">
<ele>199.79999999999995</ele>
<time>2023-05-17T10:42:51Z</time>
</trkpt>
<trkpt lat="49.07871698029339" lon="8.740366995334625">
<ele>200</ele>
<time>2023-05-17T10:42:52Z</time>
</trkpt>
<trkpt lat="49.07871295697987" lon="8.740321984514594">
<ele>200.20000000000005</ele>
<time>2023-05-17T10:42:53Z</time>
</trkpt>
<trkpt lat="49.07871195115149" lon="8.740276973694563">
<ele>200.60000000000002</ele>
<time>2023-05-17T10:42:54Z</time>
</trkpt>
<trkpt lat="49.07870692200959" lon="8.740236992016435">
<ele>200.79999999999995</ele>
<time>2023-05-17T10:42:55Z</time>
</trkpt>
<trkpt lat="49.0787029825151" lon="8.740192987024784">
<ele>201</ele>
<time>2023-05-17T10:42:56Z</time>
</trkpt>
<trkpt lat="49.078701976686716" lon="8.740147976204753">
<ele>201.20000000000005</ele>
<time>2023-05-17T10:42:57Z</time>
</trkpt>
<trkpt lat="49.078697953373194" lon="8.740102965384722">
<ele>201.39999999999998</ele>
<time>2023-05-17T10:42:58Z</time>
</trkpt>
<trkpt lat="49.07869493588805" lon="8.74005795456469">
<ele>201.79999999999995</ele>
<time>2023-05-17T10:42:59Z</time>
</trkpt>
<trkpt lat="49.07869191840291" lon="8.74001294374466">
<ele>202</ele>
<time>2023-05-17T10:43:00Z</time>
</trkpt>
<trkpt lat="49.07868797890842" lon="8.73996994458139">
<ele>202.39999999999998</ele>
<time>2023-05-17T10:43:01Z</time>
</trkpt>
<trkpt lat="49.07868496142328" lon="8.7399279512465">
<ele>202.60000000000002</ele>
<time>2023-05-17T10:43:02Z</time>
</trkpt>
<trkpt lat="49.078677920624614" lon="8.739887969568372">
<ele>203</ele>
<time>2023-05-17T10:43:03Z</time>
</trkpt>
<trkpt lat="49.07867297530174" lon="8.739849999547005">
<ele>203.20000000000005</ele>
<time>2023-05-17T10:43:04Z</time>
</trkpt>
<trkpt lat="49.0786699578166" lon="8.739807922393084">
<ele>203.60000000000002</ele>
<time>2023-05-17T10:43:05Z</time>
</trkpt>
<trkpt lat="49.0786649286747" lon="8.739766934886575">
<ele>203.79999999999995</ele>
<time>2023-05-17T10:43:06Z</time>
</trkpt>
<trkpt lat="49.07865998335183" lon="8.739722929894924">
<ele>204</ele>
<time>2023-05-17T10:43:07Z</time>
</trkpt>
<trkpt lat="49.07865294255316" lon="8.739679930731654">
<ele>204.20000000000005</ele>
<time>2023-05-17T10:43:08Z</time>
</trkpt>
<trkpt lat="49.07864699140191" lon="8.739636931568384">
<ele>204.60000000000002</ele>
<time>2023-05-17T10:43:09Z</time>
</trkpt>
<trkpt lat="49.07863995060325" lon="8.739591920748353">
<ele>204.79999999999995</ele>
<time>2023-05-17T10:43:10Z</time>
</trkpt>
<trkpt lat="49.078634921461344" lon="8.739547999575734">
<ele>205</ele>
<time>2023-05-17T10:43:11Z</time>
</trkpt>
<trkpt lat="49.07862695865333" lon="8.739504916593432">
<ele>205.39999999999998</ele>
<time>2023-05-17T10:43:12Z</time>
</trkpt>
<trkpt lat="49.07861799001694" lon="8.739461917430162">
<ele>205.60000000000002</ele>
<time>2023-05-17T10:43:13Z</time>
</trkpt>
<trkpt lat="49.07860793173313" lon="8.739419924095273">
<ele>206</ele>
<time>2023-05-17T10:43:14Z</time>
</trkpt>
<trkpt lat="49.07859795726836" lon="8.739377930760384">
<ele>206.20000000000005</ele>
<time>2023-05-17T10:43:15Z</time>
</trkpt>
<trkpt lat="49.07858798280358" lon="8.739336943253875">
<ele>206.60000000000002</ele>
<time>2023-05-17T10:43:16Z</time>
</trkpt>
<trkpt lat="49.07857792451978" lon="8.739296961575747">
<ele>206.79999999999995</ele>
<time>2023-05-17T10:43:17Z</time>
</trkpt>
<trkpt lat="49.078567950055" lon="8.739254968240857">
<ele>207.20000000000005</ele>
<time>2023-05-17T10:43:18Z</time>
</trkpt>
<trkpt lat="49.07855696976185" lon="8.739212974905968">
<ele>207.60000000000002</ele>
<time>2023-05-17T10:43:19Z</time>
</trkpt>
<trkpt lat="49.07854498364031" lon="8.739169975742698">
<ele>207.79999999999995</ele>
<time>2023-05-17T10:43:20Z</time>
</trkpt>
<trkpt lat="49.07853299751878" lon="8.739127982407808">
<ele>208.20000000000005</ele>
<time>2023-05-17T10:43:21Z</time>
</trkpt>
<trkpt lat="49.07852293923497" lon="8.7390869949013">
<ele>208.39999999999998</ele>
<time>2023-05-17T10:43:22Z</time>
</trkpt>
<trkpt lat="49.0785129647702" lon="8.739044917747378">
<ele>208.60000000000002</ele>
<time>2023-05-17T10:43:23Z</time>
</trkpt>
<trkpt lat="49.078502990305424" lon="8.739002924412489">
<ele>208.79999999999995</ele>
<time>2023-05-17T10:43:24Z</time>
</trkpt>
<trkpt lat="49.07849293202162" lon="8.73895799741149">
<ele>209</ele>
<time>2023-05-17T10:43:25Z</time>
</trkpt>
<trkpt lat="49.07848195172846" lon="8.73891499824822">
<ele>209.20000000000005</ele>
<time>2023-05-17T10:43:26Z</time>
</trkpt>
<trkpt lat="49.07847197726369" lon="8.738869987428188">
<ele>209.39999999999998</ele>
<time>2023-05-17T10:43:27Z</time>
</trkpt>
<trkpt lat="49.07846191897988" lon="8.738824976608157">
<ele>209.39999999999998</ele>
<time>2023-05-17T10:43:28Z</time>
</trkpt>
<trkpt lat="49.07844993285835" lon="8.738777954131365">
<ele>209.60000000000002</ele>
<time>2023-05-17T10:43:29Z</time>
</trkpt>
<trkpt lat="49.07843492925167" lon="8.738729925826192">
<ele>209.79999999999995</ele>
<time>2023-05-17T10:43:30Z</time>
</trkpt>
<trkpt lat="49.078419925644994" lon="8.73867996968329">
<ele>210.20000000000005</ele>
<time>2023-05-17T10:43:31Z</time>
</trkpt>
<trkpt lat="49.07840693369508" lon="8.73863697052002">
<ele>210.39999999999998</ele>
<time>2023-05-17T10:43:32Z</time>
</trkpt>
<trkpt lat="49.07839293591678" lon="8.738592965528369">
<ele>210.60000000000002</ele>
<time>2023-05-17T10:43:33Z</time>
</trkpt>
<trkpt lat="49.078379943966866" lon="8.738549966365099">
<ele>210.79999999999995</ele>
<time>2023-05-17T10:43:34Z</time>
</trkpt>
<trkpt lat="49.07836695201695" lon="8.738506967201829">
<ele>211.20000000000005</ele>
<time>2023-05-17T10:43:35Z</time>
</trkpt>
<trkpt lat="49.07835194841027" lon="8.738462962210178">
<ele>211.20000000000005</ele>
<time>2023-05-17T10:43:36Z</time>
</trkpt>
<trkpt lat="49.078337950631976" lon="8.738419963046908">
<ele>211.39999999999998</ele>
<time>2023-05-17T10:43:37Z</time>
</trkpt>
<trkpt lat="49.0783229470253" lon="8.738374952226877">
<ele>211.60000000000002</ele>
<time>2023-05-17T10:43:38Z</time>
</trkpt>
<trkpt lat="49.07830794341862" lon="8.738324996083975">
<ele>211.79999999999995</ele>
<time>2023-05-17T10:43:39Z</time>
</trkpt>
<trkpt lat="49.078291933983564" lon="8.738277973607183">
<ele>212</ele>
<time>2023-05-17T10:43:40Z</time>
</trkpt>
<trkpt lat="49.07827693037689" lon="8.738226927816868">
<ele>212.20000000000005</ele>
<time>2023-05-17T10:43:41Z</time>
</trkpt>
<trkpt lat="49.07826192677021" lon="8.738177977502346">
<ele>212.20000000000005</ele>
<time>2023-05-17T10:43:42Z</time>
</trkpt>
<trkpt lat="49.078244995325804" lon="8.738126931712031">
<ele>212.39999999999998</ele>
<time>2023-05-17T10:43:43Z</time>
</trkpt>
<trkpt lat="49.07822999171913" lon="8.73807798139751">
<ele>212.60000000000002</ele>
<time>2023-05-17T10:43:44Z</time>
</trkpt>
<trkpt lat="49.07821297645569" lon="8.738029953092337">
<ele>212.79999999999995</ele>
<time>2023-05-17T10:43:45Z</time>
</trkpt>
<trkpt lat="49.07819696702063" lon="8.737986953929067">
<ele>213</ele>
<time>2023-05-17T10:43:46Z</time>
</trkpt>
<trkpt lat="49.07817693427205" lon="8.737947978079319">
<ele>213.20000000000005</ele>
<time>2023-05-17T10:43:47Z</time>
</trkpt>
<trkpt lat="49.078162936493754" lon="8.737911935895681">
<ele>213.60000000000002</ele>
<time>2023-05-17T10:43:48Z</time>
</trkpt>
<trkpt lat="49.07814793288708" lon="8.737871954217553">
<ele>213.79999999999995</ele>
<time>2023-05-17T10:43:49Z</time>
</trkpt>
<trkpt lat="49.0781329292804" lon="8.737832978367805">
<ele>214.20000000000005</ele>
<time>2023-05-17T10:43:50Z</time>
</trkpt>
<trkpt lat="49.078119937330484" lon="8.737794924527407">
<ele>214.39999999999998</ele>
<time>2023-05-17T10:43:51Z</time>
</trkpt>
<trkpt lat="49.07810493372381" lon="8.737754942849278">
<ele>214.79999999999995</ele>
<time>2023-05-17T10:43:52Z</time>
</trkpt>
<trkpt lat="49.07808791846037" lon="8.737716972827911">
<ele>215</ele>
<time>2023-05-17T10:43:53Z</time>
</trkpt>
<trkpt lat="49.07807199284434" lon="8.737677996978164">
<ele>215.39999999999998</ele>
<time>2023-05-17T10:43:54Z</time>
</trkpt>
<trkpt lat="49.078056989237666" lon="8.737637931481004">
<ele>215.60000000000002</ele>
<time>2023-05-17T10:43:55Z</time>
</trkpt>
<trkpt lat="49.07804299145937" lon="8.737597949802876">
<ele>215.79999999999995</ele>
<time>2023-05-17T10:43:56Z</time>
</trkpt>
<trkpt lat="49.07802798785269" lon="8.737554950639606">
<ele>216.20000000000005</ele>
<time>2023-05-17T10:43:57Z</time>
</trkpt>
<trkpt lat="49.078011978417635" lon="8.737512957304716">
<ele>216.39999999999998</ele>
<time>2023-05-17T10:43:58Z</time>
</trkpt>
<trkpt lat="49.0779949631542" lon="8.737469958141446">
<ele>216.60000000000002</ele>
<time>2023-05-17T10:43:59Z</time>
</trkpt>
<trkpt lat="49.07797794789076" lon="8.737427964806557">
<ele>216.79999999999995</ele>
<time>2023-05-17T10:44:00Z</time>
</trkpt>
<trkpt lat="49.07796294428408" lon="8.737384965643287">
<ele>217</ele>
<time>2023-05-17T10:44:01Z</time>
</trkpt>
<trkpt lat="49.077946934849024" lon="8.737341966480017">
<ele>217.20000000000005</ele>
<time>2023-05-17T10:44:02Z</time>
</trkpt>
<trkpt lat="49.07793193124235" lon="8.737304918467999">
<ele>217.39999999999998</ele>
<time>2023-05-17T10:44:03Z</time>
</trkpt>
<trkpt lat="49.0779119823128" lon="8.737267954275012">
<ele>217.60000000000002</ele>
<time>2023-05-17T10:44:04Z</time>
</trkpt>
<trkpt lat="49.0778929553926" lon="8.737232917919755">
<ele>217.60000000000002</ele>
<time>2023-05-17T10:44:05Z</time>
</trkpt>
<trkpt lat="49.07787493430078" lon="8.737196959555149">
<ele>217.79999999999995</ele>
<time>2023-05-17T10:44:06Z</time>
</trkpt>
<trkpt lat="49.0778599306941" lon="8.737161923199892">
<ele>218</ele>
<time>2023-05-17T10:44:07Z</time>
</trkpt>
<trkpt lat="49.0778429992497" lon="8.737126970663667">
<ele>218</ele>
<time>2023-05-17T10:44:08Z</time>
</trkpt>
<trkpt lat="49.07782296650112" lon="8.737087994813919">
<ele>218.20000000000005</ele>
<time>2023-05-17T10:44:09Z</time>
</trkpt>
<trkpt lat="49.07780293375254" lon="8.73704994097352">
<ele>218.39999999999998</ele>
<time>2023-05-17T10:44:10Z</time>
</trkpt>
<trkpt lat="49.07778298482299" lon="8.73700794763863">
<ele>218.39999999999998</ele>
<time>2023-05-17T10:44:11Z</time>
</trkpt>
<trkpt lat="49.07776496373117" lon="8.736966960132122">
<ele>218.60000000000002</ele>
<time>2023-05-17T10:44:12Z</time>
</trkpt>
<trkpt lat="49.07774794846773" lon="8.736922955140471">
<ele>218.79999999999995</ele>
<time>2023-05-17T10:44:13Z</time>
</trkpt>
<trkpt lat="49.07772992737591" lon="8.736881967633963">
<ele>218.79999999999995</ele>
<time>2023-05-17T10:44:14Z</time>
</trkpt>
<trkpt lat="49.077712995931506" lon="8.736836956813931">
<ele>219</ele>
<time>2023-05-17T10:44:15Z</time>
</trkpt>
<trkpt lat="49.07769497483969" lon="8.73679295182228">
<ele>219</ele>
<time>2023-05-17T10:44:16Z</time>
</trkpt>
<trkpt lat="49.07767695374787" lon="8.736754981800914">
<ele>219.20000000000005</ele>
<time>2023-05-17T10:44:17Z</time>
</trkpt>
<trkpt lat="49.07765792682767" lon="8.736712988466024">
<ele>219.39999999999998</ele>
<time>2023-05-17T10:44:18Z</time>
</trkpt>
<trkpt lat="49.07763998955488" lon="8.736669989302754">
<ele>219.60000000000002</ele>
<time>2023-05-17T10:44:19Z</time>
</trkpt>
<trkpt lat="49.0776199568063" lon="8.736624978482723">
<ele>219.60000000000002</ele>
<time>2023-05-17T10:44:20Z</time>
</trkpt>
<trkpt lat="49.07760193571448" lon="8.736582985147834">
<ele>219.79999999999995</ele>
<time>2023-05-17T10:44:21Z</time>
</trkpt>
<trkpt lat="49.077581986784935" lon="8.736536968499422">
<ele>220</ele>
<time>2023-05-17T10:44:22Z</time>
</trkpt>
<trkpt lat="49.077561954036355" lon="8.736491957679391">
<ele>220.20000000000005</ele>
<time>2023-05-17T10:44:23Z</time>
</trkpt>
<trkpt lat="49.07754695042968" lon="8.736441917717457">
<ele>220.20000000000005</ele>
<time>2023-05-17T10:44:24Z</time>
</trkpt>
<trkpt lat="49.07752993516624" lon="8.736392967402935">
<ele>220.39999999999998</ele>
<time>2023-05-17T10:44:25Z</time>
</trkpt>
<trkpt lat="49.07751493155956" lon="8.736346950754523">
<ele>220.60000000000002</ele>
<time>2023-05-17T10:44:26Z</time>
</trkpt>
<trkpt lat="49.077497916296124" lon="8.73629791662097">
<ele>220.79999999999995</ele>
<time>2023-05-17T10:44:27Z</time>
</trkpt>
<trkpt lat="49.07747997902334" lon="8.7362549174577">
<ele>221</ele>
<time>2023-05-17T10:44:28Z</time>
</trkpt>
<trkpt lat="49.07745994627476" lon="8.73621191829443">
<ele>221.20000000000005</ele>
<time>2023-05-17T10:44:29Z</time>
</trkpt>
<trkpt lat="49.07743999734521" lon="8.73616992495954">
<ele>221.20000000000005</ele>
<time>2023-05-17T10:44:30Z</time>
</trkpt>
<trkpt lat="49.07741996459663" lon="8.736129943281412">
<ele>221.39999999999998</ele>
<time>2023-05-17T10:44:31Z</time>
</trkpt>
<trkpt lat="49.07740194350481" lon="8.736087949946523">
<ele>221.60000000000002</ele>
<time>2023-05-17T10:44:32Z</time>
</trkpt>
<trkpt lat="49.07738291658461" lon="8.736046962440014">
<ele>221.79999999999995</ele>
<time>2023-05-17T10:44:33Z</time>
</trkpt>
<trkpt lat="49.077364979311824" lon="8.736004969105124">
<ele>222</ele>
<time>2023-05-17T10:44:34Z</time>
</trkpt>
<trkpt lat="49.07734293490648" lon="8.735959958285093">
<ele>222.20000000000005</ele>
<time>2023-05-17T10:44:35Z</time>
</trkpt>
<trkpt lat="49.077324997633696" lon="8.735914947465062">
<ele>222.39999999999998</ele>
<time>2023-05-17T10:44:36Z</time>
</trkpt>
<trkpt lat="49.077304964885116" lon="8.735869936645031">
<ele>222.79999999999995</ele>
<time>2023-05-17T10:44:37Z</time>
</trkpt>
<trkpt lat="49.0772869437933" lon="8.73582299798727">
<ele>223</ele>
<time>2023-05-17T10:44:38Z</time>
</trkpt>
<trkpt lat="49.07726992852986" lon="8.735776981338859">
<ele>223.20000000000005</ele>
<time>2023-05-17T10:44:39Z</time>
</trkpt>
<trkpt lat="49.07725299708545" lon="8.735729958862066">
<ele>223.39999999999998</ele>
<time>2023-05-17T10:44:40Z</time>
</trkpt>
<trkpt lat="49.077236987650394" lon="8.735686959698796">
<ele>223.79999999999995</ele>
<time>2023-05-17T10:44:41Z</time>
</trkpt>
<trkpt lat="49.077217960730195" lon="8.735642954707146">
<ele>224</ele>
<time>2023-05-17T10:44:42Z</time>
</trkpt>
<trkpt lat="49.07720195129514" lon="8.735602973029017">
<ele>224.20000000000005</ele>
<time>2023-05-17T10:44:43Z</time>
</trkpt>
<trkpt lat="49.07718694768846" lon="8.735561985522509">
<ele>224.39999999999998</ele>
<time>2023-05-17T10:44:44Z</time>
</trkpt>
<trkpt lat="49.07716993242502" lon="8.73552493751049">
<ele>224.79999999999995</ele>
<time>2023-05-17T10:44:45Z</time>
</trkpt>
<trkpt lat="49.077152917161584" lon="8.735484955832362">
<ele>225</ele>
<time>2023-05-17T10:44:46Z</time>
</trkpt>
<trkpt lat="49.07713799737394" lon="8.735444974154234">
<ele>225.20000000000005</ele>
<time>2023-05-17T10:44:47Z</time>
</trkpt>
<trkpt lat="49.07712198793888" lon="8.735406920313835">
<ele>225.60000000000002</ele>
<time>2023-05-17T10:44:48Z</time>
</trkpt>
<trkpt lat="49.0771019551903" lon="8.735364926978946">
<ele>225.79999999999995</ele>
<time>2023-05-17T10:44:49Z</time>
</trkpt>
<trkpt lat="49.077086951583624" lon="8.73532796278596">
<ele>226.20000000000005</ele>
<time>2023-05-17T10:44:50Z</time>
</trkpt>
<trkpt lat="49.077069936320186" lon="8.735289992764592">
<ele>226.39999999999998</ele>
<time>2023-05-17T10:44:51Z</time>
</trkpt>
<trkpt lat="49.07705694437027" lon="8.735249927267432">
<ele>226.79999999999995</ele>
<time>2023-05-17T10:44:52Z</time>
</trkpt>
<trkpt lat="49.07704194076359" lon="8.735212963074446">
<ele>227.20000000000005</ele>
<time>2023-05-17T10:44:53Z</time>
</trkpt>
<trkpt lat="49.077027942985296" lon="8.735176920890808">
<ele>227.39999999999998</ele>
<time>2023-05-17T10:44:54Z</time>
</trkpt>
<trkpt lat="49.07701696269214" lon="8.735141968354583">
<ele>227.79999999999995</ele>
<time>2023-05-17T10:44:55Z</time>
</trkpt>
<trkpt lat="49.077002964913845" lon="8.735109949484468">
<ele>228</ele>
<time>2023-05-17T10:44:56Z</time>
</trkpt>
<trkpt lat="49.07698796130717" lon="8.735077930614352">
<ele>228.39999999999998</ele>
<time>2023-05-17T10:44:57Z</time>
</trkpt>
<trkpt lat="49.07697295770049" lon="8.735047923400998">
<ele>228.60000000000002</ele>
<time>2023-05-17T10:44:58Z</time>
</trkpt>
<trkpt lat="49.07695694826543" lon="8.735016994178295">
<ele>229</ele>
<time>2023-05-17T10:44:59Z</time>
</trkpt>
<trkpt lat="49.076939933001995" lon="8.734986986964941">
<ele>229.39999999999998</ele>
<time>2023-05-17T10:45:00Z</time>
</trkpt>
<trkpt lat="49.07692199572921" lon="8.734952956438065">
<ele>229.60000000000002</ele>
<time>2023-05-17T10:45:01Z</time>
</trkpt>
<trkpt lat="49.07690498046577" lon="8.734919931739569">
<ele>230</ele>
<time>2023-05-17T10:45:02Z</time>
</trkpt>
<trkpt lat="49.076891988515854" lon="8.734884979203343">
<ele>230.20000000000005</ele>
<time>2023-05-17T10:45:03Z</time>
</trkpt>
<trkpt lat="49.076874973252416" lon="8.734842985868454">
<ele>230.60000000000002</ele>
<time>2023-05-17T10:45:04Z</time>
</trkpt>
<trkpt lat="49.07685996964574" lon="8.734802920371294">
<ele>230.79999999999995</ele>
<time>2023-05-17T10:45:05Z</time>
</trkpt>
<trkpt lat="49.07684194855392" lon="8.734761932864785">
<ele>231</ele>
<time>2023-05-17T10:45:06Z</time>
</trkpt>
<trkpt lat="49.07682694494724" lon="8.734724968671799">
<ele>231.39999999999998</ele>
<time>2023-05-17T10:45:07Z</time>
</trkpt>
<trkpt lat="49.076809929683805" lon="8.734686998650432">
<ele>231.60000000000002</ele>
<time>2023-05-17T10:45:08Z</time>
</trkpt>
<trkpt lat="49.07679199241102" lon="8.734649950638413">
<ele>231.79999999999995</ele>
<time>2023-05-17T10:45:09Z</time>
</trkpt>
<trkpt lat="49.07677497714758" lon="8.734614998102188">
<ele>232.20000000000005</ele>
<time>2023-05-17T10:45:10Z</time>
</trkpt>
<trkpt lat="49.07675796188414" lon="8.73457694426179">
<ele>232.39999999999998</ele>
<time>2023-05-17T10:45:11Z</time>
</trkpt>
<trkpt lat="49.07674195244908" lon="8.734537968412042">
<ele>232.79999999999995</ele>
<time>2023-05-17T10:45:12Z</time>
</trkpt>
<trkpt lat="49.076726948842406" lon="8.734496980905533">
<ele>233</ele>
<time>2023-05-17T10:45:13Z</time>
</trkpt>
<trkpt lat="49.07671496272087" lon="8.734451970085502">
<ele>233.20000000000005</ele>
<time>2023-05-17T10:45:14Z</time>
</trkpt>
<trkpt lat="49.076701970770955" lon="8.734409976750612">
<ele>233.39999999999998</ele>
<time>2023-05-17T10:45:15Z</time>
</trkpt>
<trkpt lat="49.07668797299266" lon="8.734366977587342">
<ele>233.79999999999995</ele>
<time>2023-05-17T10:45:16Z</time>
</trkpt>
<trkpt lat="49.076676992699504" lon="8.734322972595692">
<ele>234</ele>
<time>2023-05-17T10:45:17Z</time>
</trkpt>
<trkpt lat="49.07666299492121" lon="8.734279973432422">
<ele>234.20000000000005</ele>
<time>2023-05-17T10:45:18Z</time>
</trkpt>
<trkpt lat="49.07665193080902" lon="8.734237980097532">
<ele>234.39999999999998</ele>
<time>2023-05-17T10:45:19Z</time>
</trkpt>
<trkpt lat="49.076637933030725" lon="8.734196992591023">
<ele>234.60000000000002</ele>
<time>2023-05-17T10:45:20Z</time>
</trkpt>
<trkpt lat="49.07662795856595" lon="8.734151981770992">
<ele>234.79999999999995</ele>
<time>2023-05-17T10:45:21Z</time>
</trkpt>
<trkpt lat="49.076616978272796" lon="8.734112922102213">
<ele>235</ele>
<time>2023-05-17T10:45:22Z</time>
</trkpt>
<trkpt lat="49.07660691998899" lon="8.734067995101213">
<ele>235.20000000000005</ele>
<time>2023-05-17T10:45:23Z</time>
</trkpt>
<trkpt lat="49.076596945524216" lon="8.734022984281182">
<ele>235.39999999999998</ele>
<time>2023-05-17T10:45:24Z</time>
</trkpt>
<trkpt lat="49.07658697105944" lon="8.733977973461151">
<ele>235.60000000000002</ele>
<time>2023-05-17T10:45:25Z</time>
</trkpt>
<trkpt lat="49.07657699659467" lon="8.733934974297881">
<ele>235.79999999999995</ele>
<time>2023-05-17T10:45:26Z</time>
</trkpt>
<trkpt lat="49.07656693831086" lon="8.733892980962992">
<ele>236</ele>
<time>2023-05-17T10:45:27Z</time>
</trkpt>
<trkpt lat="49.07655796967447" lon="8.733851993456483">
<ele>236.20000000000005</ele>
<time>2023-05-17T10:45:28Z</time>
</trkpt>
<trkpt lat="49.076551934704185" lon="8.733809916302562">
<ele>236.39999999999998</ele>
<time>2023-05-17T10:45:29Z</time>
</trkpt>
<trkpt lat="49.07654698938131" lon="8.733771946281195">
<ele>236.39999999999998</ele>
<time>2023-05-17T10:45:30Z</time>
</trkpt>
<trkpt lat="49.07653994858265" lon="8.733727941289544">
<ele>236.60000000000002</ele>
<time>2023-05-17T10:45:31Z</time>
</trkpt>
<trkpt lat="49.076531985774636" lon="8.733687959611416">
<ele>236.79999999999995</ele>
<time>2023-05-17T10:45:32Z</time>
</trkpt>
<trkpt lat="49.07652695663273" lon="8.733647977933288">
<ele>237</ele>
<time>2023-05-17T10:45:33Z</time>
</trkpt>
<trkpt lat="49.0765199996531" lon="8.733604978770018">
<ele>237.20000000000005</ele>
<time>2023-05-17T10:45:34Z</time>
</trkpt>
<trkpt lat="49.07651295885444" lon="8.733566924929619">
<ele>237.20000000000005</ele>
<time>2023-05-17T10:45:35Z</time>
</trkpt>
<trkpt lat="49.076504996046424" lon="8.733529960736632">
<ele>237.39999999999998</ele>
<time>2023-05-17T10:45:36Z</time>
</trkpt>
<trkpt lat="49.07649795524776" lon="8.733494924381375">
<ele>237.60000000000002</ele>
<time>2023-05-17T10:45:37Z</time>
</trkpt>
<trkpt lat="49.07649292610586" lon="8.733462989330292">
<ele>237.60000000000002</ele>
<time>2023-05-17T10:45:38Z</time>
</trkpt>
<trkpt lat="49.076486974954605" lon="8.733426947146654">
<ele>237.79999999999995</ele>
<time>2023-05-17T10:45:39Z</time>
</trkpt>
<trkpt lat="49.07647993415594" lon="8.733389982953668">
<ele>237.79999999999995</ele>
<time>2023-05-17T10:45:40Z</time>
</trkpt>
<trkpt lat="49.07647498883307" lon="8.733357964083552">
<ele>238</ele>
<time>2023-05-17T10:45:41Z</time>
</trkpt>
<trkpt lat="49.07647197134793" lon="8.73333198018372">
<ele>238</ele>
<time>2023-05-17T10:45:42Z</time>
</trkpt>
<trkpt lat="49.07646995969117" lon="8.733302978798747">
<ele>238.20000000000005</ele>
<time>2023-05-17T10:45:43Z</time>
</trkpt>
<trkpt lat="49.076466942206025" lon="8.733276994898915">
<ele>238.20000000000005</ele>
<time>2023-05-17T10:45:44Z</time>
</trkpt>
<trkpt lat="49.076466942206025" lon="8.733254950493574">
<ele>238.20000000000005</ele>
<time>2023-05-17T10:45:45Z</time>
</trkpt>
<trkpt lat="49.076466942206025" lon="8.733231984078884">
<ele>238.39999999999998</ele>
<time>2023-05-17T10:45:46Z</time>
</trkpt>
<trkpt lat="49.07646995969117" lon="8.733207928016782">
<ele>238.39999999999998</ele>
<time>2023-05-17T10:45:47Z</time>
</trkpt>
<trkpt lat="49.07646995969117" lon="8.733191918581724">
<ele>238.39999999999998</ele>
<time>2023-05-17T10:45:48Z</time>
</trkpt>
<trkpt lat="49.076467948034406" lon="8.733174987137318">
<ele>238.39999999999998</ele>
<time>2023-05-17T10:45:49Z</time>
</trkpt>
<trkpt lat="49.07646995969117" lon="8.733154954388738">
<ele>238.39999999999998</ele>
<time>2023-05-17T10:45:50Z</time>
</trkpt>
<trkpt lat="49.07647297717631" lon="8.7331379391253">
<ele>238.39999999999998</ele>
<time>2023-05-17T10:45:51Z</time>
</trkpt>
<trkpt lat="49.07647993415594" lon="8.73311991803348">
<ele>238.39999999999998</ele>
<time>2023-05-17T10:45:52Z</time>
</trkpt>
<trkpt lat="49.07648999243975" lon="8.733102986589074">
<ele>238.39999999999998</ele>
<time>2023-05-17T10:45:53Z</time>
</trkpt>
<trkpt lat="49.07649996690452" lon="8.733092928305268">
<ele>238.39999999999998</ele>
<time>2023-05-17T10:45:54Z</time>
</trkpt>
<trkpt lat="49.07649996690452" lon="8.733089994639158">
<ele>238.39999999999998</ele>
<time>2023-05-17T10:45:55Z</time>
</trkpt>
<trkpt lat="49.07650197856128" lon="8.733089994639158">
<ele>238.39999999999998</ele>
<time>2023-05-17T10:45:56Z</time>
</trkpt>
<trkpt lat="49.07650298438966" lon="8.733091922476888">
<ele>238.39999999999998</ele>
<time>2023-05-17T10:45:57Z</time>
</trkpt>
<trkpt lat="49.076511953026056" lon="8.733091922476888">
<ele>238.39999999999998</ele>
<time>2023-05-17T10:45:58Z</time>
</trkpt>
<trkpt lat="49.07654196023941" lon="8.733044983819127">
<ele>238.20000000000005</ele>
<time>2023-05-17T10:45:58Z</time>
</trkpt>
<trkpt lat="49.076547995209694" lon="8.733026962727308">
<ele>238.20000000000005</ele>
<time>2023-05-17T10:45:59Z</time>
</trkpt>
<trkpt lat="49.076552940532565" lon="8.733006929978728">
<ele>238.20000000000005</ele>
<time>2023-05-17T10:46:00Z</time>
</trkpt>
<trkpt lat="49.076554952189326" lon="8.73298698104918">
<ele>238.20000000000005</ele>
<time>2023-05-17T10:46:01Z</time>
</trkpt>
<trkpt lat="49.076554952189326" lon="8.732971977442503">
<ele>238.20000000000005</ele>
<time>2023-05-17T10:46:02Z</time>
</trkpt>
<trkpt lat="49.076552940532565" lon="8.732962924987078">
<ele>238.20000000000005</ele>
<time>2023-05-17T10:46:03Z</time>
</trkpt>
<trkpt lat="49.076551934704185" lon="8.732961919158697">
<ele>238.20000000000005</ele>
<time>2023-05-17T10:46:04Z</time>
</trkpt>
<trkpt lat="49.076551934704185" lon="8.732959991320968">
<ele>238.20000000000005</ele>
<time>2023-05-17T10:46:05Z</time>
</trkpt>
<trkpt lat="49.076552940532565" lon="8.732961919158697">
<ele>238.20000000000005</ele>
<time>2023-05-17T10:46:06Z</time>
</trkpt>
<trkpt lat="49.07654992304742" lon="8.732959991320968">
<ele>237.60000000000002</ele>
<time>2023-05-17T10:46:08Z</time>
</trkpt>
<trkpt lat="49.07654296606779" lon="8.732937946915627">
<ele>237.60000000000002</ele>
<time>2023-05-17T10:46:09Z</time>
</trkpt>
<trkpt lat="49.076534919440746" lon="8.732911963015795">
<ele>237.60000000000002</ele>
<time>2023-05-17T10:46:10Z</time>
</trkpt>
<trkpt lat="49.07652695663273" lon="8.73287994414568">
<ele>237.79999999999995</ele>
<time>2023-05-17T10:46:11Z</time>
</trkpt>
<trkpt lat="49.07651798799634" lon="8.732839962467551">
<ele>237.79999999999995</ele>
<time>2023-05-17T10:46:12Z</time>
</trkpt>
<trkpt lat="49.076507929712534" lon="8.732792939990759">
<ele>237.79999999999995</ele>
<time>2023-05-17T10:46:13Z</time>
</trkpt>
<trkpt lat="49.07649996690452" lon="8.732744995504618">
<ele>237.79999999999995</ele>
<time>2023-05-17T10:46:14Z</time>
</trkpt>
<trkpt lat="49.07648999243975" lon="8.732691938057542">
<ele>237.79999999999995</ele>
<time>2023-05-17T10:46:15Z</time>
</trkpt>
<trkpt lat="49.07647792249918" lon="8.732637958601117">
<ele>237.79999999999995</ele>
<time>2023-05-17T10:46:16Z</time>
</trkpt>
<trkpt lat="49.076464930549264" lon="8.732584984973073">
<ele>238</ele>
<time>2023-05-17T10:46:17Z</time>
</trkpt>
<trkpt lat="49.07644699327648" lon="8.732531927525997">
<ele>238</ele>
<time>2023-05-17T10:46:18Z</time>
</trkpt>
<trkpt lat="49.076422937214375" lon="8.732482977211475">
<ele>238</ele>
<time>2023-05-17T10:46:19Z</time>
</trkpt>
<trkpt lat="49.07639494165778" lon="8.732442995533347">
<ele>238</ele>
<time>2023-05-17T10:46:20Z</time>
</trkpt>
<trkpt lat="49.07636493444443" lon="8.732402930036187">
<ele>238</ele>
<time>2023-05-17T10:46:21Z</time>
</trkpt>
<trkpt lat="49.07633492723107" lon="8.732354985550046">
<ele>238</ele>
<time>2023-05-17T10:46:22Z</time>
</trkpt>
<trkpt lat="49.07631196081638" lon="8.732299916446209">
<ele>238.20000000000005</ele>
<time>2023-05-17T10:46:23Z</time>
</trkpt>
<trkpt lat="49.07629796303809" lon="8.732237974181771">
<ele>238.20000000000005</ele>
<time>2023-05-17T10:46:24Z</time>
</trkpt>
<trkpt lat="49.07628698274493" lon="8.73217293061316">
<ele>238.20000000000005</ele>
<time>2023-05-17T10:46:25Z</time>
</trkpt>
<trkpt lat="49.07627793028951" lon="8.73210797086358">
<ele>238.20000000000005</ele>
<time>2023-05-17T10:46:26Z</time>
</trkpt>
<trkpt lat="49.076271979138255" lon="8.732041921466589">
<ele>238.39999999999998</ele>
<time>2023-05-17T10:46:27Z</time>
</trkpt>
<trkpt lat="49.07626493833959" lon="8.73197696171701">
<ele>238.39999999999998</ele>
<time>2023-05-17T10:46:28Z</time>
</trkpt>
<trkpt lat="49.07625798135996" lon="8.731911918148398">
<ele>238.39999999999998</ele>
<time>2023-05-17T10:46:29Z</time>
</trkpt>
<trkpt lat="49.076252952218056" lon="8.731846958398819">
<ele>238.39999999999998</ele>
<time>2023-05-17T10:46:30Z</time>
</trkpt>
<trkpt lat="49.076251946389675" lon="8.73178199864924">
<ele>238.39999999999998</ele>
<time>2023-05-17T10:46:31Z</time>
</trkpt>
<trkpt lat="49.07624792307615" lon="8.731717960909009">
<ele>238.39999999999998</ele>
<time>2023-05-17T10:46:32Z</time>
</trkpt>
<trkpt lat="49.07624498941004" lon="8.731652917340398">
<ele>238.39999999999998</ele>
<time>2023-05-17T10:46:33Z</time>
</trkpt>
<trkpt lat="49.07624498941004" lon="8.73158996924758">
<ele>238.39999999999998</ele>
<time>2023-05-17T10:46:34Z</time>
</trkpt>
<trkpt lat="49.07624498941004" lon="8.731524925678968">
<ele>238.39999999999998</ele>
<time>2023-05-17T10:46:35Z</time>
</trkpt>
<trkpt lat="49.07624792307615" lon="8.731459965929389">
<ele>238.39999999999998</ele>
<time>2023-05-17T10:46:36Z</time>
</trkpt>
<trkpt lat="49.076251946389675" lon="8.731394922360778">
<ele>238.39999999999998</ele>
<time>2023-05-17T10:46:37Z</time>
</trkpt>
<trkpt lat="49.07625496387482" lon="8.731327950954437">
<ele>238.20000000000005</ele>
<time>2023-05-17T10:46:38Z</time>
</trkpt>
<trkpt lat="49.07626192085445" lon="8.731257962062955">
<ele>238.20000000000005</ele>
<time>2023-05-17T10:46:39Z</time>
</trkpt>
<trkpt lat="49.07626694999635" lon="8.731189984828234">
<ele>238</ele>
<time>2023-05-17T10:46:40Z</time>
</trkpt>
<trkpt lat="49.076272984966636" lon="8.73112192377448">
<ele>238</ele>
<time>2023-05-17T10:46:41Z</time>
</trkpt>
<trkpt lat="49.07627994194627" lon="8.731049923226237">
<ele>238</ele>
<time>2023-05-17T10:46:42Z</time>
</trkpt>
<trkpt lat="49.07628698274493" lon="8.730976916849613">
<ele>237.79999999999995</ele>
<time>2023-05-17T10:46:43Z</time>
</trkpt>
<trkpt lat="49.076292933896184" lon="8.730899970978498">
<ele>237.79999999999995</ele>
<time>2023-05-17T10:46:44Z</time>
</trkpt>
<trkpt lat="49.07630299217999" lon="8.730821935459971">
<ele>237.60000000000002</ele>
<time>2023-05-17T10:46:45Z</time>
</trkpt>
<trkpt lat="49.076312966644764" lon="8.730739960446954">
<ele>237.39999999999998</ele>
<time>2023-05-17T10:46:46Z</time>
</trkpt>
<trkpt lat="49.0763249527663" lon="8.730657985433936">
<ele>237.20000000000005</ele>
<time>2023-05-17T10:46:47Z</time>
</trkpt>
<trkpt lat="49.07633492723107" lon="8.730574920773506">
<ele>237</ele>
<time>2023-05-17T10:46:48Z</time>
</trkpt>
<trkpt lat="49.07634699717164" lon="8.730487916618586">
<ele>236.60000000000002</ele>
<time>2023-05-17T10:46:49Z</time>
</trkpt>
<trkpt lat="49.076357977464795" lon="8.730402924120426">
<ele>236.39999999999998</ele>
<time>2023-05-17T10:46:50Z</time>
</trkpt>
<trkpt lat="49.07636795192957" lon="8.730316925793886">
<ele>236.39999999999998</ele>
<time>2023-05-17T10:46:51Z</time>
</trkpt>
<trkpt lat="49.07637792639434" lon="8.730232939124107">
<ele>236.20000000000005</ele>
<time>2023-05-17T10:46:52Z</time>
</trkpt>
<trkpt lat="49.07638999633491" lon="8.730146940797567">
<ele>236.20000000000005</ele>
<time>2023-05-17T10:46:53Z</time>
</trkpt>
<trkpt lat="49.076401982456446" lon="8.730057924985886">
<ele>236</ele>
<time>2023-05-17T10:46:54Z</time>
</trkpt>
<trkpt lat="49.0764129627496" lon="8.729967987164855">
<ele>236</ele>
<time>2023-05-17T10:46:55Z</time>
</trkpt>
<trkpt lat="49.076424948871136" lon="8.729876959696412">
<ele>235.79999999999995</ele>
<time>2023-05-17T10:46:56Z</time>
</trkpt>
<trkpt lat="49.07643995247781" lon="8.72978299856186">
<ele>235.79999999999995</ele>
<time>2023-05-17T10:46:57Z</time>
</trkpt>
<trkpt lat="49.07645495608449" lon="8.729691971093416">
<ele>235.60000000000002</ele>
<time>2023-05-17T10:46:58Z</time>
</trkpt>
<trkpt lat="49.07647197134793" lon="8.729601949453354">
<ele>235.60000000000002</ele>
<time>2023-05-17T10:46:59Z</time>
</trkpt>
<trkpt lat="49.076487980782986" lon="8.729512933641672">
<ele>235.60000000000002</ele>
<time>2023-05-17T10:47:00Z</time>
</trkpt>
<trkpt lat="49.076504996046424" lon="8.729427941143513">
<ele>235.39999999999998</ele>
<time>2023-05-17T10:47:01Z</time>
</trkpt>
<trkpt lat="49.07652494497597" lon="8.729346971958876">
<ele>235.39999999999998</ele>
<time>2023-05-17T10:47:02Z</time>
</trkpt>
<trkpt lat="49.07654497772455" lon="8.729266924783587">
<ele>235.39999999999998</ele>
<time>2023-05-17T10:47:03Z</time>
</trkpt>
<trkpt lat="49.07656794413924" lon="8.729189978912473">
<ele>235.60000000000002</ele>
<time>2023-05-17T10:47:04Z</time>
</trkpt>
<trkpt lat="49.07658998854458" lon="8.729114960879087">
<ele>235.60000000000002</ele>
<time>2023-05-17T10:47:05Z</time>
</trkpt>
<trkpt lat="49.076614966616035" lon="8.729041954502463">
<ele>235.60000000000002</ele>
<time>2023-05-17T10:47:06Z</time>
</trkpt>
<trkpt lat="49.076639944687486" lon="8.72896995395422">
<ele>235.60000000000002</ele>
<time>2023-05-17T10:47:07Z</time>
</trkpt>
<trkpt lat="49.07666299492121" lon="8.728897953405976">
<ele>235.60000000000002</ele>
<time>2023-05-17T10:47:08Z</time>
</trkpt>
<trkpt lat="49.07668696716428" lon="8.728829976171255">
<ele>235.79999999999995</ele>
<time>2023-05-17T10:47:09Z</time>
</trkpt>
<trkpt lat="49.07670792192221" lon="8.728762920945883">
<ele>235.79999999999995</ele>
<time>2023-05-17T10:47:10Z</time>
</trkpt>
<trkpt lat="49.07673197798431" lon="8.728699972853065">
<ele>235.79999999999995</ele>
<time>2023-05-17T10:47:11Z</time>
</trkpt>
<trkpt lat="49.07675293274224" lon="8.728636940941215">
<ele>236</ele>
<time>2023-05-17T10:47:12Z</time>
</trkpt>
<trkpt lat="49.07677698880434" lon="8.728569969534874">
<ele>236.20000000000005</ele>
<time>2023-05-17T10:47:13Z</time>
</trkpt>
<trkpt lat="49.07679995521903" lon="8.728501992300153">
<ele>236.20000000000005</ele>
<time>2023-05-17T10:47:14Z</time>
</trkpt>
<trkpt lat="49.07682292163372" lon="8.72843493707478">
<ele>236.39999999999998</ele>
<time>2023-05-17T10:47:15Z</time>
</trkpt>
<trkpt lat="49.07684697769582" lon="8.72836796566844">
<ele>236.60000000000002</ele>
<time>2023-05-17T10:47:16Z</time>
</trkpt>
<trkpt lat="49.07686793245375" lon="8.728296970948577">
<ele>236.79999999999995</ele>
<time>2023-05-17T10:47:17Z</time>
</trkpt>
<trkpt lat="49.07688997685909" lon="8.728227987885475">
<ele>237</ele>
<time>2023-05-17T10:47:18Z</time>
</trkpt>
<trkpt lat="49.07690799795091" lon="8.728166967630386">
<ele>237.20000000000005</ele>
<time>2023-05-17T10:47:19Z</time>
</trkpt>
<trkpt lat="49.07692995853722" lon="8.72810997068882">
<ele>237.20000000000005</ele>
<time>2023-05-17T10:47:20Z</time>
</trkpt>
<trkpt lat="49.0769499912858" lon="8.728054985404015">
<ele>237.20000000000005</ele>
<time>2023-05-17T10:47:21Z</time>
</trkpt>
<trkpt lat="49.07696792855859" lon="8.72800293378532">
<ele>237.20000000000005</ele>
<time>2023-05-17T10:47:22Z</time>
</trkpt>
<trkpt lat="49.076979998499155" lon="8.727952977642417">
<ele>237.39999999999998</ele>
<time>2023-05-17T10:47:23Z</time>
</trkpt>
<trkpt lat="49.076977986842394" lon="8.727911990135908">
<ele>237.39999999999998</ele>
<time>2023-05-17T10:47:24Z</time>
</trkpt>
<trkpt lat="49.07696499489248" lon="8.72787494212389">
<ele>237.60000000000002</ele>
<time>2023-05-17T10:47:25Z</time>
</trkpt>
<trkpt lat="49.0769449621439" lon="8.727832948789">
<ele>237.60000000000002</ele>
<time>2023-05-17T10:47:26Z</time>
</trkpt>
<trkpt lat="49.07692794688046" lon="8.727781986817718">
<ele>237.79999999999995</ele>
<time>2023-05-17T10:47:27Z</time>
</trkpt>
<trkpt lat="49.076917972415686" lon="8.72772297821939">
<ele>238</ele>
<time>2023-05-17T10:47:28Z</time>
</trkpt>
<trkpt lat="49.07691294327378" lon="8.727656928822398">
<ele>238.20000000000005</ele>
<time>2023-05-17T10:47:29Z</time>
</trkpt>
<trkpt lat="49.076914954930544" lon="8.727584928274155">
<ele>238.39999999999998</ele>
<time>2023-05-17T10:47:30Z</time>
</trkpt>
<trkpt lat="49.076914954930544" lon="8.727509994059801">
<ele>238.39999999999998</ele>
<time>2023-05-17T10:47:31Z</time>
</trkpt>
<trkpt lat="49.076914954930544" lon="8.727432964369655">
<ele>238.60000000000002</ele>
<time>2023-05-17T10:47:32Z</time>
</trkpt>
<trkpt lat="49.076914954930544" lon="8.727354928851128">
<ele>238.60000000000002</ele>
<time>2023-05-17T10:47:33Z</time>
</trkpt>
<trkpt lat="49.07691294327378" lon="8.727277982980013">
<ele>238.79999999999995</ele>
<time>2023-05-17T10:47:34Z</time>
</trkpt>
<trkpt lat="49.0769119374454" lon="8.727197935804725">
<ele>238.79999999999995</ele>
<time>2023-05-17T10:47:35Z</time>
</trkpt>
<trkpt lat="49.07690799795091" lon="8.727116966620088">
<ele>239</ele>
<time>2023-05-17T10:47:36Z</time>
</trkpt>
<trkpt lat="49.07690196298063" lon="8.72703499160707">
<ele>239</ele>
<time>2023-05-17T10:47:37Z</time>
</trkpt>
<trkpt lat="49.076894922181964" lon="8.72695293277502">
<ele>239</ele>
<time>2023-05-17T10:47:38Z</time>
</trkpt>
<trkpt lat="49.07688494771719" lon="8.726874981075525">
<ele>239.20000000000005</ele>
<time>2023-05-17T10:47:39Z</time>
</trkpt>
<trkpt lat="49.07687698490918" lon="8.726792922243476">
<ele>239.20000000000005</ele>
<time>2023-05-17T10:47:40Z</time>
</trkpt>
<trkpt lat="49.07686692662537" lon="8.726716982200742">
<ele>239.20000000000005</ele>
<time>2023-05-17T10:47:41Z</time>
</trkpt>
<trkpt lat="49.076854940503836" lon="8.726636935025454">
<ele>239.39999999999998</ele>
<time>2023-05-17T10:47:42Z</time>
</trkpt>
<trkpt lat="49.07684194855392" lon="8.726556971669197">
<ele>239.39999999999998</ele>
<time>2023-05-17T10:47:43Z</time>
</trkpt>
<trkpt lat="49.076829962432384" lon="8.72647994197905">
<ele>239.39999999999998</ele>
<time>2023-05-17T10:47:44Z</time>
</trkpt>
<trkpt lat="49.07681697048247" lon="8.726404923945665">
<ele>239.60000000000002</ele>
<time>2023-05-17T10:47:45Z</time>
</trkpt>
<trkpt lat="49.07680297270417" lon="8.72632797807455">
<ele>239.60000000000002</ele>
<time>2023-05-17T10:47:46Z</time>
</trkpt>
<trkpt lat="49.0767929982394" lon="8.726251954212785">
<ele>239.60000000000002</ele>
<time>2023-05-17T10:47:47Z</time>
</trkpt>
<trkpt lat="49.07677992247045" lon="8.7261769361794">
<ele>239.79999999999995</ele>
<time>2023-05-17T10:47:48Z</time>
</trkpt>
<trkpt lat="49.076766930520535" lon="8.726097978651524">
<ele>239.79999999999995</ele>
<time>2023-05-17T10:47:49Z</time>
</trkpt>
<trkpt lat="49.07675695605576" lon="8.726021954789758">
<ele>240</ele>
<time>2023-05-17T10:47:50Z</time>
</trkpt>
<trkpt lat="49.076744969934225" lon="8.725944925099611">
<ele>240</ele>
<time>2023-05-17T10:47:51Z</time>
</trkpt>
<trkpt lat="49.07672996632755" lon="8.725867979228497">
<ele>240</ele>
<time>2023-05-17T10:47:52Z</time>
</trkpt>
<trkpt lat="49.07671798020601" lon="8.725786926224828">
<ele>240.20000000000005</ele>
<time>2023-05-17T10:47:53Z</time>
</trkpt>
<trkpt lat="49.076702976599336" lon="8.725709980353713">
<ele>240.20000000000005</ele>
<time>2023-05-17T10:47:54Z</time>
</trkpt>
<trkpt lat="49.07669199630618" lon="8.725629933178425">
<ele>240.39999999999998</ele>
<time>2023-05-17T10:47:55Z</time>
</trkpt>
<trkpt lat="49.076681938022375" lon="8.725549969822168">
<ele>240.39999999999998</ele>
<time>2023-05-17T10:47:56Z</time>
</trkpt>
<trkpt lat="49.07666995190084" lon="8.72546992264688">
<ele>240.39999999999998</ele>
<time>2023-05-17T10:47:57Z</time>
</trkpt>
<trkpt lat="49.076657965779305" lon="8.725387947633862">
<ele>240.39999999999998</ele>
<time>2023-05-17T10:47:58Z</time>
</trkpt>
<trkpt lat="49.07664698548615" lon="8.725306978449225">
<ele>240.39999999999998</ele>
<time>2023-05-17T10:47:59Z</time>
</trkpt>
<trkpt lat="49.07663298770785" lon="8.725222991779447">
<ele>240.60000000000002</ele>
<time>2023-05-17T10:48:00Z</time>
</trkpt>
<trkpt lat="49.07661999575794" lon="8.725141938775778">
<ele>240.60000000000002</ele>
<time>2023-05-17T10:48:01Z</time>
</trkpt>
<trkpt lat="49.07660691998899" lon="8.725054934620857">
<ele>240.60000000000002</ele>
<time>2023-05-17T10:48:02Z</time>
</trkpt>
<trkpt lat="49.07659292221069" lon="8.724966924637556">
<ele>240.60000000000002</ele>
<time>2023-05-17T10:48:03Z</time>
</trkpt>
<trkpt lat="49.07658194191754" lon="8.724879920482635">
<ele>240.60000000000002</ele>
<time>2023-05-17T10:48:04Z</time>
</trkpt>
<trkpt lat="49.076571967452765" lon="8.724789982661605">
<ele>240.60000000000002</ele>
<time>2023-05-17T10:48:05Z</time>
</trkpt>
<trkpt lat="49.07655796967447" lon="8.724702978506684">
<ele>240.60000000000002</ele>
<time>2023-05-17T10:48:06Z</time>
</trkpt>
<trkpt lat="49.07654497772455" lon="8.724614968523383">
<ele>240.60000000000002</ele>
<time>2023-05-17T10:48:07Z</time>
</trkpt>
<trkpt lat="49.07653299160302" lon="8.72452293522656">
<ele>240.60000000000002</ele>
<time>2023-05-17T10:48:08Z</time>
</trkpt>
<trkpt lat="49.07651798799634" lon="8.724431991577148">
<ele>240.60000000000002</ele>
<time>2023-05-17T10:48:09Z</time>
</trkpt>
<trkpt lat="49.07650197856128" lon="8.724337946623564">
<ele>240.60000000000002</ele>
<time>2023-05-17T10:48:10Z</time>
</trkpt>
<trkpt lat="49.076484963297844" lon="8.72424197383225">
<ele>240.39999999999998</ele>
<time>2023-05-17T10:48:11Z</time>
</trkpt>
<trkpt lat="49.07646995969117" lon="8.724146923050284">
<ele>240.39999999999998</ele>
<time>2023-05-17T10:48:12Z</time>
</trkpt>
<trkpt lat="49.07645495608449" lon="8.72404994443059">
<ele>240.39999999999998</ele>
<time>2023-05-17T10:48:13Z</time>
</trkpt>
<trkpt lat="49.07643693499267" lon="8.723952965810895">
<ele>240.20000000000005</ele>
<time>2023-05-17T10:48:14Z</time>
</trkpt>
<trkpt lat="49.07641497440636" lon="8.723857998847961">
<ele>240.20000000000005</ele>
<time>2023-05-17T10:48:15Z</time>
</trkpt>
<trkpt lat="49.07639293000102" lon="8.723762948065996">
<ele>240</ele>
<time>2023-05-17T10:48:16Z</time>
</trkpt>
<trkpt lat="49.07637197524309" lon="8.72366496361792">
<ele>239.79999999999995</ele>
<time>2023-05-17T10:48:17Z</time>
</trkpt>
<trkpt lat="49.07634297385812" lon="8.723567984998226">
<ele>239.60000000000002</ele>
<time>2023-05-17T10:48:18Z</time>
</trkpt>
<trkpt lat="49.076312966644764" lon="8.72346991673112">
<ele>239.39999999999998</ele>
<time>2023-05-17T10:48:19Z</time>
</trkpt>
<trkpt lat="49.07628497108817" lon="8.723371932283044">
<ele>239.20000000000005</ele>
<time>2023-05-17T10:48:20Z</time>
</trkpt>
<trkpt lat="49.07625697553158" lon="8.723271936178207">
<ele>239</ele>
<time>2023-05-17T10:48:21Z</time>
</trkpt>
<trkpt lat="49.07622495666146" lon="8.723167916759849">
<ele>238.60000000000002</ele>
<time>2023-05-17T10:48:22Z</time>
</trkpt>
<trkpt lat="49.07619494944811" lon="8.723066998645663">
<ele>238.39999999999998</ele>
<time>2023-05-17T10:48:23Z</time>
</trkpt>
<trkpt lat="49.076164942234755" lon="8.722964990884066">
<ele>238.20000000000005</ele>
<time>2023-05-17T10:48:24Z</time>
</trkpt>
<trkpt lat="49.07613795250654" lon="8.722861977294087">
<ele>238</ele>
<time>2023-05-17T10:48:25Z</time>
</trkpt>
<trkpt lat="49.07611699774861" lon="8.722756952047348">
<ele>237.79999999999995</ele>
<time>2023-05-17T10:48:26Z</time>
</trkpt>
<trkpt lat="49.076097970828414" lon="8.722651926800609">
<ele>237.39999999999998</ele>
<time>2023-05-17T10:48:27Z</time>
</trkpt>
<trkpt lat="49.076077938079834" lon="8.72254497371614">
<ele>237.20000000000005</ele>
<time>2023-05-17T10:48:28Z</time>
</trkpt>
<trkpt lat="49.076061928644776" lon="8.722444977611303">
<ele>237</ele>
<time>2023-05-17T10:48:29Z</time>
</trkpt>
<trkpt lat="49.076054971665144" lon="8.722349926829338">
<ele>236.79999999999995</ele>
<time>2023-05-17T10:48:30Z</time>
</trkpt>
<trkpt lat="49.07604793086648" lon="8.722259989008307">
<ele>236.60000000000002</ele>
<time>2023-05-17T10:48:31Z</time>
</trkpt>
<trkpt lat="49.07604298554361" lon="8.722176924347878">
<ele>236.39999999999998</ele>
<time>2023-05-17T10:48:32Z</time>
</trkpt>
<trkpt lat="49.0760469250381" lon="8.722096960991621">
<ele>236.20000000000005</ele>
<time>2023-05-17T10:48:33Z</time>
</trkpt>
<trkpt lat="49.07605296000838" lon="8.722017919644713">
<ele>236</ele>
<time>2023-05-17T10:48:34Z</time>
</trkpt>
<trkpt lat="49.076061928644776" lon="8.721939967945218">
<ele>235.79999999999995</ele>
<time>2023-05-17T10:48:35Z</time>
</trkpt>
<trkpt lat="49.07606494612992" lon="8.721862938255072">
<ele>235.79999999999995</ele>
<time>2023-05-17T10:48:36Z</time>
</trkpt>
<trkpt lat="49.076061928644776" lon="8.721781969070435">
<ele>235.60000000000002</ele>
<time>2023-05-17T10:48:37Z</time>
</trkpt>
<trkpt lat="49.076054971665144" lon="8.721696976572275">
<ele>235.39999999999998</ele>
<time>2023-05-17T10:48:38Z</time>
</trkpt>
<trkpt lat="49.0760469250381" lon="8.721606954932213">
<ele>235.39999999999998</ele>
<time>2023-05-17T10:48:39Z</time>
</trkpt>
<trkpt lat="49.07603996805847" lon="8.72151693329215">
<ele>235.20000000000005</ele>
<time>2023-05-17T10:48:40Z</time>
</trkpt>
<trkpt lat="49.07602999359369" lon="8.721424983814359">
<ele>235.20000000000005</ele>
<time>2023-05-17T10:48:41Z</time>
</trkpt>
<trkpt lat="49.076016917824745" lon="8.721334962174296">
<ele>235.20000000000005</ele>
<time>2023-05-17T10:48:42Z</time>
</trkpt>
<trkpt lat="49.0760019980371" lon="8.721241923049092">
<ele>235.20000000000005</ele>
<time>2023-05-17T10:48:43Z</time>
</trkpt>
<trkpt lat="49.07598699443042" lon="8.721146956086159">
<ele>235</ele>
<time>2023-05-17T10:48:44Z</time>
</trkpt>
<trkpt lat="49.075972996652126" lon="8.721051989123225">
<ele>235</ele>
<time>2023-05-17T10:48:45Z</time>
</trkpt>
<trkpt lat="49.07595992088318" lon="8.720954926684499">
<ele>234.79999999999995</ele>
<time>2023-05-17T10:48:46Z</time>
</trkpt>
<trkpt lat="49.0759449172765" lon="8.720856942236423">
<ele>234.79999999999995</ele>
<time>2023-05-17T10:48:47Z</time>
</trkpt>
<trkpt lat="49.075926980003715" lon="8.720759963616729">
<ele>234.60000000000002</ele>
<time>2023-05-17T10:48:48Z</time>
</trkpt>
<trkpt lat="49.075906947255135" lon="8.720666924491525">
<ele>234.60000000000002</ele>
<time>2023-05-17T10:48:49Z</time>
</trkpt>
<trkpt lat="49.075884986668825" lon="8.720572963356972">
<ele>234.39999999999998</ele>
<time>2023-05-17T10:48:50Z</time>
</trkpt>
<trkpt lat="49.075862942263484" lon="8.72048294171691">
<ele>234.20000000000005</ele>
<time>2023-05-17T10:48:51Z</time>
</trkpt>
<trkpt lat="49.07583796419203" lon="8.720391998067498">
<ele>234</ele>
<time>2023-05-17T10:48:52Z</time>
</trkpt>
<trkpt lat="49.07581298612058" lon="8.720294935628772">
<ele>234</ele>
<time>2023-05-17T10:48:53Z</time>
</trkpt>
<trkpt lat="49.07578691840172" lon="8.72020298615098">
<ele>233.79999999999995</ele>
<time>2023-05-17T10:48:54Z</time>
</trkpt>
<trkpt lat="49.075757917016745" lon="8.720111958682537">
<ele>233.60000000000002</ele>
<time>2023-05-17T10:48:55Z</time>
</trkpt>
<trkpt lat="49.07573193311691" lon="8.720017997547984">
<ele>233.60000000000002</ele>
<time>2023-05-17T10:48:56Z</time>
</trkpt>
<trkpt lat="49.07570192590356" lon="8.71992495842278">
<ele>233.39999999999998</ele>
<time>2023-05-17T10:48:57Z</time>
</trkpt>
<trkpt lat="49.075671918690205" lon="8.719834936782718">
<ele>233.39999999999998</ele>
<time>2023-05-17T10:48:58Z</time>
</trkpt>
<trkpt lat="49.07563998363912" lon="8.719737958163023">
<ele>233.20000000000005</ele>
<time>2023-05-17T10:48:59Z</time>
</trkpt>
<trkpt lat="49.07560997642577" lon="8.719644919037819">
<ele>233</ele>
<time>2023-05-17T10:49:00Z</time>
</trkpt>
<trkpt lat="49.07557996921241" lon="8.719549952074885">
<ele>232.79999999999995</ele>
<time>2023-05-17T10:49:01Z</time>
</trkpt>
<trkpt lat="49.0755529794842" lon="8.71945196762681">
<ele>232.60000000000002</ele>
<time>2023-05-17T10:49:02Z</time>
</trkpt>
<trkpt lat="49.07552498392761" lon="8.719352977350354">
<ele>232.20000000000005</ele>
<time>2023-05-17T10:49:03Z</time>
</trkpt>
<trkpt lat="49.07549497671425" lon="8.71925993822515">
<ele>232</ele>
<time>2023-05-17T10:49:04Z</time>
</trkpt>
<trkpt lat="49.0754649695009" lon="8.719161953777075">
<ele>231.79999999999995</ele>
<time>2023-05-17T10:49:05Z</time>
</trkpt>
<trkpt lat="49.075434962287545" lon="8.71906497515738">
<ele>231.60000000000002</ele>
<time>2023-05-17T10:49:06Z</time>
</trkpt>
<trkpt lat="49.07540495507419" lon="8.718962967395782">
<ele>231.20000000000005</ele>
<time>2023-05-17T10:49:07Z</time>
</trkpt>
<trkpt lat="49.075371930375695" lon="8.718859953805804">
<ele>231</ele>
<time>2023-05-17T10:49:08Z</time>
</trkpt>
<trkpt lat="49.07533798366785" lon="8.718754928559065">
<ele>230.79999999999995</ele>
<time>2023-05-17T10:49:09Z</time>
</trkpt>
<trkpt lat="49.075304958969355" lon="8.718651998788118">
<ele>230.60000000000002</ele>
<time>2023-05-17T10:49:10Z</time>
</trkpt>
<trkpt lat="49.07527294009924" lon="8.718542950227857">
<ele>230.20000000000005</ele>
<time>2023-05-17T10:49:11Z</time>
</trkpt>
<trkpt lat="49.075241927057505" lon="8.718437924981117">
<ele>230</ele>
<time>2023-05-17T10:49:12Z</time>
</trkpt>
<trkpt lat="49.07520999200642" lon="8.718331977725029">
<ele>229.60000000000002</ele>
<time>2023-05-17T10:49:13Z</time>
</trkpt>
<trkpt lat="49.07517998479307" lon="8.718221923336387">
<ele>229.20000000000005</ele>
<time>2023-05-17T10:49:14Z</time>
</trkpt>
<trkpt lat="49.07514696009457" lon="8.718107929453254">
<ele>229</ele>
<time>2023-05-17T10:49:15Z</time>
</trkpt>
<trkpt lat="49.075109995901585" lon="8.717997958883643">
<ele>228.60000000000002</ele>
<time>2023-05-17T10:49:16Z</time>
</trkpt>
<trkpt lat="49.07507495954633" lon="8.717886982485652">
<ele>228.20000000000005</ele>
<time>2023-05-17T10:49:17Z</time>
</trkpt>
<trkpt lat="49.07503992319107" lon="8.717772988602519">
<ele>227.79999999999995</ele>
<time>2023-05-17T10:49:18Z</time>
</trkpt>
<trkpt lat="49.0750019531697" lon="8.717661928385496">
<ele>227.60000000000002</ele>
<time>2023-05-17T10:49:19Z</time>
</trkpt>
<trkpt lat="49.07496691681445" lon="8.717552963644266">
<ele>227.20000000000005</ele>
<time>2023-05-17T10:49:20Z</time>
</trkpt>
<trkpt lat="49.07493196427822" lon="8.717436958104372">
<ele>226.79999999999995</ele>
<time>2023-05-17T10:49:21Z</time>
</trkpt>
<trkpt lat="49.074897933751345" lon="8.717319946736097">
<ele>226.39999999999998</ele>
<time>2023-05-17T10:49:22Z</time>
</trkpt>
<trkpt lat="49.07486298121512" lon="8.717202935367823">
<ele>226</ele>
<time>2023-05-17T10:49:23Z</time>
</trkpt>
<trkpt lat="49.07482299953699" lon="8.717082990333438">
<ele>225.60000000000002</ele>
<time>2023-05-17T10:49:24Z</time>
</trkpt>
<trkpt lat="49.07478494569659" lon="8.716957932338119">
<ele>225.20000000000005</ele>
<time>2023-05-17T10:49:25Z</time>
</trkpt>
<trkpt lat="49.074744964018464" lon="8.716834969818592">
<ele>224.79999999999995</ele>
<time>2023-05-17T10:49:26Z</time>
</trkpt>
<trkpt lat="49.074701964855194" lon="8.716712929308414">
<ele>224.39999999999998</ele>
<time>2023-05-17T10:49:27Z</time>
</trkpt>
<trkpt lat="49.074661983177066" lon="8.71659197844565">
<ele>223.79999999999995</ele>
<time>2023-05-17T10:49:28Z</time>
</trkpt>
<trkpt lat="49.07462292350829" lon="8.716472955420613">
<ele>223.39999999999998</ele>
<time>2023-05-17T10:49:29Z</time>
</trkpt>
<trkpt lat="49.07458696514368" lon="8.716361979022622">
<ele>222.79999999999995</ele>
<time>2023-05-17T10:49:30Z</time>
</trkpt>
<trkpt lat="49.07455192878842" lon="8.716254942119122">
<ele>222.20000000000005</ele>
<time>2023-05-17T10:49:31Z</time>
</trkpt>
<trkpt lat="49.074511947110295" lon="8.716144971549511">
<ele>221.79999999999995</ele>
<time>2023-05-17T10:49:32Z</time>
</trkpt>
<trkpt lat="49.07447297126055" lon="8.716026954352856">
<ele>221.20000000000005</ele>
<time>2023-05-17T10:49:33Z</time>
</trkpt>
<trkpt lat="49.07443491742015" lon="8.715912960469723">
<ele>220.60000000000002</ele>
<time>2023-05-17T10:49:34Z</time>
</trkpt>
<trkpt lat="49.07439795322716" lon="8.71579997241497">
<ele>220.20000000000005</ele>
<time>2023-05-17T10:49:35Z</time>
</trkpt>
<trkpt lat="49.074359983205795" lon="8.715682961046696">
<ele>219.60000000000002</ele>
<time>2023-05-17T10:49:36Z</time>
</trkpt>
<trkpt lat="49.0743219293654" lon="8.715569972991943">
<ele>219.20000000000005</ele>
<time>2023-05-17T10:49:37Z</time>
</trkpt>
<trkpt lat="49.07428496517241" lon="8.715456984937191">
<ele>218.79999999999995</ele>
<time>2023-05-17T10:49:38Z</time>
</trkpt>
<trkpt lat="49.07424992881715" lon="8.715346930548549">
<ele>218.20000000000005</ele>
<time>2023-05-17T10:49:39Z</time>
</trkpt>
<trkpt lat="49.07421497628093" lon="8.715234948322177">
<ele>217.60000000000002</ele>
<time>2023-05-17T10:49:40Z</time>
</trkpt>
<trkpt lat="49.07417993992567" lon="8.715124977752566">
<ele>217.20000000000005</ele>
<time>2023-05-17T10:49:41Z</time>
</trkpt>
<trkpt lat="49.074142975732684" lon="8.715016935020685">
<ele>216.60000000000002</ele>
<time>2023-05-17T10:49:42Z</time>
</trkpt>
<trkpt lat="49.074104921892285" lon="8.714902941137552">
<ele>216</ele>
<time>2023-05-17T10:49:43Z</time>
</trkpt>
<trkpt lat="49.07406494021416" lon="8.714792970567942">
<ele>215.39999999999998</ele>
<time>2023-05-17T10:49:44Z</time>
</trkpt>
<trkpt lat="49.07402495853603" lon="8.714686939492822">
<ele>214.79999999999995</ele>
<time>2023-05-17T10:49:45Z</time>
</trkpt>
<trkpt lat="49.0739849768579" lon="8.714572945609689">
<ele>214.20000000000005</ele>
<time>2023-05-17T10:49:46Z</time>
</trkpt>
<trkpt lat="49.07394499517977" lon="8.714452916756272">
<ele>213.60000000000002</ele>
<time>2023-05-17T10:49:47Z</time>
</trkpt>
<trkpt lat="49.07389797270298" lon="8.714307993650436">
<ele>213</ele>
<time>2023-05-17T10:49:48Z</time>
</trkpt>
<trkpt lat="49.07385296188295" lon="8.714184947311878">
<ele>212.20000000000005</ele>
<time>2023-05-17T10:49:49Z</time>
</trkpt>
<trkpt lat="49.073801999911666" lon="8.714067935943604">
<ele>211.60000000000002</ele>
<time>2023-05-17T10:49:50Z</time>
</trkpt>
<trkpt lat="49.07376294024289" lon="8.713949918746948">
<ele>211</ele>
<time>2023-05-17T10:49:51Z</time>
</trkpt>
<trkpt lat="49.07372195273638" lon="8.713829973712564">
<ele>210.60000000000002</ele>
<time>2023-05-17T10:49:52Z</time>
</trkpt>
<trkpt lat="49.07367694191635" lon="8.71371497400105">
<ele>210</ele>
<time>2023-05-17T10:49:53Z</time>
</trkpt>
<trkpt lat="49.073626985773444" lon="8.713604919612408">
<ele>209.39999999999998</ele>
<time>2023-05-17T10:49:54Z</time>
</trkpt>
<trkpt lat="49.07357493415475" lon="8.713492937386036">
<ele>208.79999999999995</ele>
<time>2023-05-17T10:49:55Z</time>
</trkpt>
<trkpt lat="49.07351793721318" lon="8.713389923796058">
<ele>208.20000000000005</ele>
<time>2023-05-17T10:49:56Z</time>
</trkpt>
<trkpt lat="49.073457922786474" lon="8.713296968489885">
<ele>207.60000000000002</ele>
<time>2023-05-17T10:49:57Z</time>
</trkpt>
<trkpt lat="49.0733979921788" lon="8.713211975991726">
<ele>207</ele>
<time>2023-05-17T10:49:58Z</time>
</trkpt>
<trkpt lat="49.07333294861019" lon="8.713129917159677">
<ele>206.39999999999998</ele>
<time>2023-05-17T10:49:59Z</time>
</trkpt>
<trkpt lat="49.07326991669834" lon="8.71304995380342">
<ele>205.79999999999995</ele>
<time>2023-05-17T10:50:00Z</time>
</trkpt>
<trkpt lat="49.073202945291996" lon="8.712977953255177">
<ele>205.39999999999998</ele>
<time>2023-05-17T10:50:01Z</time>
</trkpt>
<trkpt lat="49.073136979714036" lon="8.712907964363694">
<ele>204.79999999999995</ele>
<time>2023-05-17T10:50:02Z</time>
</trkpt>
<trkpt lat="49.073067996650934" lon="8.712837975472212">
<ele>204.39999999999998</ele>
<time>2023-05-17T10:50:03Z</time>
</trkpt>
<trkpt lat="49.07299792394042" lon="8.71276798658073">
<ele>204</ele>
<time>2023-05-17T10:50:04Z</time>
</trkpt>
<trkpt lat="49.0729299467057" lon="8.712691962718964">
<ele>203.60000000000002</ele>
<time>2023-05-17T10:50:05Z</time>
</trkpt>
<trkpt lat="49.07286498695612" lon="8.712624991312623">
<ele>203.20000000000005</ele>
<time>2023-05-17T10:50:06Z</time>
</trkpt>
<trkpt lat="49.07279994338751" lon="8.712566988542676">
<ele>203</ele>
<time>2023-05-17T10:50:07Z</time>
</trkpt>
<trkpt lat="49.07273791730404" lon="8.712499933317304">
<ele>202.79999999999995</ele>
<time>2023-05-17T10:50:08Z</time>
</trkpt>
<trkpt lat="49.07269299030304" lon="8.712422987446189">
<ele>202.39999999999998</ele>
<time>2023-05-17T10:50:09Z</time>
</trkpt>
<trkpt lat="49.07266499474645" lon="8.71233799494803">
<ele>202.20000000000005</ele>
<time>2023-05-17T10:50:10Z</time>
</trkpt>
<trkpt lat="49.07265795394778" lon="8.712234981358051">
<ele>201.79999999999995</ele>
<time>2023-05-17T10:50:11Z</time>
</trkpt>
<trkpt lat="49.07267698086798" lon="8.712129956111312">
<ele>201.60000000000002</ele>
<time>2023-05-17T10:50:12Z</time>
</trkpt>
<trkpt lat="49.07270799390972" lon="8.712037922814488">
<ele>201.39999999999998</ele>
<time>2023-05-17T10:50:13Z</time>
</trkpt>
<trkpt lat="49.07275694422424" lon="8.711942955851555">
<ele>201.20000000000005</ele>
<time>2023-05-17T10:50:14Z</time>
</trkpt>
<trkpt lat="49.07280296087265" lon="8.711852934211493">
<ele>200.79999999999995</ele>
<time>2023-05-17T10:50:15Z</time>
</trkpt>
<trkpt lat="49.07284998334944" lon="8.711776994168758">
<ele>200.79999999999995</ele>
<time>2023-05-17T10:50:16Z</time>
</trkpt>
<trkpt lat="49.072897927835584" lon="8.711702981963754">
<ele>200.60000000000002</ele>
<time>2023-05-17T10:50:17Z</time>
</trkpt>
<trkpt lat="49.07294696196914" lon="8.711636932566762">
<ele>200.39999999999998</ele>
<time>2023-05-17T10:50:18Z</time>
</trkpt>
<trkpt lat="49.07299792394042" lon="8.711574990302324">
<ele>200.39999999999998</ele>
<time>2023-05-17T10:50:19Z</time>
</trkpt>
<trkpt lat="49.073047963902354" lon="8.711516987532377">
<ele>200.20000000000005</ele>
<time>2023-05-17T10:50:20Z</time>
</trkpt>
<trkpt lat="49.07309993170202" lon="8.71145999059081">
<ele>200</ele>
<time>2023-05-17T10:50:21Z</time>
</trkpt>
<trkpt lat="49.07315491698682" lon="8.711402993649244">
<ele>199.79999999999995</ele>
<time>2023-05-17T10:50:22Z</time>
</trkpt>
<trkpt lat="49.073202945291996" lon="8.711346918717027">
<ele>199.60000000000002</ele>
<time>2023-05-17T10:50:23Z</time>
</trkpt>
<trkpt lat="49.07324795611203" lon="8.711297968402505">
<ele>199.39999999999998</ele>
<time>2023-05-17T10:50:24Z</time>
</trkpt>
<trkpt lat="49.073284920305014" lon="8.711249940097332">
<ele>199.20000000000005</ele>
<time>2023-05-17T10:50:25Z</time>
</trkpt>
<trkpt lat="49.0733099821955" lon="8.711191937327385">
<ele>199</ele>
<time>2023-05-17T10:50:26Z</time>
</trkpt>
<trkpt lat="49.07331693917513" lon="8.711129995062947">
<ele>198.79999999999995</ele>
<time>2023-05-17T10:50:27Z</time>
</trkpt>
<trkpt lat="49.07331199385226" lon="8.71107299812138">
<ele>198.79999999999995</ele>
<time>2023-05-17T10:50:28Z</time>
</trkpt>
<trkpt lat="49.07329196110368" lon="8.711022958159447">
<ele>198.79999999999995</ele>
<time>2023-05-17T10:50:29Z</time>
</trkpt>
<trkpt lat="49.073261953890324" lon="8.710981970652938">
<ele>198.79999999999995</ele>
<time>2023-05-17T10:50:30Z</time>
</trkpt>
<trkpt lat="49.07322792336345" lon="8.71094299480319">
<ele>199</ele>
<time>2023-05-17T10:50:31Z</time>
</trkpt>
<trkpt lat="49.073199927806854" lon="8.71090292930603">
<ele>199</ele>
<time>2023-05-17T10:50:32Z</time>
</trkpt>
<trkpt lat="49.073176961392164" lon="8.710862947627902">
<ele>199.20000000000005</ele>
<time>2023-05-17T10:50:33Z</time>
</trkpt>
<trkpt lat="49.073152989149094" lon="8.710827995091677">
<ele>199.20000000000005</ele>
<time>2023-05-17T10:50:34Z</time>
</trkpt>
<trkpt lat="49.07312993891537" lon="8.71079295873642">
<ele>199.39999999999998</ele>
<time>2023-05-17T10:50:35Z</time>
</trkpt>
<trkpt lat="49.07310797832906" lon="8.71074995957315">
<ele>199.39999999999998</ele>
<time>2023-05-17T10:50:36Z</time>
</trkpt>
<trkpt lat="49.07308794558048" lon="8.71070696040988">
<ele>199.60000000000002</ele>
<time>2023-05-17T10:50:37Z</time>
</trkpt>
<trkpt lat="49.07307495363057" lon="8.710659937933087">
<ele>199.60000000000002</ele>
<time>2023-05-17T10:50:38Z</time>
</trkpt>
<trkpt lat="49.07305492088199" lon="8.710616938769817">
<ele>199.79999999999995</ele>
<time>2023-05-17T10:50:39Z</time>
</trkpt>
<trkpt lat="49.0730319544673" lon="8.71057997457683">
<ele>199.79999999999995</ele>
<time>2023-05-17T10:50:40Z</time>
</trkpt>
<trkpt lat="49.07301493920386" lon="8.710544938221574">
<ele>200</ele>
<time>2023-05-17T10:50:41Z</time>
</trkpt>
<trkpt lat="49.07299691811204" lon="8.710502944886684">
<ele>200.20000000000005</ele>
<time>2023-05-17T10:50:42Z</time>
</trkpt>
<trkpt lat="49.07297797501087" lon="8.710462963208556">
<ele>200.39999999999998</ele>
<time>2023-05-17T10:50:43Z</time>
</trkpt>
<trkpt lat="49.072961965575814" lon="8.710416946560144">
<ele>200.60000000000002</ele>
<time>2023-05-17T10:50:44Z</time>
</trkpt>
<trkpt lat="49.072944950312376" lon="8.710367996245623">
<ele>200.79999999999995</ele>
<time>2023-05-17T10:50:45Z</time>
</trkpt>
<trkpt lat="49.0729299467057" lon="8.71031996794045">
<ele>201</ele>
<time>2023-05-17T10:50:46Z</time>
</trkpt>
<trkpt lat="49.072921983897686" lon="8.710282919928432">
<ele>201.20000000000005</ele>
<time>2023-05-17T10:50:47Z</time>
</trkpt>
<trkpt lat="49.07291192561388" lon="8.710241932421923">
<ele>201.60000000000002</ele>
<time>2023-05-17T10:50:48Z</time>
</trkpt>
<trkpt lat="49.07288694754243" lon="8.710206979885697">
<ele>201.79999999999995</ele>
<time>2023-05-17T10:50:49Z</time>
</trkpt>
<trkpt lat="49.072874961420894" lon="8.710164986550808">
<ele>202</ele>
<time>2023-05-17T10:50:50Z</time>
</trkpt>
<trkpt lat="49.07285995781422" lon="8.710124921053648">
<ele>202.20000000000005</ele>
<time>2023-05-17T10:50:51Z</time>
</trkpt>
<trkpt lat="49.0728419367224" lon="8.710074964910746">
<ele>202.39999999999998</ele>
<time>2023-05-17T10:50:52Z</time>
</trkpt>
<trkpt lat="49.07282299362123" lon="8.710031965747476">
<ele>202.79999999999995</ele>
<time>2023-05-17T10:50:53Z</time>
</trkpt>
<trkpt lat="49.07280497252941" lon="8.709982931613922">
<ele>203</ele>
<time>2023-05-17T10:50:54Z</time>
</trkpt>
<trkpt lat="49.07278695143759" lon="8.709937920793891">
<ele>203.20000000000005</ele>
<time>2023-05-17T10:50:55Z</time>
</trkpt>
<trkpt lat="49.07276691868901" lon="8.709891987964511">
<ele>203.39999999999998</ele>
<time>2023-05-17T10:50:56Z</time>
</trkpt>
<trkpt lat="49.07275199890137" lon="8.709842953830957">
<ele>203.60000000000002</ele>
<time>2023-05-17T10:50:57Z</time>
</trkpt>
<trkpt lat="49.07273498363793" lon="8.709796937182546">
<ele>203.79999999999995</ele>
<time>2023-05-17T10:50:58Z</time>
</trkpt>
<trkpt lat="49.07271696254611" lon="8.709754943847656">
<ele>204</ele>
<time>2023-05-17T10:50:59Z</time>
</trkpt>
<trkpt lat="49.07269793562591" lon="8.709707921370864">
<ele>204.20000000000005</ele>
<time>2023-05-17T10:51:00Z</time>
</trkpt>
<trkpt lat="49.07268192619085" lon="8.709659976884723">
<ele>204.39999999999998</ele>
<time>2023-05-17T10:51:01Z</time>
</trkpt>
<trkpt lat="49.072661977261305" lon="8.70961295440793">
<ele>204.60000000000002</ele>
<time>2023-05-17T10:51:02Z</time>
</trkpt>
<trkpt lat="49.072641944512725" lon="8.7095679435879">
<ele>204.79999999999995</ele>
<time>2023-05-17T10:51:03Z</time>
</trkpt>
<trkpt lat="49.072622917592525" lon="8.709521926939487">
<ele>205</ele>
<time>2023-05-17T10:51:04Z</time>
</trkpt>
<trkpt lat="49.0726069919765" lon="8.709469959139824">
<ele>205.20000000000005</ele>
<time>2023-05-17T10:51:05Z</time>
</trkpt>
<trkpt lat="49.0725879650563" lon="8.709412962198257">
<ele>205.20000000000005</ele>
<time>2023-05-17T10:51:06Z</time>
</trkpt>
<trkpt lat="49.07256994396448" lon="8.709356971085072">
<ele>205.39999999999998</ele>
<time>2023-05-17T10:51:07Z</time>
</trkpt>
<trkpt lat="49.07255192287266" lon="8.709299974143505">
<ele>205.39999999999998</ele>
<time>2023-05-17T10:51:08Z</time>
</trkpt>
<trkpt lat="49.072531973943114" lon="8.709242977201939">
<ele>205.39999999999998</ele>
<time>2023-05-17T10:51:09Z</time>
</trkpt>
<trkpt lat="49.072512947022915" lon="8.709184974431992">
<ele>205.60000000000002</ele>
<time>2023-05-17T10:51:10Z</time>
</trkpt>
<trkpt lat="49.072494925931096" lon="8.709124960005283">
<ele>205.60000000000002</ele>
<time>2023-05-17T10:51:11Z</time>
</trkpt>
<trkpt lat="49.07247497700155" lon="8.709064945578575">
<ele>205.39999999999998</ele>
<time>2023-05-17T10:51:12Z</time>
</trkpt>
<trkpt lat="49.07245695590973" lon="8.708999985828996">
<ele>205.39999999999998</ele>
<time>2023-05-17T10:51:13Z</time>
</trkpt>
<trkpt lat="49.07244195230305" lon="8.708931924775243">
<ele>205.39999999999998</ele>
<time>2023-05-17T10:51:14Z</time>
</trkpt>
<trkpt lat="49.072426948696375" lon="8.708866965025663">
<ele>205.39999999999998</ele>
<time>2023-05-17T10:51:15Z</time>
</trkpt>
<trkpt lat="49.0724119450897" lon="8.708799993619323">
<ele>205.39999999999998</ele>
<time>2023-05-17T10:51:16Z</time>
</trkpt>
<trkpt lat="49.07239492982626" lon="8.70873293839395">
<ele>205.39999999999998</ele>
<time>2023-05-17T10:51:17Z</time>
</trkpt>
<trkpt lat="49.072382943704724" lon="8.708669990301132">
<ele>205.39999999999998</ele>
<time>2023-05-17T10:51:18Z</time>
</trkpt>
<trkpt lat="49.07237296923995" lon="8.708607964217663">
<ele>205.39999999999998</ele>
<time>2023-05-17T10:51:19Z</time>
</trkpt>
<trkpt lat="49.07236693426967" lon="8.708542920649052">
<ele>205.20000000000005</ele>
<time>2023-05-17T10:51:20Z</time>
</trkpt>
<trkpt lat="49.072361988946795" lon="8.708479972556233">
<ele>205.20000000000005</ele>
<time>2023-05-17T10:51:21Z</time>
</trkpt>
<trkpt lat="49.072359977290034" lon="8.708416940644383">
<ele>205.20000000000005</ele>
<time>2023-05-17T10:51:22Z</time>
</trkpt>
<trkpt lat="49.072362994775176" lon="8.708357932046056">
<ele>205.20000000000005</ele>
<time>2023-05-17T10:51:23Z</time>
</trkpt>
<trkpt lat="49.07236794009805" lon="8.708299929276109">
<ele>205.20000000000005</ele>
<time>2023-05-17T10:51:24Z</time>
</trkpt>
<trkpt lat="49.07237799838185" lon="8.70823698118329">
<ele>205.20000000000005</ele>
<time>2023-05-17T10:51:25Z</time>
</trkpt>
<trkpt lat="49.07239199616015" lon="8.708167998120189">
<ele>205.20000000000005</ele>
<time>2023-05-17T10:51:26Z</time>
</trkpt>
<trkpt lat="49.072402976453304" lon="8.70810798369348">
<ele>205.20000000000005</ele>
<time>2023-05-17T10:51:27Z</time>
</trkpt>
<trkpt lat="49.0724169742316" lon="8.70804294012487">
<ele>205.20000000000005</ele>
<time>2023-05-17T10:51:28Z</time>
</trkpt>
<trkpt lat="49.07242996618152" lon="8.707979992032051">
<ele>205.20000000000005</ele>
<time>2023-05-17T10:51:29Z</time>
</trkpt>
<trkpt lat="49.072446981444955" lon="8.707911930978298">
<ele>205.39999999999998</ele>
<time>2023-05-17T10:51:30Z</time>
</trkpt>
<trkpt lat="49.07245997339487" lon="8.707846971228719">
<ele>205.39999999999998</ele>
<time>2023-05-17T10:51:31Z</time>
</trkpt>
<trkpt lat="49.072467936202884" lon="8.707776982337236">
<ele>205.39999999999998</ele>
<time>2023-05-17T10:51:32Z</time>
</trkpt>
<trkpt lat="49.07247296534479" lon="8.707709927111864">
<ele>205.39999999999998</ele>
<time>2023-05-17T10:51:33Z</time>
</trkpt>
<trkpt lat="49.07247296534479" lon="8.707642955705523">
<ele>205.39999999999998</ele>
<time>2023-05-17T10:51:34Z</time>
</trkpt>
<trkpt lat="49.072467936202884" lon="8.707576990127563">
<ele>205.60000000000002</ele>
<time>2023-05-17T10:51:35Z</time>
</trkpt>
<trkpt lat="49.07245997339487" lon="8.707514964044094">
<ele>205.60000000000002</ele>
<time>2023-05-17T10:51:36Z</time>
</trkpt>
<trkpt lat="49.0724499989301" lon="8.707449920475483">
<ele>205.60000000000002</ele>
<time>2023-05-17T10:51:37Z</time>
</trkpt>
<trkpt lat="49.07243994064629" lon="8.70737791992724">
<ele>205.79999999999995</ele>
<time>2023-05-17T10:51:38Z</time>
</trkpt>
<trkpt lat="49.07242996618152" lon="8.707307931035757">
<ele>205.79999999999995</ele>
<time>2023-05-17T10:51:39Z</time>
</trkpt>
<trkpt lat="49.07241999171674" lon="8.707237942144275">
<ele>206</ele>
<time>2023-05-17T10:51:40Z</time>
</trkpt>
<trkpt lat="49.0724119450897" lon="8.707167953252792">
<ele>206</ele>
<time>2023-05-17T10:51:41Z</time>
</trkpt>
<trkpt lat="49.072401970624924" lon="8.70709695853293">
<ele>206</ele>
<time>2023-05-17T10:51:42Z</time>
</trkpt>
<trkpt lat="49.0723929181695" lon="8.707026969641447">
<ele>206.20000000000005</ele>
<time>2023-05-17T10:51:43Z</time>
</trkpt>
<trkpt lat="49.072381937876344" lon="8.706959998235106">
<ele>206.20000000000005</ele>
<time>2023-05-17T10:51:44Z</time>
</trkpt>
<trkpt lat="49.07237498089671" lon="8.706892943009734">
<ele>206.39999999999998</ele>
<time>2023-05-17T10:51:45Z</time>
</trkpt>
<trkpt lat="49.07236794009805" lon="8.706824965775013">
<ele>206.60000000000002</ele>
<time>2023-05-17T10:51:46Z</time>
</trkpt>
<trkpt lat="49.072359977290034" lon="8.706761933863163">
<ele>206.79999999999995</ele>
<time>2023-05-17T10:51:47Z</time>
</trkpt>
<trkpt lat="49.07234991900623" lon="8.706694962456822">
<ele>206.79999999999995</ele>
<time>2023-05-17T10:51:48Z</time>
</trkpt>
<trkpt lat="49.072341956198215" lon="8.706627991050482">
<ele>207</ele>
<time>2023-05-17T10:51:49Z</time>
</trkpt>
<trkpt lat="49.07233499921858" lon="8.706557918339968">
<ele>207.20000000000005</ele>
<time>2023-05-17T10:51:50Z</time>
</trkpt>
<trkpt lat="49.07232695259154" lon="8.706489941105247">
<ele>207.39999999999998</ele>
<time>2023-05-17T10:51:51Z</time>
</trkpt>
<trkpt lat="49.072317983955145" lon="8.706422969698906">
<ele>207.60000000000002</ele>
<time>2023-05-17T10:51:52Z</time>
</trkpt>
<trkpt lat="49.0723099373281" lon="8.706356920301914">
<ele>207.79999999999995</ele>
<time>2023-05-17T10:51:53Z</time>
</trkpt>
<trkpt lat="49.07230298034847" lon="8.706291960552335">
<ele>208</ele>
<time>2023-05-17T10:51:54Z</time>
</trkpt>
<trkpt lat="49.072299962863326" lon="8.706229934468865">
<ele>208</ele>
<time>2023-05-17T10:51:55Z</time>
</trkpt>
<trkpt lat="49.072296945378184" lon="8.706171931698918">
<ele>208.20000000000005</ele>
<time>2023-05-17T10:51:56Z</time>
</trkpt>
<trkpt lat="49.07229493372142" lon="8.70610998943448">
<ele>208.39999999999998</ele>
<time>2023-05-17T10:51:57Z</time>
</trkpt>
<trkpt lat="49.07229191623628" lon="8.706051986664534">
<ele>208.60000000000002</ele>
<time>2023-05-17T10:51:58Z</time>
</trkpt>
<trkpt lat="49.07228697091341" lon="8.705992978066206">
<ele>208.79999999999995</ele>
<time>2023-05-17T10:51:59Z</time>
</trkpt>
<trkpt lat="49.07228194177151" lon="8.70593698695302">
<ele>209</ele>
<time>2023-05-17T10:52:00Z</time>
</trkpt>
<trkpt lat="49.072276996448636" lon="8.705879990011454">
<ele>209</ele>
<time>2023-05-17T10:52:01Z</time>
</trkpt>
<trkpt lat="49.072272973135114" lon="8.705826932564378">
<ele>209.20000000000005</ele>
<time>2023-05-17T10:52:02Z</time>
</trkpt>
<trkpt lat="49.07226794399321" lon="8.705774964764714">
<ele>209.39999999999998</ele>
<time>2023-05-17T10:52:03Z</time>
</trkpt>
<trkpt lat="49.0722599811852" lon="8.70572199113667">
<ele>209.60000000000002</ele>
<time>2023-05-17T10:52:04Z</time>
</trkpt>
<trkpt lat="49.07224992290139" lon="8.705666922032833">
<ele>209.60000000000002</ele>
<time>2023-05-17T10:52:05Z</time>
</trkpt>
<trkpt lat="49.07223994843662" lon="8.705612942576408">
<ele>209.79999999999995</ele>
<time>2023-05-17T10:52:06Z</time>
</trkpt>
<trkpt lat="49.072232991456985" lon="8.705561980605125">
<ele>210</ele>
<time>2023-05-17T10:52:07Z</time>
</trkpt>
<trkpt lat="49.07222293317318" lon="8.70550992898643">
<ele>210.20000000000005</ele>
<time>2023-05-17T10:52:08Z</time>
</trkpt>
<trkpt lat="49.07221497036517" lon="8.705459972843528">
<ele>210.39999999999998</ele>
<time>2023-05-17T10:52:09Z</time>
</trkpt>
<trkpt lat="49.07220692373812" lon="8.705407921224833">
<ele>210.39999999999998</ele>
<time>2023-05-17T10:52:10Z</time>
</trkpt>
<trkpt lat="49.07219795510173" lon="8.70535796508193">
<ele>210.60000000000002</ele>
<time>2023-05-17T10:52:11Z</time>
</trkpt>
<trkpt lat="49.072187980636954" lon="8.705309936776757">
<ele>210.79999999999995</ele>
<time>2023-05-17T10:52:12Z</time>
</trkpt>
<trkpt lat="49.07217993400991" lon="8.705259980633855">
<ele>211</ele>
<time>2023-05-17T10:52:13Z</time>
</trkpt>
<trkpt lat="49.0721719712019" lon="8.705212958157063">
<ele>211.20000000000005</ele>
<time>2023-05-17T10:52:14Z</time>
</trkpt>
<trkpt lat="49.07216493040323" lon="8.705167947337031">
<ele>211.39999999999998</ele>
<time>2023-05-17T10:52:15Z</time>
</trkpt>
<trkpt lat="49.07215696759522" lon="8.705127965658903">
<ele>211.60000000000002</ele>
<time>2023-05-17T10:52:16Z</time>
</trkpt>
<trkpt lat="49.072149926796556" lon="8.705082954838872">
<ele>211.79999999999995</ele>
<time>2023-05-17T10:52:17Z</time>
</trkpt>
<trkpt lat="49.07214296981692" lon="8.705042973160744">
<ele>212</ele>
<time>2023-05-17T10:52:18Z</time>
</trkpt>
<trkpt lat="49.07213693484664" lon="8.705006930977106">
<ele>212</ele>
<time>2023-05-17T10:52:19Z</time>
</trkpt>
<trkpt lat="49.07213198952377" lon="8.704964937642217">
<ele>212.20000000000005</ele>
<time>2023-05-17T10:52:20Z</time>
</trkpt>
<trkpt lat="49.072124948725104" lon="8.704921938478947">
<ele>212.39999999999998</ele>
<time>2023-05-17T10:52:21Z</time>
</trkpt>
<trkpt lat="49.07211497426033" lon="8.704869970679283">
<ele>212.60000000000002</ele>
<time>2023-05-17T10:52:22Z</time>
</trkpt>
<trkpt lat="49.072106927633286" lon="8.704824959859252">
<ele>212.79999999999995</ele>
<time>2023-05-17T10:52:23Z</time>
</trkpt>
<trkpt lat="49.07209997065365" lon="8.704784978181124">
<ele>213</ele>
<time>2023-05-17T10:52:24Z</time>
</trkpt>
<trkpt lat="49.07209292985499" lon="8.704741979017854">
<ele>213</ele>
<time>2023-05-17T10:52:25Z</time>
</trkpt>
<trkpt lat="49.072084967046976" lon="8.704697974026203">
<ele>213.20000000000005</ele>
<time>2023-05-17T10:52:26Z</time>
</trkpt>
<trkpt lat="49.07207692041993" lon="8.704659920185804">
<ele>213.39999999999998</ele>
<time>2023-05-17T10:52:27Z</time>
</trkpt>
<trkpt lat="49.07206795178354" lon="8.70462798513472">
<ele>213.60000000000002</ele>
<time>2023-05-17T10:52:28Z</time>
</trkpt>
<trkpt lat="49.072061916813254" lon="8.70458791963756">
<ele>213.60000000000002</ele>
<time>2023-05-17T10:52:29Z</time>
</trkpt>
<trkpt lat="49.07205697149038" lon="8.704554978758097">
<ele>213.79999999999995</ele>
<time>2023-05-17T10:52:30Z</time>
</trkpt>
<trkpt lat="49.07204993069172" lon="8.7045219540596">
<ele>214</ele>
<time>2023-05-17T10:52:31Z</time>
</trkpt>
<trkpt lat="49.072041967883706" lon="8.704489935189486">
<ele>214.20000000000005</ele>
<time>2023-05-17T10:52:32Z</time>
</trkpt>
<trkpt lat="49.07202998176217" lon="8.704451965168118">
<ele>214.39999999999998</ele>
<time>2023-05-17T10:52:33Z</time>
</trkpt>
<trkpt lat="49.072017995640635" lon="8.704409971833229">
<ele>214.60000000000002</ele>
<time>2023-05-17T10:52:34Z</time>
</trkpt>
<trkpt lat="49.07200693152845" lon="8.70436797849834">
<ele>214.79999999999995</ele>
<time>2023-05-17T10:52:35Z</time>
</trkpt>
<trkpt lat="49.071994945406914" lon="8.704327996820211">
<ele>215</ele>
<time>2023-05-17T10:52:36Z</time>
</trkpt>
<trkpt lat="49.071981953457" lon="8.70428692549467">
<ele>215.20000000000005</ele>
<time>2023-05-17T10:52:37Z</time>
</trkpt>
<trkpt lat="49.071971978992224" lon="8.704241998493671">
<ele>215.39999999999998</ele>
<time>2023-05-17T10:52:38Z</time>
</trkpt>
<trkpt lat="49.07196192070842" lon="8.704189946874976">
<ele>215.60000000000002</ele>
<time>2023-05-17T10:52:39Z</time>
</trkpt>
<trkpt lat="49.071952952072024" lon="8.704142924398184">
<ele>215.79999999999995</ele>
<time>2023-05-17T10:52:40Z</time>
</trkpt>
<trkpt lat="49.07194197177887" lon="8.704099925234914">
<ele>216.20000000000005</ele>
<time>2023-05-17T10:52:41Z</time>
</trkpt>
<trkpt lat="49.071931997314095" lon="8.70404695160687">
<ele>216.39999999999998</ele>
<time>2023-05-17T10:52:42Z</time>
</trkpt>
<trkpt lat="49.0719179995358" lon="8.70398299768567">
<ele>216.60000000000002</ele>
<time>2023-05-17T10:52:43Z</time>
</trkpt>
<trkpt lat="49.07190492376685" lon="8.703946955502033">
<ele>216.79999999999995</ele>
<time>2023-05-17T10:52:44Z</time>
</trkpt>
<trkpt lat="49.07189494930208" lon="8.703907979652286">
<ele>217</ele>
<time>2023-05-17T10:52:45Z</time>
</trkpt>
<trkpt lat="49.071887992322445" lon="8.703869925811887">
<ele>217.20000000000005</ele>
<time>2023-05-17T10:52:46Z</time>
</trkpt>
<trkpt lat="49.07187793403864" lon="8.703829944133759">
<ele>217.39999999999998</ele>
<time>2023-05-17T10:52:47Z</time>
</trkpt>
<trkpt lat="49.071867959573865" lon="8.703794991597533">
<ele>217.60000000000002</ele>
<time>2023-05-17T10:52:48Z</time>
</trkpt>
<trkpt lat="49.07186192460358" lon="8.70374696329236">
<ele>217.79999999999995</ele>
<time>2023-05-17T10:52:49Z</time>
</trkpt>
<trkpt lat="49.071847926825285" lon="8.703711926937103">
<ele>218</ele>
<time>2023-05-17T10:52:50Z</time>
</trkpt>
<trkpt lat="49.07183493487537" lon="8.703671945258975">
<ele>218.20000000000005</ele>
<time>2023-05-17T10:52:51Z</time>
</trkpt>
<trkpt lat="49.071822948753834" lon="8.703631963580847">
<ele>218.39999999999998</ele>
<time>2023-05-17T10:52:52Z</time>
</trkpt>
<trkpt lat="49.07181297428906" lon="8.703586952760816">
<ele>218.60000000000002</ele>
<time>2023-05-17T10:52:53Z</time>
</trkpt>
<trkpt lat="49.071804927662015" lon="8.703539930284023">
<ele>218.79999999999995</ele>
<time>2023-05-17T10:52:54Z</time>
</trkpt>
<trkpt lat="49.07179294154048" lon="8.703494919463992">
<ele>219</ele>
<time>2023-05-17T10:52:55Z</time>
</trkpt>
<trkpt lat="49.071781961247325" lon="8.703431971371174">
<ele>219.20000000000005</ele>
<time>2023-05-17T10:52:56Z</time>
</trkpt>
<trkpt lat="49.07176997512579" lon="8.703387966379523">
<ele>219.39999999999998</ele>
<time>2023-05-17T10:52:57Z</time>
</trkpt>
<trkpt lat="49.071757989004254" lon="8.703346978873014">
<ele>219.79999999999995</ele>
<time>2023-05-17T10:52:58Z</time>
</trkpt>
<trkpt lat="49.07174692489207" lon="8.703304985538125">
<ele>220</ele>
<time>2023-05-17T10:52:59Z</time>
</trkpt>
<trkpt lat="49.07173192128539" lon="8.703256957232952">
<ele>220.20000000000005</ele>
<time>2023-05-17T10:53:00Z</time>
</trkpt>
<trkpt lat="49.071716917678714" lon="8.703207923099399">
<ele>220.39999999999998</ele>
<time>2023-05-17T10:53:01Z</time>
</trkpt>
<trkpt lat="49.07170291990042" lon="8.703161990270019">
<ele>220.79999999999995</ele>
<time>2023-05-17T10:53:02Z</time>
</trkpt>
<trkpt lat="49.07169193960726" lon="8.703117985278368">
<ele>221</ele>
<time>2023-05-17T10:53:03Z</time>
</trkpt>
<trkpt lat="49.07167995348573" lon="8.703077919781208">
<ele>221.20000000000005</ele>
<time>2023-05-17T10:53:04Z</time>
</trkpt>
<trkpt lat="49.07166997902095" lon="8.703039949759841">
<ele>221.60000000000002</ele>
<time>2023-05-17T10:53:05Z</time>
</trkpt>
<trkpt lat="49.07165698707104" lon="8.702997956424952">
<ele>221.79999999999995</ele>
<time>2023-05-17T10:53:06Z</time>
</trkpt>
<trkpt lat="49.07164491713047" lon="8.702957974746823">
<ele>222</ele>
<time>2023-05-17T10:53:07Z</time>
</trkpt>
<trkpt lat="49.071632931008935" lon="8.702894942834973">
<ele>222.39999999999998</ele>
<time>2023-05-17T10:53:08Z</time>
</trkpt>
<trkpt lat="49.07161993905902" lon="8.702846998348832">
<ele>222.60000000000002</ele>
<time>2023-05-17T10:53:09Z</time>
</trkpt>
<trkpt lat="49.07160493545234" lon="8.702797964215279">
<ele>222.79999999999995</ele>
<time>2023-05-17T10:53:10Z</time>
</trkpt>
<trkpt lat="49.071591943502426" lon="8.702746918424964">
<ele>223</ele>
<time>2023-05-17T10:53:11Z</time>
</trkpt>
<trkpt lat="49.07157693989575" lon="8.7026949506253">
<ele>223.39999999999998</ele>
<time>2023-05-17T10:53:12Z</time>
</trkpt>
<trkpt lat="49.07156193628907" lon="8.702642982825637">
<ele>223.39999999999998</ele>
<time>2023-05-17T10:53:13Z</time>
</trkpt>
<trkpt lat="49.071546932682395" lon="8.702587997540832">
<ele>223.60000000000002</ele>
<time>2023-05-17T10:53:14Z</time>
</trkpt>
<trkpt lat="49.0715329349041" lon="8.702536951750517">
<ele>223.79999999999995</ele>
<time>2023-05-17T10:53:15Z</time>
</trkpt>
<trkpt lat="49.07151793129742" lon="8.702472997829318">
<ele>223.79999999999995</ele>
<time>2023-05-17T10:53:16Z</time>
</trkpt>
<trkpt lat="49.071499994024634" lon="8.70241298340261">
<ele>224</ele>
<time>2023-05-17T10:53:17Z</time>
</trkpt>
<trkpt lat="49.07147794961929" lon="8.70234995149076">
<ele>224</ele>
<time>2023-05-17T10:53:18Z</time>
</trkpt>
<trkpt lat="49.071459928527474" lon="8.70228499174118">
<ele>224</ele>
<time>2023-05-17T10:53:19Z</time>
</trkpt>
<trkpt lat="49.07144299708307" lon="8.702216930687428">
<ele>224</ele>
<time>2023-05-17T10:53:20Z</time>
</trkpt>
<trkpt lat="49.07142698764801" lon="8.702142918482423">
<ele>223.79999999999995</ele>
<time>2023-05-17T10:53:21Z</time>
</trkpt>
<trkpt lat="49.07140796072781" lon="8.702061949297786">
<ele>223.79999999999995</ele>
<time>2023-05-17T10:53:22Z</time>
</trkpt>
<trkpt lat="49.071394968777895" lon="8.701972933486104">
<ele>223.60000000000002</ele>
<time>2023-05-17T10:53:23Z</time>
</trkpt>
<trkpt lat="49.07138298265636" lon="8.701882995665073">
<ele>223.39999999999998</ele>
<time>2023-05-17T10:53:24Z</time>
</trkpt>
<trkpt lat="49.07137191854417" lon="8.70179196819663">
<ele>223.20000000000005</ele>
<time>2023-05-17T10:53:25Z</time>
</trkpt>
<trkpt lat="49.0713619440794" lon="8.701696917414665">
<ele>222.79999999999995</ele>
<time>2023-05-17T10:53:26Z</time>
</trkpt>
<trkpt lat="49.0713479463011" lon="8.7015949934721">
<ele>222.60000000000002</ele>
<time>2023-05-17T10:53:27Z</time>
</trkpt>
<trkpt lat="49.07133696600795" lon="8.701494997367263">
<ele>222.39999999999998</ele>
<time>2023-05-17T10:53:28Z</time>
</trkpt>
<trkpt lat="49.07132196240127" lon="8.701392989605665">
<ele>222</ele>
<time>2023-05-17T10:53:29Z</time>
</trkpt>
<trkpt lat="49.071309976279736" lon="8.701287964358926">
<ele>221.79999999999995</ele>
<time>2023-05-17T10:53:30Z</time>
</trkpt>
<trkpt lat="49.07129991799593" lon="8.701181933283806">
<ele>221.20000000000005</ele>
<time>2023-05-17T10:53:31Z</time>
</trkpt>
<trkpt lat="49.071286926046014" lon="8.701069951057434">
<ele>220.60000000000002</ele>
<time>2023-05-17T10:53:32Z</time>
</trkpt>
<trkpt lat="49.07127292826772" lon="8.70095495134592">
<ele>220</ele>
<time>2023-05-17T10:53:33Z</time>
</trkpt>
<trkpt lat="49.0712599363178" lon="8.700839951634407">
<ele>219.39999999999998</ele>
<time>2023-05-17T10:53:34Z</time>
</trkpt>
<trkpt lat="49.07124996185303" lon="8.700731992721558">
<ele>218.79999999999995</ele>
<time>2023-05-17T10:53:35Z</time>
</trkpt>
<trkpt lat="49.071241999045014" lon="8.700621938332915">
<ele>218</ele>
<time>2023-05-17T10:53:36Z</time>
</trkpt>
<trkpt lat="49.07122992910445" lon="8.70050492696464">
<ele>217.20000000000005</ele>
<time>2023-05-17T10:53:37Z</time>
</trkpt>
<trkpt lat="49.07121693715453" lon="8.700381964445114">
<ele>216.39999999999998</ele>
<time>2023-05-17T10:53:38Z</time>
</trkpt>
<trkpt lat="49.071204951032996" lon="8.700254978612065">
<ele>215.60000000000002</ele>
<time>2023-05-17T10:53:39Z</time>
</trkpt>
<trkpt lat="49.07119497656822" lon="8.700124975293875">
<ele>214.79999999999995</ele>
<time>2023-05-17T10:53:40Z</time>
</trkpt>
<trkpt lat="49.071184918284416" lon="8.699992960318923">
<ele>214.20000000000005</ele>
<time>2023-05-17T10:53:41Z</time>
</trkpt>
<trkpt lat="49.07117293216288" lon="8.699851976707578">
<ele>213.39999999999998</ele>
<time>2023-05-17T10:53:42Z</time>
</trkpt>
<trkpt lat="49.07115197740495" lon="8.69968299753964">
<ele>212.60000000000002</ele>
<time>2023-05-17T10:53:43Z</time>
</trkpt>
<trkpt lat="49.07113295048475" lon="8.699542935937643">
<ele>212</ele>
<time>2023-05-17T10:53:44Z</time>
</trkpt>
<trkpt lat="49.071114929392934" lon="8.699391977861524">
<ele>211.20000000000005</ele>
<time>2023-05-17T10:53:45Z</time>
</trkpt>
<trkpt lat="49.07109992578626" lon="8.699247976765037">
<ele>210.60000000000002</ele>
<time>2023-05-17T10:53:46Z</time>
</trkpt>
<trkpt lat="49.07108198851347" lon="8.699106993153691">
<ele>210</ele>
<time>2023-05-17T10:53:47Z</time>
</trkpt>
<trkpt lat="49.07105692662299" lon="8.69895695708692">
<ele>209.39999999999998</ele>
<time>2023-05-17T10:53:48Z</time>
</trkpt>
<trkpt lat="49.071031948551536" lon="8.69880692102015">
<ele>208.79999999999995</ele>
<time>2023-05-17T10:53:49Z</time>
</trkpt>
<trkpt lat="49.071007976308465" lon="8.698656968772411">
<ele>208.20000000000005</ele>
<time>2023-05-17T10:53:50Z</time>
</trkpt>
<trkpt lat="49.07098492607474" lon="8.698511961847544">
<ele>207.79999999999995</ele>
<time>2023-05-17T10:53:51Z</time>
</trkpt>
<trkpt lat="49.07096195966005" lon="8.698366954922676">
<ele>207.39999999999998</ele>
<time>2023-05-17T10:53:52Z</time>
</trkpt>
<trkpt lat="49.07094192691147" lon="8.698227982968092">
<ele>207</ele>
<time>2023-05-17T10:53:53Z</time>
</trkpt>
<trkpt lat="49.070922983810306" lon="8.69809496216476">
<ele>206.60000000000002</ele>
<time>2023-05-17T10:53:54Z</time>
</trkpt>
<trkpt lat="49.07090697437525" lon="8.697952972725034">
<ele>206.20000000000005</ele>
<time>2023-05-17T10:53:55Z</time>
</trkpt>
<trkpt lat="49.070899933576584" lon="8.697787933051586">
<ele>205.79999999999995</ele>
<time>2023-05-17T10:53:56Z</time>
</trkpt>
<trkpt lat="49.07088694162667" lon="8.697656923905015">
<ele>205.60000000000002</ele>
<time>2023-05-17T10:53:57Z</time>
</trkpt>
<trkpt lat="49.070879984647036" lon="8.697521975263953">
<ele>205.20000000000005</ele>
<time>2023-05-17T10:53:58Z</time>
</trkpt>
<trkpt lat="49.070876967161894" lon="8.697392977774143">
<ele>205</ele>
<time>2023-05-17T10:53:59Z</time>
</trkpt>
<trkpt lat="49.0708819963038" lon="8.697264986112714">
<ele>204.79999999999995</ele>
<time>2023-05-17T10:54:00Z</time>
</trkpt>
<trkpt lat="49.07088794745505" lon="8.697144957259297">
<ele>204.60000000000002</ele>
<time>2023-05-17T10:54:01Z</time>
</trkpt>
<trkpt lat="49.07089498825371" lon="8.697031969204545">
<ele>204.39999999999998</ele>
<time>2023-05-17T10:54:02Z</time>
</trkpt>
<trkpt lat="49.07090496271849" lon="8.696922920644283">
<ele>204.20000000000005</ele>
<time>2023-05-17T10:54:03Z</time>
</trkpt>
<trkpt lat="49.07091191969812" lon="8.696821918711066">
<ele>204.20000000000005</ele>
<time>2023-05-17T10:54:04Z</time>
</trkpt>
<trkpt lat="49.0709179546684" lon="8.696729969233274">
<ele>204</ele>
<time>2023-05-17T10:54:05Z</time>
</trkpt>
<trkpt lat="49.070926923304796" lon="8.696651933714747">
<ele>204</ele>
<time>2023-05-17T10:54:06Z</time>
</trkpt>
<trkpt lat="49.0709319524467" lon="8.696584962308407">
<ele>204</ele>
<time>2023-05-17T10:54:07Z</time>
</trkpt>
<trkpt lat="49.07093496993184" lon="8.696521930396557">
<ele>204</ele>
<time>2023-05-17T10:54:08Z</time>
</trkpt>
<trkpt lat="49.07094192691147" lon="8.696454958990216">
<ele>204.20000000000005</ele>
<time>2023-05-17T10:54:09Z</time>
</trkpt>
<trkpt lat="49.07094796188176" lon="8.696386981755495">
<ele>204.20000000000005</ele>
<time>2023-05-17T10:54:10Z</time>
</trkpt>
<trkpt lat="49.07095299102366" lon="8.696319926530123">
<ele>204.20000000000005</ele>
<time>2023-05-17T10:54:11Z</time>
</trkpt>
<trkpt lat="49.07095693051815" lon="8.696257984265685">
<ele>204.39999999999998</ele>
<time>2023-05-17T10:54:12Z</time>
</trkpt>
<trkpt lat="49.07095994800329" lon="8.6962019931525">
<ele>204.39999999999998</ele>
<time>2023-05-17T10:54:13Z</time>
</trkpt>
<trkpt lat="49.070962965488434" lon="8.696146924048662">
<ele>204.39999999999998</ele>
<time>2023-05-17T10:54:14Z</time>
</trkpt>
<trkpt lat="49.07096799463034" lon="8.696091938763857">
<ele>204.60000000000002</ele>
<time>2023-05-17T10:54:15Z</time>
</trkpt>
<trkpt lat="49.07097193412483" lon="8.69603293016553">
<ele>204.60000000000002</ele>
<time>2023-05-17T10:54:16Z</time>
</trkpt>
<trkpt lat="49.07097696326673" lon="8.695979956537485">
<ele>204.79999999999995</ele>
<time>2023-05-17T10:54:17Z</time>
</trkpt>
<trkpt lat="49.07097998075187" lon="8.695926982909441">
<ele>205</ele>
<time>2023-05-17T10:54:18Z</time>
</trkpt>
<trkpt lat="49.07098199240863" lon="8.695872919633985">
<ele>205.39999999999998</ele>
<time>2023-05-17T10:54:19Z</time>
</trkpt>
<trkpt lat="49.070982998237014" lon="8.695814916864038">
<ele>205.60000000000002</ele>
<time>2023-05-17T10:54:20Z</time>
</trkpt>
<trkpt lat="49.07098492607474" lon="8.695757919922471">
<ele>206</ele>
<time>2023-05-17T10:54:21Z</time>
</trkpt>
<trkpt lat="49.070987943559885" lon="8.695704946294427">
<ele>206.20000000000005</ele>
<time>2023-05-17T10:54:22Z</time>
</trkpt>
<trkpt lat="49.070989955216646" lon="8.69564694352448">
<ele>206.60000000000002</ele>
<time>2023-05-17T10:54:23Z</time>
</trkpt>
<trkpt lat="49.07099196687341" lon="8.695587934926152">
<ele>206.79999999999995</ele>
<time>2023-05-17T10:54:24Z</time>
</trkpt>
<trkpt lat="49.07099297270179" lon="8.695529932156205">
<ele>207.20000000000005</ele>
<time>2023-05-17T10:54:25Z</time>
</trkpt>
<trkpt lat="49.07099297270179" lon="8.695469917729497">
<ele>207.39999999999998</ele>
<time>2023-05-17T10:54:26Z</time>
</trkpt>
<trkpt lat="49.07099196687341" lon="8.695411998778582">
<ele>207.79999999999995</ele>
<time>2023-05-17T10:54:27Z</time>
</trkpt>
<trkpt lat="49.070987943559885" lon="8.695352990180254">
<ele>208</ele>
<time>2023-05-17T10:54:28Z</time>
</trkpt>
<trkpt lat="49.070989955216646" lon="8.695292975753546">
<ele>208.39999999999998</ele>
<time>2023-05-17T10:54:29Z</time>
</trkpt>
<trkpt lat="49.070989955216646" lon="8.695232961326838">
<ele>208.60000000000002</ele>
<time>2023-05-17T10:54:30Z</time>
</trkpt>
<trkpt lat="49.07099196687341" lon="8.695171941071749">
<ele>209</ele>
<time>2023-05-17T10:54:31Z</time>
</trkpt>
<trkpt lat="49.07099196687341" lon="8.695112932473421">
<ele>209.20000000000005</ele>
<time>2023-05-17T10:54:32Z</time>
</trkpt>
<trkpt lat="49.07099297270179" lon="8.695052918046713">
<ele>209.60000000000002</ele>
<time>2023-05-17T10:54:33Z</time>
</trkpt>
<trkpt lat="49.07099297270179" lon="8.694994999095798">
<ele>209.79999999999995</ele>
<time>2023-05-17T10:54:34Z</time>
</trkpt>
<trkpt lat="49.07099297270179" lon="8.69493699632585">
<ele>210</ele>
<time>2023-05-17T10:54:35Z</time>
</trkpt>
<trkpt lat="49.07099498435855" lon="8.694881927222013">
<ele>210.39999999999998</ele>
<time>2023-05-17T10:54:36Z</time>
</trkpt>
<trkpt lat="49.07099498435855" lon="8.694827947765589">
<ele>210.60000000000002</ele>
<time>2023-05-17T10:54:37Z</time>
</trkpt>
<trkpt lat="49.07099498435855" lon="8.694772962480783">
<ele>210.79999999999995</ele>
<time>2023-05-17T10:54:38Z</time>
</trkpt>
<trkpt lat="49.07099699601531" lon="8.69471998885274">
<ele>211.20000000000005</ele>
<time>2023-05-17T10:54:39Z</time>
</trkpt>
<trkpt lat="49.07099699601531" lon="8.694669948890805">
<ele>211.39999999999998</ele>
<time>2023-05-17T10:54:40Z</time>
</trkpt>
<trkpt lat="49.07099992968142" lon="8.694617981091142">
<ele>211.60000000000002</ele>
<time>2023-05-17T10:54:41Z</time>
</trkpt>
<trkpt lat="49.07100294716656" lon="8.694567941129208">
<ele>211.79999999999995</ele>
<time>2023-05-17T10:54:42Z</time>
</trkpt>
<trkpt lat="49.07100495882332" lon="8.694519996643066">
<ele>212.20000000000005</ele>
<time>2023-05-17T10:54:43Z</time>
</trkpt>
<trkpt lat="49.071006970480084" lon="8.694472974166274">
<ele>212.39999999999998</ele>
<time>2023-05-17T10:54:44Z</time>
</trkpt>
<trkpt lat="49.071006970480084" lon="8.69442293420434">
<ele>212.60000000000002</ele>
<time>2023-05-17T10:54:45Z</time>
</trkpt>
<trkpt lat="49.071009987965226" lon="8.694372978061438">
<ele>213</ele>
<time>2023-05-17T10:54:46Z</time>
</trkpt>
<trkpt lat="49.071009987965226" lon="8.694322938099504">
<ele>213.20000000000005</ele>
<time>2023-05-17T10:54:47Z</time>
</trkpt>
<trkpt lat="49.071012921631336" lon="8.694274993613362">
<ele>213.60000000000002</ele>
<time>2023-05-17T10:54:48Z</time>
</trkpt>
<trkpt lat="49.07101694494486" lon="8.694224953651428">
<ele>213.79999999999995</ele>
<time>2023-05-17T10:54:49Z</time>
</trkpt>
<trkpt lat="49.07101795077324" lon="8.694174997508526">
<ele>214</ele>
<time>2023-05-17T10:54:50Z</time>
</trkpt>
<trkpt lat="49.07101795077324" lon="8.694126969203353">
<ele>214.39999999999998</ele>
<time>2023-05-17T10:54:51Z</time>
</trkpt>
<trkpt lat="49.07101795077324" lon="8.6940779350698">
<ele>214.60000000000002</ele>
<time>2023-05-17T10:54:52Z</time>
</trkpt>
<trkpt lat="49.07101996243" lon="8.694029990583658">
<ele>214.79999999999995</ele>
<time>2023-05-17T10:54:53Z</time>
</trkpt>
<trkpt lat="49.07102197408676" lon="8.693979950621724">
<ele>215</ele>
<time>2023-05-17T10:54:54Z</time>
</trkpt>
<trkpt lat="49.07102297991514" lon="8.693929994478822">
<ele>215.20000000000005</ele>
<time>2023-05-17T10:54:55Z</time>
</trkpt>
<trkpt lat="49.0710249915719" lon="8.693881966173649">
<ele>215.60000000000002</ele>
<time>2023-05-17T10:54:56Z</time>
</trkpt>
<trkpt lat="49.07102297991514" lon="8.693831926211715">
<ele>215.79999999999995</ele>
<time>2023-05-17T10:54:57Z</time>
</trkpt>
<trkpt lat="49.07102197408676" lon="8.693781970068812">
<ele>216</ele>
<time>2023-05-17T10:54:58Z</time>
</trkpt>
<trkpt lat="49.07101996243" lon="8.693727990612388">
<ele>216.20000000000005</ele>
<time>2023-05-17T10:54:59Z</time>
</trkpt>
<trkpt lat="49.07102297991514" lon="8.693674933165312">
<ele>216.39999999999998</ele>
<time>2023-05-17T10:55:00Z</time>
</trkpt>
<trkpt lat="49.07102197408676" lon="8.69362698867917">
<ele>216.60000000000002</ele>
<time>2023-05-17T10:55:01Z</time>
</trkpt>
<trkpt lat="49.07102197408676" lon="8.693572925403714">
<ele>216.79999999999995</ele>
<time>2023-05-17T10:55:02Z</time>
</trkpt>
<trkpt lat="49.07102197408676" lon="8.693517940118909">
<ele>217.20000000000005</ele>
<time>2023-05-17T10:55:03Z</time>
</trkpt>
<trkpt lat="49.07101795077324" lon="8.693472929298878">
<ele>217.39999999999998</ele>
<time>2023-05-17T10:55:04Z</time>
</trkpt>
<trkpt lat="49.07101199962199" lon="8.693422973155975">
<ele>217.60000000000002</ele>
<time>2023-05-17T10:55:05Z</time>
</trkpt>
<trkpt lat="49.07100495882332" lon="8.693372933194041">
<ele>218</ele>
<time>2023-05-17T10:55:06Z</time>
</trkpt>
<trkpt lat="49.07099992968142" lon="8.693321971222758">
<ele>218.20000000000005</ele>
<time>2023-05-17T10:55:07Z</time>
</trkpt>
<trkpt lat="49.07099498435855" lon="8.693271931260824">
<ele>218.39999999999998</ele>
<time>2023-05-17T10:55:08Z</time>
</trkpt>
<trkpt lat="49.070989955216646" lon="8.69321996346116">
<ele>218.60000000000002</ele>
<time>2023-05-17T10:55:09Z</time>
</trkpt>
<trkpt lat="49.070986937731504" lon="8.693169923499227">
<ele>218.79999999999995</ele>
<time>2023-05-17T10:55:10Z</time>
</trkpt>
<trkpt lat="49.07098199240863" lon="8.693119967356324">
<ele>219</ele>
<time>2023-05-17T10:55:11Z</time>
</trkpt>
<trkpt lat="49.07097796909511" lon="8.69306699372828">
<ele>219.20000000000005</ele>
<time>2023-05-17T10:55:12Z</time>
</trkpt>
<trkpt lat="49.07097293995321" lon="8.693009996786714">
<ele>219.39999999999998</ele>
<time>2023-05-17T10:55:13Z</time>
</trkpt>
<trkpt lat="49.07097293995321" lon="8.692956939339638">
<ele>219.60000000000002</ele>
<time>2023-05-17T10:55:14Z</time>
</trkpt>
<trkpt lat="49.07097193412483" lon="8.692904971539974">
<ele>219.60000000000002</ele>
<time>2023-05-17T10:55:15Z</time>
</trkpt>
<trkpt lat="49.070966988801956" lon="8.692852919921279">
<ele>219.79999999999995</ele>
<time>2023-05-17T10:55:16Z</time>
</trkpt>
<trkpt lat="49.07096195966005" lon="8.692799946293235">
<ele>219.79999999999995</ele>
<time>2023-05-17T10:55:17Z</time>
</trkpt>
<trkpt lat="49.07095693051815" lon="8.692741943523288">
<ele>219.79999999999995</ele>
<time>2023-05-17T10:55:18Z</time>
</trkpt>
<trkpt lat="49.07095198519528" lon="8.69268192909658">
<ele>219.79999999999995</ele>
<time>2023-05-17T10:55:19Z</time>
</trkpt>
<trkpt lat="49.070944944396615" lon="8.692622920498252">
<ele>219.79999999999995</ele>
<time>2023-05-17T10:55:20Z</time>
</trkpt>
<trkpt lat="49.07093496993184" lon="8.692556954920292">
<ele>219.79999999999995</ele>
<time>2023-05-17T10:55:21Z</time>
</trkpt>
<trkpt lat="49.070919966325164" lon="8.692492917180061">
<ele>219.79999999999995</ele>
<time>2023-05-17T10:55:22Z</time>
</trkpt>
<trkpt lat="49.07089297659695" lon="8.692422928288579">
<ele>219.60000000000002</ele>
<time>2023-05-17T10:55:23Z</time>
</trkpt>
<trkpt lat="49.07086498104036" lon="8.692357968539">
<ele>219.60000000000002</ele>
<time>2023-05-17T10:55:24Z</time>
</trkpt>
<trkpt lat="49.07083296217024" lon="8.692277921363711">
<ele>219.60000000000002</ele>
<time>2023-05-17T10:55:25Z</time>
</trkpt>
<trkpt lat="49.070796919986606" lon="8.692204998806119">
<ele>219.60000000000002</ele>
<time>2023-05-17T10:55:26Z</time>
</trkpt>
<trkpt lat="49.070754926651716" lon="8.692127969115973">
<ele>219.39999999999998</ele>
<time>2023-05-17T10:55:27Z</time>
</trkpt>
<trkpt lat="49.07071494497359" lon="8.692049933597445">
<ele>219.39999999999998</ele>
<time>2023-05-17T10:55:28Z</time>
</trkpt>
<trkpt lat="49.07067697495222" lon="8.691959995776415">
<ele>219.20000000000005</ele>
<time>2023-05-17T10:55:29Z</time>
</trkpt>
<trkpt lat="49.07063799910247" lon="8.691869974136353">
<ele>219</ele>
<time>2023-05-17T10:55:30Z</time>
</trkpt>
<trkpt lat="49.070601956918836" lon="8.69177995249629">
<ele>218.60000000000002</ele>
<time>2023-05-17T10:55:31Z</time>
</trkpt>
<trkpt lat="49.07056197524071" lon="8.691686997190118">
<ele>218.20000000000005</ele>
<time>2023-05-17T10:55:32Z</time>
</trkpt>
<trkpt lat="49.07052199356258" lon="8.69158792309463">
<ele>217.79999999999995</ele>
<time>2023-05-17T10:55:33Z</time>
</trkpt>
<trkpt lat="49.07048695720732" lon="8.691487926989794">
<ele>217.20000000000005</ele>
<time>2023-05-17T10:55:34Z</time>
</trkpt>
<trkpt lat="49.07045493833721" lon="8.691387930884957">
<ele>216.60000000000002</ele>
<time>2023-05-17T10:55:35Z</time>
</trkpt>
<trkpt lat="49.07042493112385" lon="8.691294975578785">
<ele>216</ele>
<time>2023-05-17T10:55:36Z</time>
</trkpt>
<trkpt lat="49.07039693556726" lon="8.691194979473948">
<ele>215.39999999999998</ele>
<time>2023-05-17T10:55:37Z</time>
</trkpt>
<trkpt lat="49.07037195749581" lon="8.691089954227209">
<ele>214.79999999999995</ele>
<time>2023-05-17T10:55:38Z</time>
</trkpt>
<trkpt lat="49.070344967767596" lon="8.69098492898047">
<ele>214.20000000000005</ele>
<time>2023-05-17T10:55:39Z</time>
</trkpt>
<trkpt lat="49.070321917533875" lon="8.690877975896">
<ele>213.39999999999998</ele>
<time>2023-05-17T10:55:40Z</time>
</trkpt>
<trkpt lat="49.07029693946242" lon="8.690776973962784">
<ele>212.79999999999995</ele>
<time>2023-05-17T10:55:41Z</time>
</trkpt>
<trkpt lat="49.07027296721935" lon="8.690669937059283">
<ele>212</ele>
<time>2023-05-17T10:55:42Z</time>
</trkpt>
<trkpt lat="49.070254946127534" lon="8.690566923469305">
<ele>211</ele>
<time>2023-05-17T10:55:43Z</time>
</trkpt>
<trkpt lat="49.070232985541224" lon="8.690456952899694">
<ele>210.20000000000005</ele>
<time>2023-05-17T10:55:44Z</time>
</trkpt>
<trkpt lat="49.07021697610617" lon="8.690342959016562">
<ele>209.20000000000005</ele>
<time>2023-05-17T10:55:45Z</time>
</trkpt>
<trkpt lat="49.07019794918597" lon="8.690227959305048">
<ele>208.39999999999998</ele>
<time>2023-05-17T10:55:46Z</time>
</trkpt>
<trkpt lat="49.07017992809415" lon="8.690114971250296">
<ele>207.39999999999998</ele>
<time>2023-05-17T10:55:47Z</time>
</trkpt>
<trkpt lat="49.07016299664974" lon="8.690004916861653">
<ele>206.60000000000002</ele>
<time>2023-05-17T10:55:48Z</time>
</trkpt>
<trkpt lat="49.070146987214684" lon="8.689884971827269">
<ele>205.60000000000002</ele>
<time>2023-05-17T10:55:49Z</time>
</trkpt>
<trkpt lat="49.07012494280934" lon="8.689764942973852">
<ele>204.60000000000002</ele>
<time>2023-05-17T10:55:50Z</time>
</trkpt>
<trkpt lat="49.070109939202666" lon="8.689662935212255">
<ele>203.79999999999995</ele>
<time>2023-05-17T10:55:51Z</time>
</trkpt>
<trkpt lat="49.07009292393923" lon="8.689562939107418">
<ele>202.79999999999995</ele>
<time>2023-05-17T10:55:52Z</time>
</trkpt>
<trkpt lat="49.07007993198931" lon="8.689464954659343">
<ele>201.79999999999995</ele>
<time>2023-05-17T10:55:53Z</time>
</trkpt>
<trkpt lat="49.070066940039396" lon="8.68937199935317">
<ele>201</ele>
<time>2023-05-17T10:55:54Z</time>
</trkpt>
<trkpt lat="49.07005495391786" lon="8.689277954399586">
<ele>200.20000000000005</ele>
<time>2023-05-17T10:55:55Z</time>
</trkpt>
<trkpt lat="49.07004699110985" lon="8.689184999093413">
<ele>199.39999999999998</ele>
<time>2023-05-17T10:55:56Z</time>
</trkpt>
<trkpt lat="49.07003693282604" lon="8.689094977453351">
<ele>198.39999999999998</ele>
<time>2023-05-17T10:55:57Z</time>
</trkpt>
<trkpt lat="49.07002796418965" lon="8.689004955813289">
<ele>197.60000000000002</ele>
<time>2023-05-17T10:55:58Z</time>
</trkpt>
<trkpt lat="49.070021929219365" lon="8.688916945829988">
<ele>196.79999999999995</ele>
<time>2023-05-17T10:55:59Z</time>
</trkpt>
<trkpt lat="49.070016983896494" lon="8.688829941675067">
<ele>196</ele>
<time>2023-05-17T10:56:00Z</time>
</trkpt>
<trkpt lat="49.07000994309783" lon="8.688741931691766">
<ele>195.20000000000005</ele>
<time>2023-05-17T10:56:01Z</time>
</trkpt>
<trkpt lat="49.07000692561269" lon="8.688654927536845">
<ele>194.39999999999998</ele>
<time>2023-05-17T10:56:02Z</time>
</trkpt>
<trkpt lat="49.0700029861182" lon="8.688566917553544">
<ele>193.60000000000002</ele>
<time>2023-05-17T10:56:03Z</time>
</trkpt>
<trkpt lat="49.07000198028982" lon="8.688477985560894">
<ele>192.79999999999995</ele>
<time>2023-05-17T10:56:04Z</time>
</trkpt>
<trkpt lat="49.069999968633056" lon="8.688387963920832">
<ele>192.20000000000005</ele>
<time>2023-05-17T10:56:05Z</time>
</trkpt>
<trkpt lat="49.069997956976295" lon="8.688307916745543">
<ele>191.39999999999998</ele>
<time>2023-05-17T10:56:06Z</time>
</trkpt>
<trkpt lat="49.06999192200601" lon="8.688239939510822">
<ele>190.60000000000002</ele>
<time>2023-05-17T10:56:07Z</time>
</trkpt>
<trkpt lat="49.06998798251152" lon="8.688176991418004">
<ele>189.79999999999995</ele>
<time>2023-05-17T10:56:08Z</time>
</trkpt>
<trkpt lat="49.06998295336962" lon="8.688114965334535">
<ele>189.20000000000005</ele>
<time>2023-05-17T10:56:09Z</time>
</trkpt>
<trkpt lat="49.069976918399334" lon="8.688057968392968">
<ele>188.60000000000002</ele>
<time>2023-05-17T10:56:10Z</time>
</trkpt>
<trkpt lat="49.06997297890484" lon="8.688001977279782">
<ele>188</ele>
<time>2023-05-17T10:56:11Z</time>
</trkpt>
<trkpt lat="49.0699699614197" lon="8.687942968681455">
<ele>187.39999999999998</ele>
<time>2023-05-17T10:56:12Z</time>
</trkpt>
<trkpt lat="49.06996794976294" lon="8.687886977568269">
<ele>186.79999999999995</ele>
<time>2023-05-17T10:56:13Z</time>
</trkpt>
<trkpt lat="49.06996694393456" lon="8.687829980626702">
<ele>186.20000000000005</ele>
<time>2023-05-17T10:56:14Z</time>
</trkpt>
<trkpt lat="49.0699649322778" lon="8.687774995341897">
<ele>185.79999999999995</ele>
<time>2023-05-17T10:56:15Z</time>
</trkpt>
<trkpt lat="49.06996292062104" lon="8.68771992623806">
<ele>185.20000000000005</ele>
<time>2023-05-17T10:56:16Z</time>
</trkpt>
<trkpt lat="49.06996199861169" lon="8.687666952610016">
<ele>184.79999999999995</ele>
<time>2023-05-17T10:56:17Z</time>
</trkpt>
<trkpt lat="49.069957975298166" lon="8.687621941789985">
<ele>184.39999999999998</ele>
<time>2023-05-17T10:56:18Z</time>
</trkpt>
<trkpt lat="49.06995294615626" lon="8.687577936798334">
<ele>183.79999999999995</ele>
<time>2023-05-17T10:56:19Z</time>
</trkpt>
<trkpt lat="49.06994791701436" lon="8.687534937635064">
<ele>183.39999999999998</ele>
<time>2023-05-17T10:56:20Z</time>
</trkpt>
<trkpt lat="49.06994498334825" lon="8.687497973442078">
<ele>183</ele>
<time>2023-05-17T10:56:21Z</time>
</trkpt>
<trkpt lat="49.06992997974157" lon="8.687466960400343">
<ele>182.60000000000002</ele>
<time>2023-05-17T10:56:22Z</time>
</trkpt>
<trkpt lat="49.06990692950785" lon="8.687442988157272">
<ele>182.20000000000005</ele>
<time>2023-05-17T10:56:23Z</time>
</trkpt>
<trkpt lat="49.0698769222945" lon="8.687442988157272">
<ele>182</ele>
<time>2023-05-17T10:56:24Z</time>
</trkpt>
<trkpt lat="49.069847920909524" lon="8.687464948743582">
<ele>181.60000000000002</ele>
<time>2023-05-17T10:56:25Z</time>
</trkpt>
<trkpt lat="49.06982193700969" lon="8.687506942078471">
<ele>181.20000000000005</ele>
<time>2023-05-17T10:56:26Z</time>
</trkpt>
<trkpt lat="49.06979796476662" lon="8.6875469237566">
<ele>181</ele>
<time>2023-05-17T10:56:27Z</time>
</trkpt>
<trkpt lat="49.06976996921003" lon="8.687579948455095">
<ele>180.79999999999995</ele>
<time>2023-05-17T10:56:28Z</time>
</trkpt>
<trkpt lat="49.069741973653436" lon="8.687599981203675">
<ele>180.39999999999998</ele>
<time>2023-05-17T10:56:29Z</time>
</trkpt>
<trkpt lat="49.06970299780369" lon="8.68760995566845">
<ele>180.20000000000005</ele>
<time>2023-05-17T10:56:30Z</time>
</trkpt>
<trkpt lat="49.06966695562005" lon="8.68759193457663">
<ele>180</ele>
<time>2023-05-17T10:56:31Z</time>
</trkpt>
<trkpt lat="49.0696229506284" lon="8.687557987868786">
<ele>179.79999999999995</ele>
<time>2023-05-17T10:56:32Z</time>
</trkpt>
<trkpt lat="49.06957995146513" lon="8.687512977048755">
<ele>179.60000000000002</ele>
<time>2023-05-17T10:56:33Z</time>
</trkpt>
<trkpt lat="49.06953192315996" lon="8.68746193125844">
<ele>179.20000000000005</ele>
<time>2023-05-17T10:56:34Z</time>
</trkpt>
<trkpt lat="49.069482972845435" lon="8.687402922660112">
<ele>179</ele>
<time>2023-05-17T10:56:35Z</time>
</trkpt>
<trkpt lat="49.06943695619702" lon="8.687344919890165">
<ele>178.60000000000002</ele>
<time>2023-05-17T10:56:36Z</time>
</trkpt>
<trkpt lat="49.06938792206347" lon="8.687284989282489">
<ele>178.39999999999998</ele>
<time>2023-05-17T10:56:37Z</time>
</trkpt>
<trkpt lat="49.06934198923409" lon="8.68722497485578">
<ele>178</ele>
<time>2023-05-17T10:56:38Z</time>
</trkpt>
<trkpt lat="49.0692949667573" lon="8.687166972085834">
<ele>177.79999999999995</ele>
<time>2023-05-17T10:56:39Z</time>
</trkpt>
<trkpt lat="49.069249955937266" lon="8.687106957659125">
<ele>177.60000000000002</ele>
<time>2023-05-17T10:56:40Z</time>
</trkpt>
<trkpt lat="49.06920796260238" lon="8.687046943232417">
<ele>177.39999999999998</ele>
<time>2023-05-17T10:56:41Z</time>
</trkpt>
<trkpt lat="49.06916798092425" lon="8.68698793463409">
<ele>177.20000000000005</ele>
<time>2023-05-17T10:56:42Z</time>
</trkpt>
<trkpt lat="49.06913193874061" lon="8.68692196905613">
<ele>177.20000000000005</ele>
<time>2023-05-17T10:56:43Z</time>
</trkpt>
<trkpt lat="49.06909195706248" lon="8.686857931315899">
<ele>177</ele>
<time>2023-05-17T10:56:44Z</time>
</trkpt>
<trkpt lat="49.069051975384355" lon="8.68679791688919">
<ele>177</ele>
<time>2023-05-17T10:56:45Z</time>
</trkpt>
<trkpt lat="49.069009982049465" lon="8.686741925776005">
<ele>176.79999999999995</ele>
<time>2023-05-17T10:56:46Z</time>
</trkpt>
<trkpt lat="49.068967988714576" lon="8.6866869404912">
<ele>176.79999999999995</ele>
<time>2023-05-17T10:56:47Z</time>
</trkpt>
<trkpt lat="49.068922977894545" lon="8.686627931892872">
<ele>176.79999999999995</ele>
<time>2023-05-17T10:56:48Z</time>
</trkpt>
<trkpt lat="49.068881990388036" lon="8.686566995456815">
<ele>176.79999999999995</ele>
<time>2023-05-17T10:56:49Z</time>
</trkpt>
<trkpt lat="49.068839997053146" lon="8.686507986858487">
<ele>176.79999999999995</ele>
<time>2023-05-17T10:56:50Z</time>
</trkpt>
<trkpt lat="49.068799931555986" lon="8.68645291775465">
<ele>176.60000000000002</ele>
<time>2023-05-17T10:56:51Z</time>
</trkpt>
<trkpt lat="49.0687579382211" lon="8.686397932469845">
<ele>176.60000000000002</ele>
<time>2023-05-17T10:56:52Z</time>
</trkpt>
<trkpt lat="49.06871795654297" lon="8.686339929699898">
<ele>176.60000000000002</ele>
<time>2023-05-17T10:56:53Z</time>
</trkpt>
<trkpt lat="49.06867696903646" lon="8.68628192692995">
<ele>176.60000000000002</ele>
<time>2023-05-17T10:56:54Z</time>
</trkpt>
<trkpt lat="49.06863799318671" lon="8.686219984665513">
<ele>176.60000000000002</ele>
<time>2023-05-17T10:56:55Z</time>
</trkpt>
<trkpt lat="49.06859792768955" lon="8.686164999380708">
<ele>176.39999999999998</ele>
<time>2023-05-17T10:56:56Z</time>
</trkpt>
<trkpt lat="49.068559957668185" lon="8.68610791862011">
<ele>176.39999999999998</ele>
<time>2023-05-17T10:56:57Z</time>
</trkpt>
<trkpt lat="49.06852492131293" lon="8.686047988012433">
<ele>176.39999999999998</ele>
<time>2023-05-17T10:56:58Z</time>
</trkpt>
<trkpt lat="49.068492986261845" lon="8.685981938615441">
<ele>176.39999999999998</ele>
<time>2023-05-17T10:56:59Z</time>
</trkpt>
<trkpt lat="49.06846297904849" lon="8.6859149672091">
<ele>176.20000000000005</ele>
<time>2023-05-17T10:57:00Z</time>
</trkpt>
<trkpt lat="49.068432971835136" lon="8.68584698997438">
<ele>176.20000000000005</ele>
<time>2023-05-17T10:57:01Z</time>
</trkpt>
<trkpt lat="49.06840497627854" lon="8.685779934749007">
<ele>176.20000000000005</ele>
<time>2023-05-17T10:57:02Z</time>
</trkpt>
<trkpt lat="49.06837698072195" lon="8.685711957514286">
<ele>176</ele>
<time>2023-05-17T10:57:03Z</time>
</trkpt>
<trkpt lat="49.06835191883147" lon="8.685637945309281">
<ele>176</ele>
<time>2023-05-17T10:57:04Z</time>
</trkpt>
<trkpt lat="49.06832995824516" lon="8.685564938932657">
<ele>176</ele>
<time>2023-05-17T10:57:05Z</time>
</trkpt>
<trkpt lat="49.06830992549658" lon="8.685489920899272">
<ele>175.79999999999995</ele>
<time>2023-05-17T10:57:06Z</time>
</trkpt>
<trkpt lat="49.06828997656703" lon="8.685409957543015">
<ele>175.79999999999995</ele>
<time>2023-05-17T10:57:07Z</time>
</trkpt>
<trkpt lat="49.06827195547521" lon="8.685332927852869">
<ele>175.79999999999995</ele>
<time>2023-05-17T10:57:08Z</time>
</trkpt>
<trkpt lat="49.06825292855501" lon="8.685254976153374">
<ele>175.79999999999995</ele>
<time>2023-05-17T10:57:09Z</time>
</trkpt>
<trkpt lat="49.068234991282225" lon="8.68518196977675">
<ele>175.60000000000002</ele>
<time>2023-05-17T10:57:10Z</time>
</trkpt>
<trkpt lat="49.068216970190406" lon="8.685102928429842">
<ele>175.60000000000002</ele>
<time>2023-05-17T10:57:11Z</time>
</trkpt>
<trkpt lat="49.06820196658373" lon="8.685021959245205">
<ele>175.39999999999998</ele>
<time>2023-05-17T10:57:12Z</time>
</trkpt>
<trkpt lat="49.06818193383515" lon="8.684939984232187">
<ele>175.39999999999998</ele>
<time>2023-05-17T10:57:13Z</time>
</trkpt>
<trkpt lat="49.0681619849056" lon="8.684859937056899">
<ele>175.20000000000005</ele>
<time>2023-05-17T10:57:14Z</time>
</trkpt>
<trkpt lat="49.06814496964216" lon="8.684781985357404">
<ele>175.20000000000005</ele>
<time>2023-05-17T10:57:15Z</time>
</trkpt>
<trkpt lat="49.068129966035485" lon="8.684701938182116">
<ele>175</ele>
<time>2023-05-17T10:57:16Z</time>
</trkpt>
<trkpt lat="49.06811194494367" lon="8.68462298065424">
<ele>175</ele>
<time>2023-05-17T10:57:17Z</time>
</trkpt>
<trkpt lat="49.06809492968023" lon="8.684542933478951">
<ele>175</ele>
<time>2023-05-17T10:57:18Z</time>
</trkpt>
<trkpt lat="49.06807799823582" lon="8.684466993436217">
<ele>174.79999999999995</ele>
<time>2023-05-17T10:57:19Z</time>
</trkpt>
<trkpt lat="49.068061988800764" lon="8.68438795208931">
<ele>174.79999999999995</ele>
<time>2023-05-17T10:57:20Z</time>
</trkpt>
<trkpt lat="49.068044973537326" lon="8.684312934055924">
<ele>174.60000000000002</ele>
<time>2023-05-17T10:57:21Z</time>
</trkpt>
<trkpt lat="49.06803198158741" lon="8.684234982356429">
<ele>174.60000000000002</ele>
<time>2023-05-17T10:57:22Z</time>
</trkpt>
<trkpt lat="49.06801496632397" lon="8.684161975979805">
<ele>174.39999999999998</ele>
<time>2023-05-17T10:57:23Z</time>
</trkpt>
<trkpt lat="49.06799795106053" lon="8.684084946289659">
<ele>174.39999999999998</ele>
<time>2023-05-17T10:57:24Z</time>
</trkpt>
<trkpt lat="49.06798294745386" lon="8.684004982933402">
<ele>174.20000000000005</ele>
<time>2023-05-17T10:57:25Z</time>
</trkpt>
<trkpt lat="49.0679669380188" lon="8.683924935758114">
<ele>174.20000000000005</ele>
<time>2023-05-17T10:57:26Z</time>
</trkpt>
<trkpt lat="49.06794992275536" lon="8.683847989887">
<ele>174</ele>
<time>2023-05-17T10:57:27Z</time>
</trkpt>
<trkpt lat="49.06793491914868" lon="8.683769954368472">
<ele>174</ele>
<time>2023-05-17T10:57:28Z</time>
</trkpt>
<trkpt lat="49.06791798770428" lon="8.683691918849945">
<ele>173.79999999999995</ele>
<time>2023-05-17T10:57:29Z</time>
</trkpt>
<trkpt lat="49.06790197826922" lon="8.68361497297883">
<ele>173.79999999999995</ele>
<time>2023-05-17T10:57:30Z</time>
</trkpt>
<trkpt lat="49.067889992147684" lon="8.683534925803542">
<ele>173.60000000000002</ele>
<time>2023-05-17T10:57:31Z</time>
</trkpt>
<trkpt lat="49.06787498854101" lon="8.683452950790524">
<ele>173.60000000000002</ele>
<time>2023-05-17T10:57:32Z</time>
</trkpt>
<trkpt lat="49.06785495579243" lon="8.68337499909103">
<ele>173.60000000000002</ele>
<time>2023-05-17T10:57:33Z</time>
</trkpt>
<trkpt lat="49.06783693470061" lon="8.683299981057644">
<ele>173.39999999999998</ele>
<time>2023-05-17T10:57:34Z</time>
</trkpt>
<trkpt lat="49.06782193109393" lon="8.683222951367497">
<ele>173.39999999999998</ele>
<time>2023-05-17T10:57:35Z</time>
</trkpt>
<trkpt lat="49.067807933315635" lon="8.68314198218286">
<ele>173.39999999999998</ele>
<time>2023-05-17T10:57:36Z</time>
</trkpt>
<trkpt lat="49.06779292970896" lon="8.683062940835953">
<ele>173.20000000000005</ele>
<time>2023-05-17T10:57:37Z</time>
</trkpt>
<trkpt lat="49.0677769202739" lon="8.682984989136457">
<ele>173.20000000000005</ele>
<time>2023-05-17T10:57:38Z</time>
</trkpt>
<trkpt lat="49.06775998882949" lon="8.682907959446311">
<ele>173.20000000000005</ele>
<time>2023-05-17T10:57:39Z</time>
</trkpt>
<trkpt lat="49.067742973566055" lon="8.682831935584545">
<ele>173</ele>
<time>2023-05-17T10:57:40Z</time>
</trkpt>
<trkpt lat="49.06772796995938" lon="8.682747948914766">
<ele>173</ele>
<time>2023-05-17T10:57:41Z</time>
</trkpt>
<trkpt lat="49.06771196052432" lon="8.682662956416607">
<ele>173</ele>
<time>2023-05-17T10:57:42Z</time>
</trkpt>
<trkpt lat="49.06769293360412" lon="8.682577963918447">
<ele>172.79999999999995</ele>
<time>2023-05-17T10:57:43Z</time>
</trkpt>
<trkpt lat="49.067677929997444" lon="8.682492971420288">
<ele>172.79999999999995</ele>
<time>2023-05-17T10:57:44Z</time>
</trkpt>
<trkpt lat="49.06765999272466" lon="8.682407978922129">
<ele>172.79999999999995</ele>
<time>2023-05-17T10:57:45Z</time>
</trkpt>
<trkpt lat="49.06764197163284" lon="8.68232499808073">
<ele>172.60000000000002</ele>
<time>2023-05-17T10:57:46Z</time>
</trkpt>
<trkpt lat="49.06762193888426" lon="8.682246962562203">
<ele>172.60000000000002</ele>
<time>2023-05-17T10:57:47Z</time>
</trkpt>
<trkpt lat="49.06760299578309" lon="8.682171944528818">
<ele>172.39999999999998</ele>
<time>2023-05-17T10:57:48Z</time>
</trkpt>
<trkpt lat="49.067591931670904" lon="8.682091981172562">
<ele>172.39999999999998</ele>
<time>2023-05-17T10:57:49Z</time>
</trkpt>
<trkpt lat="49.06758799217641" lon="8.682011933997273">
<ele>172.39999999999998</ele>
<time>2023-05-17T10:57:50Z</time>
</trkpt>
<trkpt lat="49.06760299578309" lon="8.68193699978292">
<ele>172.20000000000005</ele>
<time>2023-05-17T10:57:51Z</time>
</trkpt>
<trkpt lat="49.067636942490935" lon="8.681876985356212">
<ele>172.20000000000005</ele>
<time>2023-05-17T10:57:52Z</time>
</trkpt>
<trkpt lat="49.067679941654205" lon="8.681836919859052">
<ele>172</ele>
<time>2023-05-17T10:57:53Z</time>
</trkpt>
<trkpt lat="49.06772495247424" lon="8.68180993013084">
<ele>172</ele>
<time>2023-05-17T10:57:54Z</time>
</trkpt>
<trkpt lat="49.067764934152365" lon="8.681782940402627">
<ele>172</ele>
<time>2023-05-17T10:57:55Z</time>
</trkpt>
<trkpt lat="49.067806927487254" lon="8.681757962331176">
<ele>172</ele>
<time>2023-05-17T10:57:56Z</time>
</trkpt>
<trkpt lat="49.06784498132765" lon="8.681739941239357">
<ele>172</ele>
<time>2023-05-17T10:57:57Z</time>
</trkpt>
<trkpt lat="49.06788295134902" lon="8.681721920147538">
<ele>171.79999999999995</ele>
<time>2023-05-17T10:57:58Z</time>
</trkpt>
<trkpt lat="49.06792192719877" lon="8.68170297704637">
<ele>171.79999999999995</ele>
<time>2023-05-17T10:57:59Z</time>
</trkpt>
<trkpt lat="49.067956963554025" lon="8.681686967611313">
<ele>171.79999999999995</ele>
<time>2023-05-17T10:58:00Z</time>
</trkpt>
<trkpt lat="49.06798797659576" lon="8.681669952347875">
<ele>171.79999999999995</ele>
<time>2023-05-17T10:58:01Z</time>
</trkpt>
<trkpt lat="49.068022929131985" lon="8.681646985933185">
<ele>171.60000000000002</ele>
<time>2023-05-17T10:58:02Z</time>
</trkpt>
<trkpt lat="49.0680549480021" lon="8.681627959012985">
<ele>171.60000000000002</ele>
<time>2023-05-17T10:58:03Z</time>
</trkpt>
<trkpt lat="49.068086966872215" lon="8.68161496706307">
<ele>171.60000000000002</ele>
<time>2023-05-17T10:58:04Z</time>
</trkpt>
<trkpt lat="49.06811496242881" lon="8.681604992598295">
<ele>171.39999999999998</ele>
<time>2023-05-17T10:58:05Z</time>
</trkpt>
<trkpt lat="49.0681429579854" lon="8.681592922657728">
<ele>171.39999999999998</ele>
<time>2023-05-17T10:58:06Z</time>
</trkpt>
<trkpt lat="49.06816994771361" lon="8.681584959849715">
<ele>171.39999999999998</ele>
<time>2023-05-17T10:58:07Z</time>
</trkpt>
<trkpt lat="49.068192997947335" lon="8.681576997041702">
<ele>171.39999999999998</ele>
<time>2023-05-17T10:58:08Z</time>
</trkpt>
<trkpt lat="49.068216970190406" lon="8.681562999263406">
<ele>171.39999999999998</ele>
<time>2023-05-17T10:58:09Z</time>
</trkpt>
<trkpt lat="49.068239936605096" lon="8.681546989828348">
<ele>171.39999999999998</ele>
<time>2023-05-17T10:58:10Z</time>
</trkpt>
<trkpt lat="49.06826499849558" lon="8.681527962908149">
<ele>171.39999999999998</ele>
<time>2023-05-17T10:58:11Z</time>
</trkpt>
<trkpt lat="49.06828796491027" lon="8.681502984836698">
<ele>171.39999999999998</ele>
<time>2023-05-17T10:58:12Z</time>
</trkpt>
<trkpt lat="49.06830992549658" lon="8.681472977623343">
<ele>171.20000000000005</ele>
<time>2023-05-17T10:58:13Z</time>
</trkpt>
<trkpt lat="49.068324929103255" lon="8.681436935439706">
<ele>171.20000000000005</ele>
<time>2023-05-17T10:58:14Z</time>
</trkpt>
<trkpt lat="49.0683329757303" lon="8.681396953761578">
<ele>171.20000000000005</ele>
<time>2023-05-17T10:58:15Z</time>
</trkpt>
<trkpt lat="49.0683329757303" lon="8.681352948769927">
<ele>171.20000000000005</ele>
<time>2023-05-17T10:58:16Z</time>
</trkpt>
<trkpt lat="49.068322917446494" lon="8.681306932121515">
<ele>171.20000000000005</ele>
<time>2023-05-17T10:58:17Z</time>
</trkpt>
<trkpt lat="49.06830498017371" lon="8.681264938786626">
<ele>171.20000000000005</ele>
<time>2023-05-17T10:58:18Z</time>
</trkpt>
<trkpt lat="49.068282935768366" lon="8.681226968765259">
<ele>171.20000000000005</ele>
<time>2023-05-17T10:58:19Z</time>
</trkpt>
<trkpt lat="49.068257957696915" lon="8.681177934631705">
<ele>171</ele>
<time>2023-05-17T10:58:20Z</time>
</trkpt>
<trkpt lat="49.06822795048356" lon="8.681117920204997">
<ele>171</ele>
<time>2023-05-17T10:58:21Z</time>
</trkpt>
<trkpt lat="49.06819794327021" lon="8.68105991743505">
<ele>171</ele>
<time>2023-05-17T10:58:22Z</time>
</trkpt>
<trkpt lat="49.06816299073398" lon="8.681006943807006">
<ele>171</ele>
<time>2023-05-17T10:58:23Z</time>
</trkpt>
<trkpt lat="49.06812493689358" lon="8.6809519585222">
<ele>171</ele>
<time>2023-05-17T10:58:24Z</time>
</trkpt>
<trkpt lat="49.068086966872215" lon="8.680896973237395">
<ele>171</ele>
<time>2023-05-17T10:58:25Z</time>
</trkpt>
<trkpt lat="49.0680499188602" lon="8.680834947153926">
<ele>171</ele>
<time>2023-05-17T10:58:26Z</time>
</trkpt>
<trkpt lat="49.06801798380911" lon="8.680776944383979">
<ele>171</ele>
<time>2023-05-17T10:58:27Z</time>
</trkpt>
<trkpt lat="49.06798797659576" lon="8.680719947442412">
<ele>171</ele>
<time>2023-05-17T10:58:28Z</time>
</trkpt>
<trkpt lat="49.067957969382405" lon="8.680662950500846">
<ele>171</ele>
<time>2023-05-17T10:58:29Z</time>
</trkpt>
<trkpt lat="49.067932991310954" lon="8.680609976872802">
<ele>171</ele>
<time>2023-05-17T10:58:30Z</time>
</trkpt>
<trkpt lat="49.06790692359209" lon="8.680559936910868">
<ele>171</ele>
<time>2023-05-17T10:58:31Z</time>
</trkpt>
<trkpt lat="49.06788798049092" lon="8.680511992424726">
<ele>170.79999999999995</ele>
<time>2023-05-17T10:58:32Z</time>
</trkpt>
<trkpt lat="49.06787792220712" lon="8.68045692332089">
<ele>170.79999999999995</ele>
<time>2023-05-17T10:58:33Z</time>
</trkpt>
<trkpt lat="49.06787993386388" lon="8.680399926379323">
<ele>170.79999999999995</ele>
<time>2023-05-17T10:58:34Z</time>
</trkpt>
<trkpt lat="49.067889992147684" lon="8.680341923609376">
<ele>170.79999999999995</ele>
<time>2023-05-17T10:58:35Z</time>
</trkpt>
<trkpt lat="49.06790197826922" lon="8.68028299883008">
<ele>170.79999999999995</ele>
<time>2023-05-17T10:58:36Z</time>
</trkpt>
<trkpt lat="49.067914970219135" lon="8.680224996060133">
<ele>170.60000000000002</ele>
<time>2023-05-17T10:58:37Z</time>
</trkpt>
<trkpt lat="49.06792695634067" lon="8.680161964148283">
<ele>170.60000000000002</ele>
<time>2023-05-17T10:58:38Z</time>
</trkpt>
<trkpt lat="49.067937936633825" lon="8.680096920579672">
<ele>170.60000000000002</ele>
<time>2023-05-17T10:58:39Z</time>
</trkpt>
<trkpt lat="49.06795495189726" lon="8.680032966658473">
<ele>170.39999999999998</ele>
<time>2023-05-17T10:58:40Z</time>
</trkpt>
<trkpt lat="49.06797297298908" lon="8.679971946403384">
<ele>170.39999999999998</ele>
<time>2023-05-17T10:58:41Z</time>
</trkpt>
<trkpt lat="49.06799292191863" lon="8.679904974997044">
<ele>170.39999999999998</ele>
<time>2023-05-17T10:58:42Z</time>
</trkpt>
<trkpt lat="49.06801194883883" lon="8.679836997762322">
<ele>170.20000000000005</ele>
<time>2023-05-17T10:58:43Z</time>
</trkpt>
<trkpt lat="49.06802996993065" lon="8.679764997214079">
<ele>170.20000000000005</ele>
<time>2023-05-17T10:58:44Z</time>
</trkpt>
<trkpt lat="49.06804698519409" lon="8.679691990837455">
<ele>170</ele>
<time>2023-05-17T10:58:45Z</time>
</trkpt>
<trkpt lat="49.068062994629145" lon="8.67961697280407">
<ele>170</ele>
<time>2023-05-17T10:58:46Z</time>
</trkpt>
<trkpt lat="49.06808294355869" lon="8.679546983912587">
<ele>169.79999999999995</ele>
<time>2023-05-17T10:58:47Z</time>
</trkpt>
<trkpt lat="49.06810197047889" lon="8.679477917030454">
<ele>169.79999999999995</ele>
<time>2023-05-17T10:58:48Z</time>
</trkpt>
<trkpt lat="49.06811797991395" lon="8.679409939795732">
<ele>169.79999999999995</ele>
<time>2023-05-17T10:58:49Z</time>
</trkpt>
<trkpt lat="49.068131977692246" lon="8.679342968389392">
<ele>169.60000000000002</ele>
<time>2023-05-17T10:58:50Z</time>
</trkpt>
<trkpt lat="49.068147987127304" lon="8.6792769189924">
<ele>169.60000000000002</ele>
<time>2023-05-17T10:58:51Z</time>
</trkpt>
<trkpt lat="49.06816491857171" lon="8.67921195924282">
<ele>169.60000000000002</ele>
<time>2023-05-17T10:58:52Z</time>
</trkpt>
<trkpt lat="49.06818293966353" lon="8.679141970351338">
<ele>169.60000000000002</ele>
<time>2023-05-17T10:58:53Z</time>
</trkpt>
<trkpt lat="49.06820196658373" lon="8.679072987288237">
<ele>169.60000000000002</ele>
<time>2023-05-17T10:58:54Z</time>
</trkpt>
<trkpt lat="49.06821998767555" lon="8.679009955376387">
<ele>169.60000000000002</ele>
<time>2023-05-17T10:58:55Z</time>
</trkpt>
<trkpt lat="49.068239936605096" lon="8.678947929292917">
<ele>169.39999999999998</ele>
<time>2023-05-17T10:58:56Z</time>
</trkpt>
<trkpt lat="49.068259969353676" lon="8.678884981200099">
<ele>169.39999999999998</ele>
<time>2023-05-17T10:58:57Z</time>
</trkpt>
<trkpt lat="49.068281929939985" lon="8.678817925974727">
<ele>169.39999999999998</ele>
<time>2023-05-17T10:58:58Z</time>
</trkpt>
<trkpt lat="49.068301962688565" lon="8.678751960396767">
<ele>169.39999999999998</ele>
<time>2023-05-17T10:58:59Z</time>
</trkpt>
<trkpt lat="49.068322917446494" lon="8.678684988990426">
<ele>169.39999999999998</ele>
<time>2023-05-17T10:59:00Z</time>
</trkpt>
<trkpt lat="49.068342950195074" lon="8.678619945421815">
<ele>169.39999999999998</ele>
<time>2023-05-17T10:59:01Z</time>
</trkpt>
<trkpt lat="49.06835795380175" lon="8.678557919338346">
<ele>169.39999999999998</ele>
<time>2023-05-17T10:59:02Z</time>
</trkpt>
<trkpt lat="49.06837798655033" lon="8.678487930446863">
<ele>169.39999999999998</ele>
<time>2023-05-17T10:59:03Z</time>
</trkpt>
<trkpt lat="49.06839491799474" lon="8.678422970697284">
<ele>169.39999999999998</ele>
<time>2023-05-17T10:59:04Z</time>
</trkpt>
<trkpt lat="49.068409921601415" lon="8.678359938785434">
<ele>169.39999999999998</ele>
<time>2023-05-17T10:59:05Z</time>
</trkpt>
<trkpt lat="49.06842299737036" lon="8.678302941843867">
<ele>169.39999999999998</ele>
<time>2023-05-17T10:59:06Z</time>
</trkpt>
<trkpt lat="49.068429954349995" lon="8.678251979872584">
<ele>169.39999999999998</ele>
<time>2023-05-17T10:59:07Z</time>
</trkpt>
<trkpt lat="49.06843791715801" lon="8.67820193991065">
<ele>169.39999999999998</ele>
<time>2023-05-17T10:59:08Z</time>
</trkpt>
<trkpt lat="49.068449987098575" lon="8.678151983767748">
<ele>169.60000000000002</ele>
<time>2023-05-17T10:59:09Z</time>
</trkpt>
<trkpt lat="49.06846691854298" lon="8.678102949634194">
<ele>169.60000000000002</ele>
<time>2023-05-17T10:59:10Z</time>
</trkpt>
<trkpt lat="49.06848292797804" lon="8.678054921329021">
<ele>169.60000000000002</ele>
<time>2023-05-17T10:59:11Z</time>
</trkpt>
<trkpt lat="49.06850296072662" lon="8.677989961579442">
<ele>169.60000000000002</ele>
<time>2023-05-17T10:59:12Z</time>
</trkpt>
<trkpt lat="49.068517964333296" lon="8.677926929667592">
<ele>169.60000000000002</ele>
<time>2023-05-17T10:59:13Z</time>
</trkpt>
<trkpt lat="49.06853196211159" lon="8.677859958261251">
<ele>169.60000000000002</ele>
<time>2023-05-17T10:59:14Z</time>
</trkpt>
<trkpt lat="49.06854294240475" lon="8.677794998511672">
<ele>169.39999999999998</ele>
<time>2023-05-17T10:59:15Z</time>
</trkpt>
<trkpt lat="49.068559957668185" lon="8.67772995494306">
<ele>169.39999999999998</ele>
<time>2023-05-17T10:59:16Z</time>
</trkpt>
<trkpt lat="49.068577978760004" lon="8.677659966051579">
<ele>169.39999999999998</ele>
<time>2023-05-17T10:59:17Z</time>
</trkpt>
<trkpt lat="49.06859499402344" lon="8.67759793996811">
<ele>169.39999999999998</ele>
<time>2023-05-17T10:59:18Z</time>
</trkpt>
<trkpt lat="49.06860999763012" lon="8.67753197439015">
<ele>169.20000000000005</ele>
<time>2023-05-17T10:59:19Z</time>
</trkpt>
<trkpt lat="49.068621983751655" lon="8.677462991327047">
<ele>169.20000000000005</ele>
<time>2023-05-17T10:59:20Z</time>
</trkpt>
<trkpt lat="49.06863698735833" lon="8.677394930273294">
<ele>169</ele>
<time>2023-05-17T10:59:21Z</time>
</trkpt>
<trkpt lat="49.06865492463112" lon="8.677336927503347">
<ele>169</ele>
<time>2023-05-17T10:59:22Z</time>
</trkpt>
<trkpt lat="49.06867797486484" lon="8.67727498523891">
<ele>169</ele>
<time>2023-05-17T10:59:23Z</time>
</trkpt>
<trkpt lat="49.06870496459305" lon="8.677219999954104">
<ele>169</ele>
<time>2023-05-17T10:59:24Z</time>
</trkpt>
<trkpt lat="49.06873497180641" lon="8.67716794833541">
<ele>168.79999999999995</ele>
<time>2023-05-17T10:59:25Z</time>
</trkpt>
<trkpt lat="49.0687679965049" lon="8.6771269608289">
<ele>168.79999999999995</ele>
<time>2023-05-17T10:59:26Z</time>
</trkpt>
<trkpt lat="49.06880294904113" lon="8.677084967494011">
<ele>168.79999999999995</ele>
<time>2023-05-17T10:59:27Z</time>
</trkpt>
<trkpt lat="49.068836979568005" lon="8.677041968330741">
<ele>168.79999999999995</ele>
<time>2023-05-17T10:59:28Z</time>
</trkpt>
<trkpt lat="49.06887293793261" lon="8.67699695751071">
<ele>168.79999999999995</ele>
<time>2023-05-17T10:59:29Z</time>
</trkpt>
<trkpt lat="49.06890998594463" lon="8.676949935033917">
<ele>168.79999999999995</ele>
<time>2023-05-17T10:59:30Z</time>
</trkpt>
<trkpt lat="49.06894192099571" lon="8.676892938092351">
<ele>168.79999999999995</ele>
<time>2023-05-17T10:59:31Z</time>
</trkpt>
<trkpt lat="49.068971928209066" lon="8.676814986392856">
<ele>168.79999999999995</ele>
<time>2023-05-17T10:59:32Z</time>
</trkpt>
<trkpt lat="49.068991960957646" lon="8.676731921732426">
<ele>168.79999999999995</ele>
<time>2023-05-17T10:59:33Z</time>
</trkpt>
<trkpt lat="49.06900696456432" lon="8.676647935062647">
<ele>168.60000000000002</ele>
<time>2023-05-17T10:59:34Z</time>
</trkpt>
<trkpt lat="49.06901995651424" lon="8.676561936736107">
<ele>168.39999999999998</ele>
<time>2023-05-17T10:59:35Z</time>
</trkpt>
<trkpt lat="49.06902993097901" lon="8.676476944237947">
<ele>168.39999999999998</ele>
<time>2023-05-17T10:59:36Z</time>
</trkpt>
<trkpt lat="49.06904493458569" lon="8.676384994760156">
<ele>168.20000000000005</ele>
<time>2023-05-17T10:59:37Z</time>
</trkpt>
<trkpt lat="49.069057926535606" lon="8.676299918442965">
<ele>168.20000000000005</ele>
<time>2023-05-17T10:59:38Z</time>
</trkpt>
<trkpt lat="49.06906999647617" lon="8.676217943429947">
<ele>168</ele>
<time>2023-05-17T10:59:39Z</time>
</trkpt>
<trkpt lat="49.06908198259771" lon="8.67613697424531">
<ele>168</ele>
<time>2023-05-17T10:59:40Z</time>
</trkpt>
<trkpt lat="49.06909195706248" lon="8.67604997009039">
<ele>168</ele>
<time>2023-05-17T10:59:41Z</time>
</trkpt>
<trkpt lat="49.06910193152726" lon="8.675959948450327">
<ele>167.79999999999995</ele>
<time>2023-05-17T10:59:42Z</time>
</trkpt>
<trkpt lat="49.06911198981106" lon="8.675869926810265">
<ele>167.79999999999995</ele>
<time>2023-05-17T10:59:43Z</time>
</trkpt>
<trkpt lat="49.069119952619076" lon="8.675779988989234">
<ele>167.79999999999995</ele>
<time>2023-05-17T10:59:44Z</time>
</trkpt>
<trkpt lat="49.06912699341774" lon="8.675692984834313">
<ele>167.79999999999995</ele>
<time>2023-05-17T10:59:45Z</time>
</trkpt>
<trkpt lat="49.06913495622575" lon="8.675606986507773">
<ele>167.60000000000002</ele>
<time>2023-05-17T10:59:46Z</time>
</trkpt>
<trkpt lat="49.06914493069053" lon="8.675517970696092">
<ele>167.60000000000002</ele>
<time>2023-05-17T10:59:47Z</time>
</trkpt>
<trkpt lat="49.069159934297204" lon="8.675422919914126">
<ele>167.60000000000002</ele>
<time>2023-05-17T10:59:48Z</time>
</trkpt>
<trkpt lat="49.06917192041874" lon="8.675337927415967">
<ele>167.60000000000002</ele>
<time>2023-05-17T10:59:49Z</time>
</trkpt>
<trkpt lat="49.0691879298538" lon="8.67525695823133">
<ele>167.39999999999998</ele>
<time>2023-05-17T10:59:50Z</time>
</trkpt>
<trkpt lat="49.069202933460474" lon="8.675179928541183">
<ele>167.39999999999998</ele>
<time>2023-05-17T10:59:51Z</time>
</trkpt>
<trkpt lat="49.06922196038067" lon="8.675102982670069">
<ele>167.39999999999998</ele>
<time>2023-05-17T10:59:52Z</time>
</trkpt>
<trkpt lat="49.06924199312925" lon="8.675027964636683">
<ele>167.39999999999998</ele>
<time>2023-05-17T10:59:53Z</time>
</trkpt>
<trkpt lat="49.06926294788718" lon="8.674952946603298">
<ele>167.39999999999998</ele>
<time>2023-05-17T10:59:54Z</time>
</trkpt>
<trkpt lat="49.06928499229252" lon="8.674879940226674">
<ele>167.39999999999998</ele>
<time>2023-05-17T10:59:55Z</time>
</trkpt>
<trkpt lat="49.069309970363975" lon="8.67480299435556">
<ele>167.39999999999998</ele>
<time>2023-05-17T10:59:56Z</time>
</trkpt>
<trkpt lat="49.06933997757733" lon="8.674734933301806">
<ele>167.20000000000005</ele>
<time>2023-05-17T10:59:57Z</time>
</trkpt>
<trkpt lat="49.06936998479068" lon="8.674669973552227">
<ele>167.20000000000005</ele>
<time>2023-05-17T10:59:58Z</time>
</trkpt>
<trkpt lat="49.06940493732691" lon="8.674602918326855">
<ele>167.20000000000005</ele>
<time>2023-05-17T10:59:59Z</time>
</trkpt>
<trkpt lat="49.06944299116731" lon="8.674536952748895">
<ele>167.20000000000005</ele>
<time>2023-05-17T11:00:00Z</time>
</trkpt>
<trkpt lat="49.06947995536029" lon="8.674476938322186">
<ele>167.20000000000005</ele>
<time>2023-05-17T11:00:01Z</time>
</trkpt>
<trkpt lat="49.06951792538166" lon="8.674414996057749">
<ele>167.20000000000005</ele>
<time>2023-05-17T11:00:02Z</time>
</trkpt>
<trkpt lat="49.06955799087882" lon="8.674356993287802">
<ele>167.20000000000005</ele>
<time>2023-05-17T11:00:03Z</time>
</trkpt>
<trkpt lat="49.06959998421371" lon="8.674296978861094">
<ele>167.20000000000005</ele>
<time>2023-05-17T11:00:04Z</time>
</trkpt>
<trkpt lat="49.0696419775486" lon="8.674236964434385">
<ele>167.20000000000005</ele>
<time>2023-05-17T11:00:05Z</time>
</trkpt>
<trkpt lat="49.06968497671187" lon="8.674174938350916">
<ele>167</ele>
<time>2023-05-17T11:00:06Z</time>
</trkpt>
<trkpt lat="49.06972697004676" lon="8.674116935580969">
<ele>167</ele>
<time>2023-05-17T11:00:07Z</time>
</trkpt>
<trkpt lat="49.06976996921003" lon="8.674061950296164">
<ele>167</ele>
<time>2023-05-17T11:00:08Z</time>
</trkpt>
<trkpt lat="49.06980995088816" lon="8.674002941697836">
<ele>167</ele>
<time>2023-05-17T11:00:09Z</time>
</trkpt>
<trkpt lat="49.069849932566285" lon="8.673942927271128">
<ele>167</ele>
<time>2023-05-17T11:00:10Z</time>
</trkpt>
<trkpt lat="49.069892931729555" lon="8.67388199083507">
<ele>167</ele>
<time>2023-05-17T11:00:11Z</time>
</trkpt>
<trkpt lat="49.069936936721206" lon="8.673821976408362">
<ele>167</ele>
<time>2023-05-17T11:00:12Z</time>
</trkpt>
<trkpt lat="49.06997297890484" lon="8.67375198751688">
<ele>167</ele>
<time>2023-05-17T11:00:13Z</time>
</trkpt>
<trkpt lat="49.07000994309783" lon="8.673674957826734">
<ele>166.79999999999995</ele>
<time>2023-05-17T11:00:14Z</time>
</trkpt>
<trkpt lat="49.070041961967945" lon="8.673594994470477">
<ele>166.79999999999995</ele>
<time>2023-05-17T11:00:15Z</time>
</trkpt>
<trkpt lat="49.07006995752454" lon="8.673511929810047">
<ele>166.79999999999995</ele>
<time>2023-05-17T11:00:16Z</time>
</trkpt>
<trkpt lat="49.07009493559599" lon="8.673422997817397">
<ele>166.60000000000002</ele>
<time>2023-05-17T11:00:17Z</time>
</trkpt>
<trkpt lat="49.07011698000133" lon="8.673327947035432">
<ele>166.60000000000002</ele>
<time>2023-05-17T11:00:18Z</time>
</trkpt>
<trkpt lat="49.07013491727412" lon="8.673227950930595">
<ele>166.39999999999998</ele>
<time>2023-05-17T11:00:19Z</time>
</trkpt>
<trkpt lat="49.07014497555792" lon="8.673122925683856">
<ele>166.20000000000005</ele>
<time>2023-05-17T11:00:20Z</time>
</trkpt>
<trkpt lat="49.070151932537556" lon="8.673016978427768">
<ele>166</ele>
<time>2023-05-17T11:00:21Z</time>
</trkpt>
<trkpt lat="49.070152938365936" lon="8.672907929867506">
<ele>165.79999999999995</ele>
<time>2023-05-17T11:00:22Z</time>
</trkpt>
<trkpt lat="49.070146987214684" lon="8.672802988439798">
<ele>165.60000000000002</ele>
<time>2023-05-17T11:00:23Z</time>
</trkpt>
<trkpt lat="49.07013298943639" lon="8.672702992334962">
<ele>165.39999999999998</ele>
<time>2023-05-17T11:00:24Z</time>
</trkpt>
<trkpt lat="49.07011698000133" lon="8.672606935724616">
<ele>165.20000000000005</ele>
<time>2023-05-17T11:00:25Z</time>
</trkpt>
<trkpt lat="49.07009694725275" lon="8.672514986246824">
<ele>165</ele>
<time>2023-05-17T11:00:26Z</time>
</trkpt>
<trkpt lat="49.07007297500968" lon="8.672424964606762">
<ele>164.79999999999995</ele>
<time>2023-05-17T11:00:27Z</time>
</trkpt>
<trkpt lat="49.070041961967945" lon="8.67233695462346">
<ele>164.79999999999995</ele>
<time>2023-05-17T11:00:28Z</time>
</trkpt>
<trkpt lat="49.07001497223973" lon="8.672251962125301">
<ele>164.60000000000002</ele>
<time>2023-05-17T11:00:29Z</time>
</trkpt>
<trkpt lat="49.06998697668314" lon="8.672167975455523">
<ele>164.39999999999998</ele>
<time>2023-05-17T11:00:30Z</time>
</trkpt>
<trkpt lat="49.069956969469786" lon="8.67207795381546">
<ele>164.39999999999998</ele>
<time>2023-05-17T11:00:31Z</time>
</trkpt>
<trkpt lat="49.06992293894291" lon="8.671996984630823">
<ele>164.20000000000005</ele>
<time>2023-05-17T11:00:32Z</time>
</trkpt>
<trkpt lat="49.069887986406684" lon="8.671909980475903">
<ele>164</ele>
<time>2023-05-17T11:00:33Z</time>
</trkpt>
<trkpt lat="49.06985295005143" lon="8.671827921643853">
<ele>164</ele>
<time>2023-05-17T11:00:34Z</time>
</trkpt>
<trkpt lat="49.06981992535293" lon="8.671747958287597">
<ele>163.79999999999995</ele>
<time>2023-05-17T11:00:35Z</time>
</trkpt>
<trkpt lat="49.069784972816706" lon="8.67166992276907">
<ele>163.60000000000002</ele>
<time>2023-05-17T11:00:36Z</time>
</trkpt>
<trkpt lat="49.06974993646145" lon="8.671591971069574">
<ele>163.60000000000002</ele>
<time>2023-05-17T11:00:37Z</time>
</trkpt>
<trkpt lat="49.069716995581985" lon="8.671514941379428">
<ele>163.39999999999998</ele>
<time>2023-05-17T11:00:38Z</time>
</trkpt>
<trkpt lat="49.06968195922673" lon="8.671434978023171">
<ele>163.39999999999998</ele>
<time>2023-05-17T11:00:39Z</time>
</trkpt>
<trkpt lat="49.06964994035661" lon="8.671354930847883">
<ele>163.20000000000005</ele>
<time>2023-05-17T11:00:40Z</time>
</trkpt>
<trkpt lat="49.06961699947715" lon="8.671274967491627">
<ele>163.20000000000005</ele>
<time>2023-05-17T11:00:41Z</time>
</trkpt>
<trkpt lat="49.069587998092175" lon="8.671192992478609">
<ele>163</ele>
<time>2023-05-17T11:00:42Z</time>
</trkpt>
<trkpt lat="49.06956193037331" lon="8.67110799998045">
<ele>163</ele>
<time>2023-05-17T11:00:43Z</time>
</trkpt>
<trkpt lat="49.0695349406451" lon="8.671019989997149">
<ele>162.79999999999995</ele>
<time>2023-05-17T11:00:44Z</time>
</trkpt>
<trkpt lat="49.06951499171555" lon="8.670931980013847">
<ele>162.79999999999995</ele>
<time>2023-05-17T11:00:45Z</time>
</trkpt>
<trkpt lat="49.06949697062373" lon="8.670842964202166">
<ele>162.60000000000002</ele>
<time>2023-05-17T11:00:46Z</time>
</trkpt>
<trkpt lat="49.06948699615896" lon="8.670754954218864">
<ele>162.60000000000002</ele>
<time>2023-05-17T11:00:47Z</time>
</trkpt>
<trkpt lat="49.06947299838066" lon="8.670664932578802">
<ele>162.39999999999998</ele>
<time>2023-05-17T11:00:48Z</time>
</trkpt>
<trkpt lat="49.069462940096855" lon="8.670574994757771">
<ele>162.20000000000005</ele>
<time>2023-05-17T11:00:49Z</time>
</trkpt>
<trkpt lat="49.0694569889456" lon="8.67048497311771">
<ele>162.20000000000005</ele>
<time>2023-05-17T11:00:50Z</time>
</trkpt>
<trkpt lat="49.06944994814694" lon="8.670394951477647">
<ele>162.20000000000005</ele>
<time>2023-05-17T11:00:51Z</time>
</trkpt>
<trkpt lat="49.06944994814694" lon="8.670306941494346">
<ele>162</ele>
<time>2023-05-17T11:00:52Z</time>
</trkpt>
<trkpt lat="49.0694519598037" lon="8.670217925682664">
<ele>162</ele>
<time>2023-05-17T11:00:53Z</time>
</trkpt>
<trkpt lat="49.0694569889456" lon="8.670131927356124">
<ele>161.79999999999995</ele>
<time>2023-05-17T11:00:54Z</time>
</trkpt>
<trkpt lat="49.06946696341038" lon="8.670044923201203">
<ele>161.79999999999995</ele>
<time>2023-05-17T11:00:55Z</time>
</trkpt>
<trkpt lat="49.069481967017055" lon="8.669959930703044">
<ele>161.60000000000002</ele>
<time>2023-05-17T11:00:56Z</time>
</trkpt>
<trkpt lat="49.06949998810887" lon="8.669874938204885">
<ele>161.60000000000002</ele>
<time>2023-05-17T11:00:57Z</time>
</trkpt>
<trkpt lat="49.06952194869518" lon="8.66979698650539">
<ele>161.39999999999998</ele>
<time>2023-05-17T11:00:58Z</time>
</trkpt>
<trkpt lat="49.069546926766634" lon="8.669716939330101">
<ele>161.39999999999998</ele>
<time>2023-05-17T11:00:59Z</time>
</trkpt>
<trkpt lat="49.06957492232323" lon="8.669637981802225">
<ele>161.20000000000005</ele>
<time>2023-05-17T11:01:00Z</time>
</trkpt>
<trkpt lat="49.06960492953658" lon="8.669566987082362">
<ele>161.20000000000005</ele>
<time>2023-05-17T11:01:01Z</time>
</trkpt>
<trkpt lat="49.06963795423508" lon="8.669497920200229">
<ele>161</ele>
<time>2023-05-17T11:01:02Z</time>
</trkpt>
<trkpt lat="49.069677935913205" lon="8.66943497210741">
<ele>161</ele>
<time>2023-05-17T11:01:03Z</time>
</trkpt>
<trkpt lat="49.069719929248095" lon="8.66937194019556">
<ele>160.79999999999995</ele>
<time>2023-05-17T11:01:04Z</time>
</trkpt>
<trkpt lat="49.069762928411365" lon="8.669311925768852">
<ele>160.79999999999995</ele>
<time>2023-05-17T11:01:05Z</time>
</trkpt>
<trkpt lat="49.069807939231396" lon="8.669256940484047">
<ele>160.60000000000002</ele>
<time>2023-05-17T11:01:06Z</time>
</trkpt>
<trkpt lat="49.06985496170819" lon="8.669206984341145">
<ele>160.60000000000002</ele>
<time>2023-05-17T11:01:07Z</time>
</trkpt>
<trkpt lat="49.06990299001336" lon="8.669157950207591">
<ele>160.39999999999998</ele>
<time>2023-05-17T11:01:08Z</time>
</trkpt>
<trkpt lat="49.069956969469786" lon="8.669109921902418">
<ele>160.20000000000005</ele>
<time>2023-05-17T11:01:09Z</time>
</trkpt>
<trkpt lat="49.07000994309783" lon="8.669062983244658">
<ele>160.20000000000005</ele>
<time>2023-05-17T11:01:10Z</time>
</trkpt>
<trkpt lat="49.070064928382635" lon="8.669024929404259">
<ele>160</ele>
<time>2023-05-17T11:01:11Z</time>
</trkpt>
<trkpt lat="49.07011999748647" lon="8.668991988524795">
<ele>159.79999999999995</ele>
<time>2023-05-17T11:01:12Z</time>
</trkpt>
<trkpt lat="49.070172971114516" lon="8.668957957997918">
<ele>159.79999999999995</ele>
<time>2023-05-17T11:01:13Z</time>
</trkpt>
<trkpt lat="49.07022996805608" lon="8.668926944956183">
<ele>159.60000000000002</ele>
<time>2023-05-17T11:01:14Z</time>
</trkpt>
<trkpt lat="49.07028696499765" lon="8.668894926086068">
<ele>159.39999999999998</ele>
<time>2023-05-17T11:01:15Z</time>
</trkpt>
<trkpt lat="49.070341950282454" lon="8.668857961893082">
<ele>159.20000000000005</ele>
<time>2023-05-17T11:01:16Z</time>
</trkpt>
<trkpt lat="49.0703999530524" lon="8.668821919709444">
<ele>159.20000000000005</ele>
<time>2023-05-17T11:01:17Z</time>
</trkpt>
<trkpt lat="49.07045493833721" lon="8.6687879730016">
<ele>159</ele>
<time>2023-05-17T11:01:18Z</time>
</trkpt>
<trkpt lat="49.07050799578428" lon="8.668752936646342">
<ele>158.79999999999995</ele>
<time>2023-05-17T11:01:19Z</time>
</trkpt>
<trkpt lat="49.070557951927185" lon="8.668714966624975">
<ele>158.60000000000002</ele>
<time>2023-05-17T11:01:20Z</time>
</trkpt>
<trkpt lat="49.07060799188912" lon="8.668672973290086">
<ele>158.39999999999998</ele>
<time>2023-05-17T11:01:21Z</time>
</trkpt>
<trkpt lat="49.07065493054688" lon="8.668626956641674">
<ele>158.39999999999998</ele>
<time>2023-05-17T11:01:22Z</time>
</trkpt>
<trkpt lat="49.07069994136691" lon="8.668569959700108">
<ele>158.20000000000005</ele>
<time>2023-05-17T11:01:23Z</time>
</trkpt>
<trkpt lat="49.07074294053018" lon="8.668506927788258">
<ele>158</ele>
<time>2023-05-17T11:01:24Z</time>
</trkpt>
<trkpt lat="49.07078493386507" lon="8.668436938896775">
<ele>158</ele>
<time>2023-05-17T11:01:25Z</time>
</trkpt>
<trkpt lat="49.07081997022033" lon="8.668366950005293">
<ele>157.79999999999995</ele>
<time>2023-05-17T11:01:26Z</time>
</trkpt>
<trkpt lat="49.07084997743368" lon="8.668291931971908">
<ele>157.79999999999995</ele>
<time>2023-05-17T11:01:27Z</time>
</trkpt>
<trkpt lat="49.070876967161894" lon="8.668211968615651">
<ele>157.60000000000002</ele>
<time>2023-05-17T11:01:28Z</time>
</trkpt>
<trkpt lat="49.070899933576584" lon="8.668126976117492">
<ele>157.60000000000002</ele>
<time>2023-05-17T11:01:29Z</time>
</trkpt>
<trkpt lat="49.0709179546684" lon="8.668042989447713">
<ele>157.39999999999998</ele>
<time>2023-05-17T11:01:30Z</time>
</trkpt>
<trkpt lat="49.07093295827508" lon="8.667956991121173">
<ele>157.39999999999998</ele>
<time>2023-05-17T11:01:31Z</time>
</trkpt>
<trkpt lat="49.070944944396615" lon="8.667861940339208">
<ele>157.39999999999998</ele>
<time>2023-05-17T11:01:32Z</time>
</trkpt>
<trkpt lat="49.07095198519528" lon="8.667767979204655">
<ele>157.20000000000005</ele>
<time>2023-05-17T11:01:33Z</time>
</trkpt>
<trkpt lat="49.07095793634653" lon="8.667677957564592">
<ele>157.20000000000005</ele>
<time>2023-05-17T11:01:34Z</time>
</trkpt>
<trkpt lat="49.07095994800329" lon="8.66758793592453">
<ele>157.20000000000005</ele>
<time>2023-05-17T11:01:35Z</time>
</trkpt>
<trkpt lat="49.07095994800329" lon="8.6674979981035">
<ele>157</ele>
<time>2023-05-17T11:01:36Z</time>
</trkpt>
<trkpt lat="49.07095793634653" lon="8.667404958978295">
<ele>157</ele>
<time>2023-05-17T11:01:37Z</time>
</trkpt>
<trkpt lat="49.07095491886139" lon="8.667311919853091">
<ele>157</ele>
<time>2023-05-17T11:01:38Z</time>
</trkpt>
<trkpt lat="49.07095198519528" lon="8.6672199703753">
<ele>156.79999999999995</ele>
<time>2023-05-17T11:01:39Z</time>
</trkpt>
<trkpt lat="49.07095198519528" lon="8.667124919593334">
<ele>156.79999999999995</ele>
<time>2023-05-17T11:01:40Z</time>
</trkpt>
<trkpt lat="49.07095198519528" lon="8.667026935145259">
<ele>156.79999999999995</ele>
<time>2023-05-17T11:01:41Z</time>
</trkpt>
<trkpt lat="49.07095198519528" lon="8.666927944868803">
<ele>156.60000000000002</ele>
<time>2023-05-17T11:01:42Z</time>
</trkpt>
<trkpt lat="49.07095299102366" lon="8.666829960420728">
<ele>156.60000000000002</ele>
<time>2023-05-17T11:01:43Z</time>
</trkpt>
<trkpt lat="49.07095693051815" lon="8.666731975972652">
<ele>156.39999999999998</ele>
<time>2023-05-17T11:01:44Z</time>
</trkpt>
<trkpt lat="49.070966988801956" lon="8.666632985696197">
<ele>156.20000000000005</ele>
<time>2023-05-17T11:01:45Z</time>
</trkpt>
<trkpt lat="49.07097696326673" lon="8.666537934914231">
<ele>156.20000000000005</ele>
<time>2023-05-17T11:01:46Z</time>
</trkpt>
<trkpt lat="49.070987943559885" lon="8.666439950466156">
<ele>156</ele>
<time>2023-05-17T11:01:47Z</time>
</trkpt>
<trkpt lat="49.07100194133818" lon="8.666344983503222">
<ele>155.79999999999995</ele>
<time>2023-05-17T11:01:48Z</time>
</trkpt>
<trkpt lat="49.0710149332881" lon="8.666249932721257">
<ele>155.79999999999995</ele>
<time>2023-05-17T11:01:49Z</time>
</trkpt>
<trkpt lat="49.071029936894774" lon="8.666157983243465">
<ele>155.60000000000002</ele>
<time>2023-05-17T11:01:50Z</time>
</trkpt>
<trkpt lat="49.07103999517858" lon="8.666066955775023">
<ele>155.39999999999998</ele>
<time>2023-05-17T11:01:51Z</time>
</trkpt>
<trkpt lat="49.071051981300116" lon="8.665971988812089">
<ele>155.39999999999998</ele>
<time>2023-05-17T11:01:52Z</time>
</trkpt>
<trkpt lat="49.07106195576489" lon="8.665882973000407">
<ele>155.20000000000005</ele>
<time>2023-05-17T11:01:53Z</time>
</trkpt>
<trkpt lat="49.0710699185729" lon="8.665791945531964">
<ele>155.20000000000005</ele>
<time>2023-05-17T11:01:54Z</time>
</trkpt>
<trkpt lat="49.07108198851347" lon="8.665704941377044">
<ele>155</ele>
<time>2023-05-17T11:01:55Z</time>
</trkpt>
<trkpt lat="49.071091962978244" lon="8.665619948878884">
<ele>154.79999999999995</ele>
<time>2023-05-17T11:01:56Z</time>
</trkpt>
<trkpt lat="49.07109992578626" lon="8.665534956380725">
<ele>154.79999999999995</ele>
<time>2023-05-17T11:01:57Z</time>
</trkpt>
<trkpt lat="49.07110998407006" lon="8.665449963882565">
<ele>154.60000000000002</ele>
<time>2023-05-17T11:01:58Z</time>
</trkpt>
<trkpt lat="49.07112297601998" lon="8.665364971384406">
<ele>154.39999999999998</ele>
<time>2023-05-17T11:01:59Z</time>
</trkpt>
<trkpt lat="49.071137979626656" lon="8.665274949744344">
<ele>154.20000000000005</ele>
<time>2023-05-17T11:02:00Z</time>
</trkpt>
<trkpt lat="49.07114694826305" lon="8.665187945589423">
<ele>154.20000000000005</ele>
<time>2023-05-17T11:02:01Z</time>
</trkpt>
<trkpt lat="49.07115692272782" lon="8.665102953091264">
<ele>154</ele>
<time>2023-05-17T11:02:02Z</time>
</trkpt>
<trkpt lat="49.07116798684001" lon="8.665017960593104">
<ele>153.79999999999995</ele>
<time>2023-05-17T11:02:03Z</time>
</trkpt>
<trkpt lat="49.07118692994118" lon="8.66492198780179">
<ele>153.79999999999995</ele>
<time>2023-05-17T11:02:04Z</time>
</trkpt>
<trkpt lat="49.071197994053364" lon="8.66483699530363">
<ele>153.60000000000002</ele>
<time>2023-05-17T11:02:05Z</time>
</trkpt>
<trkpt lat="49.0712099801749" lon="8.664757953956723">
<ele>153.60000000000002</ele>
<time>2023-05-17T11:02:06Z</time>
</trkpt>
<trkpt lat="49.07121995463967" lon="8.664679918438196">
<ele>153.39999999999998</ele>
<time>2023-05-17T11:02:07Z</time>
</trkpt>
<trkpt lat="49.07123294658959" lon="8.664596937596798">
<ele>153.39999999999998</ele>
<time>2023-05-17T11:02:08Z</time>
</trkpt>
<trkpt lat="49.071246944367886" lon="8.664504988119006">
<ele>153.39999999999998</ele>
<time>2023-05-17T11:02:09Z</time>
</trkpt>
<trkpt lat="49.07125691883266" lon="8.664416978135705">
<ele>153.20000000000005</ele>
<time>2023-05-17T11:02:10Z</time>
</trkpt>
<trkpt lat="49.07126295380294" lon="8.664326956495643">
<ele>153.20000000000005</ele>
<time>2023-05-17T11:02:11Z</time>
</trkpt>
<trkpt lat="49.071266977116466" lon="8.66423299536109">
<ele>153.20000000000005</ele>
<time>2023-05-17T11:02:12Z</time>
</trkpt>
<trkpt lat="49.071266977116466" lon="8.664144985377789">
<ele>153</ele>
<time>2023-05-17T11:02:13Z</time>
</trkpt>
<trkpt lat="49.071264965459704" lon="8.66405999287963">
<ele>153</ele>
<time>2023-05-17T11:02:14Z</time>
</trkpt>
<trkpt lat="49.07126194797456" lon="8.663971982896328">
<ele>152.79999999999995</ele>
<time>2023-05-17T11:02:15Z</time>
</trkpt>
<trkpt lat="49.07125792466104" lon="8.663884978741407">
<ele>152.60000000000002</ele>
<time>2023-05-17T11:02:16Z</time>
</trkpt>
<trkpt lat="49.07125691883266" lon="8.663797974586487">
<ele>152.39999999999998</ele>
<time>2023-05-17T11:02:17Z</time>
</trkpt>
<trkpt lat="49.07125691883266" lon="8.663709964603186">
<ele>152.20000000000005</ele>
<time>2023-05-17T11:02:18Z</time>
</trkpt>
<trkpt lat="49.07125792466104" lon="8.663624972105026">
<ele>152.20000000000005</ele>
<time>2023-05-17T11:02:19Z</time>
</trkpt>
<trkpt lat="49.07125691883266" lon="8.663539979606867">
<ele>152</ele>
<time>2023-05-17T11:02:20Z</time>
</trkpt>
<trkpt lat="49.07125792466104" lon="8.663454987108707">
<ele>152</ele>
<time>2023-05-17T11:02:21Z</time>
</trkpt>
<trkpt lat="49.07125792466104" lon="8.663371922448277">
<ele>152</ele>
<time>2023-05-17T11:02:22Z</time>
</trkpt>
<trkpt lat="49.0712599363178" lon="8.663287935778499">
<ele>152</ele>
<time>2023-05-17T11:02:23Z</time>
</trkpt>
<trkpt lat="49.07126295380294" lon="8.663206966593862">
<ele>151.79999999999995</ele>
<time>2023-05-17T11:02:24Z</time>
</trkpt>
<trkpt lat="49.071264965459704" lon="8.663126919418573">
<ele>151.79999999999995</ele>
<time>2023-05-17T11:02:25Z</time>
</trkpt>
<trkpt lat="49.07126295380294" lon="8.663046956062317">
<ele>151.79999999999995</ele>
<time>2023-05-17T11:02:26Z</time>
</trkpt>
<trkpt lat="49.07126194797456" lon="8.662962969392538">
<ele>151.79999999999995</ele>
<time>2023-05-17T11:02:27Z</time>
</trkpt>
<trkpt lat="49.07126194797456" lon="8.66287998855114">
<ele>151.79999999999995</ele>
<time>2023-05-17T11:02:28Z</time>
</trkpt>
<trkpt lat="49.0712599363178" lon="8.66279692389071">
<ele>151.79999999999995</ele>
<time>2023-05-17T11:02:29Z</time>
</trkpt>
<trkpt lat="49.07125691883266" lon="8.662712937220931">
<ele>151.79999999999995</ele>
<time>2023-05-17T11:02:30Z</time>
</trkpt>
<trkpt lat="49.07125499099493" lon="8.662629956379533">
<ele>151.60000000000002</ele>
<time>2023-05-17T11:02:31Z</time>
</trkpt>
<trkpt lat="49.07125197350979" lon="8.662551920861006">
<ele>151.60000000000002</ele>
<time>2023-05-17T11:02:32Z</time>
</trkpt>
<trkpt lat="49.07124996185303" lon="8.66247296333313">
<ele>151.60000000000002</ele>
<time>2023-05-17T11:02:33Z</time>
</trkpt>
<trkpt lat="49.071247950196266" lon="8.662397945299745">
<ele>151.60000000000002</ele>
<time>2023-05-17T11:02:34Z</time>
</trkpt>
<trkpt lat="49.071246944367886" lon="8.66232493892312">
<ele>151.60000000000002</ele>
<time>2023-05-17T11:02:35Z</time>
</trkpt>
<trkpt lat="49.071246944367886" lon="8.662252938374877">
<ele>151.60000000000002</ele>
<time>2023-05-17T11:02:36Z</time>
</trkpt>
<trkpt lat="49.071246944367886" lon="8.662184961140156">
<ele>151.60000000000002</ele>
<time>2023-05-17T11:02:37Z</time>
</trkpt>
<trkpt lat="49.07125499099493" lon="8.662117989733815">
<ele>151.60000000000002</ele>
<time>2023-05-17T11:02:38Z</time>
</trkpt>
<trkpt lat="49.07127493992448" lon="8.662056969478726">
<ele>151.60000000000002</ele>
<time>2023-05-17T11:02:39Z</time>
</trkpt>
<trkpt lat="49.071306958794594" lon="8.662002990022302">
<ele>151.60000000000002</ele>
<time>2023-05-17T11:02:40Z</time>
</trkpt>
<trkpt lat="49.07134492881596" lon="8.661954961717129">
<ele>151.39999999999998</ele>
<time>2023-05-17T11:02:41Z</time>
</trkpt>
<trkpt lat="49.07139195129275" lon="8.661916991695762">
<ele>151.39999999999998</ele>
<time>2023-05-17T11:02:42Z</time>
</trkpt>
<trkpt lat="49.07144299708307" lon="8.661876926198602">
<ele>151.39999999999998</ele>
<time>2023-05-17T11:02:43Z</time>
</trkpt>
<trkpt lat="49.07149496488273" lon="8.661836944520473">
<ele>151.39999999999998</ele>
<time>2023-05-17T11:02:44Z</time>
</trkpt>
<trkpt lat="49.071544921025634" lon="8.661794951185584">
<ele>151.39999999999998</ele>
<time>2023-05-17T11:02:45Z</time>
</trkpt>
<trkpt lat="49.07159697264433" lon="8.661756981164217">
<ele>151.20000000000005</ele>
<time>2023-05-17T11:02:46Z</time>
</trkpt>
<trkpt lat="49.07164692878723" lon="8.661716999486089">
<ele>151.20000000000005</ele>
<time>2023-05-17T11:02:47Z</time>
</trkpt>
<trkpt lat="49.071697974577546" lon="8.661674922332168">
<ele>151.20000000000005</ele>
<time>2023-05-17T11:02:48Z</time>
</trkpt>
<trkpt lat="49.07174994237721" lon="8.661629995331168">
<ele>151.20000000000005</ele>
<time>2023-05-17T11:02:49Z</time>
</trkpt>
<trkpt lat="49.071801993995905" lon="8.661582972854376">
<ele>151.20000000000005</ele>
<time>2023-05-17T11:02:50Z</time>
</trkpt>
<trkpt lat="49.07185295596719" lon="8.661537962034345">
<ele>151.20000000000005</ele>
<time>2023-05-17T11:02:51Z</time>
</trkpt>
<trkpt lat="49.07190693542361" lon="8.661492951214314">
<ele>151.20000000000005</ele>
<time>2023-05-17T11:02:52Z</time>
</trkpt>
<trkpt lat="49.071954963728786" lon="8.66144492290914">
<ele>151.20000000000005</ele>
<time>2023-05-17T11:02:53Z</time>
</trkpt>
<trkpt lat="49.07199997454882" lon="8.661399995908141">
<ele>151.20000000000005</ele>
<time>2023-05-17T11:02:54Z</time>
</trkpt>
<trkpt lat="49.07204699702561" lon="8.661356996744871">
<ele>151.20000000000005</ele>
<time>2023-05-17T11:02:55Z</time>
</trkpt>
<trkpt lat="49.07209192402661" lon="8.66131491959095">
<ele>151.20000000000005</ele>
<time>2023-05-17T11:02:56Z</time>
</trkpt>
<trkpt lat="49.07213492318988" lon="8.66127292625606">
<ele>151.20000000000005</ele>
<time>2023-05-17T11:02:57Z</time>
</trkpt>
<trkpt lat="49.07217993400991" lon="8.66122992709279">
<ele>151.20000000000005</ele>
<time>2023-05-17T11:02:58Z</time>
</trkpt>
<trkpt lat="49.0722269564867" lon="8.66118692792952">
<ele>151.20000000000005</ele>
<time>2023-05-17T11:02:59Z</time>
</trkpt>
<trkpt lat="49.07226995564997" lon="8.661144934594631">
<ele>151.20000000000005</ele>
<time>2023-05-17T11:03:00Z</time>
</trkpt>
<trkpt lat="49.07231295481324" lon="8.661104952916503">
<ele>151.20000000000005</ele>
<time>2023-05-17T11:03:01Z</time>
</trkpt>
<trkpt lat="49.07235695980489" lon="8.661064971238375">
<ele>151.20000000000005</ele>
<time>2023-05-17T11:03:02Z</time>
</trkpt>
<trkpt lat="49.07239995896816" lon="8.661024989560246">
<ele>151.20000000000005</ele>
<time>2023-05-17T11:03:03Z</time>
</trkpt>
<trkpt lat="49.07244295813143" lon="8.660984924063087">
<ele>151.20000000000005</ele>
<time>2023-05-17T11:03:04Z</time>
</trkpt>
<trkpt lat="49.072487968951464" lon="8.660942930728197">
<ele>151.20000000000005</ele>
<time>2023-05-17T11:03:05Z</time>
</trkpt>
<trkpt lat="49.072532979771495" lon="8.660901943221688">
<ele>151.20000000000005</ele>
<time>2023-05-17T11:03:06Z</time>
</trkpt>
<trkpt lat="49.072579918429255" lon="8.66086296737194">
<ele>151.20000000000005</ele>
<time>2023-05-17T11:03:07Z</time>
</trkpt>
<trkpt lat="49.07262694090605" lon="8.660822985693812">
<ele>151.20000000000005</ele>
<time>2023-05-17T11:03:08Z</time>
</trkpt>
<trkpt lat="49.07267295755446" lon="8.660779986530542">
<ele>151.20000000000005</ele>
<time>2023-05-17T11:03:09Z</time>
</trkpt>
<trkpt lat="49.07271998003125" lon="8.660736987367272">
<ele>151</ele>
<time>2023-05-17T11:03:10Z</time>
</trkpt>
<trkpt lat="49.07276499085128" lon="8.660691976547241">
<ele>151</ele>
<time>2023-05-17T11:03:11Z</time>
</trkpt>
<trkpt lat="49.072811929509044" lon="8.66064797155559">
<ele>151</ele>
<time>2023-05-17T11:03:12Z</time>
</trkpt>
<trkpt lat="49.072857946157455" lon="8.66060497239232">
<ele>151</ele>
<time>2023-05-17T11:03:13Z</time>
</trkpt>
<trkpt lat="49.07290496863425" lon="8.66056197322905">
<ele>151</ele>
<time>2023-05-17T11:03:14Z</time>
</trkpt>
<trkpt lat="49.07295199111104" lon="8.66051696240902">
<ele>151</ele>
<time>2023-05-17T11:03:15Z</time>
</trkpt>
<trkpt lat="49.07299691811204" lon="8.660472957417369">
<ele>151</ele>
<time>2023-05-17T11:03:16Z</time>
</trkpt>
<trkpt lat="49.07303991727531" lon="8.66043196991086">
<ele>151</ele>
<time>2023-05-17T11:03:17Z</time>
</trkpt>
<trkpt lat="49.07308492809534" lon="8.660391988232732">
<ele>151</ele>
<time>2023-05-17T11:03:18Z</time>
</trkpt>
<trkpt lat="49.07312993891537" lon="8.660349994897842">
<ele>151</ele>
<time>2023-05-17T11:03:19Z</time>
</trkpt>
<trkpt lat="49.0731749497354" lon="8.660311941057444">
<ele>151</ele>
<time>2023-05-17T11:03:20Z</time>
</trkpt>
<trkpt lat="49.073221972212195" lon="8.660269947722554">
<ele>150.79999999999995</ele>
<time>2023-05-17T11:03:21Z</time>
</trkpt>
<trkpt lat="49.07326798886061" lon="8.660227954387665">
<ele>150.79999999999995</ele>
<time>2023-05-17T11:03:22Z</time>
</trkpt>
<trkpt lat="49.07331492751837" lon="8.660184955224395">
<ele>150.79999999999995</ele>
<time>2023-05-17T11:03:23Z</time>
</trkpt>
<trkpt lat="49.07336295582354" lon="8.660142961889505">
<ele>150.79999999999995</ele>
<time>2023-05-17T11:03:24Z</time>
</trkpt>
<trkpt lat="49.07340997830033" lon="8.660104991868138">
<ele>150.79999999999995</ele>
<time>2023-05-17T11:03:25Z</time>
</trkpt>
<trkpt lat="49.073457922786474" lon="8.66006794385612">
<ele>150.79999999999995</ele>
<time>2023-05-17T11:03:26Z</time>
</trkpt>
<trkpt lat="49.07350494526327" lon="8.660029973834753">
<ele>150.79999999999995</ele>
<time>2023-05-17T11:03:27Z</time>
</trkpt>
<trkpt lat="49.0735499560833" lon="8.659991919994354">
<ele>150.60000000000002</ele>
<time>2023-05-17T11:03:28Z</time>
</trkpt>
<trkpt lat="49.07359295524657" lon="8.659947998821735">
<ele>150.60000000000002</ele>
<time>2023-05-17T11:03:29Z</time>
</trkpt>
<trkpt lat="49.073632936924696" lon="8.659902988001704">
<ele>150.60000000000002</ele>
<time>2023-05-17T11:03:30Z</time>
</trkpt>
<trkpt lat="49.073672918602824" lon="8.659857977181673">
<ele>150.60000000000002</ele>
<time>2023-05-17T11:03:31Z</time>
</trkpt>
<trkpt lat="49.073711978271604" lon="8.659816989675164">
<ele>150.79999999999995</ele>
<time>2023-05-17T11:03:32Z</time>
</trkpt>
<trkpt lat="49.07374793663621" lon="8.659774996340275">
<ele>150.79999999999995</ele>
<time>2023-05-17T11:03:33Z</time>
</trkpt>
<trkpt lat="49.07378498464823" lon="8.659732919186354">
<ele>150.79999999999995</ele>
<time>2023-05-17T11:03:34Z</time>
</trkpt>
<trkpt lat="49.073821948841214" lon="8.659692937508225">
<ele>151</ele>
<time>2023-05-17T11:03:35Z</time>
</trkpt>
<trkpt lat="49.07385991886258" lon="8.659651950001717">
<ele>151</ele>
<time>2023-05-17T11:03:36Z</time>
</trkpt>
<trkpt lat="49.0739019960165" lon="8.659611968323588">
<ele>151</ele>
<time>2023-05-17T11:03:37Z</time>
</trkpt>
<trkpt lat="49.07394197769463" lon="8.65957299247384">
<ele>151.20000000000005</ele>
<time>2023-05-17T11:03:38Z</time>
</trkpt>
<trkpt lat="49.073979947716" lon="8.65953292697668">
<ele>151.20000000000005</ele>
<time>2023-05-17T11:03:39Z</time>
</trkpt>
<trkpt lat="49.074017917737365" lon="8.659494956955314">
<ele>151.20000000000005</ele>
<time>2023-05-17T11:03:40Z</time>
</trkpt>
<trkpt lat="49.074056977406144" lon="8.659461932256818">
<ele>151.20000000000005</ele>
<time>2023-05-17T11:03:41Z</time>
</trkpt>
<trkpt lat="49.07409293577075" lon="8.659426979720592">
<ele>151.39999999999998</ele>
<time>2023-05-17T11:03:42Z</time>
</trkpt>
<trkpt lat="49.07412998378277" lon="8.659389931708574">
<ele>151.39999999999998</ele>
<time>2023-05-17T11:03:43Z</time>
</trkpt>
<trkpt lat="49.074166947975755" lon="8.659354979172349">
<ele>151.39999999999998</ele>
<time>2023-05-17T11:03:44Z</time>
</trkpt>
<trkpt lat="49.07420692965388" lon="8.65931692533195">
<ele>151.39999999999998</ele>
<time>2023-05-17T11:03:45Z</time>
</trkpt>
<trkpt lat="49.07424699515104" lon="8.659276943653822">
<ele>151.39999999999998</ele>
<time>2023-05-17T11:03:46Z</time>
</trkpt>
<trkpt lat="49.07428798265755" lon="8.659236961975694">
<ele>151.39999999999998</ele>
<time>2023-05-17T11:03:47Z</time>
</trkpt>
<trkpt lat="49.0743319876492" lon="8.659197986125946">
<ele>151.39999999999998</ele>
<time>2023-05-17T11:03:48Z</time>
</trkpt>
<trkpt lat="49.07437297515571" lon="8.659159932285547">
<ele>151.39999999999998</ele>
<time>2023-05-17T11:03:49Z</time>
</trkpt>
<trkpt lat="49.0744149684906" lon="8.659119950607419">
<ele>151.39999999999998</ele>
<time>2023-05-17T11:03:50Z</time>
</trkpt>
<trkpt lat="49.07445696182549" lon="8.65907996892929">
<ele>151.39999999999998</ele>
<time>2023-05-17T11:03:51Z</time>
</trkpt>
<trkpt lat="49.074497949332" lon="8.659039987251163">
<ele>151.39999999999998</ele>
<time>2023-05-17T11:03:52Z</time>
</trkpt>
<trkpt lat="49.07453994266689" lon="8.658997993916273">
<ele>151.39999999999998</ele>
<time>2023-05-17T11:03:53Z</time>
</trkpt>
<trkpt lat="49.07458495348692" lon="8.658957928419113">
<ele>151.39999999999998</ele>
<time>2023-05-17T11:03:54Z</time>
</trkpt>
<trkpt lat="49.07462996430695" lon="8.658919958397746">
<ele>151.39999999999998</ele>
<time>2023-05-17T11:03:55Z</time>
</trkpt>
<trkpt lat="49.07467497512698" lon="8.658877965062857">
<ele>151.39999999999998</ele>
<time>2023-05-17T11:03:56Z</time>
</trkpt>
<trkpt lat="49.07471998594701" lon="8.658837983384728">
<ele>151.39999999999998</ele>
<time>2023-05-17T11:03:57Z</time>
</trkpt>
<trkpt lat="49.074764996767044" lon="8.65879699587822">
<ele>151.39999999999998</ele>
<time>2023-05-17T11:03:58Z</time>
</trkpt>
<trkpt lat="49.074807995930314" lon="8.658752990886569">
<ele>151.20000000000005</ele>
<time>2023-05-17T11:03:59Z</time>
</trkpt>
<trkpt lat="49.07485191710293" lon="8.658711919561028">
<ele>151.20000000000005</ele>
<time>2023-05-17T11:04:00Z</time>
</trkpt>
<trkpt lat="49.074896927922964" lon="8.65866799838841">
<ele>151.20000000000005</ele>
<time>2023-05-17T11:04:01Z</time>
</trkpt>
<trkpt lat="49.074942944571376" lon="8.658622987568378">
<ele>151</ele>
<time>2023-05-17T11:04:02Z</time>
</trkpt>
<trkpt lat="49.07498795539141" lon="8.658577976748347">
<ele>151</ele>
<time>2023-05-17T11:04:03Z</time>
</trkpt>
<trkpt lat="49.0750349778682" lon="8.658534977585077">
<ele>151</ele>
<time>2023-05-17T11:04:04Z</time>
</trkpt>
<trkpt lat="49.07508191652596" lon="8.658492984250188">
<ele>150.79999999999995</ele>
<time>2023-05-17T11:04:05Z</time>
</trkpt>
<trkpt lat="49.07512692734599" lon="8.658449985086918">
<ele>150.79999999999995</ele>
<time>2023-05-17T11:04:06Z</time>
</trkpt>
<trkpt lat="49.0751729439944" lon="8.658404974266887">
<ele>150.60000000000002</ele>
<time>2023-05-17T11:04:07Z</time>
</trkpt>
<trkpt lat="49.075219966471195" lon="8.658361975103617">
<ele>150.60000000000002</ele>
<time>2023-05-17T11:04:08Z</time>
</trkpt>
<trkpt lat="49.075264977291226" lon="8.658317970111966">
<ele>150.60000000000002</ele>
<time>2023-05-17T11:04:09Z</time>
</trkpt>
<trkpt lat="49.07531199976802" lon="8.658276982605457">
<ele>150.39999999999998</ele>
<time>2023-05-17T11:04:10Z</time>
</trkpt>
<trkpt lat="49.07535692676902" lon="8.658234989270568">
<ele>150.39999999999998</ele>
<time>2023-05-17T11:04:11Z</time>
</trkpt>
<trkpt lat="49.07540193758905" lon="8.658192995935678">
<ele>150.39999999999998</ele>
<time>2023-05-17T11:04:12Z</time>
</trkpt>
<trkpt lat="49.07544694840908" lon="8.658151924610138">
<ele>150.39999999999998</ele>
<time>2023-05-17T11:04:13Z</time>
</trkpt>
<trkpt lat="49.07548994757235" lon="8.658109931275249">
<ele>150.39999999999998</ele>
<time>2023-05-17T11:04:14Z</time>
</trkpt>
<trkpt lat="49.07553294673562" lon="8.65806793794036">
<ele>150.39999999999998</ele>
<time>2023-05-17T11:04:15Z</time>
</trkpt>
<trkpt lat="49.07557695172727" lon="8.65802695043385">
<ele>150.39999999999998</ele>
<time>2023-05-17T11:04:16Z</time>
</trkpt>
<trkpt lat="49.07561995089054" lon="8.6579829454422">
<ele>150.20000000000005</ele>
<time>2023-05-17T11:04:17Z</time>
</trkpt>
<trkpt lat="49.07566295005381" lon="8.65793994627893">
<ele>150.20000000000005</ele>
<time>2023-05-17T11:04:18Z</time>
</trkpt>
<trkpt lat="49.07570796087384" lon="8.65789694711566">
<ele>150.20000000000005</ele>
<time>2023-05-17T11:04:19Z</time>
</trkpt>
<trkpt lat="49.075754983350635" lon="8.65785294212401">
<ele>150.20000000000005</ele>
<time>2023-05-17T11:04:20Z</time>
</trkpt>
<trkpt lat="49.075801922008395" lon="8.6578119546175">
<ele>150.20000000000005</ele>
<time>2023-05-17T11:04:21Z</time>
</trkpt>
<trkpt lat="49.07584793865681" lon="8.657769961282611">
<ele>150.20000000000005</ele>
<time>2023-05-17T11:04:22Z</time>
</trkpt>
<trkpt lat="49.07589294947684" lon="8.657727967947721">
<ele>150</ele>
<time>2023-05-17T11:04:23Z</time>
</trkpt>
<trkpt lat="49.07593796029687" lon="8.657687986269593">
<ele>150</ele>
<time>2023-05-17T11:04:24Z</time>
</trkpt>
<trkpt lat="49.0759829711169" lon="8.657647920772433">
<ele>150</ele>
<time>2023-05-17T11:04:25Z</time>
</trkpt>
<trkpt lat="49.07602496445179" lon="8.657607939094305">
<ele>150</ele>
<time>2023-05-17T11:04:26Z</time>
</trkpt>
<trkpt lat="49.07606796361506" lon="8.657566951587796">
<ele>150</ele>
<time>2023-05-17T11:04:27Z</time>
</trkpt>
<trkpt lat="49.07610794529319" lon="8.657526969909668">
<ele>150</ele>
<time>2023-05-17T11:04:28Z</time>
</trkpt>
<trkpt lat="49.076147926971316" lon="8.65748799405992">
<ele>150</ele>
<time>2023-05-17T11:04:29Z</time>
</trkpt>
<trkpt lat="49.076187992468476" lon="8.657452957704663">
<ele>150</ele>
<time>2023-05-17T11:04:30Z</time>
</trkpt>
<trkpt lat="49.07622495666146" lon="8.657416999340057">
<ele>150</ele>
<time>2023-05-17T11:04:31Z</time>
</trkpt>
<trkpt lat="49.07626493833959" lon="8.657382968813181">
<ele>150</ele>
<time>2023-05-17T11:04:32Z</time>
</trkpt>
<trkpt lat="49.07630492001772" lon="8.657347932457924">
<ele>150</ele>
<time>2023-05-17T11:04:33Z</time>
</trkpt>
<trkpt lat="49.07634498551488" lon="8.657309962436557">
<ele>150</ele>
<time>2023-05-17T11:04:34Z</time>
</trkpt>
<trkpt lat="49.07638496719301" lon="8.65727199241519">
<ele>150</ele>
<time>2023-05-17T11:04:35Z</time>
</trkpt>
<trkpt lat="49.0764269605279" lon="8.65723192691803">
<ele>150</ele>
<time>2023-05-17T11:04:36Z</time>
</trkpt>
<trkpt lat="49.07646995969117" lon="8.657191945239902">
<ele>150</ele>
<time>2023-05-17T11:04:37Z</time>
</trkpt>
<trkpt lat="49.076511953026056" lon="8.657149951905012">
<ele>150</ele>
<time>2023-05-17T11:04:38Z</time>
</trkpt>
<trkpt lat="49.076552940532565" lon="8.657107958570123">
<ele>150</ele>
<time>2023-05-17T11:04:39Z</time>
</trkpt>
<trkpt lat="49.076594933867455" lon="8.657067976891994">
<ele>150</ele>
<time>2023-05-17T11:04:40Z</time>
</trkpt>
<trkpt lat="49.076636927202344" lon="8.657026989385486">
<ele>150</ele>
<time>2023-05-17T11:04:41Z</time>
</trkpt>
<trkpt lat="49.076677998527884" lon="8.656989941373467">
<ele>150</ele>
<time>2023-05-17T11:04:42Z</time>
</trkpt>
<trkpt lat="49.07671798020601" lon="8.656952977180481">
<ele>150</ele>
<time>2023-05-17T11:04:43Z</time>
</trkpt>
<trkpt lat="49.07675796188414" lon="8.656912995502353">
<ele>150</ele>
<time>2023-05-17T11:04:44Z</time>
</trkpt>
<trkpt lat="49.07679995521903" lon="8.656872930005193">
<ele>150</ele>
<time>2023-05-17T11:04:45Z</time>
</trkpt>
<trkpt lat="49.07683993689716" lon="8.656834959983826">
<ele>150</ele>
<time>2023-05-17T11:04:46Z</time>
</trkpt>
<trkpt lat="49.07687799073756" lon="8.656799923628569">
<ele>150</ele>
<time>2023-05-17T11:04:47Z</time>
</trkpt>
<trkpt lat="49.076914954930544" lon="8.656766982749104">
<ele>150</ele>
<time>2023-05-17T11:04:48Z</time>
</trkpt>
<trkpt lat="49.07694797962904" lon="8.656732952222228">
<ele>150</ele>
<time>2023-05-17T11:04:49Z</time>
</trkpt>
<trkpt lat="49.076977986842394" lon="8.656704956665635">
<ele>150</ele>
<time>2023-05-17T11:04:50Z</time>
</trkpt>
<trkpt lat="49.077004976570606" lon="8.656677966937423">
<ele>150</ele>
<time>2023-05-17T11:04:51Z</time>
</trkpt>
<trkpt lat="49.07702995464206" lon="8.656652988865972">
<ele>150</ele>
<time>2023-05-17T11:04:52Z</time>
</trkpt>
<trkpt lat="49.0770519990474" lon="8.65662993863225">
<ele>150</ele>
<time>2023-05-17T11:04:53Z</time>
</trkpt>
<trkpt lat="49.07707697711885" lon="8.656604960560799">
<ele>150</ele>
<time>2023-05-17T11:04:54Z</time>
</trkpt>
<trkpt lat="49.07710296101868" lon="8.656577970832586">
<ele>150</ele>
<time>2023-05-17T11:04:55Z</time>
</trkpt>
<trkpt lat="49.077132968232036" lon="8.656547963619232">
<ele>150</ele>
<time>2023-05-17T11:04:56Z</time>
</trkpt>
<trkpt lat="49.07716699875891" lon="8.656517956405878">
<ele>150.20000000000005</ele>
<time>2023-05-17T11:04:57Z</time>
</trkpt>
<trkpt lat="49.07720496878028" lon="8.656484931707382">
<ele>150.20000000000005</ele>
<time>2023-05-17T11:04:58Z</time>
</trkpt>
<trkpt lat="49.07724696211517" lon="8.656446961686015">
<ele>150.20000000000005</ele>
<time>2023-05-17T11:04:59Z</time>
</trkpt>
<trkpt lat="49.07729297876358" lon="8.656404968351126">
<ele>150.20000000000005</ele>
<time>2023-05-17T11:05:00Z</time>
</trkpt>
<trkpt lat="49.077344946563244" lon="8.656359957531095">
<ele>150.39999999999998</ele>
<time>2023-05-17T11:05:01Z</time>
</trkpt>
<trkpt lat="49.07739792019129" lon="8.656312935054302">
<ele>150.39999999999998</ele>
<time>2023-05-17T11:05:02Z</time>
</trkpt>
<trkpt lat="49.077451983466744" lon="8.65626691840589">
<ele>150.39999999999998</ele>
<time>2023-05-17T11:05:03Z</time>
</trkpt>
<trkpt lat="49.07750696875155" lon="8.656217968091369">
<ele>150.20000000000005</ele>
<time>2023-05-17T11:05:04Z</time>
</trkpt>
<trkpt lat="49.077559942379594" lon="8.656169939786196">
<ele>150.20000000000005</ele>
<time>2023-05-17T11:05:05Z</time>
</trkpt>
<trkpt lat="49.07760998234153" lon="8.656122917309403">
<ele>150.20000000000005</ele>
<time>2023-05-17T11:05:06Z</time>
</trkpt>
<trkpt lat="49.07765792682767" lon="8.656074972823262">
<ele>150.20000000000005</ele>
<time>2023-05-17T11:05:07Z</time>
</trkpt>
<trkpt lat="49.07770696096122" lon="8.65602795034647">
<ele>150.20000000000005</ele>
<time>2023-05-17T11:05:08Z</time>
</trkpt>
<trkpt lat="49.077752977609634" lon="8.6559849511832">
<ele>150.20000000000005</ele>
<time>2023-05-17T11:05:09Z</time>
</trkpt>
<trkpt lat="49.077801927924156" lon="8.65594295784831">
<ele>150.20000000000005</ele>
<time>2023-05-17T11:05:10Z</time>
</trkpt>
<trkpt lat="49.07784794457257" lon="8.655901970341802">
<ele>150.20000000000005</ele>
<time>2023-05-17T11:05:11Z</time>
</trkpt>
<trkpt lat="49.07789194956422" lon="8.655857965350151">
<ele>150</ele>
<time>2023-05-17T11:05:12Z</time>
</trkpt>
<trkpt lat="49.07793696038425" lon="8.655814966186881">
<ele>150</ele>
<time>2023-05-17T11:05:13Z</time>
</trkpt>
<trkpt lat="49.07797995954752" lon="8.655771967023611">
<ele>150</ele>
<time>2023-05-17T11:05:14Z</time>
</trkpt>
<trkpt lat="49.07802497036755" lon="8.655731985345483">
<ele>149.79999999999995</ele>
<time>2023-05-17T11:05:15Z</time>
</trkpt>
<trkpt lat="49.07806998118758" lon="8.655691919848323">
<ele>149.79999999999995</ele>
<time>2023-05-17T11:05:16Z</time>
</trkpt>
<trkpt lat="49.07811298035085" lon="8.655652943998575">
<ele>149.79999999999995</ele>
<time>2023-05-17T11:05:17Z</time>
</trkpt>
<trkpt lat="49.0781569853425" lon="8.655614973977208">
<ele>149.79999999999995</ele>
<time>2023-05-17T11:05:18Z</time>
</trkpt>
<trkpt lat="49.07819998450577" lon="8.65557692013681">
<ele>149.79999999999995</ele>
<time>2023-05-17T11:05:19Z</time>
</trkpt>
<trkpt lat="49.07824197784066" lon="8.655536938458681">
<ele>149.79999999999995</ele>
<time>2023-05-17T11:05:20Z</time>
</trkpt>
<trkpt lat="49.07828195951879" lon="8.655497962608933">
<ele>149.79999999999995</ele>
<time>2023-05-17T11:05:21Z</time>
</trkpt>
<trkpt lat="49.0783229470253" lon="8.655461920425296">
<ele>149.79999999999995</ele>
<time>2023-05-17T11:05:22Z</time>
</trkpt>
<trkpt lat="49.07836292870343" lon="8.655422944575548">
<ele>149.79999999999995</ele>
<time>2023-05-17T11:05:23Z</time>
</trkpt>
<trkpt lat="49.07840198837221" lon="8.655386986210942">
<ele>149.60000000000002</ele>
<time>2023-05-17T11:05:24Z</time>
</trkpt>
<trkpt lat="49.078439958393574" lon="8.655352955684066">
<ele>149.60000000000002</ele>
<time>2023-05-17T11:05:25Z</time>
</trkpt>
<trkpt lat="49.07847692258656" lon="8.655322948470712">
<ele>149.60000000000002</ele>
<time>2023-05-17T11:05:26Z</time>
</trkpt>
<trkpt lat="49.078509947285056" lon="8.655292941257358">
<ele>149.60000000000002</ele>
<time>2023-05-17T11:05:27Z</time>
</trkpt>
<trkpt lat="49.07854297198355" lon="8.655262934044003">
<ele>149.60000000000002</ele>
<time>2023-05-17T11:05:28Z</time>
</trkpt>
<trkpt lat="49.07857499085367" lon="8.65523493848741">
<ele>149.60000000000002</ele>
<time>2023-05-17T11:05:29Z</time>
</trkpt>
<trkpt lat="49.078611955046654" lon="8.655204931274056">
<ele>149.60000000000002</ele>
<time>2023-05-17T11:05:30Z</time>
</trkpt>
<trkpt lat="49.07864799723029" lon="8.655174924060702">
<ele>149.60000000000002</ele>
<time>2023-05-17T11:05:31Z</time>
</trkpt>
<trkpt lat="49.07868797890842" lon="8.655144916847348">
<ele>149.60000000000002</ele>
<time>2023-05-17T11:05:32Z</time>
</trkpt>
<trkpt lat="49.07872997224331" lon="8.655111975967884">
<ele>149.60000000000002</ele>
<time>2023-05-17T11:05:33Z</time>
</trkpt>
<trkpt lat="49.0787719655782" lon="8.655079957097769">
<ele>149.60000000000002</ele>
<time>2023-05-17T11:05:34Z</time>
</trkpt>
<trkpt lat="49.07881496474147" lon="8.655046932399273">
<ele>149.79999999999995</ele>
<time>2023-05-17T11:05:35Z</time>
</trkpt>
<trkpt lat="49.0788599755615" lon="8.655011979863048">
<ele>149.79999999999995</ele>
<time>2023-05-17T11:05:36Z</time>
</trkpt>
<trkpt lat="49.07890498638153" lon="8.65497694350779">
<ele>149.79999999999995</ele>
<time>2023-05-17T11:05:37Z</time>
</trkpt>
<trkpt lat="49.0789479855448" lon="8.654941990971565">
<ele>149.79999999999995</ele>
<time>2023-05-17T11:05:38Z</time>
</trkpt>
<trkpt lat="49.07899299636483" lon="8.654906954616308">
<ele>149.79999999999995</ele>
<time>2023-05-17T11:05:39Z</time>
</trkpt>
<trkpt lat="49.07903691753745" lon="8.654869990423322">
<ele>149.79999999999995</ele>
<time>2023-05-17T11:05:40Z</time>
</trkpt>
<trkpt lat="49.07908293418586" lon="8.654834954068065">
<ele>149.79999999999995</ele>
<time>2023-05-17T11:05:41Z</time>
</trkpt>
<trkpt lat="49.079129956662655" lon="8.654799917712808">
<ele>149.79999999999995</ele>
<time>2023-05-17T11:05:42Z</time>
</trkpt>
<trkpt lat="49.07917697913945" lon="8.654764965176582">
<ele>150</ele>
<time>2023-05-17T11:05:43Z</time>
</trkpt>
<trkpt lat="49.07922198995948" lon="8.654729928821325">
<ele>149.79999999999995</ele>
<time>2023-05-17T11:05:44Z</time>
</trkpt>
<trkpt lat="49.07926792278886" lon="8.6546949762851">
<ele>149.79999999999995</ele>
<time>2023-05-17T11:05:45Z</time>
</trkpt>
<trkpt lat="49.07931293360889" lon="8.654661951586604">
<ele>149.79999999999995</ele>
<time>2023-05-17T11:05:46Z</time>
</trkpt>
<trkpt lat="49.07935693860054" lon="8.654627921059728">
<ele>149.79999999999995</ele>
<time>2023-05-17T11:05:47Z</time>
</trkpt>
<trkpt lat="49.07939692027867" lon="8.654592968523502">
<ele>149.79999999999995</ele>
<time>2023-05-17T11:05:48Z</time>
</trkpt>
<trkpt lat="49.07943799160421" lon="8.654561955481768">
<ele>149.79999999999995</ele>
<time>2023-05-17T11:05:49Z</time>
</trkpt>
<trkpt lat="49.0794799849391" lon="8.654529936611652">
<ele>149.79999999999995</ele>
<time>2023-05-17T11:05:50Z</time>
</trkpt>
<trkpt lat="49.07951996661723" lon="8.654499929398298">
<ele>149.79999999999995</ele>
<time>2023-05-17T11:05:51Z</time>
</trkpt>
<trkpt lat="49.079559948295355" lon="8.654469922184944">
<ele>149.79999999999995</ele>
<time>2023-05-17T11:05:52Z</time>
</trkpt>
<trkpt lat="49.079601941630244" lon="8.654439998790622">
<ele>149.79999999999995</ele>
<time>2023-05-17T11:05:53Z</time>
</trkpt>
<trkpt lat="49.079644940793514" lon="8.654411919414997">
<ele>149.79999999999995</ele>
<time>2023-05-17T11:05:54Z</time>
</trkpt>
<trkpt lat="49.079689951613545" lon="8.654381996020675">
<ele>149.79999999999995</ele>
<time>2023-05-17T11:05:55Z</time>
</trkpt>
<trkpt lat="49.07973697409034" lon="8.65434997715056">
<ele>149.79999999999995</ele>
<time>2023-05-17T11:05:56Z</time>
</trkpt>
<trkpt lat="49.07978198491037" lon="8.654317958280444">
<ele>149.79999999999995</ele>
<time>2023-05-17T11:05:57Z</time>
</trkpt>
<trkpt lat="49.07982791773975" lon="8.65428694523871">
<ele>149.79999999999995</ele>
<time>2023-05-17T11:05:58Z</time>
</trkpt>
<trkpt lat="49.0798769518733" lon="8.654254926368594">
<ele>149.79999999999995</ele>
<time>2023-05-17T11:05:59Z</time>
</trkpt>
<trkpt lat="49.079922968521714" lon="8.65422299131751">
<ele>149.79999999999995</ele>
<time>2023-05-17T11:06:00Z</time>
</trkpt>
<trkpt lat="49.079971918836236" lon="8.654191978275776">
<ele>149.79999999999995</ele>
<time>2023-05-17T11:06:01Z</time>
</trkpt>
<trkpt lat="49.08001793548465" lon="8.6541579477489">
<ele>149.79999999999995</ele>
<time>2023-05-17T11:06:02Z</time>
</trkpt>
<trkpt lat="49.08006495796144" lon="8.654126934707165">
<ele>149.79999999999995</ele>
<time>2023-05-17T11:06:03Z</time>
</trkpt>
<trkpt lat="49.08011198043823" lon="8.65409692749381">
<ele>149.79999999999995</ele>
<time>2023-05-17T11:06:04Z</time>
</trkpt>
<trkpt lat="49.080156991258264" lon="8.654064992442727">
<ele>149.79999999999995</ele>
<time>2023-05-17T11:06:05Z</time>
</trkpt>
<trkpt lat="49.080202924087644" lon="8.654036996886134">
<ele>149.79999999999995</ele>
<time>2023-05-17T11:06:06Z</time>
</trkpt>
<trkpt lat="49.080247934907675" lon="8.65400799550116">
<ele>149.79999999999995</ele>
<time>2023-05-17T11:06:07Z</time>
</trkpt>
<trkpt lat="49.080292945727706" lon="8.653979999944568">
<ele>149.79999999999995</ele>
<time>2023-05-17T11:06:08Z</time>
</trkpt>
<trkpt lat="49.08033795654774" lon="8.653949992731214">
<ele>149.79999999999995</ele>
<time>2023-05-17T11:06:09Z</time>
</trkpt>
<trkpt lat="49.08038196153939" lon="8.65392291918397">
<ele>149.79999999999995</ele>
<time>2023-05-17T11:06:10Z</time>
</trkpt>
<trkpt lat="49.08042496070266" lon="8.653896935284138">
<ele>149.79999999999995</ele>
<time>2023-05-17T11:06:11Z</time>
</trkpt>
<trkpt lat="49.080464942380786" lon="8.653869945555925">
<ele>149.79999999999995</ele>
<time>2023-05-17T11:06:12Z</time>
</trkpt>
<trkpt lat="49.080506935715675" lon="8.653841949999332">
<ele>149.79999999999995</ele>
<time>2023-05-17T11:06:13Z</time>
</trkpt>
<trkpt lat="49.080549934878945" lon="8.653812948614359">
<ele>149.79999999999995</ele>
<time>2023-05-17T11:06:14Z</time>
</trkpt>
<trkpt lat="49.080592934042215" lon="8.653781935572624">
<ele>149.79999999999995</ele>
<time>2023-05-17T11:06:15Z</time>
</trkpt>
<trkpt lat="49.08063794486225" lon="8.65374798886478">
<ele>149.79999999999995</ele>
<time>2023-05-17T11:06:16Z</time>
</trkpt>
<trkpt lat="49.08068295568228" lon="8.653714964166284">
<ele>149.79999999999995</ele>
<time>2023-05-17T11:06:17Z</time>
</trkpt>
<trkpt lat="49.08072997815907" lon="8.653681939467788">
<ele>149.79999999999995</ele>
<time>2023-05-17T11:06:18Z</time>
</trkpt>
<trkpt lat="49.08077691681683" lon="8.653646986931562">
<ele>150</ele>
<time>2023-05-17T11:06:19Z</time>
</trkpt>
<trkpt lat="49.08082293346524" lon="8.653614968061447">
<ele>150</ele>
<time>2023-05-17T11:06:20Z</time>
</trkpt>
<trkpt lat="49.080869955942035" lon="8.653584960848093">
<ele>150</ele>
<time>2023-05-17T11:06:21Z</time>
</trkpt>
<trkpt lat="49.080914966762066" lon="8.653554953634739">
<ele>150</ele>
<time>2023-05-17T11:06:22Z</time>
</trkpt>
<trkpt lat="49.08096198923886" lon="8.653526958078146">
<ele>150</ele>
<time>2023-05-17T11:06:23Z</time>
</trkpt>
<trkpt lat="49.08100792206824" lon="8.65349493920803">
<ele>150</ele>
<time>2023-05-17T11:06:24Z</time>
</trkpt>
<trkpt lat="49.08105293288827" lon="8.653466943651438">
<ele>150</ele>
<time>2023-05-17T11:06:25Z</time>
</trkpt>
<trkpt lat="49.08109995536506" lon="8.653436936438084">
<ele>150</ele>
<time>2023-05-17T11:06:26Z</time>
</trkpt>
<trkpt lat="49.08114496618509" lon="8.65340692922473">
<ele>150</ele>
<time>2023-05-17T11:06:27Z</time>
</trkpt>
<trkpt lat="49.081194922327995" lon="8.653376922011375">
<ele>150</ele>
<time>2023-05-17T11:06:28Z</time>
</trkpt>
<trkpt lat="49.08124295063317" lon="8.653347920626402">
<ele>150</ele>
<time>2023-05-17T11:06:29Z</time>
</trkpt>
<trkpt lat="49.0812929905951" lon="8.65331799723208">
<ele>150</ele>
<time>2023-05-17T11:06:30Z</time>
</trkpt>
<trkpt lat="49.081342946738005" lon="8.653289917856455">
<ele>150</ele>
<time>2023-05-17T11:06:31Z</time>
</trkpt>
<trkpt lat="49.08139198087156" lon="8.653261922299862">
<ele>150</ele>
<time>2023-05-17T11:06:32Z</time>
</trkpt>
<trkpt lat="49.08144193701446" lon="8.653229987248778">
<ele>150</ele>
<time>2023-05-17T11:06:33Z</time>
</trkpt>
<trkpt lat="49.08148493617773" lon="8.65319293923676">
<ele>150</ele>
<time>2023-05-17T11:06:34Z</time>
</trkpt>
<trkpt lat="49.0815329644829" lon="8.653162932023406">
<ele>150</ele>
<time>2023-05-17T11:06:35Z</time>
</trkpt>
<trkpt lat="49.081582920625806" lon="8.653137953951955">
<ele>150</ele>
<time>2023-05-17T11:06:36Z</time>
</trkpt>
<trkpt lat="49.0816349722445" lon="8.653112975880504">
<ele>150</ele>
<time>2023-05-17T11:06:37Z</time>
</trkpt>
<trkpt lat="49.081687945872545" lon="8.65308498032391">
<ele>150</ele>
<time>2023-05-17T11:06:38Z</time>
</trkpt>
<trkpt lat="49.08173999749124" lon="8.653059918433428">
<ele>149.79999999999995</ele>
<time>2023-05-17T11:06:39Z</time>
</trkpt>
<trkpt lat="49.08178995363414" lon="8.653031922876835">
<ele>149.79999999999995</ele>
<time>2023-05-17T11:06:40Z</time>
</trkpt>
<trkpt lat="49.081836976110935" lon="8.653006944805384">
<ele>149.79999999999995</ele>
<time>2023-05-17T11:06:41Z</time>
</trkpt>
<trkpt lat="49.081884920597076" lon="8.652979955077171">
<ele>149.79999999999995</ele>
<time>2023-05-17T11:06:42Z</time>
</trkpt>
<trkpt lat="49.08193194307387" lon="8.652952965348959">
<ele>149.79999999999995</ele>
<time>2023-05-17T11:06:43Z</time>
</trkpt>
<trkpt lat="49.08198298886418" lon="8.652931926771998">
<ele>149.79999999999995</ele>
<time>2023-05-17T11:06:44Z</time>
</trkpt>
<trkpt lat="49.082027999684215" lon="8.652907954528928">
<ele>149.60000000000002</ele>
<time>2023-05-17T11:06:45Z</time>
</trkpt>
<trkpt lat="49.082069993019104" lon="8.652886999770999">
<ele>149.60000000000002</ele>
<time>2023-05-17T11:06:46Z</time>
</trkpt>
<trkpt lat="49.08211198635399" lon="8.652866967022419">
<ele>149.60000000000002</ele>
<time>2023-05-17T11:06:47Z</time>
</trkpt>
<trkpt lat="49.08215498551726" lon="8.652846934273839">
<ele>149.60000000000002</ele>
<time>2023-05-17T11:06:48Z</time>
</trkpt>
<trkpt lat="49.08219798468053" lon="8.65282497368753">
<ele>149.60000000000002</ele>
<time>2023-05-17T11:06:49Z</time>
</trkpt>
<trkpt lat="49.082242995500565" lon="8.652802929282188">
<ele>149.60000000000002</ele>
<time>2023-05-17T11:06:50Z</time>
</trkpt>
<trkpt lat="49.082291945815086" lon="8.65278298035264">
<ele>149.60000000000002</ele>
<time>2023-05-17T11:06:51Z</time>
</trkpt>
<trkpt lat="49.08234198577702" lon="8.652764959260821">
<ele>149.60000000000002</ele>
<time>2023-05-17T11:06:52Z</time>
</trkpt>
<trkpt lat="49.08238993026316" lon="8.652744926512241">
<ele>149.60000000000002</ele>
<time>2023-05-17T11:06:53Z</time>
</trkpt>
<trkpt lat="49.082439970225096" lon="8.65271994844079">
<ele>149.60000000000002</ele>
<time>2023-05-17T11:06:54Z</time>
</trkpt>
<trkpt lat="49.08248799853027" lon="8.6526969820261">
<ele>149.60000000000002</ele>
<time>2023-05-17T11:06:55Z</time>
</trkpt>
<trkpt lat="49.08253694884479" lon="8.652674937620759">
<ele>149.60000000000002</ele>
<time>2023-05-17T11:06:56Z</time>
</trkpt>
<trkpt lat="49.08258195966482" lon="8.65265297703445">
<ele>149.60000000000002</ele>
<time>2023-05-17T11:06:57Z</time>
</trkpt>
<trkpt lat="49.08262697048485" lon="8.652631938457489">
<ele>149.60000000000002</ele>
<time>2023-05-17T11:06:58Z</time>
</trkpt>
<trkpt lat="49.082672987133265" lon="8.65260997787118">
<ele>149.60000000000002</ele>
<time>2023-05-17T11:06:59Z</time>
</trkpt>
<trkpt lat="49.082717997953296" lon="8.6525899451226">
<ele>149.60000000000002</ele>
<time>2023-05-17T11:07:00Z</time>
</trkpt>
<trkpt lat="49.082762924954295" lon="8.65257192403078">
<ele>149.60000000000002</ele>
<time>2023-05-17T11:07:01Z</time>
</trkpt>
<trkpt lat="49.082807935774326" lon="8.65254795178771">
<ele>149.60000000000002</ele>
<time>2023-05-17T11:07:02Z</time>
</trkpt>
<trkpt lat="49.08285495825112" lon="8.652526997029781">
<ele>149.60000000000002</ele>
<time>2023-05-17T11:07:03Z</time>
</trkpt>
<trkpt lat="49.08290198072791" lon="8.652506964281201">
<ele>149.60000000000002</ele>
<time>2023-05-17T11:07:04Z</time>
</trkpt>
<trkpt lat="49.08294992521405" lon="8.652486931532621">
<ele>149.60000000000002</ele>
<time>2023-05-17T11:07:05Z</time>
</trkpt>
<trkpt lat="49.082999965175986" lon="8.652464970946312">
<ele>149.60000000000002</ele>
<time>2023-05-17T11:07:06Z</time>
</trkpt>
<trkpt lat="49.08304992131889" lon="8.652444938197732">
<ele>149.39999999999998</ele>
<time>2023-05-17T11:07:07Z</time>
</trkpt>
<trkpt lat="49.08309996128082" lon="8.652421971783042">
<ele>149.39999999999998</ele>
<time>2023-05-17T11:07:08Z</time>
</trkpt>
<trkpt lat="49.083151929080486" lon="8.652401939034462">
<ele>149.39999999999998</ele>
<time>2023-05-17T11:07:09Z</time>
</trkpt>
<trkpt lat="49.08320498652756" lon="8.652381990104914">
<ele>149.20000000000005</ele>
<time>2023-05-17T11:07:10Z</time>
</trkpt>
<trkpt lat="49.083257960155606" lon="8.652359945699573">
<ele>149.20000000000005</ele>
<time>2023-05-17T11:07:11Z</time>
</trkpt>
<trkpt lat="49.08331193961203" lon="8.652336979284883">
<ele>149</ele>
<time>2023-05-17T11:07:12Z</time>
</trkpt>
<trkpt lat="49.08336793072522" lon="8.6523119173944">
<ele>148.60000000000002</ele>
<time>2023-05-17T11:07:13Z</time>
</trkpt>
<trkpt lat="49.083426939323545" lon="8.65228995680809">
<ele>148.39999999999998</ele>
<time>2023-05-17T11:07:14Z</time>
</trkpt>
<trkpt lat="49.08348494209349" lon="8.65226799622178">
<ele>148</ele>
<time>2023-05-17T11:07:15Z</time>
</trkpt>
<trkpt lat="49.08354294486344" lon="8.652244945988059">
<ele>147.60000000000002</ele>
<time>2023-05-17T11:07:16Z</time>
</trkpt>
<trkpt lat="49.083599941805005" lon="8.652221979573369">
<ele>147.20000000000005</ele>
<time>2023-05-17T11:07:17Z</time>
</trkpt>
<trkpt lat="49.08365794457495" lon="8.652197923511267">
<ele>147</ele>
<time>2023-05-17T11:07:18Z</time>
</trkpt>
<trkpt lat="49.08371494151652" lon="8.652176968753338">
<ele>146.60000000000002</ele>
<time>2023-05-17T11:07:19Z</time>
</trkpt>
<trkpt lat="49.083769926801324" lon="8.652154924347997">
<ele>146.39999999999998</ele>
<time>2023-05-17T11:07:20Z</time>
</trkpt>
<trkpt lat="49.0838229842484" lon="8.652131957933307">
<ele>146.39999999999998</ele>
<time>2023-05-17T11:07:21Z</time>
</trkpt>
<trkpt lat="49.083876963704824" lon="8.652107985690236">
<ele>146.20000000000005</ele>
<time>2023-05-17T11:07:22Z</time>
</trkpt>
<trkpt lat="49.08392792567611" lon="8.652089964598417">
<ele>146.20000000000005</ele>
<time>2023-05-17T11:07:23Z</time>
</trkpt>
<trkpt lat="49.083982994779944" lon="8.652069931849837">
<ele>146.20000000000005</ele>
<time>2023-05-17T11:07:24Z</time>
</trkpt>
<trkpt lat="49.08403697423637" lon="8.65205199457705">
<ele>146.20000000000005</ele>
<time>2023-05-17T11:07:25Z</time>
</trkpt>
<trkpt lat="49.084091959521174" lon="8.652034979313612">
<ele>146.20000000000005</ele>
<time>2023-05-17T11:07:26Z</time>
</trkpt>
<trkpt lat="49.08414795063436" lon="8.652014946565032">
<ele>146.20000000000005</ele>
<time>2023-05-17T11:07:27Z</time>
</trkpt>
<trkpt lat="49.084202935919166" lon="8.651997931301594">
<ele>146.20000000000005</ele>
<time>2023-05-17T11:07:28Z</time>
</trkpt>
<trkpt lat="49.08425792120397" lon="8.651981921866536">
<ele>146.20000000000005</ele>
<time>2023-05-17T11:07:29Z</time>
</trkpt>
<trkpt lat="49.08431491814554" lon="8.651962978765368">
<ele>146.20000000000005</ele>
<time>2023-05-17T11:07:30Z</time>
</trkpt>
<trkpt lat="49.084371998906136" lon="8.651942946016788">
<ele>146.20000000000005</ele>
<time>2023-05-17T11:07:31Z</time>
</trkpt>
<trkpt lat="49.08442698419094" lon="8.65192693658173">
<ele>146.20000000000005</ele>
<time>2023-05-17T11:07:32Z</time>
</trkpt>
<trkpt lat="49.084481969475746" lon="8.651909921318293">
<ele>146.20000000000005</ele>
<time>2023-05-17T11:07:33Z</time>
</trkpt>
<trkpt lat="49.08453494310379" lon="8.651894917711616">
<ele>146.20000000000005</ele>
<time>2023-05-17T11:07:34Z</time>
</trkpt>
<trkpt lat="49.084589928388596" lon="8.6518819257617">
<ele>146.20000000000005</ele>
<time>2023-05-17T11:07:35Z</time>
</trkpt>
<trkpt lat="49.08464298583567" lon="8.651866922155023">
<ele>146.20000000000005</ele>
<time>2023-05-17T11:07:36Z</time>
</trkpt>
<trkpt lat="49.084696965292096" lon="8.651852924376726">
<ele>146.20000000000005</ele>
<time>2023-05-17T11:07:37Z</time>
</trkpt>
<trkpt lat="49.0847519505769" lon="8.651841944083571">
<ele>146.20000000000005</ele>
<time>2023-05-17T11:07:38Z</time>
</trkpt>
<trkpt lat="49.084804924204946" lon="8.651829957962036">
<ele>146.20000000000005</ele>
<time>2023-05-17T11:07:39Z</time>
</trkpt>
<trkpt lat="49.08485798165202" lon="8.6518179718405">
<ele>146.20000000000005</ele>
<time>2023-05-17T11:07:40Z</time>
</trkpt>
<trkpt lat="49.084911961108446" lon="8.651809925213456">
<ele>146.20000000000005</ele>
<time>2023-05-17T11:07:41Z</time>
</trkpt>
<trkpt lat="49.08496292307973" lon="8.651801962405443">
<ele>146.20000000000005</ele>
<time>2023-05-17T11:07:42Z</time>
</trkpt>
<trkpt lat="49.08501296304166" lon="8.651794921606779">
<ele>146</ele>
<time>2023-05-17T11:07:43Z</time>
</trkpt>
<trkpt lat="49.08506199717522" lon="8.651789976283908">
<ele>146</ele>
<time>2023-05-17T11:07:44Z</time>
</trkpt>
<trkpt lat="49.0851079300046" lon="8.651784947142005">
<ele>146</ele>
<time>2023-05-17T11:07:45Z</time>
</trkpt>
<trkpt lat="49.08515696413815" lon="8.651784947142005">
<ele>146</ele>
<time>2023-05-17T11:07:46Z</time>
</trkpt>
<trkpt lat="49.08520499244332" lon="8.651784947142005">
<ele>146</ele>
<time>2023-05-17T11:07:47Z</time>
</trkpt>
<trkpt lat="49.085252936929464" lon="8.651784947142005">
<ele>146</ele>
<time>2023-05-17T11:07:48Z</time>
</trkpt>
<trkpt lat="49.08530197106302" lon="8.651786958798766">
<ele>145.79999999999995</ele>
<time>2023-05-17T11:07:49Z</time>
</trkpt>
<trkpt lat="49.08534999936819" lon="8.651787964627147">
<ele>145.79999999999995</ele>
<time>2023-05-17T11:07:50Z</time>
</trkpt>
<trkpt lat="49.08539693802595" lon="8.651789976283908">
<ele>145.79999999999995</ele>
<time>2023-05-17T11:07:51Z</time>
</trkpt>
<trkpt lat="49.08544295467436" lon="8.651789976283908">
<ele>145.79999999999995</ele>
<time>2023-05-17T11:07:52Z</time>
</trkpt>
<trkpt lat="49.085489977151155" lon="8.651786958798766">
<ele>145.79999999999995</ele>
<time>2023-05-17T11:07:53Z</time>
</trkpt>
<trkpt lat="49.08553498797119" lon="8.651782935485244">
<ele>145.79999999999995</ele>
<time>2023-05-17T11:07:54Z</time>
</trkpt>
<trkpt lat="49.08557798713446" lon="8.651784947142005">
<ele>145.79999999999995</ele>
<time>2023-05-17T11:07:55Z</time>
</trkpt>
<trkpt lat="49.08562492579222" lon="8.651787964627147">
<ele>145.79999999999995</ele>
<time>2023-05-17T11:07:56Z</time>
</trkpt>
<trkpt lat="49.08567194826901" lon="8.651789976283908">
<ele>145.79999999999995</ele>
<time>2023-05-17T11:07:57Z</time>
</trkpt>
<trkpt lat="49.08571494743228" lon="8.65179299376905">
<ele>145.79999999999995</ele>
<time>2023-05-17T11:07:58Z</time>
</trkpt>
<trkpt lat="49.085747972130775" lon="8.651794921606779">
<ele>145.79999999999995</ele>
<time>2023-05-17T11:07:59Z</time>
</trkpt>
<trkpt lat="49.085771944373846" lon="8.65179793909192">
<ele>145.79999999999995</ele>
<time>2023-05-17T11:08:00Z</time>
</trkpt>
<trkpt lat="49.08579298295081" lon="8.651801962405443">
<ele>145.79999999999995</ele>
<time>2023-05-17T11:08:01Z</time>
</trkpt>
<trkpt lat="49.085812931880355" lon="8.651801962405443">
<ele>145.79999999999995</ele>
<time>2023-05-17T11:08:02Z</time>
</trkpt>
<trkpt lat="49.085831958800554" lon="8.651802968233824">
<ele>145.79999999999995</ele>
<time>2023-05-17T11:08:03Z</time>
</trkpt>
<trkpt lat="49.085854925215244" lon="8.651802968233824">
<ele>145.79999999999995</ele>
<time>2023-05-17T11:08:04Z</time>
</trkpt>
<trkpt lat="49.08587998710573" lon="8.651801962405443">
<ele>145.79999999999995</ele>
<time>2023-05-17T11:08:05Z</time>
</trkpt>
<trkpt lat="49.08590697683394" lon="8.65179693326354">
<ele>145.79999999999995</ele>
<time>2023-05-17T11:08:06Z</time>
</trkpt>
<trkpt lat="49.085939917713404" lon="8.651789976283908">
<ele>145.79999999999995</ele>
<time>2023-05-17T11:08:07Z</time>
</trkpt>
<trkpt lat="49.0859779715538" lon="8.651779918000102">
<ele>145.79999999999995</ele>
<time>2023-05-17T11:08:08Z</time>
</trkpt>
<trkpt lat="49.08601694740355" lon="8.651769943535328">
<ele>145.79999999999995</ele>
<time>2023-05-17T11:08:09Z</time>
</trkpt>
<trkpt lat="49.08605198375881" lon="8.651757957413793">
<ele>145.79999999999995</ele>
<time>2023-05-17T11:08:10Z</time>
</trkpt>
<trkpt lat="49.08608492463827" lon="8.651742953807116">
<ele>145.79999999999995</ele>
<time>2023-05-17T11:08:11Z</time>
</trkpt>
<trkpt lat="49.08611694350839" lon="8.651719987392426">
<ele>145.79999999999995</ele>
<time>2023-05-17T11:08:12Z</time>
</trkpt>
<trkpt lat="49.08614292740822" lon="8.65168696269393">
<ele>145.79999999999995</ele>
<time>2023-05-17T11:08:13Z</time>
</trkpt>
<trkpt lat="49.08616497181356" lon="8.651646981015801">
<ele>145.79999999999995</ele>
<time>2023-05-17T11:08:14Z</time>
</trkpt>
<trkpt lat="49.086177963763475" lon="8.651597946882248">
<ele>145.79999999999995</ele>
<time>2023-05-17T11:08:15Z</time>
</trkpt>
<trkpt lat="49.08618492074311" lon="8.651544973254204">
<ele>146</ele>
<time>2023-05-17T11:08:16Z</time>
</trkpt>
<trkpt lat="49.08618492074311" lon="8.65149199962616">
<ele>146</ele>
<time>2023-05-17T11:08:17Z</time>
</trkpt>
<trkpt lat="49.08618299290538" lon="8.651436930522323">
<ele>146</ele>
<time>2023-05-17T11:08:18Z</time>
</trkpt>
<trkpt lat="49.086181987077" lon="8.651382951065898">
<ele>146.20000000000005</ele>
<time>2023-05-17T11:08:19Z</time>
</trkpt>
<trkpt lat="49.08618299290538" lon="8.651329977437854">
<ele>146.20000000000005</ele>
<time>2023-05-17T11:08:20Z</time>
</trkpt>
<trkpt lat="49.086181987077" lon="8.651276919990778">
<ele>146.39999999999998</ele>
<time>2023-05-17T11:08:21Z</time>
</trkpt>
<trkpt lat="49.086181987077" lon="8.651224952191114">
<ele>146.39999999999998</ele>
<time>2023-05-17T11:08:22Z</time>
</trkpt>
<trkpt lat="49.086181987077" lon="8.65117197856307">
<ele>146.39999999999998</ele>
<time>2023-05-17T11:08:23Z</time>
</trkpt>
<trkpt lat="49.086181987077" lon="8.651114981621504">
<ele>146.39999999999998</ele>
<time>2023-05-17T11:08:24Z</time>
</trkpt>
<trkpt lat="49.08618299290538" lon="8.651061924174428">
<ele>146.39999999999998</ele>
<time>2023-05-17T11:08:25Z</time>
</trkpt>
<trkpt lat="49.08618693239987" lon="8.651007944718003">
<ele>146.39999999999998</ele>
<time>2023-05-17T11:08:26Z</time>
</trkpt>
<trkpt lat="49.08619196154177" lon="8.65095497108996">
<ele>146.39999999999998</ele>
<time>2023-05-17T11:08:27Z</time>
</trkpt>
<trkpt lat="49.086201936006546" lon="8.650902919471264">
<ele>146.39999999999998</ele>
<time>2023-05-17T11:08:28Z</time>
</trkpt>
<trkpt lat="49.08621492795646" lon="8.65084994584322">
<ele>146.39999999999998</ele>
<time>2023-05-17T11:08:29Z</time>
</trkpt>
<trkpt lat="49.08623294904828" lon="8.650796972215176">
<ele>146.60000000000002</ele>
<time>2023-05-17T11:08:30Z</time>
</trkpt>
<trkpt lat="49.08624996431172" lon="8.65074198693037">
<ele>146.60000000000002</ele>
<time>2023-05-17T11:08:31Z</time>
</trkpt>
<trkpt lat="49.08626697957516" lon="8.650686917826533">
<ele>146.60000000000002</ele>
<time>2023-05-17T11:08:32Z</time>
</trkpt>
<trkpt lat="49.086286928504705" lon="8.650631932541728">
<ele>146.60000000000002</ele>
<time>2023-05-17T11:08:33Z</time>
</trkpt>
<trkpt lat="49.086304949596524" lon="8.6505729239434">
<ele>146.60000000000002</ele>
<time>2023-05-17T11:08:34Z</time>
</trkpt>
<trkpt lat="49.0863199532032" lon="8.650512993335724">
<ele>146.60000000000002</ele>
<time>2023-05-17T11:08:35Z</time>
</trkpt>
<trkpt lat="49.08633797429502" lon="8.650452978909016">
<ele>146.60000000000002</ele>
<time>2023-05-17T11:08:36Z</time>
</trkpt>
<trkpt lat="49.08635792322457" lon="8.650401933118701">
<ele>146.60000000000002</ele>
<time>2023-05-17T11:08:37Z</time>
</trkpt>
<trkpt lat="49.08638197928667" lon="8.650341918691993">
<ele>146.60000000000002</ele>
<time>2023-05-17T11:08:38Z</time>
</trkpt>
<trkpt lat="49.08640494570136" lon="8.650281988084316">
<ele>146.60000000000002</ele>
<time>2023-05-17T11:08:39Z</time>
</trkpt>
<trkpt lat="49.0864269901067" lon="8.650219962000847">
<ele>146.60000000000002</ele>
<time>2023-05-17T11:08:40Z</time>
</trkpt>
<trkpt lat="49.08644693903625" lon="8.650159947574139">
<ele>146.60000000000002</ele>
<time>2023-05-17T11:08:41Z</time>
</trkpt>
<trkpt lat="49.08646496012807" lon="8.650104962289333">
<ele>146.60000000000002</ele>
<time>2023-05-17T11:08:42Z</time>
</trkpt>
<trkpt lat="49.08648499287665" lon="8.650046959519386">
<ele>146.39999999999998</ele>
<time>2023-05-17T11:08:43Z</time>
</trkpt>
<trkpt lat="49.086501924321055" lon="8.649986945092678">
<ele>146.39999999999998</ele>
<time>2023-05-17T11:08:44Z</time>
</trkpt>
<trkpt lat="49.08651793375611" lon="8.64992693066597">
<ele>146.39999999999998</ele>
<time>2023-05-17T11:08:45Z</time>
</trkpt>
<trkpt lat="49.08653293736279" lon="8.649869933724403">
<ele>146.39999999999998</ele>
<time>2023-05-17T11:08:46Z</time>
</trkpt>
<trkpt lat="49.08654693514109" lon="8.649811930954456">
<ele>146.39999999999998</ele>
<time>2023-05-17T11:08:47Z</time>
</trkpt>
<trkpt lat="49.086561938747764" lon="8.649747977033257">
<ele>146.39999999999998</ele>
<time>2023-05-17T11:08:48Z</time>
</trkpt>
<trkpt lat="49.08657694235444" lon="8.649681927636266">
<ele>146.39999999999998</ele>
<time>2023-05-17T11:08:49Z</time>
</trkpt>
<trkpt lat="49.08658993430436" lon="8.649614956229925">
<ele>146.39999999999998</ele>
<time>2023-05-17T11:08:50Z</time>
</trkpt>
<trkpt lat="49.086604937911034" lon="8.649547984823585">
<ele>146.39999999999998</ele>
<time>2023-05-17T11:08:51Z</time>
</trkpt>
<trkpt lat="49.08661792986095" lon="8.649479923769832">
<ele>146.39999999999998</ele>
<time>2023-05-17T11:08:52Z</time>
</trkpt>
<trkpt lat="49.086627988144755" lon="8.64940993487835">
<ele>146.39999999999998</ele>
<time>2023-05-17T11:08:53Z</time>
</trkpt>
<trkpt lat="49.08663796260953" lon="8.649341957643628">
<ele>146.39999999999998</ele>
<time>2023-05-17T11:08:54Z</time>
</trkpt>
<trkpt lat="49.08664299175143" lon="8.649272974580526">
<ele>146.39999999999998</ele>
<time>2023-05-17T11:08:55Z</time>
</trkpt>
<trkpt lat="49.08664693124592" lon="8.649201979860663">
<ele>146.39999999999998</ele>
<time>2023-05-17T11:08:56Z</time>
</trkpt>
<trkpt lat="49.086649948731065" lon="8.649131990969181">
<ele>146.39999999999998</ele>
<time>2023-05-17T11:08:57Z</time>
</trkpt>
<trkpt lat="49.08665296621621" lon="8.649062924087048">
<ele>146.39999999999998</ele>
<time>2023-05-17T11:08:58Z</time>
</trkpt>
<trkpt lat="49.08665497787297" lon="8.648992935195565">
<ele>146.39999999999998</ele>
<time>2023-05-17T11:08:59Z</time>
</trkpt>
<trkpt lat="49.08665497787297" lon="8.648919928818941">
<ele>146.39999999999998</ele>
<time>2023-05-17T11:09:00Z</time>
</trkpt>
<trkpt lat="49.086649948731065" lon="8.648847928270698">
<ele>146.39999999999998</ele>
<time>2023-05-17T11:09:01Z</time>
</trkpt>
<trkpt lat="49.08664299175143" lon="8.648777939379215">
<ele>146.39999999999998</ele>
<time>2023-05-17T11:09:02Z</time>
</trkpt>
<trkpt lat="49.08663695678115" lon="8.648709962144494">
<ele>146.39999999999998</ele>
<time>2023-05-17T11:09:03Z</time>
</trkpt>
<trkpt lat="49.08662999980152" lon="8.648644918575883">
<ele>146.39999999999998</ele>
<time>2023-05-17T11:09:04Z</time>
</trkpt>
<trkpt lat="49.08662295900285" lon="8.648581970483065">
<ele>146.39999999999998</ele>
<time>2023-05-17T11:09:05Z</time>
</trkpt>
<trkpt lat="49.08661792986095" lon="8.648512987419963">
<ele>146.39999999999998</ele>
<time>2023-05-17T11:09:06Z</time>
</trkpt>
<trkpt lat="49.08661499619484" lon="8.648451967164874">
<ele>146.39999999999998</ele>
<time>2023-05-17T11:09:07Z</time>
</trkpt>
<trkpt lat="49.08661298453808" lon="8.648396981880069">
<ele>146.39999999999998</ele>
<time>2023-05-17T11:09:08Z</time>
</trkpt>
<trkpt lat="49.08661298453808" lon="8.648344930261374">
<ele>146.39999999999998</ele>
<time>2023-05-17T11:09:09Z</time>
</trkpt>
<trkpt lat="49.0866119787097" lon="8.648299919441342">
<ele>146.39999999999998</ele>
<time>2023-05-17T11:09:10Z</time>
</trkpt>
<trkpt lat="49.08660996705294" lon="8.648259937763214">
<ele>146.39999999999998</ele>
<time>2023-05-17T11:09:11Z</time>
</trkpt>
<trkpt lat="49.086606949567795" lon="8.648219956085086">
<ele>146.39999999999998</ele>
<time>2023-05-17T11:09:12Z</time>
</trkpt>
<trkpt lat="49.08660192042589" lon="8.648184919729829">
<ele>146.39999999999998</ele>
<time>2023-05-17T11:09:13Z</time>
</trkpt>
<trkpt lat="49.08659697510302" lon="8.648159941658378">
<ele>146.39999999999998</ele>
<time>2023-05-17T11:09:14Z</time>
</trkpt>
<trkpt lat="49.08659194596112" lon="8.648132951930165">
<ele>146.39999999999998</ele>
<time>2023-05-17T11:09:15Z</time>
</trkpt>
<trkpt lat="49.0865929517895" lon="8.648111997172236">
<ele>146.39999999999998</ele>
<time>2023-05-17T11:09:16Z</time>
</trkpt>
<trkpt lat="49.0865979809314" lon="8.648082995787263">
<ele>146.39999999999998</ele>
<time>2023-05-17T11:09:17Z</time>
</trkpt>
<trkpt lat="49.0866119787097" lon="8.648052988573909">
<ele>146.39999999999998</ele>
<time>2023-05-17T11:09:18Z</time>
</trkpt>
<trkpt lat="49.08662999980152" lon="8.648022981360555">
<ele>146.39999999999998</ele>
<time>2023-05-17T11:09:19Z</time>
</trkpt>
<trkpt lat="49.086651960387826" lon="8.647996997460723">
<ele>146.60000000000002</ele>
<time>2023-05-17T11:09:20Z</time>
</trkpt>
<trkpt lat="49.086674926802516" lon="8.64797294139862">
<ele>146.60000000000002</ele>
<time>2023-05-17T11:09:21Z</time>
</trkpt>
<trkpt lat="49.08669697120786" lon="8.647954920306802">
<ele>146.60000000000002</ele>
<time>2023-05-17T11:09:22Z</time>
</trkpt>
<trkpt lat="49.086712980642915" lon="8.647941928356886">
<ele>146.60000000000002</ele>
<time>2023-05-17T11:09:23Z</time>
</trkpt>
<trkpt lat="49.08672798424959" lon="8.64792793057859">
<ele>146.60000000000002</ele>
<time>2023-05-17T11:09:24Z</time>
</trkpt>
<trkpt lat="49.08673997037113" lon="8.647914938628674">
<ele>146.79999999999995</ele>
<time>2023-05-17T11:09:25Z</time>
</trkpt>
<trkpt lat="49.08675195649266" lon="8.647901946678758">
<ele>146.79999999999995</ele>
<time>2023-05-17T11:09:26Z</time>
</trkpt>
<trkpt lat="49.08676494844258" lon="8.647889960557222">
<ele>146.79999999999995</ele>
<time>2023-05-17T11:09:27Z</time>
</trkpt>
<trkpt lat="49.086776934564114" lon="8.64788199774921">
<ele>146.79999999999995</ele>
<time>2023-05-17T11:09:28Z</time>
</trkpt>
<trkpt lat="49.0867879986763" lon="8.647871939465404">
<ele>146.79999999999995</ele>
<time>2023-05-17T11:09:29Z</time>
</trkpt>
<trkpt lat="49.086802918463945" lon="8.647864982485771">
<ele>146.79999999999995</ele>
<time>2023-05-17T11:09:30Z</time>
</trkpt>
<trkpt lat="49.086819933727384" lon="8.647856935858727">
<ele>146.79999999999995</ele>
<time>2023-05-17T11:09:31Z</time>
</trkpt>
<trkpt lat="49.08683493733406" lon="8.647849978879094">
<ele>146.79999999999995</ele>
<time>2023-05-17T11:09:32Z</time>
</trkpt>
<trkpt lat="49.08684994094074" lon="8.64784193225205">
<ele>146.79999999999995</ele>
<time>2023-05-17T11:09:33Z</time>
</trkpt>
<trkpt lat="49.086862932890654" lon="8.647831957787275">
<ele>146.79999999999995</ele>
<time>2023-05-17T11:09:34Z</time>
</trkpt>
<trkpt lat="49.08687693066895" lon="8.647821983322501">
<ele>146.79999999999995</ele>
<time>2023-05-17T11:09:35Z</time>
</trkpt>
<trkpt lat="49.086889922618866" lon="8.647812930867076">
<ele>146.79999999999995</ele>
<time>2023-05-17T11:09:36Z</time>
</trkpt>
<trkpt lat="49.08689696341753" lon="8.647809997200966">
<ele>146.79999999999995</ele>
<time>2023-05-17T11:09:37Z</time>
</trkpt>
<trkpt lat="49.08689796924591" lon="8.647806979715824">
<ele>146.79999999999995</ele>
<time>2023-05-17T11:09:38Z</time>
</trkpt>
<trkpt lat="49.08696292899549" lon="8.647752916440368">
<ele>146.79999999999995</ele>
<time>2023-05-17T11:09:40Z</time>
</trkpt>
<trkpt lat="49.08698195591569" lon="8.647736990824342">
<ele>146.60000000000002</ele>
<time>2023-05-17T11:09:41Z</time>
</trkpt>
<trkpt lat="49.08700198866427" lon="8.647717963904142">
<ele>146.60000000000002</ele>
<time>2023-05-17T11:09:42Z</time>
</trkpt>
<trkpt lat="49.08702193759382" lon="8.647699942812324">
<ele>146.60000000000002</ele>
<time>2023-05-17T11:09:43Z</time>
</trkpt>
<trkpt lat="49.0870419703424" lon="8.647674964740872">
<ele>146.60000000000002</ele>
<time>2023-05-17T11:09:44Z</time>
</trkpt>
<trkpt lat="49.087061919271946" lon="8.647641940042377">
<ele>146.60000000000002</ele>
<time>2023-05-17T11:09:45Z</time>
</trkpt>
<trkpt lat="49.087081952020526" lon="8.64760497584939">
<ele>146.60000000000002</ele>
<time>2023-05-17T11:09:46Z</time>
</trkpt>
<trkpt lat="49.087104918435216" lon="8.647571951150894">
<ele>146.60000000000002</ele>
<time>2023-05-17T11:09:47Z</time>
</trkpt>
<trkpt lat="49.08712796866894" lon="8.64754294976592">
<ele>146.39999999999998</ele>
<time>2023-05-17T11:09:48Z</time>
</trkpt>
<trkpt lat="49.08715294674039" lon="8.64751797169447">
<ele>146.39999999999998</ele>
<time>2023-05-17T11:09:49Z</time>
</trkpt>
<trkpt lat="49.0871799364686" lon="8.647496933117509">
<ele>146.39999999999998</ele>
<time>2023-05-17T11:09:50Z</time>
</trkpt>
<trkpt lat="49.08721195533872" lon="8.64747698418796">
<ele>146.39999999999998</ele>
<time>2023-05-17T11:09:51Z</time>
</trkpt>
<trkpt lat="49.08724196255207" lon="8.647459968924522">
<ele>146.39999999999998</ele>
<time>2023-05-17T11:09:52Z</time>
</trkpt>
<trkpt lat="49.08727498725057" lon="8.647442953661084">
<ele>146.39999999999998</ele>
<time>2023-05-17T11:09:53Z</time>
</trkpt>
<trkpt lat="49.08731195144355" lon="8.647426944226027">
<ele>146.39999999999998</ele>
<time>2023-05-17T11:09:54Z</time>
</trkpt>
<trkpt lat="49.08734698779881" lon="8.647409928962588">
<ele>146.39999999999998</ele>
<time>2023-05-17T11:09:55Z</time>
</trkpt>
<trkpt lat="49.087382946163416" lon="8.647387968376279">
<ele>146.39999999999998</ele>
<time>2023-05-17T11:09:56Z</time>
</trkpt>
<trkpt lat="49.087421922013164" lon="8.647364918142557">
<ele>146.39999999999998</ele>
<time>2023-05-17T11:09:57Z</time>
</trkpt>
<trkpt lat="49.08746198751032" lon="8.647341951727867">
<ele>146.39999999999998</ele>
<time>2023-05-17T11:09:58Z</time>
</trkpt>
<trkpt lat="49.08750196918845" lon="8.647319991141558">
<ele>146.39999999999998</ele>
<time>2023-05-17T11:09:59Z</time>
</trkpt>
<trkpt lat="49.08753993920982" lon="8.647299958392978">
<ele>146.39999999999998</ele>
<time>2023-05-17T11:10:00Z</time>
</trkpt>
<trkpt lat="49.087574975565076" lon="8.647279925644398">
<ele>146.39999999999998</ele>
<time>2023-05-17T11:10:01Z</time>
</trkpt>
<trkpt lat="49.08760699443519" lon="8.64726198837161">
<ele>146.60000000000002</ele>
<time>2023-05-17T11:10:02Z</time>
</trkpt>
<trkpt lat="49.087637923657894" lon="8.647247990593314">
<ele>146.60000000000002</ele>
<time>2023-05-17T11:10:03Z</time>
</trkpt>
<trkpt lat="49.08766692504287" lon="8.647234998643398">
<ele>146.60000000000002</ele>
<time>2023-05-17T11:10:04Z</time>
</trkpt>
<trkpt lat="49.08769492059946" lon="8.647219995036721">
<ele>146.60000000000002</ele>
<time>2023-05-17T11:10:05Z</time>
</trkpt>
<trkpt lat="49.087722999975085" lon="8.647202979773283">
<ele>146.60000000000002</ele>
<time>2023-05-17T11:10:06Z</time>
</trkpt>
<trkpt lat="49.08775191754103" lon="8.647187976166606">
<ele>146.60000000000002</ele>
<time>2023-05-17T11:10:07Z</time>
</trkpt>
<trkpt lat="49.08777999691665" lon="8.647166937589645">
<ele>146.60000000000002</ele>
<time>2023-05-17T11:10:08Z</time>
</trkpt>
<trkpt lat="49.08780195750296" lon="8.64713198505342">
<ele>146.60000000000002</ele>
<time>2023-05-17T11:10:09Z</time>
</trkpt>
<trkpt lat="49.087811931967735" lon="8.647077921777964">
<ele>146.60000000000002</ele>
<time>2023-05-17T11:10:10Z</time>
</trkpt>
<trkpt lat="49.087809920310974" lon="8.647019919008017">
<ele>146.79999999999995</ele>
<time>2023-05-17T11:10:11Z</time>
</trkpt>
<trkpt lat="49.08779793418944" lon="8.64696191623807">
<ele>146.79999999999995</ele>
<time>2023-05-17T11:10:12Z</time>
</trkpt>
<trkpt lat="49.08778293058276" lon="8.646902991458774">
<ele>146.79999999999995</ele>
<time>2023-05-17T11:10:13Z</time>
</trkpt>
<trkpt lat="49.08776298165321" lon="8.646846916526556">
<ele>146.79999999999995</ele>
<time>2023-05-17T11:10:14Z</time>
</trkpt>
<trkpt lat="49.087744960561395" lon="8.64678799174726">
<ele>146.79999999999995</ele>
<time>2023-05-17T11:10:15Z</time>
</trkpt>
<trkpt lat="49.087726939469576" lon="8.646727977320552">
<ele>146.79999999999995</ele>
<time>2023-05-17T11:10:16Z</time>
</trkpt>
<trkpt lat="49.08770992420614" lon="8.646667962893844">
<ele>146.79999999999995</ele>
<time>2023-05-17T11:10:17Z</time>
</trkpt>
<trkpt lat="49.08769299276173" lon="8.646601997315884">
<ele>147</ele>
<time>2023-05-17T11:10:18Z</time>
</trkpt>
<trkpt lat="49.08767698332667" lon="8.646534942090511">
<ele>147</ele>
<time>2023-05-17T11:10:19Z</time>
</trkpt>
<trkpt lat="49.08765695057809" lon="8.646469982340932">
<ele>147</ele>
<time>2023-05-17T11:10:20Z</time>
</trkpt>
<trkpt lat="49.08763691782951" lon="8.64640493877232">
<ele>147.20000000000005</ele>
<time>2023-05-17T11:10:21Z</time>
</trkpt>
<trkpt lat="49.087616968899965" lon="8.646341990679502">
<ele>147.20000000000005</ele>
<time>2023-05-17T11:10:22Z</time>
</trkpt>
<trkpt lat="49.087596936151385" lon="8.646277952939272">
<ele>147.20000000000005</ele>
<time>2023-05-17T11:10:23Z</time>
</trkpt>
<trkpt lat="49.087574975565076" lon="8.646216932684183">
<ele>147.39999999999998</ele>
<time>2023-05-17T11:10:24Z</time>
</trkpt>
<trkpt lat="49.087551925331354" lon="8.646151972934604">
<ele>147.39999999999998</ele>
<time>2023-05-17T11:10:25Z</time>
</trkpt>
<trkpt lat="49.08752795308828" lon="8.646089946851134">
<ele>147.39999999999998</ele>
<time>2023-05-17T11:10:26Z</time>
</trkpt>
<trkpt lat="49.08750498667359" lon="8.646027920767665">
<ele>147.60000000000002</ele>
<time>2023-05-17T11:10:27Z</time>
</trkpt>
<trkpt lat="49.08748495392501" lon="8.645962961018085">
<ele>147.60000000000002</ele>
<time>2023-05-17T11:10:28Z</time>
</trkpt>
<trkpt lat="49.087462993338704" lon="8.645899929106236">
<ele>147.60000000000002</ele>
<time>2023-05-17T11:10:29Z</time>
</trkpt>
<trkpt lat="49.08743994310498" lon="8.645836981013417">
<ele>147.79999999999995</ele>
<time>2023-05-17T11:10:30Z</time>
</trkpt>
<trkpt lat="49.08741295337677" lon="8.645772943273187">
<ele>147.79999999999995</ele>
<time>2023-05-17T11:10:31Z</time>
</trkpt>
<trkpt lat="49.08738696947694" lon="8.645711923018098">
<ele>148</ele>
<time>2023-05-17T11:10:32Z</time>
</trkpt>
<trkpt lat="49.08736199140549" lon="8.645646963268518">
<ele>148</ele>
<time>2023-05-17T11:10:33Z</time>
</trkpt>
<trkpt lat="49.087336929515004" lon="8.645589966326952">
<ele>148</ele>
<time>2023-05-17T11:10:34Z</time>
</trkpt>
<trkpt lat="49.087312957271934" lon="8.645526934415102">
<ele>148.20000000000005</ele>
<time>2023-05-17T11:10:35Z</time>
</trkpt>
<trkpt lat="49.08728797920048" lon="8.645461974665523">
<ele>148.20000000000005</ele>
<time>2023-05-17T11:10:36Z</time>
</trkpt>
<trkpt lat="49.08726199530065" lon="8.645399948582053">
<ele>148.20000000000005</ele>
<time>2023-05-17T11:10:37Z</time>
</trkpt>
<trkpt lat="49.0872319880873" lon="8.645337922498584">
<ele>148.39999999999998</ele>
<time>2023-05-17T11:10:38Z</time>
</trkpt>
<trkpt lat="49.08719996921718" lon="8.645272962749004">
<ele>148.39999999999998</ele>
<time>2023-05-17T11:10:39Z</time>
</trkpt>
<trkpt lat="49.08717197366059" lon="8.645204985514283">
<ele>148.39999999999998</ele>
<time>2023-05-17T11:10:40Z</time>
</trkpt>
<trkpt lat="49.08714699558914" lon="8.64513692446053">
<ele>148.60000000000002</ele>
<time>2023-05-17T11:10:41Z</time>
</trkpt>
<trkpt lat="49.087121933698654" lon="8.645067941397429">
<ele>148.60000000000002</ele>
<time>2023-05-17T11:10:42Z</time>
</trkpt>
<trkpt lat="49.08709293231368" lon="8.644999964162707">
<ele>148.60000000000002</ele>
<time>2023-05-17T11:10:43Z</time>
</trkpt>
<trkpt lat="49.08706292510033" lon="8.644936932250857">
<ele>148.60000000000002</ele>
<time>2023-05-17T11:10:44Z</time>
</trkpt>
<trkpt lat="49.087036941200495" lon="8.644872978329659">
<ele>148.79999999999995</ele>
<time>2023-05-17T11:10:45Z</time>
</trkpt>
<trkpt lat="49.08700995147228" lon="8.644807934761047">
<ele>148.79999999999995</ele>
<time>2023-05-17T11:10:46Z</time>
</trkpt>
<trkpt lat="49.08698195591569" lon="8.644739957526326">
<ele>148.79999999999995</ele>
<time>2023-05-17T11:10:47Z</time>
</trkpt>
<trkpt lat="49.08695697784424" lon="8.644667956978083">
<ele>149</ele>
<time>2023-05-17T11:10:48Z</time>
</trkpt>
<trkpt lat="49.086932921782136" lon="8.64459696225822">
<ele>149.20000000000005</ele>
<time>2023-05-17T11:10:49Z</time>
</trkpt>
<trkpt lat="49.086907943710685" lon="8.64452999085188">
<ele>149.20000000000005</ele>
<time>2023-05-17T11:10:50Z</time>
</trkpt>
<trkpt lat="49.086882965639234" lon="8.644462935626507">
<ele>149.39999999999998</ele>
<time>2023-05-17T11:10:51Z</time>
</trkpt>
<trkpt lat="49.086859999224544" lon="8.644394958391786">
<ele>149.39999999999998</ele>
<time>2023-05-17T11:10:52Z</time>
</trkpt>
<trkpt lat="49.0868379548192" lon="8.644326981157064">
<ele>149.60000000000002</ele>
<time>2023-05-17T11:10:53Z</time>
</trkpt>
<trkpt lat="49.08681691624224" lon="8.644259925931692">
<ele>149.60000000000002</ele>
<time>2023-05-17T11:10:54Z</time>
</trkpt>
<trkpt lat="49.08679495565593" lon="8.644194966182113">
<ele>149.79999999999995</ele>
<time>2023-05-17T11:10:55Z</time>
</trkpt>
<trkpt lat="49.08676997758448" lon="8.644131934270263">
<ele>149.79999999999995</ele>
<time>2023-05-17T11:10:56Z</time>
</trkpt>
<trkpt lat="49.0867499448359" lon="8.644066974520683">
<ele>150</ele>
<time>2023-05-17T11:10:57Z</time>
</trkpt>
<trkpt lat="49.08673192374408" lon="8.643997991457582">
<ele>150</ele>
<time>2023-05-17T11:10:58Z</time>
</trkpt>
<trkpt lat="49.08670996315777" lon="8.643934959545732">
<ele>150</ele>
<time>2023-05-17T11:10:59Z</time>
</trkpt>
<trkpt lat="49.08668993040919" lon="8.643874945119023">
<ele>150.20000000000005</ele>
<time>2023-05-17T11:11:00Z</time>
</trkpt>
<trkpt lat="49.086671993136406" lon="8.643812919035554">
<ele>150.20000000000005</ele>
<time>2023-05-17T11:11:01Z</time>
</trkpt>
<trkpt lat="49.086651960387826" lon="8.643751982599497">
<ele>150.20000000000005</ele>
<time>2023-05-17T11:11:02Z</time>
</trkpt>
<trkpt lat="49.08663293346763" lon="8.64369297400117">
<ele>150.20000000000005</ele>
<time>2023-05-17T11:11:03Z</time>
</trkpt>
<trkpt lat="49.08661298453808" lon="8.643636982887983">
<ele>150.39999999999998</ele>
<time>2023-05-17T11:11:04Z</time>
</trkpt>
<trkpt lat="49.08659194596112" lon="8.643579985946417">
<ele>150.39999999999998</ele>
<time>2023-05-17T11:11:05Z</time>
</trkpt>
<trkpt lat="49.08657199703157" lon="8.64352491684258">
<ele>150.39999999999998</ele>
<time>2023-05-17T11:11:06Z</time>
</trkpt>
<trkpt lat="49.08655297011137" lon="8.643467919901013">
<ele>150.60000000000002</ele>
<time>2023-05-17T11:11:07Z</time>
</trkpt>
<trkpt lat="49.08653494901955" lon="8.643411928787827">
<ele>150.60000000000002</ele>
<time>2023-05-17T11:11:08Z</time>
</trkpt>
<trkpt lat="49.08651298843324" lon="8.643356943503022">
<ele>150.79999999999995</ele>
<time>2023-05-17T11:11:09Z</time>
</trkpt>
<trkpt lat="49.08649295568466" lon="8.643299946561456">
<ele>150.79999999999995</ele>
<time>2023-05-17T11:11:10Z</time>
</trkpt>
<trkpt lat="49.086476946249604" lon="8.64324294961989">
<ele>151</ele>
<time>2023-05-17T11:11:11Z</time>
</trkpt>
<trkpt lat="49.08646194264293" lon="8.643184946849942">
<ele>151</ele>
<time>2023-05-17T11:11:12Z</time>
</trkpt>
<trkpt lat="49.08644492737949" lon="8.643122920766473">
<ele>151</ele>
<time>2023-05-17T11:11:13Z</time>
</trkpt>
<trkpt lat="49.08642992377281" lon="8.643061984330416">
<ele>151.20000000000005</ele>
<time>2023-05-17T11:11:14Z</time>
</trkpt>
<trkpt lat="49.086416931822896" lon="8.642996940761805">
<ele>151.20000000000005</ele>
<time>2023-05-17T11:11:15Z</time>
</trkpt>
<trkpt lat="49.0864029340446" lon="8.642931981012225">
<ele>151.39999999999998</ele>
<time>2023-05-17T11:11:16Z</time>
</trkpt>
<trkpt lat="49.086391953751445" lon="8.642869954928756">
<ele>151.39999999999998</ele>
<time>2023-05-17T11:11:17Z</time>
</trkpt>
<trkpt lat="49.08637695014477" lon="8.642811952158809">
<ele>151.60000000000002</ele>
<time>2023-05-17T11:11:18Z</time>
</trkpt>
<trkpt lat="49.08636194653809" lon="8.642752943560481">
<ele>151.60000000000002</ele>
<time>2023-05-17T11:11:19Z</time>
</trkpt>
<trkpt lat="49.086347948759794" lon="8.642691923305392">
<ele>151.79999999999995</ele>
<time>2023-05-17T11:11:20Z</time>
</trkpt>
<trkpt lat="49.08633495680988" lon="8.642627969384193">
<ele>151.79999999999995</ele>
<time>2023-05-17T11:11:21Z</time>
</trkpt>
<trkpt lat="49.0863199532032" lon="8.642564937472343">
<ele>152</ele>
<time>2023-05-17T11:11:22Z</time>
</trkpt>
<trkpt lat="49.08630193211138" lon="8.642502995207906">
<ele>152</ele>
<time>2023-05-17T11:11:23Z</time>
</trkpt>
<trkpt lat="49.086284916847944" lon="8.642444992437959">
<ele>152</ele>
<time>2023-05-17T11:11:24Z</time>
</trkpt>
<trkpt lat="49.08627192489803" lon="8.64238497801125">
<ele>152.20000000000005</ele>
<time>2023-05-17T11:11:25Z</time>
</trkpt>
<trkpt lat="49.08625792711973" lon="8.642327981069684">
<ele>152.20000000000005</ele>
<time>2023-05-17T11:11:26Z</time>
</trkpt>
<trkpt lat="49.08624694682658" lon="8.642267966642976">
<ele>152.39999999999998</ele>
<time>2023-05-17T11:11:27Z</time>
</trkpt>
<trkpt lat="49.08623496070504" lon="8.642207952216268">
<ele>152.39999999999998</ele>
<time>2023-05-17T11:11:28Z</time>
</trkpt>
<trkpt lat="49.08622699789703" lon="8.64214793778956">
<ele>152.60000000000002</ele>
<time>2023-05-17T11:11:29Z</time>
</trkpt>
<trkpt lat="49.08621492795646" lon="8.642091946676373">
<ele>152.79999999999995</ele>
<time>2023-05-17T11:11:30Z</time>
</trkpt>
<trkpt lat="49.08620294183493" lon="8.642027992755175">
<ele>152.79999999999995</ele>
<time>2023-05-17T11:11:31Z</time>
</trkpt>
<trkpt lat="49.08619296737015" lon="8.641967978328466">
<ele>153</ele>
<time>2023-05-17T11:11:32Z</time>
</trkpt>
<trkpt lat="49.08618299290538" lon="8.641907963901758">
<ele>153.20000000000005</ele>
<time>2023-05-17T11:11:33Z</time>
</trkpt>
<trkpt lat="49.08617293462157" lon="8.64184794947505">
<ele>153.39999999999998</ele>
<time>2023-05-17T11:11:34Z</time>
</trkpt>
<trkpt lat="49.08616195432842" lon="8.641786929219961">
<ele>153.60000000000002</ele>
<time>2023-05-17T11:11:35Z</time>
</trkpt>
<trkpt lat="49.086151979863644" lon="8.641724986955523">
<ele>153.60000000000002</ele>
<time>2023-05-17T11:11:36Z</time>
</trkpt>
<trkpt lat="49.08614292740822" lon="8.641662960872054">
<ele>153.79999999999995</ele>
<time>2023-05-17T11:11:37Z</time>
</trkpt>
<trkpt lat="49.086132952943444" lon="8.641596995294094">
<ele>154</ele>
<time>2023-05-17T11:11:38Z</time>
</trkpt>
<trkpt lat="49.08612499013543" lon="8.641536980867386">
<ele>154.20000000000005</ele>
<time>2023-05-17T11:11:39Z</time>
</trkpt>
<trkpt lat="49.08611694350839" lon="8.641474954783916">
<ele>154.39999999999998</ele>
<time>2023-05-17T11:11:40Z</time>
</trkpt>
<trkpt lat="49.086111998185515" lon="8.641419969499111">
<ele>154.60000000000002</ele>
<time>2023-05-17T11:11:41Z</time>
</trkpt>
<trkpt lat="49.08610696904361" lon="8.641366995871067">
<ele>154.60000000000002</ele>
<time>2023-05-17T11:11:42Z</time>
</trkpt>
<trkpt lat="49.08610294573009" lon="8.64131293259561">
<ele>154.79999999999995</ele>
<time>2023-05-17T11:11:43Z</time>
</trkpt>
<trkpt lat="49.08609992824495" lon="8.641259958967566">
<ele>155</ele>
<time>2023-05-17T11:11:44Z</time>
</trkpt>
<trkpt lat="49.08609992824495" lon="8.641207991167903">
<ele>155.20000000000005</ele>
<time>2023-05-17T11:11:45Z</time>
</trkpt>
<trkpt lat="49.08610193990171" lon="8.64115996286273">
<ele>155.20000000000005</ele>
<time>2023-05-17T11:11:46Z</time>
</trkpt>
<trkpt lat="49.08610696904361" lon="8.641112940385938">
<ele>155.39999999999998</ele>
<time>2023-05-17T11:11:47Z</time>
</trkpt>
<trkpt lat="49.08611694350839" lon="8.641066923737526">
<ele>155.60000000000002</ele>
<time>2023-05-17T11:11:48Z</time>
</trkpt>
<trkpt lat="49.0861299354583" lon="8.641012944281101">
<ele>155.79999999999995</ele>
<time>2023-05-17T11:11:49Z</time>
</trkpt>
<trkpt lat="49.08614192157984" lon="8.640962988138199">
<ele>155.79999999999995</ele>
<time>2023-05-17T11:11:50Z</time>
</trkpt>
<trkpt lat="49.086152985692024" lon="8.640911942347884">
<ele>156</ele>
<time>2023-05-17T11:11:51Z</time>
</trkpt>
<trkpt lat="49.08616698347032" lon="8.64085997454822">
<ele>156.20000000000005</ele>
<time>2023-05-17T11:11:52Z</time>
</trkpt>
<trkpt lat="49.08617997542024" lon="8.640807922929525">
<ele>156.20000000000005</ele>
<time>2023-05-17T11:11:53Z</time>
</trkpt>
<trkpt lat="49.08619296737015" lon="8.64075293764472">
<ele>156.39999999999998</ele>
<time>2023-05-17T11:11:54Z</time>
</trkpt>
<trkpt lat="49.08620495349169" lon="8.640701975673437">
<ele>156.60000000000002</ele>
<time>2023-05-17T11:11:55Z</time>
</trkpt>
<trkpt lat="49.08621492795646" lon="8.640654953196645">
<ele>156.79999999999995</ele>
<time>2023-05-17T11:11:56Z</time>
</trkpt>
<trkpt lat="49.086219957098365" lon="8.640611954033375">
<ele>156.79999999999995</ele>
<time>2023-05-17T11:11:57Z</time>
</trkpt>
<trkpt lat="49.08622297458351" lon="8.640569960698485">
<ele>157</ele>
<time>2023-05-17T11:11:58Z</time>
</trkpt>
<trkpt lat="49.086221968755126" lon="8.640529979020357">
<ele>157</ele>
<time>2023-05-17T11:11:59Z</time>
</trkpt>
<trkpt lat="49.086219957098365" lon="8.640491925179958">
<ele>157.20000000000005</ele>
<time>2023-05-17T11:12:00Z</time>
</trkpt>
<trkpt lat="49.086217945441604" lon="8.640456972643733">
<ele>157.20000000000005</ele>
<time>2023-05-17T11:12:01Z</time>
</trkpt>
<trkpt lat="49.086219957098365" lon="8.640421936288476">
<ele>157.20000000000005</ele>
<time>2023-05-17T11:12:02Z</time>
</trkpt>
<trkpt lat="49.08621492795646" lon="8.640387989580631">
<ele>157.39999999999998</ele>
<time>2023-05-17T11:12:03Z</time>
</trkpt>
<trkpt lat="49.08620797097683" lon="8.640361921861768">
<ele>157.39999999999998</ele>
<time>2023-05-17T11:12:04Z</time>
</trkpt>
<trkpt lat="49.08620294183493" lon="8.640332920476794">
<ele>157.39999999999998</ele>
<time>2023-05-17T11:12:05Z</time>
</trkpt>
<trkpt lat="49.086201936006546" lon="8.640302997082472">
<ele>157.39999999999998</ele>
<time>2023-05-17T11:12:06Z</time>
</trkpt>
<trkpt lat="49.086201936006546" lon="8.640267960727215">
<ele>157.39999999999998</ele>
<time>2023-05-17T11:12:07Z</time>
</trkpt>
<trkpt lat="49.086199924349785" lon="8.640232924371958">
<ele>157.39999999999998</ele>
<time>2023-05-17T11:12:08Z</time>
</trkpt>
<trkpt lat="49.086199924349785" lon="8.640197971835732">
<ele>157.39999999999998</ele>
<time>2023-05-17T11:12:09Z</time>
</trkpt>
<trkpt lat="49.086197996512055" lon="8.640162935480475">
<ele>157.39999999999998</ele>
<time>2023-05-17T11:12:10Z</time>
</trkpt>
<trkpt lat="49.08619296737015" lon="8.64012697711587">
<ele>157.39999999999998</ele>
<time>2023-05-17T11:12:11Z</time>
</trkpt>
<trkpt lat="49.086181987077" lon="8.64008498378098">
<ele>157.39999999999998</ele>
<time>2023-05-17T11:12:12Z</time>
</trkpt>
<trkpt lat="49.08617192879319" lon="8.64004299044609">
<ele>157.39999999999998</ele>
<time>2023-05-17T11:12:13Z</time>
</trkpt>
<trkpt lat="49.08616497181356" lon="8.639991944655776">
<ele>157.39999999999998</ele>
<time>2023-05-17T11:12:14Z</time>
</trkpt>
<trkpt lat="49.08616195432842" lon="8.639946933835745">
<ele>157.39999999999998</ele>
<time>2023-05-17T11:12:15Z</time>
</trkpt>
<trkpt lat="49.08615994267166" lon="8.63991692662239">
<ele>157.39999999999998</ele>
<time>2023-05-17T11:12:16Z</time>
</trkpt>
<trkpt lat="49.086156925186515" lon="8.639889936894178">
<ele>157.39999999999998</ele>
<time>2023-05-17T11:12:17Z</time>
</trkpt>
<trkpt lat="49.086154997348785" lon="8.639866970479488">
<ele>157.60000000000002</ele>
<time>2023-05-17T11:12:18Z</time>
</trkpt>
<trkpt lat="49.086151979863644" lon="8.639837969094515">
<ele>157.60000000000002</ele>
<time>2023-05-17T11:12:19Z</time>
</trkpt>
<trkpt lat="49.086151979863644" lon="8.63980695605278">
<ele>157.60000000000002</ele>
<time>2023-05-17T11:12:20Z</time>
</trkpt>
<trkpt lat="49.08614795655012" lon="8.639777954667807">
<ele>157.79999999999995</ele>
<time>2023-05-17T11:12:21Z</time>
</trkpt>
<trkpt lat="49.08614493906498" lon="8.639751970767975">
<ele>157.79999999999995</ele>
<time>2023-05-17T11:12:22Z</time>
</trkpt>
<trkpt lat="49.08613798208535" lon="8.639731938019395">
<ele>158</ele>
<time>2023-05-17T11:12:23Z</time>
</trkpt>
<trkpt lat="49.08612691797316" lon="8.63970193080604">
<ele>158</ele>
<time>2023-05-17T11:12:24Z</time>
</trkpt>
<trkpt lat="49.08610495738685" lon="8.639666978269815">
<ele>158</ele>
<time>2023-05-17T11:12:25Z</time>
</trkpt>
<trkpt lat="49.0860799793154" lon="8.639629930257797">
<ele>158.20000000000005</ele>
<time>2023-05-17T11:12:26Z</time>
</trkpt>
<trkpt lat="49.08605198375881" lon="8.639586931094527">
<ele>158.20000000000005</ele>
<time>2023-05-17T11:12:27Z</time>
</trkpt>
<trkpt lat="49.086024994030595" lon="8.639546949416399">
<ele>158.39999999999998</ele>
<time>2023-05-17T11:12:28Z</time>
</trkpt>
<trkpt lat="49.08599993214011" lon="8.639507973566651">
<ele>158.60000000000002</ele>
<time>2023-05-17T11:12:29Z</time>
</trkpt>
<trkpt lat="49.08597696572542" lon="8.639466986060143">
<ele>158.60000000000002</ele>
<time>2023-05-17T11:12:30Z</time>
</trkpt>
<trkpt lat="49.08595693297684" lon="8.639422981068492">
<ele>158.79999999999995</ele>
<time>2023-05-17T11:12:31Z</time>
</trkpt>
<trkpt lat="49.085939917713404" lon="8.63937696442008">
<ele>158.79999999999995</ele>
<time>2023-05-17T11:12:32Z</time>
</trkpt>
<trkpt lat="49.08592692576349" lon="8.639339916408062">
<ele>159</ele>
<time>2023-05-17T11:12:33Z</time>
</trkpt>
<trkpt lat="49.08590999431908" lon="8.639301946386695">
<ele>159</ele>
<time>2023-05-17T11:12:34Z</time>
</trkpt>
<trkpt lat="49.08589297905564" lon="8.639256935566664">
<ele>159.20000000000005</ele>
<time>2023-05-17T11:12:35Z</time>
</trkpt>
<trkpt lat="49.085877975448966" lon="8.639209996908903">
<ele>159.20000000000005</ele>
<time>2023-05-17T11:12:36Z</time>
</trkpt>
<trkpt lat="49.08586196601391" lon="8.63916196860373">
<ele>159.39999999999998</ele>
<time>2023-05-17T11:12:37Z</time>
</trkpt>
<trkpt lat="49.08584696240723" lon="8.639116957783699">
<ele>159.39999999999998</ele>
<time>2023-05-17T11:12:38Z</time>
</trkpt>
<trkpt lat="49.085834976285696" lon="8.639072952792048">
<ele>159.60000000000002</ele>
<time>2023-05-17T11:12:39Z</time>
</trkpt>
<trkpt lat="49.08582299016416" lon="8.639027941972017">
<ele>159.60000000000002</ele>
<time>2023-05-17T11:12:40Z</time>
</trkpt>
<trkpt lat="49.085812931880355" lon="8.638984942808747">
<ele>159.79999999999995</ele>
<time>2023-05-17T11:12:41Z</time>
</trkpt>
<trkpt lat="49.0858019515872" lon="8.638937920331955">
<ele>160</ele>
<time>2023-05-17T11:12:42Z</time>
</trkpt>
<trkpt lat="49.085789965465665" lon="8.638892993330956">
<ele>160</ele>
<time>2023-05-17T11:12:43Z</time>
</trkpt>
<trkpt lat="49.08577999100089" lon="8.638847982510924">
<ele>160.20000000000005</ele>
<time>2023-05-17T11:12:44Z</time>
</trkpt>
<trkpt lat="49.085769932717085" lon="8.638807917013764">
<ele>160.39999999999998</ele>
<time>2023-05-17T11:12:45Z</time>
</trkpt>
<trkpt lat="49.08575995825231" lon="8.638767935335636">
<ele>160.39999999999998</ele>
<time>2023-05-17T11:12:46Z</time>
</trkpt>
<trkpt lat="49.085746966302395" lon="8.63873298279941">
<ele>160.60000000000002</ele>
<time>2023-05-17T11:12:47Z</time>
</trkpt>
<trkpt lat="49.08573699183762" lon="8.638691995292902">
<ele>160.79999999999995</ele>
<time>2023-05-17T11:12:48Z</time>
</trkpt>
<trkpt lat="49.085724921897054" lon="8.638651929795742">
<ele>161</ele>
<time>2023-05-17T11:12:49Z</time>
</trkpt>
<trkpt lat="49.08571494743228" lon="8.638609936460853">
<ele>161</ele>
<time>2023-05-17T11:12:50Z</time>
</trkpt>
<trkpt lat="49.08570799045265" lon="8.638567943125963">
<ele>161.20000000000005</ele>
<time>2023-05-17T11:12:51Z</time>
</trkpt>
<trkpt lat="49.08569793216884" lon="8.638521926477551">
<ele>161.39999999999998</ele>
<time>2023-05-17T11:12:52Z</time>
</trkpt>
<trkpt lat="49.08568996936083" lon="8.638476999476552">
<ele>161.39999999999998</ele>
<time>2023-05-17T11:12:53Z</time>
</trkpt>
<trkpt lat="49.08567798323929" lon="8.638432994484901">
<ele>161.60000000000002</ele>
<time>2023-05-17T11:12:54Z</time>
</trkpt>
<trkpt lat="49.08566691912711" lon="8.638384966179729">
<ele>161.79999999999995</ele>
<time>2023-05-17T11:12:55Z</time>
</trkpt>
<trkpt lat="49.08565694466233" lon="8.638336937874556">
<ele>162</ele>
<time>2023-05-17T11:12:56Z</time>
</trkpt>
<trkpt lat="49.08564697019756" lon="8.638289999216795">
<ele>162</ele>
<time>2023-05-17T11:12:57Z</time>
</trkpt>
<trkpt lat="49.08563297241926" lon="8.638246916234493">
<ele>162.20000000000005</ele>
<time>2023-05-17T11:12:58Z</time>
</trkpt>
<trkpt lat="49.08562299795449" lon="8.638201989233494">
<ele>162.39999999999998</ele>
<time>2023-05-17T11:12:59Z</time>
</trkpt>
<trkpt lat="49.08561293967068" lon="8.638156978413463">
<ele>162.60000000000002</ele>
<time>2023-05-17T11:13:00Z</time>
</trkpt>
<trkpt lat="49.08560296520591" lon="8.638106938451529">
<ele>162.79999999999995</ele>
<time>2023-05-17T11:13:01Z</time>
</trkpt>
<trkpt lat="49.08558494411409" lon="8.638049941509962">
<ele>162.79999999999995</ele>
<time>2023-05-17T11:13:02Z</time>
</trkpt>
<trkpt lat="49.085572957992554" lon="8.63800291903317">
<ele>163</ele>
<time>2023-05-17T11:13:03Z</time>
</trkpt>
<trkpt lat="49.08556298352778" lon="8.637951957061887">
<ele>163.20000000000005</ele>
<time>2023-05-17T11:13:04Z</time>
</trkpt>
<trkpt lat="49.08555191941559" lon="8.637899989262223">
<ele>163.39999999999998</ele>
<time>2023-05-17T11:13:05Z</time>
</trkpt>
<trkpt lat="49.08554194495082" lon="8.637846931815147">
<ele>163.60000000000002</ele>
<time>2023-05-17T11:13:06Z</time>
</trkpt>
<trkpt lat="49.085531970486045" lon="8.637791946530342">
<ele>163.60000000000002</ele>
<time>2023-05-17T11:13:07Z</time>
</trkpt>
<trkpt lat="49.08552291803062" lon="8.637734949588776">
<ele>163.79999999999995</ele>
<time>2023-05-17T11:13:08Z</time>
</trkpt>
<trkpt lat="49.08551495522261" lon="8.63767996430397">
<ele>163.79999999999995</ele>
<time>2023-05-17T11:13:09Z</time>
</trkpt>
<trkpt lat="49.085506992414594" lon="8.637624979019165">
<ele>164</ele>
<time>2023-05-17T11:13:10Z</time>
</trkpt>
<trkpt lat="49.08550196327269" lon="8.637562952935696">
<ele>164</ele>
<time>2023-05-17T11:13:11Z</time>
</trkpt>
<trkpt lat="49.08549793995917" lon="8.637499921023846">
<ele>164.20000000000005</ele>
<time>2023-05-17T11:13:12Z</time>
</trkpt>
<trkpt lat="49.08549693413079" lon="8.637436972931027">
<ele>164.20000000000005</ele>
<time>2023-05-17T11:13:13Z</time>
</trkpt>
<trkpt lat="49.08549793995917" lon="8.637369917705655">
<ele>164.20000000000005</ele>
<time>2023-05-17T11:13:14Z</time>
</trkpt>
<trkpt lat="49.08549693413079" lon="8.637302946299314">
<ele>164.39999999999998</ele>
<time>2023-05-17T11:13:15Z</time>
</trkpt>
<trkpt lat="49.08549492247403" lon="8.637234969064593">
<ele>164.39999999999998</ele>
<time>2023-05-17T11:13:16Z</time>
</trkpt>
<trkpt lat="49.08549198880792" lon="8.637166991829872">
<ele>164.39999999999998</ele>
<time>2023-05-17T11:13:17Z</time>
</trkpt>
<trkpt lat="49.085489977151155" lon="8.637096919119358">
<ele>164.60000000000002</ele>
<time>2023-05-17T11:13:18Z</time>
</trkpt>
<trkpt lat="49.085489977151155" lon="8.637026930227876">
<ele>164.60000000000002</ele>
<time>2023-05-17T11:13:19Z</time>
</trkpt>
<trkpt lat="49.085487965494394" lon="8.636959958821535">
<ele>164.79999999999995</ele>
<time>2023-05-17T11:13:20Z</time>
</trkpt>
<trkpt lat="49.085489977151155" lon="8.636896926909685">
<ele>164.79999999999995</ele>
<time>2023-05-17T11:13:21Z</time>
</trkpt>
<trkpt lat="49.085489977151155" lon="8.636834984645247">
<ele>164.79999999999995</ele>
<time>2023-05-17T11:13:22Z</time>
</trkpt>
<trkpt lat="49.085487965494394" lon="8.636772958561778">
<ele>165</ele>
<time>2023-05-17T11:13:23Z</time>
</trkpt>
<trkpt lat="49.085487965494394" lon="8.636709926649928">
<ele>165</ele>
<time>2023-05-17T11:13:24Z</time>
</trkpt>
<trkpt lat="49.085486959666014" lon="8.63664697855711">
<ele>165</ele>
<time>2023-05-17T11:13:25Z</time>
</trkpt>
<trkpt lat="49.08547991886735" lon="8.636592999100685">
<ele>165.20000000000005</ele>
<time>2023-05-17T11:13:26Z</time>
</trkpt>
<trkpt lat="49.08547195605934" lon="8.636529967188835">
<ele>165.20000000000005</ele>
<time>2023-05-17T11:13:27Z</time>
</trkpt>
<trkpt lat="49.085464999079704" lon="8.63645494915545">
<ele>165.20000000000005</ele>
<time>2023-05-17T11:13:28Z</time>
</trkpt>
<trkpt lat="49.08545795828104" lon="8.636382948607206">
<ele>165.20000000000005</ele>
<time>2023-05-17T11:13:29Z</time>
</trkpt>
<trkpt lat="49.0854549407959" lon="8.636307930573821">
<ele>165.39999999999998</ele>
<time>2023-05-17T11:13:30Z</time>
</trkpt>
<trkpt lat="49.085444966331124" lon="8.6362399533391">
<ele>165.39999999999998</ele>
<time>2023-05-17T11:13:31Z</time>
</trkpt>
<trkpt lat="49.08543993718922" lon="8.636169964447618">
<ele>165.39999999999998</ele>
<time>2023-05-17T11:13:32Z</time>
</trkpt>
<trkpt lat="49.08543499186635" lon="8.636104920879006">
<ele>165.39999999999998</ele>
<time>2023-05-17T11:13:33Z</time>
</trkpt>
<trkpt lat="49.08543197438121" lon="8.636042978614569">
<ele>165.39999999999998</ele>
<time>2023-05-17T11:13:34Z</time>
</trkpt>
<trkpt lat="49.08542996272445" lon="8.63598195835948">
<ele>165.39999999999998</ele>
<time>2023-05-17T11:13:35Z</time>
</trkpt>
<trkpt lat="49.085424933582544" lon="8.63591993227601">
<ele>165.39999999999998</ele>
<time>2023-05-17T11:13:36Z</time>
</trkpt>
<trkpt lat="49.08541998825967" lon="8.635861929506063">
<ele>165.60000000000002</ele>
<time>2023-05-17T11:13:37Z</time>
</trkpt>
<trkpt lat="49.08541294746101" lon="8.635804932564497">
<ele>165.60000000000002</ele>
<time>2023-05-17T11:13:38Z</time>
</trkpt>
<trkpt lat="49.08540699630976" lon="8.63574793562293">
<ele>165.60000000000002</ele>
<time>2023-05-17T11:13:39Z</time>
</trkpt>
<trkpt lat="49.08539995551109" lon="8.635691944509745">
<ele>165.60000000000002</ele>
<time>2023-05-17T11:13:40Z</time>
</trkpt>
<trkpt lat="49.08539299853146" lon="8.635629918426275">
<ele>165.79999999999995</ele>
<time>2023-05-17T11:13:41Z</time>
</trkpt>
<trkpt lat="49.085384951904416" lon="8.63557199947536">
<ele>165.79999999999995</ele>
<time>2023-05-17T11:13:42Z</time>
</trkpt>
<trkpt lat="49.08537992276251" lon="8.635514918714762">
<ele>165.79999999999995</ele>
<time>2023-05-17T11:13:43Z</time>
</trkpt>
<trkpt lat="49.08537497743964" lon="8.635457921773195">
<ele>166</ele>
<time>2023-05-17T11:13:44Z</time>
</trkpt>
<trkpt lat="49.0853719599545" lon="8.63540193066001">
<ele>166</ele>
<time>2023-05-17T11:13:45Z</time>
</trkpt>
<trkpt lat="49.08536299131811" lon="8.635347951203585">
<ele>166</ele>
<time>2023-05-17T11:13:46Z</time>
</trkpt>
<trkpt lat="49.08535695634782" lon="8.635289948433638">
<ele>166.20000000000005</ele>
<time>2023-05-17T11:13:47Z</time>
</trkpt>
<trkpt lat="49.08535192720592" lon="8.63523194566369">
<ele>166.20000000000005</ele>
<time>2023-05-17T11:13:48Z</time>
</trkpt>
<trkpt lat="49.08534698188305" lon="8.635167991742492">
<ele>166.20000000000005</ele>
<time>2023-05-17T11:13:49Z</time>
</trkpt>
<trkpt lat="49.085341952741146" lon="8.635107977315784">
<ele>166.39999999999998</ele>
<time>2023-05-17T11:13:50Z</time>
</trkpt>
<trkpt lat="49.085337929427624" lon="8.635046957060695">
<ele>166.39999999999998</ele>
<time>2023-05-17T11:13:51Z</time>
</trkpt>
<trkpt lat="49.08533298410475" lon="8.634981997311115">
<ele>166.39999999999998</ele>
<time>2023-05-17T11:13:52Z</time>
</trkpt>
<trkpt lat="49.08532694913447" lon="8.634919971227646">
<ele>166.60000000000002</ele>
<time>2023-05-17T11:13:53Z</time>
</trkpt>
<trkpt lat="49.085317980498075" lon="8.634856939315796">
<ele>166.60000000000002</ele>
<time>2023-05-17T11:13:54Z</time>
</trkpt>
<trkpt lat="49.08530993387103" lon="8.634792985394597">
<ele>166.60000000000002</ele>
<time>2023-05-17T11:13:55Z</time>
</trkpt>
<trkpt lat="49.08530498854816" lon="8.634729953482747">
<ele>166.60000000000002</ele>
<time>2023-05-17T11:13:56Z</time>
</trkpt>
<trkpt lat="49.085297947749496" lon="8.634666921570897">
<ele>166.79999999999995</ele>
<time>2023-05-17T11:13:57Z</time>
</trkpt>
<trkpt lat="49.08528998494148" lon="8.63460497930646">
<ele>166.79999999999995</ele>
<time>2023-05-17T11:13:58Z</time>
</trkpt>
<trkpt lat="49.08528193831444" lon="8.63454295322299">
<ele>166.79999999999995</ele>
<time>2023-05-17T11:13:59Z</time>
</trkpt>
<trkpt lat="49.085271963849664" lon="8.63447992131114">
<ele>167</ele>
<time>2023-05-17T11:14:00Z</time>
</trkpt>
<trkpt lat="49.08526198938489" lon="8.6344129499048">
<ele>167</ele>
<time>2023-05-17T11:14:01Z</time>
</trkpt>
<trkpt lat="49.085251931101084" lon="8.63434698432684">
<ele>167</ele>
<time>2023-05-17T11:14:02Z</time>
</trkpt>
<trkpt lat="49.08523994497955" lon="8.634282946586609">
<ele>167</ele>
<time>2023-05-17T11:14:03Z</time>
</trkpt>
<trkpt lat="49.08522795885801" lon="8.6342229321599">
<ele>167.20000000000005</ele>
<time>2023-05-17T11:14:04Z</time>
</trkpt>
<trkpt lat="49.08521999605" lon="8.634161995723844">
<ele>167.20000000000005</ele>
<time>2023-05-17T11:14:05Z</time>
</trkpt>
<trkpt lat="49.085211949422956" lon="8.634099969640374">
<ele>167.39999999999998</ele>
<time>2023-05-17T11:14:06Z</time>
</trkpt>
<trkpt lat="49.08520499244332" lon="8.634037943556905">
<ele>167.39999999999998</ele>
<time>2023-05-17T11:14:07Z</time>
</trkpt>
<trkpt lat="49.08519694581628" lon="8.633974995464087">
<ele>167.60000000000002</ele>
<time>2023-05-17T11:14:08Z</time>
</trkpt>
<trkpt lat="49.08518495969474" lon="8.633914981037378">
<ele>167.60000000000002</ele>
<time>2023-05-17T11:14:09Z</time>
</trkpt>
<trkpt lat="49.08517498522997" lon="8.633856978267431">
<ele>167.79999999999995</ele>
<time>2023-05-17T11:14:10Z</time>
</trkpt>
<trkpt lat="49.08516199328005" lon="8.633794952183962">
<ele>167.79999999999995</ele>
<time>2023-05-17T11:14:11Z</time>
</trkpt>
<trkpt lat="49.08514799550176" lon="8.633734937757254">
<ele>168</ele>
<time>2023-05-17T11:14:12Z</time>
</trkpt>
<trkpt lat="49.08513793721795" lon="8.633676934987307">
<ele>168</ele>
<time>2023-05-17T11:14:13Z</time>
</trkpt>
<trkpt lat="49.08512796275318" lon="8.633622955530882">
<ele>168</ele>
<time>2023-05-17T11:14:14Z</time>
</trkpt>
<trkpt lat="49.0851179882884" lon="8.633571993559599">
<ele>168</ele>
<time>2023-05-17T11:14:15Z</time>
</trkpt>
<trkpt lat="49.0851079300046" lon="8.633516924455762">
<ele>168</ele>
<time>2023-05-17T11:14:16Z</time>
</trkpt>
<trkpt lat="49.085102984681726" lon="8.633459927514195">
<ele>168</ele>
<time>2023-05-17T11:14:17Z</time>
</trkpt>
<trkpt lat="49.08509694971144" lon="8.633399996906519">
<ele>168.20000000000005</ele>
<time>2023-05-17T11:14:18Z</time>
</trkpt>
<trkpt lat="49.08508999273181" lon="8.63333797082305">
<ele>168.20000000000005</ele>
<time>2023-05-17T11:14:19Z</time>
</trkpt>
<trkpt lat="49.085082951933146" lon="8.633272927254438">
<ele>168.20000000000005</ele>
<time>2023-05-17T11:14:20Z</time>
</trkpt>
<trkpt lat="49.08507691696286" lon="8.633206961676478">
<ele>168.39999999999998</ele>
<time>2023-05-17T11:14:21Z</time>
</trkpt>
<trkpt lat="49.08506493084133" lon="8.633141918107867">
<ele>168.39999999999998</ele>
<time>2023-05-17T11:14:22Z</time>
</trkpt>
<trkpt lat="49.08505495637655" lon="8.633076958358288">
<ele>168.60000000000002</ele>
<time>2023-05-17T11:14:23Z</time>
</trkpt>
<trkpt lat="49.08504498191178" lon="8.633012920618057">
<ele>168.60000000000002</ele>
<time>2023-05-17T11:14:24Z</time>
</trkpt>
<trkpt lat="49.085036935284734" lon="8.632947960868478">
<ele>168.60000000000002</ele>
<time>2023-05-17T11:14:25Z</time>
</trkpt>
<trkpt lat="49.08502293750644" lon="8.632886940613389">
<ele>168.79999999999995</ele>
<time>2023-05-17T11:14:26Z</time>
</trkpt>
<trkpt lat="49.08501296304166" lon="8.63282298669219">
<ele>168.79999999999995</ele>
<time>2023-05-17T11:14:27Z</time>
</trkpt>
<trkpt lat="49.08500198274851" lon="8.632757943123579">
<ele>169</ele>
<time>2023-05-17T11:14:28Z</time>
</trkpt>
<trkpt lat="49.08498999662697" lon="8.63269499503076">
<ele>169</ele>
<time>2023-05-17T11:14:29Z</time>
</trkpt>
<trkpt lat="49.084977926686406" lon="8.63263196311891">
<ele>169</ele>
<time>2023-05-17T11:14:30Z</time>
</trkpt>
<trkpt lat="49.08496795222163" lon="8.632572954520583">
<ele>169</ele>
<time>2023-05-17T11:14:31Z</time>
</trkpt>
<trkpt lat="49.08495998941362" lon="8.632517969235778">
<ele>169</ele>
<time>2023-05-17T11:14:32Z</time>
</trkpt>
<trkpt lat="49.084951942786574" lon="8.632464995607734">
<ele>169</ele>
<time>2023-05-17T11:14:33Z</time>
</trkpt>
<trkpt lat="49.08494297415018" lon="8.632409926503897">
<ele>169</ele>
<time>2023-05-17T11:14:34Z</time>
</trkpt>
<trkpt lat="49.084934927523136" lon="8.63235292956233">
<ele>169.20000000000005</ele>
<time>2023-05-17T11:14:35Z</time>
</trkpt>
<trkpt lat="49.08492495305836" lon="8.632297944277525">
<ele>169.20000000000005</ele>
<time>2023-05-17T11:14:36Z</time>
</trkpt>
<trkpt lat="49.08491497859359" lon="8.632239941507578">
<ele>169.20000000000005</ele>
<time>2023-05-17T11:14:37Z</time>
</trkpt>
<trkpt lat="49.08490492030978" lon="8.63218193873763">
<ele>169.20000000000005</ele>
<time>2023-05-17T11:14:38Z</time>
</trkpt>
<trkpt lat="49.084891928359866" lon="8.632122930139303">
<ele>169.20000000000005</ele>
<time>2023-05-17T11:14:39Z</time>
</trkpt>
<trkpt lat="49.08488195389509" lon="8.632064927369356">
<ele>169.39999999999998</ele>
<time>2023-05-17T11:14:40Z</time>
</trkpt>
<trkpt lat="49.08487197943032" lon="8.632006924599409">
<ele>169.39999999999998</ele>
<time>2023-05-17T11:14:41Z</time>
</trkpt>
<trkpt lat="49.08485798165202" lon="8.631946993991733">
<ele>169.39999999999998</ele>
<time>2023-05-17T11:14:42Z</time>
</trkpt>
<trkpt lat="49.084844989702106" lon="8.631886979565024">
<ele>169.39999999999998</ele>
<time>2023-05-17T11:14:43Z</time>
</trkpt>
<trkpt lat="49.08483291976154" lon="8.631827970966697">
<ele>169.60000000000002</ele>
<time>2023-05-17T11:14:44Z</time>
</trkpt>
<trkpt lat="49.084821939468384" lon="8.63176996819675">
<ele>169.60000000000002</ele>
<time>2023-05-17T11:14:45Z</time>
</trkpt>
<trkpt lat="49.08480794169009" lon="8.631709953770041">
<ele>169.60000000000002</ele>
<time>2023-05-17T11:14:46Z</time>
</trkpt>
<trkpt lat="49.08479494974017" lon="8.631651951000094">
<ele>169.60000000000002</ele>
<time>2023-05-17T11:14:47Z</time>
</trkpt>
<trkpt lat="49.084781957790256" lon="8.631594954058528">
<ele>169.60000000000002</ele>
<time>2023-05-17T11:14:48Z</time>
</trkpt>
<trkpt lat="49.08476796001196" lon="8.631536951288581">
<ele>169.60000000000002</ele>
<time>2023-05-17T11:14:49Z</time>
</trkpt>
<trkpt lat="49.084756979718804" lon="8.631479954347014">
<ele>169.60000000000002</ele>
<time>2023-05-17T11:14:50Z</time>
</trkpt>
<trkpt lat="49.08474499359727" lon="8.63142496906221">
<ele>169.60000000000002</ele>
<time>2023-05-17T11:14:51Z</time>
</trkpt>
<trkpt lat="49.08473191782832" lon="8.631367972120643">
<ele>169.60000000000002</ele>
<time>2023-05-17T11:14:52Z</time>
</trkpt>
<trkpt lat="49.084717920050025" lon="8.631307957693934">
<ele>169.60000000000002</ele>
<time>2023-05-17T11:14:53Z</time>
</trkpt>
<trkpt lat="49.08470693975687" lon="8.631249954923987">
<ele>169.60000000000002</ele>
<time>2023-05-17T11:14:54Z</time>
</trkpt>
<trkpt lat="49.084696965292096" lon="8.63119195215404">
<ele>169.60000000000002</ele>
<time>2023-05-17T11:14:55Z</time>
</trkpt>
<trkpt lat="49.08468992449343" lon="8.631136966869235">
<ele>169.60000000000002</ele>
<time>2023-05-17T11:14:56Z</time>
</trkpt>
<trkpt lat="49.08468699082732" lon="8.631084999069571">
<ele>169.60000000000002</ele>
<time>2023-05-17T11:14:57Z</time>
</trkpt>
<trkpt lat="49.08468196168542" lon="8.631032947450876">
<ele>169.60000000000002</ele>
<time>2023-05-17T11:14:58Z</time>
</trkpt>
<trkpt lat="49.084676932543516" lon="8.630981985479593">
<ele>169.60000000000002</ele>
<time>2023-05-17T11:14:59Z</time>
</trkpt>
<trkpt lat="49.08466695807874" lon="8.63093194551766">
<ele>169.60000000000002</ele>
<time>2023-05-17T11:15:00Z</time>
</trkpt>
<trkpt lat="49.08465497195721" lon="8.630884923040867">
<ele>169.60000000000002</ele>
<time>2023-05-17T11:15:01Z</time>
</trkpt>
<trkpt lat="49.084649942815304" lon="8.630841923877597">
<ele>169.39999999999998</ele>
<time>2023-05-17T11:15:02Z</time>
</trkpt>
<trkpt lat="49.08464298583567" lon="8.630797918885946">
<ele>169.39999999999998</ele>
<time>2023-05-17T11:15:03Z</time>
</trkpt>
<trkpt lat="49.08464298583567" lon="8.63075994886458">
<ele>169.39999999999998</ele>
<time>2023-05-17T11:15:04Z</time>
</trkpt>
<trkpt lat="49.08463795669377" lon="8.630722984671593">
<ele>169.39999999999998</ele>
<time>2023-05-17T11:15:05Z</time>
</trkpt>
<trkpt lat="49.084627982228994" lon="8.630682919174433">
<ele>169.39999999999998</ele>
<time>2023-05-17T11:15:06Z</time>
</trkpt>
<trkpt lat="49.08461792394519" lon="8.630644949153066">
<ele>169.39999999999998</ele>
<time>2023-05-17T11:15:07Z</time>
</trkpt>
<trkpt lat="49.08461297862232" lon="8.630614941939712">
<ele>169.39999999999998</ele>
<time>2023-05-17T11:15:08Z</time>
</trkpt>
<trkpt lat="49.084609961137176" lon="8.630581917241216">
<ele>169.39999999999998</ele>
<time>2023-05-17T11:15:09Z</time>
</trkpt>
<trkpt lat="49.084609961137176" lon="8.63054495304823">
<ele>169.39999999999998</ele>
<time>2023-05-17T11:15:10Z</time>
</trkpt>
<trkpt lat="49.084609961137176" lon="8.63050195388496">
<ele>169.39999999999998</ele>
<time>2023-05-17T11:15:11Z</time>
</trkpt>
<trkpt lat="49.08461297862232" lon="8.630451997742057">
<ele>169.39999999999998</ele>
<time>2023-05-17T11:15:12Z</time>
</trkpt>
<trkpt lat="49.08461691811681" lon="8.630401957780123">
<ele>169.39999999999998</ele>
<time>2023-05-17T11:15:13Z</time>
</trkpt>
<trkpt lat="49.084626976400614" lon="8.630356946960092">
<ele>169.39999999999998</ele>
<time>2023-05-17T11:15:14Z</time>
</trkpt>
<trkpt lat="49.08463795669377" lon="8.6303099244833">
<ele>169.39999999999998</ele>
<time>2023-05-17T11:15:15Z</time>
</trkpt>
<trkpt lat="49.08465497195721" lon="8.630254939198494">
<ele>169.39999999999998</ele>
<time>2023-05-17T11:15:16Z</time>
</trkpt>
<trkpt lat="49.08466796390712" lon="8.630194924771786">
<ele>169.60000000000002</ele>
<time>2023-05-17T11:15:17Z</time>
</trkpt>
<trkpt lat="49.0846779383719" lon="8.630136922001839">
<ele>169.60000000000002</ele>
<time>2023-05-17T11:15:18Z</time>
</trkpt>
<trkpt lat="49.08468992449343" lon="8.630082942545414">
<ele>169.79999999999995</ele>
<time>2023-05-17T11:15:19Z</time>
</trkpt>
<trkpt lat="49.08469998277724" lon="8.630026951432228">
<ele>170</ele>
<time>2023-05-17T11:15:20Z</time>
</trkpt>
<trkpt lat="49.08471196889877" lon="8.629974983632565">
<ele>170.20000000000005</ele>
<time>2023-05-17T11:15:21Z</time>
</trkpt>
<trkpt lat="49.084719931706786" lon="8.62992293201387">
<ele>170.39999999999998</ele>
<time>2023-05-17T11:15:22Z</time>
</trkpt>
<trkpt lat="49.08472797833383" lon="8.629871970042586">
<ele>170.60000000000002</ele>
<time>2023-05-17T11:15:23Z</time>
</trkpt>
<trkpt lat="49.084737952798605" lon="8.629819918423891">
<ele>171</ele>
<time>2023-05-17T11:15:24Z</time>
</trkpt>
<trkpt lat="49.08474993892014" lon="8.629767950624228">
<ele>171.20000000000005</ele>
<time>2023-05-17T11:15:25Z</time>
</trkpt>
<trkpt lat="49.084761925041676" lon="8.629714976996183">
<ele>171.60000000000002</ele>
<time>2023-05-17T11:15:26Z</time>
</trkpt>
<trkpt lat="49.08477491699159" lon="8.629659991711378">
<ele>171.79999999999995</ele>
<time>2023-05-17T11:15:27Z</time>
</trkpt>
<trkpt lat="49.08478698693216" lon="8.629601988941431">
<ele>172</ele>
<time>2023-05-17T11:15:28Z</time>
</trkpt>
<trkpt lat="49.084801990538836" lon="8.629544991999865">
<ele>172.20000000000005</ele>
<time>2023-05-17T11:15:29Z</time>
</trkpt>
<trkpt lat="49.08481498248875" lon="8.629489922896028">
<ele>172.39999999999998</ele>
<time>2023-05-17T11:15:30Z</time>
</trkpt>
<trkpt lat="49.08482797443867" lon="8.629434937611222">
<ele>172.79999999999995</ele>
<time>2023-05-17T11:15:31Z</time>
</trkpt>
<trkpt lat="49.0848399605602" lon="8.629376934841275">
<ele>173</ele>
<time>2023-05-17T11:15:32Z</time>
</trkpt>
<trkpt lat="49.08485194668174" lon="8.629319937899709">
<ele>173.20000000000005</ele>
<time>2023-05-17T11:15:33Z</time>
</trkpt>
<trkpt lat="49.084864938631654" lon="8.629262940958142">
<ele>173.39999999999998</ele>
<time>2023-05-17T11:15:34Z</time>
</trkpt>
<trkpt lat="49.08487499691546" lon="8.629206949844956">
<ele>173.60000000000002</ele>
<time>2023-05-17T11:15:35Z</time>
</trkpt>
<trkpt lat="49.084887988865376" lon="8.62914995290339">
<ele>173.79999999999995</ele>
<time>2023-05-17T11:15:36Z</time>
</trkpt>
<trkpt lat="49.08490198664367" lon="8.629092955961823">
<ele>174</ele>
<time>2023-05-17T11:15:37Z</time>
</trkpt>
<trkpt lat="49.08491699025035" lon="8.629036964848638">
<ele>174.20000000000005</ele>
<time>2023-05-17T11:15:38Z</time>
</trkpt>
<trkpt lat="49.08493299968541" lon="8.628981979563832">
<ele>174.39999999999998</ele>
<time>2023-05-17T11:15:39Z</time>
</trkpt>
<trkpt lat="49.0849469974637" lon="8.628922970965505">
<ele>174.60000000000002</ele>
<time>2023-05-17T11:15:40Z</time>
</trkpt>
<trkpt lat="49.08495998941362" lon="8.628864968195558">
<ele>174.79999999999995</ele>
<time>2023-05-17T11:15:41Z</time>
</trkpt>
<trkpt lat="49.084971975535154" lon="8.62880696542561">
<ele>175</ele>
<time>2023-05-17T11:15:42Z</time>
</trkpt>
<trkpt lat="49.08498496748507" lon="8.628749968484044">
<ele>175.20000000000005</ele>
<time>2023-05-17T11:15:43Z</time>
</trkpt>
<trkpt lat="49.084996953606606" lon="8.628694983199239">
<ele>175.39999999999998</ele>
<time>2023-05-17T11:15:44Z</time>
</trkpt>
<trkpt lat="49.08500994555652" lon="8.628639997914433">
<ele>175.60000000000002</ele>
<time>2023-05-17T11:15:45Z</time>
</trkpt>
<trkpt lat="49.08502293750644" lon="8.628584928810596">
<ele>175.79999999999995</ele>
<time>2023-05-17T11:15:46Z</time>
</trkpt>
<trkpt lat="49.085036935284734" lon="8.628531955182552">
<ele>175.79999999999995</ele>
<time>2023-05-17T11:15:47Z</time>
</trkpt>
<trkpt lat="49.08505193889141" lon="8.628477975726128">
<ele>176</ele>
<time>2023-05-17T11:15:48Z</time>
</trkpt>
<trkpt lat="49.08506493084133" lon="8.628424918279052">
<ele>176.20000000000005</ele>
<time>2023-05-17T11:15:49Z</time>
</trkpt>
<trkpt lat="49.08507691696286" lon="8.628366999328136">
<ele>176.39999999999998</ele>
<time>2023-05-17T11:15:50Z</time>
</trkpt>
<trkpt lat="49.08508798107505" lon="8.628309918567538">
<ele>176.60000000000002</ele>
<time>2023-05-17T11:15:51Z</time>
</trkpt>
<trkpt lat="49.085099967196584" lon="8.628256944939494">
<ele>176.79999999999995</ele>
<time>2023-05-17T11:15:52Z</time>
</trkpt>
<trkpt lat="49.08511195331812" lon="8.628201959654689">
<ele>177</ele>
<time>2023-05-17T11:15:53Z</time>
</trkpt>
<trkpt lat="49.085122933611274" lon="8.628144962713122">
<ele>177</ele>
<time>2023-05-17T11:15:54Z</time>
</trkpt>
<trkpt lat="49.08513491973281" lon="8.628086959943175">
<ele>177.20000000000005</ele>
<time>2023-05-17T11:15:55Z</time>
</trkpt>
<trkpt lat="49.085146989673376" lon="8.628026945516467">
<ele>177.39999999999998</ele>
<time>2023-05-17T11:15:56Z</time>
</trkpt>
<trkpt lat="49.08515696413815" lon="8.62796793691814">
<ele>177.39999999999998</ele>
<time>2023-05-17T11:15:57Z</time>
</trkpt>
<trkpt lat="49.085166938602924" lon="8.627912951633334">
<ele>177.60000000000002</ele>
<time>2023-05-17T11:15:58Z</time>
</trkpt>
<trkpt lat="49.08517699688673" lon="8.627854948863387">
<ele>177.60000000000002</ele>
<time>2023-05-17T11:15:59Z</time>
</trkpt>
<trkpt lat="49.085186971351504" lon="8.627799963578582">
<ele>177.79999999999995</ele>
<time>2023-05-17T11:16:00Z</time>
</trkpt>
<trkpt lat="49.08519795164466" lon="8.627744978293777">
<ele>177.79999999999995</ele>
<time>2023-05-17T11:16:01Z</time>
</trkpt>
<trkpt lat="49.085211949422956" lon="8.62768798135221">
<ele>178</ele>
<time>2023-05-17T11:16:02Z</time>
</trkpt>
<trkpt lat="49.08522292971611" lon="8.627629978582263">
<ele>178</ele>
<time>2023-05-17T11:16:03Z</time>
</trkpt>
<trkpt lat="49.085232987999916" lon="8.627572981640697">
<ele>178</ele>
<time>2023-05-17T11:16:04Z</time>
</trkpt>
<trkpt lat="49.08524497412145" lon="8.62751699052751">
<ele>178.20000000000005</ele>
<time>2023-05-17T11:16:05Z</time>
</trkpt>
<trkpt lat="49.085254948586226" lon="8.627456976100802">
<ele>178.20000000000005</ele>
<time>2023-05-17T11:16:06Z</time>
</trkpt>
<trkpt lat="49.085264923051" lon="8.627396961674094">
<ele>178.39999999999998</ele>
<time>2023-05-17T11:16:07Z</time>
</trkpt>
<trkpt lat="49.085274981334805" lon="8.627334935590625">
<ele>178.39999999999998</ele>
<time>2023-05-17T11:16:08Z</time>
</trkpt>
<trkpt lat="49.08528495579958" lon="8.627274921163917">
<ele>178.60000000000002</ele>
<time>2023-05-17T11:16:09Z</time>
</trkpt>
<trkpt lat="49.085294930264354" lon="8.627212978899479">
<ele>178.60000000000002</ele>
<time>2023-05-17T11:16:10Z</time>
</trkpt>
<trkpt lat="49.08530498854816" lon="8.627154976129532">
<ele>178.79999999999995</ele>
<time>2023-05-17T11:16:11Z</time>
</trkpt>
<trkpt lat="49.085314963012934" lon="8.627097979187965">
<ele>178.79999999999995</ele>
<time>2023-05-17T11:16:12Z</time>
</trkpt>
<trkpt lat="49.08532292582095" lon="8.62704198807478">
<ele>178.79999999999995</ele>
<time>2023-05-17T11:16:13Z</time>
</trkpt>
<trkpt lat="49.08533298410475" lon="8.626982979476452">
<ele>178.79999999999995</ele>
<time>2023-05-17T11:16:14Z</time>
</trkpt>
<trkpt lat="49.085341952741146" lon="8.626929922029376">
<ele>179</ele>
<time>2023-05-17T11:16:15Z</time>
</trkpt>
<trkpt lat="49.08534999936819" lon="8.62687493674457">
<ele>179</ele>
<time>2023-05-17T11:16:16Z</time>
</trkpt>
<trkpt lat="49.085357962176204" lon="8.626819951459765">
<ele>179</ele>
<time>2023-05-17T11:16:17Z</time>
</trkpt>
<trkpt lat="49.085364919155836" lon="8.626759937033057">
<ele>179</ele>
<time>2023-05-17T11:16:18Z</time>
</trkpt>
<trkpt lat="49.0853719599545" lon="8.626699922606349">
<ele>179.20000000000005</ele>
<time>2023-05-17T11:16:19Z</time>
</trkpt>
<trkpt lat="49.085377994924784" lon="8.626644937321544">
<ele>179.20000000000005</ele>
<time>2023-05-17T11:16:20Z</time>
</trkpt>
<trkpt lat="49.085384951904416" lon="8.62659296952188">
<ele>179.39999999999998</ele>
<time>2023-05-17T11:16:21Z</time>
</trkpt>
<trkpt lat="49.08539199270308" lon="8.626539995893836">
<ele>179.39999999999998</ele>
<time>2023-05-17T11:16:22Z</time>
</trkpt>
<trkpt lat="49.08539794385433" lon="8.62648693844676">
<ele>179.39999999999998</ele>
<time>2023-05-17T11:16:23Z</time>
</trkpt>
<trkpt lat="49.08540699630976" lon="8.626431953161955">
<ele>179.39999999999998</ele>
<time>2023-05-17T11:16:24Z</time>
</trkpt>
<trkpt lat="49.08541294746101" lon="8.626372944563627">
<ele>179.39999999999998</ele>
<time>2023-05-17T11:16:25Z</time>
</trkpt>
<trkpt lat="49.08541998825967" lon="8.62631494179368">
<ele>179.39999999999998</ele>
<time>2023-05-17T11:16:26Z</time>
</trkpt>
<trkpt lat="49.08542996272445" lon="8.626256939023733">
<ele>179.39999999999998</ele>
<time>2023-05-17T11:16:27Z</time>
</trkpt>
<trkpt lat="49.085446977987885" lon="8.626199942082167">
<ele>179.39999999999998</ele>
<time>2023-05-17T11:16:28Z</time>
</trkpt>
<trkpt lat="49.085466926917434" lon="8.626146968454123">
<ele>179.39999999999998</ele>
<time>2023-05-17T11:16:29Z</time>
</trkpt>
<trkpt lat="49.085486959666014" lon="8.626089971512556">
<ele>179.39999999999998</ele>
<time>2023-05-17T11:16:30Z</time>
</trkpt>
<trkpt lat="49.08549995161593" lon="8.626024927943945">
<ele>179.39999999999998</ele>
<time>2023-05-17T11:16:31Z</time>
</trkpt>
<trkpt lat="49.085511937737465" lon="8.625952927395701">
<ele>179.39999999999998</ele>
<time>2023-05-17T11:16:32Z</time>
</trkpt>
<trkpt lat="49.08552199602127" lon="8.625879921019077">
<ele>179.39999999999998</ele>
<time>2023-05-17T11:16:33Z</time>
</trkpt>
<trkpt lat="49.08552794717252" lon="8.625806998461485">
<ele>179.39999999999998</ele>
<time>2023-05-17T11:16:34Z</time>
</trkpt>
<trkpt lat="49.08553498797119" lon="8.625737931579351">
<ele>179.20000000000005</ele>
<time>2023-05-17T11:16:35Z</time>
</trkpt>
<trkpt lat="49.08554194495082" lon="8.625672971829772">
<ele>179.20000000000005</ele>
<time>2023-05-17T11:16:36Z</time>
</trkpt>
<trkpt lat="49.0855479799211" lon="8.62560692243278">
<ele>179.20000000000005</ele>
<time>2023-05-17T11:16:37Z</time>
</trkpt>
<trkpt lat="49.085554936900735" lon="8.6255419626832">
<ele>179.20000000000005</ele>
<time>2023-05-17T11:16:38Z</time>
</trkpt>
<trkpt lat="49.0855619776994" lon="8.62547691911459">
<ele>179.20000000000005</ele>
<time>2023-05-17T11:16:39Z</time>
</trkpt>
<trkpt lat="49.08556792885065" lon="8.625407936051488">
<ele>179.20000000000005</ele>
<time>2023-05-17T11:16:40Z</time>
</trkpt>
<trkpt lat="49.08557798713446" lon="8.625337947160006">
<ele>179.20000000000005</ele>
<time>2023-05-17T11:16:41Z</time>
</trkpt>
<trkpt lat="49.08558494411409" lon="8.625271981582046">
<ele>179.20000000000005</ele>
<time>2023-05-17T11:16:42Z</time>
</trkpt>
<trkpt lat="49.08559198491275" lon="8.625202998518944">
<ele>179.39999999999998</ele>
<time>2023-05-17T11:16:43Z</time>
</trkpt>
<trkpt lat="49.085597936064005" lon="8.625137954950333">
<ele>179.39999999999998</ele>
<time>2023-05-17T11:16:44Z</time>
</trkpt>
<trkpt lat="49.08560497686267" lon="8.625071989372373">
<ele>179.39999999999998</ele>
<time>2023-05-17T11:16:45Z</time>
</trkpt>
<trkpt lat="49.08560992218554" lon="8.625006945803761">
<ele>179.39999999999998</ele>
<time>2023-05-17T11:16:46Z</time>
</trkpt>
<trkpt lat="49.08561495132744" lon="8.624942991882563">
<ele>179.60000000000002</ele>
<time>2023-05-17T11:16:47Z</time>
</trkpt>
<trkpt lat="49.08562199212611" lon="8.624881971627474">
<ele>179.79999999999995</ele>
<time>2023-05-17T11:16:48Z</time>
</trkpt>
<trkpt lat="49.08563196659088" lon="8.624804941937327">
<ele>180</ele>
<time>2023-05-17T11:16:49Z</time>
</trkpt>
<trkpt lat="49.085641941055655" lon="8.624736964702606">
<ele>180.20000000000005</ele>
<time>2023-05-17T11:16:50Z</time>
</trkpt>
<trkpt lat="49.08565292134881" lon="8.624669993296266">
<ele>180.39999999999998</ele>
<time>2023-05-17T11:16:51Z</time>
</trkpt>
<trkpt lat="49.085662979632616" lon="8.624607967212796">
<ele>180.60000000000002</ele>
<time>2023-05-17T11:16:52Z</time>
</trkpt>
<trkpt lat="49.08567194826901" lon="8.62454996444285">
<ele>180.79999999999995</ele>
<time>2023-05-17T11:16:53Z</time>
</trkpt>
<trkpt lat="49.085679994896054" lon="8.624491961672902">
<ele>181</ele>
<time>2023-05-17T11:16:54Z</time>
</trkpt>
<trkpt lat="49.08568996936083" lon="8.624432953074574">
<ele>181.20000000000005</ele>
<time>2023-05-17T11:16:55Z</time>
</trkpt>
<trkpt lat="49.08569793216884" lon="8.624376961961389">
<ele>181.39999999999998</ele>
<time>2023-05-17T11:16:56Z</time>
</trkpt>
<trkpt lat="49.085702961310744" lon="8.624321976676583">
<ele>181.60000000000002</ele>
<time>2023-05-17T11:16:57Z</time>
</trkpt>
<trkpt lat="49.08570799045265" lon="8.624264979735017">
<ele>181.79999999999995</ele>
<time>2023-05-17T11:16:58Z</time>
</trkpt>
<trkpt lat="49.08570799045265" lon="8.624209994450212">
<ele>182</ele>
<time>2023-05-17T11:16:59Z</time>
</trkpt>
<trkpt lat="49.08570799045265" lon="8.624154925346375">
<ele>182.20000000000005</ele>
<time>2023-05-17T11:17:00Z</time>
</trkpt>
<trkpt lat="49.08570799045265" lon="8.62409994006157">
<ele>182.39999999999998</ele>
<time>2023-05-17T11:17:01Z</time>
</trkpt>
<trkpt lat="49.08570799045265" lon="8.624044954776764">
<ele>182.60000000000002</ele>
<time>2023-05-17T11:17:02Z</time>
</trkpt>
<trkpt lat="49.08570799045265" lon="8.623996926471591">
<ele>183</ele>
<time>2023-05-17T11:17:03Z</time>
</trkpt>
<trkpt lat="49.08570698462427" lon="8.62394797615707">
<ele>183.20000000000005</ele>
<time>2023-05-17T11:17:04Z</time>
</trkpt>
<trkpt lat="49.085704972967505" lon="8.623899947851896">
<ele>183.39999999999998</ele>
<time>2023-05-17T11:17:05Z</time>
</trkpt>
<trkpt lat="49.085702961310744" lon="8.623849991708994">
<ele>183.60000000000002</ele>
<time>2023-05-17T11:17:06Z</time>
</trkpt>
<trkpt lat="49.085701955482364" lon="8.623797940090299">
<ele>183.79999999999995</ele>
<time>2023-05-17T11:17:07Z</time>
</trkpt>
<trkpt lat="49.0856999438256" lon="8.623747983947396">
<ele>184</ele>
<time>2023-05-17T11:17:08Z</time>
</trkpt>
<trkpt lat="49.08569793216884" lon="8.623692998662591">
<ele>184</ele>
<time>2023-05-17T11:17:09Z</time>
</trkpt>
<trkpt lat="49.08569298684597" lon="8.623632984235883">
<ele>184.20000000000005</ele>
<time>2023-05-17T11:17:10Z</time>
</trkpt>
<trkpt lat="49.08569198101759" lon="8.623574981465936">
<ele>184.39999999999998</ele>
<time>2023-05-17T11:17:11Z</time>
</trkpt>
<trkpt lat="49.08568795770407" lon="8.623511949554086">
<ele>184.60000000000002</ele>
<time>2023-05-17T11:17:12Z</time>
</trkpt>
<trkpt lat="49.08568695187569" lon="8.623449923470616">
<ele>184.79999999999995</ele>
<time>2023-05-17T11:17:13Z</time>
</trkpt>
<trkpt lat="49.08568695187569" lon="8.623396949842572">
<ele>185</ele>
<time>2023-05-17T11:17:14Z</time>
</trkpt>
<trkpt lat="49.08568795770407" lon="8.623344982042909">
<ele>185.20000000000005</ele>
<time>2023-05-17T11:17:15Z</time>
</trkpt>
<trkpt lat="49.08568695187569" lon="8.623294942080975">
<ele>185.39999999999998</ele>
<time>2023-05-17T11:17:16Z</time>
</trkpt>
<trkpt lat="49.085682928562164" lon="8.62324196845293">
<ele>185.60000000000002</ele>
<time>2023-05-17T11:17:17Z</time>
</trkpt>
<trkpt lat="49.085679994896054" lon="8.623184971511364">
<ele>185.79999999999995</ele>
<time>2023-05-17T11:17:18Z</time>
</trkpt>
<trkpt lat="49.08567697741091" lon="8.623126968741417">
<ele>186</ele>
<time>2023-05-17T11:17:19Z</time>
</trkpt>
<trkpt lat="49.08567194826901" lon="8.623066954314709">
<ele>186.20000000000005</ele>
<time>2023-05-17T11:17:20Z</time>
</trkpt>
<trkpt lat="49.08566691912711" lon="8.623002916574478">
<ele>186.39999999999998</ele>
<time>2023-05-17T11:17:21Z</time>
</trkpt>
<trkpt lat="49.08566499128938" lon="8.622941980138421">
<ele>186.39999999999998</ele>
<time>2023-05-17T11:17:22Z</time>
</trkpt>
<trkpt lat="49.085661973804235" lon="8.62287794239819">
<ele>186.60000000000002</ele>
<time>2023-05-17T11:17:23Z</time>
</trkpt>
<trkpt lat="49.085659962147474" lon="8.622814994305372">
<ele>186.79999999999995</ele>
<time>2023-05-17T11:17:24Z</time>
</trkpt>
<trkpt lat="49.08565795049071" lon="8.622752968221903">
<ele>187</ele>
<time>2023-05-17T11:17:25Z</time>
</trkpt>
<trkpt lat="49.08565694466233" lon="8.622694965451956">
<ele>187</ele>
<time>2023-05-17T11:17:26Z</time>
</trkpt>
<trkpt lat="49.08565292134881" lon="8.62263796851039">
<ele>187.20000000000005</ele>
<time>2023-05-17T11:17:27Z</time>
</trkpt>
<trkpt lat="49.08565199933946" lon="8.622579965740442">
<ele>187.39999999999998</ele>
<time>2023-05-17T11:17:28Z</time>
</trkpt>
<trkpt lat="49.08565199933946" lon="8.622521962970495">
<ele>187.60000000000002</ele>
<time>2023-05-17T11:17:29Z</time>
</trkpt>
<trkpt lat="49.08565292134881" lon="8.622461948543787">
<ele>187.79999999999995</ele>
<time>2023-05-17T11:17:30Z</time>
</trkpt>
<trkpt lat="49.08565199933946" lon="8.622407969087362">
<ele>187.79999999999995</ele>
<time>2023-05-17T11:17:31Z</time>
</trkpt>
<trkpt lat="49.0856499876827" lon="8.622356923297048">
<ele>188</ele>
<time>2023-05-17T11:17:32Z</time>
</trkpt>
<trkpt lat="49.0856499876827" lon="8.622301938012242">
<ele>188.20000000000005</ele>
<time>2023-05-17T11:17:33Z</time>
</trkpt>
<trkpt lat="49.0856449585408" lon="8.622244941070676">
<ele>188.20000000000005</ele>
<time>2023-05-17T11:17:34Z</time>
</trkpt>
<trkpt lat="49.085641941055655" lon="8.622182998806238">
<ele>188.39999999999998</ele>
<time>2023-05-17T11:17:35Z</time>
</trkpt>
<trkpt lat="49.08563791774213" lon="8.622124996036291">
<ele>188.60000000000002</ele>
<time>2023-05-17T11:17:36Z</time>
</trkpt>
<trkpt lat="49.085636995732784" lon="8.622067999094725">
<ele>188.60000000000002</ele>
<time>2023-05-17T11:17:37Z</time>
</trkpt>
<trkpt lat="49.08563498407602" lon="8.622012929990888">
<ele>188.79999999999995</ele>
<time>2023-05-17T11:17:38Z</time>
</trkpt>
<trkpt lat="49.08563297241926" lon="8.621956938877702">
<ele>189</ele>
<time>2023-05-17T11:17:39Z</time>
</trkpt>
<trkpt lat="49.08562693744898" lon="8.6219069827348">
<ele>189</ele>
<time>2023-05-17T11:17:40Z</time>
</trkpt>
<trkpt lat="49.085619980469346" lon="8.621857948601246">
<ele>189.20000000000005</ele>
<time>2023-05-17T11:17:41Z</time>
</trkpt>
<trkpt lat="49.08561293967068" lon="8.621807992458344">
<ele>189.20000000000005</ele>
<time>2023-05-17T11:17:42Z</time>
</trkpt>
<trkpt lat="49.08560698851943" lon="8.621751917526126">
<ele>189.20000000000005</ele>
<time>2023-05-17T11:17:43Z</time>
</trkpt>
<trkpt lat="49.085599947720766" lon="8.621687963604927">
<ele>189.39999999999998</ele>
<time>2023-05-17T11:17:44Z</time>
</trkpt>
<trkpt lat="49.08559198491275" lon="8.621624931693077">
<ele>189.39999999999998</ele>
<time>2023-05-17T11:17:45Z</time>
</trkpt>
<trkpt lat="49.08558494411409" lon="8.62156298942864">
<ele>189.39999999999998</ele>
<time>2023-05-17T11:17:46Z</time>
</trkpt>
<trkpt lat="49.085572957992554" lon="8.621504986658692">
<ele>189.39999999999998</ele>
<time>2023-05-17T11:17:47Z</time>
</trkpt>
<trkpt lat="49.08555795438588" lon="8.621442960575223">
<ele>189.60000000000002</ele>
<time>2023-05-17T11:17:48Z</time>
</trkpt>
<trkpt lat="49.08553993329406" lon="8.621382946148515">
<ele>189.60000000000002</ele>
<time>2023-05-17T11:17:49Z</time>
</trkpt>
<trkpt lat="49.08552291803062" lon="8.621321925893426">
<ele>189.79999999999995</ele>
<time>2023-05-17T11:17:50Z</time>
</trkpt>
<trkpt lat="49.085506992414594" lon="8.621259983628988">
<ele>189.79999999999995</ele>
<time>2023-05-17T11:17:51Z</time>
</trkpt>
<trkpt lat="49.08549198880792" lon="8.621201980859041">
<ele>190</ele>
<time>2023-05-17T11:17:52Z</time>
</trkpt>
<trkpt lat="49.08547698520124" lon="8.621146995574236">
<ele>190</ele>
<time>2023-05-17T11:17:53Z</time>
</trkpt>
<trkpt lat="49.08546198159456" lon="8.62109293229878">
<ele>190.20000000000005</ele>
<time>2023-05-17T11:17:54Z</time>
</trkpt>
<trkpt lat="49.085446977987885" lon="8.621039958670735">
<ele>190.20000000000005</ele>
<time>2023-05-17T11:17:55Z</time>
</trkpt>
<trkpt lat="49.085427951067686" lon="8.62098497338593">
<ele>190.39999999999998</ele>
<time>2023-05-17T11:17:56Z</time>
</trkpt>
<trkpt lat="49.085407918319106" lon="8.620929988101125">
<ele>190.39999999999998</ele>
<time>2023-05-17T11:17:57Z</time>
</trkpt>
<trkpt lat="49.08538998104632" lon="8.620876930654049">
<ele>190.60000000000002</ele>
<time>2023-05-17T11:17:58Z</time>
</trkpt>
<trkpt lat="49.0853719599545" lon="8.620817922055721">
<ele>190.79999999999995</ele>
<time>2023-05-17T11:17:59Z</time>
</trkpt>
<trkpt lat="49.08535192720592" lon="8.620764948427677">
<ele>190.79999999999995</ele>
<time>2023-05-17T11:18:00Z</time>
</trkpt>
<trkpt lat="49.08532795496285" lon="8.620712980628014">
<ele>191</ele>
<time>2023-05-17T11:18:01Z</time>
</trkpt>
<trkpt lat="49.08530498854816" lon="8.620666963979602">
<ele>191.20000000000005</ele>
<time>2023-05-17T11:18:02Z</time>
</trkpt>
<trkpt lat="49.08527799881995" lon="8.62062195315957">
<ele>191.39999999999998</ele>
<time>2023-05-17T11:18:03Z</time>
</trkpt>
<trkpt lat="49.08524698577821" lon="8.62057794816792">
<ele>191.60000000000002</ele>
<time>2023-05-17T11:18:04Z</time>
</trkpt>
<trkpt lat="49.0852149669081" lon="8.620537966489792">
<ele>191.60000000000002</ele>
<time>2023-05-17T11:18:05Z</time>
</trkpt>
<trkpt lat="49.0851819422096" lon="8.620499996468425">
<ele>191.79999999999995</ele>
<time>2023-05-17T11:18:06Z</time>
</trkpt>
<trkpt lat="49.085149923339486" lon="8.620464960113168">
<ele>192</ele>
<time>2023-05-17T11:18:07Z</time>
</trkpt>
<trkpt lat="49.08512192778289" lon="8.620431935414672">
<ele>192</ele>
<time>2023-05-17T11:18:08Z</time>
</trkpt>
<trkpt lat="49.08509192056954" lon="8.620397988706827">
<ele>192.20000000000005</ele>
<time>2023-05-17T11:18:09Z</time>
</trkpt>
<trkpt lat="49.085062919184566" lon="8.62036194652319">
<ele>192.39999999999998</ele>
<time>2023-05-17T11:18:10Z</time>
</trkpt>
<trkpt lat="49.085039952769876" lon="8.620327999815345">
<ele>192.39999999999998</ele>
<time>2023-05-17T11:18:11Z</time>
</trkpt>
<trkpt lat="49.085017992183566" lon="8.620289945974946">
<ele>192.60000000000002</ele>
<time>2023-05-17T11:18:12Z</time>
</trkpt>
<trkpt lat="49.08499997109175" lon="8.620244935154915">
<ele>192.79999999999995</ele>
<time>2023-05-17T11:18:13Z</time>
</trkpt>
<trkpt lat="49.08498295582831" lon="8.620199924334884">
<ele>193</ele>
<time>2023-05-17T11:18:14Z</time>
</trkpt>
<trkpt lat="49.08496996387839" lon="8.620156925171614">
<ele>193.20000000000005</ele>
<time>2023-05-17T11:18:15Z</time>
</trkpt>
<trkpt lat="49.08495697192848" lon="8.620111998170614">
<ele>193.39999999999998</ele>
<time>2023-05-17T11:18:16Z</time>
</trkpt>
<trkpt lat="49.0849469974637" lon="8.620064975693822">
<ele>193.60000000000002</ele>
<time>2023-05-17T11:18:17Z</time>
</trkpt>
<trkpt lat="49.084934927523136" lon="8.620021976530552">
<ele>193.79999999999995</ele>
<time>2023-05-17T11:18:18Z</time>
</trkpt>
<trkpt lat="49.0849229414016" lon="8.61997495405376">
<ele>194.20000000000005</ele>
<time>2023-05-17T11:18:19Z</time>
</trkpt>
<trkpt lat="49.084909949451685" lon="8.619929943233728">
<ele>194.39999999999998</ele>
<time>2023-05-17T11:18:20Z</time>
</trkpt>
<trkpt lat="49.08489997498691" lon="8.619884932413697">
<ele>194.60000000000002</ele>
<time>2023-05-17T11:18:21Z</time>
</trkpt>
<trkpt lat="49.084889916703105" lon="8.619842939078808">
<ele>194.79999999999995</ele>
<time>2023-05-17T11:18:22Z</time>
</trkpt>
<trkpt lat="49.08488195389509" lon="8.61980295740068">
<ele>195</ele>
<time>2023-05-17T11:18:23Z</time>
</trkpt>
<trkpt lat="49.08487197943032" lon="8.61975995823741">
<ele>195.20000000000005</ele>
<time>2023-05-17T11:18:24Z</time>
</trkpt>
<trkpt lat="49.08486192114651" lon="8.619714947417378">
<ele>195.39999999999998</ele>
<time>2023-05-17T11:18:25Z</time>
</trkpt>
<trkpt lat="49.08485194668174" lon="8.619669936597347">
<ele>195.60000000000002</ele>
<time>2023-05-17T11:18:26Z</time>
</trkpt>
<trkpt lat="49.084841972216964" lon="8.619624925777316">
<ele>195.79999999999995</ele>
<time>2023-05-17T11:18:27Z</time>
</trkpt>
<trkpt lat="49.08483199775219" lon="8.619581926614046">
<ele>196</ele>
<time>2023-05-17T11:18:28Z</time>
</trkpt>
<trkpt lat="49.084822945296764" lon="8.619539933279157">
<ele>196.39999999999998</ele>
<time>2023-05-17T11:18:29Z</time>
</trkpt>
<trkpt lat="49.08481297083199" lon="8.619497939944267">
<ele>196.60000000000002</ele>
<time>2023-05-17T11:18:30Z</time>
</trkpt>
<trkpt lat="49.084804924204946" lon="8.619454940780997">
<ele>196.79999999999995</ele>
<time>2023-05-17T11:18:31Z</time>
</trkpt>
<trkpt lat="49.08479494974017" lon="8.619409929960966">
<ele>197</ele>
<time>2023-05-17T11:18:32Z</time>
</trkpt>
<trkpt lat="49.0847849752754" lon="8.619366930797696">
<ele>197.20000000000005</ele>
<time>2023-05-17T11:18:33Z</time>
</trkpt>
<trkpt lat="49.08477491699159" lon="8.619324937462807">
<ele>197.39999999999998</ele>
<time>2023-05-17T11:18:34Z</time>
</trkpt>
<trkpt lat="49.08476494252682" lon="8.619282944127917">
<ele>197.60000000000002</ele>
<time>2023-05-17T11:18:35Z</time>
</trkpt>
<trkpt lat="49.084756979718804" lon="8.619239944964647">
<ele>197.79999999999995</ele>
<time>2023-05-17T11:18:36Z</time>
</trkpt>
<trkpt lat="49.084746921435" lon="8.619197951629758">
<ele>198.20000000000005</ele>
<time>2023-05-17T11:18:37Z</time>
</trkpt>
<trkpt lat="49.084737952798605" lon="8.619156964123249">
<ele>198.39999999999998</ele>
<time>2023-05-17T11:18:38Z</time>
</trkpt>
<trkpt lat="49.08472998999059" lon="8.61911698244512">
<ele>198.60000000000002</ele>
<time>2023-05-17T11:18:39Z</time>
</trkpt>
<trkpt lat="49.08472194336355" lon="8.61907691694796">
<ele>198.79999999999995</ele>
<time>2023-05-17T11:18:40Z</time>
</trkpt>
<trkpt lat="49.084712974727154" lon="8.619036935269833">
<ele>199</ele>
<time>2023-05-17T11:18:41Z</time>
</trkpt>
<trkpt lat="49.08470291644335" lon="8.618994941934943">
<ele>199.20000000000005</ele>
<time>2023-05-17T11:18:42Z</time>
</trkpt>
<trkpt lat="49.084692941978574" lon="8.618949931114912">
<ele>199.39999999999998</ele>
<time>2023-05-17T11:18:43Z</time>
</trkpt>
<trkpt lat="49.0846829675138" lon="8.618909949436784">
<ele>199.60000000000002</ele>
<time>2023-05-17T11:18:44Z</time>
</trkpt>
<trkpt lat="49.084672993049026" lon="8.618867956101894">
<ele>200</ele>
<time>2023-05-17T11:18:45Z</time>
</trkpt>
<trkpt lat="49.08466293476522" lon="8.618827974423766">
<ele>200.20000000000005</ele>
<time>2023-05-17T11:18:46Z</time>
</trkpt>
<trkpt lat="49.084652960300446" lon="8.618786986917257">
<ele>200.39999999999998</ele>
<time>2023-05-17T11:18:47Z</time>
</trkpt>
<trkpt lat="49.08464298583567" lon="8.618746921420097">
<ele>200.60000000000002</ele>
<time>2023-05-17T11:18:48Z</time>
</trkpt>
<trkpt lat="49.08463695086539" lon="8.61870995722711">
<ele>201</ele>
<time>2023-05-17T11:18:49Z</time>
</trkpt>
<trkpt lat="49.084629993885756" lon="8.618672993034124">
<ele>201.20000000000005</ele>
<time>2023-05-17T11:18:50Z</time>
</trkpt>
<trkpt lat="49.08462496474385" lon="8.618634939193726">
<ele>201.39999999999998</ele>
<time>2023-05-17T11:18:51Z</time>
</trkpt>
<trkpt lat="49.08461792394519" lon="8.618594957515597">
<ele>201.60000000000002</ele>
<time>2023-05-17T11:18:52Z</time>
</trkpt>
<trkpt lat="49.084609961137176" lon="8.618554975837469">
<ele>202</ele>
<time>2023-05-17T11:18:53Z</time>
</trkpt>
<trkpt lat="49.0845999866724" lon="8.61851692199707">
<ele>202.20000000000005</ele>
<time>2023-05-17T11:18:54Z</time>
</trkpt>
<trkpt lat="49.08459194004536" lon="8.618479957804084">
<ele>202.39999999999998</ele>
<time>2023-05-17T11:18:55Z</time>
</trkpt>
<trkpt lat="49.08458196558058" lon="8.618442993611097">
<ele>202.60000000000002</ele>
<time>2023-05-17T11:18:56Z</time>
</trkpt>
<trkpt lat="49.08457299694419" lon="8.618404939770699">
<ele>203</ele>
<time>2023-05-17T11:18:57Z</time>
</trkpt>
<trkpt lat="49.084564950317144" lon="8.618366969749331">
<ele>203.20000000000005</ele>
<time>2023-05-17T11:18:58Z</time>
</trkpt>
<trkpt lat="49.08455497585237" lon="8.618329921737313">
<ele>203.39999999999998</ele>
<time>2023-05-17T11:18:59Z</time>
</trkpt>
<trkpt lat="49.084546929225326" lon="8.618292957544327">
<ele>203.60000000000002</ele>
<time>2023-05-17T11:19:00Z</time>
</trkpt>
<trkpt lat="49.08453796058893" lon="8.618252975866199">
<ele>204</ele>
<time>2023-05-17T11:19:01Z</time>
</trkpt>
<trkpt lat="49.08452999778092" lon="8.61821198835969">
<ele>204.20000000000005</ele>
<time>2023-05-17T11:19:02Z</time>
</trkpt>
<trkpt lat="49.084521951153874" lon="8.6181699950248">
<ele>204.39999999999998</ele>
<time>2023-05-17T11:19:03Z</time>
</trkpt>
<trkpt lat="49.08451298251748" lon="8.61812791787088">
<ele>204.79999999999995</ele>
<time>2023-05-17T11:19:04Z</time>
</trkpt>
<trkpt lat="49.084504935890436" lon="8.618089947849512">
<ele>205</ele>
<time>2023-05-17T11:19:05Z</time>
</trkpt>
<trkpt lat="49.08449697308242" lon="8.618052983656526">
<ele>205.20000000000005</ele>
<time>2023-05-17T11:19:06Z</time>
</trkpt>
<trkpt lat="49.084487920627" lon="8.618014929816127">
<ele>205.60000000000002</ele>
<time>2023-05-17T11:19:07Z</time>
</trkpt>
<trkpt lat="49.084477946162224" lon="8.61797695979476">
<ele>205.79999999999995</ele>
<time>2023-05-17T11:19:08Z</time>
</trkpt>
<trkpt lat="49.08446998335421" lon="8.61793496645987">
<ele>206.20000000000005</ele>
<time>2023-05-17T11:19:09Z</time>
</trkpt>
<trkpt lat="49.08446495421231" lon="8.617897918447852">
<ele>206.39999999999998</ele>
<time>2023-05-17T11:19:10Z</time>
</trkpt>
<trkpt lat="49.084461936727166" lon="8.617857936769724">
<ele>206.60000000000002</ele>
<time>2023-05-17T11:19:11Z</time>
</trkpt>
<trkpt lat="49.084457997232676" lon="8.617816949263215">
<ele>207</ele>
<time>2023-05-17T11:19:12Z</time>
</trkpt>
<trkpt lat="49.08445196226239" lon="8.617772944271564">
<ele>207.20000000000005</ele>
<time>2023-05-17T11:19:13Z</time>
</trkpt>
<trkpt lat="49.08444492146373" lon="8.617727933451533">
<ele>207.39999999999998</ele>
<time>2023-05-17T11:19:14Z</time>
</trkpt>
<trkpt lat="49.084436958655715" lon="8.617682922631502">
<ele>207.79999999999995</ele>
<time>2023-05-17T11:19:15Z</time>
</trkpt>
<trkpt lat="49.08442698419094" lon="8.617639923468232">
<ele>208</ele>
<time>2023-05-17T11:19:16Z</time>
</trkpt>
<trkpt lat="49.084417931735516" lon="8.617597930133343">
<ele>208.20000000000005</ele>
<time>2023-05-17T11:19:17Z</time>
</trkpt>
<trkpt lat="49.084412986412644" lon="8.617556942626834">
<ele>208.60000000000002</ele>
<time>2023-05-17T11:19:18Z</time>
</trkpt>
<trkpt lat="49.08440795727074" lon="8.617514949291945">
<ele>208.79999999999995</ele>
<time>2023-05-17T11:19:19Z</time>
</trkpt>
<trkpt lat="49.08440192230046" lon="8.617476979270577">
<ele>209</ele>
<time>2023-05-17T11:19:20Z</time>
</trkpt>
<trkpt lat="49.084394965320826" lon="8.61743699759245">
<ele>209.39999999999998</ele>
<time>2023-05-17T11:19:21Z</time>
</trkpt>
<trkpt lat="49.08438792452216" lon="8.617394920438528">
<ele>209.60000000000002</ele>
<time>2023-05-17T11:19:22Z</time>
</trkpt>
<trkpt lat="49.08438297919929" lon="8.617351921275258">
<ele>209.79999999999995</ele>
<time>2023-05-17T11:19:23Z</time>
</trkpt>
<trkpt lat="49.08437795005739" lon="8.617309927940369">
<ele>210</ele>
<time>2023-05-17T11:19:24Z</time>
</trkpt>
<trkpt lat="49.084371998906136" lon="8.617266928777099">
<ele>210.39999999999998</ele>
<time>2023-05-17T11:19:25Z</time>
</trkpt>
<trkpt lat="49.08436495810747" lon="8.61722493544221">
<ele>210.60000000000002</ele>
<time>2023-05-17T11:19:26Z</time>
</trkpt>
<trkpt lat="49.08435699529946" lon="8.61718193627894">
<ele>210.79999999999995</ele>
<time>2023-05-17T11:19:27Z</time>
</trkpt>
<trkpt lat="49.084349954500794" lon="8.617136925458908">
<ele>211</ele>
<time>2023-05-17T11:19:28Z</time>
</trkpt>
<trkpt lat="49.08434299752116" lon="8.617087975144386">
<ele>211.39999999999998</ele>
<time>2023-05-17T11:19:29Z</time>
</trkpt>
<trkpt lat="49.08433696255088" lon="8.617042964324355">
<ele>211.60000000000002</ele>
<time>2023-05-17T11:19:30Z</time>
</trkpt>
<trkpt lat="49.084327993914485" lon="8.616997953504324">
<ele>211.79999999999995</ele>
<time>2023-05-17T11:19:31Z</time>
</trkpt>
<trkpt lat="49.0843169298023" lon="8.616951936855912">
<ele>212</ele>
<time>2023-05-17T11:19:32Z</time>
</trkpt>
<trkpt lat="49.08430494368076" lon="8.616907931864262">
<ele>212.20000000000005</ele>
<time>2023-05-17T11:19:33Z</time>
</trkpt>
<trkpt lat="49.08429698087275" lon="8.61686292104423">
<ele>212.39999999999998</ele>
<time>2023-05-17T11:19:34Z</time>
</trkpt>
<trkpt lat="49.084286922588944" lon="8.616817994043231">
<ele>212.60000000000002</ele>
<time>2023-05-17T11:19:35Z</time>
</trkpt>
<trkpt lat="49.08427694812417" lon="8.6167729832232">
<ele>212.79999999999995</ele>
<time>2023-05-17T11:19:36Z</time>
</trkpt>
<trkpt lat="49.08426797948778" lon="8.616727972403169">
<ele>213.20000000000005</ele>
<time>2023-05-17T11:19:37Z</time>
</trkpt>
<trkpt lat="49.08425993286073" lon="8.616682961583138">
<ele>213.39999999999998</ele>
<time>2023-05-17T11:19:38Z</time>
</trkpt>
<trkpt lat="49.08425197005272" lon="8.616639962419868">
<ele>213.60000000000002</ele>
<time>2023-05-17T11:19:39Z</time>
</trkpt>
<trkpt lat="49.084244929254055" lon="8.616596963256598">
<ele>213.79999999999995</ele>
<time>2023-05-17T11:19:40Z</time>
</trkpt>
<trkpt lat="49.08423797227442" lon="8.616551952436566">
<ele>214</ele>
<time>2023-05-17T11:19:41Z</time>
</trkpt>
<trkpt lat="49.08423294313252" lon="8.616507947444916">
<ele>214.20000000000005</ele>
<time>2023-05-17T11:19:42Z</time>
</trkpt>
<trkpt lat="49.08422699198127" lon="8.616466959938407">
<ele>214.39999999999998</ele>
<time>2023-05-17T11:19:43Z</time>
</trkpt>
<trkpt lat="49.08421793952584" lon="8.616424966603518">
<ele>214.39999999999998</ele>
<time>2023-05-17T11:19:44Z</time>
</trkpt>
<trkpt lat="49.08421198837459" lon="8.616382973268628">
<ele>214.60000000000002</ele>
<time>2023-05-17T11:19:45Z</time>
</trkpt>
<trkpt lat="49.084202935919166" lon="8.616339974105358">
<ele>214.79999999999995</ele>
<time>2023-05-17T11:19:46Z</time>
</trkpt>
<trkpt lat="49.084196984767914" lon="8.616297980770469">
<ele>215</ele>
<time>2023-05-17T11:19:47Z</time>
</trkpt>
<trkpt lat="49.08418793231249" lon="8.61625699326396">
<ele>215.20000000000005</ele>
<time>2023-05-17T11:19:48Z</time>
</trkpt>
<trkpt lat="49.084179969504476" lon="8.6162169277668">
<ele>215.39999999999998</ele>
<time>2023-05-17T11:19:49Z</time>
</trkpt>
<trkpt lat="49.08417292870581" lon="8.616181975230575">
<ele>215.60000000000002</ele>
<time>2023-05-17T11:19:50Z</time>
</trkpt>
<trkpt lat="49.0841649658978" lon="8.616142999380827">
<ele>215.79999999999995</ele>
<time>2023-05-17T11:19:51Z</time>
</trkpt>
<trkpt lat="49.084156919270754" lon="8.616102933883667">
<ele>216</ele>
<time>2023-05-17T11:19:52Z</time>
</trkpt>
<trkpt lat="49.08414694480598" lon="8.616061946377158">
<ele>216.20000000000005</ele>
<time>2023-05-17T11:19:53Z</time>
</trkpt>
<trkpt lat="49.084134958684444" lon="8.61602196469903">
<ele>216.39999999999998</ele>
<time>2023-05-17T11:19:54Z</time>
</trkpt>
<trkpt lat="49.08412791788578" lon="8.61597795970738">
<ele>216.60000000000002</ele>
<time>2023-05-17T11:19:55Z</time>
</trkpt>
<trkpt lat="49.08411995507777" lon="8.61593697220087">
<ele>216.79999999999995</ele>
<time>2023-05-17T11:19:56Z</time>
</trkpt>
<trkpt lat="49.084111992269754" lon="8.61589296720922">
<ele>217</ele>
<time>2023-05-17T11:19:57Z</time>
</trkpt>
<trkpt lat="49.08410193398595" lon="8.615847956389189">
<ele>217.20000000000005</ele>
<time>2023-05-17T11:19:58Z</time>
</trkpt>
<trkpt lat="49.084092965349555" lon="8.615801939740777">
<ele>217.39999999999998</ele>
<time>2023-05-17T11:19:59Z</time>
</trkpt>
<trkpt lat="49.08408491872251" lon="8.615752989426255">
<ele>217.60000000000002</ele>
<time>2023-05-17T11:20:00Z</time>
</trkpt>
<trkpt lat="49.08407796174288" lon="8.615706972777843">
<ele>217.79999999999995</ele>
<time>2023-05-17T11:20:01Z</time>
</trkpt>
<trkpt lat="49.084069998934865" lon="8.615661961957812">
<ele>218</ele>
<time>2023-05-17T11:20:02Z</time>
</trkpt>
<trkpt lat="49.0840629581362" lon="8.61561493948102">
<ele>218.20000000000005</ele>
<time>2023-05-17T11:20:03Z</time>
</trkpt>
<trkpt lat="49.08405692316592" lon="8.615567917004228">
<ele>218.20000000000005</ele>
<time>2023-05-17T11:20:04Z</time>
</trkpt>
<trkpt lat="49.084049966186285" lon="8.615522990003228">
<ele>218.39999999999998</ele>
<time>2023-05-17T11:20:05Z</time>
</trkpt>
<trkpt lat="49.08404191955924" lon="8.615476973354816">
<ele>218.60000000000002</ele>
<time>2023-05-17T11:20:06Z</time>
</trkpt>
<trkpt lat="49.08403496257961" lon="8.615432968363166">
<ele>218.79999999999995</ele>
<time>2023-05-17T11:20:07Z</time>
</trkpt>
<trkpt lat="49.084027921780944" lon="8.615391980856657">
<ele>219</ele>
<time>2023-05-17T11:20:08Z</time>
</trkpt>
<trkpt lat="49.08401995897293" lon="8.615346970036626">
<ele>219.20000000000005</ele>
<time>2023-05-17T11:20:09Z</time>
</trkpt>
<trkpt lat="49.08400998450816" lon="8.615299947559834">
<ele>219.20000000000005</ele>
<time>2023-05-17T11:20:10Z</time>
</trkpt>
<trkpt lat="49.08399799838662" lon="8.61525191925466">
<ele>219.39999999999998</ele>
<time>2023-05-17T11:20:11Z</time>
</trkpt>
<trkpt lat="49.083986934274435" lon="8.615201963111758">
<ele>219.60000000000002</ele>
<time>2023-05-17T11:20:12Z</time>
</trkpt>
<trkpt lat="49.08397695980966" lon="8.615151923149824">
<ele>219.79999999999995</ele>
<time>2023-05-17T11:20:13Z</time>
</trkpt>
<trkpt lat="49.08396799117327" lon="8.61509995535016">
<ele>220</ele>
<time>2023-05-17T11:20:14Z</time>
</trkpt>
<trkpt lat="49.08395994454622" lon="8.615051927044988">
<ele>220.20000000000005</ele>
<time>2023-05-17T11:20:15Z</time>
</trkpt>
<trkpt lat="49.08395198173821" lon="8.615001970902085">
<ele>220.20000000000005</ele>
<time>2023-05-17T11:20:16Z</time>
</trkpt>
<trkpt lat="49.083944940939546" lon="8.614951930940151">
<ele>220.39999999999998</ele>
<time>2023-05-17T11:20:17Z</time>
</trkpt>
<trkpt lat="49.08393697813153" lon="8.614901974797249">
<ele>220.60000000000002</ele>
<time>2023-05-17T11:20:18Z</time>
</trkpt>
<trkpt lat="49.08392691984773" lon="8.614851934835315">
<ele>220.79999999999995</ele>
<time>2023-05-17T11:20:19Z</time>
</trkpt>
<trkpt lat="49.08391795121133" lon="8.614801978692412">
<ele>220.79999999999995</ele>
<time>2023-05-17T11:20:20Z</time>
</trkpt>
<trkpt lat="49.08390797674656" lon="8.614751938730478">
<ele>221</ele>
<time>2023-05-17T11:20:21Z</time>
</trkpt>
<trkpt lat="49.083901941776276" lon="8.614697959274054">
<ele>221.20000000000005</ele>
<time>2023-05-17T11:20:22Z</time>
</trkpt>
<trkpt lat="49.08389297313988" lon="8.61464699730277">
<ele>221.39999999999998</ele>
<time>2023-05-17T11:20:23Z</time>
</trkpt>
<trkpt lat="49.0838869381696" lon="8.614594945684075">
<ele>221.39999999999998</ele>
<time>2023-05-17T11:20:24Z</time>
</trkpt>
<trkpt lat="49.083877969533205" lon="8.614542977884412">
<ele>221.60000000000002</ele>
<time>2023-05-17T11:20:25Z</time>
</trkpt>
<trkpt lat="49.08386799506843" lon="8.614492937922478">
<ele>221.79999999999995</ele>
<time>2023-05-17T11:20:26Z</time>
</trkpt>
<trkpt lat="49.083859948441386" lon="8.614444993436337">
<ele>222</ele>
<time>2023-05-17T11:20:27Z</time>
</trkpt>
<trkpt lat="49.08384997397661" lon="8.614392941817641">
<ele>222</ele>
<time>2023-05-17T11:20:28Z</time>
</trkpt>
<trkpt lat="49.08384293317795" lon="8.614342985674739">
<ele>222.20000000000005</ele>
<time>2023-05-17T11:20:29Z</time>
</trkpt>
<trkpt lat="49.083834970369935" lon="8.614292945712805">
<ele>222.39999999999998</ele>
<time>2023-05-17T11:20:30Z</time>
</trkpt>
<trkpt lat="49.08382994122803" lon="8.614241983741522">
<ele>222.60000000000002</ele>
<time>2023-05-17T11:20:31Z</time>
</trkpt>
<trkpt lat="49.0838229842484" lon="8.614191943779588">
<ele>222.60000000000002</ele>
<time>2023-05-17T11:20:32Z</time>
</trkpt>
<trkpt lat="49.083816949278116" lon="8.614142993465066">
<ele>222.79999999999995</ele>
<time>2023-05-17T11:20:33Z</time>
</trkpt>
<trkpt lat="49.08380798064172" lon="8.614096976816654">
<ele>223</ele>
<time>2023-05-17T11:20:34Z</time>
</trkpt>
<trkpt lat="49.08380194567144" lon="8.614049954339862">
<ele>223.20000000000005</ele>
<time>2023-05-17T11:20:35Z</time>
</trkpt>
<trkpt lat="49.083796916529536" lon="8.61400293186307">
<ele>223.39999999999998</ele>
<time>2023-05-17T11:20:36Z</time>
</trkpt>
<trkpt lat="49.08378794789314" lon="8.61395699903369">
<ele>223.39999999999998</ele>
<time>2023-05-17T11:20:37Z</time>
</trkpt>
<trkpt lat="49.08377998508513" lon="8.613914921879768">
<ele>223.60000000000002</ele>
<time>2023-05-17T11:20:38Z</time>
</trkpt>
<trkpt lat="49.083771938458085" lon="8.61387494020164">
<ele>223.79999999999995</ele>
<time>2023-05-17T11:20:39Z</time>
</trkpt>
<trkpt lat="49.083766993135214" lon="8.613836970180273">
<ele>224</ele>
<time>2023-05-17T11:20:40Z</time>
</trkpt>
<trkpt lat="49.08375995233655" lon="8.613794976845384">
<ele>224</ele>
<time>2023-05-17T11:20:41Z</time>
</trkpt>
<trkpt lat="49.08375492319465" lon="8.613751977682114">
<ele>224.20000000000005</ele>
<time>2023-05-17T11:20:42Z</time>
</trkpt>
<trkpt lat="49.08375198952854" lon="8.613706966862082">
<ele>224.39999999999998</ele>
<time>2023-05-17T11:20:43Z</time>
</trkpt>
<trkpt lat="49.08374494872987" lon="8.613661956042051">
<ele>224.39999999999998</ele>
<time>2023-05-17T11:20:44Z</time>
</trkpt>
<trkpt lat="49.08373698592186" lon="8.61361694522202">
<ele>224.60000000000002</ele>
<time>2023-05-17T11:20:45Z</time>
</trkpt>
<trkpt lat="49.083729945123196" lon="8.613571934401989">
<ele>224.60000000000002</ele>
<time>2023-05-17T11:20:46Z</time>
</trkpt>
<trkpt lat="49.083724999800324" lon="8.613526923581958">
<ele>224.79999999999995</ele>
<time>2023-05-17T11:20:47Z</time>
</trkpt>
<trkpt lat="49.08371695317328" lon="8.613482918590307">
<ele>224.79999999999995</ele>
<time>2023-05-17T11:20:48Z</time>
</trkpt>
<trkpt lat="49.08370999619365" lon="8.613436985760927">
<ele>225</ele>
<time>2023-05-17T11:20:49Z</time>
</trkpt>
<trkpt lat="49.08370295539498" lon="8.613391974940896">
<ele>225.20000000000005</ele>
<time>2023-05-17T11:20:50Z</time>
</trkpt>
<trkpt lat="49.0836969204247" lon="8.613344952464104">
<ele>225.39999999999998</ele>
<time>2023-05-17T11:20:51Z</time>
</trkpt>
<trkpt lat="49.08368996344507" lon="8.613297929987311">
<ele>225.60000000000002</ele>
<time>2023-05-17T11:20:52Z</time>
</trkpt>
<trkpt lat="49.0836829226464" lon="8.613247973844409">
<ele>226</ele>
<time>2023-05-17T11:20:53Z</time>
</trkpt>
<trkpt lat="49.08367697149515" lon="8.613196928054094">
<ele>226.20000000000005</ele>
<time>2023-05-17T11:20:54Z</time>
</trkpt>
<trkpt lat="49.08366993069649" lon="8.61314294859767">
<ele>226.39999999999998</ele>
<time>2023-05-17T11:20:55Z</time>
</trkpt>
<trkpt lat="49.083664985373616" lon="8.613087963312864">
<ele>226.60000000000002</ele>
<time>2023-05-17T11:20:56Z</time>
</trkpt>
<trkpt lat="49.08365794457495" lon="8.613032978028059">
<ele>226.79999999999995</ele>
<time>2023-05-17T11:20:57Z</time>
</trkpt>
<trkpt lat="49.08364998176694" lon="8.612976986914873">
<ele>227</ele>
<time>2023-05-17T11:20:58Z</time>
</trkpt>
<trkpt lat="49.083641935139894" lon="8.612921917811036">
<ele>227.20000000000005</ele>
<time>2023-05-17T11:20:59Z</time>
</trkpt>
<trkpt lat="49.0836329665035" lon="8.61286492086947">
<ele>227.20000000000005</ele>
<time>2023-05-17T11:21:00Z</time>
</trkpt>
<trkpt lat="49.083624919876456" lon="8.612807923927903">
<ele>227.39999999999998</ele>
<time>2023-05-17T11:21:01Z</time>
</trkpt>
<trkpt lat="49.08361695706844" lon="8.612752938643098">
<ele>227.60000000000002</ele>
<time>2023-05-17T11:21:02Z</time>
</trkpt>
<trkpt lat="49.08360991626978" lon="8.612697953358293">
<ele>227.79999999999995</ele>
<time>2023-05-17T11:21:03Z</time>
</trkpt>
<trkpt lat="49.08360295929015" lon="8.61264699138701">
<ele>228</ele>
<time>2023-05-17T11:21:04Z</time>
</trkpt>
<trkpt lat="49.083597930148244" lon="8.612594939768314">
<ele>228</ele>
<time>2023-05-17T11:21:05Z</time>
</trkpt>
<trkpt lat="49.08359298482537" lon="8.612544983625412">
<ele>228.20000000000005</ele>
<time>2023-05-17T11:21:06Z</time>
</trkpt>
<trkpt lat="49.08358795568347" lon="8.612494943663478">
<ele>228.39999999999998</ele>
<time>2023-05-17T11:21:07Z</time>
</trkpt>
<trkpt lat="49.08358292654157" lon="8.612446999177337">
<ele>228.60000000000002</ele>
<time>2023-05-17T11:21:08Z</time>
</trkpt>
<trkpt lat="49.083576975390315" lon="8.612394947558641">
<ele>228.60000000000002</ele>
<time>2023-05-17T11:21:09Z</time>
</trkpt>
<trkpt lat="49.08357194624841" lon="8.612342979758978">
<ele>228.79999999999995</ele>
<time>2023-05-17T11:21:10Z</time>
</trkpt>
<trkpt lat="49.08356498926878" lon="8.612287994474173">
<ele>229</ele>
<time>2023-05-17T11:21:11Z</time>
</trkpt>
<trkpt lat="49.083557948470116" lon="8.612234937027097">
<ele>229</ele>
<time>2023-05-17T11:21:12Z</time>
</trkpt>
<trkpt lat="49.08355291932821" lon="8.612179951742291">
<ele>229.20000000000005</ele>
<time>2023-05-17T11:21:13Z</time>
</trkpt>
<trkpt lat="49.08354696817696" lon="8.612124966457486">
<ele>229.39999999999998</ele>
<time>2023-05-17T11:21:14Z</time>
</trkpt>
<trkpt lat="49.0835399273783" lon="8.61206998117268">
<ele>229.39999999999998</ele>
<time>2023-05-17T11:21:15Z</time>
</trkpt>
<trkpt lat="49.083532970398664" lon="8.612014995887876">
<ele>229.60000000000002</ele>
<time>2023-05-17T11:21:16Z</time>
</trkpt>
<trkpt lat="49.08352693542838" lon="8.611957998946309">
<ele>229.79999999999995</ele>
<time>2023-05-17T11:21:17Z</time>
</trkpt>
<trkpt lat="49.08351796679199" lon="8.611902929842472">
<ele>230</ele>
<time>2023-05-17T11:21:18Z</time>
</trkpt>
<trkpt lat="49.083511931821704" lon="8.611846938729286">
<ele>230.20000000000005</ele>
<time>2023-05-17T11:21:19Z</time>
</trkpt>
<trkpt lat="49.08350497484207" lon="8.61178994178772">
<ele>230.20000000000005</ele>
<time>2023-05-17T11:21:20Z</time>
</trkpt>
<trkpt lat="49.08349793404341" lon="8.611732944846153">
<ele>230.39999999999998</ele>
<time>2023-05-17T11:21:21Z</time>
</trkpt>
<trkpt lat="49.083492988720536" lon="8.611674942076206">
<ele>230.60000000000002</ele>
<time>2023-05-17T11:21:22Z</time>
</trkpt>
<trkpt lat="49.08348695375025" lon="8.611614927649498">
<ele>230.79999999999995</ele>
<time>2023-05-17T11:21:23Z</time>
</trkpt>
<trkpt lat="49.08347798511386" lon="8.611556924879551">
<ele>231</ele>
<time>2023-05-17T11:21:24Z</time>
</trkpt>
<trkpt lat="49.083471950143576" lon="8.611497916281223">
<ele>231.20000000000005</ele>
<time>2023-05-17T11:21:25Z</time>
</trkpt>
<trkpt lat="49.08346499316394" lon="8.611441925168037">
<ele>231.20000000000005</ele>
<time>2023-05-17T11:21:26Z</time>
</trkpt>
<trkpt lat="49.08345795236528" lon="8.61138291656971">
<ele>231.39999999999998</ele>
<time>2023-05-17T11:21:27Z</time>
</trkpt>
<trkpt lat="49.083451917394996" lon="8.611324997618794">
<ele>231.60000000000002</ele>
<time>2023-05-17T11:21:28Z</time>
</trkpt>
<trkpt lat="49.083446972072124" lon="8.611266994848847">
<ele>231.60000000000002</ele>
<time>2023-05-17T11:21:29Z</time>
</trkpt>
<trkpt lat="49.08343993127346" lon="8.61120798625052">
<ele>231.79999999999995</ele>
<time>2023-05-17T11:21:30Z</time>
</trkpt>
<trkpt lat="49.08343498595059" lon="8.611151995137334">
<ele>231.79999999999995</ele>
<time>2023-05-17T11:21:31Z</time>
</trkpt>
<trkpt lat="49.083429956808686" lon="8.611091980710626">
<ele>232</ele>
<time>2023-05-17T11:21:32Z</time>
</trkpt>
<trkpt lat="49.08342492766678" lon="8.61103498376906">
<ele>232</ele>
<time>2023-05-17T11:21:33Z</time>
</trkpt>
<trkpt lat="49.08341998234391" lon="8.610976980999112">
<ele>232.20000000000005</ele>
<time>2023-05-17T11:21:34Z</time>
</trkpt>
<trkpt lat="49.08341495320201" lon="8.610917972400784">
<ele>232.20000000000005</ele>
<time>2023-05-17T11:21:35Z</time>
</trkpt>
<trkpt lat="49.08340799622238" lon="8.61086298711598">
<ele>232.39999999999998</ele>
<time>2023-05-17T11:21:36Z</time>
</trkpt>
<trkpt lat="49.08340196125209" lon="8.610807918012142">
<ele>232.60000000000002</ele>
<time>2023-05-17T11:21:37Z</time>
</trkpt>
<trkpt lat="49.08339492045343" lon="8.610751926898956">
<ele>232.60000000000002</ele>
<time>2023-05-17T11:21:38Z</time>
</trkpt>
<trkpt lat="49.08338997513056" lon="8.610697947442532">
<ele>232.79999999999995</ele>
<time>2023-05-17T11:21:39Z</time>
</trkpt>
<trkpt lat="49.083382934331894" lon="8.610642962157726">
<ele>233</ele>
<time>2023-05-17T11:21:40Z</time>
</trkpt>
<trkpt lat="49.08337798900902" lon="8.610587976872921">
<ele>233</ele>
<time>2023-05-17T11:21:41Z</time>
</trkpt>
<trkpt lat="49.08337295986712" lon="8.610531985759735">
<ele>233.20000000000005</ele>
<time>2023-05-17T11:21:42Z</time>
</trkpt>
<trkpt lat="49.083366924896836" lon="8.610474988818169">
<ele>233.39999999999998</ele>
<time>2023-05-17T11:21:43Z</time>
</trkpt>
<trkpt lat="49.083359967917204" lon="8.610419919714332">
<ele>233.60000000000002</ele>
<time>2023-05-17T11:21:44Z</time>
</trkpt>
<trkpt lat="49.0833549387753" lon="8.610364934429526">
<ele>233.60000000000002</ele>
<time>2023-05-17T11:21:45Z</time>
</trkpt>
<trkpt lat="49.08334999345243" lon="8.610312966629863">
<ele>233.79999999999995</ele>
<time>2023-05-17T11:21:46Z</time>
</trkpt>
<trkpt lat="49.08334697596729" lon="8.610267955809832">
<ele>234</ele>
<time>2023-05-17T11:21:47Z</time>
</trkpt>
<trkpt lat="49.083341946825385" lon="8.61022193916142">
<ele>234</ele>
<time>2023-05-17T11:21:48Z</time>
</trkpt>
<trkpt lat="49.08333691768348" lon="8.610172988846898">
<ele>234.20000000000005</ele>
<time>2023-05-17T11:21:49Z</time>
</trkpt>
<trkpt lat="49.08333297818899" lon="8.610122948884964">
<ele>234.39999999999998</ele>
<time>2023-05-17T11:21:50Z</time>
</trkpt>
<trkpt lat="49.08332694321871" lon="8.610071986913681">
<ele>234.39999999999998</ele>
<time>2023-05-17T11:21:51Z</time>
</trkpt>
<trkpt lat="49.083319986239076" lon="8.610019935294986">
<ele>234.60000000000002</ele>
<time>2023-05-17T11:21:52Z</time>
</trkpt>
<trkpt lat="49.08331294544041" lon="8.609967967495322">
<ele>234.79999999999995</ele>
<time>2023-05-17T11:21:53Z</time>
</trkpt>
<trkpt lat="49.0833049826324" lon="8.609916921705008">
<ele>234.79999999999995</ele>
<time>2023-05-17T11:21:54Z</time>
</trkpt>
<trkpt lat="49.08329299651086" lon="8.609864953905344">
<ele>234.79999999999995</ele>
<time>2023-05-17T11:21:55Z</time>
</trkpt>
<trkpt lat="49.08328193239868" lon="8.60981298610568">
<ele>235</ele>
<time>2023-05-17T11:21:56Z</time>
</trkpt>
<trkpt lat="49.08327296376228" lon="8.609757917001843">
<ele>235</ele>
<time>2023-05-17T11:21:57Z</time>
</trkpt>
<trkpt lat="49.08326491713524" lon="8.609701925888658">
<ele>235.20000000000005</ele>
<time>2023-05-17T11:21:58Z</time>
</trkpt>
<trkpt lat="49.083257960155606" lon="8.609644928947091">
<ele>235.20000000000005</ele>
<time>2023-05-17T11:21:59Z</time>
</trkpt>
<trkpt lat="49.0832529310137" lon="8.609584998339415">
<ele>235.20000000000005</ele>
<time>2023-05-17T11:22:00Z</time>
</trkpt>
<trkpt lat="49.08324697986245" lon="8.609522972255945">
<ele>235.39999999999998</ele>
<time>2023-05-17T11:22:01Z</time>
</trkpt>
<trkpt lat="49.08324195072055" lon="8.609457928687334">
<ele>235.39999999999998</ele>
<time>2023-05-17T11:22:02Z</time>
</trkpt>
<trkpt lat="49.083236921578646" lon="8.609392968937755">
<ele>235.60000000000002</ele>
<time>2023-05-17T11:22:03Z</time>
</trkpt>
<trkpt lat="49.08322996459901" lon="8.609329937025905">
<ele>235.60000000000002</ele>
<time>2023-05-17T11:22:04Z</time>
</trkpt>
<trkpt lat="49.08322493545711" lon="8.609264977276325">
<ele>235.60000000000002</ele>
<time>2023-05-17T11:22:05Z</time>
</trkpt>
<trkpt lat="49.0832169726491" lon="8.609192976728082">
<ele>235.79999999999995</ele>
<time>2023-05-17T11:22:06Z</time>
</trkpt>
<trkpt lat="49.08320699818432" lon="8.609117958694696">
<ele>235.79999999999995</ele>
<time>2023-05-17T11:22:07Z</time>
</trkpt>
<trkpt lat="49.08319693990052" lon="8.609056938439608">
<ele>236</ele>
<time>2023-05-17T11:22:08Z</time>
</trkpt>
<trkpt lat="49.083189982920885" lon="8.608989967033267">
<ele>236</ele>
<time>2023-05-17T11:22:09Z</time>
</trkpt>
<trkpt lat="49.08318294212222" lon="8.608927940949798">
<ele>236.20000000000005</ele>
<time>2023-05-17T11:22:10Z</time>
</trkpt>
<trkpt lat="49.08317992463708" lon="8.608876978978515">
<ele>236.20000000000005</ele>
<time>2023-05-17T11:22:11Z</time>
</trkpt>
<trkpt lat="49.08317497931421" lon="8.608819982036948">
<ele>236.39999999999998</ele>
<time>2023-05-17T11:22:12Z</time>
</trkpt>
<trkpt lat="49.083167938515544" lon="8.608756950125098">
<ele>236.39999999999998</ele>
<time>2023-05-17T11:22:13Z</time>
</trkpt>
<trkpt lat="49.08316198736429" lon="8.608699953183532">
<ele>236.60000000000002</ele>
<time>2023-05-17T11:22:14Z</time>
</trkpt>
<trkpt lat="49.08315695822239" lon="8.608637927100062">
<ele>236.60000000000002</ele>
<time>2023-05-17T11:22:15Z</time>
</trkpt>
<trkpt lat="49.083151929080486" lon="8.608574979007244">
<ele>236.79999999999995</ele>
<time>2023-05-17T11:22:16Z</time>
</trkpt>
<trkpt lat="49.083149917423725" lon="8.608522927388549">
<ele>236.79999999999995</ele>
<time>2023-05-17T11:22:17Z</time>
</trkpt>
<trkpt lat="49.083144972100854" lon="8.608472971245646">
<ele>236.79999999999995</ele>
<time>2023-05-17T11:22:18Z</time>
</trkpt>
<trkpt lat="49.08314296044409" lon="8.60841698013246">
<ele>237</ele>
<time>2023-05-17T11:22:19Z</time>
</trkpt>
<trkpt lat="49.08313692547381" lon="8.608362916857004">
<ele>237</ele>
<time>2023-05-17T11:22:20Z</time>
</trkpt>
<trkpt lat="49.08312996849418" lon="8.608304997906089">
<ele>237</ele>
<time>2023-05-17T11:22:21Z</time>
</trkpt>
<trkpt lat="49.08312292769551" lon="8.608252946287394">
<ele>237.20000000000005</ele>
<time>2023-05-17T11:22:22Z</time>
</trkpt>
<trkpt lat="49.08311697654426" lon="8.60820198431611">
<ele>237.20000000000005</ele>
<time>2023-05-17T11:22:23Z</time>
</trkpt>
<trkpt lat="49.08311194740236" lon="8.608132917433977">
<ele>237.39999999999998</ele>
<time>2023-05-17T11:22:24Z</time>
</trkpt>
<trkpt lat="49.0831099357456" lon="8.608084972947836">
<ele>237.39999999999998</ele>
<time>2023-05-17T11:22:25Z</time>
</trkpt>
<trkpt lat="49.08309996128082" lon="8.608016995713115">
<ele>237.60000000000002</ele>
<time>2023-05-17T11:22:26Z</time>
</trkpt>
<trkpt lat="49.08309794962406" lon="8.607934936881065">
<ele>237.60000000000002</ele>
<time>2023-05-17T11:22:27Z</time>
</trkpt>
<trkpt lat="49.08309694379568" lon="8.607877939939499">
<ele>237.79999999999995</ele>
<time>2023-05-17T11:22:28Z</time>
</trkpt>
<trkpt lat="49.08309493213892" lon="8.607807951048017">
<ele>237.79999999999995</ele>
<time>2023-05-17T11:22:29Z</time>
</trkpt>
<trkpt lat="49.08309493213892" lon="8.607729999348521">
<ele>237.79999999999995</ele>
<time>2023-05-17T11:22:30Z</time>
</trkpt>
<trkpt lat="49.08309199847281" lon="8.607649952173233">
<ele>238</ele>
<time>2023-05-17T11:22:31Z</time>
</trkpt>
<trkpt lat="49.083082946017385" lon="8.607591949403286">
<ele>238</ele>
<time>2023-05-17T11:22:32Z</time>
</trkpt>
<trkpt lat="49.083084957674146" lon="8.607524977996945">
<ele>238</ele>
<time>2023-05-17T11:22:33Z</time>
</trkpt>
<trkpt lat="49.08307992853224" lon="8.607459934428334">
<ele>238.20000000000005</ele>
<time>2023-05-17T11:22:34Z</time>
</trkpt>
<trkpt lat="49.08307791687548" lon="8.607392963021994">
<ele>238.20000000000005</ele>
<time>2023-05-17T11:22:35Z</time>
</trkpt>
<trkpt lat="49.08307992853224" lon="8.607326997444034">
<ele>238.20000000000005</ele>
<time>2023-05-17T11:22:36Z</time>
</trkpt>
<trkpt lat="49.083081940189004" lon="8.6072579305619">
<ele>238.20000000000005</ele>
<time>2023-05-17T11:22:37Z</time>
</trkpt>
<trkpt lat="49.08307992853224" lon="8.60719196498394">
<ele>238.39999999999998</ele>
<time>2023-05-17T11:22:38Z</time>
</trkpt>
<trkpt lat="49.08307699486613" lon="8.607117952778935">
<ele>238.39999999999998</ele>
<time>2023-05-17T11:22:39Z</time>
</trkpt>
<trkpt lat="49.083082946017385" lon="8.607039917260408">
<ele>238.39999999999998</ele>
<time>2023-05-17T11:22:40Z</time>
</trkpt>
<trkpt lat="49.08307791687548" lon="8.606969928368926">
<ele>238.60000000000002</ele>
<time>2023-05-17T11:22:41Z</time>
</trkpt>
<trkpt lat="49.08307791687548" lon="8.606906980276108">
<ele>238.60000000000002</ele>
<time>2023-05-17T11:22:42Z</time>
</trkpt>
<trkpt lat="49.08307498320937" lon="8.606844954192638">
<ele>238.60000000000002</ele>
<time>2023-05-17T11:22:43Z</time>
</trkpt>
<trkpt lat="49.08306693658233" lon="8.606777982786298">
<ele>238.60000000000002</ele>
<time>2023-05-17T11:22:44Z</time>
</trkpt>
<trkpt lat="49.083059979602695" lon="8.606711933389306">
<ele>238.79999999999995</ele>
<time>2023-05-17T11:22:45Z</time>
</trkpt>
<trkpt lat="49.08305193297565" lon="8.606639932841063">
<ele>238.79999999999995</ele>
<time>2023-05-17T11:22:46Z</time>
</trkpt>
<trkpt lat="49.08304497599602" lon="8.60656994394958">
<ele>238.79999999999995</ele>
<time>2023-05-17T11:22:47Z</time>
</trkpt>
<trkpt lat="49.08303793519735" lon="8.6065049842">
<ele>238.79999999999995</ele>
<time>2023-05-17T11:22:48Z</time>
</trkpt>
<trkpt lat="49.08303491771221" lon="8.606446981430054">
<ele>239</ele>
<time>2023-05-17T11:22:49Z</time>
</trkpt>
<trkpt lat="49.0830319840461" lon="8.606382943689823">
<ele>239</ele>
<time>2023-05-17T11:22:50Z</time>
</trkpt>
<trkpt lat="49.0830319840461" lon="8.606319995597005">
<ele>239</ele>
<time>2023-05-17T11:22:51Z</time>
</trkpt>
<trkpt lat="49.08302997238934" lon="8.606257969513535">
<ele>239</ele>
<time>2023-05-17T11:22:52Z</time>
</trkpt>
<trkpt lat="49.08302796073258" lon="8.606199966743588">
<ele>239</ele>
<time>2023-05-17T11:22:53Z</time>
</trkpt>
<trkpt lat="49.08302494324744" lon="8.606132995337248">
<ele>239</ele>
<time>2023-05-17T11:22:54Z</time>
</trkpt>
<trkpt lat="49.083019997924566" lon="8.606069963425398">
<ele>239</ele>
<time>2023-05-17T11:22:55Z</time>
</trkpt>
<trkpt lat="49.083019997924566" lon="8.606007937341928">
<ele>239</ele>
<time>2023-05-17T11:22:56Z</time>
</trkpt>
<trkpt lat="49.083016980439425" lon="8.605941971763968">
<ele>239.20000000000005</ele>
<time>2023-05-17T11:22:57Z</time>
</trkpt>
<trkpt lat="49.08301195129752" lon="8.605866953730583">
<ele>239.20000000000005</ele>
<time>2023-05-17T11:22:58Z</time>
</trkpt>
<trkpt lat="49.08300993964076" lon="8.605792941525578">
<ele>239.20000000000005</ele>
<time>2023-05-17T11:22:59Z</time>
</trkpt>
<trkpt lat="49.08300993964076" lon="8.605722952634096">
<ele>239.20000000000005</ele>
<time>2023-05-17T11:23:00Z</time>
</trkpt>
<trkpt lat="49.08300993964076" lon="8.605649946257472">
<ele>239.39999999999998</ele>
<time>2023-05-17T11:23:01Z</time>
</trkpt>
<trkpt lat="49.08300197683275" lon="8.6055569909513">
<ele>239.39999999999998</ele>
<time>2023-05-17T11:23:02Z</time>
</trkpt>
<trkpt lat="49.082996947690845" lon="8.605476943776011">
<ele>239.39999999999998</ele>
<time>2023-05-17T11:23:03Z</time>
</trkpt>
<trkpt lat="49.08299493603408" lon="8.605389939621091">
<ele>239.39999999999998</ele>
<time>2023-05-17T11:23:04Z</time>
</trkpt>
<trkpt lat="49.082996947690845" lon="8.60530192963779">
<ele>239.39999999999998</ele>
<time>2023-05-17T11:23:05Z</time>
</trkpt>
<trkpt lat="49.08299292437732" lon="8.60521492548287">
<ele>239.39999999999998</ele>
<time>2023-05-17T11:23:06Z</time>
</trkpt>
<trkpt lat="49.08298697322607" lon="8.605136973783374">
<ele>239.39999999999998</ele>
<time>2023-05-17T11:23:07Z</time>
</trkpt>
<trkpt lat="49.08298194408417" lon="8.605057932436466">
<ele>239.39999999999998</ele>
<time>2023-05-17T11:23:08Z</time>
</trkpt>
<trkpt lat="49.082976998761296" lon="8.604981992393732">
<ele>239.39999999999998</ele>
<time>2023-05-17T11:23:09Z</time>
</trkpt>
<trkpt lat="49.08296995796263" lon="8.604909991845489">
<ele>239.39999999999998</ele>
<time>2023-05-17T11:23:10Z</time>
</trkpt>
<trkpt lat="49.08296291716397" lon="8.604841930791736">
<ele>239.39999999999998</ele>
<time>2023-05-17T11:23:11Z</time>
</trkpt>
<trkpt lat="49.082956966012716" lon="8.604772947728634">
<ele>239.39999999999998</ele>
<time>2023-05-17T11:23:12Z</time>
</trkpt>
<trkpt lat="49.08294799737632" lon="8.604707987979054">
<ele>239.39999999999998</ele>
<time>2023-05-17T11:23:13Z</time>
</trkpt>
<trkpt lat="49.08294196240604" lon="8.604646967723966">
<ele>239.60000000000002</ele>
<time>2023-05-17T11:23:14Z</time>
</trkpt>
<trkpt lat="49.082934921607375" lon="8.604587959125638">
<ele>239.60000000000002</ele>
<time>2023-05-17T11:23:15Z</time>
</trkpt>
<trkpt lat="49.082929976284504" lon="8.60452794469893">
<ele>239.60000000000002</ele>
<time>2023-05-17T11:23:16Z</time>
</trkpt>
<trkpt lat="49.0829249471426" lon="8.60446298494935">
<ele>239.60000000000002</ele>
<time>2023-05-17T11:23:17Z</time>
</trkpt>
<trkpt lat="49.08291497267783" lon="8.604394923895597">
<ele>239.60000000000002</ele>
<time>2023-05-17T11:23:18Z</time>
</trkpt>
<trkpt lat="49.082909943535924" lon="8.604321917518973">
<ele>239.60000000000002</ele>
<time>2023-05-17T11:23:19Z</time>
</trkpt>
<trkpt lat="49.08290692605078" lon="8.604251928627491">
<ele>239.60000000000002</ele>
<time>2023-05-17T11:23:20Z</time>
</trkpt>
<trkpt lat="49.08290298655629" lon="8.60418495722115">
<ele>239.60000000000002</ele>
<time>2023-05-17T11:23:21Z</time>
</trkpt>
<trkpt lat="49.08289795741439" lon="8.60411798581481">
<ele>239.60000000000002</ele>
<time>2023-05-17T11:23:22Z</time>
</trkpt>
<trkpt lat="49.082892928272486" lon="8.604057971388102">
<ele>239.60000000000002</ele>
<time>2023-05-17T11:23:23Z</time>
</trkpt>
<trkpt lat="49.082887982949615" lon="8.604004997760057">
<ele>239.60000000000002</ele>
<time>2023-05-17T11:23:24Z</time>
</trkpt>
<trkpt lat="49.082886977121234" lon="8.60394791699946">
<ele>239.60000000000002</ele>
<time>2023-05-17T11:23:25Z</time>
</trkpt>
<trkpt lat="49.08288295380771" lon="8.60388295724988">
<ele>239.60000000000002</ele>
<time>2023-05-17T11:23:26Z</time>
</trkpt>
<trkpt lat="49.08288496546447" lon="8.603807939216495">
<ele>239.60000000000002</ele>
<time>2023-05-17T11:23:27Z</time>
</trkpt>
<trkpt lat="49.08288496546447" lon="8.603727975860238">
<ele>239.60000000000002</ele>
<time>2023-05-17T11:23:28Z</time>
</trkpt>
<trkpt lat="49.082886977121234" lon="8.603651951998472">
<ele>239.60000000000002</ele>
<time>2023-05-17T11:23:29Z</time>
</trkpt>
<trkpt lat="49.08288295380771" lon="8.603591937571764">
<ele>239.79999999999995</ele>
<time>2023-05-17T11:23:30Z</time>
</trkpt>
<trkpt lat="49.0828749909997" lon="8.6035399697721">
<ele>239.79999999999995</ele>
<time>2023-05-17T11:23:31Z</time>
</trkpt>
<trkpt lat="49.082867950201035" lon="8.603484984487295">
<ele>239.79999999999995</ele>
<time>2023-05-17T11:23:32Z</time>
</trkpt>
<trkpt lat="49.08285998739302" lon="8.603411978110671">
<ele>239.79999999999995</ele>
<time>2023-05-17T11:23:33Z</time>
</trkpt>
<trkpt lat="49.08285998739302" lon="8.603341989219189">
<ele>239.79999999999995</ele>
<time>2023-05-17T11:23:34Z</time>
</trkpt>
<trkpt lat="49.08285495825112" lon="8.603274933993816">
<ele>239.79999999999995</ele>
<time>2023-05-17T11:23:35Z</time>
</trkpt>
<trkpt lat="49.082844983786345" lon="8.603209974244237">
<ele>239.79999999999995</ele>
<time>2023-05-17T11:23:36Z</time>
</trkpt>
<trkpt lat="49.08283299766481" lon="8.603134956210852">
<ele>239.79999999999995</ele>
<time>2023-05-17T11:23:37Z</time>
</trkpt>
<trkpt lat="49.082822939381" lon="8.603054992854595">
<ele>239.79999999999995</ele>
<time>2023-05-17T11:23:38Z</time>
</trkpt>
<trkpt lat="49.08282193355262" lon="8.60297997482121">
<ele>239.79999999999995</ele>
<time>2023-05-17T11:23:39Z</time>
</trkpt>
<trkpt lat="49.08281799405813" lon="8.602911997586489">
<ele>239.79999999999995</ele>
<time>2023-05-17T11:23:40Z</time>
</trkpt>
<trkpt lat="49.08280994743109" lon="8.602841924875975">
<ele>239.60000000000002</ele>
<time>2023-05-17T11:23:41Z</time>
</trkpt>
<trkpt lat="49.082802990451455" lon="8.60274494625628">
<ele>239.60000000000002</ele>
<time>2023-05-17T11:23:42Z</time>
</trkpt>
<trkpt lat="49.08279695548117" lon="8.60265995375812">
<ele>239.60000000000002</ele>
<time>2023-05-17T11:23:43Z</time>
</trkpt>
<trkpt lat="49.08278999850154" lon="8.602566998451948">
<ele>239.60000000000002</ele>
<time>2023-05-17T11:23:44Z</time>
</trkpt>
<trkpt lat="49.08277792856097" lon="8.602489968761802">
<ele>239.60000000000002</ele>
<time>2023-05-17T11:23:45Z</time>
</trkpt>
<trkpt lat="49.08276694826782" lon="8.602406987920403">
<ele>239.39999999999998</ele>
<time>2023-05-17T11:23:46Z</time>
</trkpt>
<trkpt lat="49.08275295048952" lon="8.602327946573496">
<ele>239.39999999999998</ele>
<time>2023-05-17T11:23:47Z</time>
</trkpt>
<trkpt lat="49.08274297602475" lon="8.602246977388859">
<ele>239.20000000000005</ele>
<time>2023-05-17T11:23:48Z</time>
</trkpt>
<trkpt lat="49.08272998407483" lon="8.6021619848907">
<ele>239.20000000000005</ele>
<time>2023-05-17T11:23:49Z</time>
</trkpt>
<trkpt lat="49.082717997953296" lon="8.60207699239254">
<ele>239</ele>
<time>2023-05-17T11:23:50Z</time>
</trkpt>
<trkpt lat="49.08270693384111" lon="8.60199292190373">
<ele>239</ele>
<time>2023-05-17T11:23:51Z</time>
</trkpt>
<trkpt lat="49.082697965204716" lon="8.601909941062331">
<ele>238.79999999999995</ele>
<time>2023-05-17T11:23:52Z</time>
</trkpt>
<trkpt lat="49.08268991857767" lon="8.60182293690741">
<ele>238.79999999999995</ele>
<time>2023-05-17T11:23:53Z</time>
</trkpt>
<trkpt lat="49.08268698491156" lon="8.601722940802574">
<ele>238.60000000000002</ele>
<time>2023-05-17T11:23:54Z</time>
</trkpt>
<trkpt lat="49.0826799441129" lon="8.601624956354499">
<ele>238.60000000000002</ele>
<time>2023-05-17T11:23:55Z</time>
</trkpt>
<trkpt lat="49.08266996964812" lon="8.60152194276452">
<ele>238.39999999999998</ele>
<time>2023-05-17T11:23:56Z</time>
</trkpt>
<trkpt lat="49.08265697769821" lon="8.601427981629968">
<ele>238.20000000000005</ele>
<time>2023-05-17T11:23:57Z</time>
</trkpt>
<trkpt lat="49.08264197409153" lon="8.601329997181892">
<ele>238</ele>
<time>2023-05-17T11:23:58Z</time>
</trkpt>
<trkpt lat="49.08262797631323" lon="8.601232934743166">
<ele>237.79999999999995</ele>
<time>2023-05-17T11:23:59Z</time>
</trkpt>
<trkpt lat="49.082609955221415" lon="8.601129921153188">
<ele>237.60000000000002</ele>
<time>2023-05-17T11:24:00Z</time>
</trkpt>
<trkpt lat="49.082592939957976" lon="8.601031936705112">
<ele>237.39999999999998</ele>
<time>2023-05-17T11:24:01Z</time>
</trkpt>
<trkpt lat="49.08257299102843" lon="8.600929928943515">
<ele>237.20000000000005</ele>
<time>2023-05-17T11:24:02Z</time>
</trkpt>
<trkpt lat="49.08255295827985" lon="8.600826999172568">
<ele>237</ele>
<time>2023-05-17T11:24:03Z</time>
</trkpt>
<trkpt lat="49.08253694884479" lon="8.600732954218984">
<ele>236.79999999999995</ele>
<time>2023-05-17T11:24:04Z</time>
</trkpt>
<trkpt lat="49.08251993358135" lon="8.600639998912811">
<ele>236.60000000000002</ele>
<time>2023-05-17T11:24:05Z</time>
</trkpt>
<trkpt lat="49.082502918317914" lon="8.600549977272749">
<ele>236.39999999999998</ele>
<time>2023-05-17T11:24:06Z</time>
</trkpt>
<trkpt lat="49.08248699270189" lon="8.6004679184407">
<ele>236.20000000000005</ele>
<time>2023-05-17T11:24:07Z</time>
</trkpt>
<trkpt lat="49.08246796578169" lon="8.600377980619669">
<ele>236</ele>
<time>2023-05-17T11:24:08Z</time>
</trkpt>
<trkpt lat="49.08245195634663" lon="8.600291982293129">
<ele>235.79999999999995</ele>
<time>2023-05-17T11:24:09Z</time>
</trkpt>
<trkpt lat="49.08243192359805" lon="8.600202966481447">
<ele>235.39999999999998</ele>
<time>2023-05-17T11:24:10Z</time>
</trkpt>
<trkpt lat="49.0824119746685" lon="8.600111939013004">
<ele>235.20000000000005</ele>
<time>2023-05-17T11:24:11Z</time>
</trkpt>
<trkpt lat="49.08239194191992" lon="8.600019989535213">
<ele>234.79999999999995</ele>
<time>2023-05-17T11:24:12Z</time>
</trkpt>
<trkpt lat="49.082372998818755" lon="8.599926950410008">
<ele>234.60000000000002</ele>
<time>2023-05-17T11:24:13Z</time>
</trkpt>
<trkpt lat="49.082351960241795" lon="8.599832989275455">
<ele>234.20000000000005</ele>
<time>2023-05-17T11:24:14Z</time>
</trkpt>
<trkpt lat="49.082329999655485" lon="8.599741961807013">
<ele>233.79999999999995</ele>
<time>2023-05-17T11:24:15Z</time>
</trkpt>
<trkpt lat="49.082307955250144" lon="8.599644983187318">
<ele>233.39999999999998</ele>
<time>2023-05-17T11:24:16Z</time>
</trkpt>
<trkpt lat="49.08227995969355" lon="8.599537946283817">
<ele>233</ele>
<time>2023-05-17T11:24:17Z</time>
</trkpt>
<trkpt lat="49.08225699327886" lon="8.599439961835742">
<ele>232.60000000000002</ele>
<time>2023-05-17T11:24:18Z</time>
</trkpt>
<trkpt lat="49.08223494887352" lon="8.599342983216047">
<ele>232.20000000000005</ele>
<time>2023-05-17T11:24:19Z</time>
</trkpt>
<trkpt lat="49.08220795914531" lon="8.599244998767972">
<ele>231.79999999999995</ele>
<time>2023-05-17T11:24:20Z</time>
</trkpt>
<trkpt lat="49.08218499273062" lon="8.599151959642768">
<ele>231.20000000000005</ele>
<time>2023-05-17T11:24:21Z</time>
</trkpt>
<trkpt lat="49.0821669716388" lon="8.599066967144608">
<ele>230.79999999999995</ele>
<time>2023-05-17T11:24:22Z</time>
</trkpt>
<trkpt lat="49.082139981910586" lon="8.598966971039772">
<ele>230.20000000000005</ele>
<time>2023-05-17T11:24:23Z</time>
</trkpt>
<trkpt lat="49.0820979885757" lon="8.59885792247951">
<ele>229.60000000000002</ele>
<time>2023-05-17T11:24:24Z</time>
</trkpt>
<trkpt lat="49.08205792307854" lon="8.598751975223422">
<ele>229</ele>
<time>2023-05-17T11:24:25Z</time>
</trkpt>
<trkpt lat="49.082029927521944" lon="8.598646949976683">
<ele>228.39999999999998</ele>
<time>2023-05-17T11:24:26Z</time>
</trkpt>
<trkpt lat="49.08199799247086" lon="8.598534967750311">
<ele>227.79999999999995</ele>
<time>2023-05-17T11:24:27Z</time>
</trkpt>
<trkpt lat="49.081966979429126" lon="8.59842298552394">
<ele>227.20000000000005</ele>
<time>2023-05-17T11:24:28Z</time>
</trkpt>
<trkpt lat="49.08193294890225" lon="8.598307985812426">
<ele>226.60000000000002</ele>
<time>2023-05-17T11:24:29Z</time>
</trkpt>
<trkpt lat="49.08189699053764" lon="8.598194997757673">
<ele>226.20000000000005</ele>
<time>2023-05-17T11:24:30Z</time>
</trkpt>
<trkpt lat="49.081859942525625" lon="8.598077986389399">
<ele>225.60000000000002</ele>
<time>2023-05-17T11:24:31Z</time>
</trkpt>
<trkpt lat="49.08182691782713" lon="8.597961980849504">
<ele>225</ele>
<time>2023-05-17T11:24:32Z</time>
</trkpt>
<trkpt lat="49.081791965290904" lon="8.59784496948123">
<ele>224.60000000000002</ele>
<time>2023-05-17T11:24:33Z</time>
</trkpt>
<trkpt lat="49.08175793476403" lon="8.597721923142672">
<ele>224</ele>
<time>2023-05-17T11:24:34Z</time>
</trkpt>
<trkpt lat="49.08172197639942" lon="8.597596948966384">
<ele>223.60000000000002</ele>
<time>2023-05-17T11:24:35Z</time>
</trkpt>
<trkpt lat="49.08167797140777" lon="8.597476920112967">
<ele>223</ele>
<time>2023-05-17T11:24:36Z</time>
</trkpt>
<trkpt lat="49.08163798972964" lon="8.597361920401454">
<ele>222.39999999999998</ele>
<time>2023-05-17T11:24:37Z</time>
</trkpt>
<trkpt lat="49.08159792423248" lon="8.597249938175082">
<ele>221.79999999999995</ele>
<time>2023-05-17T11:24:38Z</time>
</trkpt>
<trkpt lat="49.081557942554355" lon="8.597146924585104">
<ele>221.20000000000005</ele>
<time>2023-05-17T11:24:39Z</time>
</trkpt>
<trkpt lat="49.08152299001813" lon="8.59705195762217">
<ele>220.60000000000002</ele>
<time>2023-05-17T11:24:40Z</time>
</trkpt>
<trkpt lat="49.08148996531963" lon="8.596952967345715">
<ele>219.79999999999995</ele>
<time>2023-05-17T11:24:41Z</time>
</trkpt>
<trkpt lat="49.08145694062114" lon="8.59685992822051">
<ele>219.20000000000005</ele>
<time>2023-05-17T11:24:42Z</time>
</trkpt>
<trkpt lat="49.08142299391329" lon="8.596766972914338">
<ele>218.39999999999998</ele>
<time>2023-05-17T11:24:43Z</time>
</trkpt>
<trkpt lat="49.0813899692148" lon="8.596676951274276">
<ele>217.79999999999995</ele>
<time>2023-05-17T11:24:44Z</time>
</trkpt>
<trkpt lat="49.08135493285954" lon="8.596587935462594">
<ele>217</ele>
<time>2023-05-17T11:24:45Z</time>
</trkpt>
<trkpt lat="49.08131796866655" lon="8.596501937136054">
<ele>216.39999999999998</ele>
<time>2023-05-17T11:24:46Z</time>
</trkpt>
<trkpt lat="49.081279998645186" lon="8.596417950466275">
<ele>215.79999999999995</ele>
<time>2023-05-17T11:24:47Z</time>
</trkpt>
<trkpt lat="49.08124496228993" lon="8.59634192660451">
<ele>215</ele>
<time>2023-05-17T11:24:48Z</time>
</trkpt>
<trkpt lat="49.08121696673334" lon="8.596259951591492">
<ele>214.39999999999998</ele>
<time>2023-05-17T11:24:49Z</time>
</trkpt>
<trkpt lat="49.08118796534836" lon="8.596176970750093">
<ele>213.79999999999995</ele>
<time>2023-05-17T11:24:50Z</time>
</trkpt>
<trkpt lat="49.0811669267714" lon="8.596089966595173">
<ele>213.20000000000005</ele>
<time>2023-05-17T11:24:51Z</time>
</trkpt>
<trkpt lat="49.08114295452833" lon="8.59599994495511">
<ele>212.60000000000002</ele>
<time>2023-05-17T11:24:52Z</time>
</trkpt>
<trkpt lat="49.0811219997704" lon="8.59591294080019">
<ele>211.79999999999995</ele>
<time>2023-05-17T11:24:53Z</time>
</trkpt>
<trkpt lat="49.08109995536506" lon="8.595824930816889">
<ele>211.20000000000005</ele>
<time>2023-05-17T11:24:54Z</time>
</trkpt>
<trkpt lat="49.08107296563685" lon="8.595742955803871">
<ele>210.39999999999998</ele>
<time>2023-05-17T11:24:55Z</time>
</trkpt>
<trkpt lat="49.08102795481682" lon="8.595671961084008">
<ele>209.60000000000002</ele>
<time>2023-05-17T11:24:56Z</time>
</trkpt>
<trkpt lat="49.08097296953201" lon="8.595599960535765">
<ele>208.79999999999995</ele>
<time>2023-05-17T11:24:57Z</time>
</trkpt>
<trkpt lat="49.080914966762066" lon="8.595522930845618">
<ele>208.20000000000005</ele>
<time>2023-05-17T11:24:58Z</time>
</trkpt>
<trkpt lat="49.080871967598796" lon="8.595442967489362">
<ele>207.60000000000002</ele>
<time>2023-05-17T11:24:59Z</time>
</trkpt>
<trkpt lat="49.08082997426391" lon="8.595367949455976">
<ele>207.20000000000005</ele>
<time>2023-05-17T11:25:00Z</time>
</trkpt>
<trkpt lat="49.08079192042351" lon="8.595294943079352">
<ele>206.79999999999995</ele>
<time>2023-05-17T11:25:01Z</time>
</trkpt>
<trkpt lat="49.08075696788728" lon="8.595219925045967">
<ele>206.39999999999998</ele>
<time>2023-05-17T11:25:02Z</time>
</trkpt>
<trkpt lat="49.080721931532025" lon="8.595132920891047">
<ele>206</ele>
<time>2023-05-17T11:25:03Z</time>
</trkpt>
<trkpt lat="49.0806869789958" lon="8.595047928392887">
<ele>205.60000000000002</ele>
<time>2023-05-17T11:25:04Z</time>
</trkpt>
<trkpt lat="49.080652948468924" lon="8.594961930066347">
<ele>205.20000000000005</ele>
<time>2023-05-17T11:25:05Z</time>
</trkpt>
<trkpt lat="49.08062193542719" lon="8.594872998073697">
<ele>204.79999999999995</ele>
<time>2023-05-17T11:25:06Z</time>
</trkpt>
<trkpt lat="49.080586982890964" lon="8.594782976433635">
<ele>204.39999999999998</ele>
<time>2023-05-17T11:25:07Z</time>
</trkpt>
<trkpt lat="49.080549934878945" lon="8.59468792565167">
<ele>203.79999999999995</ele>
<time>2023-05-17T11:25:08Z</time>
</trkpt>
<trkpt lat="49.08051498234272" lon="8.594596982002258">
<ele>203.39999999999998</ele>
<time>2023-05-17T11:25:09Z</time>
</trkpt>
<trkpt lat="49.0804779343307" lon="8.594506960362196">
<ele>202.79999999999995</ele>
<time>2023-05-17T11:25:10Z</time>
</trkpt>
<trkpt lat="49.080441975966096" lon="8.594419956207275">
<ele>202.39999999999998</ele>
<time>2023-05-17T11:25:11Z</time>
</trkpt>
<trkpt lat="49.08040291629732" lon="8.594329934567213">
<ele>202</ele>
<time>2023-05-17T11:25:12Z</time>
</trkpt>
<trkpt lat="49.08036796376109" lon="8.59423496760428">
<ele>201.39999999999998</ele>
<time>2023-05-17T11:25:13Z</time>
</trkpt>
<trkpt lat="49.080332927405834" lon="8.594141928479075">
<ele>201</ele>
<time>2023-05-17T11:25:14Z</time>
</trkpt>
<trkpt lat="49.08029998652637" lon="8.594046961516142">
<ele>200.39999999999998</ele>
<time>2023-05-17T11:25:15Z</time>
</trkpt>
<trkpt lat="49.08026293851435" lon="8.593947971239686">
<ele>200</ele>
<time>2023-05-17T11:25:16Z</time>
</trkpt>
<trkpt lat="49.080222956836224" lon="8.593846969306469">
<ele>199.39999999999998</ele>
<time>2023-05-17T11:25:17Z</time>
</trkpt>
<trkpt lat="49.080181969329715" lon="8.59374294988811">
<ele>198.79999999999995</ele>
<time>2023-05-17T11:25:18Z</time>
</trkpt>
<trkpt lat="49.080137964338064" lon="8.59363691881299">
<ele>198.20000000000005</ele>
<time>2023-05-17T11:25:19Z</time>
</trkpt>
<trkpt lat="49.080096976831555" lon="8.59352795407176">
<ele>197.60000000000002</ele>
<time>2023-05-17T11:25:20Z</time>
</trkpt>
<trkpt lat="49.08005699515343" lon="8.59342292882502">
<ele>197.20000000000005</ele>
<time>2023-05-17T11:25:21Z</time>
</trkpt>
<trkpt lat="49.08001793548465" lon="8.593321926891804">
<ele>196.60000000000002</ele>
<time>2023-05-17T11:25:22Z</time>
</trkpt>
<trkpt lat="49.07998197712004" lon="8.593216985464096">
<ele>196</ele>
<time>2023-05-17T11:25:23Z</time>
</trkpt>
<trkpt lat="49.079946940764785" lon="8.59311698935926">
<ele>195.39999999999998</ele>
<time>2023-05-17T11:25:24Z</time>
</trkpt>
<trkpt lat="49.07990796491504" lon="8.593016993254423">
<ele>195</ele>
<time>2023-05-17T11:25:25Z</time>
</trkpt>
<trkpt lat="49.0798719227314" lon="8.592919930815697">
<ele>194.39999999999998</ele>
<time>2023-05-17T11:25:26Z</time>
</trkpt>
<trkpt lat="49.079836970195174" lon="8.592826975509524">
<ele>193.79999999999995</ele>
<time>2023-05-17T11:25:27Z</time>
</trkpt>
<trkpt lat="49.07980193383992" lon="8.5927349422127">
<ele>193</ele>
<time>2023-05-17T11:25:28Z</time>
</trkpt>
<trkpt lat="49.07976798713207" lon="8.592641986906528">
<ele>192.39999999999998</ele>
<time>2023-05-17T11:25:29Z</time>
</trkpt>
<trkpt lat="49.07973697409034" lon="8.592549953609705">
<ele>191.79999999999995</ele>
<time>2023-05-17T11:25:30Z</time>
</trkpt>
<trkpt lat="49.07970495522022" lon="8.592456998303533">
<ele>191.39999999999998</ele>
<time>2023-05-17T11:25:31Z</time>
</trkpt>
<trkpt lat="49.07967193052173" lon="8.592364965006709">
<ele>190.79999999999995</ele>
<time>2023-05-17T11:25:32Z</time>
</trkpt>
<trkpt lat="49.07963999547064" lon="8.592272931709886">
<ele>190.20000000000005</ele>
<time>2023-05-17T11:25:33Z</time>
</trkpt>
<trkpt lat="49.079604959115386" lon="8.592184921726584">
<ele>189.60000000000002</ele>
<time>2023-05-17T11:25:34Z</time>
</trkpt>
<trkpt lat="49.07957193441689" lon="8.592099929228425">
<ele>189</ele>
<time>2023-05-17T11:25:35Z</time>
</trkpt>
<trkpt lat="49.079537987709045" lon="8.592009991407394">
<ele>188.60000000000002</ele>
<time>2023-05-17T11:25:36Z</time>
</trkpt>
<trkpt lat="49.07950697466731" lon="8.591917958110571">
<ele>188</ele>
<time>2023-05-17T11:25:37Z</time>
</trkpt>
<trkpt lat="49.079474955797195" lon="8.59182994812727">
<ele>187.60000000000002</ele>
<time>2023-05-17T11:25:38Z</time>
</trkpt>
<trkpt lat="49.07944494858384" lon="8.59174294397235">
<ele>187</ele>
<time>2023-05-17T11:25:39Z</time>
</trkpt>
<trkpt lat="49.07941494137049" lon="8.591662980616093">
<ele>186.39999999999998</ele>
<time>2023-05-17T11:25:40Z</time>
</trkpt>
<trkpt lat="49.079387951642275" lon="8.59159299172461">
<ele>186</ele>
<time>2023-05-17T11:25:41Z</time>
</trkpt>
<trkpt lat="49.079366996884346" lon="8.591532977297902">
<ele>185.60000000000002</ele>
<time>2023-05-17T11:25:42Z</time>
</trkpt>
<trkpt lat="49.079346964135766" lon="8.591471957042813">
<ele>185.20000000000005</ele>
<time>2023-05-17T11:25:43Z</time>
</trkpt>
<trkpt lat="49.079324919730425" lon="8.591409930959344">
<ele>184.79999999999995</ele>
<time>2023-05-17T11:25:44Z</time>
</trkpt>
<trkpt lat="49.07930698245764" lon="8.591346982866526">
<ele>184.39999999999998</ele>
<time>2023-05-17T11:25:45Z</time>
</trkpt>
<trkpt lat="49.0792849380523" lon="8.591281939297915">
<ele>184</ele>
<time>2023-05-17T11:25:46Z</time>
</trkpt>
<trkpt lat="49.07926197163761" lon="8.591216979548335">
<ele>183.79999999999995</ele>
<time>2023-05-17T11:25:47Z</time>
</trkpt>
<trkpt lat="49.07923297025263" lon="8.591147996485233">
<ele>183.39999999999998</ele>
<time>2023-05-17T11:25:48Z</time>
</trkpt>
<trkpt lat="49.0792019572109" lon="8.591076917946339">
<ele>183</ele>
<time>2023-05-17T11:25:49Z</time>
</trkpt>
<trkpt lat="49.07916993834078" lon="8.591002989560366">
<ele>182.60000000000002</ele>
<time>2023-05-17T11:25:50Z</time>
</trkpt>
<trkpt lat="49.07914194278419" lon="8.5909269656986">
<ele>182.20000000000005</ele>
<time>2023-05-17T11:25:51Z</time>
</trkpt>
<trkpt lat="49.07911696471274" lon="8.590847924351692">
<ele>181.79999999999995</ele>
<time>2023-05-17T11:25:52Z</time>
</trkpt>
<trkpt lat="49.079087963327765" lon="8.590767960995436">
<ele>181.60000000000002</ele>
<time>2023-05-17T11:25:53Z</time>
</trkpt>
<trkpt lat="49.07905695028603" lon="8.59068799763918">
<ele>181.20000000000005</ele>
<time>2023-05-17T11:25:54Z</time>
</trkpt>
<trkpt lat="49.079021997749805" lon="8.590599987655878">
<ele>181</ele>
<time>2023-05-17T11:25:55Z</time>
</trkpt>
<trkpt lat="49.07899199053645" lon="8.590511977672577">
<ele>180.60000000000002</ele>
<time>2023-05-17T11:25:56Z</time>
</trkpt>
<trkpt lat="49.078959971666336" lon="8.590422961860895">
<ele>180.39999999999998</ele>
<time>2023-05-17T11:25:57Z</time>
</trkpt>
<trkpt lat="49.07892996445298" lon="8.590331934392452">
<ele>180.20000000000005</ele>
<time>2023-05-17T11:25:58Z</time>
</trkpt>
<trkpt lat="49.07890196889639" lon="8.5902379732579">
<ele>179.79999999999995</ele>
<time>2023-05-17T11:25:59Z</time>
</trkpt>
<trkpt lat="49.07886793836951" lon="8.590146945789456">
<ele>179.60000000000002</ele>
<time>2023-05-17T11:26:00Z</time>
</trkpt>
<trkpt lat="49.07883692532778" lon="8.590056924149394">
<ele>179.20000000000005</ele>
<time>2023-05-17T11:26:01Z</time>
</trkpt>
<trkpt lat="49.078804990276694" lon="8.589964974671602">
<ele>179</ele>
<time>2023-05-17T11:26:02Z</time>
</trkpt>
<trkpt lat="49.07877498306334" lon="8.589869923889637">
<ele>178.60000000000002</ele>
<time>2023-05-17T11:26:03Z</time>
</trkpt>
<trkpt lat="49.07874698750675" lon="8.589782919734716">
<ele>178.39999999999998</ele>
<time>2023-05-17T11:26:04Z</time>
</trkpt>
<trkpt lat="49.07871698029339" lon="8.58970295637846">
<ele>178.20000000000005</ele>
<time>2023-05-17T11:26:05Z</time>
</trkpt>
<trkpt lat="49.07869292423129" lon="8.589641936123371">
<ele>178</ele>
<time>2023-05-17T11:26:06Z</time>
</trkpt>
<trkpt lat="49.07867196947336" lon="8.589586950838566">
<ele>177.60000000000002</ele>
<time>2023-05-17T11:26:07Z</time>
</trkpt>
<trkpt lat="49.07865193672478" lon="8.589534983038902">
<ele>177.39999999999998</ele>
<time>2023-05-17T11:26:08Z</time>
</trkpt>
<trkpt lat="49.078634921461344" lon="8.589482931420207">
<ele>177.39999999999998</ele>
<time>2023-05-17T11:26:09Z</time>
</trkpt>
<trkpt lat="49.07861799001694" lon="8.589436998590827">
<ele>177.20000000000005</ele>
<time>2023-05-17T11:26:10Z</time>
</trkpt>
<trkpt lat="49.07860198058188" lon="8.589391987770796">
<ele>177</ele>
<time>2023-05-17T11:26:11Z</time>
</trkpt>
<trkpt lat="49.0785869769752" lon="8.5893399361521">
<ele>176.79999999999995</ele>
<time>2023-05-17T11:26:12Z</time>
</trkpt>
<trkpt lat="49.07856694422662" lon="8.589281933382154">
<ele>176.60000000000002</ele>
<time>2023-05-17T11:26:13Z</time>
</trkpt>
<trkpt lat="49.078546995297074" lon="8.589222924783826">
<ele>176.60000000000002</ele>
<time>2023-05-17T11:26:14Z</time>
</trkpt>
<trkpt lat="49.07852293923497" lon="8.589154947549105">
<ele>176.39999999999998</ele>
<time>2023-05-17T11:26:15Z</time>
</trkpt>
<trkpt lat="49.07849997282028" lon="8.589086970314384">
<ele>176.20000000000005</ele>
<time>2023-05-17T11:26:16Z</time>
</trkpt>
<trkpt lat="49.07847792841494" lon="8.589019998908043">
<ele>176.20000000000005</ele>
<time>2023-05-17T11:26:17Z</time>
</trkpt>
<trkpt lat="49.07845295034349" lon="8.588956966996193">
<ele>176</ele>
<time>2023-05-17T11:26:18Z</time>
</trkpt>
<trkpt lat="49.07843199558556" lon="8.588894940912724">
<ele>175.79999999999995</ele>
<time>2023-05-17T11:26:19Z</time>
</trkpt>
<trkpt lat="49.07841498032212" lon="8.588836938142776">
<ele>175.79999999999995</ele>
<time>2023-05-17T11:26:20Z</time>
</trkpt>
<trkpt lat="49.078399976715446" lon="8.58877994120121">
<ele>175.60000000000002</ele>
<time>2023-05-17T11:26:21Z</time>
</trkpt>
<trkpt lat="49.07838799059391" lon="8.588722944259644">
<ele>175.39999999999998</ele>
<time>2023-05-17T11:26:22Z</time>
</trkpt>
<trkpt lat="49.07837298698723" lon="8.5886699706316">
<ele>175.20000000000005</ele>
<time>2023-05-17T11:26:23Z</time>
</trkpt>
<trkpt lat="49.078356977552176" lon="8.588617919012904">
<ele>175.20000000000005</ele>
<time>2023-05-17T11:26:24Z</time>
</trkpt>
<trkpt lat="49.078336944803596" lon="8.58856494538486">
<ele>175</ele>
<time>2023-05-17T11:26:25Z</time>
</trkpt>
<trkpt lat="49.078312972560525" lon="8.588511971756816">
<ele>174.79999999999995</ele>
<time>2023-05-17T11:26:26Z</time>
</trkpt>
<trkpt lat="49.0782899223268" lon="8.588447934016585">
<ele>174.79999999999995</ele>
<time>2023-05-17T11:26:27Z</time>
</trkpt>
<trkpt lat="49.07826192677021" lon="8.588384985923767">
<ele>174.60000000000002</ele>
<time>2023-05-17T11:26:28Z</time>
</trkpt>
<trkpt lat="49.07823292538524" lon="8.588317930698395">
<ele>174.60000000000002</ele>
<time>2023-05-17T11:26:29Z</time>
</trkpt>
<trkpt lat="49.078204929828644" lon="8.588247941806912">
<ele>174.39999999999998</ele>
<time>2023-05-17T11:26:30Z</time>
</trkpt>
<trkpt lat="49.07817198894918" lon="8.58817694708705">
<ele>174.20000000000005</ele>
<time>2023-05-17T11:26:31Z</time>
</trkpt>
<trkpt lat="49.078141981735826" lon="8.588099917396903">
<ele>174</ele>
<time>2023-05-17T11:26:32Z</time>
</trkpt>
<trkpt lat="49.07810694538057" lon="8.588022971525788">
<ele>173.79999999999995</ele>
<time>2023-05-17T11:26:33Z</time>
</trkpt>
<trkpt lat="49.078072998672724" lon="8.587947953492403">
<ele>173.60000000000002</ele>
<time>2023-05-17T11:26:34Z</time>
</trkpt>
<trkpt lat="49.07803796231747" lon="8.587869917973876">
<ele>173.39999999999998</ele>
<time>2023-05-17T11:26:35Z</time>
</trkpt>
<trkpt lat="49.07800292596221" lon="8.587794983759522">
<ele>173.20000000000005</ele>
<time>2023-05-17T11:26:36Z</time>
</trkpt>
<trkpt lat="49.077967973425984" lon="8.587722983211279">
<ele>173</ele>
<time>2023-05-17T11:26:37Z</time>
</trkpt>
<trkpt lat="49.07793193124235" lon="8.587647965177894">
<ele>172.79999999999995</ele>
<time>2023-05-17T11:26:38Z</time>
</trkpt>
<trkpt lat="49.07789194956422" lon="8.587571941316128">
<ele>172.60000000000002</ele>
<time>2023-05-17T11:26:39Z</time>
</trkpt>
<trkpt lat="49.07785196788609" lon="8.587492983788252">
<ele>172.20000000000005</ele>
<time>2023-05-17T11:26:40Z</time>
</trkpt>
<trkpt lat="49.07780695706606" lon="8.587416959926486">
<ele>171.79999999999995</ele>
<time>2023-05-17T11:26:41Z</time>
</trkpt>
<trkpt lat="49.07776194624603" lon="8.587334984913468">
<ele>171.60000000000002</ele>
<time>2023-05-17T11:26:42Z</time>
</trkpt>
<trkpt lat="49.077712995931506" lon="8.587251920253038">
<ele>171.20000000000005</ele>
<time>2023-05-17T11:26:43Z</time>
</trkpt>
<trkpt lat="49.07766295596957" lon="8.587172962725163">
<ele>170.79999999999995</ele>
<time>2023-05-17T11:26:44Z</time>
</trkpt>
<trkpt lat="49.07761299982667" lon="8.587097944691777">
<ele>170.39999999999998</ele>
<time>2023-05-17T11:26:45Z</time>
</trkpt>
<trkpt lat="49.077561954036355" lon="8.587022926658392">
<ele>170</ele>
<time>2023-05-17T11:26:46Z</time>
</trkpt>
<trkpt lat="49.07750998623669" lon="8.586949920281768">
<ele>169.60000000000002</ele>
<time>2023-05-17T11:26:47Z</time>
</trkpt>
<trkpt lat="49.07746195793152" lon="8.586877919733524">
<ele>169.20000000000005</ele>
<time>2023-05-17T11:26:48Z</time>
</trkpt>
<trkpt lat="49.077407978475094" lon="8.586807930842042">
<ele>168.60000000000002</ele>
<time>2023-05-17T11:26:49Z</time>
</trkpt>
<trkpt lat="49.07735492102802" lon="8.586741965264082">
<ele>168</ele>
<time>2023-05-17T11:26:50Z</time>
</trkpt>
<trkpt lat="49.077301947399974" lon="8.586679939180613">
<ele>167.60000000000002</ele>
<time>2023-05-17T11:26:51Z</time>
</trkpt>
<trkpt lat="49.07724696211517" lon="8.586622942239046">
<ele>167</ele>
<time>2023-05-17T11:26:52Z</time>
</trkpt>
<trkpt lat="49.0771899651736" lon="8.586576925590634">
<ele>166.60000000000002</ele>
<time>2023-05-17T11:26:53Z</time>
</trkpt>
<trkpt lat="49.07712793909013" lon="8.586541973054409">
<ele>166</ele>
<time>2023-05-17T11:26:54Z</time>
</trkpt>
<trkpt lat="49.077069936320186" lon="8.586514983326197">
<ele>165.60000000000002</ele>
<time>2023-05-17T11:26:55Z</time>
</trkpt>
<trkpt lat="49.07701796852052" lon="8.586494950577617">
<ele>165</ele>
<time>2023-05-17T11:26:56Z</time>
</trkpt>
<trkpt lat="49.07697698101401" lon="8.586466955021024">
<ele>164.60000000000002</ele>
<time>2023-05-17T11:26:57Z</time>
</trkpt>
<trkpt lat="49.076941944658756" lon="8.586429990828037">
<ele>164</ele>
<time>2023-05-17T11:26:58Z</time>
</trkpt>
<trkpt lat="49.07691294327378" lon="8.586386991664767">
<ele>163.60000000000002</ele>
<time>2023-05-17T11:26:59Z</time>
</trkpt>
<trkpt lat="49.07690296880901" lon="8.586342986673117">
<ele>163.20000000000005</ele>
<time>2023-05-17T11:27:00Z</time>
</trkpt>
<trkpt lat="49.07690196298063" lon="8.586312979459763">
<ele>162.79999999999995</ele>
<time>2023-05-17T11:27:01Z</time>
</trkpt>
<trkpt lat="49.07690498046577" lon="8.586291940882802">
<ele>162.39999999999998</ele>
<time>2023-05-17T11:27:02Z</time>
</trkpt>
<trkpt lat="49.07690699212253" lon="8.586272997781634">
<ele>162.20000000000005</ele>
<time>2023-05-17T11:27:03Z</time>
</trkpt>
<trkpt lat="49.0769119374454" lon="8.586251959204674">
<ele>162</ele>
<time>2023-05-17T11:27:04Z</time>
</trkpt>
<trkpt lat="49.07691294327378" lon="8.586224969476461">
<ele>161.60000000000002</ele>
<time>2023-05-17T11:27:05Z</time>
</trkpt>
<trkpt lat="49.076916966587305" lon="8.586204936727881">
<ele>161.39999999999998</ele>
<time>2023-05-17T11:27:06Z</time>
</trkpt>
<trkpt lat="49.07692199572921" lon="8.58617995865643">
<ele>161.20000000000005</ele>
<time>2023-05-17T11:27:07Z</time>
</trkpt>
<trkpt lat="49.07692694105208" lon="8.586149951443076">
<ele>161.20000000000005</ele>
<time>2023-05-17T11:27:08Z</time>
</trkpt>
<trkpt lat="49.07693197019398" lon="8.58611793257296">
<ele>161</ele>
<time>2023-05-17T11:27:09Z</time>
</trkpt>
<trkpt lat="49.076937921345234" lon="8.586082980036736">
<ele>160.79999999999995</ele>
<time>2023-05-17T11:27:10Z</time>
</trkpt>
<trkpt lat="49.076941944658756" lon="8.586046937853098">
<ele>160.79999999999995</ele>
<time>2023-05-17T11:27:11Z</time>
</trkpt>
<trkpt lat="49.07694697380066" lon="8.58600695617497">
<ele>160.79999999999995</ele>
<time>2023-05-17T11:27:12Z</time>
</trkpt>
<trkpt lat="49.07695493660867" lon="8.585969991981983">
<ele>160.60000000000002</ele>
<time>2023-05-17T11:27:13Z</time>
</trkpt>
<trkpt lat="49.076959965750575" lon="8.585936967283487">
<ele>160.60000000000002</ele>
<time>2023-05-17T11:27:14Z</time>
</trkpt>
<trkpt lat="49.07696298323572" lon="8.585904948413372">
<ele>160.60000000000002</ele>
<time>2023-05-17T11:27:15Z</time>
</trkpt>
<trkpt lat="49.07696499489248" lon="8.585876952856779">
<ele>160.60000000000002</ele>
<time>2023-05-17T11:27:16Z</time>
</trkpt>
<trkpt lat="49.07697295770049" lon="8.585851974785328">
<ele>160.60000000000002</ele>
<time>2023-05-17T11:27:17Z</time>
</trkpt>
<trkpt lat="49.076977986842394" lon="8.585822973400354">
<ele>160.60000000000002</ele>
<time>2023-05-17T11:27:18Z</time>
</trkpt>
<trkpt lat="49.07698997296393" lon="8.585782991722226">
<ele>160.60000000000002</ele>
<time>2023-05-17T11:27:19Z</time>
</trkpt>
<trkpt lat="49.07699793577194" lon="8.585734963417053">
<ele>160.60000000000002</ele>
<time>2023-05-17T11:27:20Z</time>
</trkpt>
<trkpt lat="49.07700698822737" lon="8.585692970082164">
<ele>160.60000000000002</ele>
<time>2023-05-17T11:27:21Z</time>
</trkpt>
<trkpt lat="49.07701696269214" lon="8.58564293012023">
<ele>160.60000000000002</ele>
<time>2023-05-17T11:27:22Z</time>
</trkpt>
<trkpt lat="49.07704194076359" lon="8.585572941228747">
<ele>160.60000000000002</ele>
<time>2023-05-17T11:27:23Z</time>
</trkpt>
<trkpt lat="49.07705493271351" lon="8.585522985085845">
<ele>160.79999999999995</ele>
<time>2023-05-17T11:27:24Z</time>
</trkpt>
<trkpt lat="49.07707295380533" lon="8.585459953173995">
<ele>160.79999999999995</ele>
<time>2023-05-17T11:27:25Z</time>
</trkpt>
<trkpt lat="49.07708493992686" lon="8.585389964282513">
<ele>161</ele>
<time>2023-05-17T11:27:26Z</time>
</trkpt>
<trkpt lat="49.0770969260484" lon="8.585329949855804">
<ele>161</ele>
<time>2023-05-17T11:27:27Z</time>
</trkpt>
<trkpt lat="49.07711796462536" lon="8.585272952914238">
<ele>161.20000000000005</ele>
<time>2023-05-17T11:27:28Z</time>
</trkpt>
<trkpt lat="49.07713699154556" lon="8.585221990942955">
<ele>161.20000000000005</ele>
<time>2023-05-17T11:27:29Z</time>
</trkpt>
<trkpt lat="49.077152917161584" lon="8.585176980122924">
<ele>161.20000000000005</ele>
<time>2023-05-17T11:27:30Z</time>
</trkpt>
<trkpt lat="49.07716498710215" lon="8.585129957646132">
<ele>161.39999999999998</ele>
<time>2023-05-17T11:27:31Z</time>
</trkpt>
<trkpt lat="49.077174961566925" lon="8.5850849468261">
<ele>161.39999999999998</ele>
<time>2023-05-17T11:27:32Z</time>
</trkpt>
<trkpt lat="49.07720295712352" lon="8.585036918520927">
<ele>161.60000000000002</ele>
<time>2023-05-17T11:27:33Z</time>
</trkpt>
<trkpt lat="49.07722198404372" lon="8.584991991519928">
<ele>161.60000000000002</ele>
<time>2023-05-17T11:27:34Z</time>
</trkpt>
<trkpt lat="49.07722692936659" lon="8.584942957386374">
<ele>161.79999999999995</ele>
<time>2023-05-17T11:27:35Z</time>
</trkpt>
<trkpt lat="49.077239921316504" lon="8.584901969879866">
<ele>161.79999999999995</ele>
<time>2023-05-17T11:27:36Z</time>
</trkpt>
<trkpt lat="49.07725199125707" lon="8.584857964888215">
<ele>162</ele>
<time>2023-05-17T11:27:37Z</time>
</trkpt>
<trkpt lat="49.07726498320699" lon="8.584814965724945">
<ele>162</ele>
<time>2023-05-17T11:27:38Z</time>
</trkpt>
<trkpt lat="49.077272946015" lon="8.584771966561675">
<ele>162</ele>
<time>2023-05-17T11:27:39Z</time>
</trkpt>
<trkpt lat="49.077281998470426" lon="8.584729973226786">
<ele>162.20000000000005</ele>
<time>2023-05-17T11:27:40Z</time>
</trkpt>
<trkpt lat="49.0772919729352" lon="8.584682950749993">
<ele>162.20000000000005</ele>
<time>2023-05-17T11:27:41Z</time>
</trkpt>
<trkpt lat="49.07730697654188" lon="8.58462997712195">
<ele>162.20000000000005</ele>
<time>2023-05-17T11:27:42Z</time>
</trkpt>
<trkpt lat="49.077321980148554" lon="8.584572980180383">
<ele>162.20000000000005</ele>
<time>2023-05-17T11:27:43Z</time>
</trkpt>
<trkpt lat="49.07733798958361" lon="8.584517994895577">
<ele>162.20000000000005</ele>
<time>2023-05-17T11:27:44Z</time>
</trkpt>
<trkpt lat="49.07735793851316" lon="8.58446292579174">
<ele>162</ele>
<time>2023-05-17T11:27:45Z</time>
</trkpt>
<trkpt lat="49.0773799829185" lon="8.584404923021793">
<ele>162</ele>
<time>2023-05-17T11:27:46Z</time>
</trkpt>
<trkpt lat="49.07740496098995" lon="8.584342980757356">
<ele>161.79999999999995</ele>
<time>2023-05-17T11:27:47Z</time>
</trkpt>
<trkpt lat="49.077432956546545" lon="8.584272991865873">
<ele>161.79999999999995</ele>
<time>2023-05-17T11:27:48Z</time>
</trkpt>
<trkpt lat="49.07745994627476" lon="8.58419998548925">
<ele>161.79999999999995</ele>
<time>2023-05-17T11:27:49Z</time>
</trkpt>
<trkpt lat="49.07748794183135" lon="8.5841179266572">
<ele>161.60000000000002</ele>
<time>2023-05-17T11:27:50Z</time>
</trkpt>
<trkpt lat="49.07751199789345" lon="8.584036957472563">
<ele>161.60000000000002</ele>
<time>2023-05-17T11:27:51Z</time>
</trkpt>
<trkpt lat="49.077531946823" lon="8.583951964974403">
<ele>161.39999999999998</ele>
<time>2023-05-17T11:27:52Z</time>
</trkpt>
<trkpt lat="49.07754493877292" lon="8.583857920020819">
<ele>161.20000000000005</ele>
<time>2023-05-17T11:27:53Z</time>
</trkpt>
<trkpt lat="49.07755197957158" lon="8.583759935572743">
<ele>160.79999999999995</ele>
<time>2023-05-17T11:27:54Z</time>
</trkpt>
<trkpt lat="49.07755499705672" lon="8.583662956953049">
<ele>160.60000000000002</ele>
<time>2023-05-17T11:27:55Z</time>
</trkpt>
<trkpt lat="49.07754996791482" lon="8.583572935312986">
<ele>160.20000000000005</ele>
<time>2023-05-17T11:27:56Z</time>
</trkpt>
<trkpt lat="49.07753496430814" lon="8.583484925329685">
<ele>159.79999999999995</ele>
<time>2023-05-17T11:27:57Z</time>
</trkpt>
<trkpt lat="49.077517949044704" lon="8.58340697363019">
<ele>159.39999999999998</ele>
<time>2023-05-17T11:27:58Z</time>
</trkpt>
<trkpt lat="49.07750294543803" lon="8.583331955596805">
<ele>159</ele>
<time>2023-05-17T11:27:59Z</time>
</trkpt>
<trkpt lat="49.07748299650848" lon="8.5832579433918">
<ele>158.79999999999995</ele>
<time>2023-05-17T11:28:00Z</time>
</trkpt>
<trkpt lat="49.0774629637599" lon="8.583196923136711">
<ele>158.60000000000002</ele>
<time>2023-05-17T11:28:01Z</time>
</trkpt>
<trkpt lat="49.07743697986007" lon="8.583136992529035">
<ele>158.39999999999998</ele>
<time>2023-05-17T11:28:02Z</time>
</trkpt>
<trkpt lat="49.07740697264671" lon="8.583077983930707">
<ele>158.20000000000005</ele>
<time>2023-05-17T11:28:03Z</time>
</trkpt>
<trkpt lat="49.07737696543336" lon="8.58301998116076">
<ele>158</ele>
<time>2023-05-17T11:28:04Z</time>
</trkpt>
<trkpt lat="49.0773419290781" lon="8.582962984219193">
<ele>157.79999999999995</ele>
<time>2023-05-17T11:28:05Z</time>
</trkpt>
<trkpt lat="49.07730697654188" lon="8.582902969792485">
<ele>157.79999999999995</ele>
<time>2023-05-17T11:28:06Z</time>
</trkpt>
<trkpt lat="49.077272946015" lon="8.582844967022538">
<ele>157.60000000000002</ele>
<time>2023-05-17T11:28:07Z</time>
</trkpt>
<trkpt lat="49.07724696211517" lon="8.582779923453927">
<ele>157.60000000000002</ele>
<time>2023-05-17T11:28:08Z</time>
</trkpt>
<trkpt lat="49.07722994685173" lon="8.582704989239573">
<ele>157.60000000000002</ele>
<time>2023-05-17T11:28:09Z</time>
</trkpt>
<trkpt lat="49.077216954901814" lon="8.582627959549427">
<ele>157.60000000000002</ele>
<time>2023-05-17T11:28:10Z</time>
</trkpt>
<trkpt lat="49.07720698043704" lon="8.58254699036479">
<ele>157.60000000000002</ele>
<time>2023-05-17T11:28:11Z</time>
</trkpt>
<trkpt lat="49.077197927981615" lon="8.582471972331405">
<ele>157.60000000000002</ele>
<time>2023-05-17T11:28:12Z</time>
</trkpt>
<trkpt lat="49.07719197683036" lon="8.58239695429802">
<ele>157.60000000000002</ele>
<time>2023-05-17T11:28:13Z</time>
</trkpt>
<trkpt lat="49.0771899651736" lon="8.582326965406537">
<ele>157.60000000000002</ele>
<time>2023-05-17T11:28:14Z</time>
</trkpt>
<trkpt lat="49.077192982658744" lon="8.582259994000196">
<ele>157.60000000000002</ele>
<time>2023-05-17T11:28:15Z</time>
</trkpt>
<trkpt lat="49.077197927981615" lon="8.582199979573488">
<ele>157.60000000000002</ele>
<time>2023-05-17T11:28:16Z</time>
</trkpt>
<trkpt lat="49.077197927981615" lon="8.582141976803541">
<ele>157.79999999999995</ele>
<time>2023-05-17T11:28:17Z</time>
</trkpt>
<trkpt lat="49.07720195129514" lon="8.582081962376833">
<ele>157.79999999999995</ele>
<time>2023-05-17T11:28:18Z</time>
</trkpt>
<trkpt lat="49.07720798626542" lon="8.582027982920408">
<ele>157.79999999999995</ele>
<time>2023-05-17T11:28:19Z</time>
</trkpt>
<trkpt lat="49.07722491770983" lon="8.58196696266532">
<ele>158</ele>
<time>2023-05-17T11:28:20Z</time>
</trkpt>
<trkpt lat="49.07722994685173" lon="8.58190493658185">
<ele>158.20000000000005</ele>
<time>2023-05-17T11:28:21Z</time>
</trkpt>
<trkpt lat="49.077236987650394" lon="8.58183796517551">
<ele>158.39999999999998</ele>
<time>2023-05-17T11:28:22Z</time>
</trkpt>
<trkpt lat="49.077241932973266" lon="8.58177493326366">
<ele>158.60000000000002</ele>
<time>2023-05-17T11:28:23Z</time>
</trkpt>
<trkpt lat="49.07724997960031" lon="8.581711985170841">
<ele>158.60000000000002</ele>
<time>2023-05-17T11:28:24Z</time>
</trkpt>
<trkpt lat="49.07725492492318" lon="8.581651970744133">
<ele>158.79999999999995</ele>
<time>2023-05-17T11:28:25Z</time>
</trkpt>
<trkpt lat="49.077259954065084" lon="8.581586927175522">
<ele>159</ele>
<time>2023-05-17T11:28:26Z</time>
</trkpt>
<trkpt lat="49.077262971550226" lon="8.581524984911084">
<ele>159</ele>
<time>2023-05-17T11:28:27Z</time>
</trkpt>
<trkpt lat="49.077262971550226" lon="8.581457929685712">
<ele>159.20000000000005</ele>
<time>2023-05-17T11:28:28Z</time>
</trkpt>
<trkpt lat="49.077261965721846" lon="8.581386934965849">
<ele>159.20000000000005</ele>
<time>2023-05-17T11:28:29Z</time>
</trkpt>
<trkpt lat="49.077259954065084" lon="8.581309989094734">
<ele>159.20000000000005</ele>
<time>2023-05-17T11:28:30Z</time>
</trkpt>
<trkpt lat="49.07725693657994" lon="8.581227930262685">
<ele>159.20000000000005</ele>
<time>2023-05-17T11:28:31Z</time>
</trkpt>
<trkpt lat="49.077259954065084" lon="8.581142937764525">
<ele>159.20000000000005</ele>
<time>2023-05-17T11:28:32Z</time>
</trkpt>
<trkpt lat="49.077262971550226" lon="8.581056939437985">
<ele>159.20000000000005</ele>
<time>2023-05-17T11:28:33Z</time>
</trkpt>
<trkpt lat="49.0772679168731" lon="8.580969935283065">
<ele>159.20000000000005</ele>
<time>2023-05-17T11:28:34Z</time>
</trkpt>
<trkpt lat="49.07726992852986" lon="8.58087295666337">
<ele>159.20000000000005</ele>
<time>2023-05-17T11:28:35Z</time>
</trkpt>
<trkpt lat="49.077279986813664" lon="8.580772960558534">
<ele>159</ele>
<time>2023-05-17T11:28:36Z</time>
</trkpt>
<trkpt lat="49.07729691825807" lon="8.580667935311794">
<ele>159</ele>
<time>2023-05-17T11:28:37Z</time>
</trkpt>
<trkpt lat="49.07731795683503" lon="8.580561988055706">
<ele>158.79999999999995</ele>
<time>2023-05-17T11:28:38Z</time>
</trkpt>
<trkpt lat="49.07734293490648" lon="8.580454951152205">
<ele>158.60000000000002</ele>
<time>2023-05-17T11:28:39Z</time>
</trkpt>
<trkpt lat="49.077367996796966" lon="8.580346992239356">
<ele>158.39999999999998</ele>
<time>2023-05-17T11:28:40Z</time>
</trkpt>
<trkpt lat="49.07739498652518" lon="8.580237943679094">
<ele>158.20000000000005</ele>
<time>2023-05-17T11:28:41Z</time>
</trkpt>
<trkpt lat="49.07742499373853" lon="8.580129984766245">
<ele>157.79999999999995</ele>
<time>2023-05-17T11:28:42Z</time>
</trkpt>
<trkpt lat="49.077457934617996" lon="8.580024959519506">
<ele>157.39999999999998</ele>
<time>2023-05-17T11:28:43Z</time>
</trkpt>
<trkpt lat="49.07748693600297" lon="8.579914988949895">
<ele>157</ele>
<time>2023-05-17T11:28:44Z</time>
</trkpt>
<trkpt lat="49.07750998623669" lon="8.579806946218014">
<ele>156.60000000000002</ele>
<time>2023-05-17T11:28:45Z</time>
</trkpt>
<trkpt lat="49.07753295265138" lon="8.579699993133545">
<ele>156.20000000000005</ele>
<time>2023-05-17T11:28:46Z</time>
</trkpt>
<trkpt lat="49.07755692489445" lon="8.579592956230044">
<ele>155.79999999999995</ele>
<time>2023-05-17T11:28:47Z</time>
</trkpt>
<trkpt lat="49.07758793793619" lon="8.57947795651853">
<ele>155.60000000000002</ele>
<time>2023-05-17T11:28:48Z</time>
</trkpt>
<trkpt lat="49.0776149276644" lon="8.579374942928553">
<ele>155.20000000000005</ele>
<time>2023-05-17T11:28:49Z</time>
</trkpt>
<trkpt lat="49.07764292322099" lon="8.579272935166955">
<ele>155</ele>
<time>2023-05-17T11:28:50Z</time>
</trkpt>
<trkpt lat="49.077669996768236" lon="8.579171933233738">
<ele>154.79999999999995</ele>
<time>2023-05-17T11:28:51Z</time>
</trkpt>
<trkpt lat="49.077691957354546" lon="8.579064980149269">
<ele>154.60000000000002</ele>
<time>2023-05-17T11:28:52Z</time>
</trkpt>
<trkpt lat="49.077712995931506" lon="8.578964984044433">
<ele>154.39999999999998</ele>
<time>2023-05-17T11:28:53Z</time>
</trkpt>
<trkpt lat="49.077732944861054" lon="8.578859958797693">
<ele>154.20000000000005</ele>
<time>2023-05-17T11:28:54Z</time>
</trkpt>
<trkpt lat="49.077754989266396" lon="8.578756945207715">
<ele>154</ele>
<time>2023-05-17T11:28:55Z</time>
</trkpt>
<trkpt lat="49.077774938195944" lon="8.578661978244781">
<ele>153.79999999999995</ele>
<time>2023-05-17T11:28:56Z</time>
</trkpt>
<trkpt lat="49.07779195345938" lon="8.5785729624331">
<ele>153.79999999999995</ele>
<time>2023-05-17T11:28:57Z</time>
</trkpt>
<trkpt lat="49.07780695706606" lon="8.578482940793037">
<ele>153.60000000000002</ele>
<time>2023-05-17T11:28:58Z</time>
</trkpt>
<trkpt lat="49.077819949015975" lon="8.578394930809736">
<ele>153.60000000000002</ele>
<time>2023-05-17T11:28:59Z</time>
</trkpt>
<trkpt lat="49.07783193513751" lon="8.578309938311577">
<ele>153.39999999999998</ele>
<time>2023-05-17T11:29:00Z</time>
</trkpt>
<trkpt lat="49.077841993421316" lon="8.578219916671515">
<ele>153.39999999999998</ele>
<time>2023-05-17T11:29:01Z</time>
</trkpt>
<trkpt lat="49.07785196788609" lon="8.578132996335626">
<ele>153.39999999999998</ele>
<time>2023-05-17T11:29:02Z</time>
</trkpt>
<trkpt lat="49.0778599306941" lon="8.578044986352324">
<ele>153.39999999999998</ele>
<time>2023-05-17T11:29:03Z</time>
</trkpt>
<trkpt lat="49.07786797732115" lon="8.577959993854165">
<ele>153.39999999999998</ele>
<time>2023-05-17T11:29:04Z</time>
</trkpt>
<trkpt lat="49.07787493430078" lon="8.577876929193735">
<ele>153.39999999999998</ele>
<time>2023-05-17T11:29:05Z</time>
</trkpt>
<trkpt lat="49.077882980927825" lon="8.577792942523956">
<ele>153.39999999999998</ele>
<time>2023-05-17T11:29:06Z</time>
</trkpt>
<trkpt lat="49.0778929553926" lon="8.57771197333932">
<ele>153.39999999999998</ele>
<time>2023-05-17T11:29:07Z</time>
</trkpt>
<trkpt lat="49.07790997065604" lon="8.57762698084116">
<ele>153.39999999999998</ele>
<time>2023-05-17T11:29:08Z</time>
</trkpt>
<trkpt lat="49.077927991747856" lon="8.577541988343">
<ele>153.20000000000005</ele>
<time>2023-05-17T11:29:09Z</time>
</trkpt>
<trkpt lat="49.07793997786939" lon="8.577461941167712">
<ele>153.20000000000005</ele>
<time>2023-05-17T11:29:10Z</time>
</trkpt>
<trkpt lat="49.07795296981931" lon="8.577377954497933">
<ele>153.20000000000005</ele>
<time>2023-05-17T11:29:11Z</time>
</trkpt>
<trkpt lat="49.077966967597604" lon="8.577299918979406">
<ele>153.20000000000005</ele>
<time>2023-05-17T11:29:12Z</time>
</trkpt>
<trkpt lat="49.07797794789076" lon="8.577221967279911">
<ele>153.20000000000005</ele>
<time>2023-05-17T11:29:13Z</time>
</trkpt>
<trkpt lat="49.077992951497436" lon="8.577144937589765">
<ele>153.20000000000005</ele>
<time>2023-05-17T11:29:14Z</time>
</trkpt>
<trkpt lat="49.07800795510411" lon="8.57706799171865">
<ele>153</ele>
<time>2023-05-17T11:29:15Z</time>
</trkpt>
<trkpt lat="49.07802195288241" lon="8.576992973685265">
<ele>153</ele>
<time>2023-05-17T11:29:16Z</time>
</trkpt>
<trkpt lat="49.078032933175564" lon="8.576912926509976">
<ele>153</ele>
<time>2023-05-17T11:29:17Z</time>
</trkpt>
<trkpt lat="49.078049948439" lon="8.576839920133352">
<ele>152.79999999999995</ele>
<time>2023-05-17T11:29:18Z</time>
</trkpt>
<trkpt lat="49.07806796953082" lon="8.576767919585109">
<ele>152.79999999999995</ele>
<time>2023-05-17T11:29:19Z</time>
</trkpt>
<trkpt lat="49.0780829731375" lon="8.576691979542375">
<ele>152.60000000000002</ele>
<time>2023-05-17T11:29:20Z</time>
</trkpt>
<trkpt lat="49.078099988400936" lon="8.576607992872596">
<ele>152.60000000000002</ele>
<time>2023-05-17T11:29:21Z</time>
</trkpt>
<trkpt lat="49.07811691984534" lon="8.57653196901083">
<ele>152.60000000000002</ele>
<time>2023-05-17T11:29:22Z</time>
</trkpt>
<trkpt lat="49.0781379584223" lon="8.576452927663922">
<ele>152.60000000000002</ele>
<time>2023-05-17T11:29:23Z</time>
</trkpt>
<trkpt lat="49.078161930665374" lon="8.576372964307666">
<ele>152.60000000000002</ele>
<time>2023-05-17T11:29:24Z</time>
</trkpt>
<trkpt lat="49.07817794010043" lon="8.576294928789139">
<ele>152.60000000000002</ele>
<time>2023-05-17T11:29:25Z</time>
</trkpt>
<trkpt lat="49.07819294370711" lon="8.576214965432882">
<ele>152.60000000000002</ele>
<time>2023-05-17T11:29:26Z</time>
</trkpt>
<trkpt lat="49.078206941485405" lon="8.576139947399497">
<ele>152.60000000000002</ele>
<time>2023-05-17T11:29:27Z</time>
</trkpt>
<trkpt lat="49.07821993343532" lon="8.576061995700002">
<ele>152.60000000000002</ele>
<time>2023-05-17T11:29:28Z</time>
</trkpt>
<trkpt lat="49.078234937042" lon="8.575982954353094">
<ele>152.60000000000002</ele>
<time>2023-05-17T11:29:29Z</time>
</trkpt>
<trkpt lat="49.07825295813382" lon="8.575902990996838">
<ele>152.79999999999995</ele>
<time>2023-05-17T11:29:30Z</time>
</trkpt>
<trkpt lat="49.078269973397255" lon="8.57582495547831">
<ele>152.79999999999995</ele>
<time>2023-05-17T11:29:31Z</time>
</trkpt>
<trkpt lat="49.07828195951879" lon="8.575751949101686">
<ele>152.79999999999995</ele>
<time>2023-05-17T11:29:32Z</time>
</trkpt>
<trkpt lat="49.078291933983564" lon="8.575677936896682">
<ele>152.79999999999995</ele>
<time>2023-05-17T11:29:33Z</time>
</trkpt>
<trkpt lat="49.07830199226737" lon="8.5756079480052">
<ele>153</ele>
<time>2023-05-17T11:29:34Z</time>
</trkpt>
<trkpt lat="49.07830794341862" lon="8.57554198242724">
<ele>153.20000000000005</ele>
<time>2023-05-17T11:29:35Z</time>
</trkpt>
<trkpt lat="49.07831699587405" lon="8.57547995634377">
<ele>153.20000000000005</ele>
<time>2023-05-17T11:29:36Z</time>
</trkpt>
<trkpt lat="49.07832495868206" lon="8.5754179302603">
<ele>153.39999999999998</ele>
<time>2023-05-17T11:29:37Z</time>
</trkpt>
<trkpt lat="49.078331999480724" lon="8.575357999652624">
<ele>153.60000000000002</ele>
<time>2023-05-17T11:29:38Z</time>
</trkpt>
<trkpt lat="49.07833996228874" lon="8.575304942205548">
<ele>153.60000000000002</ele>
<time>2023-05-17T11:29:39Z</time>
</trkpt>
<trkpt lat="49.07834499143064" lon="8.575251968577504">
<ele>153.79999999999995</ele>
<time>2023-05-17T11:29:40Z</time>
</trkpt>
<trkpt lat="49.07835194841027" lon="8.57519798912108">
<ele>154</ele>
<time>2023-05-17T11:29:41Z</time>
</trkpt>
<trkpt lat="49.078356977552176" lon="8.575147949159145">
<ele>154.20000000000005</ele>
<time>2023-05-17T11:29:42Z</time>
</trkpt>
<trkpt lat="49.07835999503732" lon="8.575099920853972">
<ele>154.20000000000005</ele>
<time>2023-05-17T11:29:43Z</time>
</trkpt>
<trkpt lat="49.07836292870343" lon="8.575042923912406">
<ele>154.39999999999998</ele>
<time>2023-05-17T11:29:44Z</time>
</trkpt>
<trkpt lat="49.07836695201695" lon="8.574991961941123">
<ele>154.39999999999998</ele>
<time>2023-05-17T11:29:45Z</time>
</trkpt>
<trkpt lat="49.07836795784533" lon="8.57493999414146">
<ele>154.60000000000002</ele>
<time>2023-05-17T11:29:46Z</time>
</trkpt>
<trkpt lat="49.07836996950209" lon="8.574891965836287">
<ele>154.60000000000002</ele>
<time>2023-05-17T11:29:47Z</time>
</trkpt>
<trkpt lat="49.07836996950209" lon="8.574847960844636">
<ele>154.79999999999995</ele>
<time>2023-05-17T11:29:48Z</time>
</trkpt>
<trkpt lat="49.07836996950209" lon="8.574799932539463">
<ele>154.79999999999995</ele>
<time>2023-05-17T11:29:49Z</time>
</trkpt>
<trkpt lat="49.07837198115885" lon="8.57474997639656">
<ele>155</ele>
<time>2023-05-17T11:29:50Z</time>
</trkpt>
<trkpt lat="49.078376926481724" lon="8.574692979454994">
<ele>155</ele>
<time>2023-05-17T11:29:51Z</time>
</trkpt>
<trkpt lat="49.07838497310877" lon="8.574644951149821">
<ele>155</ele>
<time>2023-05-17T11:29:52Z</time>
</trkpt>
<trkpt lat="49.078397965058684" lon="8.574582925066352">
<ele>155.20000000000005</ele>
<time>2023-05-17T11:29:53Z</time>
</trkpt>
<trkpt lat="49.07840198837221" lon="8.574536992236972">
<ele>155.20000000000005</ele>
<time>2023-05-17T11:29:54Z</time>
</trkpt>
<trkpt lat="49.07840492203832" lon="8.57448996976018">
<ele>155.20000000000005</ele>
<time>2023-05-17T11:29:55Z</time>
</trkpt>
<trkpt lat="49.07840793952346" lon="8.574439929798245">
<ele>155.20000000000005</ele>
<time>2023-05-17T11:29:56Z</time>
</trkpt>
<trkpt lat="49.07840995118022" lon="8.574386956170201">
<ele>155.20000000000005</ele>
<time>2023-05-17T11:29:57Z</time>
</trkpt>
<trkpt lat="49.07841296866536" lon="8.574337922036648">
<ele>155.39999999999998</ele>
<time>2023-05-17T11:29:58Z</time>
</trkpt>
<trkpt lat="49.07841498032212" lon="8.574287965893745">
<ele>155.39999999999998</ele>
<time>2023-05-17T11:29:59Z</time>
</trkpt>
<trkpt lat="49.078419925644994" lon="8.57423197478056">
<ele>155.39999999999998</ele>
<time>2023-05-17T11:30:00Z</time>
</trkpt>
<trkpt lat="49.07842797227204" lon="8.574174977838993">
<ele>155.39999999999998</ele>
<time>2023-05-17T11:30:01Z</time>
</trkpt>
<trkpt lat="49.07843492925167" lon="8.574117980897427">
<ele>155.39999999999998</ele>
<time>2023-05-17T11:30:02Z</time>
</trkpt>
<trkpt lat="49.078442975878716" lon="8.574056960642338">
<ele>155.60000000000002</ele>
<time>2023-05-17T11:30:03Z</time>
</trkpt>
<trkpt lat="49.07844792120159" lon="8.57399694621563">
<ele>155.60000000000002</ele>
<time>2023-05-17T11:30:04Z</time>
</trkpt>
<trkpt lat="49.07845496200025" lon="8.57393299229443">
<ele>155.60000000000002</ele>
<time>2023-05-17T11:30:05Z</time>
</trkpt>
<trkpt lat="49.07846795395017" lon="8.573861997574568">
<ele>155.60000000000002</ele>
<time>2023-05-17T11:30:06Z</time>
</trkpt>
<trkpt lat="49.0784799400717" lon="8.573789997026324">
<ele>155.60000000000002</ele>
<time>2023-05-17T11:30:07Z</time>
</trkpt>
<trkpt lat="49.07848798669875" lon="8.57371992431581">
<ele>155.60000000000002</ele>
<time>2023-05-17T11:30:08Z</time>
</trkpt>
<trkpt lat="49.07849293202162" lon="8.573641972616315">
<ele>155.60000000000002</ele>
<time>2023-05-17T11:30:09Z</time>
</trkpt>
<trkpt lat="49.078502990305424" lon="8.573562931269407">
<ele>155.60000000000002</ele>
<time>2023-05-17T11:30:10Z</time>
</trkpt>
<trkpt lat="49.0785179939121" lon="8.57348296791315">
<ele>155.60000000000002</ele>
<time>2023-05-17T11:30:11Z</time>
</trkpt>
<trkpt lat="49.078529980033636" lon="8.573409961536527">
<ele>155.39999999999998</ele>
<time>2023-05-17T11:30:12Z</time>
</trkpt>
<trkpt lat="49.078546995297074" lon="8.573321951553226">
<ele>155.39999999999998</ele>
<time>2023-05-17T11:30:13Z</time>
</trkpt>
<trkpt lat="49.07855495810509" lon="8.573244921863079">
<ele>155.39999999999998</ele>
<time>2023-05-17T11:30:14Z</time>
</trkpt>
<trkpt lat="49.078569961711764" lon="8.57315699569881">
<ele>155.39999999999998</ele>
<time>2023-05-17T11:30:15Z</time>
</trkpt>
<trkpt lat="49.07857792451978" lon="8.573077954351902">
<ele>155.39999999999998</ele>
<time>2023-05-17T11:30:16Z</time>
</trkpt>
<trkpt lat="49.07858798280358" lon="8.572996985167265">
<ele>155.39999999999998</ele>
<time>2023-05-17T11:30:17Z</time>
</trkpt>
<trkpt lat="49.07859996892512" lon="8.572912998497486">
<ele>155.39999999999998</ele>
<time>2023-05-17T11:30:18Z</time>
</trkpt>
<trkpt lat="49.07861698418856" lon="8.572832951322198">
<ele>155.20000000000005</ele>
<time>2023-05-17T11:30:19Z</time>
</trkpt>
<trkpt lat="49.078632993623614" lon="8.572752987965941">
<ele>155.20000000000005</ele>
<time>2023-05-17T11:30:20Z</time>
</trkpt>
<trkpt lat="49.078654954209924" lon="8.572676964104176">
<ele>155</ele>
<time>2023-05-17T11:30:21Z</time>
</trkpt>
<trkpt lat="49.07867297530174" lon="8.572604963555932">
<ele>155</ele>
<time>2023-05-17T11:30:22Z</time>
</trkpt>
<trkpt lat="49.07869191840291" lon="8.572519971057773">
<ele>154.79999999999995</ele>
<time>2023-05-17T11:30:23Z</time>
</trkpt>
<trkpt lat="49.07871295697987" lon="8.572434978559613">
<ele>154.60000000000002</ele>
<time>2023-05-17T11:30:24Z</time>
</trkpt>
<trkpt lat="49.07873198390007" lon="8.572351997718215">
<ele>154.39999999999998</ele>
<time>2023-05-17T11:30:25Z</time>
</trkpt>
<trkpt lat="49.07874992117286" lon="8.572267927229404">
<ele>154.20000000000005</ele>
<time>2023-05-17T11:30:26Z</time>
</trkpt>
<trkpt lat="49.07876995392144" lon="8.572184946388006">
<ele>154</ele>
<time>2023-05-17T11:30:27Z</time>
</trkpt>
<trkpt lat="49.078787975013256" lon="8.572101965546608">
<ele>153.60000000000002</ele>
<time>2023-05-17T11:30:28Z</time>
</trkpt>
<trkpt lat="49.078807923942804" lon="8.57201797887683">
<ele>153.39999999999998</ele>
<time>2023-05-17T11:30:29Z</time>
</trkpt>
<trkpt lat="49.078829968348145" lon="8.57193692587316">
<ele>153.20000000000005</ele>
<time>2023-05-17T11:30:30Z</time>
</trkpt>
<trkpt lat="49.078851928934455" lon="8.571857968345284">
<ele>153</ele>
<time>2023-05-17T11:30:31Z</time>
</trkpt>
<trkpt lat="49.07887699082494" lon="8.571772975847125">
<ele>152.60000000000002</ele>
<time>2023-05-17T11:30:32Z</time>
</trkpt>
<trkpt lat="49.07890297472477" lon="8.571687983348966">
<ele>152.39999999999998</ele>
<time>2023-05-17T11:30:33Z</time>
</trkpt>
<trkpt lat="49.07892694696784" lon="8.571606930345297">
<ele>152.20000000000005</ele>
<time>2023-05-17T11:30:34Z</time>
</trkpt>
<trkpt lat="49.07895293086767" lon="8.57152495533228">
<ele>151.79999999999995</ele>
<time>2023-05-17T11:30:35Z</time>
</trkpt>
<trkpt lat="49.078976986929774" lon="8.571444991976023">
<ele>151.60000000000002</ele>
<time>2023-05-17T11:30:36Z</time>
</trkpt>
<trkpt lat="49.079001965001225" lon="8.571362933143973">
<ele>151.20000000000005</ele>
<time>2023-05-17T11:30:37Z</time>
</trkpt>
<trkpt lat="49.07902694307268" lon="8.571279952302575">
<ele>151</ele>
<time>2023-05-17T11:30:38Z</time>
</trkpt>
<trkpt lat="49.07905292697251" lon="8.571196971461177">
<ele>150.60000000000002</ele>
<time>2023-05-17T11:30:39Z</time>
</trkpt>
<trkpt lat="49.07907991670072" lon="8.571111978963017">
<ele>150.39999999999998</ele>
<time>2023-05-17T11:30:40Z</time>
</trkpt>
<trkpt lat="49.079107996076345" lon="8.571022963151336">
<ele>150</ele>
<time>2023-05-17T11:30:41Z</time>
</trkpt>
<trkpt lat="49.07914194278419" lon="8.570936964824796">
<ele>149.79999999999995</ele>
<time>2023-05-17T11:30:42Z</time>
</trkpt>
<trkpt lat="49.079174967482686" lon="8.570847949013114">
<ele>149.39999999999998</ele>
<time>2023-05-17T11:30:43Z</time>
</trkpt>
<trkpt lat="49.07920992001891" lon="8.570759939029813">
<ele>149.20000000000005</ele>
<time>2023-05-17T11:30:44Z</time>
</trkpt>
<trkpt lat="49.07924696803093" lon="8.570671929046512">
<ele>148.79999999999995</ele>
<time>2023-05-17T11:30:45Z</time>
</trkpt>
<trkpt lat="49.0792849380523" lon="8.570581991225481">
<ele>148.60000000000002</ele>
<time>2023-05-17T11:30:46Z</time>
</trkpt>
<trkpt lat="49.079322991892695" lon="8.570489957928658">
<ele>148.20000000000005</ele>
<time>2023-05-17T11:30:47Z</time>
</trkpt>
<trkpt lat="49.079369930550456" lon="8.570392979308963">
<ele>148</ele>
<time>2023-05-17T11:30:48Z</time>
</trkpt>
<trkpt lat="49.079412929713726" lon="8.570299940183759">
<ele>147.79999999999995</ele>
<time>2023-05-17T11:30:49Z</time>
</trkpt>
<trkpt lat="49.07945693470538" lon="8.570209918543696">
<ele>147.39999999999998</ele>
<time>2023-05-17T11:30:50Z</time>
</trkpt>
<trkpt lat="49.07950194552541" lon="8.570121992379427">
<ele>147.20000000000005</ele>
<time>2023-05-17T11:30:51Z</time>
</trkpt>
<trkpt lat="49.07954695634544" lon="8.570031970739365">
<ele>147</ele>
<time>2023-05-17T11:30:52Z</time>
</trkpt>
<trkpt lat="49.07959297299385" lon="8.569942954927683">
<ele>146.79999999999995</ele>
<time>2023-05-17T11:30:53Z</time>
</trkpt>
<trkpt lat="49.0796369779855" lon="8.569854944944382">
<ele>146.60000000000002</ele>
<time>2023-05-17T11:30:54Z</time>
</trkpt>
<trkpt lat="49.07968299463391" lon="8.56976492330432">
<ele>146.39999999999998</ele>
<time>2023-05-17T11:30:55Z</time>
</trkpt>
<trkpt lat="49.079731944948435" lon="8.56967699714005">
<ele>146.20000000000005</ele>
<time>2023-05-17T11:30:56Z</time>
</trkpt>
<trkpt lat="49.079774944111705" lon="8.56958999298513">
<ele>146</ele>
<time>2023-05-17T11:30:57Z</time>
</trkpt>
<trkpt lat="49.07982297241688" lon="8.569502988830209">
<ele>145.79999999999995</ele>
<time>2023-05-17T11:30:58Z</time>
</trkpt>
<trkpt lat="49.07986798323691" lon="8.569416990503669">
<ele>145.60000000000002</ele>
<time>2023-05-17T11:30:59Z</time>
</trkpt>
<trkpt lat="49.07991299405694" lon="8.56933493167162">
<ele>145.39999999999998</ele>
<time>2023-05-17T11:31:00Z</time>
</trkpt>
<trkpt lat="49.0799599327147" lon="8.569254968315363">
<ele>145.39999999999998</ele>
<time>2023-05-17T11:31:01Z</time>
</trkpt>
<trkpt lat="49.08000695519149" lon="8.569177938625216">
<ele>145.20000000000005</ele>
<time>2023-05-17T11:31:02Z</time>
</trkpt>
<trkpt lat="49.080054983496666" lon="8.569099986925721">
<ele>145.20000000000005</ele>
<time>2023-05-17T11:31:03Z</time>
</trkpt>
<trkpt lat="49.08010192215443" lon="8.569022957235575">
<ele>145</ele>
<time>2023-05-17T11:31:04Z</time>
</trkpt>
<trkpt lat="49.0801499504596" lon="8.568946933373809">
<ele>144.79999999999995</ele>
<time>2023-05-17T11:31:05Z</time>
</trkpt>
<trkpt lat="49.08020191825926" lon="8.568869987502694">
<ele>144.79999999999995</ele>
<time>2023-05-17T11:31:06Z</time>
</trkpt>
<trkpt lat="49.08025497570634" lon="8.568794969469309">
<ele>144.60000000000002</ele>
<time>2023-05-17T11:31:07Z</time>
</trkpt>
<trkpt lat="49.08030493184924" lon="8.568716933950782">
<ele>144.39999999999998</ele>
<time>2023-05-17T11:31:08Z</time>
</trkpt>
<trkpt lat="49.080354971811175" lon="8.568637976422906">
<ele>144.39999999999998</ele>
<time>2023-05-17T11:31:09Z</time>
</trkpt>
<trkpt lat="49.08040492795408" lon="8.56856295838952">
<ele>144.20000000000005</ele>
<time>2023-05-17T11:31:10Z</time>
</trkpt>
<trkpt lat="49.08045496791601" lon="8.568487940356135">
<ele>144</ele>
<time>2023-05-17T11:31:11Z</time>
</trkpt>
<trkpt lat="49.080502996221185" lon="8.56841191649437">
<ele>143.79999999999995</ele>
<time>2023-05-17T11:31:12Z</time>
</trkpt>
<trkpt lat="49.080549934878945" lon="8.568337988108397">
<ele>143.79999999999995</ele>
<time>2023-05-17T11:31:13Z</time>
</trkpt>
<trkpt lat="49.08059796318412" lon="8.568266993388534">
<ele>143.60000000000002</ele>
<time>2023-05-17T11:31:14Z</time>
</trkpt>
<trkpt lat="49.08064699731767" lon="8.56819692067802">
<ele>143.39999999999998</ele>
<time>2023-05-17T11:31:15Z</time>
</trkpt>
<trkpt lat="49.08069494180381" lon="8.568127937614918">
<ele>143.20000000000005</ele>
<time>2023-05-17T11:31:16Z</time>
</trkpt>
<trkpt lat="49.080739952623844" lon="8.568054931238294">
<ele>143.20000000000005</ele>
<time>2023-05-17T11:31:17Z</time>
</trkpt>
<trkpt lat="49.08078697510064" lon="8.56798293069005">
<ele>143</ele>
<time>2023-05-17T11:31:18Z</time>
</trkpt>
<trkpt lat="49.08083198592067" lon="8.567912941798568">
<ele>142.79999999999995</ele>
<time>2023-05-17T11:31:19Z</time>
</trkpt>
<trkpt lat="49.08087791875005" lon="8.567839935421944">
<ele>142.79999999999995</ele>
<time>2023-05-17T11:31:20Z</time>
</trkpt>
<trkpt lat="49.0809219237417" lon="8.567762989550829">
<ele>142.60000000000002</ele>
<time>2023-05-17T11:31:21Z</time>
</trkpt>
<trkpt lat="49.08096299506724" lon="8.567686965689063">
<ele>142.39999999999998</ele>
<time>2023-05-17T11:31:22Z</time>
</trkpt>
<trkpt lat="49.08100691623986" lon="8.567607924342155">
<ele>142.39999999999998</ele>
<time>2023-05-17T11:31:23Z</time>
</trkpt>
<trkpt lat="49.08104999922216" lon="8.56752997264266">
<ele>142.20000000000005</ele>
<time>2023-05-17T11:31:24Z</time>
</trkpt>
<trkpt lat="49.08109299838543" lon="8.567456966266036">
<ele>142</ele>
<time>2023-05-17T11:31:25Z</time>
</trkpt>
<trkpt lat="49.08113499172032" lon="8.56738194823265">
<ele>142</ele>
<time>2023-05-17T11:31:26Z</time>
</trkpt>
<trkpt lat="49.08117497339845" lon="8.567302990704775">
<ele>141.79999999999995</ele>
<time>2023-05-17T11:31:27Z</time>
</trkpt>
<trkpt lat="49.08121193759143" lon="8.567219926044345">
<ele>141.79999999999995</ele>
<time>2023-05-17T11:31:28Z</time>
</trkpt>
<trkpt lat="49.08124697394669" lon="8.567136945202947">
<ele>141.60000000000002</ele>
<time>2023-05-17T11:31:29Z</time>
</trkpt>
<trkpt lat="49.08128494396806" lon="8.567054970189929">
<ele>141.60000000000002</ele>
<time>2023-05-17T11:31:30Z</time>
</trkpt>
<trkpt lat="49.081321991980076" lon="8.566972995176911">
<ele>141.39999999999998</ele>
<time>2023-05-17T11:31:31Z</time>
</trkpt>
<trkpt lat="49.08135996200144" lon="8.566889930516481">
<ele>141.39999999999998</ele>
<time>2023-05-17T11:31:32Z</time>
</trkpt>
<trkpt lat="49.08139692619443" lon="8.566806949675083">
<ele>141.20000000000005</ele>
<time>2023-05-17T11:31:33Z</time>
</trkpt>
<trkpt lat="49.081429950892925" lon="8.566721957176924">
<ele>141</ele>
<time>2023-05-17T11:31:34Z</time>
</trkpt>
<trkpt lat="49.08146297559142" lon="8.566636964678764">
<ele>141</ele>
<time>2023-05-17T11:31:35Z</time>
</trkpt>
<trkpt lat="49.081496922299266" lon="8.566551972180605">
<ele>140.79999999999995</ele>
<time>2023-05-17T11:31:36Z</time>
</trkpt>
<trkpt lat="49.081527935341" lon="8.566466979682446">
<ele>140.79999999999995</ele>
<time>2023-05-17T11:31:37Z</time>
</trkpt>
<trkpt lat="49.081556936725974" lon="8.566379975527525">
<ele>140.79999999999995</ele>
<time>2023-05-17T11:31:38Z</time>
</trkpt>
<trkpt lat="49.08158694393933" lon="8.566296994686127">
<ele>140.60000000000002</ele>
<time>2023-05-17T11:31:39Z</time>
</trkpt>
<trkpt lat="49.08161493949592" lon="8.566211918368936">
<ele>140.60000000000002</ele>
<time>2023-05-17T11:31:40Z</time>
</trkpt>
<trkpt lat="49.081642935052514" lon="8.566124998033047">
<ele>140.39999999999998</ele>
<time>2023-05-17T11:31:41Z</time>
</trkpt>
<trkpt lat="49.081669924780726" lon="8.566039921715856">
<ele>140.39999999999998</ele>
<time>2023-05-17T11:31:42Z</time>
</trkpt>
<trkpt lat="49.08169699832797" lon="8.565957946702838">
<ele>140.20000000000005</ele>
<time>2023-05-17T11:31:43Z</time>
</trkpt>
<trkpt lat="49.08172197639942" lon="8.5658769775182">
<ele>140</ele>
<time>2023-05-17T11:31:44Z</time>
</trkpt>
<trkpt lat="49.08174494281411" lon="8.565797936171293">
<ele>139.79999999999995</ele>
<time>2023-05-17T11:31:45Z</time>
</trkpt>
<trkpt lat="49.08176992088556" lon="8.565717972815037">
<ele>139.79999999999995</ele>
<time>2023-05-17T11:31:46Z</time>
</trkpt>
<trkpt lat="49.081792971119285" lon="8.565637925639749">
<ele>139.60000000000002</ele>
<time>2023-05-17T11:31:47Z</time>
</trkpt>
<trkpt lat="49.08181292004883" lon="8.565557962283492">
<ele>139.60000000000002</ele>
<time>2023-05-17T11:31:48Z</time>
</trkpt>
<trkpt lat="49.08183194696903" lon="8.565477998927236">
<ele>139.39999999999998</ele>
<time>2023-05-17T11:31:49Z</time>
</trkpt>
<trkpt lat="49.08184996806085" lon="8.565396945923567">
<ele>139.39999999999998</ele>
<time>2023-05-17T11:31:50Z</time>
</trkpt>
<trkpt lat="49.08186698332429" lon="8.56531497091055">
<ele>139.20000000000005</ele>
<time>2023-05-17T11:31:51Z</time>
</trkpt>
<trkpt lat="49.08188693225384" lon="8.565237941220403">
<ele>139.20000000000005</ele>
<time>2023-05-17T11:31:52Z</time>
</trkpt>
<trkpt lat="49.08190696500242" lon="8.565164934843779">
<ele>139</ele>
<time>2023-05-17T11:31:53Z</time>
</trkpt>
<trkpt lat="49.081924986094236" lon="8.565091928467155">
<ele>138.79999999999995</ele>
<time>2023-05-17T11:31:54Z</time>
</trkpt>
<trkpt lat="49.08194292336702" lon="8.565016994252801">
<ele>138.79999999999995</ele>
<time>2023-05-17T11:31:55Z</time>
</trkpt>
<trkpt lat="49.08196195028722" lon="8.564944993704557">
<ele>138.60000000000002</ele>
<time>2023-05-17T11:31:56Z</time>
</trkpt>
<trkpt lat="49.08197795972228" lon="8.564872993156314">
<ele>138.60000000000002</ele>
<time>2023-05-17T11:31:57Z</time>
</trkpt>
<trkpt lat="49.08199497498572" lon="8.56479998677969">
<ele>138.60000000000002</ele>
<time>2023-05-17T11:31:58Z</time>
</trkpt>
<trkpt lat="49.082009978592396" lon="8.564726980403066">
<ele>138.39999999999998</ele>
<time>2023-05-17T11:31:59Z</time>
</trkpt>
<trkpt lat="49.082027999684215" lon="8.564654979854822">
<ele>138.39999999999998</ele>
<time>2023-05-17T11:32:00Z</time>
</trkpt>
<trkpt lat="49.08204694278538" lon="8.564582979306579">
<ele>138.20000000000005</ele>
<time>2023-05-17T11:32:01Z</time>
</trkpt>
<trkpt lat="49.08206697553396" lon="8.564511984586716">
<ele>138.20000000000005</ele>
<time>2023-05-17T11:32:02Z</time>
</trkpt>
<trkpt lat="49.08208197914064" lon="8.564437972381711">
<ele>138.20000000000005</ele>
<time>2023-05-17T11:32:03Z</time>
</trkpt>
<trkpt lat="49.0820979885757" lon="8.564366977661848">
<ele>138</ele>
<time>2023-05-17T11:32:04Z</time>
</trkpt>
<trkpt lat="49.0821149200201" lon="8.564296988770366">
<ele>138</ele>
<time>2023-05-17T11:32:05Z</time>
</trkpt>
<trkpt lat="49.08212992362678" lon="8.564224988222122">
<ele>137.79999999999995</ele>
<time>2023-05-17T11:32:06Z</time>
</trkpt>
<trkpt lat="49.08214492723346" lon="8.56415692716837">
<ele>137.79999999999995</ele>
<time>2023-05-17T11:32:07Z</time>
</trkpt>
<trkpt lat="49.082159930840135" lon="8.56409196741879">
<ele>137.79999999999995</ele>
<time>2023-05-17T11:32:08Z</time>
</trkpt>
<trkpt lat="49.08217493444681" lon="8.56402792967856">
<ele>137.60000000000002</ele>
<time>2023-05-17T11:32:09Z</time>
</trkpt>
<trkpt lat="49.08218993805349" lon="8.563964981585741">
<ele>137.60000000000002</ele>
<time>2023-05-17T11:32:10Z</time>
</trkpt>
<trkpt lat="49.082202930003405" lon="8.563904967159033">
<ele>137.60000000000002</ele>
<time>2023-05-17T11:32:11Z</time>
</trkpt>
<trkpt lat="49.082221956923604" lon="8.563847970217466">
<ele>137.39999999999998</ele>
<time>2023-05-17T11:32:12Z</time>
</trkpt>
<trkpt lat="49.08223293721676" lon="8.563797930255532">
<ele>137.39999999999998</ele>
<time>2023-05-17T11:32:13Z</time>
</trkpt>
<trkpt lat="49.08223494887352" lon="8.56374696828425">
<ele>137.39999999999998</ele>
<time>2023-05-17T11:32:14Z</time>
</trkpt>
<trkpt lat="49.082221956923604" lon="8.563702963292599">
<ele>137.39999999999998</ele>
<time>2023-05-17T11:32:15Z</time>
</trkpt>
<trkpt lat="49.08219295553863" lon="8.563669938594103">
<ele>137.20000000000005</ele>
<time>2023-05-17T11:32:16Z</time>
</trkpt>
<trkpt lat="49.082156997174025" lon="8.56364294886589">
<ele>137.20000000000005</ele>
<time>2023-05-17T11:32:17Z</time>
</trkpt>
<trkpt lat="49.082112992182374" lon="8.563621994107962">
<ele>137.20000000000005</ele>
<time>2023-05-17T11:32:18Z</time>
</trkpt>
<trkpt lat="49.08206697553396" lon="8.56359793804586">
<ele>137</ele>
<time>2023-05-17T11:32:19Z</time>
</trkpt>
<trkpt lat="49.08201995305717" lon="8.563571954146028">
<ele>137</ele>
<time>2023-05-17T11:32:20Z</time>
</trkpt>
<trkpt lat="49.08197494223714" lon="8.56353691779077">
<ele>136.79999999999995</ele>
<time>2023-05-17T11:32:21Z</time>
</trkpt>
<trkpt lat="49.08193496055901" lon="8.563492996618152">
<ele>136.79999999999995</ele>
<time>2023-05-17T11:32:22Z</time>
</trkpt>
<trkpt lat="49.081902941688895" lon="8.56344798579812">
<ele>136.60000000000002</ele>
<time>2023-05-17T11:32:23Z</time>
</trkpt>
<trkpt lat="49.081877963617444" lon="8.563406998291612">
<ele>136.60000000000002</ele>
<time>2023-05-17T11:32:24Z</time>
</trkpt>
<trkpt lat="49.081857930868864" lon="8.563371961936355">
<ele>136.39999999999998</ele>
<time>2023-05-17T11:32:25Z</time>
</trkpt>
<trkpt lat="49.081841921433806" lon="8.56333994306624">
<ele>136.39999999999998</ele>
<time>2023-05-17T11:32:26Z</time>
</trkpt>
<trkpt lat="49.081834964454174" lon="8.563314964994788">
<ele>136.39999999999998</ele>
<time>2023-05-17T11:32:27Z</time>
</trkpt>
<trkpt lat="49.081836976110935" lon="8.563289986923337">
<ele>136.20000000000005</ele>
<time>2023-05-17T11:32:28Z</time>
</trkpt>
<trkpt lat="49.081841921433806" lon="8.563267942517996">
<ele>136.20000000000005</ele>
<time>2023-05-17T11:32:29Z</time>
</trkpt>
<trkpt lat="49.08185197971761" lon="8.563252938911319">
<ele>136.20000000000005</ele>
<time>2023-05-17T11:32:30Z</time>
</trkpt>
<trkpt lat="49.081859942525625" lon="8.563241958618164">
<ele>136.20000000000005</ele>
<time>2023-05-17T11:32:31Z</time>
</trkpt>
<trkpt lat="49.08186296001077" lon="8.5632349178195">
<ele>136.20000000000005</ele>
<time>2023-05-17T11:32:32Z</time>
</trkpt>
<trkpt lat="49.08186296001077" lon="8.56323298998177">
<ele>136</ele>
<time>2023-05-17T11:32:33Z</time>
</trkpt>
<trkpt lat="49.08189196139574" lon="8.56319191865623">
<ele>136</ele>
<time>2023-05-17T11:32:33Z</time>
</trkpt>
<trkpt lat="49.081901935860515" lon="8.563164928928018">
<ele>136</ele>
<time>2023-05-17T11:32:34Z</time>
</trkpt>
<trkpt lat="49.08191492781043" lon="8.563132993876934">
<ele>136</ele>
<time>2023-05-17T11:32:35Z</time>
</trkpt>
<trkpt lat="49.08193194307387" lon="8.563097957521677">
<ele>136</ele>
<time>2023-05-17T11:32:36Z</time>
</trkpt>
<trkpt lat="49.081944935023785" lon="8.563057975843549">
<ele>136</ele>
<time>2023-05-17T11:32:37Z</time>
</trkpt>
<trkpt lat="49.08196195028722" lon="8.56301698833704">
<ele>136</ele>
<time>2023-05-17T11:32:38Z</time>
</trkpt>
<trkpt lat="49.0819769538939" lon="8.56297499500215">
<ele>136</ele>
<time>2023-05-17T11:32:39Z</time>
</trkpt>
<trkpt lat="49.08199296332896" lon="8.56292998418212">
<ele>136</ele>
<time>2023-05-17T11:32:40Z</time>
</trkpt>
<trkpt lat="49.082007966935635" lon="8.56288698501885">
<ele>136</ele>
<time>2023-05-17T11:32:41Z</time>
</trkpt>
<trkpt lat="49.08202196471393" lon="8.562839962542057">
<ele>136</ele>
<time>2023-05-17T11:32:42Z</time>
</trkpt>
<trkpt lat="49.082032945007086" lon="8.562797969207168">
<ele>136</ele>
<time>2023-05-17T11:32:43Z</time>
</trkpt>
<trkpt lat="49.08204694278538" lon="8.562751952558756">
<ele>136</ele>
<time>2023-05-17T11:32:44Z</time>
</trkpt>
<trkpt lat="49.08206295222044" lon="8.562702918425202">
<ele>136</ele>
<time>2023-05-17T11:32:45Z</time>
</trkpt>
<trkpt lat="49.08207996748388" lon="8.562649944797158">
<ele>136</ele>
<time>2023-05-17T11:32:46Z</time>
</trkpt>
<trkpt lat="49.082094971090555" lon="8.562592947855592">
<ele>136</ele>
<time>2023-05-17T11:32:47Z</time>
</trkpt>
<trkpt lat="49.08210494555533" lon="8.562531927600503">
<ele>136</ele>
<time>2023-05-17T11:32:48Z</time>
</trkpt>
<trkpt lat="49.0821149200201" lon="8.562471996992826">
<ele>136</ele>
<time>2023-05-17T11:32:49Z</time>
</trkpt>
<trkpt lat="49.08212497830391" lon="8.562406953424215">
<ele>136</ele>
<time>2023-05-17T11:32:50Z</time>
</trkpt>
<trkpt lat="49.082137970253825" lon="8.562336964532733">
<ele>135.79999999999995</ele>
<time>2023-05-17T11:32:51Z</time>
</trkpt>
<trkpt lat="49.08215196803212" lon="8.562267981469631">
<ele>135.79999999999995</ele>
<time>2023-05-17T11:32:52Z</time>
</trkpt>
<trkpt lat="49.08216797746718" lon="8.562199920415878">
<ele>135.79999999999995</ele>
<time>2023-05-17T11:32:53Z</time>
</trkpt>
<trkpt lat="49.082182981073856" lon="8.562131943181157">
<ele>135.79999999999995</ele>
<time>2023-05-17T11:32:54Z</time>
</trkpt>
<trkpt lat="49.082199996337295" lon="8.562064971774817">
<ele>135.79999999999995</ele>
<time>2023-05-17T11:32:55Z</time>
</trkpt>
<trkpt lat="49.08221994526684" lon="8.561997916549444">
<ele>135.60000000000002</ele>
<time>2023-05-17T11:32:56Z</time>
</trkpt>
<trkpt lat="49.08223494887352" lon="8.561932956799865">
<ele>135.60000000000002</ele>
<time>2023-05-17T11:32:57Z</time>
</trkpt>
<trkpt lat="49.08225196413696" lon="8.561866991221905">
<ele>135.39999999999998</ele>
<time>2023-05-17T11:32:58Z</time>
</trkpt>
<trkpt lat="49.082267973572016" lon="8.561797924339771">
<ele>135.39999999999998</ele>
<time>2023-05-17T11:32:59Z</time>
</trkpt>
<trkpt lat="49.082287922501564" lon="8.561732964590192">
<ele>135.20000000000005</ele>
<time>2023-05-17T11:33:00Z</time>
</trkpt>
<trkpt lat="49.08230694942176" lon="8.56166792102158">
<ele>135.20000000000005</ele>
<time>2023-05-17T11:33:01Z</time>
</trkpt>
<trkpt lat="49.082327987998724" lon="8.561602961272001">
<ele>135.20000000000005</ele>
<time>2023-05-17T11:33:02Z</time>
</trkpt>
<trkpt lat="49.082351960241795" lon="8.561536995694041">
<ele>135.20000000000005</ele>
<time>2023-05-17T11:33:03Z</time>
</trkpt>
<trkpt lat="49.082376938313246" lon="8.561467928811908">
<ele>135</ele>
<time>2023-05-17T11:33:04Z</time>
</trkpt>
<trkpt lat="49.08240292221308" lon="8.561399951577187">
<ele>134.79999999999995</ele>
<time>2023-05-17T11:33:05Z</time>
</trkpt>
<trkpt lat="49.08243292942643" lon="8.561331974342465">
<ele>134.60000000000002</ele>
<time>2023-05-17T11:33:06Z</time>
</trkpt>
<trkpt lat="49.082461930811405" lon="8.561261985450983">
<ele>134.39999999999998</ele>
<time>2023-05-17T11:33:07Z</time>
</trkpt>
<trkpt lat="49.08249294385314" lon="8.561187973245978">
<ele>134.20000000000005</ele>
<time>2023-05-17T11:33:08Z</time>
</trkpt>
<trkpt lat="49.082526974380016" lon="8.561111949384212">
<ele>133.79999999999995</ele>
<time>2023-05-17T11:33:09Z</time>
</trkpt>
<trkpt lat="49.08255999907851" lon="8.561034919694066">
<ele>133.60000000000002</ele>
<time>2023-05-17T11:33:10Z</time>
</trkpt>
<trkpt lat="49.08259495161474" lon="8.560957973822951">
<ele>133.20000000000005</ele>
<time>2023-05-17T11:33:11Z</time>
</trkpt>
<trkpt lat="49.08262797631323" lon="8.560877926647663">
<ele>133</ele>
<time>2023-05-17T11:33:12Z</time>
</trkpt>
<trkpt lat="49.08266494050622" lon="8.560801986604929">
<ele>132.79999999999995</ele>
<time>2023-05-17T11:33:13Z</time>
</trkpt>
<trkpt lat="49.08270198851824" lon="8.560727974399924">
<ele>132.39999999999998</ele>
<time>2023-05-17T11:33:14Z</time>
</trkpt>
<trkpt lat="49.082739958539605" lon="8.560656979680061">
<ele>132.20000000000005</ele>
<time>2023-05-17T11:33:15Z</time>
</trkpt>
<trkpt lat="49.08277692273259" lon="8.560586990788579">
<ele>131.79999999999995</ele>
<time>2023-05-17T11:33:16Z</time>
</trkpt>
<trkpt lat="49.08281497657299" lon="8.560517923906446">
<ele>131.60000000000002</ele>
<time>2023-05-17T11:33:17Z</time>
</trkpt>
<trkpt lat="49.08285294659436" lon="8.560444917529821">
<ele>131.39999999999998</ele>
<time>2023-05-17T11:33:18Z</time>
</trkpt>
<trkpt lat="49.08289493992925" lon="8.560371994972229">
<ele>131</ele>
<time>2023-05-17T11:33:19Z</time>
</trkpt>
<trkpt lat="49.082932993769646" lon="8.560292953625321">
<ele>130.79999999999995</ele>
<time>2023-05-17T11:33:20Z</time>
</trkpt>
<trkpt lat="49.08296694047749" lon="8.560207961127162">
<ele>130.39999999999998</ele>
<time>2023-05-17T11:33:21Z</time>
</trkpt>
<trkpt lat="49.082999965175986" lon="8.560124980285764">
<ele>130.20000000000005</ele>
<time>2023-05-17T11:33:22Z</time>
</trkpt>
<trkpt lat="49.08303298987448" lon="8.560037976130843">
<ele>130</ele>
<time>2023-05-17T11:33:23Z</time>
</trkpt>
<trkpt lat="49.08306794241071" lon="8.559954995289445">
<ele>129.60000000000002</ele>
<time>2023-05-17T11:33:24Z</time>
</trkpt>
<trkpt lat="49.083106918260455" lon="8.559872936457396">
<ele>129.39999999999998</ele>
<time>2023-05-17T11:33:25Z</time>
</trkpt>
<trkpt lat="49.083146983757615" lon="8.5597949847579">
<ele>129.20000000000005</ele>
<time>2023-05-17T11:33:26Z</time>
</trkpt>
<trkpt lat="49.08318696543574" lon="8.559716949239373">
<ele>128.79999999999995</ele>
<time>2023-05-17T11:33:27Z</time>
</trkpt>
<trkpt lat="49.08322493545711" lon="8.559639919549227">
<ele>128.60000000000002</ele>
<time>2023-05-17T11:33:28Z</time>
</trkpt>
<trkpt lat="49.08326491713524" lon="8.559567919000983">
<ele>128.39999999999998</ele>
<time>2023-05-17T11:33:29Z</time>
</trkpt>
<trkpt lat="49.0833049826324" lon="8.5594979301095">
<ele>128.20000000000005</ele>
<time>2023-05-17T11:33:30Z</time>
</trkpt>
<trkpt lat="49.083342952653766" lon="8.559427941218019">
<ele>128</ele>
<time>2023-05-17T11:33:31Z</time>
</trkpt>
<trkpt lat="49.08338192850351" lon="8.559359963983297">
<ele>128</ele>
<time>2023-05-17T11:33:32Z</time>
</trkpt>
<trkpt lat="49.08342199400067" lon="8.559296932071447">
<ele>127.79999999999995</ele>
<time>2023-05-17T11:33:33Z</time>
</trkpt>
<trkpt lat="49.08345795236528" lon="8.55923691764474">
<ele>127.79999999999995</ele>
<time>2023-05-17T11:33:34Z</time>
</trkpt>
<trkpt lat="49.083492988720536" lon="8.559181932359934">
<ele>127.79999999999995</ele>
<time>2023-05-17T11:33:35Z</time>
</trkpt>
<trkpt lat="49.08352299593389" lon="8.559131976217031">
<ele>127.60000000000002</ele>
<time>2023-05-17T11:33:36Z</time>
</trkpt>
<trkpt lat="49.083551997318864" lon="8.55908495374024">
<ele>127.60000000000002</ele>
<time>2023-05-17T11:33:37Z</time>
</trkpt>
<trkpt lat="49.08358493819833" lon="8.559039942920208">
<ele>127.60000000000002</ele>
<time>2023-05-17T11:33:38Z</time>
</trkpt>
<trkpt lat="49.08361695706844" lon="8.55899996124208">
<ele>127.60000000000002</ele>
<time>2023-05-17T11:33:39Z</time>
</trkpt>
<trkpt lat="49.0836469642818" lon="8.558971965685487">
<ele>127.60000000000002</ele>
<time>2023-05-17T11:33:40Z</time>
</trkpt>
<trkpt lat="49.08367998898029" lon="8.558951932936907">
<ele>127.60000000000002</ele>
<time>2023-05-17T11:33:41Z</time>
</trkpt>
<trkpt lat="49.08370999619365" lon="8.558939946815372">
<ele>127.60000000000002</ele>
<time>2023-05-17T11:33:42Z</time>
</trkpt>
<trkpt lat="49.08374293707311" lon="8.55893298983574">
<ele>127.39999999999998</ele>
<time>2023-05-17T11:33:43Z</time>
</trkpt>
<trkpt lat="49.08377495594323" lon="8.558922931551933">
<ele>127.39999999999998</ele>
<time>2023-05-17T11:33:44Z</time>
</trkpt>
<trkpt lat="49.08380496315658" lon="8.558907927945256">
<ele>127.39999999999998</ele>
<time>2023-05-17T11:33:45Z</time>
</trkpt>
<trkpt lat="49.083832958713174" lon="8.558884961530566">
<ele>127.39999999999998</ele>
<time>2023-05-17T11:33:46Z</time>
</trkpt>
<trkpt lat="49.08386196009815" lon="8.558852942660451">
<ele>127.60000000000002</ele>
<time>2023-05-17T11:33:47Z</time>
</trkpt>
<trkpt lat="49.08388299867511" lon="8.558812960982323">
<ele>127.60000000000002</ele>
<time>2023-05-17T11:33:48Z</time>
</trkpt>
<trkpt lat="49.083901941776276" lon="8.558762921020389">
<ele>127.60000000000002</ele>
<time>2023-05-17T11:33:49Z</time>
</trkpt>
<trkpt lat="49.08391292206943" lon="8.558706929907203">
<ele>127.60000000000002</ele>
<time>2023-05-17T11:33:50Z</time>
</trkpt>
<trkpt lat="49.08392792567611" lon="8.558651944622397">
<ele>127.60000000000002</ele>
<time>2023-05-17T11:33:51Z</time>
</trkpt>
<trkpt lat="49.08394695259631" lon="8.558607939630747">
<ele>127.60000000000002</ele>
<time>2023-05-17T11:33:52Z</time>
</trkpt>
<trkpt lat="49.083961956202984" lon="8.558554966002703">
<ele>127.60000000000002</ele>
<time>2023-05-17T11:33:53Z</time>
</trkpt>
<trkpt lat="49.08397193066776" lon="8.558497969061136">
<ele>127.60000000000002</ele>
<time>2023-05-17T11:33:54Z</time>
</trkpt>
<trkpt lat="49.083984922617674" lon="8.558449940755963">
<ele>127.60000000000002</ele>
<time>2023-05-17T11:33:55Z</time>
</trkpt>
<trkpt lat="49.08399699255824" lon="8.558392943814397">
<ele>127.60000000000002</ele>
<time>2023-05-17T11:33:56Z</time>
</trkpt>
<trkpt lat="49.08401694148779" lon="8.558352962136269">
<ele>127.60000000000002</ele>
<time>2023-05-17T11:33:57Z</time>
</trkpt>
<trkpt lat="49.08403697423637" lon="8.558317925781012">
<ele>127.79999999999995</ele>
<time>2023-05-17T11:33:58Z</time>
</trkpt>
<trkpt lat="49.08405298367143" lon="8.558276938274503">
<ele>127.79999999999995</ele>
<time>2023-05-17T11:33:59Z</time>
</trkpt>
<trkpt lat="49.084072932600975" lon="8.558239974081516">
<ele>127.79999999999995</ele>
<time>2023-05-17T11:34:00Z</time>
</trkpt>
<trkpt lat="49.08409698866308" lon="8.558201920241117">
<ele>127.79999999999995</ele>
<time>2023-05-17T11:34:01Z</time>
</trkpt>
<trkpt lat="49.08411995507777" lon="8.558169985190034">
<ele>128</ele>
<time>2023-05-17T11:34:02Z</time>
</trkpt>
<trkpt lat="49.08415297977626" lon="8.558126986026764">
<ele>128</ele>
<time>2023-05-17T11:34:03Z</time>
</trkpt>
<trkpt lat="49.08417192287743" lon="8.55809697881341">
<ele>128</ele>
<time>2023-05-17T11:34:04Z</time>
</trkpt>
<trkpt lat="49.08419195562601" lon="8.558047944679856">
<ele>128</ele>
<time>2023-05-17T11:34:05Z</time>
</trkpt>
<trkpt lat="49.08421198837459" lon="8.558001928031445">
<ele>128</ele>
<time>2023-05-17T11:34:06Z</time>
</trkpt>
<trkpt lat="49.08422992564738" lon="8.557957923039794">
<ele>128</ele>
<time>2023-05-17T11:34:07Z</time>
</trkpt>
<trkpt lat="49.084241995587945" lon="8.557916935533285">
<ele>127.79999999999995</ele>
<time>2023-05-17T11:34:08Z</time>
</trkpt>
<trkpt lat="49.084244929254055" lon="8.557874942198396">
<ele>127.79999999999995</ele>
<time>2023-05-17T11:34:09Z</time>
</trkpt>
<trkpt lat="49.084242917597294" lon="8.557831943035126">
<ele>127.79999999999995</ele>
<time>2023-05-17T11:34:10Z</time>
</trkpt>
<trkpt lat="49.0842479467392" lon="8.557784920558333">
<ele>127.79999999999995</ele>
<time>2023-05-17T11:34:11Z</time>
</trkpt>
<trkpt lat="49.08427191898227" lon="8.557734964415431">
<ele>127.79999999999995</ele>
<time>2023-05-17T11:34:12Z</time>
</trkpt>
<trkpt lat="49.084282983094454" lon="8.557682996615767">
<ele>127.79999999999995</ele>
<time>2023-05-17T11:34:13Z</time>
</trkpt>
<trkpt lat="49.08429999835789" lon="8.557631950825453">
<ele>127.60000000000002</ele>
<time>2023-05-17T11:34:14Z</time>
</trkpt>
<trkpt lat="49.08431491814554" lon="8.55758199468255">
<ele>127.60000000000002</ele>
<time>2023-05-17T11:34:15Z</time>
</trkpt>
<trkpt lat="49.084329921752214" lon="8.557532960548997">
<ele>127.39999999999998</ele>
<time>2023-05-17T11:34:16Z</time>
</trkpt>
<trkpt lat="49.08434299752116" lon="8.557477975264192">
<ele>127.20000000000005</ele>
<time>2023-05-17T11:34:17Z</time>
</trkpt>
<trkpt lat="49.0843549836427" lon="8.557401951402426">
<ele>126.79999999999995</ele>
<time>2023-05-17T11:34:18Z</time>
</trkpt>
<trkpt lat="49.08435992896557" lon="8.557331962510943">
<ele>126.39999999999998</ele>
<time>2023-05-17T11:34:19Z</time>
</trkpt>
<trkpt lat="49.08437795005739" lon="8.557257950305939">
<ele>126</ele>
<time>2023-05-17T11:34:20Z</time>
</trkpt>
<trkpt lat="49.084391947835684" lon="8.557194918394089">
<ele>125.60000000000002</ele>
<time>2023-05-17T11:34:21Z</time>
</trkpt>
<trkpt lat="49.08438993617892" lon="8.557122917845845">
<ele>125.20000000000005</ele>
<time>2023-05-17T11:34:22Z</time>
</trkpt>
<trkpt lat="49.08439697697759" lon="8.557039937004447">
<ele>124.79999999999995</ele>
<time>2023-05-17T11:34:23Z</time>
</trkpt>
<trkpt lat="49.08440192230046" lon="8.55695997364819">
<ele>124.39999999999998</ele>
<time>2023-05-17T11:34:24Z</time>
</trkpt>
<trkpt lat="49.084416925907135" lon="8.556886967271566">
<ele>124</ele>
<time>2023-05-17T11:34:25Z</time>
</trkpt>
<trkpt lat="49.084434946998954" lon="8.556811949238181">
<ele>123.60000000000002</ele>
<time>2023-05-17T11:34:26Z</time>
</trkpt>
<trkpt lat="49.084459925070405" lon="8.556739948689938">
<ele>123.39999999999998</ele>
<time>2023-05-17T11:34:27Z</time>
</trkpt>
<trkpt lat="49.084481969475746" lon="8.556671971455216">
<ele>123</ele>
<time>2023-05-17T11:34:28Z</time>
</trkpt>
<trkpt lat="49.084501918405294" lon="8.556601982563734">
<ele>122.79999999999995</ele>
<time>2023-05-17T11:34:29Z</time>
</trkpt>
<trkpt lat="49.08451692201197" lon="8.556517995893955">
<ele>122.60000000000002</ele>
<time>2023-05-17T11:34:30Z</time>
</trkpt>
<trkpt lat="49.08453192561865" lon="8.556439960375428">
<ele>122.39999999999998</ele>
<time>2023-05-17T11:34:31Z</time>
</trkpt>
<trkpt lat="49.084541983902454" lon="8.55635798536241">
<ele>122.20000000000005</ele>
<time>2023-05-17T11:34:32Z</time>
</trkpt>
<trkpt lat="49.08454994671047" lon="8.55627492070198">
<ele>122</ele>
<time>2023-05-17T11:34:33Z</time>
</trkpt>
<trkpt lat="49.08455497585237" lon="8.556194957345724">
<ele>121.79999999999995</ele>
<time>2023-05-17T11:34:34Z</time>
</trkpt>
<trkpt lat="49.08455799333751" lon="8.556117927655578">
<ele>121.60000000000002</ele>
<time>2023-05-17T11:34:35Z</time>
</trkpt>
<trkpt lat="49.08455799333751" lon="8.556041987612844">
<ele>121.39999999999998</ele>
<time>2023-05-17T11:34:36Z</time>
</trkpt>
<trkpt lat="49.08455992117524" lon="8.5559699870646">
<ele>121.20000000000005</ele>
<time>2023-05-17T11:34:37Z</time>
</trkpt>
<trkpt lat="49.084561932832" lon="8.555899998173118">
<ele>121.20000000000005</ele>
<time>2023-05-17T11:34:38Z</time>
</trkpt>
<trkpt lat="49.084561932832" lon="8.555834954604506">
<ele>121.20000000000005</ele>
<time>2023-05-17T11:34:39Z</time>
</trkpt>
<trkpt lat="49.08456293866038" lon="8.555769994854927">
<ele>121</ele>
<time>2023-05-17T11:34:40Z</time>
</trkpt>
<trkpt lat="49.084567967802286" lon="8.555706962943077">
<ele>121</ele>
<time>2023-05-17T11:34:41Z</time>
</trkpt>
<trkpt lat="49.08457492478192" lon="8.555641919374466">
<ele>120.79999999999995</ele>
<time>2023-05-17T11:34:42Z</time>
</trkpt>
<trkpt lat="49.084589928388596" lon="8.555564973503351">
<ele>120.79999999999995</ele>
<time>2023-05-17T11:34:43Z</time>
</trkpt>
<trkpt lat="49.084607949480414" lon="8.555492972955108">
<ele>120.60000000000002</ele>
<time>2023-05-17T11:34:44Z</time>
</trkpt>
<trkpt lat="49.08462496474385" lon="8.555429941043258">
<ele>120.60000000000002</ele>
<time>2023-05-17T11:34:45Z</time>
</trkpt>
<trkpt lat="49.08463795669377" lon="8.555364981293678">
<ele>120.39999999999998</ele>
<time>2023-05-17T11:34:46Z</time>
</trkpt>
<trkpt lat="49.08465798944235" lon="8.555296920239925">
<ele>120.39999999999998</ele>
<time>2023-05-17T11:34:47Z</time>
</trkpt>
<trkpt lat="49.084672993049026" lon="8.555221986025572">
<ele>120.20000000000005</ele>
<time>2023-05-17T11:34:48Z</time>
</trkpt>
<trkpt lat="49.08469193615019" lon="8.5551549308002">
<ele>120.20000000000005</ele>
<time>2023-05-17T11:34:49Z</time>
</trkpt>
<trkpt lat="49.084719931706786" lon="8.555082930251956">
<ele>120</ele>
<time>2023-05-17T11:34:50Z</time>
</trkpt>
<trkpt lat="49.084746921435" lon="8.555024927482009">
<ele>120</ele>
<time>2023-05-17T11:34:51Z</time>
</trkpt>
<trkpt lat="49.08476997166872" lon="8.554966924712062">
<ele>120</ele>
<time>2023-05-17T11:34:52Z</time>
</trkpt>
<trkpt lat="49.08478992059827" lon="8.554909927770495">
<ele>119.79999999999995</ele>
<time>2023-05-17T11:34:53Z</time>
</trkpt>
<trkpt lat="49.084804924204946" lon="8.554852930828929">
<ele>119.79999999999995</ele>
<time>2023-05-17T11:34:54Z</time>
</trkpt>
<trkpt lat="49.08481297083199" lon="8.554799957200885">
<ele>119.79999999999995</ele>
<time>2023-05-17T11:34:55Z</time>
</trkpt>
<trkpt lat="49.084822945296764" lon="8.554739942774177">
<ele>119.60000000000002</ele>
<time>2023-05-17T11:34:56Z</time>
</trkpt>
<trkpt lat="49.0848349314183" lon="8.554676994681358">
<ele>119.60000000000002</ele>
<time>2023-05-17T11:34:57Z</time>
</trkpt>
<trkpt lat="49.084844989702106" lon="8.554607927799225">
<ele>119.60000000000002</ele>
<time>2023-05-17T11:34:58Z</time>
</trkpt>
<trkpt lat="49.08485295251012" lon="8.554527964442968">
<ele>119.60000000000002</ele>
<time>2023-05-17T11:34:59Z</time>
</trkpt>
<trkpt lat="49.08485496416688" lon="8.554454958066344">
<ele>119.60000000000002</ele>
<time>2023-05-17T11:35:00Z</time>
</trkpt>
<trkpt lat="49.08485999330878" lon="8.554377928376198">
<ele>119.60000000000002</ele>
<time>2023-05-17T11:35:01Z</time>
</trkpt>
<trkpt lat="49.08485697582364" lon="8.554307939484715">
<ele>119.39999999999998</ele>
<time>2023-05-17T11:35:02Z</time>
</trkpt>
<trkpt lat="49.08485194668174" lon="8.554234933108091">
<ele>119.39999999999998</ele>
<time>2023-05-17T11:35:03Z</time>
</trkpt>
<trkpt lat="49.08484993502498" lon="8.55416695587337">
<ele>119.39999999999998</ele>
<time>2023-05-17T11:35:04Z</time>
</trkpt>
<trkpt lat="49.084841972216964" lon="8.554097972810268">
<ele>119.20000000000005</ele>
<time>2023-05-17T11:35:05Z</time>
</trkpt>
<trkpt lat="49.08483794890344" lon="8.554031923413277">
<ele>119.20000000000005</ele>
<time>2023-05-17T11:35:06Z</time>
</trkpt>
<trkpt lat="49.0848349314183" lon="8.553964952006936">
<ele>119.20000000000005</ele>
<time>2023-05-17T11:35:07Z</time>
</trkpt>
<trkpt lat="49.08483199775219" lon="8.553899992257357">
<ele>119</ele>
<time>2023-05-17T11:35:08Z</time>
</trkpt>
<trkpt lat="49.08482797443867" lon="8.553831931203604">
<ele>119</ele>
<time>2023-05-17T11:35:09Z</time>
</trkpt>
<trkpt lat="49.08482696861029" lon="8.553769988939166">
<ele>119</ele>
<time>2023-05-17T11:35:10Z</time>
</trkpt>
<trkpt lat="49.084821939468384" lon="8.553706957027316">
<ele>119</ele>
<time>2023-05-17T11:35:11Z</time>
</trkpt>
<trkpt lat="49.08481799997389" lon="8.55364996008575">
<ele>119</ele>
<time>2023-05-17T11:35:12Z</time>
</trkpt>
<trkpt lat="49.08481498248875" lon="8.553597992286086">
<ele>119</ele>
<time>2023-05-17T11:35:13Z</time>
</trkpt>
<trkpt lat="49.08480693586171" lon="8.55354493483901">
<ele>119</ele>
<time>2023-05-17T11:35:14Z</time>
</trkpt>
<trkpt lat="49.084802996367216" lon="8.553492967039347">
<ele>119</ele>
<time>2023-05-17T11:35:15Z</time>
</trkpt>
<trkpt lat="49.08480693586171" lon="8.553437981754541">
<ele>118.79999999999995</ele>
<time>2023-05-17T11:35:16Z</time>
</trkpt>
<trkpt lat="49.08481699414551" lon="8.553379978984594">
<ele>118.79999999999995</ele>
<time>2023-05-17T11:35:17Z</time>
</trkpt>
<trkpt lat="49.08482998609543" lon="8.553322982043028">
<ele>118.79999999999995</ele>
<time>2023-05-17T11:35:18Z</time>
</trkpt>
<trkpt lat="49.084844989702106" lon="8.553266990929842">
<ele>118.79999999999995</ele>
<time>2023-05-17T11:35:19Z</time>
</trkpt>
<trkpt lat="49.08485999330878" lon="8.553214939311147">
<ele>118.79999999999995</ele>
<time>2023-05-17T11:35:20Z</time>
</trkpt>
<trkpt lat="49.08487499691546" lon="8.553164983168244">
<ele>118.79999999999995</ele>
<time>2023-05-17T11:35:21Z</time>
</trkpt>
<trkpt lat="49.08489494584501" lon="8.553119972348213">
<ele>118.60000000000002</ele>
<time>2023-05-17T11:35:22Z</time>
</trkpt>
<trkpt lat="49.084911961108446" lon="8.55307194404304">
<ele>118.60000000000002</ele>
<time>2023-05-17T11:35:23Z</time>
</trkpt>
<trkpt lat="49.084934927523136" lon="8.55302995070815">
<ele>118.60000000000002</ele>
<time>2023-05-17T11:35:24Z</time>
</trkpt>
<trkpt lat="49.084951942786574" lon="8.552987957373261">
<ele>118.60000000000002</ele>
<time>2023-05-17T11:35:25Z</time>
</trkpt>
<trkpt lat="49.08496292307973" lon="8.55294294655323">
<ele>118.60000000000002</ele>
<time>2023-05-17T11:35:26Z</time>
</trkpt>
<trkpt lat="49.084974993020296" lon="8.5528979357332">
<ele>118.39999999999998</ele>
<time>2023-05-17T11:35:27Z</time>
</trkpt>
<trkpt lat="49.08499293029308" lon="8.552859965711832">
<ele>118.39999999999998</ele>
<time>2023-05-17T11:35:28Z</time>
</trkpt>
<trkpt lat="49.08500994555652" lon="8.552827946841717">
<ele>118.39999999999998</ele>
<time>2023-05-17T11:35:29Z</time>
</trkpt>
<trkpt lat="49.085019920021296" lon="8.552801962941885">
<ele>118.39999999999998</ele>
<time>2023-05-17T11:35:30Z</time>
</trkpt>
<trkpt lat="49.085036935284734" lon="8.552777990698814">
<ele>118.39999999999998</ele>
<time>2023-05-17T11:35:31Z</time>
</trkpt>
<trkpt lat="49.085037941113114" lon="8.552764998748899">
<ele>118.20000000000005</ele>
<time>2023-05-17T11:35:32Z</time>
</trkpt>
<trkpt lat="49.085037941113114" lon="8.552761981263757">
<ele>118.20000000000005</ele>
<time>2023-05-17T11:35:33Z</time>
</trkpt>
<trkpt lat="49.085039952769876" lon="8.552762987092137">
<ele>118.20000000000005</ele>
<time>2023-05-17T11:35:35Z</time>
</trkpt>
<trkpt lat="49.08508697524667" lon="8.552691992372274">
<ele>117.79999999999995</ele>
<time>2023-05-17T11:35:35Z</time>
</trkpt>
<trkpt lat="49.08510499633849" lon="8.5526629909873">
<ele>117.79999999999995</ele>
<time>2023-05-17T11:35:36Z</time>
</trkpt>
<trkpt lat="49.0851179882884" lon="8.552649999037385">
<ele>117.79999999999995</ele>
<time>2023-05-17T11:35:37Z</time>
</trkpt>
<trkpt lat="49.08513299189508" lon="8.552632983773947">
<ele>117.79999999999995</ele>
<time>2023-05-17T11:35:38Z</time>
</trkpt>
<trkpt lat="49.08515998162329" lon="8.55264195241034">
<ele>117.79999999999995</ele>
<time>2023-05-17T11:35:39Z</time>
</trkpt>
<trkpt lat="49.085191916674376" lon="8.552657961845398">
<ele>117.79999999999995</ele>
<time>2023-05-17T11:35:40Z</time>
</trkpt>
<trkpt lat="49.08522695302963" lon="8.55266198515892">
<ele>117.79999999999995</ele>
<time>2023-05-17T11:35:41Z</time>
</trkpt>
<trkpt lat="49.08525997772813" lon="8.552681934088469">
<ele>117.79999999999995</ele>
<time>2023-05-17T11:35:42Z</time>
</trkpt>
<trkpt lat="49.085296941921115" lon="8.552697943523526">
<ele>117.79999999999995</ele>
<time>2023-05-17T11:35:43Z</time>
</trkpt>
<trkpt lat="49.08533298410475" lon="8.552717976272106">
<ele>117.79999999999995</ele>
<time>2023-05-17T11:35:44Z</time>
</trkpt>
<trkpt lat="49.0853669308126" lon="8.55274697765708">
<ele>117.79999999999995</ele>
<time>2023-05-17T11:35:45Z</time>
</trkpt>
<trkpt lat="49.085402972996235" lon="8.55276994407177">
<ele>117.79999999999995</ele>
<time>2023-05-17T11:35:46Z</time>
</trkpt>
<trkpt lat="49.08543691970408" lon="8.552804980427027">
<ele>117.79999999999995</ele>
<time>2023-05-17T11:35:47Z</time>
</trkpt>
<trkpt lat="49.085467932745814" lon="8.552842950448394">
<ele>117.79999999999995</ele>
<time>2023-05-17T11:35:48Z</time>
</trkpt>
<trkpt lat="49.08550296910107" lon="8.552879998460412">
<ele>117.79999999999995</ele>
<time>2023-05-17T11:35:49Z</time>
</trkpt>
<trkpt lat="49.08553993329406" lon="8.552912939339876">
<ele>117.79999999999995</ele>
<time>2023-05-17T11:35:50Z</time>
</trkpt>
<trkpt lat="49.085576981306076" lon="8.552947975695133">
<ele>117.79999999999995</ele>
<time>2023-05-17T11:35:51Z</time>
</trkpt>
<trkpt lat="49.0856119338423" lon="8.552982928231359">
<ele>117.79999999999995</ele>
<time>2023-05-17T11:35:52Z</time>
</trkpt>
<trkpt lat="49.0856449585408" lon="8.553016958758235">
<ele>117.79999999999995</ele>
<time>2023-05-17T11:35:53Z</time>
</trkpt>
<trkpt lat="49.085679994896054" lon="8.553046965971589">
<ele>117.79999999999995</ele>
<time>2023-05-17T11:35:54Z</time>
</trkpt>
<trkpt lat="49.085721988230944" lon="8.553069932386279">
<ele>117.79999999999995</ele>
<time>2023-05-17T11:35:55Z</time>
</trkpt>
<trkpt lat="49.08575694076717" lon="8.553094994276762">
<ele>117.79999999999995</ele>
<time>2023-05-17T11:35:56Z</time>
</trkpt>
<trkpt lat="49.085787953808904" lon="8.553129946812987">
<ele>117.79999999999995</ele>
<time>2023-05-17T11:35:57Z</time>
</trkpt>
<trkpt lat="49.08582198433578" lon="8.553161965683103">
<ele>117.60000000000002</ele>
<time>2023-05-17T11:35:58Z</time>
</trkpt>
<trkpt lat="49.085854925215244" lon="8.553184932097793">
<ele>117.60000000000002</ele>
<time>2023-05-17T11:35:59Z</time>
</trkpt>
<trkpt lat="49.0858849324286" lon="8.55320194736123">
<ele>117.60000000000002</ele>
<time>2023-05-17T11:36:00Z</time>
</trkpt>
<trkpt lat="49.08591292798519" lon="8.55321996845305">
<ele>117.60000000000002</ele>
<time>2023-05-17T11:36:01Z</time>
</trkpt>
<trkpt lat="49.085941929370165" lon="8.553234972059727">
<ele>117.60000000000002</ele>
<time>2023-05-17T11:36:02Z</time>
</trkpt>
<trkpt lat="49.08596992492676" lon="8.553251987323165">
<ele>117.60000000000002</ele>
<time>2023-05-17T11:36:03Z</time>
</trkpt>
<trkpt lat="49.08599498681724" lon="8.553257938474417">
<ele>117.60000000000002</ele>
<time>2023-05-17T11:36:04Z</time>
</trkpt>
<trkpt lat="49.08601694740355" lon="8.553257938474417">
<ele>117.39999999999998</ele>
<time>2023-05-17T11:36:05Z</time>
</trkpt>
<trkpt lat="49.08603195101023" lon="8.553259950131178">
<ele>117.39999999999998</ele>
<time>2023-05-17T11:36:06Z</time>
</trkpt>
<trkpt lat="49.08603496849537" lon="8.553257938474417">
<ele>117.39999999999998</ele>
<time>2023-05-17T11:36:07Z</time>
</trkpt>
<trkpt lat="49.08603798598051" lon="8.553252993151546">
<ele>117.39999999999998</ele>
<time>2023-05-17T11:36:08Z</time>
</trkpt>
<trkpt lat="49.08603798598051" lon="8.5532449465245">
<ele>117.39999999999998</ele>
<time>2023-05-17T11:36:09Z</time>
</trkpt>
<trkpt lat="49.08603999763727" lon="8.553236983716488">
<ele>117.39999999999998</ele>
<time>2023-05-17T11:36:10Z</time>
</trkpt>
<trkpt lat="49.08604293130338" lon="8.553227931261063">
<ele>117.39999999999998</ele>
<time>2023-05-17T11:36:11Z</time>
</trkpt>
<trkpt lat="49.08604494296014" lon="8.553222985938191">
<ele>117.39999999999998</ele>
<time>2023-05-17T11:36:12Z</time>
</trkpt>
<trkpt lat="49.086046954616904" lon="8.55322198010981">
<ele>117.39999999999998</ele>
<time>2023-05-17T11:36:13Z</time>
</trkpt>
<trkpt lat="49.086049972102046" lon="8.553217956796288">
<ele>117.39999999999998</ele>
<time>2023-05-17T11:36:14Z</time>
</trkpt>
<trkpt lat="49.086047960445285" lon="8.553217956796288">
<ele>117.20000000000005</ele>
<time>2023-05-17T11:36:15Z</time>
</trkpt>
<trkpt lat="49.086111998185515" lon="8.553217956796288">
<ele>117.39999999999998</ele>
<time>2023-05-17T11:36:15Z</time>
</trkpt>
<trkpt lat="49.08613999374211" lon="8.553214939311147">
<ele>117.39999999999998</ele>
<time>2023-05-17T11:36:16Z</time>
</trkpt>
<trkpt lat="49.08616991713643" lon="8.553209993988276">
<ele>117.39999999999998</ele>
<time>2023-05-17T11:36:17Z</time>
</trkpt>
<trkpt lat="49.08620294183493" lon="8.55319993570447">
<ele>117.60000000000002</ele>
<time>2023-05-17T11:36:18Z</time>
</trkpt>
<trkpt lat="49.086237978190184" lon="8.553187949582934">
<ele>117.60000000000002</ele>
<time>2023-05-17T11:36:19Z</time>
</trkpt>
<trkpt lat="49.08627293072641" lon="8.553167916834354">
<ele>117.60000000000002</ele>
<time>2023-05-17T11:36:20Z</time>
</trkpt>
<trkpt lat="49.086307967081666" lon="8.553141932934523">
<ele>117.79999999999995</ele>
<time>2023-05-17T11:36:21Z</time>
</trkpt>
<trkpt lat="49.08633797429502" lon="8.553109997883439">
<ele>117.79999999999995</ele>
<time>2023-05-17T11:36:22Z</time>
</trkpt>
<trkpt lat="49.08636295236647" lon="8.553069932386279">
<ele>117.79999999999995</ele>
<time>2023-05-17T11:36:23Z</time>
</trkpt>
<trkpt lat="49.08638692460954" lon="8.553019976243377">
<ele>117.79999999999995</ele>
<time>2023-05-17T11:36:24Z</time>
</trkpt>
<trkpt lat="49.08640494570136" lon="8.55296297930181">
<ele>117.79999999999995</ele>
<time>2023-05-17T11:36:25Z</time>
</trkpt>
<trkpt lat="49.0864269901067" lon="8.552902964875102">
<ele>117.79999999999995</ele>
<time>2023-05-17T11:36:26Z</time>
</trkpt>
<trkpt lat="49.08644492737949" lon="8.552842950448394">
<ele>117.79999999999995</ele>
<time>2023-05-17T11:36:27Z</time>
</trkpt>
<trkpt lat="49.086459930986166" lon="8.552784947678447">
<ele>117.79999999999995</ele>
<time>2023-05-17T11:36:28Z</time>
</trkpt>
<trkpt lat="49.08647493459284" lon="8.552729962393641">
<ele>117.79999999999995</ele>
<time>2023-05-17T11:36:29Z</time>
</trkpt>
<trkpt lat="49.08648792654276" lon="8.552672965452075">
<ele>117.79999999999995</ele>
<time>2023-05-17T11:36:30Z</time>
</trkpt>
<trkpt lat="49.086502930149436" lon="8.55261697433889">
<ele>117.79999999999995</ele>
<time>2023-05-17T11:36:31Z</time>
</trkpt>
<trkpt lat="49.08651692792773" lon="8.552561989054084">
<ele>117.79999999999995</ele>
<time>2023-05-17T11:36:32Z</time>
</trkpt>
<trkpt lat="49.08652799203992" lon="8.552509937435389">
<ele>117.79999999999995</ele>
<time>2023-05-17T11:36:33Z</time>
</trkpt>
<trkpt lat="49.08653796650469" lon="8.552459981292486">
<ele>117.60000000000002</ele>
<time>2023-05-17T11:36:34Z</time>
</trkpt>
<trkpt lat="49.08654693514109" lon="8.552407929673791">
<ele>117.60000000000002</ele>
<time>2023-05-17T11:36:35Z</time>
</trkpt>
<trkpt lat="49.08655297011137" lon="8.552361996844411">
<ele>117.60000000000002</ele>
<time>2023-05-17T11:36:36Z</time>
</trkpt>
<trkpt lat="49.086561938747764" lon="8.55231698602438">
<ele>117.60000000000002</ele>
<time>2023-05-17T11:36:37Z</time>
</trkpt>
<trkpt lat="49.08657291904092" lon="8.552262922748923">
<ele>117.60000000000002</ele>
<time>2023-05-17T11:36:38Z</time>
</trkpt>
<trkpt lat="49.086582977324724" lon="8.552217995747924">
<ele>117.60000000000002</ele>
<time>2023-05-17T11:36:39Z</time>
</trkpt>
<trkpt lat="49.08659697510302" lon="8.552177930250764">
<ele>117.60000000000002</ele>
<time>2023-05-17T11:36:40Z</time>
</trkpt>
<trkpt lat="49.086604937911034" lon="8.552141971886158">
<ele>117.60000000000002</ele>
<time>2023-05-17T11:36:41Z</time>
</trkpt>
<trkpt lat="49.0866119787097" lon="8.552107941359282">
<ele>117.60000000000002</ele>
<time>2023-05-17T11:36:42Z</time>
</trkpt>
<trkpt lat="49.08661994151771" lon="8.552074916660786">
<ele>117.60000000000002</ele>
<time>2023-05-17T11:36:43Z</time>
</trkpt>
<trkpt lat="49.086627988144755" lon="8.5520379524678">
<ele>117.60000000000002</ele>
<time>2023-05-17T11:36:44Z</time>
</trkpt>
<trkpt lat="49.08663695678115" lon="8.551997970789671">
<ele>117.60000000000002</ele>
<time>2023-05-17T11:36:45Z</time>
</trkpt>
<trkpt lat="49.086647937074304" lon="8.551957989111543">
<ele>117.60000000000002</ele>
<time>2023-05-17T11:36:46Z</time>
</trkpt>
<trkpt lat="49.08665799535811" lon="8.551917923614383">
<ele>117.60000000000002</ele>
<time>2023-05-17T11:36:47Z</time>
</trkpt>
<trkpt lat="49.086667969822884" lon="8.551877941936255">
<ele>117.39999999999998</ele>
<time>2023-05-17T11:36:48Z</time>
</trkpt>
<trkpt lat="49.08667794428766" lon="8.551834942772985">
<ele>117.39999999999998</ele>
<time>2023-05-17T11:36:49Z</time>
</trkpt>
<trkpt lat="49.08668699674308" lon="8.551787920296192">
<ele>117.39999999999998</ele>
<time>2023-05-17T11:36:50Z</time>
</trkpt>
<trkpt lat="49.086691942065954" lon="8.551742993295193">
<ele>117.39999999999998</ele>
<time>2023-05-17T11:36:51Z</time>
</trkpt>
<trkpt lat="49.086694959551096" lon="8.551696976646781">
<ele>117.39999999999998</ele>
<time>2023-05-17T11:36:52Z</time>
</trkpt>
<trkpt lat="49.08670292235911" lon="8.55165196582675">
<ele>117.39999999999998</ele>
<time>2023-05-17T11:36:53Z</time>
</trkpt>
<trkpt lat="49.08670996315777" lon="8.551602931693196">
<ele>117.39999999999998</ele>
<time>2023-05-17T11:36:54Z</time>
</trkpt>
<trkpt lat="49.08671993762255" lon="8.551554987207055">
<ele>117.39999999999998</ele>
<time>2023-05-17T11:36:55Z</time>
</trkpt>
<trkpt lat="49.08673192374408" lon="8.551506958901882">
<ele>117.39999999999998</ele>
<time>2023-05-17T11:36:56Z</time>
</trkpt>
<trkpt lat="49.08674298785627" lon="8.551454991102219">
<ele>117.39999999999998</ele>
<time>2023-05-17T11:36:57Z</time>
</trkpt>
<trkpt lat="49.08674793317914" lon="8.551401933655143">
<ele>117.39999999999998</ele>
<time>2023-05-17T11:36:58Z</time>
</trkpt>
<trkpt lat="49.086754973977804" lon="8.551344936713576">
<ele>117.60000000000002</ele>
<time>2023-05-17T11:36:59Z</time>
</trkpt>
<trkpt lat="49.086759919300675" lon="8.551289951428771">
<ele>117.60000000000002</ele>
<time>2023-05-17T11:37:00Z</time>
</trkpt>
<trkpt lat="49.08676494844258" lon="8.551236977800727">
<ele>117.60000000000002</ele>
<time>2023-05-17T11:37:01Z</time>
</trkpt>
<trkpt lat="49.08676696009934" lon="8.55117998085916">
<ele>117.60000000000002</ele>
<time>2023-05-17T11:37:02Z</time>
</trkpt>
<trkpt lat="49.08676696009934" lon="8.551122983917594">
<ele>117.60000000000002</ele>
<time>2023-05-17T11:37:03Z</time>
</trkpt>
<trkpt lat="49.08676494844258" lon="8.551051989197731">
<ele>117.60000000000002</ele>
<time>2023-05-17T11:37:04Z</time>
</trkpt>
<trkpt lat="49.08676796592772" lon="8.550984933972359">
<ele>117.60000000000002</ele>
<time>2023-05-17T11:37:05Z</time>
</trkpt>
<trkpt lat="49.08676293678582" lon="8.550922991707921">
<ele>117.60000000000002</ele>
<time>2023-05-17T11:37:06Z</time>
</trkpt>
<trkpt lat="49.086759919300675" lon="8.550861971452832">
<ele>117.60000000000002</ele>
<time>2023-05-17T11:37:07Z</time>
</trkpt>
<trkpt lat="49.086757991462946" lon="8.550806986168027">
<ele>117.60000000000002</ele>
<time>2023-05-17T11:37:08Z</time>
</trkpt>
<trkpt lat="49.08675296232104" lon="8.550756946206093">
<ele>117.60000000000002</ele>
<time>2023-05-17T11:37:09Z</time>
</trkpt>
<trkpt lat="49.08674793317914" lon="8.55070497840643">
<ele>117.60000000000002</ele>
<time>2023-05-17T11:37:10Z</time>
</trkpt>
<trkpt lat="49.08674499951303" lon="8.550654938444495">
<ele>117.60000000000002</ele>
<time>2023-05-17T11:37:11Z</time>
</trkpt>
<trkpt lat="49.08674198202789" lon="8.550602970644832">
<ele>117.60000000000002</ele>
<time>2023-05-17T11:37:12Z</time>
</trkpt>
<trkpt lat="49.086737958714366" lon="8.550552930682898">
<ele>117.60000000000002</ele>
<time>2023-05-17T11:37:13Z</time>
</trkpt>
<trkpt lat="49.08673997037113" lon="8.550499957054853">
<ele>117.60000000000002</ele>
<time>2023-05-17T11:37:14Z</time>
</trkpt>
<trkpt lat="49.08673997037113" lon="8.550442960113287">
<ele>117.60000000000002</ele>
<time>2023-05-17T11:37:15Z</time>
</trkpt>
<trkpt lat="49.086734941229224" lon="8.550389986485243">
<ele>117.60000000000002</ele>
<time>2023-05-17T11:37:16Z</time>
</trkpt>
<trkpt lat="49.08672798424959" lon="8.550336929038167">
<ele>117.60000000000002</ele>
<time>2023-05-17T11:37:17Z</time>
</trkpt>
<trkpt lat="49.086716920137405" lon="8.55027498677373">
<ele>117.60000000000002</ele>
<time>2023-05-17T11:37:18Z</time>
</trkpt>
<trkpt lat="49.086712980642915" lon="8.550214972347021">
<ele>117.60000000000002</ele>
<time>2023-05-17T11:37:19Z</time>
</trkpt>
<trkpt lat="49.08670996315777" lon="8.550164932385087">
<ele>117.60000000000002</ele>
<time>2023-05-17T11:37:20Z</time>
</trkpt>
<trkpt lat="49.08670795150101" lon="8.550114976242185">
<ele>117.60000000000002</ele>
<time>2023-05-17T11:37:21Z</time>
</trkpt>
<trkpt lat="49.08670493401587" lon="8.55006292462349">
<ele>117.60000000000002</ele>
<time>2023-05-17T11:37:22Z</time>
</trkpt>
<trkpt lat="49.08670191653073" lon="8.550012968480587">
<ele>117.60000000000002</ele>
<time>2023-05-17T11:37:23Z</time>
</trkpt>
<trkpt lat="49.086699988693" lon="8.549962928518653">
<ele>117.60000000000002</ele>
<time>2023-05-17T11:37:24Z</time>
</trkpt>
<trkpt lat="49.086692947894335" lon="8.549909954890609">
<ele>117.60000000000002</ele>
<time>2023-05-17T11:37:25Z</time>
</trkpt>
<trkpt lat="49.08668699674308" lon="8.549851952120662">
<ele>117.60000000000002</ele>
<time>2023-05-17T11:37:26Z</time>
</trkpt>
<trkpt lat="49.08668297342956" lon="8.549791937693954">
<ele>117.60000000000002</ele>
<time>2023-05-17T11:37:27Z</time>
</trkpt>
<trkpt lat="49.08668196760118" lon="8.549727983772755">
<ele>117.60000000000002</ele>
<time>2023-05-17T11:37:28Z</time>
</trkpt>
<trkpt lat="49.08668297342956" lon="8.549661934375763">
<ele>117.60000000000002</ele>
<time>2023-05-17T11:37:29Z</time>
</trkpt>
<trkpt lat="49.08668993040919" lon="8.549594962969422">
<ele>117.39999999999998</ele>
<time>2023-05-17T11:37:30Z</time>
</trkpt>
<trkpt lat="49.08669797703624" lon="8.549521956592798">
<ele>117.39999999999998</ele>
<time>2023-05-17T11:37:31Z</time>
</trkpt>
<trkpt lat="49.08670292235911" lon="8.549452973529696">
<ele>117.39999999999998</ele>
<time>2023-05-17T11:37:32Z</time>
</trkpt>
<trkpt lat="49.08670694567263" lon="8.549381978809834">
<ele>117.39999999999998</ele>
<time>2023-05-17T11:37:33Z</time>
</trkpt>
<trkpt lat="49.086711974814534" lon="8.549307966604829">
<ele>117.39999999999998</ele>
<time>2023-05-17T11:37:34Z</time>
</trkpt>
<trkpt lat="49.086714992299676" lon="8.549237977713346">
<ele>117.39999999999998</ele>
<time>2023-05-17T11:37:35Z</time>
</trkpt>
<trkpt lat="49.08672496676445" lon="8.549172934144735">
<ele>117.39999999999998</ele>
<time>2023-05-17T11:37:36Z</time>
</trkpt>
<trkpt lat="49.086734941229224" lon="8.54911694303155">
<ele>117.20000000000005</ele>
<time>2023-05-17T11:37:37Z</time>
</trkpt>
<trkpt lat="49.08674793317914" lon="8.549057934433222">
<ele>117.20000000000005</ele>
<time>2023-05-17T11:37:38Z</time>
</trkpt>
<trkpt lat="49.08676494844258" lon="8.548999931663275">
<ele>117</ele>
<time>2023-05-17T11:37:39Z</time>
</trkpt>
<trkpt lat="49.086779952049255" lon="8.548934971913695">
<ele>117</ele>
<time>2023-05-17T11:37:40Z</time>
</trkpt>
<trkpt lat="49.08678992651403" lon="8.548866994678974">
<ele>116.79999999999995</ele>
<time>2023-05-17T11:37:41Z</time>
</trkpt>
<trkpt lat="49.086797973141074" lon="8.548799939453602">
<ele>116.60000000000002</ele>
<time>2023-05-17T11:37:42Z</time>
</trkpt>
<trkpt lat="49.08681197091937" lon="8.548732968047261">
<ele>116.39999999999998</ele>
<time>2023-05-17T11:37:43Z</time>
</trkpt>
<trkpt lat="49.086822951212525" lon="8.54866792447865">
<ele>116.20000000000005</ele>
<time>2023-05-17T11:37:44Z</time>
</trkpt>
<trkpt lat="49.0868329256773" lon="8.54860195890069">
<ele>116</ele>
<time>2023-05-17T11:37:45Z</time>
</trkpt>
<trkpt lat="49.086841978132725" lon="8.54853792116046">
<ele>116</ele>
<time>2023-05-17T11:37:46Z</time>
</trkpt>
<trkpt lat="49.0868519525975" lon="8.548479918390512">
<ele>115.79999999999995</ele>
<time>2023-05-17T11:37:47Z</time>
</trkpt>
<trkpt lat="49.086862932890654" lon="8.548417976126075">
<ele>115.79999999999995</ele>
<time>2023-05-17T11:37:48Z</time>
</trkpt>
<trkpt lat="49.08687198534608" lon="8.548361985012889">
<ele>115.79999999999995</ele>
<time>2023-05-17T11:37:49Z</time>
</trkpt>
<trkpt lat="49.08688195981085" lon="8.548297947272658">
<ele>115.60000000000002</ele>
<time>2023-05-17T11:37:50Z</time>
</trkpt>
<trkpt lat="49.08689495176077" lon="8.548232987523079">
<ele>115.60000000000002</ele>
<time>2023-05-17T11:37:51Z</time>
</trkpt>
<trkpt lat="49.086909955367446" lon="8.548166938126087">
<ele>115.39999999999998</ele>
<time>2023-05-17T11:37:52Z</time>
</trkpt>
<trkpt lat="49.086926970630884" lon="8.548096949234605">
<ele>115.39999999999998</ele>
<time>2023-05-17T11:37:53Z</time>
</trkpt>
<trkpt lat="49.08694792538881" lon="8.54802193120122">
<ele>115.20000000000005</ele>
<time>2023-05-17T11:37:54Z</time>
</trkpt>
<trkpt lat="49.086971981450915" lon="8.547942973673344">
<ele>115</ele>
<time>2023-05-17T11:37:55Z</time>
</trkpt>
<trkpt lat="49.08698799088597" lon="8.547862926498055">
<ele>114.79999999999995</ele>
<time>2023-05-17T11:37:56Z</time>
</trkpt>
<trkpt lat="49.08700693398714" lon="8.547791931778193">
<ele>114.60000000000002</ele>
<time>2023-05-17T11:37:57Z</time>
</trkpt>
<trkpt lat="49.08702998422086" lon="8.547724960371852">
<ele>114.39999999999998</ele>
<time>2023-05-17T11:37:58Z</time>
</trkpt>
<trkpt lat="49.08704993315041" lon="8.547657988965511">
<ele>114.20000000000005</ele>
<time>2023-05-17T11:37:59Z</time>
</trkpt>
<trkpt lat="49.08707692287862" lon="8.547556987032294">
<ele>114.20000000000005</ele>
<time>2023-05-17T11:38:00Z</time>
</trkpt>
<trkpt lat="49.08711497671902" lon="8.547481968998909">
<ele>114</ele>
<time>2023-05-17T11:38:01Z</time>
</trkpt>
<trkpt lat="49.087124951183796" lon="8.547416925430298">
<ele>114</ele>
<time>2023-05-17T11:38:02Z</time>
</trkpt>
<trkpt lat="49.087147917598486" lon="8.547347942367196">
<ele>113.79999999999995</ele>
<time>2023-05-17T11:38:03Z</time>
</trkpt>
<trkpt lat="49.087167950347066" lon="8.547284994274378">
<ele>114</ele>
<time>2023-05-17T11:38:04Z</time>
</trkpt>
<trkpt lat="49.08718295395374" lon="8.547227997332811">
<ele>114</ele>
<time>2023-05-17T11:38:05Z</time>
</trkpt>
<trkpt lat="49.08720298670232" lon="8.547169994562864">
<ele>114</ele>
<time>2023-05-17T11:38:06Z</time>
</trkpt>
<trkpt lat="49.08722192980349" lon="8.547109980136156">
<ele>114</ele>
<time>2023-05-17T11:38:07Z</time>
</trkpt>
<trkpt lat="49.08724296838045" lon="8.54705499485135">
<ele>114</ele>
<time>2023-05-17T11:38:08Z</time>
</trkpt>
<trkpt lat="49.08726291731" lon="8.547004954889417">
<ele>114</ele>
<time>2023-05-17T11:38:09Z</time>
</trkpt>
<trkpt lat="49.0872819442302" lon="8.546954998746514">
<ele>114</ele>
<time>2023-05-17T11:38:10Z</time>
</trkpt>
<trkpt lat="49.087296947836876" lon="8.546909987926483">
<ele>114.20000000000005</ele>
<time>2023-05-17T11:38:11Z</time>
</trkpt>
<trkpt lat="49.087312957271934" lon="8.54686296544969">
<ele>114.20000000000005</ele>
<time>2023-05-17T11:38:12Z</time>
</trkpt>
<trkpt lat="49.08732796087861" lon="8.54681795462966">
<ele>114.20000000000005</ele>
<time>2023-05-17T11:38:13Z</time>
</trkpt>
<trkpt lat="49.08734296448529" lon="8.54677495546639">
<ele>114.39999999999998</ele>
<time>2023-05-17T11:38:14Z</time>
</trkpt>
<trkpt lat="49.087359979748726" lon="8.5467329621315">
<ele>114.39999999999998</ele>
<time>2023-05-17T11:38:15Z</time>
</trkpt>
<trkpt lat="49.087376995012164" lon="8.546691974624991">
<ele>114.39999999999998</ele>
<time>2023-05-17T11:38:16Z</time>
</trkpt>
<trkpt lat="49.08738998696208" lon="8.546652998775244">
<ele>114.60000000000002</ele>
<time>2023-05-17T11:38:17Z</time>
</trkpt>
<trkpt lat="49.087401973083615" lon="8.546616956591606">
<ele>114.60000000000002</ele>
<time>2023-05-17T11:38:18Z</time>
</trkpt>
<trkpt lat="49.08741697669029" lon="8.54658292606473">
<ele>114.79999999999995</ele>
<time>2023-05-17T11:38:19Z</time>
</trkpt>
<trkpt lat="49.08742996864021" lon="8.546554930508137">
<ele>114.79999999999995</ele>
<time>2023-05-17T11:38:20Z</time>
</trkpt>
<trkpt lat="49.08743499778211" lon="8.54653992690146">
<ele>115</ele>
<time>2023-05-17T11:38:21Z</time>
</trkpt>
<trkpt lat="49.08743692561984" lon="8.54653799906373">
<ele>115</ele>
<time>2023-05-17T11:38:22Z</time>
</trkpt>
<trkpt lat="49.08743793144822" lon="8.54653699323535">
<ele>115.20000000000005</ele>
<time>2023-05-17T11:38:23Z</time>
</trkpt>
<trkpt lat="49.08743994310498" lon="8.546534981578588">
<ele>115.20000000000005</ele>
<time>2023-05-17T11:38:24Z</time>
</trkpt>
<trkpt lat="49.08748193643987" lon="8.546526934951544">
<ele>115.60000000000002</ele>
<time>2023-05-17T11:38:24Z</time>
</trkpt>
<trkpt lat="49.08749995753169" lon="8.54653699323535">
<ele>115.79999999999995</ele>
<time>2023-05-17T11:38:25Z</time>
</trkpt>
<trkpt lat="49.087521918118" lon="8.546552918851376">
<ele>115.79999999999995</ele>
<time>2023-05-17T11:38:26Z</time>
</trkpt>
<trkpt lat="49.08754295669496" lon="8.546569934114814">
<ele>115.79999999999995</ele>
<time>2023-05-17T11:38:27Z</time>
</trkpt>
<trkpt lat="49.08756692893803" lon="8.546589966863394">
<ele>115.79999999999995</ele>
<time>2023-05-17T11:38:28Z</time>
</trkpt>
<trkpt lat="49.08758696168661" lon="8.546609999611974">
<ele>116</ele>
<time>2023-05-17T11:38:29Z</time>
</trkpt>
<trkpt lat="49.0876099281013" lon="8.546632966026664">
<ele>116</ele>
<time>2023-05-17T11:38:30Z</time>
</trkpt>
<trkpt lat="49.08763297833502" lon="8.546661967411637">
<ele>116</ele>
<time>2023-05-17T11:38:31Z</time>
</trkpt>
<trkpt lat="49.08765695057809" lon="8.54668996296823">
<ele>116</ele>
<time>2023-05-17T11:38:32Z</time>
</trkpt>
<trkpt lat="49.08767991699278" lon="8.546726927161217">
<ele>116</ele>
<time>2023-05-17T11:38:33Z</time>
</trkpt>
<trkpt lat="49.08770699054003" lon="8.546762969344854">
<ele>116.20000000000005</ele>
<time>2023-05-17T11:38:34Z</time>
</trkpt>
<trkpt lat="49.08773498609662" lon="8.54679792188108">
<ele>116.20000000000005</ele>
<time>2023-05-17T11:38:35Z</time>
</trkpt>
<trkpt lat="49.08775996416807" lon="8.546829940751195">
<ele>116.20000000000005</ele>
<time>2023-05-17T11:38:36Z</time>
</trkpt>
<trkpt lat="49.08778494223952" lon="8.546857936307788">
<ele>116.20000000000005</ele>
<time>2023-05-17T11:38:37Z</time>
</trkpt>
<trkpt lat="49.087811931967735" lon="8.546887943521142">
<ele>116.20000000000005</ele>
<time>2023-05-17T11:38:38Z</time>
</trkpt>
<trkpt lat="49.08783992752433" lon="8.546917950734496">
<ele>116.20000000000005</ele>
<time>2023-05-17T11:38:39Z</time>
</trkpt>
<trkpt lat="49.08786993473768" lon="8.54694795794785">
<ele>116.20000000000005</ele>
<time>2023-05-17T11:38:40Z</time>
</trkpt>
<trkpt lat="49.087897930294275" lon="8.546977965161204">
<ele>116.20000000000005</ele>
<time>2023-05-17T11:38:41Z</time>
</trkpt>
<trkpt lat="49.08792492002249" lon="8.547004954889417">
<ele>116.20000000000005</ele>
<time>2023-05-17T11:38:42Z</time>
</trkpt>
<trkpt lat="49.08795299939811" lon="8.547027921304107">
<ele>116.20000000000005</ele>
<time>2023-05-17T11:38:43Z</time>
</trkpt>
<trkpt lat="49.087982922792435" lon="8.547051977366209">
<ele>116.20000000000005</ele>
<time>2023-05-17T11:38:44Z</time>
</trkpt>
<trkpt lat="49.08801192417741" lon="8.547071926295757">
<ele>116.20000000000005</ele>
<time>2023-05-17T11:38:45Z</time>
</trkpt>
<trkpt lat="49.08803799189627" lon="8.547091959044337">
<ele>116</ele>
<time>2023-05-17T11:38:46Z</time>
</trkpt>
<trkpt lat="49.088064981624484" lon="8.547107968479395">
<ele>116</ele>
<time>2023-05-17T11:38:47Z</time>
</trkpt>
<trkpt lat="49.088087948039174" lon="8.547122972086072">
<ele>116</ele>
<time>2023-05-17T11:38:48Z</time>
</trkpt>
<trkpt lat="49.088107980787754" lon="8.547141999006271">
<ele>116</ele>
<time>2023-05-17T11:38:49Z</time>
</trkpt>
<trkpt lat="49.08812298439443" lon="8.547164965420961">
<ele>116</ele>
<time>2023-05-17T11:38:50Z</time>
</trkpt>
<trkpt lat="49.088132958859205" lon="8.547189943492413">
<ele>116</ele>
<time>2023-05-17T11:38:51Z</time>
</trkpt>
<trkpt lat="49.08813798800111" lon="8.547212993726134">
<ele>116</ele>
<time>2023-05-17T11:38:52Z</time>
</trkpt>
<trkpt lat="49.08814293332398" lon="8.54722497984767">
<ele>116</ele>
<time>2023-05-17T11:38:53Z</time>
</trkpt>
<trkpt lat="49.0881469566375" lon="8.54722699150443">
<ele>116</ele>
<time>2023-05-17T11:38:54Z</time>
</trkpt>
<trkpt lat="49.08814997412264" lon="8.547262949869037">
<ele>116</ele>
<time>2023-05-17T11:38:55Z</time>
</trkpt>
<trkpt lat="49.088152991607785" lon="8.547276947647333">
<ele>116</ele>
<time>2023-05-17T11:38:56Z</time>
</trkpt>
<trkpt lat="49.08815994858742" lon="8.547281976789236">
<ele>116</ele>
<time>2023-05-17T11:38:57Z</time>
</trkpt>
<trkpt lat="49.08816497772932" lon="8.547286922112107">
<ele>116</ele>
<time>2023-05-17T11:38:58Z</time>
</trkpt>
<trkpt lat="49.08816799521446" lon="8.547289939597249">
<ele>116</ele>
<time>2023-05-17T11:38:59Z</time>
</trkpt>
<trkpt lat="49.08816992305219" lon="8.54729195125401">
<ele>116</ele>
<time>2023-05-17T11:39:00Z</time>
</trkpt>
<trkpt lat="49.08817193470895" lon="8.54729195125401">
<ele>116</ele>
<time>2023-05-17T11:39:01Z</time>
</trkpt>
<trkpt lat="49.08810295164585" lon="8.547232942655683">
<ele>115.20000000000005</ele>
<time>2023-05-17T11:39:04Z</time>
</trkpt>
<trkpt lat="49.08810697495937" lon="8.54722497984767">
<ele>115.20000000000005</ele>
<time>2023-05-17T11:39:05Z</time>
</trkpt>
<trkpt lat="49.088109992444515" lon="8.547216933220625">
<ele>115.20000000000005</ele>
<time>2023-05-17T11:39:06Z</time>
</trkpt>
<trkpt lat="49.088112926110625" lon="8.547207964584231">
<ele>115.20000000000005</ele>
<time>2023-05-17T11:39:07Z</time>
</trkpt>
<trkpt lat="49.08811694942415" lon="8.547201929613948">
<ele>115.20000000000005</ele>
<time>2023-05-17T11:39:08Z</time>
</trkpt>
<trkpt lat="49.08811996690929" lon="8.547196984291077">
<ele>115.20000000000005</ele>
<time>2023-05-17T11:39:09Z</time>
</trkpt>
<trkpt lat="49.08812298439443" lon="8.547187931835651">
<ele>115.20000000000005</ele>
<time>2023-05-17T11:39:10Z</time>
</trkpt>
<trkpt lat="49.0881279297173" lon="8.54718298651278">
<ele>115.20000000000005</ele>
<time>2023-05-17T11:39:11Z</time>
</trkpt>
<trkpt lat="49.088132958859205" lon="8.547176951542497">
<ele>115.20000000000005</ele>
<time>2023-05-17T11:39:12Z</time>
</trkpt>
<trkpt lat="49.08813999965787" lon="8.547172928228974">
<ele>115.20000000000005</ele>
<time>2023-05-17T11:39:13Z</time>
</trkpt>
<trkpt lat="49.08814494498074" lon="8.547171922400594">
<ele>115.20000000000005</ele>
<time>2023-05-17T11:39:14Z</time>
</trkpt>
<trkpt lat="49.08814796246588" lon="8.547169994562864">
<ele>115.20000000000005</ele>
<time>2023-05-17T11:39:15Z</time>
</trkpt>
<trkpt lat="49.08820495940745" lon="8.547156918793917">
<ele>114.79999999999995</ele>
<time>2023-05-17T11:39:15Z</time>
</trkpt>
<trkpt lat="49.08820294775069" lon="8.547164965420961">
<ele>114.79999999999995</ele>
<time>2023-05-17T11:39:16Z</time>
</trkpt>
<trkpt lat="49.088199930265546" lon="8.547176951542497">
<ele>114.79999999999995</ele>
<time>2023-05-17T11:39:17Z</time>
</trkpt>
<trkpt lat="49.088196996599436" lon="8.54718692600727">
<ele>114.79999999999995</ele>
<time>2023-05-17T11:39:18Z</time>
</trkpt>
<trkpt lat="49.08818995580077" lon="8.547187931835651">
<ele>114.79999999999995</ele>
<time>2023-05-17T11:39:19Z</time>
</trkpt>
<trkpt lat="49.08818693831563" lon="8.547192960977554">
<ele>114.79999999999995</ele>
<time>2023-05-17T11:39:20Z</time>
</trkpt>
<trkpt lat="49.08818199299276" lon="8.547191955149174">
<ele>114.79999999999995</ele>
<time>2023-05-17T11:39:21Z</time>
</trkpt>
<trkpt lat="49.088177969679236" lon="8.547191955149174">
<ele>114.79999999999995</ele>
<time>2023-05-17T11:39:22Z</time>
</trkpt>
<trkpt lat="49.088174952194095" lon="8.547191955149174">
<ele>114.60000000000002</ele>
<time>2023-05-17T11:39:22Z</time>
</trkpt>
<trkpt lat="49.08814494498074" lon="8.547157924622297">
<ele>114.79999999999995</ele>
<time>2023-05-17T11:39:24Z</time>
</trkpt>
<trkpt lat="49.08812994137406" lon="8.547149961814284">
<ele>114.60000000000002</ele>
<time>2023-05-17T11:39:25Z</time>
</trkpt>
<trkpt lat="49.088109992444515" lon="8.547134958207607">
<ele>114.60000000000002</ele>
<time>2023-05-17T11:39:26Z</time>
</trkpt>
<trkpt lat="49.088089959695935" lon="8.547122972086072">
<ele>114.60000000000002</ele>
<time>2023-05-17T11:39:27Z</time>
</trkpt>
<trkpt lat="49.088071938604116" lon="8.547116937115788">
<ele>114.60000000000002</ele>
<time>2023-05-17T11:39:28Z</time>
</trkpt>
<trkpt lat="49.088046960532665" lon="8.547109980136156">
<ele>114.60000000000002</ele>
<time>2023-05-17T11:39:29Z</time>
</trkpt>
<trkpt lat="49.088022988289595" lon="8.547102939337492">
<ele>114.60000000000002</ele>
<time>2023-05-17T11:39:30Z</time>
</trkpt>
<trkpt lat="49.088002955541015" lon="8.54709698818624">
<ele>114.60000000000002</ele>
<time>2023-05-17T11:39:31Z</time>
</trkpt>
<trkpt lat="49.087982922792435" lon="8.547089947387576">
<ele>114.60000000000002</ele>
<time>2023-05-17T11:39:32Z</time>
</trkpt>
<trkpt lat="49.08796498551965" lon="8.54707796126604">
<ele>114.60000000000002</ele>
<time>2023-05-17T11:39:33Z</time>
</trkpt>
<trkpt lat="49.087941935285926" lon="8.547064969316125">
<ele>114.60000000000002</ele>
<time>2023-05-17T11:39:34Z</time>
</trkpt>
<trkpt lat="49.087917963042855" lon="8.547047954052687">
<ele>114.60000000000002</ele>
<time>2023-05-17T11:39:35Z</time>
</trkpt>
<trkpt lat="49.087896924465895" lon="8.547029932960868">
<ele>114.60000000000002</ele>
<time>2023-05-17T11:39:36Z</time>
</trkpt>
<trkpt lat="49.08787999302149" lon="8.547001937404275">
<ele>114.60000000000002</ele>
<time>2023-05-17T11:39:37Z</time>
</trkpt>
<trkpt lat="49.08787798136473" lon="8.54696799069643">
<ele>114.60000000000002</ele>
<time>2023-05-17T11:39:38Z</time>
</trkpt>
<trkpt lat="49.08788192085922" lon="8.546931948512793">
<ele>114.60000000000002</ele>
<time>2023-05-17T11:39:39Z</time>
</trkpt>
<trkpt lat="49.0878829266876" lon="8.546891966834664">
<ele>114.60000000000002</ele>
<time>2023-05-17T11:39:40Z</time>
</trkpt>
<trkpt lat="49.087872952222824" lon="8.546852990984917">
<ele>114.60000000000002</ele>
<time>2023-05-17T11:39:41Z</time>
</trkpt>
<trkpt lat="49.087854931131005" lon="8.546821977943182">
<ele>114.60000000000002</ele>
<time>2023-05-17T11:39:42Z</time>
</trkpt>
<trkpt lat="49.08783699385822" lon="8.546789959073067">
<ele>114.60000000000002</ele>
<time>2023-05-17T11:39:43Z</time>
</trkpt>
<trkpt lat="49.08781696110964" lon="8.54675693437457">
<ele>114.60000000000002</ele>
<time>2023-05-17T11:39:44Z</time>
</trkpt>
<trkpt lat="49.0877999458462" lon="8.546722987666726">
<ele>114.60000000000002</ele>
<time>2023-05-17T11:39:45Z</time>
</trkpt>
<trkpt lat="49.08778494223952" lon="8.546694992110133">
<ele>114.60000000000002</ele>
<time>2023-05-17T11:39:46Z</time>
</trkpt>
<trkpt lat="49.08777195028961" lon="8.546674959361553">
<ele>114.60000000000002</ele>
<time>2023-05-17T11:39:47Z</time>
</trkpt>
<trkpt lat="49.08775996416807" lon="8.546661967411637">
<ele>114.60000000000002</ele>
<time>2023-05-17T11:39:48Z</time>
</trkpt>
<trkpt lat="49.087747978046536" lon="8.54664696380496">
<ele>114.60000000000002</ele>
<time>2023-05-17T11:39:49Z</time>
</trkpt>
<trkpt lat="49.08773699775338" lon="8.546629948541522">
<ele>114.60000000000002</ele>
<time>2023-05-17T11:39:50Z</time>
</trkpt>
<trkpt lat="49.087721994146705" lon="8.546609999611974">
<ele>114.60000000000002</ele>
<time>2023-05-17T11:39:51Z</time>
</trkpt>
<trkpt lat="49.08770699054003" lon="8.54658493772149">
<ele>114.60000000000002</ele>
<time>2023-05-17T11:39:52Z</time>
</trkpt>
<trkpt lat="49.08768997527659" lon="8.54655995965004">
<ele>114.60000000000002</ele>
<time>2023-05-17T11:39:53Z</time>
</trkpt>
<trkpt lat="49.087677989155054" lon="8.546532969921827">
<ele>114.60000000000002</ele>
<time>2023-05-17T11:39:54Z</time>
</trkpt>
<trkpt lat="49.08766197972" lon="8.546506986021996">
<ele>114.60000000000002</ele>
<time>2023-05-17T11:39:55Z</time>
</trkpt>
<trkpt lat="49.0876429527998" lon="8.546481924131513">
<ele>114.60000000000002</ele>
<time>2023-05-17T11:39:56Z</time>
</trkpt>
<trkpt lat="49.08762493170798" lon="8.546459963545203">
<ele>114.60000000000002</ele>
<time>2023-05-17T11:39:57Z</time>
</trkpt>
<trkpt lat="49.0876099281013" lon="8.546436997130513">
<ele>114.60000000000002</ele>
<time>2023-05-17T11:39:58Z</time>
</trkpt>
<trkpt lat="49.087596936151385" lon="8.54641193524003">
<ele>114.60000000000002</ele>
<time>2023-05-17T11:39:59Z</time>
</trkpt>
<trkpt lat="49.08758293837309" lon="8.546386957168579">
<ele>114.60000000000002</ele>
<time>2023-05-17T11:40:00Z</time>
</trkpt>
<trkpt lat="49.087572963908315" lon="8.546354938298464">
<ele>114.60000000000002</ele>
<time>2023-05-17T11:40:01Z</time>
</trkpt>
<trkpt lat="49.08756198361516" lon="8.546319985762239">
<ele>114.60000000000002</ele>
<time>2023-05-17T11:40:02Z</time>
</trkpt>
<trkpt lat="49.087554942816496" lon="8.54628193192184">
<ele>114.60000000000002</ele>
<time>2023-05-17T11:40:03Z</time>
</trkpt>
<trkpt lat="49.087554942816496" lon="8.54623993858695">
<ele>114.60000000000002</ele>
<time>2023-05-17T11:40:04Z</time>
</trkpt>
<trkpt lat="49.08755796030164" lon="8.546197945252061">
<ele>114.60000000000002</ele>
<time>2023-05-17T11:40:05Z</time>
</trkpt>
<trkpt lat="49.08756692893803" lon="8.546159975230694">
<ele>114.79999999999995</ele>
<time>2023-05-17T11:40:06Z</time>
</trkpt>
<trkpt lat="49.08757799305022" lon="8.546127956360579">
<ele>114.79999999999995</ele>
<time>2023-05-17T11:40:07Z</time>
</trkpt>
<trkpt lat="49.08758997917175" lon="8.546089986339211">
<ele>114.79999999999995</ele>
<time>2023-05-17T11:40:08Z</time>
</trkpt>
<trkpt lat="49.08760196529329" lon="8.54604497551918">
<ele>115</ele>
<time>2023-05-17T11:40:09Z</time>
</trkpt>
<trkpt lat="49.087614957243204" lon="8.54600298218429">
<ele>115</ele>
<time>2023-05-17T11:40:10Z</time>
</trkpt>
<trkpt lat="49.08762794919312" lon="8.545966940000653">
<ele>115.20000000000005</ele>
<time>2023-05-17T11:40:11Z</time>
</trkpt>
<trkpt lat="49.08764194697142" lon="8.545927964150906">
<ele>115.20000000000005</ele>
<time>2023-05-17T11:40:12Z</time>
</trkpt>
<trkpt lat="49.08765493892133" lon="8.545884964987636">
<ele>115.20000000000005</ele>
<time>2023-05-17T11:40:13Z</time>
</trkpt>
<trkpt lat="49.08766994252801" lon="8.545841965824366">
<ele>115.39999999999998</ele>
<time>2023-05-17T11:40:14Z</time>
</trkpt>
<trkpt lat="49.08768494613469" lon="8.545792931690812">
<ele>115.39999999999998</ele>
<time>2023-05-17T11:40:15Z</time>
</trkpt>
<trkpt lat="49.087701961398125" lon="8.54574196971953">
<ele>115.39999999999998</ele>
<time>2023-05-17T11:40:16Z</time>
</trkpt>
<trkpt lat="49.08771797083318" lon="8.545689918100834">
<ele>115.39999999999998</ele>
<time>2023-05-17T11:40:17Z</time>
</trkpt>
<trkpt lat="49.08773699775338" lon="8.54563694447279">
<ele>115.39999999999998</ele>
<time>2023-05-17T11:40:18Z</time>
</trkpt>
<trkpt lat="49.08775493502617" lon="8.545582965016365">
<ele>115.39999999999998</ele>
<time>2023-05-17T11:40:19Z</time>
</trkpt>
<trkpt lat="49.08777295611799" lon="8.54553191922605">
<ele>115.39999999999998</ele>
<time>2023-05-17T11:40:20Z</time>
</trkpt>
<trkpt lat="49.08779198303819" lon="8.545479951426387">
<ele>115.39999999999998</ele>
<time>2023-05-17T11:40:21Z</time>
</trkpt>
<trkpt lat="49.087806986644864" lon="8.545427983626723">
<ele>115.39999999999998</ele>
<time>2023-05-17T11:40:22Z</time>
</trkpt>
<trkpt lat="49.08782299607992" lon="8.545371992513537">
<ele>115.39999999999998</ele>
<time>2023-05-17T11:40:23Z</time>
</trkpt>
<trkpt lat="49.08784294500947" lon="8.545309966430068">
<ele>115.39999999999998</ele>
<time>2023-05-17T11:40:24Z</time>
</trkpt>
<trkpt lat="49.08786297775805" lon="8.545247940346599">
<ele>115.60000000000002</ele>
<time>2023-05-17T11:40:25Z</time>
</trkpt>
<trkpt lat="49.08788192085922" lon="8.54518792591989">
<ele>115.60000000000002</ele>
<time>2023-05-17T11:40:26Z</time>
</trkpt>
<trkpt lat="49.087897930294275" lon="8.545127995312214">
<ele>115.60000000000002</ele>
<time>2023-05-17T11:40:27Z</time>
</trkpt>
<trkpt lat="49.08791192807257" lon="8.545067980885506">
<ele>115.79999999999995</ele>
<time>2023-05-17T11:40:28Z</time>
</trkpt>
<trkpt lat="49.08792994916439" lon="8.54501198977232">
<ele>115.79999999999995</ele>
<time>2023-05-17T11:40:29Z</time>
</trkpt>
<trkpt lat="49.08794998191297" lon="8.544957926496863">
<ele>115.79999999999995</ele>
<time>2023-05-17T11:40:30Z</time>
</trkpt>
<trkpt lat="49.08796699717641" lon="8.544901935383677">
<ele>115.79999999999995</ele>
<time>2023-05-17T11:40:31Z</time>
</trkpt>
<trkpt lat="49.08798694610596" lon="8.544844938442111">
<ele>115.79999999999995</ele>
<time>2023-05-17T11:40:32Z</time>
</trkpt>
<trkpt lat="49.088004967197776" lon="8.544784924015403">
<ele>115.79999999999995</ele>
<time>2023-05-17T11:40:33Z</time>
</trkpt>
<trkpt lat="49.088022988289595" lon="8.544724993407726">
<ele>115.79999999999995</ele>
<time>2023-05-17T11:40:34Z</time>
</trkpt>
<trkpt lat="49.088039919734" lon="8.544662967324257">
<ele>115.79999999999995</ele>
<time>2023-05-17T11:40:35Z</time>
</trkpt>
<trkpt lat="49.08805794082582" lon="8.544601947069168">
<ele>115.79999999999995</ele>
<time>2023-05-17T11:40:36Z</time>
</trkpt>
<trkpt lat="49.08807495608926" lon="8.54453799314797">
<ele>115.79999999999995</ele>
<time>2023-05-17T11:40:37Z</time>
</trkpt>
<trkpt lat="49.088087948039174" lon="8.544479990378022">
<ele>115.79999999999995</ele>
<time>2023-05-17T11:40:38Z</time>
</trkpt>
<trkpt lat="49.08809993416071" lon="8.544421987608075">
<ele>115.79999999999995</ele>
<time>2023-05-17T11:40:39Z</time>
</trkpt>
<trkpt lat="49.088114937767386" lon="8.544364990666509">
<ele>115.79999999999995</ele>
<time>2023-05-17T11:40:40Z</time>
</trkpt>
<trkpt lat="49.08812692388892" lon="8.544314950704575">
<ele>115.79999999999995</ele>
<time>2023-05-17T11:40:41Z</time>
</trkpt>
<trkpt lat="49.08813798800111" lon="8.544257953763008">
<ele>115.79999999999995</ele>
<time>2023-05-17T11:40:42Z</time>
</trkpt>
<trkpt lat="49.08814796246588" lon="8.544206991791725">
<ele>115.79999999999995</ele>
<time>2023-05-17T11:40:43Z</time>
</trkpt>
<trkpt lat="49.088157936930656" lon="8.544157957658172">
<ele>115.79999999999995</ele>
<time>2023-05-17T11:40:44Z</time>
</trkpt>
<trkpt lat="49.08816992305219" lon="8.54411294683814">
<ele>115.79999999999995</ele>
<time>2023-05-17T11:40:45Z</time>
</trkpt>
<trkpt lat="49.088177969679236" lon="8.54406994767487">
<ele>115.60000000000002</ele>
<time>2023-05-17T11:40:46Z</time>
</trkpt>
<trkpt lat="49.08818693831563" lon="8.544022925198078">
<ele>115.60000000000002</ele>
<time>2023-05-17T11:40:47Z</time>
</trkpt>
<trkpt lat="49.088194984942675" lon="8.543974980711937">
<ele>115.60000000000002</ele>
<time>2023-05-17T11:40:48Z</time>
</trkpt>
<trkpt lat="49.08820294775069" lon="8.543934999033809">
<ele>115.60000000000002</ele>
<time>2023-05-17T11:40:49Z</time>
</trkpt>
<trkpt lat="49.08820998854935" lon="8.543892921879888">
<ele>115.60000000000002</ele>
<time>2023-05-17T11:40:50Z</time>
</trkpt>
<trkpt lat="49.088216945528984" lon="8.54385495185852">
<ele>115.60000000000002</ele>
<time>2023-05-17T11:40:51Z</time>
</trkpt>
<trkpt lat="49.08822298049927" lon="8.543827962130308">
<ele>115.60000000000002</ele>
<time>2023-05-17T11:40:52Z</time>
</trkpt>
<trkpt lat="49.0882299374789" lon="8.543801978230476">
<ele>115.60000000000002</ele>
<time>2023-05-17T11:40:53Z</time>
</trkpt>
<trkpt lat="49.088236978277564" lon="8.543771971017122">
<ele>115.60000000000002</ele>
<time>2023-05-17T11:40:54Z</time>
</trkpt>
<trkpt lat="49.08824695274234" lon="8.543734923005104">
<ele>115.60000000000002</ele>
<time>2023-05-17T11:40:55Z</time>
</trkpt>
<trkpt lat="49.088261956349015" lon="8.543697958812118">
<ele>115.60000000000002</ele>
<time>2023-05-17T11:40:56Z</time>
</trkpt>
<trkpt lat="49.08827293664217" lon="8.543667951598763">
<ele>115.60000000000002</ele>
<time>2023-05-17T11:40:57Z</time>
</trkpt>
<trkpt lat="49.088281989097595" lon="8.54363794438541">
<ele>115.60000000000002</ele>
<time>2023-05-17T11:40:58Z</time>
</trkpt>
<trkpt lat="49.088284922763705" lon="8.543626964092255">
<ele>115.60000000000002</ele>
<time>2023-05-17T11:40:59Z</time>
</trkpt>
<trkpt lat="49.088286934420466" lon="8.543624952435493">
<ele>115.60000000000002</ele>
<time>2023-05-17T11:41:00Z</time>
</trkpt>
<trkpt lat="49.088284922763705" lon="8.543624952435493">
<ele>115.60000000000002</ele>
<time>2023-05-17T11:41:01Z</time>
</trkpt>
<trkpt lat="49.08830193802714" lon="8.54355295188725">
<ele>115.39999999999998</ele>
<time>2023-05-17T11:41:01Z</time>
</trkpt>
<trkpt lat="49.088302943855524" lon="8.54352998547256">
<ele>115.39999999999998</ele>
<time>2023-05-17T11:41:02Z</time>
</trkpt>
<trkpt lat="49.088304955512285" lon="8.543502995744348">
<ele>115.39999999999998</ele>
<time>2023-05-17T11:41:03Z</time>
</trkpt>
<trkpt lat="49.088304955512285" lon="8.543472988530993">
<ele>115.39999999999998</ele>
<time>2023-05-17T11:41:04Z</time>
</trkpt>
<trkpt lat="49.08830998465419" lon="8.543436946347356">
<ele>115.39999999999998</ele>
<time>2023-05-17T11:41:05Z</time>
</trkpt>
<trkpt lat="49.08831694163382" lon="8.543391935527325">
<ele>115.39999999999998</ele>
<time>2023-05-17T11:41:06Z</time>
</trkpt>
<trkpt lat="49.088324988260865" lon="8.543339967727661">
<ele>115.39999999999998</ele>
<time>2023-05-17T11:41:07Z</time>
</trkpt>
<trkpt lat="49.088329933583736" lon="8.543286994099617">
<ele>115.39999999999998</ele>
<time>2023-05-17T11:41:08Z</time>
</trkpt>
<trkpt lat="49.08833798021078" lon="8.54322999715805">
<ele>115.39999999999998</ele>
<time>2023-05-17T11:41:09Z</time>
</trkpt>
<trkpt lat="49.088349966332316" lon="8.543171994388103">
<ele>115.39999999999998</ele>
<time>2023-05-17T11:41:10Z</time>
</trkpt>
<trkpt lat="49.08835994079709" lon="8.543107956647873">
<ele>115.39999999999998</ele>
<time>2023-05-17T11:41:11Z</time>
</trkpt>
<trkpt lat="49.088371926918626" lon="8.543041991069913">
<ele>115.39999999999998</ele>
<time>2023-05-17T11:41:12Z</time>
</trkpt>
<trkpt lat="49.08837796188891" lon="8.54297292418778">
<ele>115.39999999999998</ele>
<time>2023-05-17T11:41:13Z</time>
</trkpt>
<trkpt lat="49.08838491886854" lon="8.542909976094961">
<ele>115.39999999999998</ele>
<time>2023-05-17T11:41:14Z</time>
</trkpt>
<trkpt lat="49.08839698880911" lon="8.542847950011492">
<ele>115.39999999999998</ele>
<time>2023-05-17T11:41:15Z</time>
</trkpt>
<trkpt lat="49.08840696327388" lon="8.542786929756403">
<ele>115.39999999999998</ele>
<time>2023-05-17T11:41:16Z</time>
</trkpt>
<trkpt lat="49.08841794356704" lon="8.542717946693301">
<ele>115.39999999999998</ele>
<time>2023-05-17T11:41:17Z</time>
</trkpt>
<trkpt lat="49.08842791803181" lon="8.542654998600483">
<ele>115.39999999999998</ele>
<time>2023-05-17T11:41:18Z</time>
</trkpt>
<trkpt lat="49.08844199962914" lon="8.542589955031872">
<ele>115.39999999999998</ele>
<time>2023-05-17T11:41:19Z</time>
</trkpt>
<trkpt lat="49.088452979922295" lon="8.542524995282292">
<ele>115.39999999999998</ele>
<time>2023-05-17T11:41:20Z</time>
</trkpt>
<trkpt lat="49.08846295438707" lon="8.542466992512345">
<ele>115.39999999999998</ele>
<time>2023-05-17T11:41:21Z</time>
</trkpt>
<trkpt lat="49.088474940508604" lon="8.542404966428876">
<ele>115.39999999999998</ele>
<time>2023-05-17T11:41:22Z</time>
</trkpt>
<trkpt lat="49.08848692663014" lon="8.542341934517026">
<ele>115.60000000000002</ele>
<time>2023-05-17T11:41:23Z</time>
</trkpt>
<trkpt lat="49.0885029360652" lon="8.542271945625544">
<ele>115.60000000000002</ele>
<time>2023-05-17T11:41:24Z</time>
</trkpt>
<trkpt lat="49.08851693384349" lon="8.542211931198835">
<ele>115.60000000000002</ele>
<time>2023-05-17T11:41:25Z</time>
</trkpt>
<trkpt lat="49.08853294327855" lon="8.542144959792495">
<ele>115.60000000000002</ele>
<time>2023-05-17T11:41:26Z</time>
</trkpt>
<trkpt lat="49.08854694105685" lon="8.542076982557774">
<ele>115.60000000000002</ele>
<time>2023-05-17T11:41:27Z</time>
</trkpt>
<trkpt lat="49.088561944663525" lon="8.542001964524388">
<ele>115.79999999999995</ele>
<time>2023-05-17T11:41:28Z</time>
</trkpt>
<trkpt lat="49.088581977412105" lon="8.54192292317748">
<ele>115.79999999999995</ele>
<time>2023-05-17T11:41:29Z</time>
</trkpt>
<trkpt lat="49.08860293217003" lon="8.541841953992844">
<ele>115.79999999999995</ele>
<time>2023-05-17T11:41:30Z</time>
</trkpt>
<trkpt lat="49.088624976575375" lon="8.541764924302697">
<ele>115.79999999999995</ele>
<time>2023-05-17T11:41:31Z</time>
</trkpt>
<trkpt lat="49.08864492550492" lon="8.54168496094644">
<ele>115.79999999999995</ele>
<time>2023-05-17T11:41:32Z</time>
</trkpt>
<trkpt lat="49.088667975738645" lon="8.541604997590184">
<ele>115.79999999999995</ele>
<time>2023-05-17T11:41:33Z</time>
</trkpt>
<trkpt lat="49.088692953810096" lon="8.541527967900038">
<ele>116</ele>
<time>2023-05-17T11:41:34Z</time>
</trkpt>
<trkpt lat="49.08871793188155" lon="8.541456973180175">
<ele>116</ele>
<time>2023-05-17T11:41:35Z</time>
</trkpt>
<trkpt lat="49.08874299377203" lon="8.54138195514679">
<ele>116</ele>
<time>2023-05-17T11:41:36Z</time>
</trkpt>
<trkpt lat="49.088771995157" lon="8.541307942941785">
<ele>116</ele>
<time>2023-05-17T11:41:37Z</time>
</trkpt>
<trkpt lat="49.088802924379706" lon="8.5412329249084">
<ele>116</ele>
<time>2023-05-17T11:41:38Z</time>
</trkpt>
<trkpt lat="49.08883494324982" lon="8.541164947673678">
<ele>115.79999999999995</ele>
<time>2023-05-17T11:41:39Z</time>
</trkpt>
<trkpt lat="49.08886997960508" lon="8.541094958782196">
<ele>115.79999999999995</ele>
<time>2023-05-17T11:41:40Z</time>
</trkpt>
<trkpt lat="49.088901998475194" lon="8.541034944355488">
<ele>115.79999999999995</ele>
<time>2023-05-17T11:41:41Z</time>
</trkpt>
<trkpt lat="49.08893996849656" lon="8.54097199626267">
<ele>115.79999999999995</ele>
<time>2023-05-17T11:41:42Z</time>
</trkpt>
<trkpt lat="49.088974921032786" lon="8.540906952694058">
<ele>115.79999999999995</ele>
<time>2023-05-17T11:41:43Z</time>
</trkpt>
<trkpt lat="49.08900995738804" lon="8.540844926610589">
<ele>115.79999999999995</ele>
<time>2023-05-17T11:41:44Z</time>
</trkpt>
<trkpt lat="49.0890399646014" lon="8.540787929669023">
<ele>115.79999999999995</ele>
<time>2023-05-17T11:41:45Z</time>
</trkpt>
<trkpt lat="49.08906997181475" lon="8.540734956040978">
<ele>115.60000000000002</ele>
<time>2023-05-17T11:41:46Z</time>
</trkpt>
<trkpt lat="49.08910492435098" lon="8.540689945220947">
<ele>115.60000000000002</ele>
<time>2023-05-17T11:41:47Z</time>
</trkpt>
<trkpt lat="49.089139960706234" lon="8.54065298102796">
<ele>115.39999999999998</ele>
<time>2023-05-17T11:41:48Z</time>
</trkpt>
<trkpt lat="49.0891779307276" lon="8.540626997128129">
<ele>115.39999999999998</ele>
<time>2023-05-17T11:41:49Z</time>
</trkpt>
<trkpt lat="49.08921699039638" lon="8.540599923580885">
<ele>115.20000000000005</ele>
<time>2023-05-17T11:41:50Z</time>
</trkpt>
<trkpt lat="49.08925697207451" lon="8.540574945509434">
<ele>115.20000000000005</ele>
<time>2023-05-17T11:41:51Z</time>
</trkpt>
<trkpt lat="49.089294942095876" lon="8.54054694995284">
<ele>115.20000000000005</ele>
<time>2023-05-17T11:41:52Z</time>
</trkpt>
<trkpt lat="49.08932494930923" lon="8.540509985759854">
<ele>115</ele>
<time>2023-05-17T11:41:53Z</time>
</trkpt>
<trkpt lat="49.08934196457267" lon="8.540461957454681">
<ele>115</ele>
<time>2023-05-17T11:41:54Z</time>
</trkpt>
<trkpt lat="49.08934799954295" lon="8.540406972169876">
<ele>115</ele>
<time>2023-05-17T11:41:55Z</time>
</trkpt>
<trkpt lat="49.08935193903744" lon="8.540346957743168">
<ele>115</ele>
<time>2023-05-17T11:41:56Z</time>
</trkpt>
<trkpt lat="49.08934992738068" lon="8.540282920002937">
<ele>115.20000000000005</ele>
<time>2023-05-17T11:41:57Z</time>
</trkpt>
<trkpt lat="49.08934498205781" lon="8.540216954424977">
<ele>115.20000000000005</ele>
<time>2023-05-17T11:41:58Z</time>
</trkpt>
<trkpt lat="49.08934699371457" lon="8.540152916684747">
<ele>115.20000000000005</ele>
<time>2023-05-17T11:41:59Z</time>
</trkpt>
<trkpt lat="49.089357974007726" lon="8.540089968591928">
<ele>115.20000000000005</ele>
<time>2023-05-17T11:42:00Z</time>
</trkpt>
<trkpt lat="49.089379934594035" lon="8.540026936680079">
<ele>115.20000000000005</ele>
<time>2023-05-17T11:42:01Z</time>
</trkpt>
<trkpt lat="49.08940298482776" lon="8.539961976930499">
<ele>115.20000000000005</ele>
<time>2023-05-17T11:42:02Z</time>
</trkpt>
<trkpt lat="49.089424945414066" lon="8.53990196250379">
<ele>115.20000000000005</ele>
<time>2023-05-17T11:42:03Z</time>
</trkpt>
<trkpt lat="49.08944698981941" lon="8.539847983047366">
<ele>115.20000000000005</ele>
<time>2023-05-17T11:42:04Z</time>
</trkpt>
<trkpt lat="49.089466938748956" lon="8.539799954742193">
<ele>115.20000000000005</ele>
<time>2023-05-17T11:42:05Z</time>
</trkpt>
<trkpt lat="49.08948294818401" lon="8.53975192643702">
<ele>115.20000000000005</ele>
<time>2023-05-17T11:42:06Z</time>
</trkpt>
<trkpt lat="49.08949996344745" lon="8.539709933102131">
<ele>115.20000000000005</ele>
<time>2023-05-17T11:42:07Z</time>
</trkpt>
<trkpt lat="49.08951295539737" lon="8.539671963080764">
<ele>115.39999999999998</ele>
<time>2023-05-17T11:42:08Z</time>
</trkpt>
<trkpt lat="49.089526953175664" lon="8.539632987231016">
<ele>115.39999999999998</ele>
<time>2023-05-17T11:42:09Z</time>
</trkpt>
<trkpt lat="49.08953692764044" lon="8.539596945047379">
<ele>115.39999999999998</ele>
<time>2023-05-17T11:42:10Z</time>
</trkpt>
<trkpt lat="49.08954296261072" lon="8.539561992511153">
<ele>115.39999999999998</ele>
<time>2023-05-17T11:42:11Z</time>
</trkpt>
<trkpt lat="49.089549919590354" lon="8.539526956155896">
<ele>115.39999999999998</ele>
<time>2023-05-17T11:42:12Z</time>
</trkpt>
<trkpt lat="49.0895579662174" lon="8.539487980306149">
<ele>115.60000000000002</ele>
<time>2023-05-17T11:42:13Z</time>
</trkpt>
<trkpt lat="49.089569952338934" lon="8.53944799862802">
<ele>115.60000000000002</ele>
<time>2023-05-17T11:42:14Z</time>
</trkpt>
<trkpt lat="49.08958193846047" lon="8.53940499946475">
<ele>115.60000000000002</ele>
<time>2023-05-17T11:42:15Z</time>
</trkpt>
<trkpt lat="49.089592918753624" lon="8.53936292231083">
<ele>115.60000000000002</ele>
<time>2023-05-17T11:42:16Z</time>
</trkpt>
<trkpt lat="49.08960297703743" lon="8.53931698948145">
<ele>115.60000000000002</ele>
<time>2023-05-17T11:42:17Z</time>
</trkpt>
<trkpt lat="49.089614963158965" lon="8.539269967004657">
<ele>115.60000000000002</ele>
<time>2023-05-17T11:42:18Z</time>
</trkpt>
<trkpt lat="49.0896269492805" lon="8.539222944527864">
<ele>115.60000000000002</ele>
<time>2023-05-17T11:42:19Z</time>
</trkpt>
<trkpt lat="49.089639941230416" lon="8.53916997089982">
<ele>115.60000000000002</ele>
<time>2023-05-17T11:42:20Z</time>
</trkpt>
<trkpt lat="49.08965494483709" lon="8.539111968129873">
<ele>115.79999999999995</ele>
<time>2023-05-17T11:42:21Z</time>
</trkpt>
<trkpt lat="49.08966994844377" lon="8.539054971188307">
<ele>115.79999999999995</ele>
<time>2023-05-17T11:42:22Z</time>
</trkpt>
<trkpt lat="49.08968495205045" lon="8.538994956761599">
<ele>115.79999999999995</ele>
<time>2023-05-17T11:42:23Z</time>
</trkpt>
<trkpt lat="49.089701967313886" lon="8.53893494233489">
<ele>115.79999999999995</ele>
<time>2023-05-17T11:42:24Z</time>
</trkpt>
<trkpt lat="49.08971797674894" lon="8.538871994242072">
<ele>115.79999999999995</ele>
<time>2023-05-17T11:42:25Z</time>
</trkpt>
<trkpt lat="49.08973499201238" lon="8.538806950673461">
<ele>115.79999999999995</ele>
<time>2023-05-17T11:42:26Z</time>
</trkpt>
<trkpt lat="49.08975192345679" lon="8.53873997926712">
<ele>115.79999999999995</ele>
<time>2023-05-17T11:42:27Z</time>
</trkpt>
<trkpt lat="49.089767932891846" lon="8.538669990375638">
<ele>115.79999999999995</ele>
<time>2023-05-17T11:42:28Z</time>
</trkpt>
<trkpt lat="49.089786959812045" lon="8.538596983999014">
<ele>115.60000000000002</ele>
<time>2023-05-17T11:42:29Z</time>
</trkpt>
<trkpt lat="49.089806992560625" lon="8.538521965965629">
<ele>115.60000000000002</ele>
<time>2023-05-17T11:42:30Z</time>
</trkpt>
<trkpt lat="49.08982492983341" lon="8.538446947932243">
<ele>115.60000000000002</ele>
<time>2023-05-17T11:42:31Z</time>
</trkpt>
<trkpt lat="49.089847980067134" lon="8.538367990404367">
<ele>115.60000000000002</ele>
<time>2023-05-17T11:42:32Z</time>
</trkpt>
<trkpt lat="49.089871952310205" lon="8.538286937400699">
<ele>115.60000000000002</ele>
<time>2023-05-17T11:42:33Z</time>
</trkpt>
<trkpt lat="49.089896930381656" lon="8.53820295073092">
<ele>115.60000000000002</ele>
<time>2023-05-17T11:42:34Z</time>
</trkpt>
<trkpt lat="49.08992199227214" lon="8.53811695240438">
<ele>115.60000000000002</ele>
<time>2023-05-17T11:42:35Z</time>
</trkpt>
<trkpt lat="49.08994495868683" lon="8.538037994876504">
<ele>115.39999999999998</ele>
<time>2023-05-17T11:42:36Z</time>
</trkpt>
<trkpt lat="49.08996792510152" lon="8.537956941872835">
<ele>115.39999999999998</ele>
<time>2023-05-17T11:42:37Z</time>
</trkpt>
<trkpt lat="49.08999198116362" lon="8.537874966859818">
<ele>115.20000000000005</ele>
<time>2023-05-17T11:42:38Z</time>
</trkpt>
<trkpt lat="49.09001293592155" lon="8.53779693134129">
<ele>115.20000000000005</ele>
<time>2023-05-17T11:42:39Z</time>
</trkpt>
<trkpt lat="49.09003498032689" lon="8.537717973813415">
<ele>115</ele>
<time>2023-05-17T11:42:40Z</time>
</trkpt>
<trkpt lat="49.0900569409132" lon="8.53764295578003">
<ele>115</ele>
<time>2023-05-17T11:42:41Z</time>
</trkpt>
<trkpt lat="49.09007999114692" lon="8.537569949403405">
<ele>115</ele>
<time>2023-05-17T11:42:42Z</time>
</trkpt>
<trkpt lat="49.09010295756161" lon="8.537497948855162">
<ele>114.79999999999995</ele>
<time>2023-05-17T11:42:43Z</time>
</trkpt>
<trkpt lat="49.090129947289824" lon="8.53742795996368">
<ele>114.79999999999995</ele>
<time>2023-05-17T11:42:44Z</time>
</trkpt>
<trkpt lat="49.09015794284642" lon="8.537354953587055">
<ele>114.79999999999995</ele>
<time>2023-05-17T11:42:45Z</time>
</trkpt>
<trkpt lat="49.09018694423139" lon="8.53727993555367">
<ele>114.79999999999995</ele>
<time>2023-05-17T11:42:46Z</time>
</trkpt>
<trkpt lat="49.090216951444745" lon="8.537206929177046">
<ele>114.79999999999995</ele>
<time>2023-05-17T11:42:47Z</time>
</trkpt>
<trkpt lat="49.09024796448648" lon="8.537134928628802">
<ele>114.60000000000002</ele>
<time>2023-05-17T11:42:48Z</time>
</trkpt>
<trkpt lat="49.090279983356595" lon="8.53706493973732">
<ele>114.60000000000002</ele>
<time>2023-05-17T11:42:49Z</time>
</trkpt>
<trkpt lat="49.09031191840768" lon="8.536992939189076">
<ele>114.60000000000002</ele>
<time>2023-05-17T11:42:50Z</time>
</trkpt>
<trkpt lat="49.090344943106174" lon="8.536922950297594">
<ele>114.60000000000002</ele>
<time>2023-05-17T11:42:51Z</time>
</trkpt>
<trkpt lat="49.09037997946143" lon="8.536852961406112">
<ele>114.60000000000002</ele>
<time>2023-05-17T11:42:52Z</time>
</trkpt>
<trkpt lat="49.09041493199766" lon="8.53678297251463">
<ele>114.60000000000002</ele>
<time>2023-05-17T11:42:53Z</time>
</trkpt>
<trkpt lat="49.090451980009675" lon="8.536714995279908">
<ele>114.60000000000002</ele>
<time>2023-05-17T11:42:54Z</time>
</trkpt>
<trkpt lat="49.09048995003104" lon="8.536646934226155">
<ele>114.60000000000002</ele>
<time>2023-05-17T11:42:55Z</time>
</trkpt>
<trkpt lat="49.09052993170917" lon="8.536581974476576">
<ele>114.60000000000002</ele>
<time>2023-05-17T11:42:56Z</time>
</trkpt>
<trkpt lat="49.09056999720633" lon="8.536514919251204">
<ele>114.60000000000002</ele>
<time>2023-05-17T11:42:57Z</time>
</trkpt>
<trkpt lat="49.09060997888446" lon="8.536451971158385">
<ele>114.60000000000002</ele>
<time>2023-05-17T11:42:58Z</time>
</trkpt>
<trkpt lat="49.09064996056259" lon="8.536386927589774">
<ele>114.60000000000002</ele>
<time>2023-05-17T11:42:59Z</time>
</trkpt>
<trkpt lat="49.090689942240715" lon="8.536322973668575">
<ele>114.60000000000002</ele>
<time>2023-05-17T11:43:00Z</time>
</trkpt>
<trkpt lat="49.09072992391884" lon="8.536259941756725">
<ele>114.60000000000002</ele>
<time>2023-05-17T11:43:01Z</time>
</trkpt>
<trkpt lat="49.09076797775924" lon="8.536196993663907">
<ele>114.60000000000002</ele>
<time>2023-05-17T11:43:02Z</time>
</trkpt>
<trkpt lat="49.09080494195223" lon="8.536134967580438">
<ele>114.60000000000002</ele>
<time>2023-05-17T11:43:03Z</time>
</trkpt>
<trkpt lat="49.09084492363036" lon="8.53607696481049">
<ele>114.79999999999995</ele>
<time>2023-05-17T11:43:04Z</time>
</trkpt>
<trkpt lat="49.090882977470756" lon="8.536014938727021">
<ele>114.79999999999995</ele>
<time>2023-05-17T11:43:05Z</time>
</trkpt>
<trkpt lat="49.090922959148884" lon="8.535951990634203">
<ele>114.79999999999995</ele>
<time>2023-05-17T11:43:06Z</time>
</trkpt>
<trkpt lat="49.09096294082701" lon="8.535889964550734">
<ele>114.79999999999995</ele>
<time>2023-05-17T11:43:07Z</time>
</trkpt>
<trkpt lat="49.09100191667676" lon="8.535829950124025">
<ele>115</ele>
<time>2023-05-17T11:43:08Z</time>
</trkpt>
<trkpt lat="49.09103997051716" lon="8.535766918212175">
<ele>115</ele>
<time>2023-05-17T11:43:09Z</time>
</trkpt>
<trkpt lat="49.091077940538526" lon="8.535704975947738">
<ele>115</ele>
<time>2023-05-17T11:43:10Z</time>
</trkpt>
<trkpt lat="49.091117922216654" lon="8.53564496152103">
<ele>115.20000000000005</ele>
<time>2023-05-17T11:43:11Z</time>
</trkpt>
<trkpt lat="49.091157987713814" lon="8.535586958751082">
<ele>115.20000000000005</ele>
<time>2023-05-17T11:43:12Z</time>
</trkpt>
<trkpt lat="49.09119696356356" lon="8.535532979294658">
<ele>115.20000000000005</ele>
<time>2023-05-17T11:43:13Z</time>
</trkpt>
<trkpt lat="49.09123199991882" lon="8.535477994009852">
<ele>115.39999999999998</ele>
<time>2023-05-17T11:43:14Z</time>
</trkpt>
<trkpt lat="49.09126494079828" lon="8.535426948219538">
<ele>115.60000000000002</ele>
<time>2023-05-17T11:43:15Z</time>
</trkpt>
<trkpt lat="49.09129796549678" lon="8.535376992076635">
<ele>115.60000000000002</ele>
<time>2023-05-17T11:43:16Z</time>
</trkpt>
<trkpt lat="49.09132797271013" lon="8.535329969599843">
<ele>115.79999999999995</ele>
<time>2023-05-17T11:43:17Z</time>
</trkpt>
<trkpt lat="49.09135999158025" lon="8.53528294712305">
<ele>116</ele>
<time>2023-05-17T11:43:18Z</time>
</trkpt>
<trkpt lat="49.0913899987936" lon="8.535236930474639">
<ele>116</ele>
<time>2023-05-17T11:43:19Z</time>
</trkpt>
<trkpt lat="49.091419922187924" lon="8.535189991816878">
<ele>116.20000000000005</ele>
<time>2023-05-17T11:43:20Z</time>
</trkpt>
<trkpt lat="49.09144791774452" lon="8.535141963511705">
<ele>116.20000000000005</ele>
<time>2023-05-17T11:43:21Z</time>
</trkpt>
<trkpt lat="49.09147792495787" lon="8.535096952691674">
<ele>116.39999999999998</ele>
<time>2023-05-17T11:43:22Z</time>
</trkpt>
<trkpt lat="49.091507932171226" lon="8.535051941871643">
<ele>116.60000000000002</ele>
<time>2023-05-17T11:43:23Z</time>
</trkpt>
<trkpt lat="49.09153995104134" lon="8.535002991557121">
<ele>116.60000000000002</ele>
<time>2023-05-17T11:43:24Z</time>
</trkpt>
<trkpt lat="49.09157297573984" lon="8.534954963251948">
<ele>116.79999999999995</ele>
<time>2023-05-17T11:43:25Z</time>
</trkpt>
<trkpt lat="49.09160298295319" lon="8.534907940775156">
<ele>117</ele>
<time>2023-05-17T11:43:26Z</time>
</trkpt>
<trkpt lat="49.091634918004274" lon="8.534859996289015">
<ele>117</ele>
<time>2023-05-17T11:43:27Z</time>
</trkpt>
<trkpt lat="49.09166693687439" lon="8.53480794467032">
<ele>117.20000000000005</ele>
<time>2023-05-17T11:43:28Z</time>
</trkpt>
<trkpt lat="49.091699961572886" lon="8.534761928021908">
<ele>117.20000000000005</ele>
<time>2023-05-17T11:43:29Z</time>
</trkpt>
<trkpt lat="49.091731980443" lon="8.534712977707386">
<ele>117.39999999999998</ele>
<time>2023-05-17T11:43:30Z</time>
</trkpt>
<trkpt lat="49.091762993484735" lon="8.534664949402213">
<ele>117.60000000000002</ele>
<time>2023-05-17T11:43:31Z</time>
</trkpt>
<trkpt lat="49.09179291687906" lon="8.53461692109704">
<ele>117.60000000000002</ele>
<time>2023-05-17T11:43:32Z</time>
</trkpt>
<trkpt lat="49.09182292409241" lon="8.534566964954138">
<ele>117.79999999999995</ele>
<time>2023-05-17T11:43:33Z</time>
</trkpt>
<trkpt lat="49.09185695461929" lon="8.534514997154474">
<ele>117.79999999999995</ele>
<time>2023-05-17T11:43:34Z</time>
</trkpt>
<trkpt lat="49.09188796766102" lon="8.534466968849301">
<ele>118</ele>
<time>2023-05-17T11:43:35Z</time>
</trkpt>
<trkpt lat="49.0919219981879" lon="8.534414917230606">
<ele>118</ele>
<time>2023-05-17T11:43:36Z</time>
</trkpt>
<trkpt lat="49.091956950724125" lon="8.534361943602562">
<ele>118.20000000000005</ele>
<time>2023-05-17T11:43:37Z</time>
</trkpt>
<trkpt lat="49.09198796376586" lon="8.53431198745966">
<ele>118.20000000000005</ele>
<time>2023-05-17T11:43:38Z</time>
</trkpt>
<trkpt lat="49.092021994292736" lon="8.534262953326106">
<ele>118.39999999999998</ele>
<time>2023-05-17T11:43:39Z</time>
</trkpt>
<trkpt lat="49.09205191768706" lon="8.534214925020933">
<ele>118.39999999999998</ele>
<time>2023-05-17T11:43:40Z</time>
</trkpt>
<trkpt lat="49.092084942385554" lon="8.53416496887803">
<ele>118.60000000000002</ele>
<time>2023-05-17T11:43:41Z</time>
</trkpt>
<trkpt lat="49.09211997874081" lon="8.534114928916097">
<ele>118.60000000000002</ele>
<time>2023-05-17T11:43:42Z</time>
</trkpt>
<trkpt lat="49.09215199761093" lon="8.534061955288053">
<ele>118.60000000000002</ele>
<time>2023-05-17T11:43:43Z</time>
</trkpt>
<trkpt lat="49.09218695014715" lon="8.534007975831628">
<ele>118.79999999999995</ele>
<time>2023-05-17T11:43:44Z</time>
</trkpt>
<trkpt lat="49.09221796318889" lon="8.533959947526455">
<ele>118.79999999999995</ele>
<time>2023-05-17T11:43:45Z</time>
</trkpt>
<trkpt lat="49.092252999544144" lon="8.53390697389841">
<ele>119</ele>
<time>2023-05-17T11:43:46Z</time>
</trkpt>
<trkpt lat="49.09228795208037" lon="8.533852994441986">
<ele>119</ele>
<time>2023-05-17T11:43:47Z</time>
</trkpt>
<trkpt lat="49.092319970950484" lon="8.533801948651671">
<ele>119.20000000000005</ele>
<time>2023-05-17T11:43:48Z</time>
</trkpt>
<trkpt lat="49.09234796650708" lon="8.533754926174879">
<ele>119.20000000000005</ele>
<time>2023-05-17T11:43:49Z</time>
</trkpt>
<trkpt lat="49.09237696789205" lon="8.533704970031977">
<ele>119.39999999999998</ele>
<time>2023-05-17T11:43:50Z</time>
</trkpt>
<trkpt lat="49.092406975105405" lon="8.533657947555184">
<ele>119.39999999999998</ele>
<time>2023-05-17T11:43:51Z</time>
</trkpt>
<trkpt lat="49.09243798814714" lon="8.533607991412282">
<ele>119.39999999999998</ele>
<time>2023-05-17T11:43:52Z</time>
</trkpt>
<trkpt lat="49.092467995360494" lon="8.533556945621967">
<ele>119.60000000000002</ele>
<time>2023-05-17T11:43:53Z</time>
</trkpt>
<trkpt lat="49.09250194206834" lon="8.533507995307446">
<ele>119.60000000000002</ele>
<time>2023-05-17T11:43:54Z</time>
</trkpt>
<trkpt lat="49.09252792596817" lon="8.533471953123808">
<ele>119.60000000000002</ele>
<time>2023-05-17T11:43:55Z</time>
</trkpt>
<trkpt lat="49.092556927353144" lon="8.533426942303777">
<ele>119.60000000000002</ele>
<time>2023-05-17T11:43:56Z</time>
</trkpt>
<trkpt lat="49.09258299507201" lon="8.533377991989255">
<ele>119.79999999999995</ele>
<time>2023-05-17T11:43:57Z</time>
</trkpt>
<trkpt lat="49.09261199645698" lon="8.53332694619894">
<ele>119.79999999999995</ele>
<time>2023-05-17T11:43:58Z</time>
</trkpt>
<trkpt lat="49.092642925679684" lon="8.533277995884418">
<ele>119.79999999999995</ele>
<time>2023-05-17T11:43:59Z</time>
</trkpt>
<trkpt lat="49.0926799736917" lon="8.533227955922484">
<ele>119.79999999999995</ele>
<time>2023-05-17T11:44:00Z</time>
</trkpt>
<trkpt lat="49.09271693788469" lon="8.53317498229444">
<ele>120</ele>
<time>2023-05-17T11:44:01Z</time>
</trkpt>
<trkpt lat="49.092752980068326" lon="8.533119997009635">
<ele>120</ele>
<time>2023-05-17T11:44:02Z</time>
</trkpt>
<trkpt lat="49.09278994426131" lon="8.533062916249037">
<ele>120.20000000000005</ele>
<time>2023-05-17T11:44:03Z</time>
</trkpt>
<trkpt lat="49.09282699227333" lon="8.533007930964231">
<ele>120.20000000000005</ele>
<time>2023-05-17T11:44:04Z</time>
</trkpt>
<trkpt lat="49.09286295063794" lon="8.532952945679426">
<ele>120.20000000000005</ele>
<time>2023-05-17T11:44:05Z</time>
</trkpt>
<trkpt lat="49.092899998649955" lon="8.53289695456624">
<ele>120.20000000000005</ele>
<time>2023-05-17T11:44:06Z</time>
</trkpt>
<trkpt lat="49.09293696284294" lon="8.532839957624674">
<ele>120.20000000000005</ele>
<time>2023-05-17T11:44:07Z</time>
</trkpt>
<trkpt lat="49.09297694452107" lon="8.532781954854727">
<ele>120.20000000000005</ele>
<time>2023-05-17T11:44:08Z</time>
</trkpt>
<trkpt lat="49.09301499836147" lon="8.532721940428019">
<ele>120.20000000000005</ele>
<time>2023-05-17T11:44:09Z</time>
</trkpt>
<trkpt lat="49.093051962554455" lon="8.532662931829691">
<ele>120.20000000000005</ele>
<time>2023-05-17T11:44:10Z</time>
</trkpt>
<trkpt lat="49.09309194423258" lon="8.532602917402983">
<ele>120</ele>
<time>2023-05-17T11:44:11Z</time>
</trkpt>
<trkpt lat="49.09312999807298" lon="8.532539969310164">
<ele>120</ele>
<time>2023-05-17T11:44:12Z</time>
</trkpt>
<trkpt lat="49.09316796809435" lon="8.532482972368598">
<ele>120</ele>
<time>2023-05-17T11:44:13Z</time>
</trkpt>
<trkpt lat="49.09320794977248" lon="8.532426981255412">
<ele>120</ele>
<time>2023-05-17T11:44:14Z</time>
</trkpt>
<trkpt lat="49.093247931450605" lon="8.532371995970607">
<ele>120</ele>
<time>2023-05-17T11:44:15Z</time>
</trkpt>
<trkpt lat="49.093284979462624" lon="8.53231499902904">
<ele>119.79999999999995</ele>
<time>2023-05-17T11:44:16Z</time>
</trkpt>
<trkpt lat="49.09332294948399" lon="8.532257918268442">
<ele>119.79999999999995</ele>
<time>2023-05-17T11:44:17Z</time>
</trkpt>
<trkpt lat="49.09335999749601" lon="8.532199999317527">
<ele>119.79999999999995</ele>
<time>2023-05-17T11:44:18Z</time>
</trkpt>
<trkpt lat="49.09339997917414" lon="8.53214199654758">
<ele>119.60000000000002</ele>
<time>2023-05-17T11:44:19Z</time>
</trkpt>
<trkpt lat="49.093439960852265" lon="8.53207997046411">
<ele>119.60000000000002</ele>
<time>2023-05-17T11:44:20Z</time>
</trkpt>
<trkpt lat="49.093479942530394" lon="8.532021967694163">
<ele>119.39999999999998</ele>
<time>2023-05-17T11:44:21Z</time>
</trkpt>
<trkpt lat="49.09352193586528" lon="8.531961953267455">
<ele>119.20000000000005</ele>
<time>2023-05-17T11:44:22Z</time>
</trkpt>
<trkpt lat="49.09356191754341" lon="8.531899927183986">
<ele>119.20000000000005</ele>
<time>2023-05-17T11:44:23Z</time>
</trkpt>
<trkpt lat="49.09360198304057" lon="8.53183999657631">
<ele>119</ele>
<time>2023-05-17T11:44:24Z</time>
</trkpt>
<trkpt lat="49.0936419647187" lon="8.531779982149601">
<ele>119</ele>
<time>2023-05-17T11:44:25Z</time>
</trkpt>
<trkpt lat="49.09368194639683" lon="8.531719967722893">
<ele>118.79999999999995</ele>
<time>2023-05-17T11:44:26Z</time>
</trkpt>
<trkpt lat="49.09372293390334" lon="8.531659953296185">
<ele>118.79999999999995</ele>
<time>2023-05-17T11:44:27Z</time>
</trkpt>
<trkpt lat="49.093764927238226" lon="8.531599938869476">
<ele>118.60000000000002</ele>
<time>2023-05-17T11:44:28Z</time>
</trkpt>
<trkpt lat="49.093806920573115" lon="8.531536990776658">
<ele>118.60000000000002</ele>
<time>2023-05-17T11:44:29Z</time>
</trkpt>
<trkpt lat="49.093849919736385" lon="8.531472953036427">
<ele>118.39999999999998</ele>
<time>2023-05-17T11:44:30Z</time>
</trkpt>
<trkpt lat="49.09389493055642" lon="8.531411932781339">
<ele>118.39999999999998</ele>
<time>2023-05-17T11:44:31Z</time>
</trkpt>
<trkpt lat="49.09394295886159" lon="8.531349990516901">
<ele>118.20000000000005</ele>
<time>2023-05-17T11:44:32Z</time>
</trkpt>
<trkpt lat="49.09399299882352" lon="8.531292993575335">
<ele>118</ele>
<time>2023-05-17T11:44:33Z</time>
</trkpt>
<trkpt lat="49.09404496662319" lon="8.531232979148626">
<ele>117.79999999999995</ele>
<time>2023-05-17T11:44:34Z</time>
</trkpt>
<trkpt lat="49.09409299492836" lon="8.53117698803544">
<ele>117.60000000000002</ele>
<time>2023-05-17T11:44:35Z</time>
</trkpt>
<trkpt lat="49.09414496272802" lon="8.531126948073506">
<ele>117.39999999999998</ele>
<time>2023-05-17T11:44:36Z</time>
</trkpt>
<trkpt lat="49.09418796189129" lon="8.531081937253475">
<ele>117.20000000000005</ele>
<time>2023-05-17T11:44:37Z</time>
</trkpt>
<trkpt lat="49.094231966882944" lon="8.53104799054563">
<ele>117</ele>
<time>2023-05-17T11:44:38Z</time>
</trkpt>
<trkpt lat="49.09427295438945" lon="8.531022928655148">
<ele>116.60000000000002</ele>
<time>2023-05-17T11:44:39Z</time>
</trkpt>
<trkpt lat="49.09431494772434" lon="8.5310029797256">
<ele>116.39999999999998</ele>
<time>2023-05-17T11:44:40Z</time>
</trkpt>
<trkpt lat="49.09435291774571" lon="8.530972972512245">
<ele>116.20000000000005</ele>
<time>2023-05-17T11:44:41Z</time>
</trkpt>
<trkpt lat="49.094386948272586" lon="8.530929973348975">
<ele>116</ele>
<time>2023-05-17T11:44:42Z</time>
</trkpt>
<trkpt lat="49.09441796131432" lon="8.530876999720931">
<ele>115.79999999999995</ele>
<time>2023-05-17T11:44:43Z</time>
</trkpt>
<trkpt lat="49.094446962699294" lon="8.530819918960333">
<ele>115.60000000000002</ele>
<time>2023-05-17T11:44:44Z</time>
</trkpt>
<trkpt lat="49.09446297213435" lon="8.530756970867515">
<ele>115.60000000000002</ele>
<time>2023-05-17T11:44:45Z</time>
</trkpt>
<trkpt lat="49.094471940770745" lon="8.530687987804413">
<ele>115.39999999999998</ele>
<time>2023-05-17T11:44:46Z</time>
</trkpt>
<trkpt lat="49.09448694437742" lon="8.530622944235802">
<ele>115.20000000000005</ele>
<time>2023-05-17T11:44:47Z</time>
</trkpt>
<trkpt lat="49.094509994611144" lon="8.530566953122616">
<ele>115.20000000000005</ele>
<time>2023-05-17T11:44:48Z</time>
</trkpt>
<trkpt lat="49.09453991800547" lon="8.53050995618105">
<ele>115</ele>
<time>2023-05-17T11:44:49Z</time>
</trkpt>
<trkpt lat="49.09457495436072" lon="8.530454970896244">
<ele>114.79999999999995</ele>
<time>2023-05-17T11:44:50Z</time>
</trkpt>
<trkpt lat="49.09461191855371" lon="8.5304019972682">
<ele>114.79999999999995</ele>
<time>2023-05-17T11:44:51Z</time>
</trkpt>
<trkpt lat="49.09465198405087" lon="8.530344916507602">
<ele>114.79999999999995</ele>
<time>2023-05-17T11:44:52Z</time>
</trkpt>
<trkpt lat="49.09468995407224" lon="8.530284985899925">
<ele>114.60000000000002</ele>
<time>2023-05-17T11:44:53Z</time>
</trkpt>
<trkpt lat="49.094731947407126" lon="8.530227988958359">
<ele>114.60000000000002</ele>
<time>2023-05-17T11:44:54Z</time>
</trkpt>
<trkpt lat="49.09476991742849" lon="8.530172919854522">
<ele>114.39999999999998</ele>
<time>2023-05-17T11:44:55Z</time>
</trkpt>
<trkpt lat="49.09480797126889" lon="8.530116928741336">
<ele>114.39999999999998</ele>
<time>2023-05-17T11:44:56Z</time>
</trkpt>
<trkpt lat="49.09484996460378" lon="8.53005699813366">
<ele>114.20000000000005</ele>
<time>2023-05-17T11:44:57Z</time>
</trkpt>
<trkpt lat="49.09488994628191" lon="8.529997989535332">
<ele>114.20000000000005</ele>
<time>2023-05-17T11:44:58Z</time>
</trkpt>
<trkpt lat="49.0949319396168" lon="8.529939986765385">
<ele>114</ele>
<time>2023-05-17T11:44:59Z</time>
</trkpt>
<trkpt lat="49.09497292712331" lon="8.529881983995438">
<ele>114</ele>
<time>2023-05-17T11:45:00Z</time>
</trkpt>
<trkpt lat="49.0950149204582" lon="8.52982297539711">
<ele>114</ele>
<time>2023-05-17T11:45:01Z</time>
</trkpt>
<trkpt lat="49.09505791962147" lon="8.529762960970402">
<ele>114</ele>
<time>2023-05-17T11:45:02Z</time>
</trkpt>
<trkpt lat="49.09510192461312" lon="8.529704958200455">
<ele>114</ele>
<time>2023-05-17T11:45:03Z</time>
</trkpt>
<trkpt lat="49.09514299593866" lon="8.529647961258888">
<ele>113.79999999999995</ele>
<time>2023-05-17T11:45:04Z</time>
</trkpt>
<trkpt lat="49.09518498927355" lon="8.52958794683218">
<ele>113.79999999999995</ele>
<time>2023-05-17T11:45:05Z</time>
</trkpt>
<trkpt lat="49.09522798843682" lon="8.529527932405472">
<ele>113.79999999999995</ele>
<time>2023-05-17T11:45:06Z</time>
</trkpt>
<trkpt lat="49.09527199342847" lon="8.529467917978764">
<ele>113.79999999999995</ele>
<time>2023-05-17T11:45:07Z</time>
</trkpt>
<trkpt lat="49.09531499259174" lon="8.529409999027848">
<ele>113.79999999999995</ele>
<time>2023-05-17T11:45:08Z</time>
</trkpt>
<trkpt lat="49.09535799175501" lon="8.52934998460114">
<ele>113.79999999999995</ele>
<time>2023-05-17T11:45:09Z</time>
</trkpt>
<trkpt lat="49.09540291875601" lon="8.529291981831193">
<ele>113.79999999999995</ele>
<time>2023-05-17T11:45:10Z</time>
</trkpt>
<trkpt lat="49.09544792957604" lon="8.529234984889627">
<ele>113.79999999999995</ele>
<time>2023-05-17T11:45:11Z</time>
</trkpt>
<trkpt lat="49.09549193456769" lon="8.529179999604821">
<ele>113.79999999999995</ele>
<time>2023-05-17T11:45:12Z</time>
</trkpt>
<trkpt lat="49.09553493373096" lon="8.529124930500984">
<ele>113.79999999999995</ele>
<time>2023-05-17T11:45:13Z</time>
</trkpt>
<trkpt lat="49.09557499922812" lon="8.52907195687294">
<ele>113.79999999999995</ele>
<time>2023-05-17T11:45:14Z</time>
</trkpt>
<trkpt lat="49.09561799839139" lon="8.529019989073277">
<ele>113.79999999999995</ele>
<time>2023-05-17T11:45:15Z</time>
</trkpt>
<trkpt lat="49.09566191956401" lon="8.528967937454581">
<ele>113.60000000000002</ele>
<time>2023-05-17T11:45:16Z</time>
</trkpt>
<trkpt lat="49.09570299088955" lon="8.528916975483298">
<ele>113.60000000000002</ele>
<time>2023-05-17T11:45:17Z</time>
</trkpt>
<trkpt lat="49.0957469958812" lon="8.528862996026874">
<ele>113.60000000000002</ele>
<time>2023-05-17T11:45:18Z</time>
</trkpt>
<trkpt lat="49.09578697755933" lon="8.528809938579798">
<ele>113.60000000000002</ele>
<time>2023-05-17T11:45:19Z</time>
</trkpt>
<trkpt lat="49.095824947580695" lon="8.528761994093657">
<ele>113.39999999999998</ele>
<time>2023-05-17T11:45:20Z</time>
</trkpt>
<trkpt lat="49.09585998393595" lon="8.528712959960103">
<ele>113.39999999999998</ele>
<time>2023-05-17T11:45:21Z</time>
</trkpt>
<trkpt lat="49.09589694812894" lon="8.52866493165493">
<ele>113.39999999999998</ele>
<time>2023-05-17T11:45:22Z</time>
</trkpt>
<trkpt lat="49.095929972827435" lon="8.528614975512028">
<ele>113.39999999999998</ele>
<time>2023-05-17T11:45:23Z</time>
</trkpt>
<trkpt lat="49.09596492536366" lon="8.528564935550094">
<ele>113.39999999999998</ele>
<time>2023-05-17T11:45:24Z</time>
</trkpt>
<trkpt lat="49.095996944233775" lon="8.528517996892333">
<ele>113.39999999999998</ele>
<time>2023-05-17T11:45:25Z</time>
</trkpt>
<trkpt lat="49.09602795727551" lon="8.528476925566792">
<ele>113.39999999999998</ele>
<time>2023-05-17T11:45:26Z</time>
</trkpt>
<trkpt lat="49.096059976145625" lon="8.528431998565793">
<ele>113.39999999999998</ele>
<time>2023-05-17T11:45:27Z</time>
</trkpt>
<trkpt lat="49.09609199501574" lon="8.528389921411872">
<ele>113.39999999999998</ele>
<time>2023-05-17T11:45:28Z</time>
</trkpt>
<trkpt lat="49.09612292423844" lon="8.528342982754111">
<ele>113.39999999999998</ele>
<time>2023-05-17T11:45:29Z</time>
</trkpt>
<trkpt lat="49.09615494310856" lon="8.528294954448938">
<ele>113.39999999999998</ele>
<time>2023-05-17T11:45:30Z</time>
</trkpt>
<trkpt lat="49.09618495032191" lon="8.528246926143765">
<ele>113.39999999999998</ele>
<time>2023-05-17T11:45:31Z</time>
</trkpt>
<trkpt lat="49.096212945878506" lon="8.528199987486005">
<ele>113.39999999999998</ele>
<time>2023-05-17T11:45:32Z</time>
</trkpt>
<trkpt lat="49.09623792394996" lon="8.52814793586731">
<ele>113.39999999999998</ele>
<time>2023-05-17T11:45:33Z</time>
</trkpt>
<trkpt lat="49.09626198001206" lon="8.528087921440601">
<ele>113.60000000000002</ele>
<time>2023-05-17T11:45:34Z</time>
</trkpt>
<trkpt lat="49.09628293476999" lon="8.528031930327415">
<ele>113.60000000000002</ele>
<time>2023-05-17T11:45:35Z</time>
</trkpt>
<trkpt lat="49.096297938376665" lon="8.527974933385849">
<ele>113.60000000000002</ele>
<time>2023-05-17T11:45:36Z</time>
</trkpt>
<trkpt lat="49.09631193615496" lon="8.52791491895914">
<ele>113.60000000000002</ele>
<time>2023-05-17T11:45:37Z</time>
</trkpt>
<trkpt lat="49.096317971125245" lon="8.527861945331097">
<ele>113.60000000000002</ele>
<time>2023-05-17T11:45:38Z</time>
</trkpt>
<trkpt lat="49.096322916448116" lon="8.527807965874672">
<ele>113.79999999999995</ele>
<time>2023-05-17T11:45:39Z</time>
</trkpt>
<trkpt lat="49.096322916448116" lon="8.52776194922626">
<ele>113.79999999999995</ele>
<time>2023-05-17T11:45:40Z</time>
</trkpt>
<trkpt lat="49.09632492810488" lon="8.527721967548132">
<ele>114</ele>
<time>2023-05-17T11:45:41Z</time>
</trkpt>
<trkpt lat="49.096322916448116" lon="8.527684919536114">
<ele>114</ele>
<time>2023-05-17T11:45:42Z</time>
</trkpt>
<trkpt lat="49.096322916448116" lon="8.527647955343127">
<ele>114.20000000000005</ele>
<time>2023-05-17T11:45:43Z</time>
</trkpt>
<trkpt lat="49.096322916448116" lon="8.527606967836618">
<ele>114.20000000000005</ele>
<time>2023-05-17T11:45:44Z</time>
</trkpt>
<trkpt lat="49.096322916448116" lon="8.527562962844968">
<ele>114.20000000000005</ele>
<time>2023-05-17T11:45:45Z</time>
</trkpt>
<trkpt lat="49.09632492810488" lon="8.52752692066133">
<ele>114.39999999999998</ele>
<time>2023-05-17T11:45:46Z</time>
</trkpt>
<trkpt lat="49.09632995724678" lon="8.527487944811583">
<ele>114.39999999999998</ele>
<time>2023-05-17T11:45:47Z</time>
</trkpt>
<trkpt lat="49.09633792005479" lon="8.527442933991551">
<ele>114.39999999999998</ele>
<time>2023-05-17T11:45:48Z</time>
</trkpt>
<trkpt lat="49.096342949196696" lon="8.527392977848649">
<ele>114.39999999999998</ele>
<time>2023-05-17T11:45:49Z</time>
</trkpt>
<trkpt lat="49.096336998045444" lon="8.527346961200237">
<ele>114.39999999999998</ele>
<time>2023-05-17T11:45:50Z</time>
</trkpt>
<trkpt lat="49.096316965296865" lon="8.527296921238303">
<ele>114.39999999999998</ele>
<time>2023-05-17T11:45:51Z</time>
</trkpt>
<trkpt lat="49.09629492089152" lon="8.527252916246653">
<ele>114.39999999999998</ele>
<time>2023-05-17T11:45:52Z</time>
</trkpt>
<trkpt lat="49.09626692533493" lon="8.527207989245653">
<ele>114.39999999999998</ele>
<time>2023-05-17T11:45:53Z</time>
</trkpt>
<trkpt lat="49.09623792394996" lon="8.527162978425622">
<ele>114.39999999999998</ele>
<time>2023-05-17T11:45:54Z</time>
</trkpt>
<trkpt lat="49.096212945878506" lon="8.527119979262352">
<ele>114.39999999999998</ele>
<time>2023-05-17T11:45:55Z</time>
</trkpt>
<trkpt lat="49.09619693644345" lon="8.527079997584224">
<ele>114.39999999999998</ele>
<time>2023-05-17T11:45:56Z</time>
</trkpt>
<trkpt lat="49.096189979463816" lon="8.527022916823626">
<ele>114.39999999999998</ele>
<time>2023-05-17T11:45:57Z</time>
</trkpt>
<trkpt lat="49.09619199112058" lon="8.526961980387568">
<ele>114.39999999999998</ele>
<time>2023-05-17T11:45:58Z</time>
</trkpt>
<trkpt lat="49.09620498307049" lon="8.52690196596086">
<ele>114.39999999999998</ele>
<time>2023-05-17T11:45:59Z</time>
</trkpt>
<trkpt lat="49.096211940050125" lon="8.52683499455452">
<ele>114.39999999999998</ele>
<time>2023-05-17T11:46:00Z</time>
</trkpt>
<trkpt lat="49.09620498307049" lon="8.52677296847105">
<ele>114.39999999999998</ele>
<time>2023-05-17T11:46:01Z</time>
</trkpt>
<trkpt lat="49.09617799334228" lon="8.526716977357864">
<ele>114.39999999999998</ele>
<time>2023-05-17T11:46:02Z</time>
</trkpt>
<trkpt lat="49.09614295698702" lon="8.526659980416298">
<ele>114.20000000000005</ele>
<time>2023-05-17T11:46:03Z</time>
</trkpt>
<trkpt lat="49.09611294977367" lon="8.526606922969222">
<ele>114.20000000000005</ele>
<time>2023-05-17T11:46:04Z</time>
</trkpt>
<trkpt lat="49.096081936731935" lon="8.526552943512797">
<ele>114.20000000000005</ele>
<time>2023-05-17T11:46:05Z</time>
</trkpt>
<trkpt lat="49.09605192951858" lon="8.52649494074285">
<ele>114.20000000000005</ele>
<time>2023-05-17T11:46:06Z</time>
</trkpt>
<trkpt lat="49.096021922305226" lon="8.526436937972903">
<ele>114.20000000000005</ele>
<time>2023-05-17T11:46:07Z</time>
</trkpt>
<trkpt lat="49.09599996171892" lon="8.526379941031337">
<ele>114.20000000000005</ele>
<time>2023-05-17T11:46:08Z</time>
</trkpt>
<trkpt lat="49.095972971990705" lon="8.52632193826139">
<ele>114.20000000000005</ele>
<time>2023-05-17T11:46:09Z</time>
</trkpt>
<trkpt lat="49.09594296477735" lon="8.526262929663062">
<ele>114</ele>
<time>2023-05-17T11:46:10Z</time>
</trkpt>
<trkpt lat="49.09591496922076" lon="8.526204926893115">
<ele>114</ele>
<time>2023-05-17T11:46:11Z</time>
</trkpt>
<trkpt lat="49.09588295035064" lon="8.526142984628677">
<ele>113.79999999999995</ele>
<time>2023-05-17T11:46:12Z</time>
</trkpt>
<trkpt lat="49.09585495479405" lon="8.52608498185873">
<ele>113.79999999999995</ele>
<time>2023-05-17T11:46:13Z</time>
</trkpt>
<trkpt lat="49.095824947580695" lon="8.526026979088783">
<ele>113.79999999999995</ele>
<time>2023-05-17T11:46:14Z</time>
</trkpt>
<trkpt lat="49.0957969520241" lon="8.525967970490456">
<ele>113.60000000000002</ele>
<time>2023-05-17T11:46:15Z</time>
</trkpt>
<trkpt lat="49.09576996229589" lon="8.52591197937727">
<ele>113.60000000000002</ele>
<time>2023-05-17T11:46:16Z</time>
</trkpt>
<trkpt lat="49.09574498422444" lon="8.525859927758574">
<ele>113.60000000000002</ele>
<time>2023-05-17T11:46:17Z</time>
</trkpt>
<trkpt lat="49.095716988667846" lon="8.525811983272433">
<ele>113.60000000000002</ele>
<time>2023-05-17T11:46:18Z</time>
</trkpt>
<trkpt lat="49.09568999893963" lon="8.52576294913888">
<ele>113.60000000000002</ele>
<time>2023-05-17T11:46:19Z</time>
</trkpt>
<trkpt lat="49.09566191956401" lon="8.525711987167597">
<ele>113.60000000000002</ele>
<time>2023-05-17T11:46:20Z</time>
</trkpt>
<trkpt lat="49.095627972856164" lon="8.525661947205663">
<ele>113.60000000000002</ele>
<time>2023-05-17T11:46:21Z</time>
</trkpt>
<trkpt lat="49.09559494815767" lon="8.525609979406">
<ele>113.60000000000002</ele>
<time>2023-05-17T11:46:22Z</time>
</trkpt>
<trkpt lat="49.09555999562144" lon="8.525556921958923">
<ele>113.60000000000002</ele>
<time>2023-05-17T11:46:23Z</time>
</trkpt>
<trkpt lat="49.09552697092295" lon="8.525501936674118">
<ele>113.60000000000002</ele>
<time>2023-05-17T11:46:24Z</time>
</trkpt>
<trkpt lat="49.09549193456769" lon="8.525444939732552">
<ele>113.60000000000002</ele>
<time>2023-05-17T11:46:25Z</time>
</trkpt>
<trkpt lat="49.0954549703747" lon="8.525389954447746">
<ele>113.60000000000002</ele>
<time>2023-05-17T11:46:26Z</time>
</trkpt>
<trkpt lat="49.095419934019446" lon="8.525336980819702">
<ele>113.60000000000002</ele>
<time>2023-05-17T11:46:27Z</time>
</trkpt>
<trkpt lat="49.09538699313998" lon="8.525284929201007">
<ele>113.60000000000002</ele>
<time>2023-05-17T11:46:28Z</time>
</trkpt>
<trkpt lat="49.095351956784725" lon="8.525234973058105">
<ele>113.60000000000002</ele>
<time>2023-05-17T11:46:29Z</time>
</trkpt>
<trkpt lat="49.09531792625785" lon="8.525186944752932">
<ele>113.60000000000002</ele>
<time>2023-05-17T11:46:30Z</time>
</trkpt>
<trkpt lat="49.095284985378385" lon="8.5251419339329">
<ele>113.60000000000002</ele>
<time>2023-05-17T11:46:31Z</time>
</trkpt>
<trkpt lat="49.09524994902313" lon="8.52509692311287">
<ele>113.60000000000002</ele>
<time>2023-05-17T11:46:32Z</time>
</trkpt>
<trkpt lat="49.09521793015301" lon="8.52505199611187">
<ele>113.60000000000002</ele>
<time>2023-05-17T11:46:33Z</time>
</trkpt>
<trkpt lat="49.09518297761679" lon="8.525002961978316">
<ele>113.60000000000002</ele>
<time>2023-05-17T11:46:34Z</time>
</trkpt>
<trkpt lat="49.09514794126153" lon="8.524956945329905">
<ele>113.60000000000002</ele>
<time>2023-05-17T11:46:35Z</time>
</trkpt>
<trkpt lat="49.095111982896924" lon="8.524909922853112">
<ele>113.60000000000002</ele>
<time>2023-05-17T11:46:36Z</time>
</trkpt>
<trkpt lat="49.095071917399764" lon="8.524857955053449">
<ele>113.60000000000002</ele>
<time>2023-05-17T11:46:37Z</time>
</trkpt>
<trkpt lat="49.095029924064875" lon="8.524802969768643">
<ele>113.60000000000002</ele>
<time>2023-05-17T11:46:38Z</time>
</trkpt>
<trkpt lat="49.094986924901605" lon="8.524747984483838">
<ele>113.60000000000002</ele>
<time>2023-05-17T11:46:39Z</time>
</trkpt>
<trkpt lat="49.094942919909954" lon="8.524689981713891">
<ele>113.60000000000002</ele>
<time>2023-05-17T11:46:40Z</time>
</trkpt>
<trkpt lat="49.094897992908955" lon="8.524629967287183">
<ele>113.39999999999998</ele>
<time>2023-05-17T11:46:41Z</time>
</trkpt>
<trkpt lat="49.09485197626054" lon="8.524567941203713">
<ele>113.39999999999998</ele>
<time>2023-05-17T11:46:42Z</time>
</trkpt>
<trkpt lat="49.09480495378375" lon="8.524504993110895">
<ele>113.39999999999998</ele>
<time>2023-05-17T11:46:43Z</time>
</trkpt>
<trkpt lat="49.09475793130696" lon="8.524439949542284">
<ele>113.39999999999998</ele>
<time>2023-05-17T11:46:44Z</time>
</trkpt>
<trkpt lat="49.09471292048693" lon="8.524376917630434">
<ele>113.39999999999998</ele>
<time>2023-05-17T11:46:45Z</time>
</trkpt>
<trkpt lat="49.09466698765755" lon="8.524311957880855">
<ele>113.20000000000005</ele>
<time>2023-05-17T11:46:46Z</time>
</trkpt>
<trkpt lat="49.094619965180755" lon="8.524246998131275">
<ele>113.20000000000005</ele>
<time>2023-05-17T11:46:47Z</time>
</trkpt>
<trkpt lat="49.09457294270396" lon="8.524179942905903">
<ele>113.20000000000005</ele>
<time>2023-05-17T11:46:48Z</time>
</trkpt>
<trkpt lat="49.09452793188393" lon="8.524112971499562">
<ele>113.20000000000005</ele>
<time>2023-05-17T11:46:49Z</time>
</trkpt>
<trkpt lat="49.0944829210639" lon="8.524044994264841">
<ele>113.20000000000005</ele>
<time>2023-05-17T11:46:50Z</time>
</trkpt>
<trkpt lat="49.0944379940629" lon="8.523976933211088">
<ele>113</ele>
<time>2023-05-17T11:46:51Z</time>
</trkpt>
<trkpt lat="49.09439499489963" lon="8.523907950147986">
<ele>113</ele>
<time>2023-05-17T11:46:52Z</time>
</trkpt>
<trkpt lat="49.09435199573636" lon="8.523837961256504">
<ele>113</ele>
<time>2023-05-17T11:46:53Z</time>
</trkpt>
<trkpt lat="49.0943119302392" lon="8.523766966536641">
<ele>113</ele>
<time>2023-05-17T11:46:54Z</time>
</trkpt>
<trkpt lat="49.09426993690431" lon="8.523696977645159">
<ele>113</ele>
<time>2023-05-17T11:46:55Z</time>
</trkpt>
<trkpt lat="49.09422794356942" lon="8.523624977096915">
<ele>112.79999999999995</ele>
<time>2023-05-17T11:46:56Z</time>
</trkpt>
<trkpt lat="49.09418695606291" lon="8.523552976548672">
<ele>112.79999999999995</ele>
<time>2023-05-17T11:46:57Z</time>
</trkpt>
<trkpt lat="49.094146974384785" lon="8.523481981828809">
<ele>112.79999999999995</ele>
<time>2023-05-17T11:46:58Z</time>
</trkpt>
<trkpt lat="49.09410699270666" lon="8.523407969623804">
<ele>112.79999999999995</ele>
<time>2023-05-17T11:46:59Z</time>
</trkpt>
<trkpt lat="49.0940669272095" lon="8.523336974903941">
<ele>112.79999999999995</ele>
<time>2023-05-17T11:47:00Z</time>
</trkpt>
<trkpt lat="49.09402795135975" lon="8.523262962698936">
<ele>112.79999999999995</ele>
<time>2023-05-17T11:47:01Z</time>
</trkpt>
<trkpt lat="49.09398998133838" lon="8.523187944665551">
<ele>112.79999999999995</ele>
<time>2023-05-17T11:47:02Z</time>
</trkpt>
<trkpt lat="49.09394999966025" lon="8.523109992966056">
<ele>112.79999999999995</ele>
<time>2023-05-17T11:47:03Z</time>
</trkpt>
<trkpt lat="49.09390691667795" lon="8.523029945790768">
<ele>112.79999999999995</ele>
<time>2023-05-17T11:47:04Z</time>
</trkpt>
<trkpt lat="49.09386492334306" lon="8.52294696494937">
<ele>112.79999999999995</ele>
<time>2023-05-17T11:47:05Z</time>
</trkpt>
<trkpt lat="49.09382293000817" lon="8.52286297827959">
<ele>112.79999999999995</ele>
<time>2023-05-17T11:47:06Z</time>
</trkpt>
<trkpt lat="49.093781942501664" lon="8.522777985781431">
<ele>112.79999999999995</ele>
<time>2023-05-17T11:47:07Z</time>
</trkpt>
<trkpt lat="49.09374296665192" lon="8.522696932777762">
<ele>112.79999999999995</ele>
<time>2023-05-17T11:47:08Z</time>
</trkpt>
<trkpt lat="49.09370298497379" lon="8.522614957764745">
<ele>112.79999999999995</ele>
<time>2023-05-17T11:47:09Z</time>
</trkpt>
<trkpt lat="49.09366996027529" lon="8.522531976923347">
<ele>112.79999999999995</ele>
<time>2023-05-17T11:47:10Z</time>
</trkpt>
<trkpt lat="49.0936369355768" lon="8.522451929748058">
<ele>112.79999999999995</ele>
<time>2023-05-17T11:47:11Z</time>
</trkpt>
<trkpt lat="49.09360298886895" lon="8.52236794307828">
<ele>112.79999999999995</ele>
<time>2023-05-17T11:47:12Z</time>
</trkpt>
<trkpt lat="49.09357197582722" lon="8.522284962236881">
<ele>112.79999999999995</ele>
<time>2023-05-17T11:47:13Z</time>
</trkpt>
<trkpt lat="49.0935399569571" lon="8.522199969738722">
<ele>112.79999999999995</ele>
<time>2023-05-17T11:47:14Z</time>
</trkpt>
<trkpt lat="49.09351196140051" lon="8.522112965583801">
<ele>112.79999999999995</ele>
<time>2023-05-17T11:47:15Z</time>
</trkpt>
<trkpt lat="49.0934849716723" lon="8.522026967257261">
<ele>112.79999999999995</ele>
<time>2023-05-17T11:47:16Z</time>
</trkpt>
<trkpt lat="49.093461921438575" lon="8.521944992244244">
<ele>112.79999999999995</ele>
<time>2023-05-17T11:47:17Z</time>
</trkpt>
<trkpt lat="49.093436943367124" lon="8.521864945068955">
<ele>112.79999999999995</ele>
<time>2023-05-17T11:47:18Z</time>
</trkpt>
<trkpt lat="49.09341297112405" lon="8.52178699336946">
<ele>112.60000000000002</ele>
<time>2023-05-17T11:47:19Z</time>
</trkpt>
<trkpt lat="49.09339193254709" lon="8.521712981164455">
<ele>112.60000000000002</ele>
<time>2023-05-17T11:47:20Z</time>
</trkpt>
<trkpt lat="49.09336796030402" lon="8.521644920110703">
<ele>112.60000000000002</ele>
<time>2023-05-17T11:47:21Z</time>
</trkpt>
<trkpt lat="49.09334197640419" lon="8.521584989503026">
<ele>112.60000000000002</ele>
<time>2023-05-17T11:47:22Z</time>
</trkpt>
<trkpt lat="49.09331792034209" lon="8.52153193205595">
<ele>112.60000000000002</ele>
<time>2023-05-17T11:47:23Z</time>
</trkpt>
<trkpt lat="49.09329797141254" lon="8.521477952599525">
<ele>112.60000000000002</ele>
<time>2023-05-17T11:47:24Z</time>
</trkpt>
<trkpt lat="49.093284979462624" lon="8.52142196148634">
<ele>112.60000000000002</ele>
<time>2023-05-17T11:47:25Z</time>
</trkpt>
<trkpt lat="49.09326997585595" lon="8.521364964544773">
<ele>112.79999999999995</ele>
<time>2023-05-17T11:47:26Z</time>
</trkpt>
<trkpt lat="49.09325296059251" lon="8.521307967603207">
<ele>112.79999999999995</ele>
<time>2023-05-17T11:47:27Z</time>
</trkpt>
<trkpt lat="49.09323695115745" lon="8.521252982318401">
<ele>112.79999999999995</ele>
<time>2023-05-17T11:47:28Z</time>
</trkpt>
<trkpt lat="49.09321993589401" lon="8.521196991205215">
<ele>112.79999999999995</ele>
<time>2023-05-17T11:47:29Z</time>
</trkpt>
<trkpt lat="49.093204932287335" lon="8.521139994263649">
<ele>112.79999999999995</ele>
<time>2023-05-17T11:47:30Z</time>
</trkpt>
<trkpt lat="49.09319194033742" lon="8.521084925159812">
<ele>113</ele>
<time>2023-05-17T11:47:31Z</time>
</trkpt>
<trkpt lat="49.09317794255912" lon="8.521026922389865">
<ele>113</ele>
<time>2023-05-17T11:47:32Z</time>
</trkpt>
<trkpt lat="49.09316696226597" lon="8.520969925448298">
<ele>113</ele>
<time>2023-05-17T11:47:33Z</time>
</trkpt>
<trkpt lat="49.093157993629575" lon="8.520911922678351">
<ele>113</ele>
<time>2023-05-17T11:47:34Z</time>
</trkpt>
<trkpt lat="49.09314994700253" lon="8.520852997899055">
<ele>113.20000000000005</ele>
<time>2023-05-17T11:47:35Z</time>
</trkpt>
<trkpt lat="49.0931429900229" lon="8.520792983472347">
<ele>113.20000000000005</ele>
<time>2023-05-17T11:47:36Z</time>
</trkpt>
<trkpt lat="49.09313494339585" lon="8.520736992359161">
<ele>113.39999999999998</ele>
<time>2023-05-17T11:47:37Z</time>
</trkpt>
<trkpt lat="49.09312195144594" lon="8.520682929083705">
<ele>113.39999999999998</ele>
<time>2023-05-17T11:47:38Z</time>
</trkpt>
<trkpt lat="49.093114994466305" lon="8.52062995545566">
<ele>113.60000000000002</ele>
<time>2023-05-17T11:47:39Z</time>
</trkpt>
<trkpt lat="49.0931049361825" lon="8.520579999312758">
<ele>113.60000000000002</ele>
<time>2023-05-17T11:47:40Z</time>
</trkpt>
<trkpt lat="49.09309797920287" lon="8.520529959350824">
<ele>113.60000000000002</ele>
<time>2023-05-17T11:47:41Z</time>
</trkpt>
<trkpt lat="49.09309194423258" lon="8.52047991938889">
<ele>113.79999999999995</ele>
<time>2023-05-17T11:47:42Z</time>
</trkpt>
<trkpt lat="49.09308498725295" lon="8.520427951589227">
<ele>113.79999999999995</ele>
<time>2023-05-17T11:47:43Z</time>
</trkpt>
<trkpt lat="49.093074928969145" lon="8.52037196047604">
<ele>113.79999999999995</ele>
<time>2023-05-17T11:47:44Z</time>
</trkpt>
<trkpt lat="49.09306696616113" lon="8.5203049890697">
<ele>113.79999999999995</ele>
<time>2023-05-17T11:47:45Z</time>
</trkpt>
<trkpt lat="49.09305699169636" lon="8.520229971036315">
<ele>113.60000000000002</ele>
<time>2023-05-17T11:47:46Z</time>
</trkpt>
<trkpt lat="49.09304693341255" lon="8.520152941346169">
<ele>113.60000000000002</ele>
<time>2023-05-17T11:47:47Z</time>
</trkpt>
<trkpt lat="49.09303695894778" lon="8.520074989646673">
<ele>113.60000000000002</ele>
<time>2023-05-17T11:47:48Z</time>
</trkpt>
<trkpt lat="49.093029918149114" lon="8.519996954128146">
<ele>113.60000000000002</ele>
<time>2023-05-17T11:47:49Z</time>
</trkpt>
<trkpt lat="49.09302497282624" lon="8.519919924438">
<ele>113.39999999999998</ele>
<time>2023-05-17T11:47:50Z</time>
</trkpt>
<trkpt lat="49.09301994368434" lon="8.519841972738504">
<ele>113.39999999999998</ele>
<time>2023-05-17T11:47:51Z</time>
</trkpt>
<trkpt lat="49.09301793202758" lon="8.519762931391597">
<ele>113.39999999999998</ele>
<time>2023-05-17T11:47:52Z</time>
</trkpt>
<trkpt lat="49.0930169261992" lon="8.519686991348863">
<ele>113.39999999999998</ele>
<time>2023-05-17T11:47:53Z</time>
</trkpt>
<trkpt lat="49.09301793202758" lon="8.519609961658716">
<ele>113.39999999999998</ele>
<time>2023-05-17T11:47:54Z</time>
</trkpt>
<trkpt lat="49.0930219553411" lon="8.519536955282092">
<ele>113.39999999999998</ele>
<time>2023-05-17T11:47:55Z</time>
</trkpt>
<trkpt lat="49.09302497282624" lon="8.519459925591946">
<ele>113.39999999999998</ele>
<time>2023-05-17T11:47:56Z</time>
</trkpt>
<trkpt lat="49.093026984483004" lon="8.519386919215322">
<ele>113.20000000000005</ele>
<time>2023-05-17T11:47:57Z</time>
</trkpt>
<trkpt lat="49.093027990311384" lon="8.519311985000968">
<ele>113.20000000000005</ele>
<time>2023-05-17T11:47:58Z</time>
</trkpt>
<trkpt lat="49.093031929805875" lon="8.519234955310822">
<ele>113.20000000000005</ele>
<time>2023-05-17T11:47:59Z</time>
</trkpt>
<trkpt lat="49.09303695894778" lon="8.519159937277436">
<ele>113.20000000000005</ele>
<time>2023-05-17T11:48:00Z</time>
</trkpt>
<trkpt lat="49.09304198808968" lon="8.519086930900812">
<ele>113.20000000000005</ele>
<time>2023-05-17T11:48:01Z</time>
</trkpt>
<trkpt lat="49.09304793924093" lon="8.519009985029697">
<ele>113.20000000000005</ele>
<time>2023-05-17T11:48:02Z</time>
</trkpt>
<trkpt lat="49.09305699169636" lon="8.518936978653073">
<ele>113.20000000000005</ele>
<time>2023-05-17T11:48:03Z</time>
</trkpt>
<trkpt lat="49.09306696616113" lon="8.518861960619688">
<ele>113.20000000000005</ele>
<time>2023-05-17T11:48:04Z</time>
</trkpt>
<trkpt lat="49.09308297559619" lon="8.518789960071445">
<ele>113.20000000000005</ele>
<time>2023-05-17T11:48:05Z</time>
</trkpt>
<trkpt lat="49.09310292452574" lon="8.518722988665104">
<ele>113.20000000000005</ele>
<time>2023-05-17T11:48:06Z</time>
</trkpt>
<trkpt lat="49.09312195144594" lon="8.518662974238396">
<ele>113.20000000000005</ele>
<time>2023-05-17T11:48:07Z</time>
</trkpt>
<trkpt lat="49.09313494339585" lon="8.51860991679132">
<ele>113.20000000000005</ele>
<time>2023-05-17T11:48:08Z</time>
</trkpt>
<trkpt lat="49.0931429900229" lon="8.518552919849753">
<ele>113.20000000000005</ele>
<time>2023-05-17T11:48:09Z</time>
</trkpt>
<trkpt lat="49.09314793534577" lon="8.518492989242077">
<ele>113.39999999999998</ele>
<time>2023-05-17T11:48:10Z</time>
</trkpt>
<trkpt lat="49.09314793534577" lon="8.51843792013824">
<ele>113.39999999999998</ele>
<time>2023-05-17T11:48:11Z</time>
</trkpt>
<trkpt lat="49.09314692951739" lon="8.518384946510196">
<ele>113.39999999999998</ele>
<time>2023-05-17T11:48:12Z</time>
</trkpt>
<trkpt lat="49.093139972537756" lon="8.518334990367293">
<ele>113.39999999999998</ele>
<time>2023-05-17T11:48:13Z</time>
</trkpt>
<trkpt lat="49.09313293173909" lon="8.518297942355275">
<ele>113.39999999999998</ele>
<time>2023-05-17T11:48:14Z</time>
</trkpt>
<trkpt lat="49.09312698058784" lon="8.51826298981905">
<ele>113.39999999999998</ele>
<time>2023-05-17T11:48:15Z</time>
</trkpt>
<trkpt lat="49.09312195144594" lon="8.518224935978651">
<ele>113.39999999999998</ele>
<time>2023-05-17T11:48:16Z</time>
</trkpt>
<trkpt lat="49.093112982809544" lon="8.518181936815381">
<ele>113.60000000000002</ele>
<time>2023-05-17T11:48:17Z</time>
</trkpt>
<trkpt lat="49.09310694783926" lon="8.518131980672479">
<ele>113.60000000000002</ele>
<time>2023-05-17T11:48:18Z</time>
</trkpt>
<trkpt lat="49.0931049361825" lon="8.518081940710545">
<ele>113.60000000000002</ele>
<time>2023-05-17T11:48:19Z</time>
</trkpt>
<trkpt lat="49.09310795366764" lon="8.51802796125412">
<ele>113.79999999999995</ele>
<time>2023-05-17T11:48:20Z</time>
</trkpt>
<trkpt lat="49.093117928132415" lon="8.517977921292186">
<ele>113.79999999999995</ele>
<time>2023-05-17T11:48:21Z</time>
</trkpt>
<trkpt lat="49.09312698058784" lon="8.517924947664142">
<ele>114</ele>
<time>2023-05-17T11:48:22Z</time>
</trkpt>
<trkpt lat="49.09313494339585" lon="8.517862921580672">
<ele>114</ele>
<time>2023-05-17T11:48:23Z</time>
</trkpt>
<trkpt lat="49.0931429900229" lon="8.517799973487854">
<ele>114.20000000000005</ele>
<time>2023-05-17T11:48:24Z</time>
</trkpt>
<trkpt lat="49.09315296448767" lon="8.517737947404385">
<ele>114.20000000000005</ele>
<time>2023-05-17T11:48:25Z</time>
</trkpt>
<trkpt lat="49.093161933124065" lon="8.517669970169663">
<ele>114.20000000000005</ele>
<time>2023-05-17T11:48:26Z</time>
</trkpt>
<trkpt lat="49.09316997975111" lon="8.517599981278181">
<ele>114.20000000000005</ele>
<time>2023-05-17T11:48:27Z</time>
</trkpt>
<trkpt lat="49.09317794255912" lon="8.517527980729938">
<ele>114.20000000000005</ele>
<time>2023-05-17T11:48:28Z</time>
</trkpt>
<trkpt lat="49.0931879170239" lon="8.517456986010075">
<ele>114.20000000000005</ele>
<time>2023-05-17T11:48:29Z</time>
</trkpt>
<trkpt lat="49.09319696947932" lon="8.517386997118592">
<ele>114.39999999999998</ele>
<time>2023-05-17T11:48:30Z</time>
</trkpt>
<trkpt lat="49.093204932287335" lon="8.517309967428446">
<ele>114.39999999999998</ele>
<time>2023-05-17T11:48:31Z</time>
</trkpt>
<trkpt lat="49.09321691840887" lon="8.5172329377383">
<ele>114.39999999999998</ele>
<time>2023-05-17T11:48:32Z</time>
</trkpt>
<trkpt lat="49.09322697669268" lon="8.517157919704914">
<ele>114.39999999999998</ele>
<time>2023-05-17T11:48:33Z</time>
</trkpt>
<trkpt lat="49.09323795698583" lon="8.51708197966218">
<ele>114.39999999999998</ele>
<time>2023-05-17T11:48:34Z</time>
</trkpt>
<trkpt lat="49.093247931450605" lon="8.517007967457175">
<ele>114.39999999999998</ele>
<time>2023-05-17T11:48:35Z</time>
</trkpt>
<trkpt lat="49.0932619292289" lon="8.516934961080551">
<ele>114.39999999999998</ele>
<time>2023-05-17T11:48:36Z</time>
</trkpt>
<trkpt lat="49.09327299334109" lon="8.516861954703927">
<ele>114.39999999999998</ele>
<time>2023-05-17T11:48:37Z</time>
</trkpt>
<trkpt lat="49.09328296780586" lon="8.516787942498922">
<ele>114.39999999999998</ele>
<time>2023-05-17T11:48:38Z</time>
</trkpt>
<trkpt lat="49.09329294227064" lon="8.516711918637156">
<ele>114.39999999999998</ele>
<time>2023-05-17T11:48:39Z</time>
</trkpt>
<trkpt lat="49.09330291673541" lon="8.516636984422803">
<ele>114.39999999999998</ele>
<time>2023-05-17T11:48:40Z</time>
</trkpt>
<trkpt lat="49.093311969190836" lon="8.516559954732656">
<ele>114.39999999999998</ele>
<time>2023-05-17T11:48:41Z</time>
</trkpt>
<trkpt lat="49.09331792034209" lon="8.516486948356032">
<ele>114.39999999999998</ele>
<time>2023-05-17T11:48:42Z</time>
</trkpt>
<trkpt lat="49.093327978625894" lon="8.516414947807789">
<ele>114.39999999999998</ele>
<time>2023-05-17T11:48:43Z</time>
</trkpt>
<trkpt lat="49.09333996474743" lon="8.516344958916306">
<ele>114.39999999999998</ele>
<time>2023-05-17T11:48:44Z</time>
</trkpt>
<trkpt lat="49.093351950868964" lon="8.516274970024824">
<ele>114.39999999999998</ele>
<time>2023-05-17T11:48:45Z</time>
</trkpt>
<trkpt lat="49.09336293116212" lon="8.516204981133342">
<ele>114.39999999999998</ele>
<time>2023-05-17T11:48:46Z</time>
</trkpt>
<trkpt lat="49.09336997196078" lon="8.51613792590797">
<ele>114.39999999999998</ele>
<time>2023-05-17T11:48:47Z</time>
</trkpt>
<trkpt lat="49.093376928940415" lon="8.516067937016487">
<ele>114.39999999999998</ele>
<time>2023-05-17T11:48:48Z</time>
</trkpt>
<trkpt lat="49.09338698722422" lon="8.515996942296624">
<ele>114.39999999999998</ele>
<time>2023-05-17T11:48:49Z</time>
</trkpt>
<trkpt lat="49.093397967517376" lon="8.51592494174838">
<ele>114.39999999999998</ele>
<time>2023-05-17T11:48:50Z</time>
</trkpt>
<trkpt lat="49.09340995363891" lon="8.515847995877266">
<ele>114.39999999999998</ele>
<time>2023-05-17T11:48:51Z</time>
</trkpt>
<trkpt lat="49.093417916446924" lon="8.515774989500642">
<ele>114.20000000000005</ele>
<time>2023-05-17T11:48:52Z</time>
</trkpt>
<trkpt lat="49.09342495724559" lon="8.515697959810495">
<ele>114.20000000000005</ele>
<time>2023-05-17T11:48:53Z</time>
</trkpt>
<trkpt lat="49.09343493171036" lon="8.515624953433871">
<ele>114.20000000000005</ele>
<time>2023-05-17T11:48:54Z</time>
</trkpt>
<trkpt lat="49.09344498999417" lon="8.515549935400486">
<ele>114.20000000000005</ele>
<time>2023-05-17T11:48:55Z</time>
</trkpt>
<trkpt lat="49.0934519469738" lon="8.515477934852242">
<ele>114.20000000000005</ele>
<time>2023-05-17T11:48:56Z</time>
</trkpt>
<trkpt lat="49.093457981944084" lon="8.51540694013238">
<ele>114</ele>
<time>2023-05-17T11:48:57Z</time>
</trkpt>
<trkpt lat="49.09346795640886" lon="8.515331922098994">
<ele>114</ele>
<time>2023-05-17T11:48:58Z</time>
</trkpt>
<trkpt lat="49.09347692504525" lon="8.51525698788464">
<ele>113.79999999999995</ele>
<time>2023-05-17T11:48:59Z</time>
</trkpt>
<trkpt lat="49.09348698332906" lon="8.515179958194494">
<ele>113.79999999999995</ele>
<time>2023-05-17T11:49:00Z</time>
</trkpt>
<trkpt lat="49.093501986935735" lon="8.51510795764625">
<ele>113.79999999999995</ele>
<time>2023-05-17T11:49:01Z</time>
</trkpt>
<trkpt lat="49.09350994974375" lon="8.515037968754768">
<ele>113.60000000000002</ele>
<time>2023-05-17T11:49:02Z</time>
</trkpt>
<trkpt lat="49.09351699054241" lon="8.514966974034905">
<ele>113.60000000000002</ele>
<time>2023-05-17T11:49:03Z</time>
</trkpt>
<trkpt lat="49.093524953350425" lon="8.514897990971804">
<ele>113.60000000000002</ele>
<time>2023-05-17T11:49:04Z</time>
</trkpt>
<trkpt lat="49.09353299997747" lon="8.514832947403193">
<ele>113.60000000000002</ele>
<time>2023-05-17T11:49:05Z</time>
</trkpt>
<trkpt lat="49.0935399569571" lon="8.514766981825233">
<ele>113.60000000000002</ele>
<time>2023-05-17T11:49:06Z</time>
</trkpt>
<trkpt lat="49.093546997755766" lon="8.51469799876213">
<ele>113.39999999999998</ele>
<time>2023-05-17T11:49:07Z</time>
</trkpt>
<trkpt lat="49.09355294890702" lon="8.514627926051617">
<ele>113.39999999999998</ele>
<time>2023-05-17T11:49:08Z</time>
</trkpt>
<trkpt lat="49.09356191754341" lon="8.514556931331754">
<ele>113.39999999999998</ele>
<time>2023-05-17T11:49:09Z</time>
</trkpt>
<trkpt lat="49.09357197582722" lon="8.5144819971174">
<ele>113.39999999999998</ele>
<time>2023-05-17T11:49:10Z</time>
</trkpt>
<trkpt lat="49.09357197582722" lon="8.514404967427254">
<ele>113.39999999999998</ele>
<time>2023-05-17T11:49:11Z</time>
</trkpt>
<trkpt lat="49.09357792697847" lon="8.514327937737107">
<ele>113.39999999999998</ele>
<time>2023-05-17T11:49:12Z</time>
</trkpt>
<trkpt lat="49.09358496777713" lon="8.514251997694373">
<ele>113.39999999999998</ele>
<time>2023-05-17T11:49:13Z</time>
</trkpt>
<trkpt lat="49.093591924756765" lon="8.514174968004227">
<ele>113.39999999999998</ele>
<time>2023-05-17T11:49:14Z</time>
</trkpt>
<trkpt lat="49.093592930585146" lon="8.51409793831408">
<ele>113.20000000000005</ele>
<time>2023-05-17T11:49:15Z</time>
</trkpt>
<trkpt lat="49.09359695389867" lon="8.514022920280695">
<ele>113.20000000000005</ele>
<time>2023-05-17T11:49:16Z</time>
</trkpt>
<trkpt lat="49.09360198304057" lon="8.513949997723103">
<ele>113.20000000000005</ele>
<time>2023-05-17T11:49:17Z</time>
</trkpt>
<trkpt lat="49.09360692836344" lon="8.513874979689717">
<ele>113.20000000000005</ele>
<time>2023-05-17T11:49:18Z</time>
</trkpt>
<trkpt lat="49.093609945848584" lon="8.513801973313093">
<ele>113.20000000000005</ele>
<time>2023-05-17T11:49:19Z</time>
</trkpt>
<trkpt lat="49.093609945848584" lon="8.513724943622947">
<ele>113.20000000000005</ele>
<time>2023-05-17T11:49:20Z</time>
</trkpt>
<trkpt lat="49.09360793419182" lon="8.513647997751832">
<ele>113.20000000000005</ele>
<time>2023-05-17T11:49:21Z</time>
</trkpt>
<trkpt lat="49.09360491670668" lon="8.513569962233305">
<ele>113.20000000000005</ele>
<time>2023-05-17T11:49:22Z</time>
</trkpt>
<trkpt lat="49.09359795972705" lon="8.513491926714778">
<ele>113.20000000000005</ele>
<time>2023-05-17T11:49:23Z</time>
</trkpt>
<trkpt lat="49.093589996919036" lon="8.513411963358521">
<ele>113.20000000000005</ele>
<time>2023-05-17T11:49:24Z</time>
</trkpt>
<trkpt lat="49.09358496777713" lon="8.513331916183233">
<ele>113.20000000000005</ele>
<time>2023-05-17T11:49:25Z</time>
</trkpt>
<trkpt lat="49.09357993863523" lon="8.513252958655357">
<ele>113.20000000000005</ele>
<time>2023-05-17T11:49:26Z</time>
</trkpt>
<trkpt lat="49.0935729816556" lon="8.513177940621972">
<ele>113.20000000000005</ele>
<time>2023-05-17T11:49:27Z</time>
</trkpt>
<trkpt lat="49.09356292337179" lon="8.513101916760206">
<ele>113.20000000000005</ele>
<time>2023-05-17T11:49:28Z</time>
</trkpt>
<trkpt lat="49.09355496056378" lon="8.513029916211963">
<ele>113.20000000000005</ele>
<time>2023-05-17T11:49:29Z</time>
</trkpt>
<trkpt lat="49.093544986099005" lon="8.512957999482751">
<ele>113.20000000000005</ele>
<time>2023-05-17T11:49:30Z</time>
</trkpt>
<trkpt lat="49.0935349278152" lon="8.512884993106127">
<ele>113.20000000000005</ele>
<time>2023-05-17T11:49:31Z</time>
</trkpt>
<trkpt lat="49.093524953350425" lon="8.512811986729503">
<ele>113</ele>
<time>2023-05-17T11:49:32Z</time>
</trkpt>
<trkpt lat="49.09351296722889" lon="8.51273998618126">
<ele>113</ele>
<time>2023-05-17T11:49:33Z</time>
</trkpt>
<trkpt lat="49.093504920601845" lon="8.512672930955887">
<ele>113</ele>
<time>2023-05-17T11:49:34Z</time>
</trkpt>
<trkpt lat="49.09349796362221" lon="8.512599924579263">
<ele>113</ele>
<time>2023-05-17T11:49:35Z</time>
</trkpt>
<trkpt lat="49.09348798915744" lon="8.512519961223006">
<ele>113</ele>
<time>2023-05-17T11:49:36Z</time>
</trkpt>
<trkpt lat="49.093479942530394" lon="8.51244293153286">
<ele>113</ele>
<time>2023-05-17T11:49:37Z</time>
</trkpt>
<trkpt lat="49.09346795640886" lon="8.512367997318506">
<ele>112.79999999999995</ele>
<time>2023-05-17T11:49:38Z</time>
</trkpt>
<trkpt lat="49.093457981944084" lon="8.512294990941882">
<ele>112.79999999999995</ele>
<time>2023-05-17T11:49:39Z</time>
</trkpt>
<trkpt lat="49.09344993531704" lon="8.512221984565258">
<ele>112.79999999999995</ele>
<time>2023-05-17T11:49:40Z</time>
</trkpt>
<trkpt lat="49.093439960852265" lon="8.512149984017015">
<ele>112.79999999999995</ele>
<time>2023-05-17T11:49:41Z</time>
</trkpt>
<trkpt lat="49.09343199804425" lon="8.512079995125532">
<ele>112.79999999999995</ele>
<time>2023-05-17T11:49:42Z</time>
</trkpt>
<trkpt lat="49.09342495724559" lon="8.51201193407178">
<ele>112.60000000000002</ele>
<time>2023-05-17T11:49:43Z</time>
</trkpt>
<trkpt lat="49.093414982780814" lon="8.511941945180297">
<ele>112.60000000000002</ele>
<time>2023-05-17T11:49:44Z</time>
</trkpt>
<trkpt lat="49.09339997917414" lon="8.511876985430717">
<ele>112.60000000000002</ele>
<time>2023-05-17T11:49:45Z</time>
</trkpt>
<trkpt lat="49.09338497556746" lon="8.511812947690487">
<ele>112.60000000000002</ele>
<time>2023-05-17T11:49:46Z</time>
</trkpt>
<trkpt lat="49.093371983617544" lon="8.511741952970624">
<ele>112.60000000000002</ele>
<time>2023-05-17T11:49:47Z</time>
</trkpt>
<trkpt lat="49.09336192533374" lon="8.51166794076562">
<ele>112.60000000000002</ele>
<time>2023-05-17T11:49:48Z</time>
</trkpt>
<trkpt lat="49.093351950868964" lon="8.511592922732234">
<ele>112.60000000000002</ele>
<time>2023-05-17T11:49:49Z</time>
</trkpt>
<trkpt lat="49.09333996474743" lon="8.511514971032739">
<ele>112.79999999999995</ele>
<time>2023-05-17T11:49:50Z</time>
</trkpt>
<trkpt lat="49.093327978625894" lon="8.511442970484495">
<ele>112.79999999999995</ele>
<time>2023-05-17T11:49:51Z</time>
</trkpt>
<trkpt lat="49.09331498667598" lon="8.51136795245111">
<ele>112.79999999999995</ele>
<time>2023-05-17T11:49:52Z</time>
</trkpt>
<trkpt lat="49.093309957534075" lon="8.511292934417725">
<ele>112.79999999999995</ele>
<time>2023-05-17T11:49:53Z</time>
</trkpt>
<trkpt lat="49.093311969190836" lon="8.511221939697862">
<ele>112.79999999999995</ele>
<time>2023-05-17T11:49:54Z</time>
</trkpt>
<trkpt lat="49.09331993199885" lon="8.51115195080638">
<ele>112.79999999999995</ele>
<time>2023-05-17T11:49:55Z</time>
</trkpt>
<trkpt lat="49.093332923948765" lon="8.511082967743278">
<ele>112.79999999999995</ele>
<time>2023-05-17T11:49:56Z</time>
</trkpt>
<trkpt lat="49.093352956697345" lon="8.511017924174666">
<ele>112.79999999999995</ele>
<time>2023-05-17T11:49:57Z</time>
</trkpt>
<trkpt lat="49.093374917283654" lon="8.510951958596706">
<ele>112.79999999999995</ele>
<time>2023-05-17T11:49:58Z</time>
</trkpt>
<trkpt lat="49.093397967517376" lon="8.510884987190366">
<ele>112.79999999999995</ele>
<time>2023-05-17T11:49:59Z</time>
</trkpt>
<trkpt lat="49.093419928103685" lon="8.510822961106896">
<ele>112.79999999999995</ele>
<time>2023-05-17T11:50:00Z</time>
</trkpt>
<trkpt lat="49.0934469178319" lon="8.510767975822091">
<ele>112.79999999999995</ele>
<time>2023-05-17T11:50:01Z</time>
</trkpt>
<trkpt lat="49.093481954187155" lon="8.510719947516918">
<ele>112.79999999999995</ele>
<time>2023-05-17T11:50:02Z</time>
</trkpt>
<trkpt lat="49.09351196140051" lon="8.510664962232113">
<ele>112.79999999999995</ele>
<time>2023-05-17T11:50:03Z</time>
</trkpt>
<trkpt lat="49.09355697222054" lon="8.510609976947308">
<ele>112.79999999999995</ele>
<time>2023-05-17T11:50:04Z</time>
</trkpt>
<trkpt lat="49.093591924756765" lon="8.510552980005741">
<ele>113</ele>
<time>2023-05-17T11:50:05Z</time>
</trkpt>
<trkpt lat="49.0936229377985" lon="8.510499922558665">
<ele>113</ele>
<time>2023-05-17T11:50:06Z</time>
</trkpt>
<trkpt lat="49.09365797415376" lon="8.510452983900905">
<ele>113</ele>
<time>2023-05-17T11:50:07Z</time>
</trkpt>
<trkpt lat="49.0936919208616" lon="8.510407973080873">
<ele>113</ele>
<time>2023-05-17T11:50:08Z</time>
</trkpt>
<trkpt lat="49.09371295943856" lon="8.510351981967688">
<ele>113</ele>
<time>2023-05-17T11:50:09Z</time>
</trkpt>
<trkpt lat="49.09374992363155" lon="8.510306971147656">
<ele>113.20000000000005</ele>
<time>2023-05-17T11:50:10Z</time>
</trkpt>
<trkpt lat="49.093782948330045" lon="8.510259948670864">
<ele>113.20000000000005</ele>
<time>2023-05-17T11:50:11Z</time>
</trkpt>
<trkpt lat="49.0938179846853" lon="8.510209992527962">
<ele>113.39999999999998</ele>
<time>2023-05-17T11:50:12Z</time>
</trkpt>
<trkpt lat="49.093849919736385" lon="8.510156935080886">
<ele>113.39999999999998</ele>
<time>2023-05-17T11:50:13Z</time>
</trkpt>
<trkpt lat="49.0938869677484" lon="8.510102955624461">
<ele>113.39999999999998</ele>
<time>2023-05-17T11:50:14Z</time>
</trkpt>
<trkpt lat="49.09392292611301" lon="8.51005693897605">
<ele>113.60000000000002</ele>
<time>2023-05-17T11:50:15Z</time>
</trkpt>
<trkpt lat="49.09395997412503" lon="8.510009916499257">
<ele>113.60000000000002</ele>
<time>2023-05-17T11:50:16Z</time>
</trkpt>
<trkpt lat="49.093996938318014" lon="8.509961972013116">
<ele>113.60000000000002</ele>
<time>2023-05-17T11:50:17Z</time>
</trkpt>
<trkpt lat="49.09403197467327" lon="8.509916961193085">
<ele>113.60000000000002</ele>
<time>2023-05-17T11:50:18Z</time>
</trkpt>
<trkpt lat="49.09406499937177" lon="8.50986692123115">
<ele>113.79999999999995</ele>
<time>2023-05-17T11:50:19Z</time>
</trkpt>
<trkpt lat="49.09409492276609" lon="8.509817970916629">
<ele>113.79999999999995</ele>
<time>2023-05-17T11:50:20Z</time>
</trkpt>
<trkpt lat="49.094127947464585" lon="8.509769942611456">
<ele>113.79999999999995</ele>
<time>2023-05-17T11:50:21Z</time>
</trkpt>
<trkpt lat="49.09416298381984" lon="8.509722920134664">
<ele>113.79999999999995</ele>
<time>2023-05-17T11:50:22Z</time>
</trkpt>
<trkpt lat="49.09419793635607" lon="8.509676987305284">
<ele>113.79999999999995</ele>
<time>2023-05-17T11:50:23Z</time>
</trkpt>
<trkpt lat="49.094234984368086" lon="8.50962795317173">
<ele>113.79999999999995</ele>
<time>2023-05-17T11:50:24Z</time>
</trkpt>
<trkpt lat="49.09427194856107" lon="8.509577997028828">
<ele>113.79999999999995</ele>
<time>2023-05-17T11:50:25Z</time>
</trkpt>
<trkpt lat="49.09430296160281" lon="8.509532986208797">
<ele>113.79999999999995</ele>
<time>2023-05-17T11:50:26Z</time>
</trkpt>
<trkpt lat="49.09433196298778" lon="8.509491998702288">
<ele>113.79999999999995</ele>
<time>2023-05-17T11:50:27Z</time>
</trkpt>
<trkpt lat="49.09435694105923" lon="8.509446987882257">
<ele>113.79999999999995</ele>
<time>2023-05-17T11:50:28Z</time>
</trkpt>
<trkpt lat="49.09437697380781" lon="8.509396947920322">
<ele>114</ele>
<time>2023-05-17T11:50:29Z</time>
</trkpt>
<trkpt lat="49.09439298324287" lon="8.509344980120659">
<ele>114</ele>
<time>2023-05-17T11:50:30Z</time>
</trkpt>
<trkpt lat="49.094407986849546" lon="8.509299969300628">
<ele>114</ele>
<time>2023-05-17T11:50:31Z</time>
</trkpt>
<trkpt lat="49.094426929950714" lon="8.5092599876225">
<ele>114</ele>
<time>2023-05-17T11:50:32Z</time>
</trkpt>
<trkpt lat="49.094447968527675" lon="8.5092219337821">
<ele>114</ele>
<time>2023-05-17T11:50:33Z</time>
</trkpt>
<trkpt lat="49.09447495825589" lon="8.509182957932353">
<ele>114</ele>
<time>2023-05-17T11:50:34Z</time>
</trkpt>
<trkpt lat="49.09449993632734" lon="8.509142976254225">
<ele>114</ele>
<time>2023-05-17T11:50:35Z</time>
</trkpt>
<trkpt lat="49.09452198073268" lon="8.509104922413826">
<ele>114</ele>
<time>2023-05-17T11:50:36Z</time>
</trkpt>
<trkpt lat="49.09454494714737" lon="8.509059995412827">
<ele>114</ele>
<time>2023-05-17T11:50:37Z</time>
</trkpt>
<trkpt lat="49.09456497989595" lon="8.509012972936034">
<ele>114</ele>
<time>2023-05-17T11:50:38Z</time>
</trkpt>
<trkpt lat="49.0945849288255" lon="8.50896192714572">
<ele>114</ele>
<time>2023-05-17T11:50:39Z</time>
</trkpt>
<trkpt lat="49.09460496157408" lon="8.508912976831198">
<ele>114</ele>
<time>2023-05-17T11:50:40Z</time>
</trkpt>
<trkpt lat="49.09462792798877" lon="8.508864948526025">
<ele>114</ele>
<time>2023-05-17T11:50:41Z</time>
</trkpt>
<trkpt lat="49.09465198405087" lon="8.508814992383122">
<ele>114</ele>
<time>2023-05-17T11:50:42Z</time>
</trkpt>
<trkpt lat="49.09467997960746" lon="8.508759923279285">
<ele>114</ele>
<time>2023-05-17T11:50:43Z</time>
</trkpt>
<trkpt lat="49.094707975164056" lon="8.508706949651241">
<ele>114</ele>
<time>2023-05-17T11:50:44Z</time>
</trkpt>
<trkpt lat="49.09473798237741" lon="8.508654981851578">
<ele>114</ele>
<time>2023-05-17T11:50:45Z</time>
</trkpt>
<trkpt lat="49.094767989590764" lon="8.508601924404502">
<ele>114</ele>
<time>2023-05-17T11:50:46Z</time>
</trkpt>
<trkpt lat="49.09479799680412" lon="8.508547944948077">
<ele>114</ele>
<time>2023-05-17T11:50:47Z</time>
</trkpt>
<trkpt lat="49.0948299318552" lon="8.50848994217813">
<ele>114</ele>
<time>2023-05-17T11:50:48Z</time>
</trkpt>
<trkpt lat="49.094857927411795" lon="8.508432945236564">
<ele>114</ele>
<time>2023-05-17T11:50:49Z</time>
</trkpt>
<trkpt lat="49.09488491714001" lon="8.508369997143745">
<ele>114</ele>
<time>2023-05-17T11:50:50Z</time>
</trkpt>
<trkpt lat="49.09491299651563" lon="8.508299924433231">
<ele>114</ele>
<time>2023-05-17T11:50:51Z</time>
</trkpt>
<trkpt lat="49.09493797458708" lon="8.508229935541749">
<ele>114</ele>
<time>2023-05-17T11:50:52Z</time>
</trkpt>
<trkpt lat="49.09495792351663" lon="8.508162964135408">
<ele>114</ele>
<time>2023-05-17T11:50:53Z</time>
</trkpt>
<trkpt lat="49.09497695043683" lon="8.508094986900687">
<ele>114</ele>
<time>2023-05-17T11:50:54Z</time>
</trkpt>
<trkpt lat="49.09499698318541" lon="8.508027931675315">
<ele>114</ele>
<time>2023-05-17T11:50:55Z</time>
</trkpt>
<trkpt lat="49.09501299262047" lon="8.507959954440594">
<ele>114</ele>
<time>2023-05-17T11:50:56Z</time>
</trkpt>
<trkpt lat="49.095029924064875" lon="8.50788694806397">
<ele>114</ele>
<time>2023-05-17T11:50:57Z</time>
</trkpt>
<trkpt lat="49.09504492767155" lon="8.507816959172487">
<ele>114</ele>
<time>2023-05-17T11:50:58Z</time>
</trkpt>
<trkpt lat="49.09506496042013" lon="8.507741941139102">
<ele>114</ele>
<time>2023-05-17T11:50:59Z</time>
</trkpt>
<trkpt lat="49.09508298151195" lon="8.507666923105717">
<ele>114</ele>
<time>2023-05-17T11:51:00Z</time>
</trkpt>
<trkpt lat="49.09509999677539" lon="8.507597940042615">
<ele>114</ele>
<time>2023-05-17T11:51:01Z</time>
</trkpt>
<trkpt lat="49.095117934048176" lon="8.507526945322752">
<ele>113.79999999999995</ele>
<time>2023-05-17T11:51:02Z</time>
</trkpt>
<trkpt lat="49.095134949311614" lon="8.507459973916411">
<ele>113.79999999999995</ele>
<time>2023-05-17T11:51:03Z</time>
</trkpt>
<trkpt lat="49.095154982060194" lon="8.507387973368168">
<ele>113.79999999999995</ele>
<time>2023-05-17T11:51:04Z</time>
</trkpt>
<trkpt lat="49.09517291933298" lon="8.507321923971176">
<ele>113.79999999999995</ele>
<time>2023-05-17T11:51:05Z</time>
</trkpt>
<trkpt lat="49.09519295208156" lon="8.507252940908074">
<ele>113.79999999999995</ele>
<time>2023-05-17T11:51:06Z</time>
</trkpt>
<trkpt lat="49.095209967345" lon="8.507189992815256">
<ele>113.79999999999995</ele>
<time>2023-05-17T11:51:07Z</time>
</trkpt>
<trkpt lat="49.09522698260844" lon="8.507121931761503">
<ele>113.79999999999995</ele>
<time>2023-05-17T11:51:08Z</time>
</trkpt>
<trkpt lat="49.095241986215115" lon="8.507052948698401">
<ele>113.79999999999995</ele>
<time>2023-05-17T11:51:09Z</time>
</trkpt>
<trkpt lat="49.0952599234879" lon="8.506979942321777">
<ele>113.79999999999995</ele>
<time>2023-05-17T11:51:10Z</time>
</trkpt>
<trkpt lat="49.09527995623648" lon="8.506906935945153">
<ele>113.79999999999995</ele>
<time>2023-05-17T11:51:11Z</time>
</trkpt>
<trkpt lat="49.09529998898506" lon="8.506831917911768">
<ele>113.79999999999995</ele>
<time>2023-05-17T11:51:12Z</time>
</trkpt>
<trkpt lat="49.09532194957137" lon="8.506756983697414">
<ele>113.79999999999995</ele>
<time>2023-05-17T11:51:13Z</time>
</trkpt>
<trkpt lat="49.09534499980509" lon="8.506676936522126">
<ele>113.79999999999995</ele>
<time>2023-05-17T11:51:14Z</time>
</trkpt>
<trkpt lat="49.0953669603914" lon="8.50659797899425">
<ele>113.79999999999995</ele>
<time>2023-05-17T11:51:15Z</time>
</trkpt>
<trkpt lat="49.09538799896836" lon="8.506516925990582">
<ele>113.79999999999995</ele>
<time>2023-05-17T11:51:16Z</time>
</trkpt>
<trkpt lat="49.09541197121143" lon="8.506434950977564">
<ele>113.79999999999995</ele>
<time>2023-05-17T11:51:17Z</time>
</trkpt>
<trkpt lat="49.09543292596936" lon="8.506352975964546">
<ele>113.79999999999995</ele>
<time>2023-05-17T11:51:18Z</time>
</trkpt>
<trkpt lat="49.095456982031465" lon="8.506269995123148">
<ele>113.79999999999995</ele>
<time>2023-05-17T11:51:19Z</time>
</trkpt>
<trkpt lat="49.095479948446155" lon="8.506186930462718">
<ele>113.79999999999995</ele>
<time>2023-05-17T11:51:20Z</time>
</trkpt>
<trkpt lat="49.095502998679876" lon="8.50610294379294">
<ele>113.79999999999995</ele>
<time>2023-05-17T11:51:21Z</time>
</trkpt>
<trkpt lat="49.095524959266186" lon="8.50601795129478">
<ele>113.79999999999995</ele>
<time>2023-05-17T11:51:22Z</time>
</trkpt>
<trkpt lat="49.095546919852495" lon="8.50593295879662">
<ele>113.60000000000002</ele>
<time>2023-05-17T11:51:23Z</time>
</trkpt>
<trkpt lat="49.095566952601075" lon="8.505852995440364">
<ele>113.60000000000002</ele>
<time>2023-05-17T11:51:24Z</time>
</trkpt>
<trkpt lat="49.095584973692894" lon="8.505774959921837">
<ele>113.60000000000002</ele>
<time>2023-05-17T11:51:25Z</time>
</trkpt>
<trkpt lat="49.09560299478471" lon="8.505691979080439">
<ele>113.60000000000002</ele>
<time>2023-05-17T11:51:26Z</time>
</trkpt>
<trkpt lat="49.09561799839139" lon="8.50561193190515">
<ele>113.39999999999998</ele>
<time>2023-05-17T11:51:27Z</time>
</trkpt>
<trkpt lat="49.095632918179035" lon="8.505534986034036">
<ele>113.39999999999998</ele>
<time>2023-05-17T11:51:28Z</time>
</trkpt>
<trkpt lat="49.09564993344247" lon="8.50545795634389">
<ele>113.20000000000005</ele>
<time>2023-05-17T11:51:29Z</time>
</trkpt>
<trkpt lat="49.09566795453429" lon="8.505382938310504">
<ele>113.39999999999998</ele>
<time>2023-05-17T11:51:30Z</time>
</trkpt>
<trkpt lat="49.09568496979773" lon="8.505307920277119">
<ele>113.39999999999998</ele>
<time>2023-05-17T11:51:31Z</time>
</trkpt>
<trkpt lat="49.09570198506117" lon="8.505231980234385">
<ele>113.39999999999998</ele>
<time>2023-05-17T11:51:32Z</time>
</trkpt>
<trkpt lat="49.09572193399072" lon="8.505149921402335">
<ele>113.39999999999998</ele>
<time>2023-05-17T11:51:33Z</time>
</trkpt>
<trkpt lat="49.0957419667393" lon="8.505067946389318">
<ele>113.39999999999998</ele>
<time>2023-05-17T11:51:34Z</time>
</trkpt>
<trkpt lat="49.09576199948788" lon="8.50498697720468">
<ele>113.39999999999998</ele>
<time>2023-05-17T11:51:35Z</time>
</trkpt>
<trkpt lat="49.095781948417425" lon="8.504904918372631">
<ele>113.39999999999998</ele>
<time>2023-05-17T11:51:36Z</time>
</trkpt>
<trkpt lat="49.095802986994386" lon="8.504827972501516">
<ele>113.39999999999998</ele>
<time>2023-05-17T11:51:37Z</time>
</trkpt>
<trkpt lat="49.095826959237456" lon="8.50474993698299">
<ele>113.39999999999998</ele>
<time>2023-05-17T11:51:38Z</time>
</trkpt>
<trkpt lat="49.095846991986036" lon="8.504672991111875">
<ele>113.39999999999998</ele>
<time>2023-05-17T11:51:39Z</time>
</trkpt>
<trkpt lat="49.09586492925882" lon="8.50459797307849">
<ele>113.39999999999998</ele>
<time>2023-05-17T11:51:40Z</time>
</trkpt>
<trkpt lat="49.09588194452226" lon="8.504524966701865">
<ele>113.39999999999998</ele>
<time>2023-05-17T11:51:41Z</time>
</trkpt>
<trkpt lat="49.09589996561408" lon="8.504452966153622">
<ele>113.39999999999998</ele>
<time>2023-05-17T11:51:42Z</time>
</trkpt>
<trkpt lat="49.0959179867059" lon="8.50438297726214">
<ele>113.39999999999998</ele>
<time>2023-05-17T11:51:43Z</time>
</trkpt>
<trkpt lat="49.09593692980707" lon="8.504312988370657">
<ele>113.39999999999998</ele>
<time>2023-05-17T11:51:44Z</time>
</trkpt>
<trkpt lat="49.095951933413744" lon="8.504241993650794">
<ele>113.39999999999998</ele>
<time>2023-05-17T11:51:45Z</time>
</trkpt>
<trkpt lat="49.0959679428488" lon="8.50417192094028">
<ele>113.39999999999998</ele>
<time>2023-05-17T11:51:46Z</time>
</trkpt>
<trkpt lat="49.09598294645548" lon="8.504101932048798">
<ele>113.39999999999998</ele>
<time>2023-05-17T11:51:47Z</time>
</trkpt>
<trkpt lat="49.095996944233775" lon="8.504029931500554">
<ele>113.39999999999998</ele>
<time>2023-05-17T11:51:48Z</time>
</trkpt>
<trkpt lat="49.09601194784045" lon="8.50395793095231">
<ele>113.39999999999998</ele>
<time>2023-05-17T11:51:49Z</time>
</trkpt>
<trkpt lat="49.09602695144713" lon="8.503886936232448">
<ele>113.39999999999998</ele>
<time>2023-05-17T11:51:50Z</time>
</trkpt>
<trkpt lat="49.096039943397045" lon="8.503812924027443">
<ele>113.20000000000005</ele>
<time>2023-05-17T11:51:51Z</time>
</trkpt>
<trkpt lat="49.09605192951858" lon="8.503736983984709">
<ele>113.20000000000005</ele>
<time>2023-05-17T11:51:52Z</time>
</trkpt>
<trkpt lat="49.09606299363077" lon="8.503662971779704">
<ele>113.20000000000005</ele>
<time>2023-05-17T11:51:53Z</time>
</trkpt>
<trkpt lat="49.0960749797523" lon="8.503591977059841">
<ele>113.20000000000005</ele>
<time>2023-05-17T11:51:54Z</time>
</trkpt>
<trkpt lat="49.096082942560315" lon="8.503517964854836">
<ele>113.20000000000005</ele>
<time>2023-05-17T11:51:55Z</time>
</trkpt>
<trkpt lat="49.09608797170222" lon="8.503442946821451">
<ele>113</ele>
<time>2023-05-17T11:51:56Z</time>
</trkpt>
<trkpt lat="49.09608998335898" lon="8.503366922959685">
<ele>113</ele>
<time>2023-05-17T11:51:57Z</time>
</trkpt>
<trkpt lat="49.09609199501574" lon="8.503291988745332">
<ele>113</ele>
<time>2023-05-17T11:51:58Z</time>
</trkpt>
<trkpt lat="49.09609199501574" lon="8.503216970711946">
<ele>113</ele>
<time>2023-05-17T11:51:59Z</time>
</trkpt>
<trkpt lat="49.09609199501574" lon="8.503141952678561">
<ele>113</ele>
<time>2023-05-17T11:52:00Z</time>
</trkpt>
<trkpt lat="49.09609291702509" lon="8.503064922988415">
<ele>113</ele>
<time>2023-05-17T11:52:01Z</time>
</trkpt>
<trkpt lat="49.09609492868185" lon="8.5029879771173">
<ele>113</ele>
<time>2023-05-17T11:52:02Z</time>
</trkpt>
<trkpt lat="49.09609492868185" lon="8.502914970740676">
<ele>112.79999999999995</ele>
<time>2023-05-17T11:52:03Z</time>
</trkpt>
<trkpt lat="49.09609199501574" lon="8.50283794105053">
<ele>112.79999999999995</ele>
<time>2023-05-17T11:52:04Z</time>
</trkpt>
<trkpt lat="49.09608797170222" lon="8.502761917188764">
<ele>112.79999999999995</ele>
<time>2023-05-17T11:52:05Z</time>
</trkpt>
<trkpt lat="49.096081936731935" lon="8.50268991664052">
<ele>112.79999999999995</ele>
<time>2023-05-17T11:52:06Z</time>
</trkpt>
<trkpt lat="49.0960749797523" lon="8.502611964941025">
<ele>112.79999999999995</ele>
<time>2023-05-17T11:52:07Z</time>
</trkpt>
<trkpt lat="49.09606693312526" lon="8.50253694690764">
<ele>112.79999999999995</ele>
<time>2023-05-17T11:52:08Z</time>
</trkpt>
<trkpt lat="49.09605695866048" lon="8.502456983551383">
<ele>112.79999999999995</ele>
<time>2023-05-17T11:52:09Z</time>
</trkpt>
<trkpt lat="49.09604296088219" lon="8.502379953861237">
<ele>112.79999999999995</ele>
<time>2023-05-17T11:52:10Z</time>
</trkpt>
<trkpt lat="49.09602996893227" lon="8.502306947484612">
<ele>112.79999999999995</ele>
<time>2023-05-17T11:52:11Z</time>
</trkpt>
<trkpt lat="49.096021922305226" lon="8.502234946936369">
<ele>112.79999999999995</ele>
<time>2023-05-17T11:52:12Z</time>
</trkpt>
<trkpt lat="49.09601295366883" lon="8.502162946388125">
<ele>112.79999999999995</ele>
<time>2023-05-17T11:52:13Z</time>
</trkpt>
<trkpt lat="49.09600499086082" lon="8.502089940011501">
<ele>112.79999999999995</ele>
<time>2023-05-17T11:52:14Z</time>
</trkpt>
<trkpt lat="49.095994932577014" lon="8.502019951120019">
<ele>112.79999999999995</ele>
<time>2023-05-17T11:52:15Z</time>
</trkpt>
<trkpt lat="49.095986969769" lon="8.501946944743395">
<ele>112.79999999999995</ele>
<time>2023-05-17T11:52:16Z</time>
</trkpt>
<trkpt lat="49.09597992897034" lon="8.501874944195151">
<ele>112.79999999999995</ele>
<time>2023-05-17T11:52:17Z</time>
</trkpt>
<trkpt lat="49.095972971990705" lon="8.501809984445572">
<ele>112.79999999999995</ele>
<time>2023-05-17T11:52:18Z</time>
</trkpt>
<trkpt lat="49.09596492536366" lon="8.501747958362103">
<ele>112.79999999999995</ele>
<time>2023-05-17T11:52:19Z</time>
</trkpt>
<trkpt lat="49.09595796838403" lon="8.501687943935394">
<ele>112.60000000000002</ele>
<time>2023-05-17T11:52:20Z</time>
</trkpt>
<trkpt lat="49.09594992175698" lon="8.501622984185815">
<ele>112.60000000000002</ele>
<time>2023-05-17T11:52:21Z</time>
</trkpt>
<trkpt lat="49.09594195894897" lon="8.501564981415868">
<ele>112.60000000000002</ele>
<time>2023-05-17T11:52:22Z</time>
</trkpt>
<trkpt lat="49.095934918150306" lon="8.501509996131063">
<ele>112.60000000000002</ele>
<time>2023-05-17T11:52:23Z</time>
</trkpt>
<trkpt lat="49.095929972827435" lon="8.501454927027225">
<ele>112.60000000000002</ele>
<time>2023-05-17T11:52:24Z</time>
</trkpt>
<trkpt lat="49.09592695534229" lon="8.50139994174242">
<ele>112.60000000000002</ele>
<time>2023-05-17T11:52:25Z</time>
</trkpt>
<trkpt lat="49.09592494368553" lon="8.501347973942757">
<ele>112.60000000000002</ele>
<time>2023-05-17T11:52:26Z</time>
</trkpt>
<trkpt lat="49.09592695534229" lon="8.501296928152442">
<ele>112.60000000000002</ele>
<time>2023-05-17T11:52:27Z</time>
</trkpt>
<trkpt lat="49.095931984484196" lon="8.501254934817553">
<ele>112.60000000000002</ele>
<time>2023-05-17T11:52:28Z</time>
</trkpt>
<trkpt lat="49.09593994729221" lon="8.501214953139424">
<ele>112.79999999999995</ele>
<time>2023-05-17T11:52:29Z</time>
</trkpt>
<trkpt lat="49.09594799391925" lon="8.501171953976154">
<ele>112.79999999999995</ele>
<time>2023-05-17T11:52:30Z</time>
</trkpt>
<trkpt lat="49.09595998004079" lon="8.501121997833252">
<ele>112.79999999999995</ele>
<time>2023-05-17T11:52:31Z</time>
</trkpt>
<trkpt lat="49.095974983647466" lon="8.501064917072654">
<ele>112.79999999999995</ele>
<time>2023-05-17T11:52:32Z</time>
</trkpt>
<trkpt lat="49.09599292092025" lon="8.501004986464977">
<ele>112.79999999999995</ele>
<time>2023-05-17T11:52:33Z</time>
</trkpt>
<trkpt lat="49.09601194784045" lon="8.500939942896366">
<ele>112.79999999999995</ele>
<time>2023-05-17T11:52:34Z</time>
</trkpt>
<trkpt lat="49.09602996893227" lon="8.500874983146787">
<ele>113</ele>
<time>2023-05-17T11:52:35Z</time>
</trkpt>
<trkpt lat="49.09604698419571" lon="8.500814968720078">
<ele>113</ele>
<time>2023-05-17T11:52:36Z</time>
</trkpt>
<trkpt lat="49.096061987802386" lon="8.50075495429337">
<ele>113</ele>
<time>2023-05-17T11:52:37Z</time>
</trkpt>
<trkpt lat="49.09607699140906" lon="8.500697957351804">
<ele>113.20000000000005</ele>
<time>2023-05-17T11:52:38Z</time>
</trkpt>
<trkpt lat="49.09609291702509" lon="8.500637942925096">
<ele>113.20000000000005</ele>
<time>2023-05-17T11:52:39Z</time>
</trkpt>
<trkpt lat="49.09611194394529" lon="8.500579940155149">
<ele>113.39999999999998</ele>
<time>2023-05-17T11:52:40Z</time>
</trkpt>
<trkpt lat="49.096127953380346" lon="8.50051799789071">
<ele>113.39999999999998</ele>
<time>2023-05-17T11:52:41Z</time>
</trkpt>
<trkpt lat="49.09614295698702" lon="8.50045496597886">
<ele>113.60000000000002</ele>
<time>2023-05-17T11:52:42Z</time>
</trkpt>
<trkpt lat="49.0961629897356" lon="8.50039193406701">
<ele>113.60000000000002</ele>
<time>2023-05-17T11:52:43Z</time>
</trkpt>
<trkpt lat="49.09618495032191" lon="8.500326974317431">
<ele>113.60000000000002</ele>
<time>2023-05-17T11:52:44Z</time>
</trkpt>
<trkpt lat="49.09620297141373" lon="8.500262936577201">
<ele>113.79999999999995</ele>
<time>2023-05-17T11:52:45Z</time>
</trkpt>
<trkpt lat="49.09622493200004" lon="8.500192947685719">
<ele>113.79999999999995</ele>
<time>2023-05-17T11:52:46Z</time>
</trkpt>
<trkpt lat="49.09624798223376" lon="8.500124970450997">
<ele>113.79999999999995</ele>
<time>2023-05-17T11:52:47Z</time>
</trkpt>
<trkpt lat="49.096272960305214" lon="8.500059926882386">
<ele>114</ele>
<time>2023-05-17T11:52:48Z</time>
</trkpt>
<trkpt lat="49.096299950033426" lon="8.499987926334143">
<ele>114</ele>
<time>2023-05-17T11:52:49Z</time>
</trkpt>
<trkpt lat="49.09632794559002" lon="8.499914919957519">
<ele>114</ele>
<time>2023-05-17T11:52:50Z</time>
</trkpt>
<trkpt lat="49.096359964460135" lon="8.499847948551178">
<ele>114.20000000000005</ele>
<time>2023-05-17T11:52:51Z</time>
</trkpt>
<trkpt lat="49.09639298915863" lon="8.499779971316457">
<ele>114.20000000000005</ele>
<time>2023-05-17T11:52:52Z</time>
</trkpt>
<trkpt lat="49.096426935866475" lon="8.499711994081736">
<ele>114.20000000000005</ele>
<time>2023-05-17T11:52:53Z</time>
</trkpt>
<trkpt lat="49.09645996056497" lon="8.499647956341505">
<ele>114.20000000000005</ele>
<time>2023-05-17T11:52:54Z</time>
</trkpt>
<trkpt lat="49.096489967778325" lon="8.499589953571558">
<ele>114.39999999999998</ele>
<time>2023-05-17T11:52:55Z</time>
</trkpt>
<trkpt lat="49.09652299247682" lon="8.499527927488089">
<ele>114.39999999999998</ele>
<time>2023-05-17T11:52:56Z</time>
</trkpt>
<trkpt lat="49.096556939184666" lon="8.499461961910129">
<ele>114.39999999999998</ele>
<time>2023-05-17T11:52:57Z</time>
</trkpt>
<trkpt lat="49.0965929813683" lon="8.499394990503788">
<ele>114.39999999999998</ele>
<time>2023-05-17T11:52:58Z</time>
</trkpt>
<trkpt lat="49.09662692807615" lon="8.499329946935177">
<ele>114.39999999999998</ele>
<time>2023-05-17T11:52:59Z</time>
</trkpt>
<trkpt lat="49.096661964431405" lon="8.499262975528836">
<ele>114.39999999999998</ele>
<time>2023-05-17T11:53:00Z</time>
</trkpt>
<trkpt lat="49.09669197164476" lon="8.499196926131845">
<ele>114.39999999999998</ele>
<time>2023-05-17T11:53:01Z</time>
</trkpt>
<trkpt lat="49.096722984686494" lon="8.499126937240362">
<ele>114.60000000000002</ele>
<time>2023-05-17T11:53:02Z</time>
</trkpt>
<trkpt lat="49.09675299189985" lon="8.49905795417726">
<ele>114.60000000000002</ele>
<time>2023-05-17T11:53:03Z</time>
</trkpt>
<trkpt lat="49.09678199328482" lon="8.49898997694254">
<ele>114.60000000000002</ele>
<time>2023-05-17T11:53:04Z</time>
</trkpt>
<trkpt lat="49.09680797718465" lon="8.49892694503069">
<ele>114.60000000000002</ele>
<time>2023-05-17T11:53:05Z</time>
</trkpt>
<trkpt lat="49.096832955256104" lon="8.49886299110949">
<ele>114.39999999999998</ele>
<time>2023-05-17T11:53:06Z</time>
</trkpt>
<trkpt lat="49.096857933327556" lon="8.49879794754088">
<ele>114.39999999999998</ele>
<time>2023-05-17T11:53:07Z</time>
</trkpt>
<trkpt lat="49.09688492305577" lon="8.498729970306158">
<ele>114.39999999999998</ele>
<time>2023-05-17T11:53:08Z</time>
</trkpt>
<trkpt lat="49.09690998494625" lon="8.498662998899817">
<ele>114.39999999999998</ele>
<time>2023-05-17T11:53:09Z</time>
</trkpt>
<trkpt lat="49.09693295136094" lon="8.498597955331206">
<ele>114.60000000000002</ele>
<time>2023-05-17T11:53:10Z</time>
</trkpt>
<trkpt lat="49.09695499576628" lon="8.498531989753246">
<ele>114.60000000000002</ele>
<time>2023-05-17T11:53:11Z</time>
</trkpt>
<trkpt lat="49.09697494469583" lon="8.498462922871113">
<ele>114.60000000000002</ele>
<time>2023-05-17T11:53:12Z</time>
</trkpt>
<trkpt lat="49.09699296578765" lon="8.49839192815125">
<ele>114.60000000000002</ele>
<time>2023-05-17T11:53:13Z</time>
</trkpt>
<trkpt lat="49.09701199270785" lon="8.498319927603006">
<ele>114.60000000000002</ele>
<time>2023-05-17T11:53:14Z</time>
</trkpt>
<trkpt lat="49.097029929980636" lon="8.498242981731892">
<ele>114.60000000000002</ele>
<time>2023-05-17T11:53:15Z</time>
</trkpt>
<trkpt lat="49.097047951072454" lon="8.498166957870126">
<ele>114.60000000000002</ele>
<time>2023-05-17T11:53:16Z</time>
</trkpt>
<trkpt lat="49.097066977992654" lon="8.49808699451387">
<ele>114.60000000000002</ele>
<time>2023-05-17T11:53:17Z</time>
</trkpt>
<trkpt lat="49.09708298742771" lon="8.498007953166962">
<ele>114.60000000000002</ele>
<time>2023-05-17T11:53:18Z</time>
</trkpt>
<trkpt lat="49.09709698520601" lon="8.497929917648435">
<ele>114.60000000000002</ele>
<time>2023-05-17T11:53:19Z</time>
</trkpt>
<trkpt lat="49.09710796549916" lon="8.49785196594894">
<ele>114.60000000000002</ele>
<time>2023-05-17T11:53:20Z</time>
</trkpt>
<trkpt lat="49.097111988812685" lon="8.497776947915554">
<ele>114.60000000000002</ele>
<time>2023-05-17T11:53:21Z</time>
</trkpt>
<trkpt lat="49.097112994641066" lon="8.497697990387678">
<ele>114.60000000000002</ele>
<time>2023-05-17T11:53:22Z</time>
</trkpt>
<trkpt lat="49.097114922478795" lon="8.497614925727248">
<ele>114.60000000000002</ele>
<time>2023-05-17T11:53:23Z</time>
</trkpt>
<trkpt lat="49.09712196327746" lon="8.497524987906218">
<ele>114.60000000000002</ele>
<time>2023-05-17T11:53:24Z</time>
</trkpt>
<trkpt lat="49.09712992608547" lon="8.497432954609394">
<ele>114.39999999999998</ele>
<time>2023-05-17T11:53:25Z</time>
</trkpt>
<trkpt lat="49.09713797271252" lon="8.497339999303222">
<ele>114.39999999999998</ele>
<time>2023-05-17T11:53:26Z</time>
</trkpt>
<trkpt lat="49.09714694134891" lon="8.497244948521256">
<ele>114.20000000000005</ele>
<time>2023-05-17T11:53:27Z</time>
</trkpt>
<trkpt lat="49.097152976319194" lon="8.497151993215084">
<ele>114.20000000000005</ele>
<time>2023-05-17T11:53:28Z</time>
</trkpt>
<trkpt lat="49.097159933298826" lon="8.4970579482615">
<ele>114</ele>
<time>2023-05-17T11:53:29Z</time>
</trkpt>
<trkpt lat="49.09716797992587" lon="8.496961975470185">
<ele>113.79999999999995</ele>
<time>2023-05-17T11:53:30Z</time>
</trkpt>
<trkpt lat="49.097176948562264" lon="8.49686692468822">
<ele>113.79999999999995</ele>
<time>2023-05-17T11:53:31Z</time>
</trkpt>
<trkpt lat="49.09718692302704" lon="8.496774975210428">
<ele>113.60000000000002</ele>
<time>2023-05-17T11:53:32Z</time>
</trkpt>
<trkpt lat="49.09719496965408" lon="8.496682941913605">
<ele>113.60000000000002</ele>
<time>2023-05-17T11:53:33Z</time>
</trkpt>
<trkpt lat="49.097201926633716" lon="8.496591998264194">
<ele>113.60000000000002</ele>
<time>2023-05-17T11:53:34Z</time>
</trkpt>
<trkpt lat="49.097207961604" lon="8.496497953310609">
<ele>113.39999999999998</ele>
<time>2023-05-17T11:53:35Z</time>
</trkpt>
<trkpt lat="49.0972129907459" lon="8.496409943327308">
<ele>113.39999999999998</ele>
<time>2023-05-17T11:53:36Z</time>
</trkpt>
<trkpt lat="49.09721693024039" lon="8.496321933344007">
<ele>113.39999999999998</ele>
<time>2023-05-17T11:53:37Z</time>
</trkpt>
<trkpt lat="49.097219947725534" lon="8.496231995522976">
<ele>113.20000000000005</ele>
<time>2023-05-17T11:53:38Z</time>
</trkpt>
<trkpt lat="49.097221959382296" lon="8.496141973882914">
<ele>113.20000000000005</ele>
<time>2023-05-17T11:53:39Z</time>
</trkpt>
<trkpt lat="49.0972269885242" lon="8.496054969727993">
<ele>113.20000000000005</ele>
<time>2023-05-17T11:53:40Z</time>
</trkpt>
<trkpt lat="49.09722992219031" lon="8.495971988886595">
<ele>113.20000000000005</ele>
<time>2023-05-17T11:53:41Z</time>
</trkpt>
<trkpt lat="49.09723293967545" lon="8.495894959196448">
<ele>113.20000000000005</ele>
<time>2023-05-17T11:53:42Z</time>
</trkpt>
<trkpt lat="49.09723495133221" lon="8.495821952819824">
<ele>113.20000000000005</ele>
<time>2023-05-17T11:53:43Z</time>
</trkpt>
<trkpt lat="49.09723796881735" lon="8.49574794061482">
<ele>113.39999999999998</ele>
<time>2023-05-17T11:53:44Z</time>
</trkpt>
<trkpt lat="49.097239980474114" lon="8.495672922581434">
<ele>113.39999999999998</ele>
<time>2023-05-17T11:53:45Z</time>
</trkpt>
<trkpt lat="49.097241992130876" lon="8.495602933689952">
<ele>113.39999999999998</ele>
<time>2023-05-17T11:53:46Z</time>
</trkpt>
<trkpt lat="49.097242997959256" lon="8.495531938970089">
<ele>113.39999999999998</ele>
<time>2023-05-17T11:53:47Z</time>
</trkpt>
<trkpt lat="49.097242997959256" lon="8.495457926765084">
<ele>113.39999999999998</ele>
<time>2023-05-17T11:53:48Z</time>
</trkpt>
<trkpt lat="49.097242997959256" lon="8.495387937873602">
<ele>113.39999999999998</ele>
<time>2023-05-17T11:53:49Z</time>
</trkpt>
<trkpt lat="49.097242997959256" lon="8.495316943153739">
<ele>113.39999999999998</ele>
<time>2023-05-17T11:53:50Z</time>
</trkpt>
<trkpt lat="49.097241992130876" lon="8.495244942605495">
<ele>113.39999999999998</ele>
<time>2023-05-17T11:53:51Z</time>
</trkpt>
<trkpt lat="49.097239980474114" lon="8.495172942057252">
<ele>113.39999999999998</ele>
<time>2023-05-17T11:53:52Z</time>
</trkpt>
<trkpt lat="49.09723696298897" lon="8.495101947337389">
<ele>113.39999999999998</ele>
<time>2023-05-17T11:53:53Z</time>
</trkpt>
<trkpt lat="49.09723293967545" lon="8.495026929304004">
<ele>113.39999999999998</ele>
<time>2023-05-17T11:53:54Z</time>
</trkpt>
<trkpt lat="49.09722799435258" lon="8.49495199508965">
<ele>113.39999999999998</ele>
<time>2023-05-17T11:53:55Z</time>
</trkpt>
<trkpt lat="49.097219947725534" lon="8.494877982884645">
<ele>113.39999999999998</ele>
<time>2023-05-17T11:53:56Z</time>
</trkpt>
<trkpt lat="49.09720997326076" lon="8.494806988164783">
<ele>113.39999999999998</ele>
<time>2023-05-17T11:53:57Z</time>
</trkpt>
<trkpt lat="49.097197987139225" lon="8.494734987616539">
<ele>113.39999999999998</ele>
<time>2023-05-17T11:53:58Z</time>
</trkpt>
<trkpt lat="49.09718692302704" lon="8.494661981239915">
<ele>113.39999999999998</ele>
<time>2023-05-17T11:53:59Z</time>
</trkpt>
<trkpt lat="49.097176948562264" lon="8.494589980691671">
<ele>113.39999999999998</ele>
<time>2023-05-17T11:54:00Z</time>
</trkpt>
<trkpt lat="49.09716697409749" lon="8.494514962658286">
<ele>113.60000000000002</ele>
<time>2023-05-17T11:54:01Z</time>
</trkpt>
<trkpt lat="49.097154987975955" lon="8.494441956281662">
<ele>113.60000000000002</ele>
<time>2023-05-17T11:54:02Z</time>
</trkpt>
<trkpt lat="49.09714492969215" lon="8.494367944076657">
<ele>113.60000000000002</ele>
<time>2023-05-17T11:54:03Z</time>
</trkpt>
<trkpt lat="49.097134955227375" lon="8.494296949356794">
<ele>113.60000000000002</ele>
<time>2023-05-17T11:54:04Z</time>
</trkpt>
<trkpt lat="49.0971249807626" lon="8.494221931323409">
<ele>113.60000000000002</ele>
<time>2023-05-17T11:54:05Z</time>
</trkpt>
<trkpt lat="49.097112994641066" lon="8.494146997109056">
<ele>113.60000000000002</ele>
<time>2023-05-17T11:54:06Z</time>
</trkpt>
<trkpt lat="49.09710193052888" lon="8.494074996560812">
<ele>113.60000000000002</ele>
<time>2023-05-17T11:54:07Z</time>
</trkpt>
<trkpt lat="49.09708499908447" lon="8.494004923850298">
<ele>113.60000000000002</ele>
<time>2023-05-17T11:54:08Z</time>
</trkpt>
<trkpt lat="49.09706496633589" lon="8.493934934958816">
<ele>113.79999999999995</ele>
<time>2023-05-17T11:54:09Z</time>
</trkpt>
<trkpt lat="49.09704292193055" lon="8.493867963552475">
<ele>113.79999999999995</ele>
<time>2023-05-17T11:54:10Z</time>
</trkpt>
<trkpt lat="49.09702196717262" lon="8.493801997974515">
<ele>113.79999999999995</ele>
<time>2023-05-17T11:54:11Z</time>
</trkpt>
<trkpt lat="49.09700294025242" lon="8.493731925264001">
<ele>113.79999999999995</ele>
<time>2023-05-17T11:54:12Z</time>
</trkpt>
<trkpt lat="49.096987936645746" lon="8.493659924715757">
<ele>114</ele>
<time>2023-05-17T11:54:13Z</time>
</trkpt>
<trkpt lat="49.09697796218097" lon="8.493586918339133">
<ele>114</ele>
<time>2023-05-17T11:54:14Z</time>
</trkpt>
<trkpt lat="49.09697494469583" lon="8.49351298995316">
<ele>114</ele>
<time>2023-05-17T11:54:15Z</time>
</trkpt>
<trkpt lat="49.09697695635259" lon="8.493441995233297">
<ele>114</ele>
<time>2023-05-17T11:54:16Z</time>
</trkpt>
<trkpt lat="49.09697997383773" lon="8.493371922522783">
<ele>114</ele>
<time>2023-05-17T11:54:17Z</time>
</trkpt>
<trkpt lat="49.096981985494494" lon="8.49329992197454">
<ele>114</ele>
<time>2023-05-17T11:54:18Z</time>
</trkpt>
<trkpt lat="49.096981985494494" lon="8.493226999416947">
<ele>114</ele>
<time>2023-05-17T11:54:19Z</time>
</trkpt>
<trkpt lat="49.09697997383773" lon="8.493157932534814">
<ele>114</ele>
<time>2023-05-17T11:54:20Z</time>
</trkpt>
<trkpt lat="49.09697997383773" lon="8.493091966956854">
<ele>114</ele>
<time>2023-05-17T11:54:21Z</time>
</trkpt>
<trkpt lat="49.09697796218097" lon="8.493022983893752">
<ele>114</ele>
<time>2023-05-17T11:54:22Z</time>
</trkpt>
<trkpt lat="49.09697695635259" lon="8.49295198917389">
<ele>114</ele>
<time>2023-05-17T11:54:23Z</time>
</trkpt>
<trkpt lat="49.09697293303907" lon="8.492881916463375">
<ele>114</ele>
<time>2023-05-17T11:54:24Z</time>
</trkpt>
<trkpt lat="49.09697293303907" lon="8.492806982249022">
<ele>114</ele>
<time>2023-05-17T11:54:25Z</time>
</trkpt>
<trkpt lat="49.09696999937296" lon="8.492729952558875">
<ele>114</ele>
<time>2023-05-17T11:54:26Z</time>
</trkpt>
<trkpt lat="49.096962958574295" lon="8.492659963667393">
<ele>114</ele>
<time>2023-05-17T11:54:27Z</time>
</trkpt>
<trkpt lat="49.09695298410952" lon="8.49258997477591">
<ele>114</ele>
<time>2023-05-17T11:54:28Z</time>
</trkpt>
<trkpt lat="49.096944937482476" lon="8.49252694286406">
<ele>114</ele>
<time>2023-05-17T11:54:29Z</time>
</trkpt>
<trkpt lat="49.09693697467446" lon="8.492464916780591">
<ele>114</ele>
<time>2023-05-17T11:54:30Z</time>
</trkpt>
<trkpt lat="49.09692792221904" lon="8.492404986172915">
<ele>114</ele>
<time>2023-05-17T11:54:31Z</time>
</trkpt>
<trkpt lat="49.096919959411025" lon="8.492342960089445">
<ele>113.79999999999995</ele>
<time>2023-05-17T11:54:32Z</time>
</trkpt>
<trkpt lat="49.09691291861236" lon="8.492284957319498">
<ele>113.79999999999995</ele>
<time>2023-05-17T11:54:33Z</time>
</trkpt>
<trkpt lat="49.09690495580435" lon="8.492232989519835">
<ele>113.79999999999995</ele>
<time>2023-05-17T11:54:34Z</time>
</trkpt>
<trkpt lat="49.096899926662445" lon="8.492186972871423">
<ele>113.79999999999995</ele>
<time>2023-05-17T11:54:35Z</time>
</trkpt>
<trkpt lat="49.096894981339574" lon="8.492142967879772">
<ele>113.60000000000002</ele>
<time>2023-05-17T11:54:36Z</time>
</trkpt>
<trkpt lat="49.09689196385443" lon="8.492104997858405">
<ele>113.60000000000002</ele>
<time>2023-05-17T11:54:37Z</time>
</trkpt>
<trkpt lat="49.09688693471253" lon="8.492069961503148">
<ele>113.60000000000002</ele>
<time>2023-05-17T11:54:38Z</time>
</trkpt>
<trkpt lat="49.0968799777329" lon="8.492032997310162">
<ele>113.39999999999998</ele>
<time>2023-05-17T11:54:39Z</time>
</trkpt>
<trkpt lat="49.09686799161136" lon="8.492001984268427">
<ele>113.39999999999998</ele>
<time>2023-05-17T11:54:40Z</time>
</trkpt>
<trkpt lat="49.096857933327556" lon="8.49196795374155">
<ele>113.39999999999998</ele>
<time>2023-05-17T11:54:41Z</time>
</trkpt>
<trkpt lat="49.09684494137764" lon="8.491936940699816">
<ele>113.20000000000005</ele>
<time>2023-05-17T11:54:42Z</time>
</trkpt>
<trkpt lat="49.096832955256104" lon="8.491909950971603">
<ele>113.20000000000005</ele>
<time>2023-05-17T11:54:43Z</time>
</trkpt>
<trkpt lat="49.09682298079133" lon="8.491889918223023">
<ele>113.20000000000005</ele>
<time>2023-05-17T11:54:44Z</time>
</trkpt>
<trkpt lat="49.096809988841414" lon="8.491874998435378">
<ele>113</ele>
<time>2023-05-17T11:54:45Z</time>
</trkpt>
<trkpt lat="49.09680294804275" lon="8.491866951808333">
<ele>113</ele>
<time>2023-05-17T11:54:46Z</time>
</trkpt>
<trkpt lat="49.09678492695093" lon="8.491801992058754">
<ele>112.60000000000002</ele>
<time>2023-05-17T11:54:48Z</time>
</trkpt>
<trkpt lat="49.09677998162806" lon="8.491809954866767">
<ele>112.60000000000002</ele>
<time>2023-05-17T11:54:49Z</time>
</trkpt>
<trkpt lat="49.0967779699713" lon="8.491819929331541">
<ele>112.60000000000002</ele>
<time>2023-05-17T11:54:50Z</time>
</trkpt>
<trkpt lat="49.09677998162806" lon="8.491821940988302">
<ele>112.60000000000002</ele>
<time>2023-05-17T11:54:51Z</time>
</trkpt>
<trkpt lat="49.09678199328482" lon="8.491822946816683">
<ele>112.60000000000002</ele>
<time>2023-05-17T11:54:52Z</time>
</trkpt>
<trkpt lat="49.09678492695093" lon="8.491829987615347">
<ele>112.60000000000002</ele>
<time>2023-05-17T11:54:53Z</time>
</trkpt>
<trkpt lat="49.09678693860769" lon="8.491831999272108">
<ele>112.60000000000002</ele>
<time>2023-05-17T11:54:54Z</time>
</trkpt>
<trkpt lat="49.09678693860769" lon="8.491832921281457">
<ele>112.60000000000002</ele>
<time>2023-05-17T11:54:55Z</time>
</trkpt>
<trkpt lat="49.09680697135627" lon="8.491871980950236">
<ele>112.39999999999998</ele>
<time>2023-05-17T11:54:55Z</time>
</trkpt>
<trkpt lat="49.09681694582105" lon="8.491891929879785">
<ele>112.39999999999998</ele>
<time>2023-05-17T11:54:56Z</time>
</trkpt>
<trkpt lat="49.09682692028582" lon="8.491914980113506">
<ele>112.39999999999998</ele>
<time>2023-05-17T11:54:57Z</time>
</trkpt>
<trkpt lat="49.09683999605477" lon="8.4919429756701">
<ele>112.39999999999998</ele>
<time>2023-05-17T11:54:58Z</time>
</trkpt>
<trkpt lat="49.096852988004684" lon="8.491979939863086">
<ele>112.39999999999998</ele>
<time>2023-05-17T11:54:59Z</time>
</trkpt>
<trkpt lat="49.09686698578298" lon="8.492019921541214">
<ele>112.39999999999998</ele>
<time>2023-05-17T11:55:00Z</time>
</trkpt>
<trkpt lat="49.096874948590994" lon="8.492064932361245">
<ele>112.60000000000002</ele>
<time>2023-05-17T11:55:01Z</time>
</trkpt>
<trkpt lat="49.09688198938966" lon="8.492109943181276">
<ele>112.60000000000002</ele>
<time>2023-05-17T11:55:02Z</time>
</trkpt>
<trkpt lat="49.09688794054091" lon="8.492156965658069">
<ele>112.60000000000002</ele>
<time>2023-05-17T11:55:03Z</time>
</trkpt>
<trkpt lat="49.096894981339574" lon="8.492211950942874">
<ele>112.60000000000002</ele>
<time>2023-05-17T11:55:04Z</time>
</trkpt>
<trkpt lat="49.09690294414759" lon="8.492264924570918">
<ele>112.79999999999995</ele>
<time>2023-05-17T11:55:05Z</time>
</trkpt>
<trkpt lat="49.09691199660301" lon="8.492321921512485">
<ele>112.79999999999995</ele>
<time>2023-05-17T11:55:06Z</time>
</trkpt>
<trkpt lat="49.096919959411025" lon="8.492379924282432">
<ele>112.79999999999995</ele>
<time>2023-05-17T11:55:07Z</time>
</trkpt>
<trkpt lat="49.09692691639066" lon="8.492436921223998">
<ele>113</ele>
<time>2023-05-17T11:55:08Z</time>
</trkpt>
<trkpt lat="49.09693295136094" lon="8.492494923993945">
<ele>113</ele>
<time>2023-05-17T11:55:09Z</time>
</trkpt>
<trkpt lat="49.096939992159605" lon="8.492552926763892">
<ele>113.20000000000005</ele>
<time>2023-05-17T11:55:10Z</time>
</trkpt>
<trkpt lat="49.096944937482476" lon="8.49261193536222">
<ele>113.20000000000005</ele>
<time>2023-05-17T11:55:11Z</time>
</trkpt>
<trkpt lat="49.09695197828114" lon="8.49267496727407">
<ele>113.39999999999998</ele>
<time>2023-05-17T11:55:12Z</time>
</trkpt>
<trkpt lat="49.09695692360401" lon="8.49273992702365">
<ele>113.39999999999998</ele>
<time>2023-05-17T11:55:13Z</time>
</trkpt>
<trkpt lat="49.09695994108915" lon="8.4928029589355">
<ele>113.39999999999998</ele>
<time>2023-05-17T11:55:14Z</time>
</trkpt>
<trkpt lat="49.096962958574295" lon="8.49286699667573">
<ele>113.60000000000002</ele>
<time>2023-05-17T11:55:15Z</time>
</trkpt>
<trkpt lat="49.0969679877162" lon="8.492929944768548">
<ele>113.60000000000002</ele>
<time>2023-05-17T11:55:16Z</time>
</trkpt>
<trkpt lat="49.09696999937296" lon="8.49299498833716">
<ele>113.60000000000002</ele>
<time>2023-05-17T11:55:17Z</time>
</trkpt>
<trkpt lat="49.09697293303907" lon="8.493057936429977">
<ele>113.60000000000002</ele>
<time>2023-05-17T11:55:18Z</time>
</trkpt>
<trkpt lat="49.09697293303907" lon="8.493117950856686">
<ele>113.60000000000002</ele>
<time>2023-05-17T11:55:19Z</time>
</trkpt>
<trkpt lat="49.09697796218097" lon="8.493176959455013">
<ele>113.79999999999995</ele>
<time>2023-05-17T11:55:20Z</time>
</trkpt>
<trkpt lat="49.09699195995927" lon="8.493229933083057">
<ele>113.79999999999995</ele>
<time>2023-05-17T11:55:21Z</time>
</trkpt>
<trkpt lat="49.09701492637396" lon="8.493259940296412">
<ele>113.79999999999995</ele>
<time>2023-05-17T11:55:22Z</time>
</trkpt>
<trkpt lat="49.09703998826444" lon="8.49325792863965">
<ele>113.79999999999995</ele>
<time>2023-05-17T11:55:23Z</time>
</trkpt>
<trkpt lat="49.09705993719399" lon="8.493224987760186">
<ele>113.79999999999995</ele>
<time>2023-05-17T11:55:24Z</time>
</trkpt>
<trkpt lat="49.097067983821034" lon="8.493179976940155">
<ele>114</ele>
<time>2023-05-17T11:55:25Z</time>
</trkpt>
<trkpt lat="49.097072929143906" lon="8.49312792532146">
<ele>114</ele>
<time>2023-05-17T11:55:26Z</time>
</trkpt>
<trkpt lat="49.097072929143906" lon="8.493076963350177">
<ele>114.20000000000005</ele>
<time>2023-05-17T11:55:27Z</time>
</trkpt>
<trkpt lat="49.09707494080067" lon="8.49301996640861">
<ele>114.20000000000005</ele>
<time>2023-05-17T11:55:28Z</time>
</trkpt>
<trkpt lat="49.09707695245743" lon="8.49295492284">
<ele>114.39999999999998</ele>
<time>2023-05-17T11:55:29Z</time>
</trkpt>
<trkpt lat="49.09707494080067" lon="8.49288996309042">
<ele>114.39999999999998</ele>
<time>2023-05-17T11:55:30Z</time>
</trkpt>
<trkpt lat="49.097071923315525" lon="8.492821985855699">
<ele>114.60000000000002</ele>
<time>2023-05-17T11:55:31Z</time>
</trkpt>
<trkpt lat="49.097067983821034" lon="8.492752918973565">
<ele>114.79999999999995</ele>
<time>2023-05-17T11:55:32Z</time>
</trkpt>
<trkpt lat="49.09706295467913" lon="8.492686953395605">
<ele>115</ele>
<time>2023-05-17T11:55:33Z</time>
</trkpt>
<trkpt lat="49.09705691970885" lon="8.492614952847362">
<ele>115.20000000000005</ele>
<time>2023-05-17T11:55:34Z</time>
</trkpt>
<trkpt lat="49.09705298021436" lon="8.492542952299118">
<ele>115.39999999999998</ele>
<time>2023-05-17T11:55:35Z</time>
</trkpt>
<trkpt lat="49.09705197438598" lon="8.492469945922494">
<ele>115.60000000000002</ele>
<time>2023-05-17T11:55:36Z</time>
</trkpt>
<trkpt lat="49.097047951072454" lon="8.49239693954587">
<ele>115.79999999999995</ele>
<time>2023-05-17T11:55:37Z</time>
</trkpt>
<trkpt lat="49.097046945244074" lon="8.492326950654387">
<ele>116.20000000000005</ele>
<time>2023-05-17T11:55:38Z</time>
</trkpt>
<trkpt lat="49.0970419999212" lon="8.492251932621002">
<ele>116.39999999999998</ele>
<time>2023-05-17T11:55:39Z</time>
</trkpt>
<trkpt lat="49.09703998826444" lon="8.492176998406649">
<ele>116.79999999999995</ele>
<time>2023-05-17T11:55:40Z</time>
</trkpt>
<trkpt lat="49.09703495912254" lon="8.492101980373263">
<ele>117.20000000000005</ele>
<time>2023-05-17T11:55:41Z</time>
</trkpt>
<trkpt lat="49.097026996314526" lon="8.492027968168259">
<ele>117.39999999999998</ele>
<time>2023-05-17T11:55:42Z</time>
</trkpt>
<trkpt lat="49.09701693803072" lon="8.49194792099297">
<ele>117.79999999999995</ele>
<time>2023-05-17T11:55:43Z</time>
</trkpt>
<trkpt lat="49.097004951909184" lon="8.491872986778617">
<ele>118</ele>
<time>2023-05-17T11:55:44Z</time>
</trkpt>
<trkpt lat="49.09699195995927" lon="8.491804925724864">
<ele>118.20000000000005</ele>
<time>2023-05-17T11:55:45Z</time>
</trkpt>
<trkpt lat="49.09697796218097" lon="8.49173292517662">
<ele>118.39999999999998</ele>
<time>2023-05-17T11:55:46Z</time>
</trkpt>
<trkpt lat="49.09696698188782" lon="8.491661930456758">
<ele>118.60000000000002</ele>
<time>2023-05-17T11:55:47Z</time>
</trkpt>
<trkpt lat="49.09695499576628" lon="8.491587918251753">
<ele>118.79999999999995</ele>
<time>2023-05-17T11:55:48Z</time>
</trkpt>
<trkpt lat="49.096944937482476" lon="8.49151499569416">
<ele>118.79999999999995</ele>
<time>2023-05-17T11:55:49Z</time>
</trkpt>
<trkpt lat="49.09693697467446" lon="8.491442995145917">
<ele>119</ele>
<time>2023-05-17T11:55:50Z</time>
</trkpt>
<trkpt lat="49.09692691639066" lon="8.491369988769293">
<ele>119</ele>
<time>2023-05-17T11:55:51Z</time>
</trkpt>
<trkpt lat="49.09691493026912" lon="8.491294970735908">
<ele>119</ele>
<time>2023-05-17T11:55:52Z</time>
</trkpt>
<trkpt lat="49.096901938319206" lon="8.491222970187664">
<ele>119</ele>
<time>2023-05-17T11:55:53Z</time>
</trkpt>
<trkpt lat="49.09688693471253" lon="8.491139989346266">
<ele>119</ele>
<time>2023-05-17T11:55:54Z</time>
</trkpt>
<trkpt lat="49.09686497412622" lon="8.491052985191345">
<ele>118.79999999999995</ele>
<time>2023-05-17T11:55:55Z</time>
</trkpt>
<trkpt lat="49.0968419238925" lon="8.490954916924238">
<ele>118.60000000000002</ele>
<time>2023-05-17T11:55:56Z</time>
</trkpt>
<trkpt lat="49.09681795164943" lon="8.490852992981672">
<ele>118.39999999999998</ele>
<time>2023-05-17T11:55:57Z</time>
</trkpt>
<trkpt lat="49.0967969968915" lon="8.49074193276465">
<ele>118.20000000000005</ele>
<time>2023-05-17T11:55:58Z</time>
</trkpt>
<trkpt lat="49.096769923344254" lon="8.4906149469316">
<ele>118</ele>
<time>2023-05-17T11:55:59Z</time>
</trkpt>
<trkpt lat="49.09674293361604" lon="8.490481926128268">
<ele>117.79999999999995</ele>
<time>2023-05-17T11:56:00Z</time>
</trkpt>
<trkpt lat="49.09671493805945" lon="8.490334991365671">
<ele>117.39999999999998</ele>
<time>2023-05-17T11:56:01Z</time>
</trkpt>
<trkpt lat="49.096689959988" lon="8.490197947248816">
<ele>117</ele>
<time>2023-05-17T11:56:02Z</time>
</trkpt>
<trkpt lat="49.09666498191655" lon="8.490044977515936">
<ele>116.39999999999998</ele>
<time>2023-05-17T11:56:03Z</time>
</trkpt>
<trkpt lat="49.09665492363274" lon="8.489907933399081">
<ele>115.79999999999995</ele>
<time>2023-05-17T11:56:04Z</time>
</trkpt>
<trkpt lat="49.096641931682825" lon="8.48977298475802">
<ele>115.20000000000005</ele>
<time>2023-05-17T11:56:05Z</time>
</trkpt>
<trkpt lat="49.096637992188334" lon="8.489641975611448">
<ele>114.79999999999995</ele>
<time>2023-05-17T11:56:06Z</time>
</trkpt>
<trkpt lat="49.09662793390453" lon="8.489511972293258">
<ele>114.39999999999998</ele>
<time>2023-05-17T11:56:07Z</time>
</trkpt>
<trkpt lat="49.096619971096516" lon="8.489391943439841">
<ele>114.20000000000005</ele>
<time>2023-05-17T11:56:08Z</time>
</trkpt>
<trkpt lat="49.09661293029785" lon="8.489271998405457">
<ele>114</ele>
<time>2023-05-17T11:56:09Z</time>
</trkpt>
<trkpt lat="49.09660295583308" lon="8.489159932360053">
<ele>114</ele>
<time>2023-05-17T11:56:10Z</time>
</trkpt>
<trkpt lat="49.096596920862794" lon="8.489052979275584">
<ele>114</ele>
<time>2023-05-17T11:56:11Z</time>
</trkpt>
<trkpt lat="49.09658996388316" lon="8.488951977342367">
<ele>114</ele>
<time>2023-05-17T11:56:12Z</time>
</trkpt>
<trkpt lat="49.0965829230845" lon="8.488857932388783">
<ele>114.20000000000005</ele>
<time>2023-05-17T11:56:13Z</time>
</trkpt>
<trkpt lat="49.096574960276484" lon="8.488771934062243">
<ele>114.20000000000005</ele>
<time>2023-05-17T11:56:14Z</time>
</trkpt>
<trkpt lat="49.09656498581171" lon="8.48868291825056">
<ele>114.20000000000005</ele>
<time>2023-05-17T11:56:15Z</time>
</trkpt>
<trkpt lat="49.096554927527905" lon="8.48859298042953">
<ele>114.20000000000005</ele>
<time>2023-05-17T11:56:16Z</time>
</trkpt>
<trkpt lat="49.09654193557799" lon="8.488501952961087">
<ele>114.20000000000005</ele>
<time>2023-05-17T11:56:17Z</time>
</trkpt>
<trkpt lat="49.09652492031455" lon="8.488409919664264">
<ele>114.20000000000005</ele>
<time>2023-05-17T11:56:18Z</time>
</trkpt>
<trkpt lat="49.096507988870144" lon="8.48831495270133">
<ele>114.20000000000005</ele>
<time>2023-05-17T11:56:19Z</time>
</trkpt>
<trkpt lat="49.096491979435086" lon="8.488212944939733">
<ele>114.20000000000005</ele>
<time>2023-05-17T11:56:20Z</time>
</trkpt>
<trkpt lat="49.09647295251489" lon="8.488106997683644">
<ele>114.20000000000005</ele>
<time>2023-05-17T11:56:21Z</time>
</trkpt>
<trkpt lat="49.09645493142307" lon="8.487999960780144">
<ele>114.20000000000005</ele>
<time>2023-05-17T11:56:22Z</time>
</trkpt>
<trkpt lat="49.09643992781639" lon="8.487889990210533">
<ele>114.20000000000005</ele>
<time>2023-05-17T11:56:23Z</time>
</trkpt>
<trkpt lat="49.096426935866475" lon="8.48777993582189">
<ele>114</ele>
<time>2023-05-17T11:56:24Z</time>
</trkpt>
<trkpt lat="49.0964169614017" lon="8.48766996525228">
<ele>114</ele>
<time>2023-05-17T11:56:25Z</time>
</trkpt>
<trkpt lat="49.09640799276531" lon="8.48756494000554">
<ele>114</ele>
<time>2023-05-17T11:56:26Z</time>
</trkpt>
<trkpt lat="49.0963979344815" lon="8.487457986921072">
<ele>113.79999999999995</ele>
<time>2023-05-17T11:56:27Z</time>
</trkpt>
<trkpt lat="49.09638997167349" lon="8.487357990816236">
<ele>113.60000000000002</ele>
<time>2023-05-17T11:56:28Z</time>
</trkpt>
<trkpt lat="49.09637798555195" lon="8.487264951691031">
<ele>113.60000000000002</ele>
<time>2023-05-17T11:56:29Z</time>
</trkpt>
<trkpt lat="49.09636692143977" lon="8.48717694170773">
<ele>113.60000000000002</ele>
<time>2023-05-17T11:56:30Z</time>
</trkpt>
<trkpt lat="49.09635292366147" lon="8.487102929502726">
<ele>113.39999999999998</ele>
<time>2023-05-17T11:56:31Z</time>
</trkpt>
<trkpt lat="49.09633792005479" lon="8.487037969753146">
<ele>113.39999999999998</ele>
<time>2023-05-17T11:56:32Z</time>
</trkpt>
<trkpt lat="49.09632794559002" lon="8.48698197863996">
<ele>113.39999999999998</ele>
<time>2023-05-17T11:56:33Z</time>
</trkpt>
<trkpt lat="49.09632492810488" lon="8.486922970041633">
<ele>113.39999999999998</ele>
<time>2023-05-17T11:56:34Z</time>
</trkpt>
<trkpt lat="49.09632794559002" lon="8.486866978928447">
<ele>113.60000000000002</ele>
<time>2023-05-17T11:56:35Z</time>
</trkpt>
<trkpt lat="49.096339931711555" lon="8.486812999472022">
<ele>113.60000000000002</ele>
<time>2023-05-17T11:56:36Z</time>
</trkpt>
<trkpt lat="49.096359964460135" lon="8.486761953681707">
<ele>113.60000000000002</ele>
<time>2023-05-17T11:56:37Z</time>
</trkpt>
<trkpt lat="49.096379997208714" lon="8.486707974225283">
<ele>113.60000000000002</ele>
<time>2023-05-17T11:56:38Z</time>
</trkpt>
<trkpt lat="49.09639491699636" lon="8.486644942313433">
<ele>113.60000000000002</ele>
<time>2023-05-17T11:56:39Z</time>
</trkpt>
<trkpt lat="49.096401957795024" lon="8.486581994220614">
<ele>113.60000000000002</ele>
<time>2023-05-17T11:56:40Z</time>
</trkpt>
<trkpt lat="49.096401957795024" lon="8.486512927338481">
<ele>113.60000000000002</ele>
<time>2023-05-17T11:56:41Z</time>
</trkpt>
<trkpt lat="49.09639994613826" lon="8.48644495010376">
<ele>113.60000000000002</ele>
<time>2023-05-17T11:56:42Z</time>
</trkpt>
<trkpt lat="49.0963979344815" lon="8.486366998404264">
<ele>113.60000000000002</ele>
<time>2023-05-17T11:56:43Z</time>
</trkpt>
<trkpt lat="49.09639692865312" lon="8.486289968714118">
<ele>113.79999999999995</ele>
<time>2023-05-17T11:56:44Z</time>
</trkpt>
<trkpt lat="49.09639298915863" lon="8.486212939023972">
<ele>113.79999999999995</ele>
<time>2023-05-17T11:56:45Z</time>
</trkpt>
<trkpt lat="49.09639198333025" lon="8.486132975667715">
<ele>113.79999999999995</ele>
<time>2023-05-17T11:56:46Z</time>
</trkpt>
<trkpt lat="49.09638997167349" lon="8.486054940149188">
<ele>113.79999999999995</ele>
<time>2023-05-17T11:56:47Z</time>
</trkpt>
<trkpt lat="49.09638695418835" lon="8.485976988449693">
<ele>113.79999999999995</ele>
<time>2023-05-17T11:56:48Z</time>
</trkpt>
<trkpt lat="49.09638695418835" lon="8.485899958759546">
<ele>113.79999999999995</ele>
<time>2023-05-17T11:56:49Z</time>
</trkpt>
<trkpt lat="49.09638695418835" lon="8.485826952382922">
<ele>113.79999999999995</ele>
<time>2023-05-17T11:56:50Z</time>
</trkpt>
<trkpt lat="49.09638796001673" lon="8.485747994855046">
<ele>113.79999999999995</ele>
<time>2023-05-17T11:56:51Z</time>
</trkpt>
<trkpt lat="49.09638997167349" lon="8.48567197099328">
<ele>113.79999999999995</ele>
<time>2023-05-17T11:56:52Z</time>
</trkpt>
<trkpt lat="49.09638796001673" lon="8.485592929646373">
<ele>113.79999999999995</ele>
<time>2023-05-17T11:56:53Z</time>
</trkpt>
<trkpt lat="49.09638997167349" lon="8.485514977946877">
<ele>113.79999999999995</ele>
<time>2023-05-17T11:56:54Z</time>
</trkpt>
<trkpt lat="49.09639198333025" lon="8.48543694242835">
<ele>113.79999999999995</ele>
<time>2023-05-17T11:56:55Z</time>
</trkpt>
<trkpt lat="49.09639198333025" lon="8.485351949930191">
<ele>113.79999999999995</ele>
<time>2023-05-17T11:56:56Z</time>
</trkpt>
<trkpt lat="49.09639298915863" lon="8.485271986573935">
<ele>113.79999999999995</ele>
<time>2023-05-17T11:56:57Z</time>
</trkpt>
<trkpt lat="49.09639298915863" lon="8.485189927741885">
<ele>113.79999999999995</ele>
<time>2023-05-17T11:56:58Z</time>
</trkpt>
<trkpt lat="49.09639298915863" lon="8.485109964385629">
<ele>113.79999999999995</ele>
<time>2023-05-17T11:56:59Z</time>
</trkpt>
<trkpt lat="49.09639298915863" lon="8.485031928867102">
<ele>113.79999999999995</ele>
<time>2023-05-17T11:57:00Z</time>
</trkpt>
<trkpt lat="49.09639692865312" lon="8.484954982995987">
<ele>113.79999999999995</ele>
<time>2023-05-17T11:57:01Z</time>
</trkpt>
<trkpt lat="49.0963979344815" lon="8.484874935820699">
<ele>113.79999999999995</ele>
<time>2023-05-17T11:57:02Z</time>
</trkpt>
<trkpt lat="49.09639994613826" lon="8.484796984121203">
<ele>113.79999999999995</ele>
<time>2023-05-17T11:57:03Z</time>
</trkpt>
<trkpt lat="49.096401957795024" lon="8.484719954431057">
<ele>113.79999999999995</ele>
<time>2023-05-17T11:57:04Z</time>
</trkpt>
<trkpt lat="49.096402963623405" lon="8.484651977196336">
<ele>113.79999999999995</ele>
<time>2023-05-17T11:57:05Z</time>
</trkpt>
<trkpt lat="49.09640698693693" lon="8.484587939456105">
<ele>113.60000000000002</ele>
<time>2023-05-17T11:57:06Z</time>
</trkpt>
<trkpt lat="49.09640799276531" lon="8.484527925029397">
<ele>113.60000000000002</ele>
<time>2023-05-17T11:57:07Z</time>
</trkpt>
<trkpt lat="49.09640698693693" lon="8.48446799442172">
<ele>113.60000000000002</ele>
<time>2023-05-17T11:57:08Z</time>
</trkpt>
<trkpt lat="49.096404975280166" lon="8.484407979995012">
<ele>113.39999999999998</ele>
<time>2023-05-17T11:57:09Z</time>
</trkpt>
<trkpt lat="49.096404975280166" lon="8.484346959739923">
<ele>113.39999999999998</ele>
<time>2023-05-17T11:57:10Z</time>
</trkpt>
<trkpt lat="49.096404975280166" lon="8.484286945313215">
<ele>113.39999999999998</ele>
<time>2023-05-17T11:57:11Z</time>
</trkpt>
<trkpt lat="49.096402963623405" lon="8.48423296585679">
<ele>113.20000000000005</ele>
<time>2023-05-17T11:57:12Z</time>
</trkpt>
<trkpt lat="49.096402963623405" lon="8.484174963086843">
<ele>113.20000000000005</ele>
<time>2023-05-17T11:57:13Z</time>
</trkpt>
<trkpt lat="49.09640992060304" lon="8.484109919518232">
<ele>113.20000000000005</ele>
<time>2023-05-17T11:57:14Z</time>
</trkpt>
<trkpt lat="49.0964119322598" lon="8.484044959768653">
<ele>113.20000000000005</ele>
<time>2023-05-17T11:57:15Z</time>
</trkpt>
<trkpt lat="49.09641494974494" lon="8.483989974483848">
<ele>113.20000000000005</ele>
<time>2023-05-17T11:57:16Z</time>
</trkpt>
<trkpt lat="49.09641494974494" lon="8.483944963663816">
<ele>113.20000000000005</ele>
<time>2023-05-17T11:57:17Z</time>
</trkpt>
<trkpt lat="49.0964169614017" lon="8.483902970328927">
<ele>113.20000000000005</ele>
<time>2023-05-17T11:57:18Z</time>
</trkpt>
<trkpt lat="49.09641796723008" lon="8.483864916488528">
<ele>113.20000000000005</ele>
<time>2023-05-17T11:57:19Z</time>
</trkpt>
<trkpt lat="49.0964169614017" lon="8.483831975609064">
<ele>113.20000000000005</ele>
<time>2023-05-17T11:57:20Z</time>
</trkpt>
<trkpt lat="49.09641796723008" lon="8.483792999759316">
<ele>113.20000000000005</ele>
<time>2023-05-17T11:57:21Z</time>
</trkpt>
<trkpt lat="49.096421990543604" lon="8.483749916777015">
<ele>113.20000000000005</ele>
<time>2023-05-17T11:57:22Z</time>
</trkpt>
<trkpt lat="49.096422996371984" lon="8.483701972290874">
<ele>113.20000000000005</ele>
<time>2023-05-17T11:57:23Z</time>
</trkpt>
<trkpt lat="49.096424924209714" lon="8.483659978955984">
<ele>113.20000000000005</ele>
<time>2023-05-17T11:57:24Z</time>
</trkpt>
<trkpt lat="49.096424924209714" lon="8.483616979792714">
<ele>113.20000000000005</ele>
<time>2023-05-17T11:57:25Z</time>
</trkpt>
<trkpt lat="49.096426935866475" lon="8.483572974801064">
<ele>113.20000000000005</ele>
<time>2023-05-17T11:57:26Z</time>
</trkpt>
<trkpt lat="49.09642995335162" lon="8.483526958152652">
<ele>113.20000000000005</ele>
<time>2023-05-17T11:57:27Z</time>
</trkpt>
<trkpt lat="49.09643498249352" lon="8.483474990352988">
<ele>113.20000000000005</ele>
<time>2023-05-17T11:57:28Z</time>
</trkpt>
<trkpt lat="49.09643699415028" lon="8.483422938734293">
<ele>113.20000000000005</ele>
<time>2023-05-17T11:57:29Z</time>
</trkpt>
<trkpt lat="49.09642995335162" lon="8.483374994248152">
<ele>113.20000000000005</ele>
<time>2023-05-17T11:57:30Z</time>
</trkpt>
<trkpt lat="49.096424924209714" lon="8.483322942629457">
<ele>113.20000000000005</ele>
<time>2023-05-17T11:57:31Z</time>
</trkpt>
<trkpt lat="49.096424924209714" lon="8.48326695151627">
<ele>113.20000000000005</ele>
<time>2023-05-17T11:57:32Z</time>
</trkpt>
<trkpt lat="49.096426935866475" lon="8.483206937089562">
<ele>113.20000000000005</ele>
<time>2023-05-17T11:57:33Z</time>
</trkpt>
<trkpt lat="49.096426935866475" lon="8.483142983168364">
<ele>113.20000000000005</ele>
<time>2023-05-17T11:57:34Z</time>
</trkpt>
<trkpt lat="49.096424924209714" lon="8.483081962913275">
<ele>113.20000000000005</ele>
<time>2023-05-17T11:57:35Z</time>
</trkpt>
<trkpt lat="49.096426935866475" lon="8.483012979850173">
<ele>113.20000000000005</ele>
<time>2023-05-17T11:57:36Z</time>
</trkpt>
<trkpt lat="49.09642995335162" lon="8.48294198513031">
<ele>113.20000000000005</ele>
<time>2023-05-17T11:57:37Z</time>
</trkpt>
<trkpt lat="49.09643196500838" lon="8.482867972925305">
<ele>113.20000000000005</ele>
<time>2023-05-17T11:57:38Z</time>
</trkpt>
<trkpt lat="49.09643498249352" lon="8.482787925750017">
<ele>113.20000000000005</ele>
<time>2023-05-17T11:57:39Z</time>
</trkpt>
<trkpt lat="49.09643799997866" lon="8.482711985707283">
<ele>113.20000000000005</ele>
<time>2023-05-17T11:57:40Z</time>
</trkpt>
<trkpt lat="49.09644294530153" lon="8.482627999037504">
<ele>113.20000000000005</ele>
<time>2023-05-17T11:57:41Z</time>
</trkpt>
<trkpt lat="49.096444956958294" lon="8.482547951862216">
<ele>113.20000000000005</ele>
<time>2023-05-17T11:57:42Z</time>
</trkpt>
<trkpt lat="49.096444956958294" lon="8.48247192800045">
<ele>113.20000000000005</ele>
<time>2023-05-17T11:57:43Z</time>
</trkpt>
<trkpt lat="49.096447974443436" lon="8.482391964644194">
<ele>113.39999999999998</ele>
<time>2023-05-17T11:57:44Z</time>
</trkpt>
<trkpt lat="49.0964499861002" lon="8.482311917468905">
<ele>113.39999999999998</ele>
<time>2023-05-17T11:57:45Z</time>
</trkpt>
<trkpt lat="49.09645199775696" lon="8.48223497159779">
<ele>113.39999999999998</ele>
<time>2023-05-17T11:57:46Z</time>
</trkpt>
<trkpt lat="49.09645291976631" lon="8.482154924422503">
<ele>113.39999999999998</ele>
<time>2023-05-17T11:57:47Z</time>
</trkpt>
<trkpt lat="49.09645291976631" lon="8.482072949409485">
<ele>113.39999999999998</ele>
<time>2023-05-17T11:57:48Z</time>
</trkpt>
<trkpt lat="49.09645291976631" lon="8.481989968568087">
<ele>113.39999999999998</ele>
<time>2023-05-17T11:57:49Z</time>
</trkpt>
<trkpt lat="49.09645291976631" lon="8.481899946928024">
<ele>113.39999999999998</ele>
<time>2023-05-17T11:57:50Z</time>
</trkpt>
<trkpt lat="49.09645199775696" lon="8.481814954429865">
<ele>113.39999999999998</ele>
<time>2023-05-17T11:57:51Z</time>
</trkpt>
<trkpt lat="49.09645199775696" lon="8.481732979416847">
<ele>113.39999999999998</ele>
<time>2023-05-17T11:57:52Z</time>
</trkpt>
<trkpt lat="49.09645291976631" lon="8.481649998575449">
<ele>113.39999999999998</ele>
<time>2023-05-17T11:57:53Z</time>
</trkpt>
<trkpt lat="49.09645493142307" lon="8.481562994420528">
<ele>113.39999999999998</ele>
<time>2023-05-17T11:57:54Z</time>
</trkpt>
<trkpt lat="49.09645794890821" lon="8.481477918103337">
<ele>113.39999999999998</ele>
<time>2023-05-17T11:57:55Z</time>
</trkpt>
<trkpt lat="49.09645996056497" lon="8.4813969489187">
<ele>113.39999999999998</ele>
<time>2023-05-17T11:57:56Z</time>
</trkpt>
<trkpt lat="49.09646197222173" lon="8.481314973905683">
<ele>113.39999999999998</ele>
<time>2023-05-17T11:57:57Z</time>
</trkpt>
<trkpt lat="49.09646197222173" lon="8.481236938387156">
<ele>113.39999999999998</ele>
<time>2023-05-17T11:57:58Z</time>
</trkpt>
<trkpt lat="49.09646297805011" lon="8.481156975030899">
<ele>113.39999999999998</ele>
<time>2023-05-17T11:57:59Z</time>
</trkpt>
<trkpt lat="49.096464989706874" lon="8.48107491619885">
<ele>113.39999999999998</ele>
<time>2023-05-17T11:58:00Z</time>
</trkpt>
<trkpt lat="49.096467923372984" lon="8.480994952842593">
<ele>113.39999999999998</ele>
<time>2023-05-17T11:58:01Z</time>
</trkpt>
<trkpt lat="49.096469935029745" lon="8.480912977829576">
<ele>113.39999999999998</ele>
<time>2023-05-17T11:58:02Z</time>
</trkpt>
<trkpt lat="49.09647295251489" lon="8.480832930654287">
<ele>113.39999999999998</ele>
<time>2023-05-17T11:58:03Z</time>
</trkpt>
<trkpt lat="49.09647295251489" lon="8.480754978954792">
<ele>113.39999999999998</ele>
<time>2023-05-17T11:58:04Z</time>
</trkpt>
<trkpt lat="49.09647295251489" lon="8.480674931779504">
<ele>113.39999999999998</ele>
<time>2023-05-17T11:58:05Z</time>
</trkpt>
<trkpt lat="49.09647496417165" lon="8.480592956766486">
<ele>113.39999999999998</ele>
<time>2023-05-17T11:58:06Z</time>
</trkpt>
<trkpt lat="49.09647697582841" lon="8.480511987581849">
<ele>113.39999999999998</ele>
<time>2023-05-17T11:58:07Z</time>
</trkpt>
<trkpt lat="49.09647798165679" lon="8.480427917093039">
<ele>113.60000000000002</ele>
<time>2023-05-17T11:58:08Z</time>
</trkpt>
<trkpt lat="49.09647999331355" lon="8.480347953736782">
<ele>113.60000000000002</ele>
<time>2023-05-17T11:58:09Z</time>
</trkpt>
<trkpt lat="49.09648192115128" lon="8.480269918218255">
<ele>113.60000000000002</ele>
<time>2023-05-17T11:58:10Z</time>
</trkpt>
<trkpt lat="49.09648192115128" lon="8.480189954861999">
<ele>113.60000000000002</ele>
<time>2023-05-17T11:58:11Z</time>
</trkpt>
<trkpt lat="49.09648192115128" lon="8.480111919343472">
<ele>113.60000000000002</ele>
<time>2023-05-17T11:58:12Z</time>
</trkpt>
<trkpt lat="49.09647999331355" lon="8.480034973472357">
<ele>113.60000000000002</ele>
<time>2023-05-17T11:58:13Z</time>
</trkpt>
<trkpt lat="49.09647999331355" lon="8.479959955438972">
<ele>113.60000000000002</ele>
<time>2023-05-17T11:58:14Z</time>
</trkpt>
<trkpt lat="49.09647999331355" lon="8.479884937405586">
<ele>113.60000000000002</ele>
<time>2023-05-17T11:58:15Z</time>
</trkpt>
<trkpt lat="49.09647999331355" lon="8.479811931028962">
<ele>113.60000000000002</ele>
<time>2023-05-17T11:58:16Z</time>
</trkpt>
<trkpt lat="49.09647798165679" lon="8.479736996814609">
<ele>113.60000000000002</ele>
<time>2023-05-17T11:58:17Z</time>
</trkpt>
<trkpt lat="49.09647697582841" lon="8.479661978781223">
<ele>113.60000000000002</ele>
<time>2023-05-17T11:58:18Z</time>
</trkpt>
<trkpt lat="49.096471946686506" lon="8.479587966576219">
<ele>113.60000000000002</ele>
<time>2023-05-17T11:58:19Z</time>
</trkpt>
<trkpt lat="49.0964669175446" lon="8.479514960199594">
<ele>113.60000000000002</ele>
<time>2023-05-17T11:58:20Z</time>
</trkpt>
<trkpt lat="49.09645996056497" lon="8.479437930509448">
<ele>113.60000000000002</ele>
<time>2023-05-17T11:58:21Z</time>
</trkpt>
<trkpt lat="49.09645493142307" lon="8.479357967153192">
<ele>113.60000000000002</ele>
<time>2023-05-17T11:58:22Z</time>
</trkpt>
<trkpt lat="49.09645199775696" lon="8.479277919977903">
<ele>113.60000000000002</ele>
<time>2023-05-17T11:58:23Z</time>
</trkpt>
<trkpt lat="49.096446968615055" lon="8.479197956621647">
<ele>113.60000000000002</ele>
<time>2023-05-17T11:58:24Z</time>
</trkpt>
<trkpt lat="49.09644193947315" lon="8.47911799326539">
<ele>113.60000000000002</ele>
<time>2023-05-17T11:58:25Z</time>
</trkpt>
<trkpt lat="49.09643699415028" lon="8.479039957746863">
<ele>113.60000000000002</ele>
<time>2023-05-17T11:58:26Z</time>
</trkpt>
<trkpt lat="49.09643196500838" lon="8.478962928056717">
<ele>113.60000000000002</ele>
<time>2023-05-17T11:58:27Z</time>
</trkpt>
<trkpt lat="49.096424924209714" lon="8.478884976357222">
<ele>113.60000000000002</ele>
<time>2023-05-17T11:58:28Z</time>
</trkpt>
<trkpt lat="49.09641997888684" lon="8.478804929181933">
<ele>113.79999999999995</ele>
<time>2023-05-17T11:58:29Z</time>
</trkpt>
<trkpt lat="49.09641293808818" lon="8.478727983310819">
<ele>113.79999999999995</ele>
<time>2023-05-17T11:58:30Z</time>
</trkpt>
<trkpt lat="49.09640799276531" lon="8.478651959449053">
<ele>113.79999999999995</ele>
<time>2023-05-17T11:58:31Z</time>
</trkpt>
<trkpt lat="49.096402963623405" lon="8.478572918102145">
<ele>113.79999999999995</ele>
<time>2023-05-17T11:58:32Z</time>
</trkpt>
<trkpt lat="49.09639692865312" lon="8.478492954745889">
<ele>113.79999999999995</ele>
<time>2023-05-17T11:58:33Z</time>
</trkpt>
<trkpt lat="49.09638796001673" lon="8.478417936712503">
<ele>113.79999999999995</ele>
<time>2023-05-17T11:58:34Z</time>
</trkpt>
<trkpt lat="49.096381925046444" lon="8.478339985013008">
<ele>113.79999999999995</ele>
<time>2023-05-17T11:58:35Z</time>
</trkpt>
<trkpt lat="49.09637697972357" lon="8.478262955322862">
<ele>113.79999999999995</ele>
<time>2023-05-17T11:58:36Z</time>
</trkpt>
<trkpt lat="49.09637195058167" lon="8.478187937289476">
<ele>113.79999999999995</ele>
<time>2023-05-17T11:58:37Z</time>
</trkpt>
<trkpt lat="49.09636993892491" lon="8.478111997246742">
<ele>113.79999999999995</ele>
<time>2023-05-17T11:58:38Z</time>
</trkpt>
<trkpt lat="49.09636792726815" lon="8.478037985041738">
<ele>113.79999999999995</ele>
<time>2023-05-17T11:58:39Z</time>
</trkpt>
<trkpt lat="49.09636499360204" lon="8.477966990321875">
<ele>113.79999999999995</ele>
<time>2023-05-17T11:58:40Z</time>
</trkpt>
<trkpt lat="49.096362981945276" lon="8.47789297811687">
<ele>113.79999999999995</ele>
<time>2023-05-17T11:58:41Z</time>
</trkpt>
<trkpt lat="49.096361976116896" lon="8.477812930941582">
<ele>113.79999999999995</ele>
<time>2023-05-17T11:58:42Z</time>
</trkpt>
<trkpt lat="49.09635795280337" lon="8.477732967585325">
<ele>113.79999999999995</ele>
<time>2023-05-17T11:58:43Z</time>
</trkpt>
<trkpt lat="49.09634998999536" lon="8.47765794955194">
<ele>113.79999999999995</ele>
<time>2023-05-17T11:58:44Z</time>
</trkpt>
<trkpt lat="49.096339931711555" lon="8.477579997852445">
<ele>113.79999999999995</ele>
<time>2023-05-17T11:58:45Z</time>
</trkpt>
<trkpt lat="49.09632794559002" lon="8.477502968162298">
<ele>113.79999999999995</ele>
<time>2023-05-17T11:58:46Z</time>
</trkpt>
<trkpt lat="49.09631294198334" lon="8.477424932643771">
<ele>113.79999999999995</ele>
<time>2023-05-17T11:58:47Z</time>
</trkpt>
<trkpt lat="49.096299950033426" lon="8.477346980944276">
<ele>113.79999999999995</ele>
<time>2023-05-17T11:58:48Z</time>
</trkpt>
<trkpt lat="49.09628796391189" lon="8.477266933768988">
<ele>113.79999999999995</ele>
<time>2023-05-17T11:58:49Z</time>
</trkpt>
<trkpt lat="49.09628192894161" lon="8.47718495875597">
<ele>114</ele>
<time>2023-05-17T11:58:50Z</time>
</trkpt>
<trkpt lat="49.09628192894161" lon="8.47709996625781">
<ele>114</ele>
<time>2023-05-17T11:58:51Z</time>
</trkpt>
<trkpt lat="49.09628796391189" lon="8.477014973759651">
<ele>114</ele>
<time>2023-05-17T11:58:52Z</time>
</trkpt>
<trkpt lat="49.09629492089152" lon="8.47692796960473">
<ele>114</ele>
<time>2023-05-17T11:58:53Z</time>
</trkpt>
<trkpt lat="49.096299950033426" lon="8.476842977106571">
<ele>114</ele>
<time>2023-05-17T11:58:54Z</time>
</trkpt>
<trkpt lat="49.09630296751857" lon="8.476761924102902">
<ele>113.79999999999995</ele>
<time>2023-05-17T11:58:55Z</time>
</trkpt>
<trkpt lat="49.09630296751857" lon="8.476681960746646">
<ele>113.79999999999995</ele>
<time>2023-05-17T11:58:56Z</time>
</trkpt>
<trkpt lat="49.096299950033426" lon="8.476607948541641">
<ele>113.79999999999995</ele>
<time>2023-05-17T11:58:57Z</time>
</trkpt>
<trkpt lat="49.096296932548285" lon="8.476546928286552">
<ele>113.79999999999995</ele>
<time>2023-05-17T11:58:58Z</time>
</trkpt>
<trkpt lat="49.096292993053794" lon="8.476487919688225">
<ele>113.79999999999995</ele>
<time>2023-05-17T11:58:59Z</time>
</trkpt>
<trkpt lat="49.09628796391189" lon="8.476436957716942">
<ele>113.79999999999995</ele>
<time>2023-05-17T11:59:00Z</time>
</trkpt>
<trkpt lat="49.09628293476999" lon="8.476387923583388">
<ele>113.79999999999995</ele>
<time>2023-05-17T11:59:01Z</time>
</trkpt>
<trkpt lat="49.09628293476999" lon="8.476342996582389">
<ele>113.79999999999995</ele>
<time>2023-05-17T11:59:02Z</time>
</trkpt>
<trkpt lat="49.09628494642675" lon="8.476299997419119">
<ele>113.79999999999995</ele>
<time>2023-05-17T11:59:03Z</time>
</trkpt>
<trkpt lat="49.09628796391189" lon="8.476257920265198">
<ele>113.60000000000002</ele>
<time>2023-05-17T11:59:04Z</time>
</trkpt>
<trkpt lat="49.09629198722541" lon="8.476222967728972">
<ele>113.60000000000002</ele>
<time>2023-05-17T11:59:05Z</time>
</trkpt>
<trkpt lat="49.096296932548285" lon="8.476191954687238">
<ele>113.60000000000002</ele>
<time>2023-05-17T11:59:06Z</time>
</trkpt>
<trkpt lat="49.096297938376665" lon="8.47615691833198">
<ele>113.39999999999998</ele>
<time>2023-05-17T11:59:07Z</time>
</trkpt>
<trkpt lat="49.096299950033426" lon="8.476114924997091">
<ele>113.39999999999998</ele>
<time>2023-05-17T11:59:08Z</time>
</trkpt>
<trkpt lat="49.096296932548285" lon="8.47606698051095">
<ele>113.20000000000005</ele>
<time>2023-05-17T11:59:09Z</time>
</trkpt>
<trkpt lat="49.096292993053794" lon="8.476012917235494">
<ele>113.20000000000005</ele>
<time>2023-05-17T11:59:10Z</time>
</trkpt>
<trkpt lat="49.09629198722541" lon="8.475954998284578">
<ele>113.20000000000005</ele>
<time>2023-05-17T11:59:11Z</time>
</trkpt>
<trkpt lat="49.09628997556865" lon="8.475889954715967">
<ele>113</ele>
<time>2023-05-17T11:59:12Z</time>
</trkpt>
<trkpt lat="49.09628997556865" lon="8.475817954167724">
<ele>112.79999999999995</ele>
<time>2023-05-17T11:59:13Z</time>
</trkpt>
<trkpt lat="49.09628796391189" lon="8.475749976933002">
<ele>112.79999999999995</ele>
<time>2023-05-17T11:59:14Z</time>
</trkpt>
<trkpt lat="49.09628695808351" lon="8.47567998804152">
<ele>112.60000000000002</ele>
<time>2023-05-17T11:59:15Z</time>
</trkpt>
<trkpt lat="49.09628293476999" lon="8.475609999150038">
<ele>112.60000000000002</ele>
<time>2023-05-17T11:59:16Z</time>
</trkpt>
<trkpt lat="49.096279917284846" lon="8.475532969459891">
<ele>112.39999999999998</ele>
<time>2023-05-17T11:59:17Z</time>
</trkpt>
<trkpt lat="49.09627798944712" lon="8.475454933941364">
<ele>112.39999999999998</ele>
<time>2023-05-17T11:59:18Z</time>
</trkpt>
<trkpt lat="49.096274971961975" lon="8.475374970585108">
<ele>112.39999999999998</ele>
<time>2023-05-17T11:59:19Z</time>
</trkpt>
<trkpt lat="49.096272960305214" lon="8.47529492340982">
<ele>112.20000000000005</ele>
<time>2023-05-17T11:59:20Z</time>
</trkpt>
<trkpt lat="49.09626994282007" lon="8.475214960053563">
<ele>112.20000000000005</ele>
<time>2023-05-17T11:59:21Z</time>
</trkpt>
<trkpt lat="49.0962649974972" lon="8.475136924535036">
<ele>112.20000000000005</ele>
<time>2023-05-17T11:59:22Z</time>
</trkpt>
<trkpt lat="49.09626198001206" lon="8.47505796700716">
<ele>112.20000000000005</ele>
<time>2023-05-17T11:59:23Z</time>
</trkpt>
<trkpt lat="49.096256950870156" lon="8.474977919831872">
<ele>112</ele>
<time>2023-05-17T11:59:24Z</time>
</trkpt>
<trkpt lat="49.09625192172825" lon="8.474897956475616">
<ele>112</ele>
<time>2023-05-17T11:59:25Z</time>
</trkpt>
<trkpt lat="49.09624798223376" lon="8.474819920957088">
<ele>112</ele>
<time>2023-05-17T11:59:26Z</time>
</trkpt>
<trkpt lat="49.09624496474862" lon="8.474739957600832">
<ele>112</ele>
<time>2023-05-17T11:59:27Z</time>
</trkpt>
<trkpt lat="49.09624496474862" lon="8.474657982587814">
<ele>112</ele>
<time>2023-05-17T11:59:28Z</time>
</trkpt>
<trkpt lat="49.09624295309186" lon="8.474572990089655">
<ele>112</ele>
<time>2023-05-17T11:59:29Z</time>
</trkpt>
<trkpt lat="49.09623993560672" lon="8.474489925429225">
<ele>112</ele>
<time>2023-05-17T11:59:30Z</time>
</trkpt>
<trkpt lat="49.096236918121576" lon="8.474404932931066">
<ele>112</ele>
<time>2023-05-17T11:59:31Z</time>
</trkpt>
<trkpt lat="49.096232978627086" lon="8.474319940432906">
<ele>112</ele>
<time>2023-05-17T11:59:32Z</time>
</trkpt>
<trkpt lat="49.09622794948518" lon="8.474236959591508">
<ele>112</ele>
<time>2023-05-17T11:59:33Z</time>
</trkpt>
<trkpt lat="49.0962269436568" lon="8.474156996235251">
<ele>111.79999999999995</ele>
<time>2023-05-17T11:59:34Z</time>
</trkpt>
<trkpt lat="49.09622199833393" lon="8.47407191991806">
<ele>111.79999999999995</ele>
<time>2023-05-17T11:59:35Z</time>
</trkpt>
<trkpt lat="49.09621495753527" lon="8.473986927419901">
<ele>111.79999999999995</ele>
<time>2023-05-17T11:59:36Z</time>
</trkpt>
<trkpt lat="49.096209928393364" lon="8.47389992326498">
<ele>111.60000000000002</ele>
<time>2023-05-17T11:59:37Z</time>
</trkpt>
<trkpt lat="49.09620498307049" lon="8.473807973787189">
<ele>111.60000000000002</ele>
<time>2023-05-17T11:59:38Z</time>
</trkpt>
<trkpt lat="49.09619995392859" lon="8.473716946318746">
<ele>111.39999999999998</ele>
<time>2023-05-17T11:59:39Z</time>
</trkpt>
<trkpt lat="49.09619199112058" lon="8.473619967699051">
<ele>111.39999999999998</ele>
<time>2023-05-17T11:59:40Z</time>
</trkpt>
<trkpt lat="49.096186961978674" lon="8.473517959937453">
<ele>111.20000000000005</ele>
<time>2023-05-17T11:59:41Z</time>
</trkpt>
<trkpt lat="49.09618193283677" lon="8.473411928862333">
<ele>111</ele>
<time>2023-05-17T11:59:42Z</time>
</trkpt>
<trkpt lat="49.09617497585714" lon="8.473302964121103">
<ele>110.79999999999995</ele>
<time>2023-05-17T11:59:43Z</time>
</trkpt>
<trkpt lat="49.096167935058475" lon="8.473194921389222">
<ele>110.60000000000002</ele>
<time>2023-05-17T11:59:44Z</time>
</trkpt>
<trkpt lat="49.09615997225046" lon="8.47308293916285">
<ele>110.39999999999998</ele>
<time>2023-05-17T11:59:45Z</time>
</trkpt>
<trkpt lat="49.09615192562342" lon="8.472967939451337">
<ele>110.20000000000005</ele>
<time>2023-05-17T11:59:46Z</time>
</trkpt>
<trkpt lat="49.096144968643785" lon="8.472854951396585">
<ele>110</ele>
<time>2023-05-17T11:59:47Z</time>
</trkpt>
<trkpt lat="49.09611999057233" lon="8.472741963341832">
<ele>109.79999999999995</ele>
<time>2023-05-17T11:59:48Z</time>
</trkpt>
<trkpt lat="49.09609492868185" lon="8.472626963630319">
<ele>109.60000000000002</ele>
<time>2023-05-17T11:59:49Z</time>
</trkpt>
<trkpt lat="49.09609291702509" lon="8.472537947818637">
<ele>109.60000000000002</ele>
<time>2023-05-17T11:59:50Z</time>
</trkpt>
<trkpt lat="49.09608797170222" lon="8.472442980855703">
<ele>109.60000000000002</ele>
<time>2023-05-17T11:59:51Z</time>
</trkpt>
<trkpt lat="49.096084954217076" lon="8.472357988357544">
<ele>109.60000000000002</ele>
<time>2023-05-17T11:59:52Z</time>
</trkpt>
<trkpt lat="49.09607699140906" lon="8.472272995859385">
<ele>109.60000000000002</ele>
<time>2023-05-17T11:59:53Z</time>
</trkpt>
<trkpt lat="49.09609291702509" lon="8.472184985876083">
<ele>109.60000000000002</ele>
<time>2023-05-17T11:59:54Z</time>
</trkpt>
<trkpt lat="49.09609199501574" lon="8.472107956185937">
<ele>109.79999999999995</ele>
<time>2023-05-17T11:59:55Z</time>
</trkpt>
<trkpt lat="49.096082942560315" lon="8.472032938152552">
<ele>110</ele>
<time>2023-05-17T11:59:56Z</time>
</trkpt>
<trkpt lat="49.09607196226716" lon="8.471957920119166">
<ele>110</ele>
<time>2023-05-17T11:59:57Z</time>
</trkpt>
<trkpt lat="49.09606693312526" lon="8.471879968419671">
<ele>110</ele>
<time>2023-05-17T11:59:58Z</time>
</trkpt>
<trkpt lat="49.096064921468496" lon="8.471806962043047">
<ele>110.20000000000005</ele>
<time>2023-05-17T11:59:59Z</time>
</trkpt>
<trkpt lat="49.09606299363077" lon="8.4717299323529">
<ele>110.20000000000005</ele>
<time>2023-05-17T12:00:00Z</time>
</trkpt>
<trkpt lat="49.096061987802386" lon="8.471654998138547">
<ele>110.20000000000005</ele>
<time>2023-05-17T12:00:01Z</time>
</trkpt>
<trkpt lat="49.096059976145625" lon="8.471582997590303">
<ele>110.39999999999998</ele>
<time>2023-05-17T12:00:02Z</time>
</trkpt>
<trkpt lat="49.09605494700372" lon="8.471507979556918">
<ele>110.39999999999998</ele>
<time>2023-05-17T12:00:03Z</time>
</trkpt>
<trkpt lat="49.09604991786182" lon="8.471434973180294">
<ele>110.60000000000002</ele>
<time>2023-05-17T12:00:04Z</time>
</trkpt>
<trkpt lat="49.096041955053806" lon="8.471352998167276">
<ele>110.79999999999995</ele>
<time>2023-05-17T12:00:05Z</time>
</trkpt>
<trkpt lat="49.096034998074174" lon="8.47127697430551">
<ele>111</ele>
<time>2023-05-17T12:00:06Z</time>
</trkpt>
<trkpt lat="49.09602795727551" lon="8.471192987635732">
<ele>111.20000000000005</ele>
<time>2023-05-17T12:00:07Z</time>
</trkpt>
<trkpt lat="49.09602493979037" lon="8.471112940460443">
<ele>111.39999999999998</ele>
<time>2023-05-17T12:00:08Z</time>
</trkpt>
<trkpt lat="49.0960199944675" lon="8.471034988760948">
<ele>111.60000000000002</ele>
<time>2023-05-17T12:00:09Z</time>
</trkpt>
<trkpt lat="49.096017982810736" lon="8.470957959070802">
<ele>111.79999999999995</ele>
<time>2023-05-17T12:00:10Z</time>
</trkpt>
<trkpt lat="49.09600792452693" lon="8.470879923552275">
<ele>112</ele>
<time>2023-05-17T12:00:11Z</time>
</trkpt>
<trkpt lat="49.09599996171892" lon="8.47080691717565">
<ele>112</ele>
<time>2023-05-17T12:00:12Z</time>
</trkpt>
<trkpt lat="49.095991998910904" lon="8.470729971304536">
<ele>112</ele>
<time>2023-05-17T12:00:13Z</time>
</trkpt>
<trkpt lat="49.095986969769" lon="8.470647996291518">
<ele>112.20000000000005</ele>
<time>2023-05-17T12:00:14Z</time>
</trkpt>
<trkpt lat="49.095986969769" lon="8.470571972429752">
<ele>112.20000000000005</ele>
<time>2023-05-17T12:00:15Z</time>
</trkpt>
<trkpt lat="49.09598294645548" lon="8.470491925254464">
<ele>112.20000000000005</ele>
<time>2023-05-17T12:00:16Z</time>
</trkpt>
<trkpt lat="49.095977917313576" lon="8.47041497938335">
<ele>112.20000000000005</ele>
<time>2023-05-17T12:00:17Z</time>
</trkpt>
<trkpt lat="49.09597699530423" lon="8.470336943864822">
<ele>112.20000000000005</ele>
<time>2023-05-17T12:00:18Z</time>
</trkpt>
<trkpt lat="49.09597699530423" lon="8.470254968851805">
<ele>112.39999999999998</ele>
<time>2023-05-17T12:00:19Z</time>
</trkpt>
<trkpt lat="49.095972971990705" lon="8.470174921676517">
<ele>112.39999999999998</ele>
<time>2023-05-17T12:00:20Z</time>
</trkpt>
<trkpt lat="49.09596492536366" lon="8.470096969977021">
<ele>112.39999999999998</ele>
<time>2023-05-17T12:00:21Z</time>
</trkpt>
<trkpt lat="49.09596199169755" lon="8.470016922801733">
<ele>112.39999999999998</ele>
<time>2023-05-17T12:00:22Z</time>
</trkpt>
<trkpt lat="49.095952939242125" lon="8.46994198858738">
<ele>112.60000000000002</ele>
<time>2023-05-17T12:00:23Z</time>
</trkpt>
<trkpt lat="49.09594698809087" lon="8.469864958897233">
<ele>112.60000000000002</ele>
<time>2023-05-17T12:00:24Z</time>
</trkpt>
<trkpt lat="49.09593994729221" lon="8.469787929207087">
<ele>112.60000000000002</ele>
<time>2023-05-17T12:00:25Z</time>
</trkpt>
<trkpt lat="49.09594195894897" lon="8.469712994992733">
<ele>112.79999999999995</ele>
<time>2023-05-17T12:00:26Z</time>
</trkpt>
<trkpt lat="49.095934918150306" lon="8.469637976959348">
<ele>112.79999999999995</ele>
<time>2023-05-17T12:00:27Z</time>
</trkpt>
<trkpt lat="49.09592796117067" lon="8.469564970582724">
<ele>112.79999999999995</ele>
<time>2023-05-17T12:00:28Z</time>
</trkpt>
<trkpt lat="49.09592192620039" lon="8.469489952549338">
<ele>113</ele>
<time>2023-05-17T12:00:29Z</time>
</trkpt>
<trkpt lat="49.095909940078855" lon="8.469412922859192">
<ele>113</ele>
<time>2023-05-17T12:00:30Z</time>
</trkpt>
<trkpt lat="49.09590197727084" lon="8.469334971159697">
<ele>113</ele>
<time>2023-05-17T12:00:31Z</time>
</trkpt>
<trkpt lat="49.095892924815416" lon="8.469254923984408">
<ele>113.20000000000005</ele>
<time>2023-05-17T12:00:32Z</time>
</trkpt>
<trkpt lat="49.09588194452226" lon="8.469176972284913">
<ele>113.20000000000005</ele>
<time>2023-05-17T12:00:33Z</time>
</trkpt>
<trkpt lat="49.095869958400726" lon="8.469094997271895">
<ele>113.20000000000005</ele>
<time>2023-05-17T12:00:34Z</time>
</trkpt>
<trkpt lat="49.09586199559271" lon="8.469012938439846">
<ele>113.39999999999998</ele>
<time>2023-05-17T12:00:35Z</time>
</trkpt>
<trkpt lat="49.09585193730891" lon="8.468929957598448">
<ele>113.39999999999998</ele>
<time>2023-05-17T12:00:36Z</time>
</trkpt>
<trkpt lat="49.09584196284413" lon="8.46884798258543">
<ele>113.39999999999998</ele>
<time>2023-05-17T12:00:37Z</time>
</trkpt>
<trkpt lat="49.09583198837936" lon="8.468766929581761">
<ele>113.39999999999998</ele>
<time>2023-05-17T12:00:38Z</time>
</trkpt>
<trkpt lat="49.095826959237456" lon="8.468686966225505">
<ele>113.60000000000002</ele>
<time>2023-05-17T12:00:39Z</time>
</trkpt>
<trkpt lat="49.09581991843879" lon="8.468606919050217">
<ele>113.60000000000002</ele>
<time>2023-05-17T12:00:40Z</time>
</trkpt>
<trkpt lat="49.09581799060106" lon="8.46852796152234">
<ele>113.60000000000002</ele>
<time>2023-05-17T12:00:41Z</time>
</trkpt>
<trkpt lat="49.09581296145916" lon="8.468451937660575">
<ele>113.79999999999995</ele>
<time>2023-05-17T12:00:42Z</time>
</trkpt>
<trkpt lat="49.09580499865115" lon="8.468372980132699">
<ele>113.79999999999995</ele>
<time>2023-05-17T12:00:43Z</time>
</trkpt>
<trkpt lat="49.09579292871058" lon="8.468296956270933">
<ele>113.79999999999995</ele>
<time>2023-05-17T12:00:44Z</time>
</trkpt>
<trkpt lat="49.095782954245806" lon="8.468221938237548">
<ele>113.79999999999995</ele>
<time>2023-05-17T12:00:45Z</time>
</trkpt>
<trkpt lat="49.09577297978103" lon="8.468151949346066">
<ele>113.79999999999995</ele>
<time>2023-05-17T12:00:46Z</time>
</trkpt>
<trkpt lat="49.09577197395265" lon="8.468091934919357">
<ele>113.79999999999995</ele>
<time>2023-05-17T12:00:47Z</time>
</trkpt>
<trkpt lat="49.095762921497226" lon="8.468031920492649">
<ele>113.60000000000002</ele>
<time>2023-05-17T12:00:48Z</time>
</trkpt>
<trkpt lat="49.09575495868921" lon="8.467971989884973">
<ele>113.79999999999995</ele>
<time>2023-05-17T12:00:49Z</time>
</trkpt>
<trkpt lat="49.09575495868921" lon="8.467907952144742">
<ele>113.79999999999995</ele>
<time>2023-05-17T12:00:50Z</time>
</trkpt>
<trkpt lat="49.09575294703245" lon="8.467842992395163">
<ele>113.79999999999995</ele>
<time>2023-05-17T12:00:51Z</time>
</trkpt>
<trkpt lat="49.09574992954731" lon="8.46777493134141">
<ele>113.79999999999995</ele>
<time>2023-05-17T12:00:52Z</time>
</trkpt>
<trkpt lat="49.095739955082536" lon="8.467711983248591">
<ele>113.79999999999995</ele>
<time>2023-05-17T12:00:53Z</time>
</trkpt>
<trkpt lat="49.09573199227452" lon="8.46764794550836">
<ele>113.79999999999995</ele>
<time>2023-05-17T12:00:54Z</time>
</trkpt>
<trkpt lat="49.095719922333956" lon="8.467582985758781">
<ele>113.79999999999995</ele>
<time>2023-05-17T12:00:55Z</time>
</trkpt>
<trkpt lat="49.09570793621242" lon="8.46751794219017">
<ele>113.79999999999995</ele>
<time>2023-05-17T12:00:56Z</time>
</trkpt>
<trkpt lat="49.095696955919266" lon="8.46745298244059">
<ele>113.79999999999995</ele>
<time>2023-05-17T12:00:57Z</time>
</trkpt>
<trkpt lat="49.09568496979773" lon="8.467382993549109">
<ele>113.79999999999995</ele>
<time>2023-05-17T12:00:58Z</time>
</trkpt>
<trkpt lat="49.095672983676195" lon="8.467317949980497">
<ele>113.79999999999995</ele>
<time>2023-05-17T12:00:59Z</time>
</trkpt>
<trkpt lat="49.09566191956401" lon="8.467254918068647">
<ele>113.79999999999995</ele>
<time>2023-05-17T12:01:00Z</time>
</trkpt>
<trkpt lat="49.09564792178571" lon="8.46719196997583">
<ele>113.79999999999995</ele>
<time>2023-05-17T12:01:01Z</time>
</trkpt>
<trkpt lat="49.09563694149256" lon="8.467131955549121">
<ele>113.79999999999995</ele>
<time>2023-05-17T12:01:02Z</time>
</trkpt>
<trkpt lat="49.09562193788588" lon="8.467072946950793">
<ele>113.79999999999995</ele>
<time>2023-05-17T12:01:03Z</time>
</trkpt>
<trkpt lat="49.09560198895633" lon="8.467016955837607">
<ele>113.79999999999995</ele>
<time>2023-05-17T12:01:04Z</time>
</trkpt>
<trkpt lat="49.09558296203613" lon="8.466959958896041">
<ele>113.79999999999995</ele>
<time>2023-05-17T12:01:05Z</time>
</trkpt>
<trkpt lat="49.095567958429456" lon="8.466899944469333">
<ele>113.79999999999995</ele>
<time>2023-05-17T12:01:06Z</time>
</trkpt>
<trkpt lat="49.09555295482278" lon="8.466839930042624">
<ele>113.79999999999995</ele>
<time>2023-05-17T12:01:07Z</time>
</trkpt>
<trkpt lat="49.0955379512161" lon="8.466776981949806">
<ele>113.79999999999995</ele>
<time>2023-05-17T12:01:08Z</time>
</trkpt>
<trkpt lat="49.09551791846752" lon="8.466712944209576">
<ele>113.79999999999995</ele>
<time>2023-05-17T12:01:09Z</time>
</trkpt>
<trkpt lat="49.095499981194735" lon="8.466652929782867">
<ele>113.79999999999995</ele>
<time>2023-05-17T12:01:10Z</time>
</trkpt>
<trkpt lat="49.095481960102916" lon="8.466592999175191">
<ele>113.79999999999995</ele>
<time>2023-05-17T12:01:11Z</time>
</trkpt>
<trkpt lat="49.095457987859845" lon="8.4665269497782">
<ele>113.79999999999995</ele>
<time>2023-05-17T12:01:12Z</time>
</trkpt>
<trkpt lat="49.095436949282885" lon="8.466462995857">
<ele>113.79999999999995</ele>
<time>2023-05-17T12:01:13Z</time>
</trkpt>
<trkpt lat="49.09541197121143" lon="8.466401975601912">
<ele>113.79999999999995</ele>
<time>2023-05-17T12:01:14Z</time>
</trkpt>
<trkpt lat="49.09538699313998" lon="8.466337937861681">
<ele>113.79999999999995</ele>
<time>2023-05-17T12:01:15Z</time>
</trkpt>
<trkpt lat="49.0953619312495" lon="8.466271972283721">
<ele>113.79999999999995</ele>
<time>2023-05-17T12:01:16Z</time>
</trkpt>
<trkpt lat="49.09533494152129" lon="8.46620692871511">
<ele>113.79999999999995</ele>
<time>2023-05-17T12:01:17Z</time>
</trkpt>
<trkpt lat="49.0953119751066" lon="8.466144986450672">
<ele>113.79999999999995</ele>
<time>2023-05-17T12:01:18Z</time>
</trkpt>
<trkpt lat="49.095289930701256" lon="8.466079942882061">
<ele>113.79999999999995</ele>
<time>2023-05-17T12:01:19Z</time>
</trkpt>
<trkpt lat="49.095264952629805" lon="8.46601297147572">
<ele>113.79999999999995</ele>
<time>2023-05-17T12:01:20Z</time>
</trkpt>
<trkpt lat="49.09523494541645" lon="8.465944994241">
<ele>113.79999999999995</ele>
<time>2023-05-17T12:01:21Z</time>
</trkpt>
<trkpt lat="49.095202926546335" lon="8.46588196232915">
<ele>113.79999999999995</ele>
<time>2023-05-17T12:01:22Z</time>
</trkpt>
<trkpt lat="49.09516998566687" lon="8.465824965387583">
<ele>113.79999999999995</ele>
<time>2023-05-17T12:01:23Z</time>
</trkpt>
<trkpt lat="49.095136960968375" lon="8.46577693708241">
<ele>113.79999999999995</ele>
<time>2023-05-17T12:01:24Z</time>
</trkpt>
<trkpt lat="49.09510494209826" lon="8.465739972889423">
<ele>113.79999999999995</ele>
<time>2023-05-17T12:01:25Z</time>
</trkpt>
<trkpt lat="49.09507996402681" lon="8.465704936534166">
<ele>113.79999999999995</ele>
<time>2023-05-17T12:01:26Z</time>
</trkpt>
<trkpt lat="49.09505498595536" lon="8.465674929320812">
<ele>113.79999999999995</ele>
<time>2023-05-17T12:01:27Z</time>
</trkpt>
<trkpt lat="49.09503797069192" lon="8.465649951249361">
<ele>113.79999999999995</ele>
<time>2023-05-17T12:01:28Z</time>
</trkpt>
<trkpt lat="49.09501299262047" lon="8.465626984834671">
<ele>113.79999999999995</ele>
<time>2023-05-17T12:01:29Z</time>
</trkpt>
<trkpt lat="49.09499798901379" lon="8.465601922944188">
<ele>113.79999999999995</ele>
<time>2023-05-17T12:01:30Z</time>
</trkpt>
<trkpt lat="49.09499295987189" lon="8.465576944872737">
<ele>113.79999999999995</ele>
<time>2023-05-17T12:01:31Z</time>
</trkpt>
<trkpt lat="49.09498197957873" lon="8.465552972629666">
<ele>113.79999999999995</ele>
<time>2023-05-17T12:01:32Z</time>
</trkpt>
<trkpt lat="49.09497795626521" lon="8.46553796902299">
<ele>113.79999999999995</ele>
<time>2023-05-17T12:01:33Z</time>
</trkpt>
<trkpt lat="49.09498197957873" lon="8.465526988729835">
<ele>113.79999999999995</ele>
<time>2023-05-17T12:01:34Z</time>
</trkpt>
<trkpt lat="49.094982985407114" lon="8.465509973466396">
<ele>113.79999999999995</ele>
<time>2023-05-17T12:01:35Z</time>
</trkpt>
<trkpt lat="49.094986924901605" lon="8.465504944324493">
<ele>113.60000000000002</ele>
<time>2023-05-17T12:01:36Z</time>
</trkpt>
<trkpt lat="49.094986924901605" lon="8.465502932667732">
<ele>113.60000000000002</ele>
<time>2023-05-17T12:01:37Z</time>
</trkpt>
<trkpt lat="49.094986924901605" lon="8.465499999001622">
<ele>113.60000000000002</ele>
<time>2023-05-17T12:01:38Z</time>
</trkpt>
<trkpt lat="49.09497292712331" lon="8.465427998453379">
<ele>113</ele>
<time>2023-05-17T12:01:38Z</time>
</trkpt>
<trkpt lat="49.09495691768825" lon="8.465399919077754">
<ele>112.79999999999995</ele>
<time>2023-05-17T12:01:39Z</time>
</trkpt>
<trkpt lat="49.094939986243844" lon="8.46536697819829">
<ele>112.79999999999995</ele>
<time>2023-05-17T12:01:40Z</time>
</trkpt>
<trkpt lat="49.094921965152025" lon="8.465336970984936">
<ele>112.79999999999995</ele>
<time>2023-05-17T12:01:41Z</time>
</trkpt>
<trkpt lat="49.094899920746684" lon="8.465314926579595">
<ele>112.79999999999995</ele>
<time>2023-05-17T12:01:42Z</time>
</trkpt>
<trkpt lat="49.094876954331994" lon="8.465294977650046">
<ele>112.60000000000002</ele>
<time>2023-05-17T12:01:43Z</time>
</trkpt>
<trkpt lat="49.094854993745685" lon="8.465269999578595">
<ele>112.60000000000002</ele>
<time>2023-05-17T12:01:44Z</time>
</trkpt>
<trkpt lat="49.09483294934034" lon="8.465251978486776">
<ele>112.60000000000002</ele>
<time>2023-05-17T12:01:45Z</time>
</trkpt>
<trkpt lat="49.09480495378375" lon="8.465229934081435">
<ele>112.60000000000002</ele>
<time>2023-05-17T12:01:46Z</time>
</trkpt>
<trkpt lat="49.09477796405554" lon="8.465212918817997">
<ele>112.60000000000002</ele>
<time>2023-05-17T12:01:47Z</time>
</trkpt>
<trkpt lat="49.094749968498945" lon="8.465192969888449">
<ele>112.60000000000002</ele>
<time>2023-05-17T12:01:48Z</time>
</trkpt>
<trkpt lat="49.09471694380045" lon="8.465162962675095">
<ele>112.60000000000002</ele>
<time>2023-05-17T12:01:49Z</time>
</trkpt>
<trkpt lat="49.09467696212232" lon="8.46513194963336">
<ele>112.60000000000002</ele>
<time>2023-05-17T12:01:50Z</time>
</trkpt>
<trkpt lat="49.09463496878743" lon="8.465094985440373">
<ele>112.60000000000002</ele>
<time>2023-05-17T12:01:51Z</time>
</trkpt>
<trkpt lat="49.0945899579674" lon="8.465056931599975">
<ele>112.60000000000002</ele>
<time>2023-05-17T12:01:52Z</time>
</trkpt>
<trkpt lat="49.09454997628927" lon="8.46502197906375">
<ele>112.60000000000002</ele>
<time>2023-05-17T12:01:53Z</time>
</trkpt>
<trkpt lat="49.09450496546924" lon="8.464987948536873">
<ele>112.60000000000002</ele>
<time>2023-05-17T12:01:54Z</time>
</trkpt>
<trkpt lat="49.09446196630597" lon="8.464954923838377">
<ele>112.60000000000002</ele>
<time>2023-05-17T12:01:55Z</time>
</trkpt>
<trkpt lat="49.09441494382918" lon="8.464922988787293">
<ele>112.60000000000002</ele>
<time>2023-05-17T12:01:56Z</time>
</trkpt>
<trkpt lat="49.094361970201135" lon="8.464891975745559">
<ele>112.60000000000002</ele>
<time>2023-05-17T12:01:57Z</time>
</trkpt>
<trkpt lat="49.0943119302392" lon="8.464857945218682">
<ele>112.60000000000002</ele>
<time>2023-05-17T12:01:58Z</time>
</trkpt>
<trkpt lat="49.09426297992468" lon="8.464822992682457">
<ele>112.60000000000002</ele>
<time>2023-05-17T12:01:59Z</time>
</trkpt>
<trkpt lat="49.09422299824655" lon="8.464794997125864">
<ele>112.60000000000002</ele>
<time>2023-05-17T12:02:00Z</time>
</trkpt>
<trkpt lat="49.09418192692101" lon="8.46476792357862">
<ele>112.60000000000002</ele>
<time>2023-05-17T12:02:01Z</time>
</trkpt>
<trkpt lat="49.09413297660649" lon="8.464734982699156">
<ele>112.60000000000002</ele>
<time>2023-05-17T12:02:02Z</time>
</trkpt>
<trkpt lat="49.09408997744322" lon="8.464697934687138">
<ele>112.60000000000002</ele>
<time>2023-05-17T12:02:03Z</time>
</trkpt>
<trkpt lat="49.09405192360282" lon="8.464662982150912">
<ele>112.60000000000002</ele>
<time>2023-05-17T12:02:04Z</time>
</trkpt>
<trkpt lat="49.094016971066594" lon="8.464627945795655">
<ele>112.60000000000002</ele>
<time>2023-05-17T12:02:05Z</time>
</trkpt>
<trkpt lat="49.09398495219648" lon="8.464589975774288">
<ele>112.60000000000002</ele>
<time>2023-05-17T12:02:06Z</time>
</trkpt>
<trkpt lat="49.09394295886159" lon="8.464556951075792">
<ele>112.79999999999995</ele>
<time>2023-05-17T12:02:07Z</time>
</trkpt>
<trkpt lat="49.09389995969832" lon="8.464522920548916">
<ele>112.79999999999995</ele>
<time>2023-05-17T12:02:08Z</time>
</trkpt>
<trkpt lat="49.09385494887829" lon="8.464496936649084">
<ele>112.79999999999995</ele>
<time>2023-05-17T12:02:09Z</time>
</trkpt>
<trkpt lat="49.09381697885692" lon="8.464461984112859">
<ele>112.79999999999995</ele>
<time>2023-05-17T12:02:10Z</time>
</trkpt>
<trkpt lat="49.09376995638013" lon="8.464431976899505">
<ele>112.79999999999995</ele>
<time>2023-05-17T12:02:11Z</time>
</trkpt>
<trkpt lat="49.093719916418195" lon="8.464397946372628">
<ele>112.79999999999995</ele>
<time>2023-05-17T12:02:12Z</time>
</trkpt>
<trkpt lat="49.09366996027529" lon="8.464367939159274">
<ele>112.79999999999995</ele>
<time>2023-05-17T12:02:13Z</time>
</trkpt>
<trkpt lat="49.093629978597164" lon="8.464341955259442">
<ele>112.79999999999995</ele>
<time>2023-05-17T12:02:14Z</time>
</trkpt>
<trkpt lat="49.09359494224191" lon="8.464321922510862">
<ele>112.79999999999995</ele>
<time>2023-05-17T12:02:15Z</time>
</trkpt>
<trkpt lat="49.09356292337179" lon="8.46429493278265">
<ele>112.79999999999995</ele>
<time>2023-05-17T12:02:16Z</time>
</trkpt>
<trkpt lat="49.09351992420852" lon="8.464276995509863">
<ele>112.79999999999995</ele>
<time>2023-05-17T12:02:17Z</time>
</trkpt>
<trkpt lat="49.09346996806562" lon="8.464246988296509">
<ele>112.79999999999995</ele>
<time>2023-05-17T12:02:18Z</time>
</trkpt>
<trkpt lat="49.093416994437575" lon="8.464216981083155">
<ele>112.79999999999995</ele>
<time>2023-05-17T12:02:19Z</time>
</trkpt>
<trkpt lat="49.09336695447564" lon="8.464176999405026">
<ele>112.79999999999995</ele>
<time>2023-05-17T12:02:20Z</time>
</trkpt>
<trkpt lat="49.09331297501922" lon="8.464132994413376">
<ele>112.79999999999995</ele>
<time>2023-05-17T12:02:21Z</time>
</trkpt>
<trkpt lat="49.09325798973441" lon="8.464097958058119">
<ele>112.79999999999995</ele>
<time>2023-05-17T12:02:22Z</time>
</trkpt>
<trkpt lat="49.09322798252106" lon="8.46405697055161">
<ele>112.79999999999995</ele>
<time>2023-05-17T12:02:23Z</time>
</trkpt>
<trkpt lat="49.09317693673074" lon="8.464026963338256">
<ele>112.79999999999995</ele>
<time>2023-05-17T12:02:24Z</time>
</trkpt>
<trkpt lat="49.09314198419452" lon="8.463987987488508">
<ele>112.79999999999995</ele>
<time>2023-05-17T12:02:25Z</time>
</trkpt>
<trkpt lat="49.09308993257582" lon="8.463956974446774">
<ele>112.79999999999995</ele>
<time>2023-05-17T12:02:26Z</time>
</trkpt>
<trkpt lat="49.09302296116948" lon="8.463902994990349">
<ele>112.79999999999995</ele>
<time>2023-05-17T12:02:27Z</time>
</trkpt>
<trkpt lat="49.092964958399534" lon="8.463872987776995">
<ele>112.79999999999995</ele>
<time>2023-05-17T12:02:28Z</time>
</trkpt>
<trkpt lat="49.09290997311473" lon="8.463834933936596">
<ele>112.79999999999995</ele>
<time>2023-05-17T12:02:29Z</time>
</trkpt>
<trkpt lat="49.092856999486685" lon="8.463794952258468">
<ele>112.79999999999995</ele>
<time>2023-05-17T12:02:30Z</time>
</trkpt>
<trkpt lat="49.09280695952475" lon="8.463749941438437">
<ele>112.79999999999995</ele>
<time>2023-05-17T12:02:31Z</time>
</trkpt>
<trkpt lat="49.09275499172509" lon="8.463707948103547">
<ele>112.79999999999995</ele>
<time>2023-05-17T12:02:32Z</time>
</trkpt>
<trkpt lat="49.092706963419914" lon="8.463661931455135">
<ele>112.79999999999995</ele>
<time>2023-05-17T12:02:33Z</time>
</trkpt>
<trkpt lat="49.092662958428264" lon="8.463619938120246">
<ele>112.79999999999995</ele>
<time>2023-05-17T12:02:34Z</time>
</trkpt>
<trkpt lat="49.09261694177985" lon="8.463577944785357">
<ele>112.79999999999995</ele>
<time>2023-05-17T12:02:35Z</time>
</trkpt>
<trkpt lat="49.09257494844496" lon="8.463546931743622">
<ele>112.79999999999995</ele>
<time>2023-05-17T12:02:36Z</time>
</trkpt>
<trkpt lat="49.09253295511007" lon="8.463509967550635">
<ele>112.79999999999995</ele>
<time>2023-05-17T12:02:37Z</time>
</trkpt>
<trkpt lat="49.092492973431945" lon="8.46347794868052">
<ele>112.79999999999995</ele>
<time>2023-05-17T12:02:38Z</time>
</trkpt>
<trkpt lat="49.092447962611914" lon="8.463449953123927">
<ele>112.79999999999995</ele>
<time>2023-05-17T12:02:39Z</time>
</trkpt>
<trkpt lat="49.09240295179188" lon="8.46341298893094">
<ele>112.79999999999995</ele>
<time>2023-05-17T12:02:40Z</time>
</trkpt>
<trkpt lat="49.09235693514347" lon="8.463376946747303">
<ele>112.79999999999995</ele>
<time>2023-05-17T12:02:41Z</time>
</trkpt>
<trkpt lat="49.092299938201904" lon="8.463316932320595">
<ele>113</ele>
<time>2023-05-17T12:02:42Z</time>
</trkpt>
<trkpt lat="49.092232966795564" lon="8.463264964520931">
<ele>113</ele>
<time>2023-05-17T12:02:43Z</time>
</trkpt>
<trkpt lat="49.09218292683363" lon="8.463227916508913">
<ele>113</ele>
<time>2023-05-17T12:02:44Z</time>
</trkpt>
<trkpt lat="49.09211997874081" lon="8.463189946487546">
<ele>113</ele>
<time>2023-05-17T12:02:45Z</time>
</trkpt>
<trkpt lat="49.092066921293736" lon="8.463146947324276">
<ele>113.20000000000005</ele>
<time>2023-05-17T12:02:46Z</time>
</trkpt>
<trkpt lat="49.09201294183731" lon="8.463106965646148">
<ele>113.20000000000005</ele>
<time>2023-05-17T12:02:47Z</time>
</trkpt>
<trkpt lat="49.09196298569441" lon="8.463076958432794">
<ele>113.20000000000005</ele>
<time>2023-05-17T12:02:48Z</time>
</trkpt>
<trkpt lat="49.09190791659057" lon="8.463039994239807">
<ele>113.20000000000005</ele>
<time>2023-05-17T12:02:49Z</time>
</trkpt>
<trkpt lat="49.09184295684099" lon="8.462989954277873">
<ele>113.20000000000005</ele>
<time>2023-05-17T12:02:50Z</time>
</trkpt>
<trkpt lat="49.091782942414284" lon="8.462947960942984">
<ele>113.20000000000005</ele>
<time>2023-05-17T12:02:51Z</time>
</trkpt>
<trkpt lat="49.091722927987576" lon="8.462909990921617">
<ele>113.20000000000005</ele>
<time>2023-05-17T12:02:52Z</time>
</trkpt>
<trkpt lat="49.091674983501434" lon="8.462871937081218">
<ele>113.20000000000005</ele>
<time>2023-05-17T12:02:53Z</time>
</trkpt>
<trkpt lat="49.0916299726814" lon="8.462836984544992">
<ele>113.20000000000005</ele>
<time>2023-05-17T12:02:54Z</time>
</trkpt>
<trkpt lat="49.0915749873966" lon="8.462801948189735">
<ele>113.20000000000005</ele>
<time>2023-05-17T12:02:55Z</time>
</trkpt>
<trkpt lat="49.09151799045503" lon="8.462761966511607">
<ele>113.20000000000005</ele>
<time>2023-05-17T12:02:56Z</time>
</trkpt>
<trkpt lat="49.09146996214986" lon="8.462721984833479">
<ele>113.20000000000005</ele>
<time>2023-05-17T12:02:57Z</time>
</trkpt>
<trkpt lat="49.09141497686505" lon="8.46267999149859">
<ele>113.20000000000005</ele>
<time>2023-05-17T12:02:58Z</time>
</trkpt>
<trkpt lat="49.09137197770178" lon="8.46263699233532">
<ele>113.20000000000005</ele>
<time>2023-05-17T12:02:59Z</time>
</trkpt>
<trkpt lat="49.09132294356823" lon="8.462601955980062">
<ele>113.20000000000005</ele>
<time>2023-05-17T12:03:00Z</time>
</trkpt>
<trkpt lat="49.091269969940186" lon="8.462564991787076">
<ele>113.20000000000005</ele>
<time>2023-05-17T12:03:01Z</time>
</trkpt>
<trkpt lat="49.09121699631214" lon="8.46253196708858">
<ele>113.20000000000005</ele>
<time>2023-05-17T12:03:02Z</time>
</trkpt>
<trkpt lat="49.09117198549211" lon="8.462492991238832">
<ele>113.20000000000005</ele>
<time>2023-05-17T12:03:03Z</time>
</trkpt>
<trkpt lat="49.09112798050046" lon="8.462457954883575">
<ele>113.20000000000005</ele>
<time>2023-05-17T12:03:04Z</time>
</trkpt>
<trkpt lat="49.09108498133719" lon="8.462417973205447">
<ele>113.20000000000005</ele>
<time>2023-05-17T12:03:05Z</time>
</trkpt>
<trkpt lat="49.0910429880023" lon="8.462377991527319">
<ele>113.20000000000005</ele>
<time>2023-05-17T12:03:06Z</time>
</trkpt>
<trkpt lat="49.09099697135389" lon="8.46233993768692">
<ele>113.20000000000005</ele>
<time>2023-05-17T12:03:07Z</time>
</trkpt>
<trkpt lat="49.09094198606908" lon="8.46229794435203">
<ele>113.39999999999998</ele>
<time>2023-05-17T12:03:08Z</time>
</trkpt>
<trkpt lat="49.09089697524905" lon="8.462252933532">
<ele>113.39999999999998</ele>
<time>2023-05-17T12:03:09Z</time>
</trkpt>
<trkpt lat="49.090859927237034" lon="8.462206916883588">
<ele>113.39999999999998</ele>
<time>2023-05-17T12:03:10Z</time>
</trkpt>
<trkpt lat="49.09080494195223" lon="8.46216794103384">
<ele>113.39999999999998</ele>
<time>2023-05-17T12:03:11Z</time>
</trkpt>
<trkpt lat="49.09074794501066" lon="8.46212494187057">
<ele>113.39999999999998</ele>
<time>2023-05-17T12:03:12Z</time>
</trkpt>
<trkpt lat="49.09068692475557" lon="8.4620819427073">
<ele>113.39999999999998</ele>
<time>2023-05-17T12:03:13Z</time>
</trkpt>
<trkpt lat="49.090622970834374" lon="8.462036931887269">
<ele>113.60000000000002</ele>
<time>2023-05-17T12:03:14Z</time>
</trkpt>
<trkpt lat="49.090559938922524" lon="8.461997956037521">
<ele>113.60000000000002</ele>
<time>2023-05-17T12:03:15Z</time>
</trkpt>
<trkpt lat="49.09050193615258" lon="8.461959986016154">
<ele>113.60000000000002</ele>
<time>2023-05-17T12:03:16Z</time>
</trkpt>
<trkpt lat="49.09044493921101" lon="8.461922938004136">
<ele>113.60000000000002</ele>
<time>2023-05-17T12:03:17Z</time>
</trkpt>
<trkpt lat="49.090389953926206" lon="8.46188798546791">
<ele>113.60000000000002</ele>
<time>2023-05-17T12:03:18Z</time>
</trkpt>
<trkpt lat="49.0903299394995" lon="8.46184791997075">
<ele>113.60000000000002</ele>
<time>2023-05-17T12:03:19Z</time>
</trkpt>
<trkpt lat="49.090281995013356" lon="8.461812967434525">
<ele>113.60000000000002</ele>
<time>2023-05-17T12:03:20Z</time>
</trkpt>
<trkpt lat="49.09022692590952" lon="8.461777931079268">
<ele>113.39999999999998</ele>
<time>2023-05-17T12:03:21Z</time>
</trkpt>
<trkpt lat="49.09017696976662" lon="8.46173794940114">
<ele>113.39999999999998</ele>
<time>2023-05-17T12:03:22Z</time>
</trkpt>
<trkpt lat="49.090131958946586" lon="8.461699979379773">
<ele>113.39999999999998</ele>
<time>2023-05-17T12:03:23Z</time>
</trkpt>
<trkpt lat="49.09008292481303" lon="8.461657986044884">
<ele>113.39999999999998</ele>
<time>2023-05-17T12:03:24Z</time>
</trkpt>
<trkpt lat="49.09002995118499" lon="8.461614986881614">
<ele>113.39999999999998</ele>
<time>2023-05-17T12:03:25Z</time>
</trkpt>
<trkpt lat="49.090002961456776" lon="8.461562935262918">
<ele>113.39999999999998</ele>
<time>2023-05-17T12:03:26Z</time>
</trkpt>
<trkpt lat="49.08995199948549" lon="8.461512979120016">
<ele>113.39999999999998</ele>
<time>2023-05-17T12:03:27Z</time>
</trkpt>
<trkpt lat="49.089896930381656" lon="8.461476936936378">
<ele>113.39999999999998</ele>
<time>2023-05-17T12:03:28Z</time>
</trkpt>
<trkpt lat="49.08983699977398" lon="8.461442990228534">
<ele>113.39999999999998</ele>
<time>2023-05-17T12:03:29Z</time>
</trkpt>
<trkpt lat="49.08977698534727" lon="8.461404936388135">
<ele>113.39999999999998</ele>
<time>2023-05-17T12:03:30Z</time>
</trkpt>
<trkpt lat="49.08971194177866" lon="8.461364954710007">
<ele>113.39999999999998</ele>
<time>2023-05-17T12:03:31Z</time>
</trkpt>
<trkpt lat="49.08965293318033" lon="8.46132698468864">
<ele>113.39999999999998</ele>
<time>2023-05-17T12:03:32Z</time>
</trkpt>
<trkpt lat="49.08959995955229" lon="8.461301922798157">
<ele>113.39999999999998</ele>
<time>2023-05-17T12:03:33Z</time>
</trkpt>
<trkpt lat="49.08953499980271" lon="8.461266970261931">
<ele>113.39999999999998</ele>
<time>2023-05-17T12:03:34Z</time>
</trkpt>
<trkpt lat="49.08947791904211" lon="8.4612219594419">
<ele>113.39999999999998</ele>
<time>2023-05-17T12:03:35Z</time>
</trkpt>
<trkpt lat="49.08943299204111" lon="8.46117996610701">
<ele>113.39999999999998</ele>
<time>2023-05-17T12:03:36Z</time>
</trkpt>
<trkpt lat="49.08938496373594" lon="8.461131937801838">
<ele>113.39999999999998</ele>
<time>2023-05-17T12:03:37Z</time>
</trkpt>
<trkpt lat="49.08932997845113" lon="8.46109296195209">
<ele>113.39999999999998</ele>
<time>2023-05-17T12:03:38Z</time>
</trkpt>
<trkpt lat="49.089271975681186" lon="8.461056919768453">
<ele>113.39999999999998</ele>
<time>2023-05-17T12:03:39Z</time>
</trkpt>
<trkpt lat="49.08922193571925" lon="8.461016938090324">
<ele>113.39999999999998</ele>
<time>2023-05-17T12:03:40Z</time>
</trkpt>
<trkpt lat="49.08917692489922" lon="8.460972933098674">
<ele>113.39999999999998</ele>
<time>2023-05-17T12:03:41Z</time>
</trkpt>
<trkpt lat="49.08912495709956" lon="8.460934963077307">
<ele>113.39999999999998</ele>
<time>2023-05-17T12:03:42Z</time>
</trkpt>
<trkpt lat="49.089076928794384" lon="8.460887940600514">
<ele>113.39999999999998</ele>
<time>2023-05-17T12:03:43Z</time>
</trkpt>
<trkpt lat="49.08902294933796" lon="8.460841923952103">
<ele>113.39999999999998</ele>
<time>2023-05-17T12:03:44Z</time>
</trkpt>
<trkpt lat="49.088971987366676" lon="8.460806971415877">
<ele>113.39999999999998</ele>
<time>2023-05-17T12:03:45Z</time>
</trkpt>
<trkpt lat="49.088926976546645" lon="8.460776964202523">
<ele>113.39999999999998</ele>
<time>2023-05-17T12:03:46Z</time>
</trkpt>
<trkpt lat="49.08887492492795" lon="8.460742933675647">
<ele>113.39999999999998</ele>
<time>2023-05-17T12:03:47Z</time>
</trkpt>
<trkpt lat="49.088821951299906" lon="8.46070697531104">
<ele>113.39999999999998</ele>
<time>2023-05-17T12:03:48Z</time>
</trkpt>
<trkpt lat="49.088777946308255" lon="8.460674956440926">
<ele>113.39999999999998</ele>
<time>2023-05-17T12:03:49Z</time>
</trkpt>
<trkpt lat="49.08873796463013" lon="8.460637992247939">
<ele>113.39999999999998</ele>
<time>2023-05-17T12:03:50Z</time>
</trkpt>
<trkpt lat="49.08868792466819" lon="8.46059499308467">
<ele>113.39999999999998</ele>
<time>2023-05-17T12:03:51Z</time>
</trkpt>
<trkpt lat="49.08863495104015" lon="8.4605519939214">
<ele>113.39999999999998</ele>
<time>2023-05-17T12:03:52Z</time>
</trkpt>
<trkpt lat="49.0885769482702" lon="8.46051192842424">
<ele>113.39999999999998</ele>
<time>2023-05-17T12:03:53Z</time>
</trkpt>
<trkpt lat="49.08852799795568" lon="8.460484938696027">
<ele>113.39999999999998</ele>
<time>2023-05-17T12:03:54Z</time>
</trkpt>
<trkpt lat="49.08848499879241" lon="8.460457948967814">
<ele>113.39999999999998</ele>
<time>2023-05-17T12:03:55Z</time>
</trkpt>
<trkpt lat="49.088434958830476" lon="8.460429953411222">
<ele>113.39999999999998</ele>
<time>2023-05-17T12:03:56Z</time>
</trkpt>
<trkpt lat="49.08838299103081" lon="8.460394917055964">
<ele>113.60000000000002</ele>
<time>2023-05-17T12:03:57Z</time>
</trkpt>
<trkpt lat="49.08833999186754" lon="8.460367927327752">
<ele>113.60000000000002</ele>
<time>2023-05-17T12:03:58Z</time>
</trkpt>
<trkpt lat="49.08828995190561" lon="8.460329957306385">
<ele>113.60000000000002</ele>
<time>2023-05-17T12:03:59Z</time>
</trkpt>
<trkpt lat="49.088242929428816" lon="8.460282934829593">
<ele>113.60000000000002</ele>
<time>2023-05-17T12:04:00Z</time>
</trkpt>
<trkpt lat="49.08818995580077" lon="8.46023297868669">
<ele>113.60000000000002</ele>
<time>2023-05-17T12:04:01Z</time>
</trkpt>
<trkpt lat="49.088134970515966" lon="8.46018997952342">
<ele>113.60000000000002</ele>
<time>2023-05-17T12:04:02Z</time>
</trkpt>
<trkpt lat="49.08807998523116" lon="8.46014698036015">
<ele>113.60000000000002</ele>
<time>2023-05-17T12:04:03Z</time>
</trkpt>
<trkpt lat="49.088022988289595" lon="8.4601029753685">
<ele>113.60000000000002</ele>
<time>2023-05-17T12:04:04Z</time>
</trkpt>
<trkpt lat="49.08796498551965" lon="8.460061987861991">
<ele>113.79999999999995</ele>
<time>2023-05-17T12:04:05Z</time>
</trkpt>
<trkpt lat="49.08790295943618" lon="8.460026951506734">
<ele>113.79999999999995</ele>
<time>2023-05-17T12:04:06Z</time>
</trkpt>
<trkpt lat="49.08783992752433" lon="8.459982946515083">
<ele>113.79999999999995</ele>
<time>2023-05-17T12:04:07Z</time>
</trkpt>
<trkpt lat="49.08778192475438" lon="8.459932990372181">
<ele>113.79999999999995</ele>
<time>2023-05-17T12:04:08Z</time>
</trkpt>
<trkpt lat="49.087722999975085" lon="8.459879932925105">
<ele>113.79999999999995</ele>
<time>2023-05-17T12:04:09Z</time>
</trkpt>
<trkpt lat="49.08766298554838" lon="8.459841962903738">
<ele>113.79999999999995</ele>
<time>2023-05-17T12:04:10Z</time>
</trkpt>
<trkpt lat="49.08760699443519" lon="8.45980198122561">
<ele>113.79999999999995</ele>
<time>2023-05-17T12:04:11Z</time>
</trkpt>
<trkpt lat="49.08754798583686" lon="8.459766944870353">
<ele>113.79999999999995</ele>
<time>2023-05-17T12:04:12Z</time>
</trkpt>
<trkpt lat="49.08748998306692" lon="8.459731992334127">
<ele>113.79999999999995</ele>
<time>2023-05-17T12:04:13Z</time>
</trkpt>
<trkpt lat="49.08743692561984" lon="8.459687987342477">
<ele>113.79999999999995</ele>
<time>2023-05-17T12:04:14Z</time>
</trkpt>
<trkpt lat="49.087382946163416" lon="8.459642976522446">
<ele>113.60000000000002</ele>
<time>2023-05-17T12:04:15Z</time>
</trkpt>
<trkpt lat="49.08732997253537" lon="8.459596959874034">
<ele>113.60000000000002</ele>
<time>2023-05-17T12:04:16Z</time>
</trkpt>
<trkpt lat="49.08728999085724" lon="8.459552954882383">
<ele>113.60000000000002</ele>
<time>2023-05-17T12:04:17Z</time>
</trkpt>
<trkpt lat="49.08724196255207" lon="8.459514984861016">
<ele>113.60000000000002</ele>
<time>2023-05-17T12:04:18Z</time>
</trkpt>
<trkpt lat="49.087186977267265" lon="8.459477936848998">
<ele>113.60000000000002</ele>
<time>2023-05-17T12:04:19Z</time>
</trkpt>
<trkpt lat="49.0871299803257" lon="8.459444995969534">
<ele>113.39999999999998</ele>
<time>2023-05-17T12:04:20Z</time>
</trkpt>
<trkpt lat="49.087077928707004" lon="8.459402918815613">
<ele>113.39999999999998</ele>
<time>2023-05-17T12:04:21Z</time>
</trkpt>
<trkpt lat="49.0870229434222" lon="8.459367966279387">
<ele>113.39999999999998</ele>
<time>2023-05-17T12:04:22Z</time>
</trkpt>
<trkpt lat="49.08698296174407" lon="8.45932798460126">
<ele>113.39999999999998</ele>
<time>2023-05-17T12:04:23Z</time>
</trkpt>
<trkpt lat="49.08694298006594" lon="8.459282973781228">
<ele>113.39999999999998</ele>
<time>2023-05-17T12:04:24Z</time>
</trkpt>
<trkpt lat="49.086889922618866" lon="8.459249949082732">
<ele>113.39999999999998</ele>
<time>2023-05-17T12:04:25Z</time>
</trkpt>
<trkpt lat="49.08683191984892" lon="8.459219941869378">
<ele>113.39999999999998</ele>
<time>2023-05-17T12:04:26Z</time>
</trkpt>
<trkpt lat="49.0867829695344" lon="8.459182977676392">
<ele>113.39999999999998</ele>
<time>2023-05-17T12:04:27Z</time>
</trkpt>
<trkpt lat="49.08673192374408" lon="8.459139978513122">
<ele>113.39999999999998</ele>
<time>2023-05-17T12:04:28Z</time>
</trkpt>
<trkpt lat="49.08667995594442" lon="8.459101924672723">
<ele>113.39999999999998</ele>
<time>2023-05-17T12:04:29Z</time>
</trkpt>
<trkpt lat="49.086626982316375" lon="8.459056997671723">
<ele>113.39999999999998</ele>
<time>2023-05-17T12:04:30Z</time>
</trkpt>
<trkpt lat="49.08657493069768" lon="8.459016932174563">
<ele>113.39999999999998</ele>
<time>2023-05-17T12:04:31Z</time>
</trkpt>
<trkpt lat="49.08652497455478" lon="8.458977956324816">
<ele>113.39999999999998</ele>
<time>2023-05-17T12:04:32Z</time>
</trkpt>
<trkpt lat="49.086479963734746" lon="8.458942919969559">
<ele>113.39999999999998</ele>
<time>2023-05-17T12:04:33Z</time>
</trkpt>
<trkpt lat="49.08643998205662" lon="8.458909979090095">
<ele>113.39999999999998</ele>
<time>2023-05-17T12:04:34Z</time>
</trkpt>
<trkpt lat="49.08639798872173" lon="8.458872931078076">
<ele>113.39999999999998</ele>
<time>2023-05-17T12:04:35Z</time>
</trkpt>
<trkpt lat="49.086366975679994" lon="8.45883496105671">
<ele>113.39999999999998</ele>
<time>2023-05-17T12:04:36Z</time>
</trkpt>
<trkpt lat="49.08632297068834" lon="8.458807971328497">
<ele>113.39999999999998</ele>
<time>2023-05-17T12:04:37Z</time>
</trkpt>
<trkpt lat="49.086284916847944" lon="8.458776958286762">
<ele>113.39999999999998</ele>
<time>2023-05-17T12:04:38Z</time>
</trkpt>
<trkpt lat="49.086242923513055" lon="8.458747956901789">
<ele>113.39999999999998</ele>
<time>2023-05-17T12:04:39Z</time>
</trkpt>
<trkpt lat="49.08620797097683" lon="8.458714932203293">
<ele>113.39999999999998</ele>
<time>2023-05-17T12:04:40Z</time>
</trkpt>
<trkpt lat="49.08617192879319" lon="8.458684924989939">
<ele>113.39999999999998</ele>
<time>2023-05-17T12:04:41Z</time>
</trkpt>
<trkpt lat="49.086132952943444" lon="8.458647960796952">
<ele>113.39999999999998</ele>
<time>2023-05-17T12:04:42Z</time>
</trkpt>
<trkpt lat="49.08607696183026" lon="8.458606973290443">
<ele>113.39999999999998</ele>
<time>2023-05-17T12:04:43Z</time>
</trkpt>
<trkpt lat="49.08602197654545" lon="8.458566991612315">
<ele>113.39999999999998</ele>
<time>2023-05-17T12:04:44Z</time>
</trkpt>
<trkpt lat="49.085962967947125" lon="8.458529943600297">
<ele>113.39999999999998</ele>
<time>2023-05-17T12:04:45Z</time>
</trkpt>
<trkpt lat="49.08590697683394" lon="8.458494991064072">
<ele>113.60000000000002</ele>
<time>2023-05-17T12:04:46Z</time>
</trkpt>
<trkpt lat="49.08584796823561" lon="8.458456937223673">
<ele>113.60000000000002</ele>
<time>2023-05-17T12:04:47Z</time>
</trkpt>
<trkpt lat="49.08579298295081" lon="8.458424918353558">
<ele>113.60000000000002</ele>
<time>2023-05-17T12:04:48Z</time>
</trkpt>
<trkpt lat="49.08574193716049" lon="8.45838694833219">
<ele>113.60000000000002</ele>
<time>2023-05-17T12:04:49Z</time>
</trkpt>
<trkpt lat="49.08568695187569" lon="8.45834193751216">
<ele>113.60000000000002</ele>
<time>2023-05-17T12:04:50Z</time>
</trkpt>
<trkpt lat="49.08563498407602" lon="8.458304973319173">
<ele>113.60000000000002</ele>
<time>2023-05-17T12:04:51Z</time>
</trkpt>
<trkpt lat="49.08558695577085" lon="8.458264991641045">
<ele>113.60000000000002</ele>
<time>2023-05-17T12:04:52Z</time>
</trkpt>
<trkpt lat="49.08553498797119" lon="8.45823297277093">
<ele>113.60000000000002</ele>
<time>2023-05-17T12:04:53Z</time>
</trkpt>
<trkpt lat="49.08548494800925" lon="8.458201959729195">
<ele>113.60000000000002</ele>
<time>2023-05-17T12:04:54Z</time>
</trkpt>
<trkpt lat="49.08543298020959" lon="8.458162983879447">
<ele>113.60000000000002</ele>
<time>2023-05-17T12:04:55Z</time>
</trkpt>
<trkpt lat="49.085384951904416" lon="8.458112943917513">
<ele>113.60000000000002</ele>
<time>2023-05-17T12:04:56Z</time>
</trkpt>
<trkpt lat="49.085341952741146" lon="8.458077991381288">
<ele>113.60000000000002</ele>
<time>2023-05-17T12:04:57Z</time>
</trkpt>
<trkpt lat="49.08530197106302" lon="8.458039937540889">
<ele>113.60000000000002</ele>
<time>2023-05-17T12:04:58Z</time>
</trkpt>
<trkpt lat="49.08525997772813" lon="8.458007918670774">
<ele>113.60000000000002</ele>
<time>2023-05-17T12:04:59Z</time>
</trkpt>
<trkpt lat="49.08522292971611" lon="8.45797992311418">
<ele>113.60000000000002</ele>
<time>2023-05-17T12:05:00Z</time>
</trkpt>
<trkpt lat="49.08518294803798" lon="8.457942958921194">
<ele>113.60000000000002</ele>
<time>2023-05-17T12:05:01Z</time>
</trkpt>
<trkpt lat="49.085144978016615" lon="8.45791194587946">
<ele>113.60000000000002</ele>
<time>2023-05-17T12:05:02Z</time>
</trkpt>
<trkpt lat="49.085102984681726" lon="8.45788998529315">
<ele>113.60000000000002</ele>
<time>2023-05-17T12:05:03Z</time>
</trkpt>
<trkpt lat="49.08505294471979" lon="8.457866935059428">
<ele>113.60000000000002</ele>
<time>2023-05-17T12:05:04Z</time>
</trkpt>
<trkpt lat="49.08501296304166" lon="8.457837933674455">
<ele>113.60000000000002</ele>
<time>2023-05-17T12:05:05Z</time>
</trkpt>
<trkpt lat="49.084971975535154" lon="8.45780499279499">
<ele>113.60000000000002</ele>
<time>2023-05-17T12:05:06Z</time>
</trkpt>
<trkpt lat="49.08493299968541" lon="8.457776997238398">
<ele>113.79999999999995</ele>
<time>2023-05-17T12:05:07Z</time>
</trkpt>
<trkpt lat="49.084891928359866" lon="8.457744978368282">
<ele>113.79999999999995</ele>
<time>2023-05-17T12:05:08Z</time>
</trkpt>
<trkpt lat="49.084847923368216" lon="8.45771798864007">
<ele>113.79999999999995</ele>
<time>2023-05-17T12:05:09Z</time>
</trkpt>
<trkpt lat="49.08480693586171" lon="8.457681946456432">
<ele>113.79999999999995</ele>
<time>2023-05-17T12:05:10Z</time>
</trkpt>
<trkpt lat="49.08476695418358" lon="8.457646993920207">
<ele>113.79999999999995</ele>
<time>2023-05-17T12:05:11Z</time>
</trkpt>
<trkpt lat="49.084719931706786" lon="8.45761296339333">
<ele>113.79999999999995</ele>
<time>2023-05-17T12:05:12Z</time>
</trkpt>
<trkpt lat="49.08467995002866" lon="8.457576921209693">
<ele>113.79999999999995</ele>
<time>2023-05-17T12:05:13Z</time>
</trkpt>
<trkpt lat="49.08464298583567" lon="8.457542974501848">
<ele>113.79999999999995</ele>
<time>2023-05-17T12:05:14Z</time>
</trkpt>
<trkpt lat="49.08460199832916" lon="8.457519924268126">
<ele>114</ele>
<time>2023-05-17T12:05:15Z</time>
</trkpt>
<trkpt lat="49.08455799333751" lon="8.457487989217043">
<ele>114</ele>
<time>2023-05-17T12:05:16Z</time>
</trkpt>
<trkpt lat="49.0845069475472" lon="8.457447923719883">
<ele>114</ele>
<time>2023-05-17T12:05:17Z</time>
</trkpt>
<trkpt lat="49.084457997232676" lon="8.457411965355277">
<ele>114</ele>
<time>2023-05-17T12:05:18Z</time>
</trkpt>
<trkpt lat="49.08440795727074" lon="8.45737298950553">
<ele>114</ele>
<time>2023-05-17T12:05:19Z</time>
</trkpt>
<trkpt lat="49.08436194062233" lon="8.457327978685498">
<ele>114</ele>
<time>2023-05-17T12:05:20Z</time>
</trkpt>
<trkpt lat="49.08432497642934" lon="8.45728799700737">
<ele>114</ele>
<time>2023-05-17T12:05:21Z</time>
</trkpt>
<trkpt lat="49.084287928417325" lon="8.457257989794016">
<ele>114</ele>
<time>2023-05-17T12:05:22Z</time>
</trkpt>
<trkpt lat="49.084244929254055" lon="8.457227982580662">
<ele>114</ele>
<time>2023-05-17T12:05:23Z</time>
</trkpt>
<trkpt lat="49.08420494757593" lon="8.457196969538927">
<ele>114</ele>
<time>2023-05-17T12:05:24Z</time>
</trkpt>
<trkpt lat="49.08417292870581" lon="8.457169979810715">
<ele>114</ele>
<time>2023-05-17T12:05:25Z</time>
</trkpt>
<trkpt lat="49.08414199948311" lon="8.457142990082502">
<ele>114</ele>
<time>2023-05-17T12:05:26Z</time>
</trkpt>
<trkpt lat="49.08410998061299" lon="8.457124968990684">
<ele>114</ele>
<time>2023-05-17T12:05:27Z</time>
</trkpt>
<trkpt lat="49.0840769559145" lon="8.457091944292188">
<ele>114</ele>
<time>2023-05-17T12:05:28Z</time>
</trkpt>
<trkpt lat="49.084047954529524" lon="8.457066966220737">
<ele>114</ele>
<time>2023-05-17T12:05:29Z</time>
</trkpt>
<trkpt lat="49.084027921780944" lon="8.45705296844244">
<ele>114</ele>
<time>2023-05-17T12:05:30Z</time>
</trkpt>
<trkpt lat="49.08400294370949" lon="8.45703293569386">
<ele>114</ele>
<time>2023-05-17T12:05:31Z</time>
</trkpt>
<trkpt lat="49.0839799772948" lon="8.457012986764312">
<ele>114</ele>
<time>2023-05-17T12:05:32Z</time>
</trkpt>
<trkpt lat="49.083961956202984" lon="8.456999994814396">
<ele>114</ele>
<time>2023-05-17T12:05:33Z</time>
</trkpt>
<trkpt lat="49.083944940939546" lon="8.456987924873829">
<ele>114</ele>
<time>2023-05-17T12:05:34Z</time>
</trkpt>
<trkpt lat="49.08393295481801" lon="8.456974932923913">
<ele>114</ele>
<time>2023-05-17T12:05:35Z</time>
</trkpt>
<trkpt lat="49.08392499201" lon="8.456961940973997">
<ele>114</ele>
<time>2023-05-17T12:05:36Z</time>
</trkpt>
<trkpt lat="49.08390797674656" lon="8.456949954852462">
<ele>114</ele>
<time>2023-05-17T12:05:37Z</time>
</trkpt>
<trkpt lat="49.08389297313988" lon="8.456937968730927">
<ele>114</ele>
<time>2023-05-17T12:05:38Z</time>
</trkpt>
<trkpt lat="49.08388199284673" lon="8.456921959295869">
<ele>114</ele>
<time>2023-05-17T12:05:39Z</time>
</trkpt>
<trkpt lat="49.08386992290616" lon="8.45690494403243">
<ele>114.20000000000005</ele>
<time>2023-05-17T12:05:40Z</time>
</trkpt>
<trkpt lat="49.083852991461754" lon="8.456892957910895">
<ele>114.20000000000005</ele>
<time>2023-05-17T12:05:41Z</time>
</trkpt>
<trkpt lat="49.083836982026696" lon="8.456882983446121">
<ele>114.20000000000005</ele>
<time>2023-05-17T12:05:42Z</time>
</trkpt>
<trkpt lat="49.083816949278116" lon="8.456869991496205">
<ele>114.20000000000005</ele>
<time>2023-05-17T12:05:43Z</time>
</trkpt>
<trkpt lat="49.08380194567144" lon="8.4568599332124">
<ele>114.20000000000005</ele>
<time>2023-05-17T12:05:44Z</time>
</trkpt>
<trkpt lat="49.08378199674189" lon="8.456849958747625">
<ele>114.20000000000005</ele>
<time>2023-05-17T12:05:45Z</time>
</trkpt>
<trkpt lat="49.08376296982169" lon="8.45683797262609">
<ele>114.39999999999998</ele>
<time>2023-05-17T12:05:46Z</time>
</trkpt>
<trkpt lat="49.08375693485141" lon="8.456827998161316">
<ele>114.39999999999998</ele>
<time>2023-05-17T12:05:47Z</time>
</trkpt>
<trkpt lat="49.08375693485141" lon="8.456826992332935">
<ele>114.39999999999998</ele>
<time>2023-05-17T12:05:48Z</time>
</trkpt>
<trkpt lat="49.08375995233655" lon="8.456819951534271">
<ele>114.39999999999998</ele>
<time>2023-05-17T12:05:49Z</time>
</trkpt>
<trkpt lat="49.083766993135214" lon="8.456811988726258">
<ele>114.39999999999998</ele>
<time>2023-05-17T12:05:50Z</time>
</trkpt>
<trkpt lat="49.08377797342837" lon="8.456797990947962">
<ele>114.39999999999998</ele>
<time>2023-05-17T12:05:51Z</time>
</trkpt>
<trkpt lat="49.083791971206665" lon="8.456782987341285">
<ele>114.39999999999998</ele>
<time>2023-05-17T12:05:52Z</time>
</trkpt>
<trkpt lat="49.083814937621355" lon="8.456759937107563">
<ele>114.39999999999998</ele>
<time>2023-05-17T12:05:53Z</time>
</trkpt>
<trkpt lat="49.08383798785508" lon="8.456716937944293">
<ele>114.39999999999998</ele>
<time>2023-05-17T12:05:54Z</time>
</trkpt>
<trkpt lat="49.08386698924005" lon="8.456674944609404">
<ele>114.39999999999998</ele>
<time>2023-05-17T12:05:55Z</time>
</trkpt>
<trkpt lat="49.08388995565474" lon="8.45662691630423">
<ele>114.39999999999998</ele>
<time>2023-05-17T12:05:56Z</time>
</trkpt>
<trkpt lat="49.08391694538295" lon="8.456569919362664">
<ele>114.39999999999998</ele>
<time>2023-05-17T12:05:57Z</time>
</trkpt>
<trkpt lat="49.08394695259631" lon="8.456517951563">
<ele>114.39999999999998</ele>
<time>2023-05-17T12:05:58Z</time>
</trkpt>
<trkpt lat="49.0839799772948" lon="8.45645491965115">
<ele>114.39999999999998</ele>
<time>2023-05-17T12:05:59Z</time>
</trkpt>
<trkpt lat="49.08401291817427" lon="8.456396916881204">
<ele>114.39999999999998</ele>
<time>2023-05-17T12:06:00Z</time>
</trkpt>
<trkpt lat="49.084047954529524" lon="8.45632491633296">
<ele>114.39999999999998</ele>
<time>2023-05-17T12:06:01Z</time>
</trkpt>
<trkpt lat="49.0840819850564" lon="8.456254927441478">
<ele>114.39999999999998</ele>
<time>2023-05-17T12:06:02Z</time>
</trkpt>
<trkpt lat="49.084112998098135" lon="8.456187956035137">
<ele>114.39999999999998</ele>
<time>2023-05-17T12:06:03Z</time>
</trkpt>
<trkpt lat="49.08414694480598" lon="8.456122996285558">
<ele>114.39999999999998</ele>
<time>2023-05-17T12:06:04Z</time>
</trkpt>
<trkpt lat="49.084177957847714" lon="8.456054935231805">
<ele>114.39999999999998</ele>
<time>2023-05-17T12:06:05Z</time>
</trkpt>
<trkpt lat="49.08420796506107" lon="8.455991987138987">
<ele>114.39999999999998</ele>
<time>2023-05-17T12:06:06Z</time>
</trkpt>
<trkpt lat="49.084239983931184" lon="8.455922920256853">
<ele>114.39999999999998</ele>
<time>2023-05-17T12:06:07Z</time>
</trkpt>
<trkpt lat="49.08427191898227" lon="8.455854943022132">
<ele>114.39999999999998</ele>
<time>2023-05-17T12:06:08Z</time>
</trkpt>
<trkpt lat="49.084302932024" lon="8.45578495413065">
<ele>114.39999999999998</ele>
<time>2023-05-17T12:06:09Z</time>
</trkpt>
<trkpt lat="49.08433495089412" lon="8.455714965239167">
<ele>114.39999999999998</ele>
<time>2023-05-17T12:06:10Z</time>
</trkpt>
<trkpt lat="49.08436797559261" lon="8.455646988004446">
<ele>114.39999999999998</ele>
<time>2023-05-17T12:06:11Z</time>
</trkpt>
<trkpt lat="49.08439798280597" lon="8.455586973577738">
<ele>114.39999999999998</ele>
<time>2023-05-17T12:06:12Z</time>
</trkpt>
<trkpt lat="49.08443192951381" lon="8.455516984686255">
<ele>114.39999999999998</ele>
<time>2023-05-17T12:06:13Z</time>
</trkpt>
<trkpt lat="49.08446495421231" lon="8.455446995794773">
<ele>114.39999999999998</ele>
<time>2023-05-17T12:06:14Z</time>
</trkpt>
<trkpt lat="49.084497978910804" lon="8.4553799405694">
<ele>114.39999999999998</ele>
<time>2023-05-17T12:06:15Z</time>
</trkpt>
<trkpt lat="49.08452999778092" lon="8.455306934192777">
<ele>114.39999999999998</ele>
<time>2023-05-17T12:06:16Z</time>
</trkpt>
<trkpt lat="49.08455799333751" lon="8.455236945301294">
<ele>114.39999999999998</ele>
<time>2023-05-17T12:06:17Z</time>
</trkpt>
<trkpt lat="49.084586994722486" lon="8.45516494475305">
<ele>114.39999999999998</ele>
<time>2023-05-17T12:06:18Z</time>
</trkpt>
<trkpt lat="49.08461792394519" lon="8.45509797334671">
<ele>114.39999999999998</ele>
<time>2023-05-17T12:06:19Z</time>
</trkpt>
<trkpt lat="49.084649942815304" lon="8.455029996111989">
<ele>114.39999999999998</ele>
<time>2023-05-17T12:06:20Z</time>
</trkpt>
<trkpt lat="49.08467995002866" lon="8.454952966421843">
<ele>114.39999999999998</ele>
<time>2023-05-17T12:06:21Z</time>
</trkpt>
<trkpt lat="49.08470794558525" lon="8.454866968095303">
<ele>114.39999999999998</ele>
<time>2023-05-17T12:06:22Z</time>
</trkpt>
<trkpt lat="49.084736946970224" lon="8.454792955890298">
<ele>114.39999999999998</ele>
<time>2023-05-17T12:06:23Z</time>
</trkpt>
<trkpt lat="49.08476997166872" lon="8.454716932028532">
<ele>114.39999999999998</ele>
<time>2023-05-17T12:06:24Z</time>
</trkpt>
<trkpt lat="49.084801990538836" lon="8.454641997814178">
<ele>114.39999999999998</ele>
<time>2023-05-17T12:06:25Z</time>
</trkpt>
<trkpt lat="49.08483291976154" lon="8.454567985609174">
<ele>114.20000000000005</ele>
<time>2023-05-17T12:06:26Z</time>
</trkpt>
<trkpt lat="49.08486292697489" lon="8.45449497923255">
<ele>114.20000000000005</ele>
<time>2023-05-17T12:06:27Z</time>
</trkpt>
<trkpt lat="49.084891928359866" lon="8.454424990341067">
<ele>114.20000000000005</ele>
<time>2023-05-17T12:06:28Z</time>
</trkpt>
<trkpt lat="49.08491992391646" lon="8.454356929287314">
<ele>114.20000000000005</ele>
<time>2023-05-17T12:06:29Z</time>
</trkpt>
<trkpt lat="49.084951942786574" lon="8.45428291708231">
<ele>114.20000000000005</ele>
<time>2023-05-17T12:06:30Z</time>
</trkpt>
<trkpt lat="49.08498295582831" lon="8.454214939847589">
<ele>114.20000000000005</ele>
<time>2023-05-17T12:06:31Z</time>
</trkpt>
<trkpt lat="49.085014974698424" lon="8.454137993976474">
<ele>114</ele>
<time>2023-05-17T12:06:32Z</time>
</trkpt>
<trkpt lat="49.08504498191178" lon="8.45406699925661">
<ele>114</ele>
<time>2023-05-17T12:06:33Z</time>
</trkpt>
<trkpt lat="49.08507297746837" lon="8.453994998708367">
<ele>114</ele>
<time>2023-05-17T12:06:34Z</time>
</trkpt>
<trkpt lat="49.085101978853345" lon="8.453921992331743">
<ele>114</ele>
<time>2023-05-17T12:06:35Z</time>
</trkpt>
<trkpt lat="49.08513491973281" lon="8.453842950984836">
<ele>114</ele>
<time>2023-05-17T12:06:36Z</time>
</trkpt>
<trkpt lat="49.085162999108434" lon="8.453776985406876">
<ele>114</ele>
<time>2023-05-17T12:06:37Z</time>
</trkpt>
<trkpt lat="49.085191916674376" lon="8.453709930181503">
<ele>114</ele>
<time>2023-05-17T12:06:38Z</time>
</trkpt>
<trkpt lat="49.08521798439324" lon="8.453644970431924">
<ele>114</ele>
<time>2023-05-17T12:06:39Z</time>
</trkpt>
<trkpt lat="49.08524698577821" lon="8.453577999025583">
<ele>114</ele>
<time>2023-05-17T12:06:40Z</time>
</trkpt>
<trkpt lat="49.085272969678044" lon="8.453512955456972">
<ele>114</ele>
<time>2023-05-17T12:06:41Z</time>
</trkpt>
<trkpt lat="49.0853029768914" lon="8.453449923545122">
<ele>114</ele>
<time>2023-05-17T12:06:42Z</time>
</trkpt>
<trkpt lat="49.08533197827637" lon="8.453384963795543">
<ele>114</ele>
<time>2023-05-17T12:06:43Z</time>
</trkpt>
<trkpt lat="49.085359973832965" lon="8.453321931883693">
<ele>114</ele>
<time>2023-05-17T12:06:44Z</time>
</trkpt>
<trkpt lat="49.08538696356118" lon="8.453256972134113">
<ele>114</ele>
<time>2023-05-17T12:06:45Z</time>
</trkpt>
<trkpt lat="49.08541697077453" lon="8.453192934393883">
<ele>114</ele>
<time>2023-05-17T12:06:46Z</time>
</trkpt>
<trkpt lat="49.085444966331124" lon="8.453131997957826">
<ele>114</ele>
<time>2023-05-17T12:06:47Z</time>
</trkpt>
<trkpt lat="49.08547698520124" lon="8.453066954389215">
<ele>114</ele>
<time>2023-05-17T12:06:48Z</time>
</trkpt>
<trkpt lat="49.08550498075783" lon="8.453002916648984">
<ele>114</ele>
<time>2023-05-17T12:06:49Z</time>
</trkpt>
<trkpt lat="49.08553498797119" lon="8.452934939414263">
<ele>114</ele>
<time>2023-05-17T12:06:50Z</time>
</trkpt>
<trkpt lat="49.08556692302227" lon="8.452869979664683">
<ele>114</ele>
<time>2023-05-17T12:06:51Z</time>
</trkpt>
<trkpt lat="49.085597936064005" lon="8.452807953581214">
<ele>114</ele>
<time>2023-05-17T12:06:52Z</time>
</trkpt>
<trkpt lat="49.08562995493412" lon="8.452742993831635">
<ele>114</ele>
<time>2023-05-17T12:06:53Z</time>
</trkpt>
<trkpt lat="49.085659962147474" lon="8.452677950263023">
<ele>114</ele>
<time>2023-05-17T12:06:54Z</time>
</trkpt>
<trkpt lat="49.08569298684597" lon="8.45260695554316">
<ele>114</ele>
<time>2023-05-17T12:06:55Z</time>
</trkpt>
<trkpt lat="49.085722994059324" lon="8.452537972480059">
<ele>114</ele>
<time>2023-05-17T12:06:56Z</time>
</trkpt>
<trkpt lat="49.085747972130775" lon="8.45247695222497">
<ele>114</ele>
<time>2023-05-17T12:06:57Z</time>
</trkpt>
<trkpt lat="49.085769932717085" lon="8.452416937798262">
<ele>114</ele>
<time>2023-05-17T12:06:58Z</time>
</trkpt>
<trkpt lat="49.0857969224453" lon="8.45234795473516">
<ele>114</ele>
<time>2023-05-17T12:06:59Z</time>
</trkpt>
<trkpt lat="49.08581997267902" lon="8.45228299498558">
<ele>114</ele>
<time>2023-05-17T12:07:00Z</time>
</trkpt>
<trkpt lat="49.08584193326533" lon="8.452216945588589">
<ele>114</ele>
<time>2023-05-17T12:07:01Z</time>
</trkpt>
<trkpt lat="49.08586297184229" lon="8.452149974182248">
<ele>114</ele>
<time>2023-05-17T12:07:02Z</time>
</trkpt>
<trkpt lat="49.08588794991374" lon="8.452071938663721">
<ele>114</ele>
<time>2023-05-17T12:07:03Z</time>
</trkpt>
<trkpt lat="49.085916951298714" lon="8.451997926458716">
<ele>114</ele>
<time>2023-05-17T12:07:04Z</time>
</trkpt>
<trkpt lat="49.08594494685531" lon="8.451929949223995">
<ele>114</ele>
<time>2023-05-17T12:07:05Z</time>
</trkpt>
<trkpt lat="49.08597495406866" lon="8.451859960332513">
<ele>114</ele>
<time>2023-05-17T12:07:06Z</time>
</trkpt>
<trkpt lat="49.086006972938776" lon="8.45178795978427">
<ele>114</ele>
<time>2023-05-17T12:07:07Z</time>
</trkpt>
<trkpt lat="49.08603798598051" lon="8.451719982549548">
<ele>114</ele>
<time>2023-05-17T12:07:08Z</time>
</trkpt>
<trkpt lat="49.086071932688355" lon="8.451649993658066">
<ele>114</ele>
<time>2023-05-17T12:07:09Z</time>
</trkpt>
<trkpt lat="49.08610797487199" lon="8.451587967574596">
<ele>114</ele>
<time>2023-05-17T12:07:10Z</time>
</trkpt>
<trkpt lat="49.08614695072174" lon="8.45152996480465">
<ele>114</ele>
<time>2023-05-17T12:07:11Z</time>
</trkpt>
<trkpt lat="49.08618693239987" lon="8.451476991176605">
<ele>114</ele>
<time>2023-05-17T12:07:12Z</time>
</trkpt>
<trkpt lat="49.08622791990638" lon="8.451431980356574">
<ele>114</ele>
<time>2023-05-17T12:07:13Z</time>
</trkpt>
<trkpt lat="49.08626697957516" lon="8.451394932344556">
<ele>114</ele>
<time>2023-05-17T12:07:14Z</time>
</trkpt>
<trkpt lat="49.08630193211138" lon="8.451361991465092">
<ele>114</ele>
<time>2023-05-17T12:07:15Z</time>
</trkpt>
<trkpt lat="49.08634493127465" lon="8.451324943453074">
<ele>114</ele>
<time>2023-05-17T12:07:16Z</time>
</trkpt>
<trkpt lat="49.08638499677181" lon="8.451289990916848">
<ele>114</ele>
<time>2023-05-17T12:07:17Z</time>
</trkpt>
<trkpt lat="49.0864269901067" lon="8.45125294290483">
<ele>114</ele>
<time>2023-05-17T12:07:18Z</time>
</trkpt>
<trkpt lat="49.08647292293608" lon="8.451214972883463">
<ele>114</ele>
<time>2023-05-17T12:07:19Z</time>
</trkpt>
<trkpt lat="49.086522962898016" lon="8.451174991205335">
<ele>114</ele>
<time>2023-05-17T12:07:20Z</time>
</trkpt>
<trkpt lat="49.08657694235444" lon="8.451132997870445">
<ele>114</ele>
<time>2023-05-17T12:07:21Z</time>
</trkpt>
<trkpt lat="49.08662999980152" lon="8.451089998707175">
<ele>114</ele>
<time>2023-05-17T12:07:22Z</time>
</trkpt>
<trkpt lat="49.08668498508632" lon="8.451041970402002">
<ele>114</ele>
<time>2023-05-17T12:07:23Z</time>
</trkpt>
<trkpt lat="49.086736952885985" lon="8.45099494792521">
<ele>114</ele>
<time>2023-05-17T12:07:24Z</time>
</trkpt>
<trkpt lat="49.08678992651403" lon="8.450942980125546">
<ele>114</ele>
<time>2023-05-17T12:07:25Z</time>
</trkpt>
<trkpt lat="49.0868379548192" lon="8.45088992267847">
<ele>114</ele>
<time>2023-05-17T12:07:26Z</time>
</trkpt>
<trkpt lat="49.08688799478114" lon="8.450836949050426">
<ele>114</ele>
<time>2023-05-17T12:07:27Z</time>
</trkpt>
<trkpt lat="49.08693694509566" lon="8.450787998735905">
<ele>114</ele>
<time>2023-05-17T12:07:28Z</time>
</trkpt>
<trkpt lat="49.08698296174407" lon="8.450739970430732">
<ele>114</ele>
<time>2023-05-17T12:07:29Z</time>
</trkpt>
<trkpt lat="49.08702998422086" lon="8.45069294795394">
<ele>114</ele>
<time>2023-05-17T12:07:30Z</time>
</trkpt>
<trkpt lat="49.087077928707004" lon="8.450642991811037">
<ele>114</ele>
<time>2023-05-17T12:07:31Z</time>
</trkpt>
<trkpt lat="49.087124951183796" lon="8.450596975162625">
<ele>114</ele>
<time>2023-05-17T12:07:32Z</time>
</trkpt>
<trkpt lat="49.087167950347066" lon="8.450556993484497">
<ele>114</ele>
<time>2023-05-17T12:07:33Z</time>
</trkpt>
<trkpt lat="49.087217990309" lon="8.450512988492846">
<ele>114</ele>
<time>2023-05-17T12:07:34Z</time>
</trkpt>
<trkpt lat="49.087269958108664" lon="8.450464960187674">
<ele>114</ele>
<time>2023-05-17T12:07:35Z</time>
</trkpt>
<trkpt lat="49.087314968928695" lon="8.450422966852784">
<ele>113.79999999999995</ele>
<time>2023-05-17T12:07:36Z</time>
</trkpt>
<trkpt lat="49.08736199140549" lon="8.450382985174656">
<ele>113.79999999999995</ele>
<time>2023-05-17T12:07:37Z</time>
</trkpt>
<trkpt lat="49.08740691840649" lon="8.450336968526244">
<ele>113.79999999999995</ele>
<time>2023-05-17T12:07:38Z</time>
</trkpt>
<trkpt lat="49.0874529350549" lon="8.450294975191355">
<ele>113.79999999999995</ele>
<time>2023-05-17T12:07:39Z</time>
</trkpt>
<trkpt lat="49.08749794587493" lon="8.450252981856465">
<ele>113.79999999999995</ele>
<time>2023-05-17T12:07:40Z</time>
</trkpt>
<trkpt lat="49.08754295669496" lon="8.450217945501208">
<ele>113.79999999999995</ele>
<time>2023-05-17T12:07:41Z</time>
</trkpt>
<trkpt lat="49.08758495002985" lon="8.45017796382308">
<ele>113.79999999999995</ele>
<time>2023-05-17T12:07:42Z</time>
</trkpt>
<trkpt lat="49.08763297833502" lon="8.450131947174668">
<ele>113.79999999999995</ele>
<time>2023-05-17T12:07:43Z</time>
</trkpt>
<trkpt lat="49.087682934477925" lon="8.450086936354637">
<ele>113.79999999999995</ele>
<time>2023-05-17T12:07:44Z</time>
</trkpt>
<trkpt lat="49.08773196861148" lon="8.450037986040115">
<ele>113.79999999999995</ele>
<time>2023-05-17T12:07:45Z</time>
</trkpt>
<trkpt lat="49.08777999691665" lon="8.449987946078181">
<ele>113.79999999999995</ele>
<time>2023-05-17T12:07:46Z</time>
</trkpt>
<trkpt lat="49.08782693557441" lon="8.449944946914911">
<ele>113.79999999999995</ele>
<time>2023-05-17T12:07:47Z</time>
</trkpt>
<trkpt lat="49.087872952222824" lon="8.449906976893544">
<ele>113.79999999999995</ele>
<time>2023-05-17T12:07:48Z</time>
</trkpt>
<trkpt lat="49.087916957214475" lon="8.449872946366668">
<ele>113.79999999999995</ele>
<time>2023-05-17T12:07:49Z</time>
</trkpt>
<trkpt lat="49.087959956377745" lon="8.449836988002062">
<ele>114</ele>
<time>2023-05-17T12:07:50Z</time>
</trkpt>
<trkpt lat="49.08799993805587" lon="8.449802957475185">
<ele>114</ele>
<time>2023-05-17T12:07:51Z</time>
</trkpt>
<trkpt lat="49.08803799189627" lon="8.44976699911058">
<ele>114</ele>
<time>2023-05-17T12:07:52Z</time>
</trkpt>
<trkpt lat="49.08808493055403" lon="8.449724921956658">
<ele>114</ele>
<time>2023-05-17T12:07:53Z</time>
</trkpt>
<trkpt lat="49.088132958859205" lon="8.449682928621769">
<ele>114</ele>
<time>2023-05-17T12:07:54Z</time>
</trkpt>
<trkpt lat="49.08818199299276" lon="8.44964194111526">
<ele>114</ele>
<time>2023-05-17T12:07:55Z</time>
</trkpt>
<trkpt lat="49.08822691999376" lon="8.449602965265512">
<ele>114</ele>
<time>2023-05-17T12:07:56Z</time>
</trkpt>
<trkpt lat="49.08826991915703" lon="8.449564995244145">
<ele>114</ele>
<time>2023-05-17T12:07:57Z</time>
</trkpt>
<trkpt lat="49.08831199631095" lon="8.449527947232127">
<ele>114</ele>
<time>2023-05-17T12:07:58Z</time>
</trkpt>
<trkpt lat="49.08835197798908" lon="8.449496934190392">
<ele>114</ele>
<time>2023-05-17T12:07:59Z</time>
</trkpt>
<trkpt lat="49.088391959667206" lon="8.449466926977038">
<ele>114</ele>
<time>2023-05-17T12:08:00Z</time>
</trkpt>
<trkpt lat="49.08842791803181" lon="8.449432980269194">
<ele>114</ele>
<time>2023-05-17T12:08:01Z</time>
</trkpt>
<trkpt lat="49.088457925245166" lon="8.449397943913937">
<ele>114</ele>
<time>2023-05-17T12:08:02Z</time>
</trkpt>
<trkpt lat="49.08848793245852" lon="8.44936491921544">
<ele>114</ele>
<time>2023-05-17T12:08:03Z</time>
</trkpt>
<trkpt lat="49.088519951328635" lon="8.449331978335977">
<ele>114</ele>
<time>2023-05-17T12:08:04Z</time>
</trkpt>
<trkpt lat="49.08855197019875" lon="8.449294930323958">
<ele>114</ele>
<time>2023-05-17T12:08:05Z</time>
</trkpt>
<trkpt lat="49.08859496936202" lon="8.449256960302591">
<ele>114</ele>
<time>2023-05-17T12:08:06Z</time>
</trkpt>
<trkpt lat="49.08863293938339" lon="8.449224941432476">
<ele>114</ele>
<time>2023-05-17T12:08:07Z</time>
</trkpt>
<trkpt lat="49.088667975738645" lon="8.449197951704264">
<ele>114</ele>
<time>2023-05-17T12:08:08Z</time>
</trkpt>
<trkpt lat="49.088697982952" lon="8.449171967804432">
<ele>114</ele>
<time>2023-05-17T12:08:09Z</time>
</trkpt>
<trkpt lat="49.08872991800308" lon="8.449147995561361">
<ele>114</ele>
<time>2023-05-17T12:08:10Z</time>
</trkpt>
<trkpt lat="49.08876294270158" lon="8.449117988348007">
<ele>114</ele>
<time>2023-05-17T12:08:11Z</time>
</trkpt>
<trkpt lat="49.08881197683513" lon="8.44908295199275">
<ele>114</ele>
<time>2023-05-17T12:08:12Z</time>
</trkpt>
<trkpt lat="49.08885992132127" lon="8.449042970314622">
<ele>114</ele>
<time>2023-05-17T12:08:13Z</time>
</trkpt>
<trkpt lat="49.08891197293997" lon="8.44899795949459">
<ele>114</ele>
<time>2023-05-17T12:08:14Z</time>
</trkpt>
<trkpt lat="49.08896293491125" lon="8.448951942846179">
<ele>114</ele>
<time>2023-05-17T12:08:15Z</time>
</trkpt>
<trkpt lat="49.08900199458003" lon="8.448919923976064">
<ele>114</ele>
<time>2023-05-17T12:08:16Z</time>
</trkpt>
<trkpt lat="49.0890399646014" lon="8.44888991676271">
<ele>114</ele>
<time>2023-05-17T12:08:17Z</time>
</trkpt>
<trkpt lat="49.08908195793629" lon="8.448857981711626">
<ele>114</ele>
<time>2023-05-17T12:08:18Z</time>
</trkpt>
<trkpt lat="49.0891279745847" lon="8.448821939527988">
<ele>114</ele>
<time>2023-05-17T12:08:19Z</time>
</trkpt>
<trkpt lat="49.08917298540473" lon="8.448774917051196">
<ele>114</ele>
<time>2023-05-17T12:08:20Z</time>
</trkpt>
<trkpt lat="49.08921699039638" lon="8.448727978393435">
<ele>114</ele>
<time>2023-05-17T12:08:21Z</time>
</trkpt>
<trkpt lat="49.08926292322576" lon="8.448687996715307">
<ele>114.20000000000005</ele>
<time>2023-05-17T12:08:22Z</time>
</trkpt>
<trkpt lat="49.08930793404579" lon="8.448649942874908">
<ele>114.20000000000005</ele>
<time>2023-05-17T12:08:23Z</time>
</trkpt>
<trkpt lat="49.089354956522584" lon="8.448604932054877">
<ele>114.20000000000005</ele>
<time>2023-05-17T12:08:24Z</time>
</trkpt>
<trkpt lat="49.089399967342615" lon="8.448564950376749">
<ele>114.20000000000005</ele>
<time>2023-05-17T12:08:25Z</time>
</trkpt>
<trkpt lat="49.08944992348552" lon="8.448521951213479">
<ele>114.20000000000005</ele>
<time>2023-05-17T12:08:26Z</time>
</trkpt>
<trkpt lat="49.089484959840775" lon="8.448489932343364">
<ele>114.20000000000005</ele>
<time>2023-05-17T12:08:27Z</time>
</trkpt>
<trkpt lat="49.089529970660806" lon="8.448449950665236">
<ele>114.20000000000005</ele>
<time>2023-05-17T12:08:28Z</time>
</trkpt>
<trkpt lat="49.08956693485379" lon="8.448412986472249">
<ele>114.20000000000005</ele>
<time>2023-05-17T12:08:29Z</time>
</trkpt>
<trkpt lat="49.08959995955229" lon="8.448381973430514">
<ele>114.20000000000005</ele>
<time>2023-05-17T12:08:30Z</time>
</trkpt>
<trkpt lat="49.08964798785746" lon="8.448341991752386">
<ele>114.20000000000005</ele>
<time>2023-05-17T12:08:31Z</time>
</trkpt>
<trkpt lat="49.08968998119235" lon="8.44830997288227">
<ele>114.20000000000005</ele>
<time>2023-05-17T12:08:32Z</time>
</trkpt>
<trkpt lat="49.08972996287048" lon="8.448276948183775">
<ele>114.20000000000005</ele>
<time>2023-05-17T12:08:33Z</time>
</trkpt>
<trkpt lat="49.08977497369051" lon="8.44824199564755">
<ele>114.20000000000005</ele>
<time>2023-05-17T12:08:34Z</time>
</trkpt>
<trkpt lat="49.08981998451054" lon="8.44820193015039">
<ele>114.20000000000005</ele>
<time>2023-05-17T12:08:35Z</time>
</trkpt>
<trkpt lat="49.0898669231683" lon="8.448161948472261">
<ele>114.20000000000005</ele>
<time>2023-05-17T12:08:36Z</time>
</trkpt>
<trkpt lat="49.08990992233157" lon="8.448124984279275">
<ele>114.20000000000005</ele>
<time>2023-05-17T12:08:37Z</time>
</trkpt>
<trkpt lat="49.089939929544926" lon="8.448086930438876">
<ele>114.20000000000005</ele>
<time>2023-05-17T12:08:38Z</time>
</trkpt>
<trkpt lat="49.08997496590018" lon="8.448057929053903">
<ele>114.20000000000005</ele>
<time>2023-05-17T12:08:39Z</time>
</trkpt>
<trkpt lat="49.09000991843641" lon="8.448027921840549">
<ele>114.20000000000005</ele>
<time>2023-05-17T12:08:40Z</time>
</trkpt>
<trkpt lat="49.09004797227681" lon="8.447996992617846">
<ele>114.20000000000005</ele>
<time>2023-05-17T12:08:41Z</time>
</trkpt>
<trkpt lat="49.090086948126554" lon="8.447962962090969">
<ele>114.20000000000005</ele>
<time>2023-05-17T12:08:42Z</time>
</trkpt>
<trkpt lat="49.09012491814792" lon="8.447932954877615">
<ele>114.20000000000005</ele>
<time>2023-05-17T12:08:43Z</time>
</trkpt>
<trkpt lat="49.09016699530184" lon="8.447899930179119">
<ele>114.20000000000005</ele>
<time>2023-05-17T12:08:44Z</time>
</trkpt>
<trkpt lat="49.09021192230284" lon="8.447861960157752">
<ele>114.20000000000005</ele>
<time>2023-05-17T12:08:45Z</time>
</trkpt>
<trkpt lat="49.0902519878" lon="8.447819966822863">
<ele>114.20000000000005</ele>
<time>2023-05-17T12:08:46Z</time>
</trkpt>
<trkpt lat="49.09028995782137" lon="8.447774956002831">
<ele>114.20000000000005</ele>
<time>2023-05-17T12:08:47Z</time>
</trkpt>
<trkpt lat="49.090322982519865" lon="8.447736985981464">
<ele>114.20000000000005</ele>
<time>2023-05-17T12:08:48Z</time>
</trkpt>
<trkpt lat="49.09035994671285" lon="8.447696920484304">
<ele>114.20000000000005</ele>
<time>2023-05-17T12:08:49Z</time>
</trkpt>
<trkpt lat="49.09039791673422" lon="8.447651993483305">
<ele>114.20000000000005</ele>
<time>2023-05-17T12:08:50Z</time>
</trkpt>
<trkpt lat="49.09043496474624" lon="8.447607988491654">
<ele>114.20000000000005</ele>
<time>2023-05-17T12:08:51Z</time>
</trkpt>
<trkpt lat="49.09046991728246" lon="8.447559960186481">
<ele>114.20000000000005</ele>
<time>2023-05-17T12:08:52Z</time>
</trkpt>
<trkpt lat="49.09050294198096" lon="8.447501957416534">
<ele>114.20000000000005</ele>
<time>2023-05-17T12:08:53Z</time>
</trkpt>
<trkpt lat="49.090542923659086" lon="8.447436997666955">
<ele>114.20000000000005</ele>
<time>2023-05-17T12:08:54Z</time>
</trkpt>
<trkpt lat="49.090581983327866" lon="8.447374971583486">
<ele>114.20000000000005</ele>
<time>2023-05-17T12:08:55Z</time>
</trkpt>
<trkpt lat="49.09061794169247" lon="8.44732291996479">
<ele>114.20000000000005</ele>
<time>2023-05-17T12:08:56Z</time>
</trkpt>
<trkpt lat="49.0906579233706" lon="8.447259971871972">
<ele>114.20000000000005</ele>
<time>2023-05-17T12:08:57Z</time>
</trkpt>
<trkpt lat="49.09069497138262" lon="8.447196939960122">
<ele>114.20000000000005</ele>
<time>2023-05-17T12:08:58Z</time>
</trkpt>
<trkpt lat="49.09072699025273" lon="8.44712795689702">
<ele>114.20000000000005</ele>
<time>2023-05-17T12:08:59Z</time>
</trkpt>
<trkpt lat="49.090752974152565" lon="8.447062997147441">
<ele>114.20000000000005</ele>
<time>2023-05-17T12:09:00Z</time>
</trkpt>
<trkpt lat="49.09077996388078" lon="8.447001976892352">
<ele>114</ele>
<time>2023-05-17T12:09:01Z</time>
</trkpt>
<trkpt lat="49.09080695360899" lon="8.446939950808883">
<ele>114</ele>
<time>2023-05-17T12:09:02Z</time>
</trkpt>
<trkpt lat="49.090839978307486" lon="8.446879936382174">
<ele>114</ele>
<time>2023-05-17T12:09:03Z</time>
</trkpt>
<trkpt lat="49.09086495637894" lon="8.446812964975834">
<ele>114</ele>
<time>2023-05-17T12:09:04Z</time>
</trkpt>
<trkpt lat="49.090886916965246" lon="8.44676191918552">
<ele>114</ele>
<time>2023-05-17T12:09:05Z</time>
</trkpt>
<trkpt lat="49.09091197885573" lon="8.446707939729095">
<ele>114</ele>
<time>2023-05-17T12:09:06Z</time>
</trkpt>
<trkpt lat="49.09093192778528" lon="8.446656977757812">
<ele>114</ele>
<time>2023-05-17T12:09:07Z</time>
</trkpt>
<trkpt lat="49.09095196053386" lon="8.446606937795877">
<ele>114</ele>
<time>2023-05-17T12:09:08Z</time>
</trkpt>
<trkpt lat="49.090969981625676" lon="8.446561926975846">
<ele>114</ele>
<time>2023-05-17T12:09:09Z</time>
</trkpt>
<trkpt lat="49.09098791889846" lon="8.446502918377519">
<ele>114</ele>
<time>2023-05-17T12:09:10Z</time>
</trkpt>
<trkpt lat="49.09100292250514" lon="8.446447933092713">
<ele>114</ele>
<time>2023-05-17T12:09:11Z</time>
</trkpt>
<trkpt lat="49.09101792611182" lon="8.446397976949811">
<ele>114</ele>
<time>2023-05-17T12:09:12Z</time>
</trkpt>
<trkpt lat="49.091029996052384" lon="8.446344919502735">
<ele>114</ele>
<time>2023-05-17T12:09:13Z</time>
</trkpt>
<trkpt lat="49.0910429880023" lon="8.446287922561169">
<ele>114</ele>
<time>2023-05-17T12:09:14Z</time>
</trkpt>
<trkpt lat="49.091054974123836" lon="8.446231931447983">
<ele>114</ele>
<time>2023-05-17T12:09:15Z</time>
</trkpt>
<trkpt lat="49.09106696024537" lon="8.446174934506416">
<ele>114</ele>
<time>2023-05-17T12:09:16Z</time>
</trkpt>
<trkpt lat="49.09107995219529" lon="8.446107963100076">
<ele>114</ele>
<time>2023-05-17T12:09:17Z</time>
</trkpt>
<trkpt lat="49.091096967458725" lon="8.446026993915439">
<ele>114</ele>
<time>2023-05-17T12:09:18Z</time>
</trkpt>
<trkpt lat="49.09110995940864" lon="8.445954993367195">
<ele>114</ele>
<time>2023-05-17T12:09:19Z</time>
</trkpt>
<trkpt lat="49.09112295135856" lon="8.445881986990571">
<ele>114</ele>
<time>2023-05-17T12:09:20Z</time>
</trkpt>
<trkpt lat="49.09113694913685" lon="8.445802945643663">
<ele>114</ele>
<time>2023-05-17T12:09:21Z</time>
</trkpt>
<trkpt lat="49.09114792943001" lon="8.445721976459026">
<ele>114.20000000000005</ele>
<time>2023-05-17T12:09:22Z</time>
</trkpt>
<trkpt lat="49.091161927208304" lon="8.445632960647345">
<ele>114.20000000000005</ele>
<time>2023-05-17T12:09:23Z</time>
</trkpt>
<trkpt lat="49.09116997383535" lon="8.445547968149185">
<ele>114.20000000000005</ele>
<time>2023-05-17T12:09:24Z</time>
</trkpt>
<trkpt lat="49.09117793664336" lon="8.445459958165884">
<ele>114.20000000000005</ele>
<time>2023-05-17T12:09:25Z</time>
</trkpt>
<trkpt lat="49.09118799492717" lon="8.44536691904068">
<ele>114.20000000000005</ele>
<time>2023-05-17T12:09:26Z</time>
</trkpt>
<trkpt lat="49.0911949519068" lon="8.44527798704803">
<ele>114.20000000000005</ele>
<time>2023-05-17T12:09:27Z</time>
</trkpt>
<trkpt lat="49.0911999810487" lon="8.4451949223876">
<ele>114.20000000000005</ele>
<time>2023-05-17T12:09:28Z</time>
</trkpt>
<trkpt lat="49.091201992705464" lon="8.445114959031343">
<ele>114.20000000000005</ele>
<time>2023-05-17T12:09:29Z</time>
</trkpt>
<trkpt lat="49.091202998533845" lon="8.445037929341197">
<ele>114.20000000000005</ele>
<time>2023-05-17T12:09:30Z</time>
</trkpt>
<trkpt lat="49.091206938028336" lon="8.44495796598494">
<ele>114.20000000000005</ele>
<time>2023-05-17T12:09:31Z</time>
</trkpt>
<trkpt lat="49.091207943856716" lon="8.444876996800303">
<ele>114.20000000000005</ele>
<time>2023-05-17T12:09:32Z</time>
</trkpt>
<trkpt lat="49.091204926371574" lon="8.444799967110157">
<ele>114.20000000000005</ele>
<time>2023-05-17T12:09:33Z</time>
</trkpt>
<trkpt lat="49.091204926371574" lon="8.444724949076772">
<ele>114.20000000000005</ele>
<time>2023-05-17T12:09:34Z</time>
</trkpt>
<trkpt lat="49.091206938028336" lon="8.444641968235373">
<ele>114.20000000000005</ele>
<time>2023-05-17T12:09:35Z</time>
</trkpt>
<trkpt lat="49.09120995551348" lon="8.444559993222356">
<ele>114.20000000000005</ele>
<time>2023-05-17T12:09:36Z</time>
</trkpt>
<trkpt lat="49.09121699631214" lon="8.444472989067435">
<ele>114.20000000000005</ele>
<time>2023-05-17T12:09:37Z</time>
</trkpt>
<trkpt lat="49.09122294746339" lon="8.444387996569276">
<ele>114.20000000000005</ele>
<time>2023-05-17T12:09:38Z</time>
</trkpt>
<trkpt lat="49.091226970776916" lon="8.444307949393988">
<ele>114.20000000000005</ele>
<time>2023-05-17T12:09:39Z</time>
</trkpt>
<trkpt lat="49.091224959120154" lon="8.444219939410686">
<ele>114.20000000000005</ele>
<time>2023-05-17T12:09:40Z</time>
</trkpt>
<trkpt lat="49.091226970776916" lon="8.444132935255766">
<ele>114.20000000000005</ele>
<time>2023-05-17T12:09:41Z</time>
</trkpt>
<trkpt lat="49.091226970776916" lon="8.444047942757607">
<ele>114.39999999999998</ele>
<time>2023-05-17T12:09:42Z</time>
</trkpt>
<trkpt lat="49.09123199991882" lon="8.443957921117544">
<ele>114.39999999999998</ele>
<time>2023-05-17T12:09:43Z</time>
</trkpt>
<trkpt lat="49.09123996272683" lon="8.44386295415461">
<ele>114.39999999999998</ele>
<time>2023-05-17T12:09:44Z</time>
</trkpt>
<trkpt lat="49.091244991868734" lon="8.44377494417131">
<ele>114.39999999999998</ele>
<time>2023-05-17T12:09:45Z</time>
</trkpt>
<trkpt lat="49.091244991868734" lon="8.443686934188008">
<ele>114.39999999999998</ele>
<time>2023-05-17T12:09:46Z</time>
</trkpt>
<trkpt lat="49.09124298021197" lon="8.443606970831752">
<ele>114.39999999999998</ele>
<time>2023-05-17T12:09:47Z</time>
</trkpt>
<trkpt lat="49.09123493358493" lon="8.443527929484844">
<ele>114.39999999999998</ele>
<time>2023-05-17T12:09:48Z</time>
</trkpt>
<trkpt lat="49.09122998826206" lon="8.443446960300207">
<ele>114.39999999999998</ele>
<time>2023-05-17T12:09:49Z</time>
</trkpt>
<trkpt lat="49.09121992997825" lon="8.443362973630428">
<ele>114.39999999999998</ele>
<time>2023-05-17T12:09:50Z</time>
</trkpt>
<trkpt lat="49.09121297299862" lon="8.443274963647127">
<ele>114.39999999999998</ele>
<time>2023-05-17T12:09:51Z</time>
</trkpt>
<trkpt lat="49.091206938028336" lon="8.443169938400388">
<ele>114.39999999999998</ele>
<time>2023-05-17T12:09:52Z</time>
</trkpt>
<trkpt lat="49.091204926371574" lon="8.44308695755899">
<ele>114.39999999999998</ele>
<time>2023-05-17T12:09:53Z</time>
</trkpt>
<trkpt lat="49.091202998533845" lon="8.443004982545972">
<ele>114.39999999999998</ele>
<time>2023-05-17T12:09:54Z</time>
</trkpt>
<trkpt lat="49.091202998533845" lon="8.442929964512587">
<ele>114.39999999999998</ele>
<time>2023-05-17T12:09:55Z</time>
</trkpt>
<trkpt lat="49.091202998533845" lon="8.442854946479201">
<ele>114.39999999999998</ele>
<time>2023-05-17T12:09:56Z</time>
</trkpt>
<trkpt lat="49.091204926371574" lon="8.442777916789055">
<ele>114.39999999999998</ele>
<time>2023-05-17T12:09:57Z</time>
</trkpt>
<trkpt lat="49.091206938028336" lon="8.442702982574701">
<ele>114.39999999999998</ele>
<time>2023-05-17T12:09:58Z</time>
</trkpt>
<trkpt lat="49.091207943856716" lon="8.442622935399413">
<ele>114.39999999999998</ele>
<time>2023-05-17T12:09:59Z</time>
</trkpt>
<trkpt lat="49.09120995551348" lon="8.442541966214776">
<ele>114.39999999999998</ele>
<time>2023-05-17T12:10:00Z</time>
</trkpt>
<trkpt lat="49.09120995551348" lon="8.442457979544997">
<ele>114.39999999999998</ele>
<time>2023-05-17T12:10:01Z</time>
</trkpt>
<trkpt lat="49.09121297299862" lon="8.44237994402647">
<ele>114.39999999999998</ele>
<time>2023-05-17T12:10:02Z</time>
</trkpt>
<trkpt lat="49.09121196717024" lon="8.442309955134988">
<ele>114.39999999999998</ele>
<time>2023-05-17T12:10:03Z</time>
</trkpt>
<trkpt lat="49.091206938028336" lon="8.44225195236504">
<ele>114.39999999999998</ele>
<time>2023-05-17T12:10:04Z</time>
</trkpt>
<trkpt lat="49.091201992705464" lon="8.442191937938333">
<ele>114.39999999999998</ele>
<time>2023-05-17T12:10:05Z</time>
</trkpt>
<trkpt lat="49.091201992705464" lon="8.442124966531992">
<ele>114.39999999999998</ele>
<time>2023-05-17T12:10:06Z</time>
</trkpt>
<trkpt lat="49.09119796939194" lon="8.442049948498607">
<ele>114.39999999999998</ele>
<time>2023-05-17T12:10:07Z</time>
</trkpt>
<trkpt lat="49.09119696356356" lon="8.44197291880846">
<ele>114.39999999999998</ele>
<time>2023-05-17T12:10:08Z</time>
</trkpt>
<trkpt lat="49.0911899227649" lon="8.441892955452204">
<ele>114.39999999999998</ele>
<time>2023-05-17T12:10:09Z</time>
</trkpt>
<trkpt lat="49.0911899227649" lon="8.441811986267567">
<ele>114.39999999999998</ele>
<time>2023-05-17T12:10:10Z</time>
</trkpt>
<trkpt lat="49.09118698909879" lon="8.44173495657742">
<ele>114.39999999999998</ele>
<time>2023-05-17T12:10:11Z</time>
</trkpt>
<trkpt lat="49.091182965785265" lon="8.441657926887274">
<ele>114.39999999999998</ele>
<time>2023-05-17T12:10:12Z</time>
</trkpt>
<trkpt lat="49.091184977442026" lon="8.441574946045876">
<ele>114.39999999999998</ele>
<time>2023-05-17T12:10:13Z</time>
</trkpt>
<trkpt lat="49.091184977442026" lon="8.441491965204477">
<ele>114.39999999999998</ele>
<time>2023-05-17T12:10:14Z</time>
</trkpt>
<trkpt lat="49.09117994830012" lon="8.441411918029189">
<ele>114.39999999999998</ele>
<time>2023-05-17T12:10:15Z</time>
</trkpt>
<trkpt lat="49.09117994830012" lon="8.441332960501313">
<ele>114.39999999999998</ele>
<time>2023-05-17T12:10:16Z</time>
</trkpt>
<trkpt lat="49.09117491915822" lon="8.441249979659915">
<ele>114.39999999999998</ele>
<time>2023-05-17T12:10:17Z</time>
</trkpt>
<trkpt lat="49.09116796217859" lon="8.441166998818517">
<ele>114.20000000000005</ele>
<time>2023-05-17T12:10:18Z</time>
</trkpt>
<trkpt lat="49.091161927208304" lon="8.44108795747161">
<ele>114.20000000000005</ele>
<time>2023-05-17T12:10:19Z</time>
</trkpt>
<trkpt lat="49.09115195274353" lon="8.441016962751746">
<ele>114.20000000000005</ele>
<time>2023-05-17T12:10:20Z</time>
</trkpt>
<trkpt lat="49.09114692360163" lon="8.440949991345406">
<ele>114.20000000000005</ele>
<time>2023-05-17T12:10:21Z</time>
</trkpt>
<trkpt lat="49.09114298410714" lon="8.440876984968781">
<ele>114.20000000000005</ele>
<time>2023-05-17T12:10:22Z</time>
</trkpt>
<trkpt lat="49.091139966621995" lon="8.440799955278635">
<ele>114.20000000000005</ele>
<time>2023-05-17T12:10:23Z</time>
</trkpt>
<trkpt lat="49.09113694913685" lon="8.440714962780476">
<ele>114.20000000000005</ele>
<time>2023-05-17T12:10:24Z</time>
</trkpt>
<trkpt lat="49.091137954965234" lon="8.440629970282316">
<ele>114.20000000000005</ele>
<time>2023-05-17T12:10:25Z</time>
</trkpt>
<trkpt lat="49.09113694913685" lon="8.440546989440918">
<ele>114.20000000000005</ele>
<time>2023-05-17T12:10:26Z</time>
</trkpt>
<trkpt lat="49.09113191999495" lon="8.440469959750772">
<ele>114.20000000000005</ele>
<time>2023-05-17T12:10:27Z</time>
</trkpt>
<trkpt lat="49.09112697467208" lon="8.440389996394515">
<ele>114.20000000000005</ele>
<time>2023-05-17T12:10:28Z</time>
</trkpt>
<trkpt lat="49.091121945530176" lon="8.440292933955789">
<ele>114.20000000000005</ele>
<time>2023-05-17T12:10:29Z</time>
</trkpt>
<trkpt lat="49.091114988550544" lon="8.440202996134758">
<ele>114.20000000000005</ele>
<time>2023-05-17T12:10:30Z</time>
</trkpt>
<trkpt lat="49.0911069419235" lon="8.440126972272992">
<ele>114.20000000000005</ele>
<time>2023-05-17T12:10:31Z</time>
</trkpt>
<trkpt lat="49.09110199660063" lon="8.440049942582846">
<ele>114.20000000000005</ele>
<time>2023-05-17T12:10:32Z</time>
</trkpt>
<trkpt lat="49.091097973287106" lon="8.439964950084686">
<ele>114.20000000000005</ele>
<time>2023-05-17T12:10:33Z</time>
</trkpt>
<trkpt lat="49.09108799882233" lon="8.439889932051301">
<ele>114.20000000000005</ele>
<time>2023-05-17T12:10:34Z</time>
</trkpt>
<trkpt lat="49.09108296968043" lon="8.439816925674677">
<ele>114.20000000000005</ele>
<time>2023-05-17T12:10:35Z</time>
</trkpt>
<trkpt lat="49.091072995215654" lon="8.439744925126433">
<ele>114.20000000000005</ele>
<time>2023-05-17T12:10:36Z</time>
</trkpt>
<trkpt lat="49.09106193110347" lon="8.439667979255319">
<ele>114.20000000000005</ele>
<time>2023-05-17T12:10:37Z</time>
</trkpt>
<trkpt lat="49.091051956638694" lon="8.439577957615256">
<ele>114.20000000000005</ele>
<time>2023-05-17T12:10:38Z</time>
</trkpt>
<trkpt lat="49.09104499965906" lon="8.439497994259">
<ele>114.20000000000005</ele>
<time>2023-05-17T12:10:39Z</time>
</trkpt>
<trkpt lat="49.091032929718494" lon="8.439419958740473">
<ele>114.20000000000005</ele>
<time>2023-05-17T12:10:40Z</time>
</trkpt>
<trkpt lat="49.09102295525372" lon="8.439331948757172">
<ele>114.20000000000005</ele>
<time>2023-05-17T12:10:41Z</time>
</trkpt>
<trkpt lat="49.091011974960566" lon="8.439246956259012">
<ele>114.20000000000005</ele>
<time>2023-05-17T12:10:42Z</time>
</trkpt>
<trkpt lat="49.09100292250514" lon="8.439169926568866">
<ele>114.20000000000005</ele>
<time>2023-05-17T12:10:43Z</time>
</trkpt>
<trkpt lat="49.09099495969713" lon="8.43908996321261">
<ele>114</ele>
<time>2023-05-17T12:10:44Z</time>
</trkpt>
<trkpt lat="49.090986996889114" lon="8.439012933522463">
<ele>114</ele>
<time>2023-05-17T12:10:45Z</time>
</trkpt>
<trkpt lat="49.09097492694855" lon="8.438926935195923">
<ele>114</ele>
<time>2023-05-17T12:10:46Z</time>
</trkpt>
<trkpt lat="49.09096294082701" lon="8.43885493464768">
<ele>114</ele>
<time>2023-05-17T12:10:47Z</time>
</trkpt>
<trkpt lat="49.090954978019" lon="8.438782934099436">
<ele>114</ele>
<time>2023-05-17T12:10:48Z</time>
</trkpt>
<trkpt lat="49.090947937220335" lon="8.438714956864715">
<ele>114</ele>
<time>2023-05-17T12:10:49Z</time>
</trkpt>
<trkpt lat="49.09093997441232" lon="8.438647985458374">
<ele>114</ele>
<time>2023-05-17T12:10:50Z</time>
</trkpt>
<trkpt lat="49.09092798829079" lon="8.438579924404621">
<ele>113.79999999999995</ele>
<time>2023-05-17T12:10:51Z</time>
</trkpt>
<trkpt lat="49.0909169241786" lon="8.438507923856378">
<ele>113.79999999999995</ele>
<time>2023-05-17T12:10:52Z</time>
</trkpt>
<trkpt lat="49.09090996719897" lon="8.438434917479753">
<ele>113.79999999999995</ele>
<time>2023-05-17T12:10:53Z</time>
</trkpt>
<trkpt lat="49.090899992734194" lon="8.4383599832654">
<ele>113.79999999999995</ele>
<time>2023-05-17T12:10:54Z</time>
</trkpt>
<trkpt lat="49.09088792279363" lon="8.438286976888776">
<ele>113.79999999999995</ele>
<time>2023-05-17T12:10:55Z</time>
</trkpt>
<trkpt lat="49.0908719971776" lon="8.438206929713488">
<ele>113.79999999999995</ele>
<time>2023-05-17T12:10:56Z</time>
</trkpt>
<trkpt lat="49.090857999399304" lon="8.438134929165244">
<ele>113.79999999999995</ele>
<time>2023-05-17T12:10:57Z</time>
</trkpt>
<trkpt lat="49.09084492363036" lon="8.438064940273762">
<ele>114</ele>
<time>2023-05-17T12:10:58Z</time>
</trkpt>
<trkpt lat="49.09083494916558" lon="8.43799696303904">
<ele>114</ele>
<time>2023-05-17T12:10:59Z</time>
</trkpt>
<trkpt lat="49.09082497470081" lon="8.43793191947043">
<ele>114</ele>
<time>2023-05-17T12:11:00Z</time>
</trkpt>
<trkpt lat="49.09081298857927" lon="8.437862936407328">
<ele>114</ele>
<time>2023-05-17T12:11:01Z</time>
</trkpt>
<trkpt lat="49.09080192446709" lon="8.437794959172606">
<ele>114</ele>
<time>2023-05-17T12:11:02Z</time>
</trkpt>
<trkpt lat="49.09079195000231" lon="8.437722958624363">
<ele>114</ele>
<time>2023-05-17T12:11:03Z</time>
</trkpt>
<trkpt lat="49.09077996388078" lon="8.437649952247739">
<ele>114</ele>
<time>2023-05-17T12:11:04Z</time>
</trkpt>
<trkpt lat="49.09076797775924" lon="8.437572922557592">
<ele>114</ele>
<time>2023-05-17T12:11:05Z</time>
</trkpt>
<trkpt lat="49.09074794501066" lon="8.437492959201336">
<ele>114</ele>
<time>2023-05-17T12:11:06Z</time>
</trkpt>
<trkpt lat="49.09073998220265" lon="8.437414923682809">
<ele>114</ele>
<time>2023-05-17T12:11:07Z</time>
</trkpt>
<trkpt lat="49.09072699025273" lon="8.437344934791327">
<ele>114</ele>
<time>2023-05-17T12:11:08Z</time>
</trkpt>
<trkpt lat="49.09071994945407" lon="8.437269916757941">
<ele>114</ele>
<time>2023-05-17T12:11:09Z</time>
</trkpt>
<trkpt lat="49.09071693196893" lon="8.437192970886827">
<ele>114</ele>
<time>2023-05-17T12:11:10Z</time>
</trkpt>
<trkpt lat="49.090709974989295" lon="8.437119964510202">
<ele>114</ele>
<time>2023-05-17T12:11:11Z</time>
</trkpt>
<trkpt lat="49.09069798886776" lon="8.437054920941591">
<ele>114</ele>
<time>2023-05-17T12:11:12Z</time>
</trkpt>
<trkpt lat="49.090687930583954" lon="8.436989961192012">
<ele>114</ele>
<time>2023-05-17T12:11:13Z</time>
</trkpt>
<trkpt lat="49.09067996777594" lon="8.436926929280162">
<ele>114</ele>
<time>2023-05-17T12:11:14Z</time>
</trkpt>
<trkpt lat="49.090667981654406" lon="8.436861969530582">
<ele>114</ele>
<time>2023-05-17T12:11:15Z</time>
</trkpt>
<trkpt lat="49.090646943077445" lon="8.43679298646748">
<ele>114.20000000000005</ele>
<time>2023-05-17T12:11:16Z</time>
</trkpt>
<trkpt lat="49.0906269941479" lon="8.436726937070489">
<ele>114.20000000000005</ele>
<time>2023-05-17T12:11:17Z</time>
</trkpt>
<trkpt lat="49.0906129963696" lon="8.436667928472161">
<ele>114.20000000000005</ele>
<time>2023-05-17T12:11:18Z</time>
</trkpt>
<trkpt lat="49.090604949742556" lon="8.436614954844117">
<ele>114.20000000000005</ele>
<time>2023-05-17T12:11:19Z</time>
</trkpt>
<trkpt lat="49.09059497527778" lon="8.436552928760648">
<ele>114.20000000000005</ele>
<time>2023-05-17T12:11:20Z</time>
</trkpt>
<trkpt lat="49.090582989156246" lon="8.436502972617745">
<ele>114.20000000000005</ele>
<time>2023-05-17T12:11:21Z</time>
</trkpt>
<trkpt lat="49.0905749425292" lon="8.436454944312572">
<ele>114.20000000000005</ele>
<time>2023-05-17T12:11:22Z</time>
</trkpt>
<trkpt lat="49.09056697972119" lon="8.436411945149302">
<ele>114.39999999999998</ele>
<time>2023-05-17T12:11:23Z</time>
</trkpt>
<trkpt lat="49.090561950579286" lon="8.43636299483478">
<ele>114.39999999999998</ele>
<time>2023-05-17T12:11:24Z</time>
</trkpt>
<trkpt lat="49.09055197611451" lon="8.436304992064834">
<ele>114.39999999999998</ele>
<time>2023-05-17T12:11:25Z</time>
</trkpt>
<trkpt lat="49.090537978336215" lon="8.436246989294887">
<ele>114.39999999999998</ele>
<time>2023-05-17T12:11:26Z</time>
</trkpt>
<trkpt lat="49.09052792005241" lon="8.436186974868178">
<ele>114.39999999999998</ele>
<time>2023-05-17T12:11:27Z</time>
</trkpt>
<trkpt lat="49.090516939759254" lon="8.43612696044147">
<ele>114.39999999999998</ele>
<time>2023-05-17T12:11:28Z</time>
</trkpt>
<trkpt lat="49.09050294198096" lon="8.436064934358">
<ele>114.39999999999998</ele>
<time>2023-05-17T12:11:29Z</time>
</trkpt>
<trkpt lat="49.09048995003104" lon="8.436001986265182">
<ele>114.39999999999998</ele>
<time>2023-05-17T12:11:30Z</time>
</trkpt>
<trkpt lat="49.09047796390951" lon="8.435937948524952">
<ele>114.39999999999998</ele>
<time>2023-05-17T12:11:31Z</time>
</trkpt>
<trkpt lat="49.09046195447445" lon="8.435877934098244">
<ele>114.39999999999998</ele>
<time>2023-05-17T12:11:32Z</time>
</trkpt>
<trkpt lat="49.09044493921101" lon="8.435814986005425">
<ele>114.60000000000002</ele>
<time>2023-05-17T12:11:33Z</time>
</trkpt>
<trkpt lat="49.09043496474624" lon="8.435746924951673">
<ele>114.60000000000002</ele>
<time>2023-05-17T12:11:34Z</time>
</trkpt>
<trkpt lat="49.0904229786247" lon="8.43567794188857">
<ele>114.60000000000002</ele>
<time>2023-05-17T12:11:35Z</time>
</trkpt>
<trkpt lat="49.09041199833155" lon="8.43561197631061">
<ele>114.60000000000002</ele>
<time>2023-05-17T12:11:36Z</time>
</trkpt>
<trkpt lat="49.09039699472487" lon="8.435537964105606">
<ele>114.60000000000002</ele>
<time>2023-05-17T12:11:37Z</time>
</trkpt>
<trkpt lat="49.0903849247843" lon="8.435467975214124">
<ele>114.60000000000002</ele>
<time>2023-05-17T12:11:38Z</time>
</trkpt>
<trkpt lat="49.09037193283439" lon="8.43539698049426">
<ele>114.60000000000002</ele>
<time>2023-05-17T12:11:39Z</time>
</trkpt>
<trkpt lat="49.09035994671285" lon="8.435324979946017">
<ele>114.79999999999995</ele>
<time>2023-05-17T12:11:40Z</time>
</trkpt>
<trkpt lat="49.09035298973322" lon="8.43524795025587">
<ele>114.79999999999995</ele>
<time>2023-05-17T12:11:41Z</time>
</trkpt>
<trkpt lat="49.090344943106174" lon="8.43516195192933">
<ele>114.79999999999995</ele>
<time>2023-05-17T12:11:42Z</time>
</trkpt>
<trkpt lat="49.09033698029816" lon="8.435077965259552">
<ele>114.79999999999995</ele>
<time>2023-05-17T12:11:43Z</time>
</trkpt>
<trkpt lat="49.090324994176626" lon="8.434996996074915">
<ele>115</ele>
<time>2023-05-17T12:11:44Z</time>
</trkpt>
<trkpt lat="49.09031191840768" lon="8.43492298386991">
<ele>115</ele>
<time>2023-05-17T12:11:45Z</time>
</trkpt>
<trkpt lat="49.09029792062938" lon="8.434844948351383">
<ele>115</ele>
<time>2023-05-17T12:11:46Z</time>
</trkpt>
<trkpt lat="49.090282917022705" lon="8.43477294780314">
<ele>115</ele>
<time>2023-05-17T12:11:47Z</time>
</trkpt>
<trkpt lat="49.09026799723506" lon="8.434696923941374">
<ele>115</ele>
<time>2023-05-17T12:11:48Z</time>
</trkpt>
<trkpt lat="49.09025693312287" lon="8.4346229955554">
<ele>115</ele>
<time>2023-05-17T12:11:49Z</time>
</trkpt>
<trkpt lat="49.09024997614324" lon="8.434541942551732">
<ele>115</ele>
<time>2023-05-17T12:11:50Z</time>
</trkpt>
<trkpt lat="49.090237990021706" lon="8.434459967538714">
<ele>115</ele>
<time>2023-05-17T12:11:51Z</time>
</trkpt>
<trkpt lat="49.0902279317379" lon="8.434374975040555">
<ele>115</ele>
<time>2023-05-17T12:11:52Z</time>
</trkpt>
<trkpt lat="49.09021996892989" lon="8.434287970885634">
<ele>115</ele>
<time>2023-05-17T12:11:53Z</time>
</trkpt>
<trkpt lat="49.09021192230284" lon="8.434211947023869">
<ele>115</ele>
<time>2023-05-17T12:11:54Z</time>
</trkpt>
<trkpt lat="49.09020295366645" lon="8.434139946475625">
<ele>114.79999999999995</ele>
<time>2023-05-17T12:11:55Z</time>
</trkpt>
<trkpt lat="49.090194990858436" lon="8.43406199477613">
<ele>114.79999999999995</ele>
<time>2023-05-17T12:11:56Z</time>
</trkpt>
<trkpt lat="49.09018292091787" lon="8.433984965085983">
<ele>114.79999999999995</ele>
<time>2023-05-17T12:11:57Z</time>
</trkpt>
<trkpt lat="49.09017696976662" lon="8.433909947052598">
<ele>114.79999999999995</ele>
<time>2023-05-17T12:11:58Z</time>
</trkpt>
<trkpt lat="49.090171940624714" lon="8.433836940675974">
<ele>114.79999999999995</ele>
<time>2023-05-17T12:11:59Z</time>
</trkpt>
<trkpt lat="49.09016699530184" lon="8.43376494012773">
<ele>114.79999999999995</ele>
<time>2023-05-17T12:12:00Z</time>
</trkpt>
<trkpt lat="49.090154925361276" lon="8.433687994256616">
<ele>114.79999999999995</ele>
<time>2023-05-17T12:12:01Z</time>
</trkpt>
<trkpt lat="49.0901449508965" lon="8.43361297622323">
<ele>114.79999999999995</ele>
<time>2023-05-17T12:12:02Z</time>
</trkpt>
<trkpt lat="49.09013698808849" lon="8.433532929047942">
<ele>114.79999999999995</ele>
<time>2023-05-17T12:12:03Z</time>
</trkpt>
<trkpt lat="49.090129947289824" lon="8.433449948206544">
<ele>114.79999999999995</ele>
<time>2023-05-17T12:12:04Z</time>
</trkpt>
<trkpt lat="49.09012299031019" lon="8.433374930173159">
<ele>114.79999999999995</ele>
<time>2023-05-17T12:12:05Z</time>
</trkpt>
<trkpt lat="49.090112932026386" lon="8.433294966816902">
<ele>114.79999999999995</ele>
<time>2023-05-17T12:12:06Z</time>
</trkpt>
<trkpt lat="49.09010295756161" lon="8.433212991803885">
<ele>114.79999999999995</ele>
<time>2023-05-17T12:12:07Z</time>
</trkpt>
<trkpt lat="49.09009692259133" lon="8.433127999305725">
<ele>114.79999999999995</ele>
<time>2023-05-17T12:12:08Z</time>
</trkpt>
<trkpt lat="49.090087953954935" lon="8.433046946302056">
<ele>114.79999999999995</ele>
<time>2023-05-17T12:12:09Z</time>
</trkpt>
<trkpt lat="49.09007999114692" lon="8.432952985167503">
<ele>114.79999999999995</ele>
<time>2023-05-17T12:12:10Z</time>
</trkpt>
<trkpt lat="49.09007295034826" lon="8.432867992669344">
<ele>114.79999999999995</ele>
<time>2023-05-17T12:12:11Z</time>
</trkpt>
<trkpt lat="49.090062975883484" lon="8.432789957150817">
<ele>114.79999999999995</ele>
<time>2023-05-17T12:12:12Z</time>
</trkpt>
<trkpt lat="49.09005995839834" lon="8.432714939117432">
<ele>114.79999999999995</ele>
<time>2023-05-17T12:12:13Z</time>
</trkpt>
<trkpt lat="49.09005492925644" lon="8.432639921084046">
<ele>114.79999999999995</ele>
<time>2023-05-17T12:12:14Z</time>
</trkpt>
<trkpt lat="49.09005492925644" lon="8.432562975212932">
<ele>114.79999999999995</ele>
<time>2023-05-17T12:12:15Z</time>
</trkpt>
<trkpt lat="49.09005291759968" lon="8.432479994371533">
<ele>114.79999999999995</ele>
<time>2023-05-17T12:12:16Z</time>
</trkpt>
<trkpt lat="49.09004998393357" lon="8.432394918054342">
<ele>114.79999999999995</ele>
<time>2023-05-17T12:12:17Z</time>
</trkpt>
<trkpt lat="49.09004797227681" lon="8.43232199549675">
<ele>114.79999999999995</ele>
<time>2023-05-17T12:12:18Z</time>
</trkpt>
<trkpt lat="49.09004797227681" lon="8.4322399366647">
<ele>114.79999999999995</ele>
<time>2023-05-17T12:12:19Z</time>
</trkpt>
<trkpt lat="49.09004797227681" lon="8.432154944166541">
<ele>114.79999999999995</ele>
<time>2023-05-17T12:12:20Z</time>
</trkpt>
<trkpt lat="49.09004797227681" lon="8.432069951668382">
<ele>114.79999999999995</ele>
<time>2023-05-17T12:12:21Z</time>
</trkpt>
<trkpt lat="49.09004797227681" lon="8.431991999968886">
<ele>114.79999999999995</ele>
<time>2023-05-17T12:12:22Z</time>
</trkpt>
<trkpt lat="49.09005199559033" lon="8.431907929480076">
<ele>114.79999999999995</ele>
<time>2023-05-17T12:12:23Z</time>
</trkpt>
<trkpt lat="49.09005199559033" lon="8.431822936981916">
<ele>114.79999999999995</ele>
<time>2023-05-17T12:12:24Z</time>
</trkpt>
<trkpt lat="49.090046966448426" lon="8.431744985282421">
<ele>114.79999999999995</ele>
<time>2023-05-17T12:12:25Z</time>
</trkpt>
<trkpt lat="49.090042943134904" lon="8.431661920621991">
<ele>114.79999999999995</ele>
<time>2023-05-17T12:12:26Z</time>
</trkpt>
<trkpt lat="49.09004193730652" lon="8.431576928123832">
<ele>114.79999999999995</ele>
<time>2023-05-17T12:12:27Z</time>
</trkpt>
<trkpt lat="49.09003799781203" lon="8.431487996131182">
<ele>114.79999999999995</ele>
<time>2023-05-17T12:12:28Z</time>
</trkpt>
<trkpt lat="49.09003799781203" lon="8.431401997804642">
<ele>114.79999999999995</ele>
<time>2023-05-17T12:12:29Z</time>
</trkpt>
<trkpt lat="49.09003992564976" lon="8.43131298199296">
<ele>114.79999999999995</ele>
<time>2023-05-17T12:12:30Z</time>
</trkpt>
<trkpt lat="49.090042943134904" lon="8.43122698366642">
<ele>114.79999999999995</ele>
<time>2023-05-17T12:12:31Z</time>
</trkpt>
<trkpt lat="49.090046966448426" lon="8.4311399795115">
<ele>114.79999999999995</ele>
<time>2023-05-17T12:12:32Z</time>
</trkpt>
<trkpt lat="49.09004797227681" lon="8.43105498701334">
<ele>114.79999999999995</ele>
<time>2023-05-17T12:12:33Z</time>
</trkpt>
<trkpt lat="49.09005199559033" lon="8.43096999451518">
<ele>114.79999999999995</ele>
<time>2023-05-17T12:12:34Z</time>
</trkpt>
<trkpt lat="49.0900569409132" lon="8.43088198453188">
<ele>114.79999999999995</ele>
<time>2023-05-17T12:12:35Z</time>
</trkpt>
<trkpt lat="49.0900619700551" lon="8.4307979978621">
<ele>114.79999999999995</ele>
<time>2023-05-17T12:12:36Z</time>
</trkpt>
<trkpt lat="49.090062975883484" lon="8.430719962343574">
<ele>114.60000000000002</ele>
<time>2023-05-17T12:12:37Z</time>
</trkpt>
<trkpt lat="49.090066999197006" lon="8.430639998987317">
<ele>114.60000000000002</ele>
<time>2023-05-17T12:12:38Z</time>
</trkpt>
<trkpt lat="49.09007194451988" lon="8.430557940155268">
<ele>114.60000000000002</ele>
<time>2023-05-17T12:12:39Z</time>
</trkpt>
<trkpt lat="49.090069932863116" lon="8.43047495931387">
<ele>114.39999999999998</ele>
<time>2023-05-17T12:12:40Z</time>
</trkpt>
<trkpt lat="49.09007194451988" lon="8.430397929623723">
<ele>114.39999999999998</ele>
<time>2023-05-17T12:12:41Z</time>
</trkpt>
<trkpt lat="49.09007295034826" lon="8.430319977924228">
<ele>114.39999999999998</ele>
<time>2023-05-17T12:12:42Z</time>
</trkpt>
<trkpt lat="49.09007797949016" lon="8.430237919092178">
<ele>114.39999999999998</ele>
<time>2023-05-17T12:12:43Z</time>
</trkpt>
<trkpt lat="49.09008191898465" lon="8.430156949907541">
<ele>114.39999999999998</ele>
<time>2023-05-17T12:12:44Z</time>
</trkpt>
<trkpt lat="49.090087953954935" lon="8.430074974894524">
<ele>114.39999999999998</ele>
<time>2023-05-17T12:12:45Z</time>
</trkpt>
<trkpt lat="49.0900949947536" lon="8.429991994053125">
<ele>114.20000000000005</ele>
<time>2023-05-17T12:12:46Z</time>
</trkpt>
<trkpt lat="49.09010195173323" lon="8.429912952706218">
<ele>114.20000000000005</ele>
<time>2023-05-17T12:12:47Z</time>
</trkpt>
<trkpt lat="49.090106980875134" lon="8.42983491718769">
<ele>114.20000000000005</ele>
<time>2023-05-17T12:12:48Z</time>
</trkpt>
<trkpt lat="49.090112932026386" lon="8.429757971316576">
<ele>114.20000000000005</ele>
<time>2023-05-17T12:12:49Z</time>
</trkpt>
<trkpt lat="49.09011796116829" lon="8.429679935798049">
<ele>114.20000000000005</ele>
<time>2023-05-17T12:12:50Z</time>
</trkpt>
<trkpt lat="49.09012198448181" lon="8.429606929421425">
<ele>114.20000000000005</ele>
<time>2023-05-17T12:12:51Z</time>
</trkpt>
<trkpt lat="49.09012299031019" lon="8.42952998355031">
<ele>114.20000000000005</ele>
<time>2023-05-17T12:12:52Z</time>
</trkpt>
<trkpt lat="49.09012299031019" lon="8.429449936375022">
<ele>114.20000000000005</ele>
<time>2023-05-17T12:12:53Z</time>
</trkpt>
<trkpt lat="49.09012198448181" lon="8.429371984675527">
<ele>114.20000000000005</ele>
<time>2023-05-17T12:12:54Z</time>
</trkpt>
<trkpt lat="49.09012692980468" lon="8.429291937500238">
<ele>114.20000000000005</ele>
<time>2023-05-17T12:12:55Z</time>
</trkpt>
<trkpt lat="49.090131958946586" lon="8.429214991629124">
<ele>114</ele>
<time>2023-05-17T12:12:56Z</time>
</trkpt>
<trkpt lat="49.09013497643173" lon="8.429139973595738">
<ele>114</ele>
<time>2023-05-17T12:12:57Z</time>
</trkpt>
<trkpt lat="49.09013799391687" lon="8.429064955562353">
<ele>114</ele>
<time>2023-05-17T12:12:58Z</time>
</trkpt>
<trkpt lat="49.0901399217546" lon="8.428989937528968">
<ele>114</ele>
<time>2023-05-17T12:12:59Z</time>
</trkpt>
<trkpt lat="49.0901449508965" lon="8.428914919495583">
<ele>114.20000000000005</ele>
<time>2023-05-17T12:13:00Z</time>
</trkpt>
<trkpt lat="49.09014796838164" lon="8.428837973624468">
<ele>114.20000000000005</ele>
<time>2023-05-17T12:13:01Z</time>
</trkpt>
<trkpt lat="49.090151991695166" lon="8.42875993810594">
<ele>114.20000000000005</ele>
<time>2023-05-17T12:13:02Z</time>
</trkpt>
<trkpt lat="49.09015794284642" lon="8.428676957264543">
<ele>114.20000000000005</ele>
<time>2023-05-17T12:13:03Z</time>
</trkpt>
<trkpt lat="49.09016196615994" lon="8.428604956716299">
<ele>114.20000000000005</ele>
<time>2023-05-17T12:13:04Z</time>
</trkpt>
<trkpt lat="49.09015794284642" lon="8.428529938682914">
<ele>114.20000000000005</ele>
<time>2023-05-17T12:13:05Z</time>
</trkpt>
<trkpt lat="49.090152997523546" lon="8.428452992811799">
<ele>114.20000000000005</ele>
<time>2023-05-17T12:13:06Z</time>
</trkpt>
<trkpt lat="49.09014796838164" lon="8.428376968950033">
<ele>114.20000000000005</ele>
<time>2023-05-17T12:13:07Z</time>
</trkpt>
<trkpt lat="49.09014193341136" lon="8.428301950916648">
<ele>114.20000000000005</ele>
<time>2023-05-17T12:13:08Z</time>
</trkpt>
<trkpt lat="49.09013799391687" lon="8.428226932883263">
<ele>114.20000000000005</ele>
<time>2023-05-17T12:13:09Z</time>
</trkpt>
<trkpt lat="49.09013698808849" lon="8.428154932335019">
<ele>114.20000000000005</ele>
<time>2023-05-17T12:13:10Z</time>
</trkpt>
<trkpt lat="49.09013497643173" lon="8.428081925958395">
<ele>114.20000000000005</ele>
<time>2023-05-17T12:13:11Z</time>
</trkpt>
<trkpt lat="49.090132964774966" lon="8.428009925410151">
<ele>114.20000000000005</ele>
<time>2023-05-17T12:13:12Z</time>
</trkpt>
<trkpt lat="49.09013698808849" lon="8.42794194817543">
<ele>114.20000000000005</ele>
<time>2023-05-17T12:13:13Z</time>
</trkpt>
<trkpt lat="49.0901399217546" lon="8.427869947627187">
<ele>114.20000000000005</ele>
<time>2023-05-17T12:13:14Z</time>
</trkpt>
<trkpt lat="49.09014293923974" lon="8.427799958735704">
<ele>114.20000000000005</ele>
<time>2023-05-17T12:13:15Z</time>
</trkpt>
<trkpt lat="49.090149980038404" lon="8.42772695235908">
<ele>114.20000000000005</ele>
<time>2023-05-17T12:13:16Z</time>
</trkpt>
<trkpt lat="49.090152997523546" lon="8.427664926275611">
<ele>114.20000000000005</ele>
<time>2023-05-17T12:13:17Z</time>
</trkpt>
<trkpt lat="49.09016196615994" lon="8.42759694904089">
<ele>114</ele>
<time>2023-05-17T12:13:18Z</time>
</trkpt>
<trkpt lat="49.09016992896795" lon="8.42753198929131">
<ele>114</ele>
<time>2023-05-17T12:13:19Z</time>
</trkpt>
<trkpt lat="49.090177975595" lon="8.427464934065938">
<ele>114</ele>
<time>2023-05-17T12:13:20Z</time>
</trkpt>
<trkpt lat="49.09018694423139" lon="8.427391927689314">
<ele>114</ele>
<time>2023-05-17T12:13:21Z</time>
</trkpt>
<trkpt lat="49.090194990858436" lon="8.427321938797832">
<ele>114</ele>
<time>2023-05-17T12:13:22Z</time>
</trkpt>
<trkpt lat="49.09020697697997" lon="8.427247926592827">
<ele>114</ele>
<time>2023-05-17T12:13:23Z</time>
</trkpt>
<trkpt lat="49.09021192230284" lon="8.427172992378473">
<ele>114</ele>
<time>2023-05-17T12:13:24Z</time>
</trkpt>
<trkpt lat="49.09021292813122" lon="8.427092945203185">
<ele>114</ele>
<time>2023-05-17T12:13:25Z</time>
</trkpt>
<trkpt lat="49.090216951444745" lon="8.427021950483322">
<ele>114</ele>
<time>2023-05-17T12:13:26Z</time>
</trkpt>
<trkpt lat="49.09022198058665" lon="8.426941987127066">
<ele>114</ele>
<time>2023-05-17T12:13:27Z</time>
</trkpt>
<trkpt lat="49.09022692590952" lon="8.426857916638255">
<ele>114</ele>
<time>2023-05-17T12:13:28Z</time>
</trkpt>
<trkpt lat="49.09022994339466" lon="8.426777953281999">
<ele>114</ele>
<time>2023-05-17T12:13:29Z</time>
</trkpt>
<trkpt lat="49.09023195505142" lon="8.426699917763472">
<ele>114</ele>
<time>2023-05-17T12:13:30Z</time>
</trkpt>
<trkpt lat="49.09023195505142" lon="8.426624983549118">
<ele>114</ele>
<time>2023-05-17T12:13:31Z</time>
</trkpt>
<trkpt lat="49.0902329608798" lon="8.426547953858972">
<ele>114.20000000000005</ele>
<time>2023-05-17T12:13:32Z</time>
</trkpt>
<trkpt lat="49.090239917859435" lon="8.426474947482347">
<ele>114.20000000000005</ele>
<time>2023-05-17T12:13:33Z</time>
</trkpt>
<trkpt lat="49.09024796448648" lon="8.426396995782852">
<ele>114.20000000000005</ele>
<time>2023-05-17T12:13:34Z</time>
</trkpt>
<trkpt lat="49.09025299362838" lon="8.426317954435945">
<ele>114.20000000000005</ele>
<time>2023-05-17T12:13:35Z</time>
</trkpt>
<trkpt lat="49.09025693312287" lon="8.426249977201223">
<ele>114.20000000000005</ele>
<time>2023-05-17T12:13:36Z</time>
</trkpt>
<trkpt lat="49.090257938951254" lon="8.42617797665298">
<ele>114.20000000000005</ele>
<time>2023-05-17T12:13:37Z</time>
</trkpt>
<trkpt lat="49.090259950608015" lon="8.426106981933117">
<ele>114.20000000000005</ele>
<time>2023-05-17T12:13:38Z</time>
</trkpt>
<trkpt lat="49.090259950608015" lon="8.426034981384873">
<ele>114.20000000000005</ele>
<time>2023-05-17T12:13:39Z</time>
</trkpt>
<trkpt lat="49.09026296809316" lon="8.42596197500825">
<ele>114.20000000000005</ele>
<time>2023-05-17T12:13:40Z</time>
</trkpt>
<trkpt lat="49.09026699140668" lon="8.425889974460006">
<ele>114.20000000000005</ele>
<time>2023-05-17T12:13:41Z</time>
</trkpt>
<trkpt lat="49.09026992507279" lon="8.425817973911762">
<ele>114.20000000000005</ele>
<time>2023-05-17T12:13:42Z</time>
</trkpt>
<trkpt lat="49.09027495421469" lon="8.425742955878377">
<ele>114.20000000000005</ele>
<time>2023-05-17T12:13:43Z</time>
</trkpt>
<trkpt lat="49.090281995013356" lon="8.425666932016611">
<ele>114.20000000000005</ele>
<time>2023-05-17T12:13:44Z</time>
</trkpt>
<trkpt lat="49.09028794616461" lon="8.425591997802258">
<ele>114.20000000000005</ele>
<time>2023-05-17T12:13:45Z</time>
</trkpt>
<trkpt lat="49.09029498696327" lon="8.42551195062697">
<ele>114.20000000000005</ele>
<time>2023-05-17T12:13:46Z</time>
</trkpt>
<trkpt lat="49.09029993228614" lon="8.425431987270713">
<ele>114.20000000000005</ele>
<time>2023-05-17T12:13:47Z</time>
</trkpt>
<trkpt lat="49.09030797891319" lon="8.425347916781902">
<ele>114.20000000000005</ele>
<time>2023-05-17T12:13:48Z</time>
</trkpt>
<trkpt lat="49.09031795337796" lon="8.425269965082407">
<ele>114.20000000000005</ele>
<time>2023-05-17T12:13:49Z</time>
</trkpt>
<trkpt lat="49.090324994176626" lon="8.42519192956388">
<ele>114.20000000000005</ele>
<time>2023-05-17T12:13:50Z</time>
</trkpt>
<trkpt lat="49.0903299394995" lon="8.425111966207623">
<ele>114.20000000000005</ele>
<time>2023-05-17T12:13:51Z</time>
</trkpt>
<trkpt lat="49.09033698029816" lon="8.425029991194606">
<ele>114.20000000000005</ele>
<time>2023-05-17T12:13:52Z</time>
</trkpt>
<trkpt lat="49.090344943106174" lon="8.424951955676079">
<ele>114.20000000000005</ele>
<time>2023-05-17T12:13:53Z</time>
</trkpt>
<trkpt lat="49.09034997224808" lon="8.424887917935848">
<ele>114.20000000000005</ele>
<time>2023-05-17T12:13:54Z</time>
</trkpt>
<trkpt lat="49.09035793505609" lon="8.424816923215985">
<ele>114.20000000000005</ele>
<time>2023-05-17T12:13:55Z</time>
</trkpt>
<trkpt lat="49.090366987511516" lon="8.424746934324503">
<ele>114.20000000000005</ele>
<time>2023-05-17T12:13:56Z</time>
</trkpt>
<trkpt lat="49.09037796780467" lon="8.424669988453388">
<ele>114.20000000000005</ele>
<time>2023-05-17T12:13:57Z</time>
</trkpt>
<trkpt lat="49.090386936441064" lon="8.424592958763242">
<ele>114.20000000000005</ele>
<time>2023-05-17T12:13:58Z</time>
</trkpt>
<trkpt lat="49.09039196558297" lon="8.424527999013662">
<ele>114.20000000000005</ele>
<time>2023-05-17T12:13:59Z</time>
</trkpt>
<trkpt lat="49.09040194004774" lon="8.424471924081445">
<ele>114.20000000000005</ele>
<time>2023-05-17T12:14:00Z</time>
</trkpt>
<trkpt lat="49.090406969189644" lon="8.424411993473768">
<ele>114.20000000000005</ele>
<time>2023-05-17T12:14:01Z</time>
</trkpt>
<trkpt lat="49.090407975018024" lon="8.424357930198312">
<ele>114.20000000000005</ele>
<time>2023-05-17T12:14:02Z</time>
</trkpt>
<trkpt lat="49.09041694365442" lon="8.424301939085126">
<ele>114.20000000000005</ele>
<time>2023-05-17T12:14:03Z</time>
</trkpt>
<trkpt lat="49.09041996113956" lon="8.424249971285462">
<ele>114.20000000000005</ele>
<time>2023-05-17T12:14:04Z</time>
</trkpt>
<trkpt lat="49.09042499028146" lon="8.424199931323528">
<ele>114.20000000000005</ele>
<time>2023-05-17T12:14:05Z</time>
</trkpt>
<trkpt lat="49.09042499028146" lon="8.424152992665768">
<ele>114.20000000000005</ele>
<time>2023-05-17T12:14:06Z</time>
</trkpt>
<trkpt lat="49.09042691811919" lon="8.424104964360595">
<ele>114.20000000000005</ele>
<time>2023-05-17T12:14:07Z</time>
</trkpt>
<trkpt lat="49.090429935604334" lon="8.424062971025705">
<ele>114.20000000000005</ele>
<time>2023-05-17T12:14:08Z</time>
</trkpt>
<trkpt lat="49.090429935604334" lon="8.424019971862435">
<ele>114.20000000000005</ele>
<time>2023-05-17T12:14:09Z</time>
</trkpt>
<trkpt lat="49.090429935604334" lon="8.423977978527546">
<ele>114.20000000000005</ele>
<time>2023-05-17T12:14:10Z</time>
</trkpt>
<trkpt lat="49.090431947261095" lon="8.423942942172289">
<ele>114.20000000000005</ele>
<time>2023-05-17T12:14:11Z</time>
</trkpt>
<trkpt lat="49.09043798223138" lon="8.42390296049416">
<ele>114.20000000000005</ele>
<time>2023-05-17T12:14:12Z</time>
</trkpt>
<trkpt lat="49.09044292755425" lon="8.423864990472794">
<ele>114.20000000000005</ele>
<time>2023-05-17T12:14:13Z</time>
</trkpt>
<trkpt lat="49.090449968352914" lon="8.423829954117537">
<ele>114.20000000000005</ele>
<time>2023-05-17T12:14:14Z</time>
</trkpt>
<trkpt lat="49.09045499749482" lon="8.423797935247421">
<ele>114.20000000000005</ele>
<time>2023-05-17T12:14:15Z</time>
</trkpt>
<trkpt lat="49.09045793116093" lon="8.423766922205687">
<ele>114.20000000000005</ele>
<time>2023-05-17T12:14:16Z</time>
</trkpt>
<trkpt lat="49.09046497195959" lon="8.423732975497842">
<ele>114.20000000000005</ele>
<time>2023-05-17T12:14:17Z</time>
</trkpt>
<trkpt lat="49.09047192893922" lon="8.423702968284488">
<ele>114.20000000000005</ele>
<time>2023-05-17T12:14:18Z</time>
</trkpt>
<trkpt lat="49.090474946424365" lon="8.423676984384656">
<ele>114.20000000000005</ele>
<time>2023-05-17T12:14:19Z</time>
</trkpt>
<trkpt lat="49.09047796390951" lon="8.423646977171302">
<ele>114.20000000000005</ele>
<time>2023-05-17T12:14:20Z</time>
</trkpt>
<trkpt lat="49.09047997556627" lon="8.423612946644425">
<ele>114.20000000000005</ele>
<time>2023-05-17T12:14:21Z</time>
</trkpt>
<trkpt lat="49.09048299305141" lon="8.423582939431071">
<ele>114.20000000000005</ele>
<time>2023-05-17T12:14:22Z</time>
</trkpt>
<trkpt lat="49.0904869325459" lon="8.423551926389337">
<ele>114.20000000000005</ele>
<time>2023-05-17T12:14:23Z</time>
</trkpt>
<trkpt lat="49.0904919616878" lon="8.423521919175982">
<ele>114.20000000000005</ele>
<time>2023-05-17T12:14:24Z</time>
</trkpt>
<trkpt lat="49.09049799665809" lon="8.42349492944777">
<ele>114.20000000000005</ele>
<time>2023-05-17T12:14:25Z</time>
</trkpt>
<trkpt lat="49.09050495363772" lon="8.42347196303308">
<ele>114.20000000000005</ele>
<time>2023-05-17T12:14:26Z</time>
</trkpt>
<trkpt lat="49.09050696529448" lon="8.42344799079001">
<ele>114.20000000000005</ele>
<time>2023-05-17T12:14:27Z</time>
</trkpt>
<trkpt lat="49.09050696529448" lon="8.423437932506204">
<ele>114.20000000000005</ele>
<time>2023-05-17T12:14:28Z</time>
</trkpt>
<trkpt lat="49.09050696529448" lon="8.423436926677823">
<ele>114.20000000000005</ele>
<time>2023-05-17T12:14:29Z</time>
</trkpt>
<trkpt lat="49.09050696529448" lon="8.423437932506204">
<ele>114.20000000000005</ele>
<time>2023-05-17T12:14:30Z</time>
</trkpt>
<trkpt lat="49.090539989992976" lon="8.423446984961629">
<ele>114.20000000000005</ele>
<time>2023-05-17T12:14:30Z</time>
</trkpt>
<trkpt lat="49.09055298194289" lon="8.423436926677823">
<ele>114</ele>
<time>2023-05-17T12:14:31Z</time>
</trkpt>
<trkpt lat="49.09056798554957" lon="8.423412954434752">
<ele>114</ele>
<time>2023-05-17T12:14:32Z</time>
</trkpt>
<trkpt lat="49.0905749425292" lon="8.42338697053492">
<ele>114</ele>
<time>2023-05-17T12:14:33Z</time>
</trkpt>
<trkpt lat="49.09057796001434" lon="8.42336199246347">
<ele>114</ele>
<time>2023-05-17T12:14:34Z</time>
</trkpt>
<trkpt lat="49.090581983327866" lon="8.423331985250115">
<ele>114</ele>
<time>2023-05-17T12:14:35Z</time>
</trkpt>
<trkpt lat="49.09058692865074" lon="8.423306923359632">
<ele>114</ele>
<time>2023-05-17T12:14:36Z</time>
</trkpt>
<trkpt lat="49.09059698693454" lon="8.423284962773323">
<ele>114</ele>
<time>2023-05-17T12:14:37Z</time>
</trkpt>
<trkpt lat="49.0906129963696" lon="8.423266941681504">
<ele>113.79999999999995</ele>
<time>2023-05-17T12:14:38Z</time>
</trkpt>
<trkpt lat="49.09062799997628" lon="8.423251938074827">
<ele>113.79999999999995</ele>
<time>2023-05-17T12:14:39Z</time>
</trkpt>
<trkpt lat="49.09064291976392" lon="8.42323794029653">
<ele>113.79999999999995</ele>
<time>2023-05-17T12:14:40Z</time>
</trkpt>
<trkpt lat="49.09065993502736" lon="8.423216985538602">
<ele>113.60000000000002</ele>
<time>2023-05-17T12:14:41Z</time>
</trkpt>
<trkpt lat="49.090666975826025" lon="8.42319494113326">
<ele>113.60000000000002</ele>
<time>2023-05-17T12:14:42Z</time>
</trkpt>
<trkpt lat="49.090664964169264" lon="8.423184966668487">
<ele>113.60000000000002</ele>
<time>2023-05-17T12:14:43Z</time>
</trkpt>
<trkpt lat="49.090664964169264" lon="8.423182955011725">
<ele>113.60000000000002</ele>
<time>2023-05-17T12:14:44Z</time>
</trkpt>
<trkpt lat="49.090664964169264" lon="8.423184966668487">
<ele>113.60000000000002</ele>
<time>2023-05-17T12:14:45Z</time>
</trkpt>
<trkpt lat="49.090664964169264" lon="8.423186978325248">
<ele>113.39999999999998</ele>
<time>2023-05-17T12:14:45Z</time>
</trkpt>
<trkpt lat="49.0906629525125" lon="8.423174992203712">
<ele>113.60000000000002</ele>
<time>2023-05-17T12:14:47Z</time>
</trkpt>
<trkpt lat="49.09066194668412" lon="8.423159988597035">
<ele>113.60000000000002</ele>
<time>2023-05-17T12:14:48Z</time>
</trkpt>
<trkpt lat="49.09065993502736" lon="8.423139955848455">
<ele>113.60000000000002</ele>
<time>2023-05-17T12:14:49Z</time>
</trkpt>
<trkpt lat="49.09066194668412" lon="8.42310793697834">
<ele>113.60000000000002</ele>
<time>2023-05-17T12:14:50Z</time>
</trkpt>
<trkpt lat="49.090667981654406" lon="8.423066949471831">
<ele>113.60000000000002</ele>
<time>2023-05-17T12:14:51Z</time>
</trkpt>
<trkpt lat="49.0906769502908" lon="8.42302294448018">
<ele>113.60000000000002</ele>
<time>2023-05-17T12:14:52Z</time>
</trkpt>
<trkpt lat="49.09067996777594" lon="8.422969970852137">
<ele>113.60000000000002</ele>
<time>2023-05-17T12:14:53Z</time>
</trkpt>
<trkpt lat="49.090684996917844" lon="8.422914985567331">
<ele>113.60000000000002</ele>
<time>2023-05-17T12:14:54Z</time>
</trkpt>
<trkpt lat="49.090689942240715" lon="8.422856982797384">
<ele>113.60000000000002</ele>
<time>2023-05-17T12:14:55Z</time>
</trkpt>
<trkpt lat="49.09069497138262" lon="8.422794956713915">
<ele>113.60000000000002</ele>
<time>2023-05-17T12:14:56Z</time>
</trkpt>
<trkpt lat="49.09070293419063" lon="8.422732930630445">
<ele>113.60000000000002</ele>
<time>2023-05-17T12:14:57Z</time>
</trkpt>
<trkpt lat="49.090711986646056" lon="8.422664953395724">
<ele>113.60000000000002</ele>
<time>2023-05-17T12:14:58Z</time>
</trkpt>
<trkpt lat="49.09072196111083" lon="8.42259295284748">
<ele>113.60000000000002</ele>
<time>2023-05-17T12:14:59Z</time>
</trkpt>
<trkpt lat="49.090734953060746" lon="8.422516928985715">
<ele>113.60000000000002</ele>
<time>2023-05-17T12:15:00Z</time>
</trkpt>
<trkpt lat="49.09074995666742" lon="8.42244291678071">
<ele>113.60000000000002</ele>
<time>2023-05-17T12:15:01Z</time>
</trkpt>
<trkpt lat="49.09076294861734" lon="8.422371922060847">
<ele>113.60000000000002</ele>
<time>2023-05-17T12:15:02Z</time>
</trkpt>
<trkpt lat="49.09077292308211" lon="8.422301933169365">
<ele>113.60000000000002</ele>
<time>2023-05-17T12:15:03Z</time>
</trkpt>
<trkpt lat="49.09078692086041" lon="8.422226998955011">
<ele>113.60000000000002</ele>
<time>2023-05-17T12:15:04Z</time>
</trkpt>
<trkpt lat="49.09080494195223" lon="8.422147957608104">
<ele>113.60000000000002</ele>
<time>2023-05-17T12:15:05Z</time>
</trkpt>
<trkpt lat="49.09082195721567" lon="8.422062965109944">
<ele>113.60000000000002</ele>
<time>2023-05-17T12:15:06Z</time>
</trkpt>
<trkpt lat="49.090837966650724" lon="8.421977972611785">
<ele>113.60000000000002</ele>
<time>2023-05-17T12:15:07Z</time>
</trkpt>
<trkpt lat="49.090856993570924" lon="8.421892980113626">
<ele>113.60000000000002</ele>
<time>2023-05-17T12:15:08Z</time>
</trkpt>
<trkpt lat="49.09087493084371" lon="8.421806981787086">
<ele>113.60000000000002</ele>
<time>2023-05-17T12:15:09Z</time>
</trkpt>
<trkpt lat="49.09089496359229" lon="8.4217129368335">
<ele>113.60000000000002</ele>
<time>2023-05-17T12:15:10Z</time>
</trkpt>
<trkpt lat="49.09091499634087" lon="8.42162199318409">
<ele>113.60000000000002</ele>
<time>2023-05-17T12:15:11Z</time>
</trkpt>
<trkpt lat="49.09093494527042" lon="8.421526942402124">
<ele>113.79999999999995</ele>
<time>2023-05-17T12:15:12Z</time>
</trkpt>
<trkpt lat="49.09095698967576" lon="8.42143197543919">
<ele>113.79999999999995</ele>
<time>2023-05-17T12:15:13Z</time>
</trkpt>
<trkpt lat="49.09097794443369" lon="8.421337930485606">
<ele>113.79999999999995</ele>
<time>2023-05-17T12:15:14Z</time>
</trkpt>
<trkpt lat="49.09099797718227" lon="8.421242963522673">
<ele>113.79999999999995</ele>
<time>2023-05-17T12:15:15Z</time>
</trkpt>
<trkpt lat="49.09102194942534" lon="8.421149924397469">
<ele>113.79999999999995</ele>
<time>2023-05-17T12:15:16Z</time>
</trkpt>
<trkpt lat="49.09104692749679" lon="8.421059986576438">
<ele>113.79999999999995</ele>
<time>2023-05-17T12:15:17Z</time>
</trkpt>
<trkpt lat="49.091072995215654" lon="8.420974994078279">
<ele>113.79999999999995</ele>
<time>2023-05-17T12:15:18Z</time>
</trkpt>
<trkpt lat="49.09109998494387" lon="8.420891929417849">
<ele>113.79999999999995</ele>
<time>2023-05-17T12:15:19Z</time>
</trkpt>
<trkpt lat="49.09112999215722" lon="8.42080794274807">
<ele>113.79999999999995</ele>
<time>2023-05-17T12:15:20Z</time>
</trkpt>
<trkpt lat="49.091157987713814" lon="8.42072295024991">
<ele>113.79999999999995</ele>
<time>2023-05-17T12:15:21Z</time>
</trkpt>
<trkpt lat="49.0911899227649" lon="8.420641981065273">
<ele>113.79999999999995</ele>
<time>2023-05-17T12:15:22Z</time>
</trkpt>
<trkpt lat="49.09121992997825" lon="8.420554976910353">
<ele>113.79999999999995</ele>
<time>2023-05-17T12:15:23Z</time>
</trkpt>
<trkpt lat="49.091249937191606" lon="8.420469984412193">
<ele>113.79999999999995</ele>
<time>2023-05-17T12:15:24Z</time>
</trkpt>
<trkpt lat="49.09127692691982" lon="8.420386919751763">
<ele>113.79999999999995</ele>
<time>2023-05-17T12:15:25Z</time>
</trkpt>
<trkpt lat="49.09130299463868" lon="8.420306956395507">
<ele>113.79999999999995</ele>
<time>2023-05-17T12:15:26Z</time>
</trkpt>
<trkpt lat="49.091332918033004" lon="8.420221963897347">
<ele>113.79999999999995</ele>
<time>2023-05-17T12:15:27Z</time>
</trkpt>
<trkpt lat="49.09136292524636" lon="8.42014292255044">
<ele>113.79999999999995</ele>
<time>2023-05-17T12:15:28Z</time>
</trkpt>
<trkpt lat="49.09139192663133" lon="8.42005793005228">
<ele>113.79999999999995</ele>
<time>2023-05-17T12:15:29Z</time>
</trkpt>
<trkpt lat="49.091419922187924" lon="8.419972937554121">
<ele>113.79999999999995</ele>
<time>2023-05-17T12:15:30Z</time>
</trkpt>
<trkpt lat="49.09144992940128" lon="8.419891968369484">
<ele>114</ele>
<time>2023-05-17T12:15:31Z</time>
</trkpt>
<trkpt lat="49.09147691912949" lon="8.419807981699705">
<ele>114</ele>
<time>2023-05-17T12:15:32Z</time>
</trkpt>
<trkpt lat="49.091504998505116" lon="8.419724917039275">
<ele>114</ele>
<time>2023-05-17T12:15:33Z</time>
</trkpt>
<trkpt lat="49.09153198823333" lon="8.419642942026258">
<ele>114</ele>
<time>2023-05-17T12:15:34Z</time>
</trkpt>
<trkpt lat="49.09155797213316" lon="8.419557949528098">
<ele>114</ele>
<time>2023-05-17T12:15:35Z</time>
</trkpt>
<trkpt lat="49.09158194437623" lon="8.419471951201558">
<ele>114</ele>
<time>2023-05-17T12:15:36Z</time>
</trkpt>
<trkpt lat="49.09160499460995" lon="8.419384947046638">
<ele>114</ele>
<time>2023-05-17T12:15:37Z</time>
</trkpt>
<trkpt lat="49.0916299726814" lon="8.41930196620524">
<ele>114</ele>
<time>2023-05-17T12:15:38Z</time>
</trkpt>
<trkpt lat="49.091654950752854" lon="8.41921797953546">
<ele>114</ele>
<time>2023-05-17T12:15:39Z</time>
</trkpt>
<trkpt lat="49.091676995158195" lon="8.419137932360172">
<ele>114</ele>
<time>2023-05-17T12:15:40Z</time>
</trkpt>
<trkpt lat="49.091697949916124" lon="8.419056963175535">
<ele>114</ele>
<time>2023-05-17T12:15:41Z</time>
</trkpt>
<trkpt lat="49.091722927987576" lon="8.418974988162518">
<ele>114</ele>
<time>2023-05-17T12:15:42Z</time>
</trkpt>
<trkpt lat="49.09174698404968" lon="8.418892929330468">
<ele>114</ele>
<time>2023-05-17T12:15:43Z</time>
</trkpt>
<trkpt lat="49.09177196212113" lon="8.418807936832309">
<ele>114</ele>
<time>2023-05-17T12:15:44Z</time>
</trkpt>
<trkpt lat="49.09179694019258" lon="8.41872495599091">
<ele>114</ele>
<time>2023-05-17T12:15:45Z</time>
</trkpt>
<trkpt lat="49.09181797876954" lon="8.418644992634654">
<ele>114</ele>
<time>2023-05-17T12:15:46Z</time>
</trkpt>
<trkpt lat="49.09183993935585" lon="8.418564945459366">
<ele>114</ele>
<time>2023-05-17T12:15:47Z</time>
</trkpt>
<trkpt lat="49.09185796044767" lon="8.41848699375987">
<ele>113.79999999999995</ele>
<time>2023-05-17T12:15:48Z</time>
</trkpt>
<trkpt lat="49.09187799319625" lon="8.41839998960495">
<ele>113.79999999999995</ele>
<time>2023-05-17T12:15:49Z</time>
</trkpt>
<trkpt lat="49.09189995378256" lon="8.418309967964888">
<ele>113.79999999999995</ele>
<time>2023-05-17T12:15:50Z</time>
</trkpt>
<trkpt lat="49.09191998653114" lon="8.418222963809967">
<ele>113.79999999999995</ele>
<time>2023-05-17T12:15:51Z</time>
</trkpt>
<trkpt lat="49.09194194711745" lon="8.418134953826666">
<ele>113.79999999999995</ele>
<time>2023-05-17T12:15:52Z</time>
</trkpt>
<trkpt lat="49.09196298569441" lon="8.418044932186604">
<ele>113.79999999999995</ele>
<time>2023-05-17T12:15:53Z</time>
</trkpt>
<trkpt lat="49.09198796376586" lon="8.417957928031683">
<ele>113.60000000000002</ele>
<time>2023-05-17T12:15:54Z</time>
</trkpt>
<trkpt lat="49.09201193600893" lon="8.417872935533524">
<ele>113.60000000000002</ele>
<time>2023-05-17T12:15:55Z</time>
</trkpt>
<trkpt lat="49.09203498624265" lon="8.417786937206984">
<ele>113.60000000000002</ele>
<time>2023-05-17T12:15:56Z</time>
</trkpt>
<trkpt lat="49.092062981799245" lon="8.417701944708824">
<ele>113.60000000000002</ele>
<time>2023-05-17T12:15:57Z</time>
</trkpt>
<trkpt lat="49.09209198318422" lon="8.417619969695807">
<ele>113.60000000000002</ele>
<time>2023-05-17T12:15:58Z</time>
</trkpt>
<trkpt lat="49.09212492406368" lon="8.417544951662421">
<ele>113.60000000000002</ele>
<time>2023-05-17T12:15:59Z</time>
</trkpt>
<trkpt lat="49.09215493127704" lon="8.417467921972275">
<ele>113.60000000000002</ele>
<time>2023-05-17T12:16:00Z</time>
</trkpt>
<trkpt lat="49.09218292683363" lon="8.41739198192954">
<ele>113.60000000000002</ele>
<time>2023-05-17T12:16:01Z</time>
</trkpt>
<trkpt lat="49.09220991656184" lon="8.417314952239394">
<ele>113.60000000000002</ele>
<time>2023-05-17T12:16:02Z</time>
</trkpt>
<trkpt lat="49.09223799593747" lon="8.417234988883138">
<ele>113.60000000000002</ele>
<time>2023-05-17T12:16:03Z</time>
</trkpt>
<trkpt lat="49.09226498566568" lon="8.417151924222708">
<ele>113.60000000000002</ele>
<time>2023-05-17T12:16:04Z</time>
</trkpt>
<trkpt lat="49.09229298122227" lon="8.41706994920969">
<ele>113.39999999999998</ele>
<time>2023-05-17T12:16:05Z</time>
</trkpt>
<trkpt lat="49.092322988435626" lon="8.416989985853434">
<ele>113.39999999999998</ele>
<time>2023-05-17T12:16:06Z</time>
</trkpt>
<trkpt lat="49.09234997816384" lon="8.416907927021384">
<ele>113.39999999999998</ele>
<time>2023-05-17T12:16:07Z</time>
</trkpt>
<trkpt lat="49.09237797372043" lon="8.41683198697865">
<ele>113.39999999999998</ele>
<time>2023-05-17T12:16:08Z</time>
</trkpt>
<trkpt lat="49.092404963448644" lon="8.416756968945265">
<ele>113.39999999999998</ele>
<time>2023-05-17T12:16:09Z</time>
</trkpt>
<trkpt lat="49.092429941520095" lon="8.416679939255118">
<ele>113.39999999999998</ele>
<time>2023-05-17T12:16:10Z</time>
</trkpt>
<trkpt lat="49.09245693124831" lon="8.416606932878494">
<ele>113.60000000000002</ele>
<time>2023-05-17T12:16:11Z</time>
</trkpt>
<trkpt lat="49.0924849268049" lon="8.416536943987012">
<ele>113.60000000000002</ele>
<time>2023-05-17T12:16:12Z</time>
</trkpt>
<trkpt lat="49.09251191653311" lon="8.416461925953627">
<ele>113.60000000000002</ele>
<time>2023-05-17T12:16:13Z</time>
</trkpt>
<trkpt lat="49.09253999590874" lon="8.416384980082512">
<ele>113.60000000000002</ele>
<time>2023-05-17T12:16:14Z</time>
</trkpt>
<trkpt lat="49.09256698563695" lon="8.416306944563985">
<ele>113.60000000000002</ele>
<time>2023-05-17T12:16:15Z</time>
</trkpt>
<trkpt lat="49.09259296953678" lon="8.41623293235898">
<ele>113.60000000000002</ele>
<time>2023-05-17T12:16:16Z</time>
</trkpt>
<trkpt lat="49.092622976750135" lon="8.416157998144627">
<ele>113.60000000000002</ele>
<time>2023-05-17T12:16:17Z</time>
</trkpt>
<trkpt lat="49.09265197813511" lon="8.416082980111241">
<ele>113.60000000000002</ele>
<time>2023-05-17T12:16:18Z</time>
</trkpt>
<trkpt lat="49.0926799736917" lon="8.415999999269843">
<ele>113.60000000000002</ele>
<time>2023-05-17T12:16:19Z</time>
</trkpt>
<trkpt lat="49.092709980905056" lon="8.415917940437794">
<ele>113.60000000000002</ele>
<time>2023-05-17T12:16:20Z</time>
</trkpt>
<trkpt lat="49.09274199977517" lon="8.415836971253157">
<ele>113.60000000000002</ele>
<time>2023-05-17T12:16:21Z</time>
</trkpt>
<trkpt lat="49.092772928997874" lon="8.415752984583378">
<ele>113.60000000000002</ele>
<time>2023-05-17T12:16:22Z</time>
</trkpt>
<trkpt lat="49.09280494786799" lon="8.41567494906485">
<ele>113.60000000000002</ele>
<time>2023-05-17T12:16:23Z</time>
</trkpt>
<trkpt lat="49.092834955081344" lon="8.415594985708594">
<ele>113.79999999999995</ele>
<time>2023-05-17T12:16:24Z</time>
</trkpt>
<trkpt lat="49.09286697395146" lon="8.415516950190067">
<ele>113.79999999999995</ele>
<time>2023-05-17T12:16:25Z</time>
</trkpt>
<trkpt lat="49.09289698116481" lon="8.41543698683381">
<ele>113.79999999999995</ele>
<time>2023-05-17T12:16:26Z</time>
</trkpt>
<trkpt lat="49.09292698837817" lon="8.415354928001761">
<ele>113.79999999999995</ele>
<time>2023-05-17T12:16:27Z</time>
</trkpt>
<trkpt lat="49.09295699559152" lon="8.415277982130647">
<ele>113.79999999999995</ele>
<time>2023-05-17T12:16:28Z</time>
</trkpt>
<trkpt lat="49.092984991148114" lon="8.41520195826888">
<ele>113.79999999999995</ele>
<time>2023-05-17T12:16:29Z</time>
</trkpt>
<trkpt lat="49.09301298670471" lon="8.415124928578734">
<ele>114</ele>
<time>2023-05-17T12:16:30Z</time>
</trkpt>
<trkpt lat="49.09304299391806" lon="8.41504999436438">
<ele>114</ele>
<time>2023-05-17T12:16:31Z</time>
</trkpt>
<trkpt lat="49.093072917312384" lon="8.414974976330996">
<ele>114</ele>
<time>2023-05-17T12:16:32Z</time>
</trkpt>
<trkpt lat="49.09310292452574" lon="8.414901969954371">
<ele>114</ele>
<time>2023-05-17T12:16:33Z</time>
</trkpt>
<trkpt lat="49.09313192591071" lon="8.414829969406128">
<ele>114</ele>
<time>2023-05-17T12:16:34Z</time>
</trkpt>
<trkpt lat="49.093161933124065" lon="8.414761992171407">
<ele>114</ele>
<time>2023-05-17T12:16:35Z</time>
</trkpt>
<trkpt lat="49.09318992868066" lon="8.414696948602796">
<ele>114</ele>
<time>2023-05-17T12:16:36Z</time>
</trkpt>
<trkpt lat="49.09321499057114" lon="8.414632994681597">
<ele>114</ele>
<time>2023-05-17T12:16:37Z</time>
</trkpt>
<trkpt lat="49.09323795698583" lon="8.41457499191165">
<ele>114</ele>
<time>2023-05-17T12:16:38Z</time>
</trkpt>
<trkpt lat="49.09325698390603" lon="8.414519922807813">
<ele>114.20000000000005</ele>
<time>2023-05-17T12:16:39Z</time>
</trkpt>
<trkpt lat="49.09326997585595" lon="8.414471978321671">
<ele>114.20000000000005</ele>
<time>2023-05-17T12:16:40Z</time>
</trkpt>
<trkpt lat="49.09327793866396" lon="8.41442696750164">
<ele>114.20000000000005</ele>
<time>2023-05-17T12:16:41Z</time>
</trkpt>
<trkpt lat="49.093286991119385" lon="8.414379945024848">
<ele>114.39999999999998</ele>
<time>2023-05-17T12:16:42Z</time>
</trkpt>
<trkpt lat="49.09329294227064" lon="8.414327977225184">
<ele>114.39999999999998</ele>
<time>2023-05-17T12:16:43Z</time>
</trkpt>
<trkpt lat="49.09330291673541" lon="8.414266956970096">
<ele>114.60000000000002</ele>
<time>2023-05-17T12:16:44Z</time>
</trkpt>
<trkpt lat="49.09331699833274" lon="8.414204930886626">
<ele>114.60000000000002</ele>
<time>2023-05-17T12:16:45Z</time>
</trkpt>
<trkpt lat="49.093334935605526" lon="8.414137959480286">
<ele>114.79999999999995</ele>
<time>2023-05-17T12:16:46Z</time>
</trkpt>
<trkpt lat="49.09335798583925" lon="8.414072999730706">
<ele>114.79999999999995</ele>
<time>2023-05-17T12:16:47Z</time>
</trkpt>
<trkpt lat="49.093397967517376" lon="8.41401499696076">
<ele>115</ele>
<time>2023-05-17T12:16:48Z</time>
</trkpt>
<trkpt lat="49.09343199804425" lon="8.413962945342064">
<ele>115.20000000000005</ele>
<time>2023-05-17T12:16:49Z</time>
</trkpt>
<trkpt lat="49.093457981944084" lon="8.413936961442232">
<ele>115.39999999999998</ele>
<time>2023-05-17T12:16:50Z</time>
</trkpt>
<trkpt lat="49.093479942530394" lon="8.413919946178794">
<ele>115.60000000000002</ele>
<time>2023-05-17T12:16:51Z</time>
</trkpt>
<trkpt lat="49.09349494613707" lon="8.413911983370781">
<ele>115.60000000000002</ele>
<time>2023-05-17T12:16:52Z</time>
</trkpt>
<trkpt lat="49.09351296722889" lon="8.413899997249246">
<ele>115.79999999999995</ele>
<time>2023-05-17T12:16:53Z</time>
</trkpt>
<trkpt lat="49.0935349278152" lon="8.413881976157427">
<ele>116</ele>
<time>2023-05-17T12:16:54Z</time>
</trkpt>
<trkpt lat="49.09356191754341" lon="8.413851968944073">
<ele>116</ele>
<time>2023-05-17T12:16:55Z</time>
</trkpt>
<trkpt lat="49.093587985262275" lon="8.413807963952422">
<ele>116</ele>
<time>2023-05-17T12:16:56Z</time>
</trkpt>
<trkpt lat="49.093609945848584" lon="8.413754990324378">
<ele>116.20000000000005</ele>
<time>2023-05-17T12:16:57Z</time>
</trkpt>
<trkpt lat="49.09362494945526" lon="8.413689946755767">
<ele>116.20000000000005</ele>
<time>2023-05-17T12:16:58Z</time>
</trkpt>
<trkpt lat="49.09363794140518" lon="8.413619957864285">
<ele>116.20000000000005</ele>
<time>2023-05-17T12:16:59Z</time>
</trkpt>
<trkpt lat="49.09364799968898" lon="8.413547957316041">
<ele>116.39999999999998</ele>
<time>2023-05-17T12:17:00Z</time>
</trkpt>
<trkpt lat="49.09365696832538" lon="8.413476962596178">
<ele>116.39999999999998</ele>
<time>2023-05-17T12:17:01Z</time>
</trkpt>
<trkpt lat="49.09366493113339" lon="8.413399932906032">
<ele>116.60000000000002</ele>
<time>2023-05-17T12:17:02Z</time>
</trkpt>
<trkpt lat="49.093672977760434" lon="8.413324998691678">
<ele>116.79999999999995</ele>
<time>2023-05-17T12:17:03Z</time>
</trkpt>
<trkpt lat="49.09368295222521" lon="8.413249980658293">
<ele>116.79999999999995</ele>
<time>2023-05-17T12:17:04Z</time>
</trkpt>
<trkpt lat="49.093696950003505" lon="8.413174962624907">
<ele>117</ele>
<time>2023-05-17T12:17:05Z</time>
</trkpt>
<trkpt lat="49.09371195361018" lon="8.413101956248283">
<ele>117</ele>
<time>2023-05-17T12:17:06Z</time>
</trkpt>
<trkpt lat="49.093729974702" lon="8.413031967356801">
<ele>117.20000000000005</ele>
<time>2023-05-17T12:17:07Z</time>
</trkpt>
<trkpt lat="49.09374799579382" lon="8.412961978465319">
<ele>117.20000000000005</ele>
<time>2023-05-17T12:17:08Z</time>
</trkpt>
<trkpt lat="49.09376693889499" lon="8.412889977917075">
<ele>117.39999999999998</ele>
<time>2023-05-17T12:17:09Z</time>
</trkpt>
<trkpt lat="49.093784959986806" lon="8.412821916863322">
<ele>117.39999999999998</ele>
<time>2023-05-17T12:17:10Z</time>
</trkpt>
<trkpt lat="49.093806920573115" lon="8.412754945456982">
<ele>117.60000000000002</ele>
<time>2023-05-17T12:17:11Z</time>
</trkpt>
<trkpt lat="49.093824941664934" lon="8.412691997364163">
<ele>117.60000000000002</ele>
<time>2023-05-17T12:17:12Z</time>
</trkpt>
<trkpt lat="49.09384296275675" lon="8.412627959623933">
<ele>117.79999999999995</ele>
<time>2023-05-17T12:17:13Z</time>
</trkpt>
<trkpt lat="49.09386198967695" lon="8.412562999874353">
<ele>118</ele>
<time>2023-05-17T12:17:14Z</time>
</trkpt>
<trkpt lat="49.09387992694974" lon="8.412497956305742">
<ele>118.20000000000005</ele>
<time>2023-05-17T12:17:15Z</time>
</trkpt>
<trkpt lat="49.09389794804156" lon="8.412436936050653">
<ele>118.39999999999998</ele>
<time>2023-05-17T12:17:16Z</time>
</trkpt>
<trkpt lat="49.09391697496176" lon="8.412372982129455">
<ele>118.60000000000002</ele>
<time>2023-05-17T12:17:17Z</time>
</trkpt>
<trkpt lat="49.093936923891306" lon="8.412312967702746">
<ele>118.79999999999995</ele>
<time>2023-05-17T12:17:18Z</time>
</trkpt>
<trkpt lat="49.093952933326364" lon="8.4122549649328">
<ele>118.79999999999995</ele>
<time>2023-05-17T12:17:19Z</time>
</trkpt>
<trkpt lat="49.09396793693304" lon="8.412197967991233">
<ele>119</ele>
<time>2023-05-17T12:17:20Z</time>
</trkpt>
<trkpt lat="49.09398193471134" lon="8.412137953564525">
<ele>119</ele>
<time>2023-05-17T12:17:21Z</time>
</trkpt>
<trkpt lat="49.09399299882352" lon="8.412081962451339">
<ele>119</ele>
<time>2023-05-17T12:17:22Z</time>
</trkpt>
<trkpt lat="49.09400498494506" lon="8.412027982994914">
<ele>119.20000000000005</ele>
<time>2023-05-17T12:17:23Z</time>
</trkpt>
<trkpt lat="49.094017976894975" lon="8.411971991881728">
<ele>119</ele>
<time>2023-05-17T12:17:24Z</time>
</trkpt>
<trkpt lat="49.09403298050165" lon="8.411914994940162">
<ele>119</ele>
<time>2023-05-17T12:17:25Z</time>
</trkpt>
<trkpt lat="49.09404999576509" lon="8.411859925836325">
<ele>119</ele>
<time>2023-05-17T12:17:26Z</time>
</trkpt>
<trkpt lat="49.094061981886625" lon="8.411807958036661">
<ele>118.79999999999995</ele>
<time>2023-05-17T12:17:27Z</time>
</trkpt>
<trkpt lat="49.0940769854933" lon="8.411751966923475">
<ele>118.79999999999995</ele>
<time>2023-05-17T12:17:28Z</time>
</trkpt>
<trkpt lat="49.09409299492836" lon="8.411699999123812">
<ele>118.79999999999995</ele>
<time>2023-05-17T12:17:29Z</time>
</trkpt>
<trkpt lat="49.09411193802953" lon="8.411644930019975">
<ele>118.60000000000002</ele>
<time>2023-05-17T12:17:30Z</time>
</trkpt>
<trkpt lat="49.094127947464585" lon="8.411584999412298">
<ele>118.60000000000002</ele>
<time>2023-05-17T12:17:31Z</time>
</trkpt>
<trkpt lat="49.09414194524288" lon="8.411522973328829">
<ele>118.60000000000002</ele>
<time>2023-05-17T12:17:32Z</time>
</trkpt>
<trkpt lat="49.094151919707656" lon="8.411459941416979">
<ele>118.60000000000002</ele>
<time>2023-05-17T12:17:33Z</time>
</trkpt>
<trkpt lat="49.09416298381984" lon="8.41139699332416">
<ele>118.60000000000002</ele>
<time>2023-05-17T12:17:34Z</time>
</trkpt>
<trkpt lat="49.09417698159814" lon="8.411327926442027">
<ele>118.60000000000002</ele>
<time>2023-05-17T12:17:35Z</time>
</trkpt>
<trkpt lat="49.094189973548055" lon="8.411264978349209">
<ele>118.60000000000002</ele>
<time>2023-05-17T12:17:36Z</time>
</trkpt>
<trkpt lat="49.09420698881149" lon="8.411196917295456">
<ele>118.39999999999998</ele>
<time>2023-05-17T12:17:37Z</time>
</trkpt>
<trkpt lat="49.09422492608428" lon="8.411127934232354">
<ele>118.39999999999998</ele>
<time>2023-05-17T12:17:38Z</time>
</trkpt>
<trkpt lat="49.09424194134772" lon="8.411059956997633">
<ele>118.20000000000005</ele>
<time>2023-05-17T12:17:39Z</time>
</trkpt>
<trkpt lat="49.094256944954395" lon="8.410992985591292">
<ele>118.20000000000005</ele>
<time>2023-05-17T12:17:40Z</time>
</trkpt>
<trkpt lat="49.09426792524755" lon="8.41092299669981">
<ele>118</ele>
<time>2023-05-17T12:17:41Z</time>
</trkpt>
<trkpt lat="49.09428292885423" lon="8.410856947302818">
<ele>118</ele>
<time>2023-05-17T12:17:42Z</time>
</trkpt>
<trkpt lat="49.09429692663252" lon="8.410789975896478">
<ele>117.79999999999995</ele>
<time>2023-05-17T12:17:43Z</time>
</trkpt>
<trkpt lat="49.09430991858244" lon="8.410724932327867">
<ele>117.79999999999995</ele>
<time>2023-05-17T12:17:44Z</time>
</trkpt>
<trkpt lat="49.09432299435139" lon="8.410664917901158">
<ele>117.79999999999995</ele>
<time>2023-05-17T12:17:45Z</time>
</trkpt>
<trkpt lat="49.09433699212968" lon="8.410599958151579">
<ele>117.60000000000002</ele>
<time>2023-05-17T12:17:46Z</time>
</trkpt>
<trkpt lat="49.09435199573636" lon="8.410536926239729">
<ele>117.60000000000002</ele>
<time>2023-05-17T12:17:47Z</time>
</trkpt>
<trkpt lat="49.09436699934304" lon="8.41047196649015">
<ele>117.39999999999998</ele>
<time>2023-05-17T12:17:48Z</time>
</trkpt>
<trkpt lat="49.09438191913068" lon="8.410407928749919">
<ele>117.39999999999998</ele>
<time>2023-05-17T12:17:49Z</time>
</trkpt>
<trkpt lat="49.09439792856574" lon="8.410341963171959">
<ele>117.20000000000005</ele>
<time>2023-05-17T12:17:50Z</time>
</trkpt>
<trkpt lat="49.09441192634404" lon="8.410272980108857">
<ele>117.20000000000005</ele>
<time>2023-05-17T12:17:51Z</time>
</trkpt>
<trkpt lat="49.09442491829395" lon="8.410204919055104">
<ele>117.20000000000005</ele>
<time>2023-05-17T12:17:52Z</time>
</trkpt>
<trkpt lat="49.09444293938577" lon="8.41013291850686">
<ele>117.20000000000005</ele>
<time>2023-05-17T12:17:53Z</time>
</trkpt>
<trkpt lat="49.09446196630597" lon="8.410057984292507">
<ele>117</ele>
<time>2023-05-17T12:17:54Z</time>
</trkpt>
<trkpt lat="49.09447797574103" lon="8.40997994877398">
<ele>117</ele>
<time>2023-05-17T12:17:55Z</time>
</trkpt>
<trkpt lat="49.09449499100447" lon="8.409897973760962">
<ele>117</ele>
<time>2023-05-17T12:17:56Z</time>
</trkpt>
<trkpt lat="49.09451192244887" lon="8.409814992919564">
<ele>116.79999999999995</ele>
<time>2023-05-17T12:17:57Z</time>
</trkpt>
<trkpt lat="49.09452793188393" lon="8.409731928259134">
<ele>116.60000000000002</ele>
<time>2023-05-17T12:17:58Z</time>
</trkpt>
<trkpt lat="49.09454494714737" lon="8.409646935760975">
<ele>116.60000000000002</ele>
<time>2023-05-17T12:17:59Z</time>
</trkpt>
<trkpt lat="49.09456497989595" lon="8.409561943262815">
<ele>116.39999999999998</ele>
<time>2023-05-17T12:18:00Z</time>
</trkpt>
<trkpt lat="49.0945849288255" lon="8.409476950764656">
<ele>116.20000000000005</ele>
<time>2023-05-17T12:18:01Z</time>
</trkpt>
<trkpt lat="49.094602949917316" lon="8.409391958266497">
<ele>116</ele>
<time>2023-05-17T12:18:02Z</time>
</trkpt>
<trkpt lat="49.094619965180755" lon="8.409307971596718">
<ele>115.79999999999995</ele>
<time>2023-05-17T12:18:03Z</time>
</trkpt>
<trkpt lat="49.09463496878743" lon="8.409226918593049">
<ele>115.60000000000002</ele>
<time>2023-05-17T12:18:04Z</time>
</trkpt>
<trkpt lat="49.09464997239411" lon="8.409144943580031">
<ele>115.39999999999998</ele>
<time>2023-05-17T12:18:05Z</time>
</trkpt>
<trkpt lat="49.094662964344025" lon="8.409064980223775">
<ele>115.20000000000005</ele>
<time>2023-05-17T12:18:06Z</time>
</trkpt>
<trkpt lat="49.09467997960746" lon="8.40898996219039">
<ele>115</ele>
<time>2023-05-17T12:18:07Z</time>
</trkpt>
<trkpt lat="49.0946969948709" lon="8.408912932500243">
<ele>114.79999999999995</ele>
<time>2023-05-17T12:18:08Z</time>
</trkpt>
<trkpt lat="49.09471493214369" lon="8.40884193778038">
<ele>114.60000000000002</ele>
<time>2023-05-17T12:18:09Z</time>
</trkpt>
<trkpt lat="49.09473697654903" lon="8.408771948888898">
<ele>114.39999999999998</ele>
<time>2023-05-17T12:18:10Z</time>
</trkpt>
<trkpt lat="49.09475793130696" lon="8.408701959997416">
<ele>114.39999999999998</ele>
<time>2023-05-17T12:18:11Z</time>
</trkpt>
<trkpt lat="49.09478198736906" lon="8.40862794779241">
<ele>114.20000000000005</ele>
<time>2023-05-17T12:18:12Z</time>
</trkpt>
<trkpt lat="49.09480797126889" lon="8.408557958900928">
<ele>114</ele>
<time>2023-05-17T12:18:13Z</time>
</trkpt>
<trkpt lat="49.094836972653866" lon="8.408486964181066">
<ele>113.79999999999995</ele>
<time>2023-05-17T12:18:14Z</time>
</trkpt>
<trkpt lat="49.09486195072532" lon="8.40841295197606">
<ele>113.60000000000002</ele>
<time>2023-05-17T12:18:15Z</time>
</trkpt>
<trkpt lat="49.09488491714001" lon="8.408341957256198">
<ele>113.60000000000002</ele>
<time>2023-05-17T12:18:16Z</time>
</trkpt>
<trkpt lat="49.094902938231826" lon="8.408266939222813">
<ele>113.39999999999998</ele>
<time>2023-05-17T12:18:17Z</time>
</trkpt>
<trkpt lat="49.094919953495264" lon="8.408192927017808">
<ele>113.20000000000005</ele>
<time>2023-05-17T12:18:18Z</time>
</trkpt>
<trkpt lat="49.09493495710194" lon="8.408116986975074">
<ele>113.20000000000005</ele>
<time>2023-05-17T12:18:19Z</time>
</trkpt>
<trkpt lat="49.09494996070862" lon="8.408037945628166">
<ele>113</ele>
<time>2023-05-17T12:18:20Z</time>
</trkpt>
<trkpt lat="49.094962952658534" lon="8.40795999392867">
<ele>113</ele>
<time>2023-05-17T12:18:21Z</time>
</trkpt>
<trkpt lat="49.09497695043683" lon="8.407886987552047">
<ele>113</ele>
<time>2023-05-17T12:18:22Z</time>
</trkpt>
<trkpt lat="49.094987930729985" lon="8.407812975347042">
<ele>112.79999999999995</ele>
<time>2023-05-17T12:18:23Z</time>
</trkpt>
<trkpt lat="49.09500192850828" lon="8.40774298645556">
<ele>112.79999999999995</ele>
<time>2023-05-17T12:18:24Z</time>
</trkpt>
<trkpt lat="49.09501693211496" lon="8.407676937058568">
<ele>112.79999999999995</ele>
<time>2023-05-17T12:18:25Z</time>
</trkpt>
<trkpt lat="49.095029924064875" lon="8.407611977308989">
<ele>112.79999999999995</ele>
<time>2023-05-17T12:18:26Z</time>
</trkpt>
<trkpt lat="49.09504199400544" lon="8.407544922083616">
<ele>112.79999999999995</ele>
<time>2023-05-17T12:18:27Z</time>
</trkpt>
<trkpt lat="49.095052974298596" lon="8.407474933192134">
<ele>112.79999999999995</ele>
<time>2023-05-17T12:18:28Z</time>
</trkpt>
<trkpt lat="49.09506194293499" lon="8.407411985099316">
<ele>112.79999999999995</ele>
<time>2023-05-17T12:18:29Z</time>
</trkpt>
<trkpt lat="49.095071917399764" lon="8.407351970672607">
<ele>112.79999999999995</ele>
<time>2023-05-17T12:18:30Z</time>
</trkpt>
<trkpt lat="49.09508499316871" lon="8.407297991216183">
<ele>112.79999999999995</ele>
<time>2023-05-17T12:18:31Z</time>
</trkpt>
<trkpt lat="49.095094967633486" lon="8.407244933769107">
<ele>112.79999999999995</ele>
<time>2023-05-17T12:18:32Z</time>
</trkpt>
<trkpt lat="49.0951029304415" lon="8.407196989282966">
<ele>112.79999999999995</ele>
<time>2023-05-17T12:18:33Z</time>
</trkpt>
<trkpt lat="49.095111982896924" lon="8.407152984291315">
<ele>112.79999999999995</ele>
<time>2023-05-17T12:18:34Z</time>
</trkpt>
<trkpt lat="49.09511994570494" lon="8.407116942107677">
<ele>112.79999999999995</ele>
<time>2023-05-17T12:18:35Z</time>
</trkpt>
<trkpt lat="49.09512799233198" lon="8.407082995399833">
<ele>113</ele>
<time>2023-05-17T12:18:36Z</time>
</trkpt>
<trkpt lat="49.095137966796756" lon="8.407042929902673">
<ele>113</ele>
<time>2023-05-17T12:18:37Z</time>
</trkpt>
<trkpt lat="49.09514693543315" lon="8.406999930739403">
<ele>113.20000000000005</ele>
<time>2023-05-17T12:18:38Z</time>
</trkpt>
<trkpt lat="49.095159927383065" lon="8.406959949061275">
<ele>113.20000000000005</ele>
<time>2023-05-17T12:18:39Z</time>
</trkpt>
<trkpt lat="49.09518297761679" lon="8.40692793019116">
<ele>113.39999999999998</ele>
<time>2023-05-17T12:18:40Z</time>
</trkpt>
<trkpt lat="49.09521298483014" lon="8.40690496377647">
<ele>113.39999999999998</ele>
<time>2023-05-17T12:18:41Z</time>
</trkpt>
<trkpt lat="49.095242992043495" lon="8.406887948513031">
<ele>113.39999999999998</ele>
<time>2023-05-17T12:18:42Z</time>
</trkpt>
<trkpt lat="49.09526998177171" lon="8.406871939077973">
<ele>113.39999999999998</ele>
<time>2023-05-17T12:18:43Z</time>
</trkpt>
<trkpt lat="49.0952929481864" lon="8.406839920207858">
<ele>113.39999999999998</ele>
<time>2023-05-17T12:18:44Z</time>
</trkpt>
<trkpt lat="49.095306945964694" lon="8.406807985156775">
<ele>113.39999999999998</ele>
<time>2023-05-17T12:18:45Z</time>
</trkpt>
<trkpt lat="49.09531298093498" lon="8.40677697211504">
<ele>113.39999999999998</ele>
<time>2023-05-17T12:18:46Z</time>
</trkpt>
<trkpt lat="49.09531692042947" lon="8.406742941588163">
<ele>113.39999999999998</ele>
<time>2023-05-17T12:18:47Z</time>
</trkpt>
<trkpt lat="49.09531692042947" lon="8.406716957688332">
<ele>113.39999999999998</ele>
<time>2023-05-17T12:18:48Z</time>
</trkpt>
<trkpt lat="49.095309963449836" lon="8.40669197961688">
<ele>113.39999999999998</ele>
<time>2023-05-17T12:18:49Z</time>
</trkpt>
<trkpt lat="49.09530292265117" lon="8.406672952696681">
<ele>113.39999999999998</ele>
<time>2023-05-17T12:18:50Z</time>
</trkpt>
<trkpt lat="49.09529495984316" lon="8.406659960746765">
<ele>113.39999999999998</ele>
<time>2023-05-17T12:18:51Z</time>
</trkpt>
<trkpt lat="49.095284985378385" lon="8.40664696879685">
<ele>113.39999999999998</ele>
<time>2023-05-17T12:18:52Z</time>
</trkpt>
<trkpt lat="49.09527199342847" lon="8.40662794187665">
<ele>113.39999999999998</ele>
<time>2023-05-17T12:18:53Z</time>
</trkpt>
<trkpt lat="49.09526193514466" lon="8.406606987118721">
<ele>113.39999999999998</ele>
<time>2023-05-17T12:18:54Z</time>
</trkpt>
<trkpt lat="49.095246931537986" lon="8.406579997390509">
<ele>113.39999999999998</ele>
<time>2023-05-17T12:18:55Z</time>
</trkpt>
<trkpt lat="49.09523494541645" lon="8.406552923843265">
<ele>113.39999999999998</ele>
<time>2023-05-17T12:18:56Z</time>
</trkpt>
<trkpt lat="49.09522798843682" lon="8.406521994620562">
<ele>113.39999999999998</ele>
<time>2023-05-17T12:18:57Z</time>
</trkpt>
<trkpt lat="49.095224970951676" lon="8.406482934951782">
<ele>113.39999999999998</ele>
<time>2023-05-17T12:18:58Z</time>
</trkpt>
<trkpt lat="49.095222959294915" lon="8.406441947445273">
<ele>113.39999999999998</ele>
<time>2023-05-17T12:18:59Z</time>
</trkpt>
<trkpt lat="49.09522798843682" lon="8.406397942453623">
<ele>113.39999999999998</ele>
<time>2023-05-17T12:19:00Z</time>
</trkpt>
<trkpt lat="49.09523997455835" lon="8.406356954947114">
<ele>113.39999999999998</ele>
<time>2023-05-17T12:19:01Z</time>
</trkpt>
<trkpt lat="49.09524994902313" lon="8.406312949955463">
<ele>113.39999999999998</ele>
<time>2023-05-17T12:19:02Z</time>
</trkpt>
<trkpt lat="49.09525799565017" lon="8.406267939135432">
<ele>113.39999999999998</ele>
<time>2023-05-17T12:19:03Z</time>
</trkpt>
<trkpt lat="49.095267970114946" lon="8.40621798299253">
<ele>113.39999999999998</ele>
<time>2023-05-17T12:19:04Z</time>
</trkpt>
<trkpt lat="49.09527995623648" lon="8.406164925545454">
<ele>113.39999999999998</ele>
<time>2023-05-17T12:19:05Z</time>
</trkpt>
<trkpt lat="49.09529194235802" lon="8.40611195191741">
<ele>113.39999999999998</ele>
<time>2023-05-17T12:19:06Z</time>
</trkpt>
<trkpt lat="49.09530292265117" lon="8.406052943319082">
<ele>113.39999999999998</ele>
<time>2023-05-17T12:19:07Z</time>
</trkpt>
<trkpt lat="49.09531692042947" lon="8.405992928892374">
<ele>113.39999999999998</ele>
<time>2023-05-17T12:19:08Z</time>
</trkpt>
<trkpt lat="49.095327984541655" lon="8.405929980799556">
<ele>113.39999999999998</ele>
<time>2023-05-17T12:19:09Z</time>
</trkpt>
<trkpt lat="49.09533997066319" lon="8.405866948887706">
<ele>113.39999999999998</ele>
<time>2023-05-17T12:19:10Z</time>
</trkpt>
<trkpt lat="49.095351956784725" lon="8.405804922804236">
<ele>113.60000000000002</ele>
<time>2023-05-17T12:19:11Z</time>
</trkpt>
<trkpt lat="49.09536293707788" lon="8.405739963054657">
<ele>113.60000000000002</ele>
<time>2023-05-17T12:19:12Z</time>
</trkpt>
<trkpt lat="49.095372995361686" lon="8.405676931142807">
<ele>113.60000000000002</ele>
<time>2023-05-17T12:19:13Z</time>
</trkpt>
<trkpt lat="49.09537995234132" lon="8.405609959736466">
<ele>113.60000000000002</ele>
<time>2023-05-17T12:19:14Z</time>
</trkpt>
<trkpt lat="49.09538799896836" lon="8.405542988330126">
<ele>113.60000000000002</ele>
<time>2023-05-17T12:19:15Z</time>
</trkpt>
<trkpt lat="49.0953999850899" lon="8.405477944761515">
<ele>113.60000000000002</ele>
<time>2023-05-17T12:19:16Z</time>
</trkpt>
<trkpt lat="49.09541197121143" lon="8.405412985011935">
<ele>113.60000000000002</ele>
<time>2023-05-17T12:19:17Z</time>
</trkpt>
<trkpt lat="49.09542496316135" lon="8.405342996120453">
<ele>113.60000000000002</ele>
<time>2023-05-17T12:19:18Z</time>
</trkpt>
<trkpt lat="49.095436949282885" lon="8.405266972258687">
<ele>113.60000000000002</ele>
<time>2023-05-17T12:19:19Z</time>
</trkpt>
<trkpt lat="49.09544692374766" lon="8.405191954225302">
<ele>113.60000000000002</ele>
<time>2023-05-17T12:19:20Z</time>
</trkpt>
<trkpt lat="49.095461927354336" lon="8.405116936191916">
<ele>113.60000000000002</ele>
<time>2023-05-17T12:19:21Z</time>
</trkpt>
<trkpt lat="49.09547793678939" lon="8.405042923986912">
<ele>113.60000000000002</ele>
<time>2023-05-17T12:19:22Z</time>
</trkpt>
<trkpt lat="49.09548992291093" lon="8.404969917610288">
<ele>113.60000000000002</ele>
<time>2023-05-17T12:19:23Z</time>
</trkpt>
<trkpt lat="49.095504926517606" lon="8.404894983395934">
<ele>113.60000000000002</ele>
<time>2023-05-17T12:19:24Z</time>
</trkpt>
<trkpt lat="49.09551791846752" lon="8.404819965362549">
<ele>113.60000000000002</ele>
<time>2023-05-17T12:19:25Z</time>
</trkpt>
<trkpt lat="49.0955329220742" lon="8.404741929844022">
<ele>113.60000000000002</ele>
<time>2023-05-17T12:19:26Z</time>
</trkpt>
<trkpt lat="49.095546919852495" lon="8.404664983972907">
<ele>113.60000000000002</ele>
<time>2023-05-17T12:19:27Z</time>
</trkpt>
<trkpt lat="49.09556192345917" lon="8.40458694845438">
<ele>113.60000000000002</ele>
<time>2023-05-17T12:19:28Z</time>
</trkpt>
<trkpt lat="49.09557692706585" lon="8.404507990926504">
<ele>113.60000000000002</ele>
<time>2023-05-17T12:19:29Z</time>
</trkpt>
<trkpt lat="49.09559293650091" lon="8.404429955407977">
<ele>113.60000000000002</ele>
<time>2023-05-17T12:19:30Z</time>
</trkpt>
<trkpt lat="49.095607940107584" lon="8.40435292571783">
<ele>113.60000000000002</ele>
<time>2023-05-17T12:19:31Z</time>
</trkpt>
<trkpt lat="49.09562193788588" lon="8.404277991503477">
<ele>113.60000000000002</ele>
<time>2023-05-17T12:19:32Z</time>
</trkpt>
<trkpt lat="49.095634929835796" lon="8.404202973470092">
<ele>113.60000000000002</ele>
<time>2023-05-17T12:19:33Z</time>
</trkpt>
<trkpt lat="49.09564993344247" lon="8.40413499623537">
<ele>113.60000000000002</ele>
<time>2023-05-17T12:19:34Z</time>
</trkpt>
<trkpt lat="49.09566493704915" lon="8.404064923524857">
<ele>113.60000000000002</ele>
<time>2023-05-17T12:19:35Z</time>
</trkpt>
<trkpt lat="49.095677928999066" lon="8.404001975432038">
<ele>113.60000000000002</ele>
<time>2023-05-17T12:19:36Z</time>
</trkpt>
<trkpt lat="49.09569293260574" lon="8.403932992368937">
<ele>113.60000000000002</ele>
<time>2023-05-17T12:19:37Z</time>
</trkpt>
<trkpt lat="49.09570793621242" lon="8.403864931315184">
<ele>113.39999999999998</ele>
<time>2023-05-17T12:19:38Z</time>
</trkpt>
<trkpt lat="49.0957229398191" lon="8.40379293076694">
<ele>113.39999999999998</ele>
<time>2023-05-17T12:19:39Z</time>
</trkpt>
<trkpt lat="49.095737943425775" lon="8.403724953532219">
<ele>113.39999999999998</ele>
<time>2023-05-17T12:19:40Z</time>
</trkpt>
<trkpt lat="49.09575194120407" lon="8.403652952983975">
<ele>113.39999999999998</ele>
<time>2023-05-17T12:19:41Z</time>
</trkpt>
<trkpt lat="49.09576493315399" lon="8.40357692912221">
<ele>113.20000000000005</ele>
<time>2023-05-17T12:19:42Z</time>
</trkpt>
<trkpt lat="49.095779936760664" lon="8.403502916917205">
<ele>113.20000000000005</ele>
<time>2023-05-17T12:19:43Z</time>
</trkpt>
<trkpt lat="49.0957919228822" lon="8.403432928025723">
<ele>113.20000000000005</ele>
<time>2023-05-17T12:19:44Z</time>
</trkpt>
<trkpt lat="49.095802986994386" lon="8.40336293913424">
<ele>113</ele>
<time>2023-05-17T12:19:45Z</time>
</trkpt>
<trkpt lat="49.09581497311592" lon="8.403302924707532">
<ele>113</ele>
<time>2023-05-17T12:19:46Z</time>
</trkpt>
<trkpt lat="49.095824947580695" lon="8.403257997706532">
<ele>113</ele>
<time>2023-05-17T12:19:47Z</time>
</trkpt>
<trkpt lat="49.09583492204547" lon="8.403216926380992">
<ele>113</ele>
<time>2023-05-17T12:19:48Z</time>
</trkpt>
<trkpt lat="49.095844980329275" lon="8.403179962188005">
<ele>112.79999999999995</ele>
<time>2023-05-17T12:19:49Z</time>
</trkpt>
<trkpt lat="49.09585294313729" lon="8.403142997995019">
<ele>112.79999999999995</ele>
<time>2023-05-17T12:19:50Z</time>
</trkpt>
<trkpt lat="49.09586492925882" lon="8.403109973296523">
<ele>112.79999999999995</ele>
<time>2023-05-17T12:19:51Z</time>
</trkpt>
<trkpt lat="49.09587699919939" lon="8.403077954426408">
<ele>112.79999999999995</ele>
<time>2023-05-17T12:19:52Z</time>
</trkpt>
<trkpt lat="49.095886973664165" lon="8.403051970526576">
<ele>112.79999999999995</ele>
<time>2023-05-17T12:19:53Z</time>
</trkpt>
<trkpt lat="49.09589493647218" lon="8.403027998283505">
<ele>112.60000000000002</ele>
<time>2023-05-17T12:19:54Z</time>
</trkpt>
<trkpt lat="49.09589795395732" lon="8.403006959706545">
<ele>112.60000000000002</ele>
<time>2023-05-17T12:19:55Z</time>
</trkpt>
<trkpt lat="49.09589795395732" lon="8.402987932786345">
<ele>112.60000000000002</ele>
<time>2023-05-17T12:19:56Z</time>
</trkpt>
<trkpt lat="49.09589996561408" lon="8.402966978028417">
<ele>112.60000000000002</ele>
<time>2023-05-17T12:19:57Z</time>
</trkpt>
<trkpt lat="49.09590499475598" lon="8.402949962764978">
<ele>112.60000000000002</ele>
<time>2023-05-17T12:19:58Z</time>
</trkpt>
<trkpt lat="49.09590792842209" lon="8.402934959158301">
<ele>112.60000000000002</ele>
<time>2023-05-17T12:19:59Z</time>
</trkpt>
<trkpt lat="49.095911951735616" lon="8.402919955551624">
<ele>112.60000000000002</ele>
<time>2023-05-17T12:20:00Z</time>
</trkpt>
<trkpt lat="49.095912957563996" lon="8.402904951944947">
<ele>112.60000000000002</ele>
<time>2023-05-17T12:20:01Z</time>
</trkpt>
<trkpt lat="49.09591698087752" lon="8.402887936681509">
<ele>112.60000000000002</ele>
<time>2023-05-17T12:20:02Z</time>
</trkpt>
<trkpt lat="49.09591698087752" lon="8.402874944731593">
<ele>112.60000000000002</ele>
<time>2023-05-17T12:20:03Z</time>
</trkpt>
<trkpt lat="49.095909940078855" lon="8.402862958610058">
<ele>112.60000000000002</ele>
<time>2023-05-17T12:20:04Z</time>
</trkpt>
<trkpt lat="49.095911951735616" lon="8.402854995802045">
<ele>112.60000000000002</ele>
<time>2023-05-17T12:20:05Z</time>
</trkpt>
<trkpt lat="49.095911951735616" lon="8.402852984145284">
<ele>112.60000000000002</ele>
<time>2023-05-17T12:20:06Z</time>
</trkpt>
<trkpt lat="49.09592796117067" lon="8.40278492309153">
<ele>112.79999999999995</ele>
<time>2023-05-17T12:20:06Z</time>
</trkpt>
<trkpt lat="49.095932990312576" lon="8.402762962505221">
<ele>112.79999999999995</ele>
<time>2023-05-17T12:20:07Z</time>
</trkpt>
<trkpt lat="49.09593994729221" lon="8.402739996090531">
<ele>112.79999999999995</ele>
<time>2023-05-17T12:20:08Z</time>
</trkpt>
<trkpt lat="49.09594497643411" lon="8.402711916714907">
<ele>112.79999999999995</ele>
<time>2023-05-17T12:20:09Z</time>
</trkpt>
<trkpt lat="49.095954950898886" lon="8.402684926986694">
<ele>112.79999999999995</ele>
<time>2023-05-17T12:20:10Z</time>
</trkpt>
<trkpt lat="49.09596693702042" lon="8.40265299193561">
<ele>112.79999999999995</ele>
<time>2023-05-17T12:20:11Z</time>
</trkpt>
<trkpt lat="49.09597699530423" lon="8.402621978893876">
<ele>112.79999999999995</ele>
<time>2023-05-17T12:20:12Z</time>
</trkpt>
<trkpt lat="49.09598495811224" lon="8.402587948367">
<ele>112.79999999999995</ele>
<time>2023-05-17T12:20:13Z</time>
</trkpt>
<trkpt lat="49.095994932577014" lon="8.402551990002394">
<ele>112.79999999999995</ele>
<time>2023-05-17T12:20:14Z</time>
</trkpt>
<trkpt lat="49.09600691869855" lon="8.402506979182363">
<ele>112.79999999999995</ele>
<time>2023-05-17T12:20:15Z</time>
</trkpt>
<trkpt lat="49.096021922305226" lon="8.402456939220428">
<ele>112.79999999999995</ele>
<time>2023-05-17T12:20:16Z</time>
</trkpt>
<trkpt lat="49.096034998074174" lon="8.402407988905907">
<ele>112.79999999999995</ele>
<time>2023-05-17T12:20:17Z</time>
</trkpt>
<trkpt lat="49.09604698419571" lon="8.402357948943973">
<ele>112.79999999999995</ele>
<time>2023-05-17T12:20:18Z</time>
</trkpt>
<trkpt lat="49.09605494700372" lon="8.40230799280107">
<ele>112.79999999999995</ele>
<time>2023-05-17T12:20:19Z</time>
</trkpt>
<trkpt lat="49.096059976145625" lon="8.402261976152658">
<ele>112.79999999999995</ele>
<time>2023-05-17T12:20:20Z</time>
</trkpt>
<trkpt lat="49.09606793895364" lon="8.402217971161008">
<ele>112.79999999999995</ele>
<time>2023-05-17T12:20:21Z</time>
</trkpt>
<trkpt lat="49.096077997237444" lon="8.40217798948288">
<ele>112.79999999999995</ele>
<time>2023-05-17T12:20:22Z</time>
</trkpt>
<trkpt lat="49.09608998335898" lon="8.40213993564248">
<ele>112.79999999999995</ele>
<time>2023-05-17T12:20:23Z</time>
</trkpt>
<trkpt lat="49.09609995782375" lon="8.402099953964353">
<ele>112.79999999999995</ele>
<time>2023-05-17T12:20:24Z</time>
</trkpt>
<trkpt lat="49.09610993228853" lon="8.402064917609096">
<ele>112.79999999999995</ele>
<time>2023-05-17T12:20:25Z</time>
</trkpt>
<trkpt lat="49.09611697308719" lon="8.402027953416109">
<ele>112.79999999999995</ele>
<time>2023-05-17T12:20:26Z</time>
</trkpt>
<trkpt lat="49.09612191841006" lon="8.401989983394742">
<ele>112.79999999999995</ele>
<time>2023-05-17T12:20:27Z</time>
</trkpt>
<trkpt lat="49.096127953380346" lon="8.401952935382724">
<ele>112.79999999999995</ele>
<time>2023-05-17T12:20:28Z</time>
</trkpt>
<trkpt lat="49.09613692201674" lon="8.401916977018118">
<ele>112.79999999999995</ele>
<time>2023-05-17T12:20:29Z</time>
</trkpt>
<trkpt lat="49.096147986128926" lon="8.4018799290061">
<ele>112.79999999999995</ele>
<time>2023-05-17T12:20:30Z</time>
</trkpt>
<trkpt lat="49.0961579605937" lon="8.401844976469874">
<ele>112.79999999999995</ele>
<time>2023-05-17T12:20:31Z</time>
</trkpt>
<trkpt lat="49.096166929230094" lon="8.40181496925652">
<ele>112.79999999999995</ele>
<time>2023-05-17T12:20:32Z</time>
</trkpt>
<trkpt lat="49.09617296420038" lon="8.401786973699927">
<ele>112.79999999999995</ele>
<time>2023-05-17T12:20:33Z</time>
</trkpt>
<trkpt lat="49.09618193283677" lon="8.401759983971715">
<ele>113</ele>
<time>2023-05-17T12:20:34Z</time>
</trkpt>
<trkpt lat="49.09619199112058" lon="8.401734922081232">
<ele>113</ele>
<time>2023-05-17T12:20:35Z</time>
</trkpt>
<trkpt lat="49.09619794227183" lon="8.40170994400978">
<ele>113</ele>
<time>2023-05-17T12:20:36Z</time>
</trkpt>
<trkpt lat="49.09620498307049" lon="8.401682954281569">
<ele>113</ele>
<time>2023-05-17T12:20:37Z</time>
</trkpt>
<trkpt lat="49.09621495753527" lon="8.401652947068214">
<ele>113</ele>
<time>2023-05-17T12:20:38Z</time>
</trkpt>
<trkpt lat="49.0962269436568" lon="8.40162193402648">
<ele>113</ele>
<time>2023-05-17T12:20:39Z</time>
</trkpt>
<trkpt lat="49.09623993560672" lon="8.401587987318635">
<ele>113</ele>
<time>2023-05-17T12:20:40Z</time>
</trkpt>
<trkpt lat="49.096252927556634" lon="8.401551945134997">
<ele>113</ele>
<time>2023-05-17T12:20:41Z</time>
</trkpt>
<trkpt lat="49.09626692533493" lon="8.40151498094201">
<ele>113</ele>
<time>2023-05-17T12:20:42Z</time>
</trkpt>
<trkpt lat="49.096279917284846" lon="8.401474999263883">
<ele>113</ele>
<time>2023-05-17T12:20:43Z</time>
</trkpt>
<trkpt lat="49.096292993053794" lon="8.401436945423484">
<ele>113</ele>
<time>2023-05-17T12:20:44Z</time>
</trkpt>
<trkpt lat="49.09630799666047" lon="8.401389922946692">
<ele>113</ele>
<time>2023-05-17T12:20:45Z</time>
</trkpt>
<trkpt lat="49.09632492810488" lon="8.401336949318647">
<ele>113</ele>
<time>2023-05-17T12:20:46Z</time>
</trkpt>
<trkpt lat="49.096339931711555" lon="8.401289926841855">
<ele>113</ele>
<time>2023-05-17T12:20:47Z</time>
</trkpt>
<trkpt lat="49.09635694697499" lon="8.401237959042192">
<ele>113</ele>
<time>2023-05-17T12:20:48Z</time>
</trkpt>
<trkpt lat="49.09637295641005" lon="8.401182973757386">
<ele>113</ele>
<time>2023-05-17T12:20:49Z</time>
</trkpt>
<trkpt lat="49.09638997167349" lon="8.401134945452213">
<ele>113</ele>
<time>2023-05-17T12:20:50Z</time>
</trkpt>
<trkpt lat="49.09640698693693" lon="8.401087922975421">
<ele>113</ele>
<time>2023-05-17T12:20:51Z</time>
</trkpt>
<trkpt lat="49.096424924209714" lon="8.401046935468912">
<ele>113</ele>
<time>2023-05-17T12:20:52Z</time>
</trkpt>
<trkpt lat="49.09643992781639" lon="8.401009971275926">
<ele>113</ele>
<time>2023-05-17T12:20:53Z</time>
</trkpt>
<trkpt lat="49.09645493142307" lon="8.400979964062572">
<ele>112.79999999999995</ele>
<time>2023-05-17T12:20:54Z</time>
</trkpt>
<trkpt lat="49.096471946686506" lon="8.400956997647882">
<ele>112.79999999999995</ele>
<time>2023-05-17T12:20:55Z</time>
</trkpt>
<trkpt lat="49.096487956121564" lon="8.400937970727682">
<ele>112.60000000000002</ele>
<time>2023-05-17T12:20:56Z</time>
</trkpt>
<trkpt lat="49.09650698304176" lon="8.400921961292624">
<ele>112.39999999999998</ele>
<time>2023-05-17T12:20:57Z</time>
</trkpt>
<trkpt lat="49.09652492031455" lon="8.400904946029186">
<ele>112.20000000000005</ele>
<time>2023-05-17T12:20:58Z</time>
</trkpt>
<trkpt lat="49.09654193557799" lon="8.400896983221173">
<ele>112</ele>
<time>2023-05-17T12:20:59Z</time>
</trkpt>
<trkpt lat="49.096554927527905" lon="8.40088994242251">
<ele>111.79999999999995</ele>
<time>2023-05-17T12:21:00Z</time>
</trkpt>
<trkpt lat="49.09656993113458" lon="8.400881979614496">
<ele>111.60000000000002</ele>
<time>2023-05-17T12:21:01Z</time>
</trkpt>
<trkpt lat="49.0965879522264" lon="8.400872927159071">
<ele>111.39999999999998</ele>
<time>2023-05-17T12:21:02Z</time>
</trkpt>
<trkpt lat="49.09660496748984" lon="8.400859935209155">
<ele>111.20000000000005</ele>
<time>2023-05-17T12:21:03Z</time>
</trkpt>
<trkpt lat="49.09662198275328" lon="8.400842919945717">
<ele>111</ele>
<time>2023-05-17T12:21:04Z</time>
</trkpt>
<trkpt lat="49.096636986359954" lon="8.40082791633904">
<ele>110.79999999999995</ele>
<time>2023-05-17T12:21:05Z</time>
</trkpt>
<trkpt lat="49.09665299579501" lon="8.400807967409492">
<ele>110.60000000000002</ele>
<time>2023-05-17T12:21:06Z</time>
</trkpt>
<trkpt lat="49.09666498191655" lon="8.40078491717577">
<ele>110.39999999999998</ele>
<time>2023-05-17T12:21:07Z</time>
</trkpt>
<trkpt lat="49.09667193889618" lon="8.400757927447557">
<ele>110.39999999999998</ele>
<time>2023-05-17T12:21:08Z</time>
</trkpt>
<trkpt lat="49.09667294472456" lon="8.400734961032867">
<ele>110.20000000000005</ele>
<time>2023-05-17T12:21:09Z</time>
</trkpt>
<trkpt lat="49.09667495638132" lon="8.400714928284287">
<ele>110.20000000000005</ele>
<time>2023-05-17T12:21:10Z</time>
</trkpt>
<trkpt lat="49.09667797386646" lon="8.400679975748062">
<ele>110.20000000000005</ele>
<time>2023-05-17T12:21:11Z</time>
</trkpt>
<trkpt lat="49.096684930846095" lon="8.400636976584792">
<ele>110</ele>
<time>2023-05-17T12:21:12Z</time>
</trkpt>
<trkpt lat="49.096681997179985" lon="8.400594983249903">
<ele>110</ele>
<time>2023-05-17T12:21:13Z</time>
</trkpt>
<trkpt lat="49.09667495638132" lon="8.400559946894646">
<ele>110</ele>
<time>2023-05-17T12:21:14Z</time>
</trkpt>
<trkpt lat="49.09668794833124" lon="8.400499932467937">
<ele>110</ele>
<time>2023-05-17T12:21:15Z</time>
</trkpt>
<trkpt lat="49.09675198607147" lon="8.400469925254583">
<ele>110</ele>
<time>2023-05-17T12:21:16Z</time>
</trkpt>
<trkpt lat="49.096767995506525" lon="8.400477971881628">
<ele>110</ele>
<time>2023-05-17T12:21:17Z</time>
</trkpt>
<trkpt lat="49.09675793722272" lon="8.40043991804123">
<ele>110</ele>
<time>2023-05-17T12:21:18Z</time>
</trkpt>
<trkpt lat="49.096746956929564" lon="8.400404965505004">
<ele>110.20000000000005</ele>
<time>2023-05-17T12:21:19Z</time>
</trkpt>
<trkpt lat="49.096724996343255" lon="8.400366995483637">
<ele>110.20000000000005</ele>
<time>2023-05-17T12:21:20Z</time>
</trkpt>
<trkpt lat="49.096702951937914" lon="8.400322990491986">
<ele>110.20000000000005</ele>
<time>2023-05-17T12:21:21Z</time>
</trkpt>
<trkpt lat="49.096679985523224" lon="8.400261970236897">
<ele>110.20000000000005</ele>
<time>2023-05-17T12:21:22Z</time>
</trkpt>
<trkpt lat="49.09666699357331" lon="8.400206984952092">
<ele>110.20000000000005</ele>
<time>2023-05-17T12:21:23Z</time>
</trkpt>
<trkpt lat="49.09666699357331" lon="8.400147976353765">
<ele>110.39999999999998</ele>
<time>2023-05-17T12:21:24Z</time>
</trkpt>
<trkpt lat="49.09667193889618" lon="8.400094918906689">
<ele>110.60000000000002</ele>
<time>2023-05-17T12:21:25Z</time>
</trkpt>
<trkpt lat="49.096679985523224" lon="8.4000529255718">
<ele>110.79999999999995</ele>
<time>2023-05-17T12:21:26Z</time>
</trkpt>
<trkpt lat="49.096689959988" lon="8.400021996349096">
<ele>111</ele>
<time>2023-05-17T12:21:27Z</time>
</trkpt>
<trkpt lat="49.09669792279601" lon="8.399999951943755">
<ele>111.20000000000005</ele>
<time>2023-05-17T12:21:28Z</time>
</trkpt>
<trkpt lat="49.09669691696763" lon="8.399981930851936">
<ele>111.60000000000002</ele>
<time>2023-05-17T12:21:29Z</time>
</trkpt>
<trkpt lat="49.09669197164476" lon="8.39996692724526">
<ele>111.79999999999995</ele>
<time>2023-05-17T12:21:30Z</time>
</trkpt>
<trkpt lat="49.096684930846095" lon="8.39994496665895">
<ele>112</ele>
<time>2023-05-17T12:21:31Z</time>
</trkpt>
<trkpt lat="49.096684930846095" lon="8.399912947788835">
<ele>112.20000000000005</ele>
<time>2023-05-17T12:21:32Z</time>
</trkpt>
<trkpt lat="49.09669197164476" lon="8.39987799525261">
<ele>112.39999999999998</ele>
<time>2023-05-17T12:21:33Z</time>
</trkpt>
<trkpt lat="49.09669993445277" lon="8.399836923927069">
<ele>112.60000000000002</ele>
<time>2023-05-17T12:21:34Z</time>
</trkpt>
<trkpt lat="49.096706975251436" lon="8.399786967784166">
<ele>112.60000000000002</ele>
<time>2023-05-17T12:21:35Z</time>
</trkpt>
<trkpt lat="49.096704963594675" lon="8.399734999984503">
<ele>112.79999999999995</ele>
<time>2023-05-17T12:21:36Z</time>
</trkpt>
<trkpt lat="49.09669993445277" lon="8.399684960022569">
<ele>113</ele>
<time>2023-05-17T12:21:37Z</time>
</trkpt>
<trkpt lat="49.09669197164476" lon="8.399641960859299">
<ele>113.20000000000005</ele>
<time>2023-05-17T12:21:38Z</time>
</trkpt>
<trkpt lat="49.09669197164476" lon="8.399587981402874">
<ele>113.20000000000005</ele>
<time>2023-05-17T12:21:39Z</time>
</trkpt>
<trkpt lat="49.0966949891299" lon="8.399522937834263">
<ele>113.39999999999998</ele>
<time>2023-05-17T12:21:40Z</time>
</trkpt>
<trkpt lat="49.09669691696763" lon="8.399454960599542">
<ele>113.39999999999998</ele>
<time>2023-05-17T12:21:41Z</time>
</trkpt>
<trkpt lat="49.09669792279601" lon="8.399382960051298">
<ele>113.60000000000002</ele>
<time>2023-05-17T12:21:42Z</time>
</trkpt>
<trkpt lat="49.096702951937914" lon="8.399309953674674">
<ele>113.60000000000002</ele>
<time>2023-05-17T12:21:43Z</time>
</trkpt>
<trkpt lat="49.09671493805945" lon="8.399241976439953">
<ele>113.60000000000002</ele>
<time>2023-05-17T12:21:44Z</time>
</trkpt>
<trkpt lat="49.096727930009365" lon="8.39917492121458">
<ele>113.60000000000002</ele>
<time>2023-05-17T12:21:45Z</time>
</trkpt>
<trkpt lat="49.09673999994993" lon="8.39910794980824">
<ele>113.60000000000002</ele>
<time>2023-05-17T12:21:46Z</time>
</trkpt>
<trkpt lat="49.096749974414706" lon="8.399037960916758">
<ele>113.60000000000002</ele>
<time>2023-05-17T12:21:47Z</time>
</trkpt>
<trkpt lat="49.09676196053624" lon="8.398967972025275">
<ele>113.60000000000002</ele>
<time>2023-05-17T12:21:48Z</time>
</trkpt>
<trkpt lat="49.09677495248616" lon="8.398902928456664">
<ele>113.60000000000002</ele>
<time>2023-05-17T12:21:49Z</time>
</trkpt>
<trkpt lat="49.096789956092834" lon="8.398842997848988">
<ele>113.60000000000002</ele>
<time>2023-05-17T12:21:50Z</time>
</trkpt>
<trkpt lat="49.09680294804275" lon="8.39878499507904">
<ele>113.60000000000002</ele>
<time>2023-05-17T12:21:51Z</time>
</trkpt>
<trkpt lat="49.09681694582105" lon="8.398727998137474">
<ele>113.60000000000002</ele>
<time>2023-05-17T12:21:52Z</time>
</trkpt>
<trkpt lat="49.096831949427724" lon="8.398672929033637">
<ele>113.60000000000002</ele>
<time>2023-05-17T12:21:53Z</time>
</trkpt>
<trkpt lat="49.09684292972088" lon="8.398616937920451">
<ele>113.60000000000002</ele>
<time>2023-05-17T12:21:54Z</time>
</trkpt>
<trkpt lat="49.096852988004684" lon="8.398559940978885">
<ele>113.60000000000002</ele>
<time>2023-05-17T12:21:55Z</time>
</trkpt>
<trkpt lat="49.09686296246946" lon="8.398502944037318">
<ele>113.60000000000002</ele>
<time>2023-05-17T12:21:56Z</time>
</trkpt>
<trkpt lat="49.09687193110585" lon="8.39844292961061">
<ele>113.60000000000002</ele>
<time>2023-05-17T12:21:57Z</time>
</trkpt>
<trkpt lat="49.0968799777329" lon="8.398382999002934">
<ele>113.60000000000002</ele>
<time>2023-05-17T12:21:58Z</time>
</trkpt>
<trkpt lat="49.09688995219767" lon="8.398322984576225">
<ele>113.60000000000002</ele>
<time>2023-05-17T12:21:59Z</time>
</trkpt>
<trkpt lat="49.09690294414759" lon="8.398262970149517">
<ele>113.60000000000002</ele>
<time>2023-05-17T12:22:00Z</time>
</trkpt>
<trkpt lat="49.09691694192588" lon="8.398206979036331">
<ele>113.60000000000002</ele>
<time>2023-05-17T12:22:01Z</time>
</trkpt>
<trkpt lat="49.0969299338758" lon="8.398152999579906">
<ele>113.60000000000002</ele>
<time>2023-05-17T12:22:02Z</time>
</trkpt>
<trkpt lat="49.096941919997334" lon="8.398104971274734">
<ele>113.60000000000002</ele>
<time>2023-05-17T12:22:03Z</time>
</trkpt>
<trkpt lat="49.09695197828114" lon="8.39805694296956">
<ele>113.60000000000002</ele>
<time>2023-05-17T12:22:04Z</time>
</trkpt>
<trkpt lat="49.09695692360401" lon="8.39801193214953">
<ele>113.60000000000002</ele>
<time>2023-05-17T12:22:05Z</time>
</trkpt>
<trkpt lat="49.09695692360401" lon="8.397964993491769">
<ele>113.60000000000002</ele>
<time>2023-05-17T12:22:06Z</time>
</trkpt>
<trkpt lat="49.09695499576628" lon="8.397919982671738">
<ele>113.60000000000002</ele>
<time>2023-05-17T12:22:07Z</time>
</trkpt>
<trkpt lat="49.09695499576628" lon="8.397874971851707">
<ele>113.60000000000002</ele>
<time>2023-05-17T12:22:08Z</time>
</trkpt>
<trkpt lat="49.096962958574295" lon="8.397829961031675">
<ele>113.60000000000002</ele>
<time>2023-05-17T12:22:09Z</time>
</trkpt>
<trkpt lat="49.09697293303907" lon="8.397781932726502">
<ele>113.60000000000002</ele>
<time>2023-05-17T12:22:10Z</time>
</trkpt>
<trkpt lat="49.096981985494494" lon="8.397727953270078">
<ele>113.60000000000002</ele>
<time>2023-05-17T12:22:11Z</time>
</trkpt>
<trkpt lat="49.09699195995927" lon="8.397674979642034">
<ele>113.60000000000002</ele>
<time>2023-05-17T12:22:12Z</time>
</trkpt>
<trkpt lat="49.09700193442404" lon="8.397617982700467">
<ele>113.60000000000002</ele>
<time>2023-05-17T12:22:13Z</time>
</trkpt>
<trkpt lat="49.09701299853623" lon="8.397561991587281">
<ele>113.60000000000002</ele>
<time>2023-05-17T12:22:14Z</time>
</trkpt>
<trkpt lat="49.097024984657764" lon="8.397502982988954">
<ele>113.60000000000002</ele>
<time>2023-05-17T12:22:15Z</time>
</trkpt>
<trkpt lat="49.09703797660768" lon="8.397446991875768">
<ele>113.60000000000002</ele>
<time>2023-05-17T12:22:16Z</time>
</trkpt>
<trkpt lat="49.09705298021436" lon="8.39738798327744">
<ele>113.60000000000002</ele>
<time>2023-05-17T12:22:17Z</time>
</trkpt>
<trkpt lat="49.097066977992654" lon="8.397327968850732">
<ele>113.60000000000002</ele>
<time>2023-05-17T12:22:18Z</time>
</trkpt>
<trkpt lat="49.09708298742771" lon="8.397272983565927">
<ele>113.60000000000002</ele>
<time>2023-05-17T12:22:19Z</time>
</trkpt>
<trkpt lat="49.09709497354925" lon="8.397209951654077">
<ele>113.60000000000002</ele>
<time>2023-05-17T12:22:20Z</time>
</trkpt>
<trkpt lat="49.09710293635726" lon="8.397149937227368">
<ele>113.60000000000002</ele>
<time>2023-05-17T12:22:21Z</time>
</trkpt>
<trkpt lat="49.097114922478795" lon="8.39708992280066">
<ele>113.79999999999995</ele>
<time>2023-05-17T12:22:22Z</time>
</trkpt>
<trkpt lat="49.09712992608547" lon="8.397027980536222">
<ele>113.79999999999995</ele>
<time>2023-05-17T12:22:23Z</time>
</trkpt>
<trkpt lat="49.09713797271252" lon="8.396962936967611">
<ele>113.79999999999995</ele>
<time>2023-05-17T12:22:24Z</time>
</trkpt>
<trkpt lat="49.09714694134891" lon="8.396892948076129">
<ele>113.79999999999995</ele>
<time>2023-05-17T12:22:25Z</time>
</trkpt>
<trkpt lat="49.097157921642065" lon="8.396822959184647">
<ele>113.79999999999995</ele>
<time>2023-05-17T12:22:26Z</time>
</trkpt>
<trkpt lat="49.0971749369055" lon="8.396751964464784">
<ele>113.79999999999995</ele>
<time>2023-05-17T12:22:27Z</time>
</trkpt>
<trkpt lat="49.09719195216894" lon="8.396677952259779">
<ele>113.79999999999995</ele>
<time>2023-05-17T12:22:28Z</time>
</trkpt>
<trkpt lat="49.09720997326076" lon="8.396607963368297">
<ele>113.79999999999995</ele>
<time>2023-05-17T12:22:29Z</time>
</trkpt>
<trkpt lat="49.09723193384707" lon="8.396541997790337">
<ele>113.79999999999995</ele>
<time>2023-05-17T12:22:30Z</time>
</trkpt>
<trkpt lat="49.09725196659565" lon="8.396474942564964">
<ele>113.79999999999995</ele>
<time>2023-05-17T12:22:31Z</time>
</trkpt>
<trkpt lat="49.09726998768747" lon="8.39640294201672">
<ele>113.79999999999995</ele>
<time>2023-05-17T12:22:32Z</time>
</trkpt>
<trkpt lat="49.09728993661702" lon="8.396327923983335">
<ele>113.79999999999995</ele>
<time>2023-05-17T12:22:33Z</time>
</trkpt>
<trkpt lat="49.09731198102236" lon="8.396256929263473">
<ele>113.79999999999995</ele>
<time>2023-05-17T12:22:34Z</time>
</trkpt>
<trkpt lat="49.097331929951906" lon="8.396177971735597">
<ele>113.79999999999995</ele>
<time>2023-05-17T12:22:35Z</time>
</trkpt>
<trkpt lat="49.09735296852887" lon="8.396102953702211">
<ele>113.60000000000002</ele>
<time>2023-05-17T12:22:36Z</time>
</trkpt>
<trkpt lat="49.097374929115176" lon="8.396029947325587">
<ele>113.60000000000002</ele>
<time>2023-05-17T12:22:37Z</time>
</trkpt>
<trkpt lat="49.09739697352052" lon="8.39595291763544">
<ele>113.60000000000002</ele>
<time>2023-05-17T12:22:38Z</time>
</trkpt>
<trkpt lat="49.09742195159197" lon="8.395877983421087">
<ele>113.60000000000002</ele>
<time>2023-05-17T12:22:39Z</time>
</trkpt>
<trkpt lat="49.09744491800666" lon="8.395801959559321">
<ele>113.60000000000002</ele>
<time>2023-05-17T12:22:40Z</time>
</trkpt>
<trkpt lat="49.09746997989714" lon="8.395724929869175">
<ele>113.39999999999998</ele>
<time>2023-05-17T12:22:41Z</time>
</trkpt>
<trkpt lat="49.097496969625354" lon="8.39564798399806">
<ele>113.39999999999998</ele>
<time>2023-05-17T12:22:42Z</time>
</trkpt>
<trkpt lat="49.097522953525186" lon="8.395571960136294">
<ele>113.20000000000005</ele>
<time>2023-05-17T12:22:43Z</time>
</trkpt>
<trkpt lat="49.0975499432534" lon="8.395487973466516">
<ele>113.20000000000005</ele>
<time>2023-05-17T12:22:44Z</time>
</trkpt>
<trkpt lat="49.09757693298161" lon="8.395404992625117">
<ele>113</ele>
<time>2023-05-17T12:22:45Z</time>
</trkpt>
<trkpt lat="49.097606940194964" lon="8.395322933793068">
<ele>113</ele>
<time>2023-05-17T12:22:46Z</time>
</trkpt>
<trkpt lat="49.09763996489346" lon="8.395242970436811">
<ele>113</ele>
<time>2023-05-17T12:22:47Z</time>
</trkpt>
<trkpt lat="49.09767692908645" lon="8.395166946575046">
<ele>112.79999999999995</ele>
<time>2023-05-17T12:22:48Z</time>
</trkpt>
<trkpt lat="49.097711965441704" lon="8.395082959905267">
<ele>112.79999999999995</ele>
<time>2023-05-17T12:22:49Z</time>
</trkpt>
<trkpt lat="49.0977449901402" lon="8.395006936043501">
<ele>112.79999999999995</ele>
<time>2023-05-17T12:22:50Z</time>
</trkpt>
<trkpt lat="49.097777931019664" lon="8.394929990172386">
<ele>112.60000000000002</ele>
<time>2023-05-17T12:22:51Z</time>
</trkpt>
<trkpt lat="49.09781497903168" lon="8.394849942997098">
<ele>112.60000000000002</ele>
<time>2023-05-17T12:22:52Z</time>
</trkpt>
<trkpt lat="49.09784993156791" lon="8.394772997125983">
<ele>112.60000000000002</ele>
<time>2023-05-17T12:22:53Z</time>
</trkpt>
<trkpt lat="49.097887985408306" lon="8.39469999074936">
<ele>112.60000000000002</ele>
<time>2023-05-17T12:22:54Z</time>
</trkpt>
<trkpt lat="49.097926961258054" lon="8.394629918038845">
<ele>112.39999999999998</ele>
<time>2023-05-17T12:22:55Z</time>
</trkpt>
<trkpt lat="49.09796794876456" lon="8.394567975774407">
<ele>112.39999999999998</ele>
<time>2023-05-17T12:22:56Z</time>
</trkpt>
<trkpt lat="49.09801195375621" lon="8.394504943862557">
<ele>112.39999999999998</ele>
<time>2023-05-17T12:22:57Z</time>
</trkpt>
<trkpt lat="49.09804992377758" lon="8.394442917779088">
<ele>112.39999999999998</ele>
<time>2023-05-17T12:22:58Z</time>
</trkpt>
<trkpt lat="49.09808797761798" lon="8.39437996968627">
<ele>112.39999999999998</ele>
<time>2023-05-17T12:22:59Z</time>
</trkpt>
<trkpt lat="49.098124941810966" lon="8.39431299827993">
<ele>112.39999999999998</ele>
<time>2023-05-17T12:23:00Z</time>
</trkpt>
<trkpt lat="49.098161989822984" lon="8.394244937226176">
<ele>112.60000000000002</ele>
<time>2023-05-17T12:23:01Z</time>
</trkpt>
<trkpt lat="49.09819794818759" lon="8.394176959991455">
<ele>112.60000000000002</ele>
<time>2023-05-17T12:23:02Z</time>
</trkpt>
<trkpt lat="49.09823499619961" lon="8.394112922251225">
<ele>112.60000000000002</ele>
<time>2023-05-17T12:23:03Z</time>
</trkpt>
<trkpt lat="49.09826994873583" lon="8.394046956673265">
<ele>112.60000000000002</ele>
<time>2023-05-17T12:23:04Z</time>
</trkpt>
<trkpt lat="49.0983079187572" lon="8.393977973610163">
<ele>112.60000000000002</ele>
<time>2023-05-17T12:23:05Z</time>
</trkpt>
<trkpt lat="49.09834999591112" lon="8.393914941698313">
<ele>112.60000000000002</ele>
<time>2023-05-17T12:23:06Z</time>
</trkpt>
<trkpt lat="49.09839198924601" lon="8.393859956413507">
<ele>112.60000000000002</ele>
<time>2023-05-17T12:23:07Z</time>
</trkpt>
<trkpt lat="49.09843498840928" lon="8.393811928108335">
<ele>112.60000000000002</ele>
<time>2023-05-17T12:23:08Z</time>
</trkpt>
<trkpt lat="49.09847798757255" lon="8.393767923116684">
<ele>112.79999999999995</ele>
<time>2023-05-17T12:23:09Z</time>
</trkpt>
<trkpt lat="49.09851495176554" lon="8.393729953095317">
<ele>112.79999999999995</ele>
<time>2023-05-17T12:23:10Z</time>
</trkpt>
<trkpt lat="49.098549988120794" lon="8.393696928396821">
<ele>112.79999999999995</ele>
<time>2023-05-17T12:23:11Z</time>
</trkpt>
<trkpt lat="49.098591981455684" lon="8.393656946718693">
<ele>113</ele>
<time>2023-05-17T12:23:12Z</time>
</trkpt>
<trkpt lat="49.098636992275715" lon="8.393612941727042">
<ele>113</ele>
<time>2023-05-17T12:23:13Z</time>
</trkpt>
<trkpt lat="49.098684936761856" lon="8.393582934513688">
<ele>113.20000000000005</ele>
<time>2023-05-17T12:23:14Z</time>
</trkpt>
<trkpt lat="49.098727935925126" lon="8.393544964492321">
<ele>113.20000000000005</ele>
<time>2023-05-17T12:23:15Z</time>
</trkpt>
<trkpt lat="49.098766995593905" lon="8.393494924530387">
<ele>113.20000000000005</ele>
<time>2023-05-17T12:23:16Z</time>
</trkpt>
<trkpt lat="49.09880295395851" lon="8.393442956730723">
<ele>113.20000000000005</ele>
<time>2023-05-17T12:23:17Z</time>
</trkpt>
<trkpt lat="49.09883799031377" lon="8.39339199475944">
<ele>113.39999999999998</ele>
<time>2023-05-17T12:23:18Z</time>
</trkpt>
<trkpt lat="49.09886498004198" lon="8.39332795701921">
<ele>113.39999999999998</ele>
<time>2023-05-17T12:23:19Z</time>
</trkpt>
<trkpt lat="49.098896998912096" lon="8.393266936764121">
<ele>113.39999999999998</ele>
<time>2023-05-17T12:23:20Z</time>
</trkpt>
<trkpt lat="49.09892499446869" lon="8.393204994499683">
<ele>113.39999999999998</ele>
<time>2023-05-17T12:23:21Z</time>
</trkpt>
<trkpt lat="49.09895491786301" lon="8.393141962587833">
<ele>113.39999999999998</ele>
<time>2023-05-17T12:23:22Z</time>
</trkpt>
<trkpt lat="49.098981991410255" lon="8.393084965646267">
<ele>113.39999999999998</ele>
<time>2023-05-17T12:23:23Z</time>
</trkpt>
<trkpt lat="49.099002946168184" lon="8.3930279687047">
<ele>113.39999999999998</ele>
<time>2023-05-17T12:23:24Z</time>
</trkpt>
<trkpt lat="49.099024990573525" lon="8.392971977591515">
<ele>113.39999999999998</ele>
<time>2023-05-17T12:23:25Z</time>
</trkpt>
<trkpt lat="49.099047956988215" lon="8.392909951508045">
<ele>113.39999999999998</ele>
<time>2023-05-17T12:23:26Z</time>
</trkpt>
<trkpt lat="49.09907494671643" lon="8.39285496622324">
<ele>113.39999999999998</ele>
<time>2023-05-17T12:23:27Z</time>
</trkpt>
<trkpt lat="49.09910193644464" lon="8.392801992595196">
<ele>113.39999999999998</ele>
<time>2023-05-17T12:23:28Z</time>
</trkpt>
<trkpt lat="49.09912792034447" lon="8.392741978168488">
<ele>113.39999999999998</ele>
<time>2023-05-17T12:23:29Z</time>
</trkpt>
<trkpt lat="49.099157927557826" lon="8.392686992883682">
<ele>113.39999999999998</ele>
<time>2023-05-17T12:23:30Z</time>
</trkpt>
<trkpt lat="49.09918994642794" lon="8.392629995942116">
<ele>113.39999999999998</ele>
<time>2023-05-17T12:23:31Z</time>
</trkpt>
<trkpt lat="49.0992249827832" lon="8.392574926838279">
<ele>113.20000000000005</ele>
<time>2023-05-17T12:23:32Z</time>
</trkpt>
<trkpt lat="49.09925498999655" lon="8.39251197874546">
<ele>113.20000000000005</ele>
<time>2023-05-17T12:23:33Z</time>
</trkpt>
<trkpt lat="49.099286925047636" lon="8.39244794100523">
<ele>113.20000000000005</ele>
<time>2023-05-17T12:23:34Z</time>
</trkpt>
<trkpt lat="49.09931693226099" lon="8.392386920750141">
<ele>113.20000000000005</ele>
<time>2023-05-17T12:23:35Z</time>
</trkpt>
<trkpt lat="49.099346939474344" lon="8.392321961000562">
<ele>113.20000000000005</ele>
<time>2023-05-17T12:23:36Z</time>
</trkpt>
<trkpt lat="49.09937493503094" lon="8.392257923260331">
<ele>113.20000000000005</ele>
<time>2023-05-17T12:23:37Z</time>
</trkpt>
<trkpt lat="49.09940293058753" lon="8.392194975167513">
<ele>113</ele>
<time>2023-05-17T12:23:38Z</time>
</trkpt>
<trkpt lat="49.099431931972504" lon="8.392129931598902">
<ele>113</ele>
<time>2023-05-17T12:23:39Z</time>
</trkpt>
<trkpt lat="49.0994599275291" lon="8.392067989334464">
<ele>113</ele>
<time>2023-05-17T12:23:40Z</time>
</trkpt>
<trkpt lat="49.09948792308569" lon="8.392009986564517">
<ele>113</ele>
<time>2023-05-17T12:23:41Z</time>
</trkpt>
<trkpt lat="49.099519941955805" lon="8.39195198379457">
<ele>113</ele>
<time>2023-05-17T12:23:42Z</time>
</trkpt>
<trkpt lat="49.09955196082592" lon="8.391892975196242">
<ele>113</ele>
<time>2023-05-17T12:23:43Z</time>
</trkpt>
<trkpt lat="49.099581968039274" lon="8.391831954941154">
<ele>113</ele>
<time>2023-05-17T12:23:44Z</time>
</trkpt>
<trkpt lat="49.09961298108101" lon="8.391771940514445">
<ele>113</ele>
<time>2023-05-17T12:23:45Z</time>
</trkpt>
<trkpt lat="49.099644999951124" lon="8.391711926087737">
<ele>113</ele>
<time>2023-05-17T12:23:46Z</time>
</trkpt>
<trkpt lat="49.09967299550772" lon="8.391642943024635">
<ele>113</ele>
<time>2023-05-17T12:23:47Z</time>
</trkpt>
<trkpt lat="49.09970291890204" lon="8.391576977446675">
<ele>113</ele>
<time>2023-05-17T12:23:48Z</time>
</trkpt>
<trkpt lat="49.099732926115394" lon="8.391511933878064">
<ele>113</ele>
<time>2023-05-17T12:23:49Z</time>
</trkpt>
<trkpt lat="49.09976695664227" lon="8.391447979956865">
<ele>113</ele>
<time>2023-05-17T12:23:50Z</time>
</trkpt>
<trkpt lat="49.099796963855624" lon="8.391381930559874">
<ele>113</ele>
<time>2023-05-17T12:23:51Z</time>
</trkpt>
<trkpt lat="49.09982797689736" lon="8.391314959153533">
<ele>113</ele>
<time>2023-05-17T12:23:52Z</time>
</trkpt>
<trkpt lat="49.099859995767474" lon="8.391254944726825">
<ele>113</ele>
<time>2023-05-17T12:23:53Z</time>
</trkpt>
<trkpt lat="49.09989193081856" lon="8.391192918643355">
<ele>113</ele>
<time>2023-05-17T12:23:54Z</time>
</trkpt>
<trkpt lat="49.09992294386029" lon="8.391132988035679">
<ele>113</ele>
<time>2023-05-17T12:23:55Z</time>
</trkpt>
<trkpt lat="49.09995697438717" lon="8.391069956123829">
<ele>112.79999999999995</ele>
<time>2023-05-17T12:23:56Z</time>
</trkpt>
<trkpt lat="49.099989999085665" lon="8.391002984717488">
<ele>112.79999999999995</ele>
<time>2023-05-17T12:23:57Z</time>
</trkpt>
<trkpt lat="49.10002193413675" lon="8.390936935320497">
<ele>112.79999999999995</ele>
<time>2023-05-17T12:23:58Z</time>
</trkpt>
<trkpt lat="49.100056970492005" lon="8.390872981399298">
<ele>112.79999999999995</ele>
<time>2023-05-17T12:23:59Z</time>
</trkpt>
<trkpt lat="49.10008798353374" lon="8.39081296697259">
<ele>112.60000000000002</ele>
<time>2023-05-17T12:24:00Z</time>
</trkpt>
<trkpt lat="49.10011296160519" lon="8.3907519467175">
<ele>112.60000000000002</ele>
<time>2023-05-17T12:24:01Z</time>
</trkpt>
<trkpt lat="49.100139951333404" lon="8.39068497531116">
<ele>112.39999999999998</ele>
<time>2023-05-17T12:24:02Z</time>
</trkpt>
<trkpt lat="49.10016995854676" lon="8.390624960884452">
<ele>112.39999999999998</ele>
<time>2023-05-17T12:24:03Z</time>
</trkpt>
<trkpt lat="49.10019493661821" lon="8.39055991731584">
<ele>112.39999999999998</ele>
<time>2023-05-17T12:24:04Z</time>
</trkpt>
<trkpt lat="49.10022494383156" lon="8.390496969223022">
<ele>112.39999999999998</ele>
<time>2023-05-17T12:24:05Z</time>
</trkpt>
<trkpt lat="49.10025495104492" lon="8.390439972281456">
<ele>112.39999999999998</ele>
<time>2023-05-17T12:24:06Z</time>
</trkpt>
<trkpt lat="49.10028696991503" lon="8.39038297533989">
<ele>112.20000000000005</ele>
<time>2023-05-17T12:24:07Z</time>
</trkpt>
<trkpt lat="49.10031697712839" lon="8.390324972569942">
<ele>112.20000000000005</ele>
<time>2023-05-17T12:24:08Z</time>
</trkpt>
<trkpt lat="49.10034698434174" lon="8.390261940658092">
<ele>112</ele>
<time>2023-05-17T12:24:09Z</time>
</trkpt>
<trkpt lat="49.100376991555095" lon="8.390197986736894">
<ele>112</ele>
<time>2023-05-17T12:24:10Z</time>
</trkpt>
<trkpt lat="49.10040699876845" lon="8.390144929289818">
<ele>111.79999999999995</ele>
<time>2023-05-17T12:24:11Z</time>
</trkpt>
<trkpt lat="49.10043298266828" lon="8.390087932348251">
<ele>111.79999999999995</ele>
<time>2023-05-17T12:24:12Z</time>
</trkpt>
<trkpt lat="49.100466929376125" lon="8.390034958720207">
<ele>111.60000000000002</ele>
<time>2023-05-17T12:24:13Z</time>
</trkpt>
<trkpt lat="49.10049794241786" lon="8.38997796177864">
<ele>111.60000000000002</ele>
<time>2023-05-17T12:24:14Z</time>
</trkpt>
<trkpt lat="49.100526943802834" lon="8.389917947351933">
<ele>111.60000000000002</ele>
<time>2023-05-17T12:24:15Z</time>
</trkpt>
<trkpt lat="49.10055493935943" lon="8.389859944581985">
<ele>111.60000000000002</ele>
<time>2023-05-17T12:24:16Z</time>
</trkpt>
<trkpt lat="49.10058192908764" lon="8.389794984832406">
<ele>111.60000000000002</ele>
<time>2023-05-17T12:24:17Z</time>
</trkpt>
<trkpt lat="49.10061193630099" lon="8.389732958748937">
<ele>111.60000000000002</ele>
<time>2023-05-17T12:24:18Z</time>
</trkpt>
<trkpt lat="49.100639931857586" lon="8.389672944322228">
<ele>111.60000000000002</ele>
<time>2023-05-17T12:24:19Z</time>
</trkpt>
<trkpt lat="49.10066792741418" lon="8.38961292989552">
<ele>111.60000000000002</ele>
<time>2023-05-17T12:24:20Z</time>
</trkpt>
<trkpt lat="49.10069692879915" lon="8.389557944610715">
<ele>111.60000000000002</ele>
<time>2023-05-17T12:24:21Z</time>
</trkpt>
<trkpt lat="49.10072693601251" lon="8.389492984861135">
<ele>111.60000000000002</ele>
<time>2023-05-17T12:24:22Z</time>
</trkpt>
<trkpt lat="49.10075291991234" lon="8.389429952949286">
<ele>111.60000000000002</ele>
<time>2023-05-17T12:24:23Z</time>
</trkpt>
<trkpt lat="49.10078192129731" lon="8.389369938522577">
<ele>111.60000000000002</ele>
<time>2023-05-17T12:24:24Z</time>
</trkpt>
<trkpt lat="49.100811928510666" lon="8.389314953237772">
<ele>111.60000000000002</ele>
<time>2023-05-17T12:24:25Z</time>
</trkpt>
<trkpt lat="49.10084193572402" lon="8.389256950467825">
<ele>111.60000000000002</ele>
<time>2023-05-17T12:24:26Z</time>
</trkpt>
<trkpt lat="49.100872948765755" lon="8.38920196518302">
<ele>111.60000000000002</ele>
<time>2023-05-17T12:24:27Z</time>
</trkpt>
<trkpt lat="49.10090697929263" lon="8.389149997383356">
<ele>111.60000000000002</ele>
<time>2023-05-17T12:24:28Z</time>
</trkpt>
<trkpt lat="49.100934974849224" lon="8.389087971299887">
<ele>111.60000000000002</ele>
<time>2023-05-17T12:24:29Z</time>
</trkpt>
<trkpt lat="49.10096297040582" lon="8.389027956873178">
<ele>111.60000000000002</ele>
<time>2023-05-17T12:24:30Z</time>
</trkpt>
<trkpt lat="49.10099197179079" lon="8.388969954103231">
<ele>111.60000000000002</ele>
<time>2023-05-17T12:24:31Z</time>
</trkpt>
<trkpt lat="49.101021979004145" lon="8.388914968818426">
<ele>111.60000000000002</ele>
<time>2023-05-17T12:24:32Z</time>
</trkpt>
<trkpt lat="49.10104997456074" lon="8.38885998353362">
<ele>111.60000000000002</ele>
<time>2023-05-17T12:24:33Z</time>
</trkpt>
<trkpt lat="49.10107495263219" lon="8.388799969106913">
<ele>111.60000000000002</ele>
<time>2023-05-17T12:24:34Z</time>
</trkpt>
<trkpt lat="49.1011019423604" lon="8.388747917488217">
<ele>111.60000000000002</ele>
<time>2023-05-17T12:24:35Z</time>
</trkpt>
<trkpt lat="49.10112298093736" lon="8.38868798688054">
<ele>111.60000000000002</ele>
<time>2023-05-17T12:24:36Z</time>
</trkpt>
<trkpt lat="49.101149970665574" lon="8.388626966625452">
<ele>111.60000000000002</ele>
<time>2023-05-17T12:24:37Z</time>
</trkpt>
<trkpt lat="49.10117796622217" lon="8.388566952198744">
<ele>111.39999999999998</ele>
<time>2023-05-17T12:24:38Z</time>
</trkpt>
<trkpt lat="49.10120294429362" lon="8.388507943600416">
<ele>111.39999999999998</ele>
<time>2023-05-17T12:24:39Z</time>
</trkpt>
<trkpt lat="49.10122792236507" lon="8.38844994083047">
<ele>111.20000000000005</ele>
<time>2023-05-17T12:24:40Z</time>
</trkpt>
<trkpt lat="49.10125692375004" lon="8.388396967202425">
<ele>111.20000000000005</ele>
<time>2023-05-17T12:24:41Z</time>
</trkpt>
<trkpt lat="49.10129497759044" lon="8.38834198191762">
<ele>111</ele>
<time>2023-05-17T12:24:42Z</time>
</trkpt>
<trkpt lat="49.10133797675371" lon="8.38829998858273">
<ele>110.79999999999995</ele>
<time>2023-05-17T12:24:43Z</time>
</trkpt>
<trkpt lat="49.101384999230504" lon="8.388261934742332">
<ele>110.60000000000002</ele>
<time>2023-05-17T12:24:44Z</time>
</trkpt>
<trkpt lat="49.101431937888265" lon="8.388231927528977">
<ele>110.39999999999998</ele>
<time>2023-05-17T12:24:45Z</time>
</trkpt>
<trkpt lat="49.10148298367858" lon="8.38821197859943">
<ele>110.20000000000005</ele>
<time>2023-05-17T12:24:46Z</time>
</trkpt>
<trkpt lat="49.101539980620146" lon="8.388206949457526">
<ele>109.79999999999995</ele>
<time>2023-05-17T12:24:47Z</time>
</trkpt>
<trkpt lat="49.10159496590495" lon="8.388207955285907">
<ele>109.60000000000002</ele>
<time>2023-05-17T12:24:48Z</time>
</trkpt>
<trkpt lat="49.10165196284652" lon="8.388204937800765">
<ele>109.39999999999998</ele>
<time>2023-05-17T12:24:49Z</time>
</trkpt>
<trkpt lat="49.10170694813132" lon="8.388207955285907">
<ele>109</ele>
<time>2023-05-17T12:24:50Z</time>
</trkpt>
<trkpt lat="49.10176193341613" lon="8.38821197859943">
<ele>108.60000000000002</ele>
<time>2023-05-17T12:24:51Z</time>
</trkpt>
<trkpt lat="49.1018099617213" lon="8.38821298442781">
<ele>108.39999999999998</ele>
<time>2023-05-17T12:24:52Z</time>
</trkpt>
<trkpt lat="49.10185698419809" lon="8.3882169239223">
<ele>108</ele>
<time>2023-05-17T12:24:53Z</time>
</trkpt>
<trkpt lat="49.10189495421946" lon="8.388219941407442">
<ele>107.60000000000002</ele>
<time>2023-05-17T12:24:54Z</time>
</trkpt>
<trkpt lat="49.10193292424083" lon="8.388237962499261">
<ele>107.39999999999998</ele>
<time>2023-05-17T12:24:55Z</time>
</trkpt>
<trkpt lat="49.10196494311094" lon="8.38825992308557">
<ele>107.20000000000005</ele>
<time>2023-05-17T12:24:56Z</time>
</trkpt>
<trkpt lat="49.10199796780944" lon="8.38827995583415">
<ele>107.20000000000005</ele>
<time>2023-05-17T12:24:57Z</time>
</trkpt>
<trkpt lat="49.102031998336315" lon="8.38830191642046">
<ele>107</ele>
<time>2023-05-17T12:24:58Z</time>
</trkpt>
<trkpt lat="49.10206695087254" lon="8.38832194916904">
<ele>107</ele>
<time>2023-05-17T12:24:59Z</time>
</trkpt>
<trkpt lat="49.10210299305618" lon="8.388334941118956">
<ele>106.79999999999995</ele>
<time>2023-05-17T12:25:00Z</time>
</trkpt>
<trkpt lat="49.102139957249165" lon="8.388334941118956">
<ele>106.79999999999995</ele>
<time>2023-05-17T12:25:01Z</time>
</trkpt>
<trkpt lat="49.10217692144215" lon="8.388327984139323">
<ele>106.60000000000002</ele>
<time>2023-05-17T12:25:02Z</time>
</trkpt>
<trkpt lat="49.10221698693931" lon="8.388319937512279">
<ele>106.60000000000002</ele>
<time>2023-05-17T12:25:03Z</time>
</trkpt>
<trkpt lat="49.10225696861744" lon="8.388311974704266">
<ele>106.39999999999998</ele>
<time>2023-05-17T12:25:04Z</time>
</trkpt>
<trkpt lat="49.10229996778071" lon="8.388296971097589">
<ele>106.39999999999998</ele>
<time>2023-05-17T12:25:05Z</time>
</trkpt>
<trkpt lat="49.10234296694398" lon="8.388267969712615">
<ele>106.39999999999998</ele>
<time>2023-05-17T12:25:06Z</time>
</trkpt>
<trkpt lat="49.10238496027887" lon="8.388232933357358">
<ele>106.20000000000005</ele>
<time>2023-05-17T12:25:07Z</time>
</trkpt>
<trkpt lat="49.1024299710989" lon="8.388204937800765">
<ele>106.20000000000005</ele>
<time>2023-05-17T12:25:08Z</time>
</trkpt>
<trkpt lat="49.10247498191893" lon="8.388179959729314">
<ele>106.20000000000005</ele>
<time>2023-05-17T12:25:09Z</time>
</trkpt>
<trkpt lat="49.10251999273896" lon="8.388154981657863">
<ele>106.20000000000005</ele>
<time>2023-05-17T12:25:10Z</time>
</trkpt>
<trkpt lat="49.10256693139672" lon="8.388132937252522">
<ele>106</ele>
<time>2023-05-17T12:25:11Z</time>
</trkpt>
<trkpt lat="49.102614959701896" lon="8.388111982494593">
<ele>106</ele>
<time>2023-05-17T12:25:12Z</time>
</trkpt>
<trkpt lat="49.10265997052193" lon="8.388089938089252">
<ele>105.79999999999995</ele>
<time>2023-05-17T12:25:13Z</time>
</trkpt>
<trkpt lat="49.1027029696852" lon="8.388072922825813">
<ele>105.79999999999995</ele>
<time>2023-05-17T12:25:14Z</time>
</trkpt>
<trkpt lat="49.10274697467685" lon="8.388057919219136">
<ele>105.60000000000002</ele>
<time>2023-05-17T12:25:15Z</time>
</trkpt>
<trkpt lat="49.10279198549688" lon="8.388049956411123">
<ele>105.60000000000002</ele>
<time>2023-05-17T12:25:16Z</time>
</trkpt>
<trkpt lat="49.10283699631691" lon="8.388046938925982">
<ele>105.39999999999998</ele>
<time>2023-05-17T12:25:17Z</time>
</trkpt>
<trkpt lat="49.10288795828819" lon="8.38804492726922">
<ele>105.20000000000005</ele>
<time>2023-05-17T12:25:18Z</time>
</trkpt>
<trkpt lat="49.1029479727149" lon="8.388037970289588">
<ele>105</ele>
<time>2023-05-17T12:25:19Z</time>
</trkpt>
<trkpt lat="49.10300999879837" lon="8.388022966682911">
<ele>104.60000000000002</ele>
<time>2023-05-17T12:25:20Z</time>
</trkpt>
<trkpt lat="49.103067917749286" lon="8.388004945591092">
<ele>104.39999999999998</ele>
<time>2023-05-17T12:25:21Z</time>
</trkpt>
<trkpt lat="49.103129943832755" lon="8.387984996661544">
<ele>104.20000000000005</ele>
<time>2023-05-17T12:25:22Z</time>
</trkpt>
<trkpt lat="49.103192975744605" lon="8.3879579231143">
<ele>104</ele>
<time>2023-05-17T12:25:23Z</time>
</trkpt>
<trkpt lat="49.103256929665804" lon="8.387931939214468">
<ele>103.60000000000002</ele>
<time>2023-05-17T12:25:24Z</time>
</trkpt>
<trkpt lat="49.10331794992089" lon="8.387907966971397">
<ele>103.60000000000002</ele>
<time>2023-05-17T12:25:25Z</time>
</trkpt>
<trkpt lat="49.1033779643476" lon="8.387889945879579">
<ele>103.39999999999998</ele>
<time>2023-05-17T12:25:26Z</time>
</trkpt>
<trkpt lat="49.1034419182688" lon="8.38786798529327">
<ele>103.20000000000005</ele>
<time>2023-05-17T12:25:27Z</time>
</trkpt>
<trkpt lat="49.10349799320102" lon="8.387846946716309">
<ele>103</ele>
<time>2023-05-17T12:25:28Z</time>
</trkpt>
<trkpt lat="49.10355691798031" lon="8.387817945331335">
<ele>102.79999999999995</ele>
<time>2023-05-17T12:25:29Z</time>
</trkpt>
<trkpt lat="49.10361492075026" lon="8.387787938117981">
<ele>102.79999999999995</ele>
<time>2023-05-17T12:25:30Z</time>
</trkpt>
<trkpt lat="49.10367292352021" lon="8.387756925076246">
<ele>102.60000000000002</ele>
<time>2023-05-17T12:25:31Z</time>
</trkpt>
<trkpt lat="49.103731932118535" lon="8.387726917862892">
<ele>102.60000000000002</ele>
<time>2023-05-17T12:25:32Z</time>
</trkpt>
<trkpt lat="49.10378792323172" lon="8.387702945619822">
<ele>102.39999999999998</ele>
<time>2023-05-17T12:25:33Z</time>
</trkpt>
<trkpt lat="49.10384299233556" lon="8.387686936184764">
<ele>102.39999999999998</ele>
<time>2023-05-17T12:25:34Z</time>
</trkpt>
<trkpt lat="49.10389797762036" lon="8.387666987255216">
<ele>102.20000000000005</ele>
<time>2023-05-17T12:25:35Z</time>
</trkpt>
<trkpt lat="49.10394994542003" lon="8.387647960335016">
<ele>102.20000000000005</ele>
<time>2023-05-17T12:25:36Z</time>
</trkpt>
<trkpt lat="49.10400694236159" lon="8.387622982263565">
<ele>102.20000000000005</ele>
<time>2023-05-17T12:25:37Z</time>
</trkpt>
<trkpt lat="49.1040619276464" lon="8.387594986706972">
<ele>102.20000000000005</ele>
<time>2023-05-17T12:25:38Z</time>
</trkpt>
<trkpt lat="49.10411297343671" lon="8.38756799697876">
<ele>102.20000000000005</ele>
<time>2023-05-17T12:25:39Z</time>
</trkpt>
<trkpt lat="49.104162929579616" lon="8.387542935088277">
<ele>102.39999999999998</ele>
<time>2023-05-17T12:25:40Z</time>
</trkpt>
<trkpt lat="49.10421196371317" lon="8.387514939531684">
<ele>102.39999999999998</ele>
<time>2023-05-17T12:25:41Z</time>
</trkpt>
<trkpt lat="49.10425999201834" lon="8.387487949803472">
<ele>102.39999999999998</ele>
<time>2023-05-17T12:25:42Z</time>
</trkpt>
<trkpt lat="49.104312965646386" lon="8.38746196590364">
<ele>102.39999999999998</ele>
<time>2023-05-17T12:25:43Z</time>
</trkpt>
<trkpt lat="49.10436493344605" lon="8.38743799366057">
<ele>102.39999999999998</ele>
<time>2023-05-17T12:25:44Z</time>
</trkpt>
<trkpt lat="49.104422936216" lon="8.387411925941706">
<ele>102.60000000000002</ele>
<time>2023-05-17T12:25:45Z</time>
</trkpt>
<trkpt lat="49.1044779215008" lon="8.387384936213493">
<ele>102.60000000000002</ele>
<time>2023-05-17T12:25:46Z</time>
</trkpt>
<trkpt lat="49.10453198477626" lon="8.387357946485281">
<ele>102.60000000000002</ele>
<time>2023-05-17T12:25:47Z</time>
</trkpt>
<trkpt lat="49.10458294674754" lon="8.387337997555733">
<ele>102.60000000000002</ele>
<time>2023-05-17T12:25:48Z</time>
</trkpt>
<trkpt lat="49.104636926203966" lon="8.38731192983687">
<ele>102.60000000000002</ele>
<time>2023-05-17T12:25:49Z</time>
</trkpt>
<trkpt lat="49.10468495450914" lon="8.387292986735702">
<ele>102.60000000000002</ele>
<time>2023-05-17T12:25:50Z</time>
</trkpt>
<trkpt lat="49.10473499447107" lon="8.387267924845219">
<ele>102.79999999999995</ele>
<time>2023-05-17T12:25:51Z</time>
</trkpt>
<trkpt lat="49.104784950613976" lon="8.387239929288626">
<ele>102.79999999999995</ele>
<time>2023-05-17T12:25:52Z</time>
</trkpt>
<trkpt lat="49.10483197309077" lon="8.387212939560413">
<ele>102.79999999999995</ele>
<time>2023-05-17T12:25:53Z</time>
</trkpt>
<trkpt lat="49.10487991757691" lon="8.38718494400382">
<ele>102.79999999999995</ele>
<time>2023-05-17T12:25:54Z</time>
</trkpt>
<trkpt lat="49.10492995753884" lon="8.387162983417511">
<ele>102.79999999999995</ele>
<time>2023-05-17T12:25:55Z</time>
</trkpt>
<trkpt lat="49.104976980015635" lon="8.387142950668931">
<ele>102.79999999999995</ele>
<time>2023-05-17T12:25:56Z</time>
</trkpt>
<trkpt lat="49.10502693615854" lon="8.387119984254241">
<ele>103</ele>
<time>2023-05-17T12:25:57Z</time>
</trkpt>
<trkpt lat="49.10506993532181" lon="8.387104980647564">
<ele>103.20000000000005</ele>
<time>2023-05-17T12:25:58Z</time>
</trkpt>
<trkpt lat="49.105106983333826" lon="8.387092994526029">
<ele>103.39999999999998</ele>
<time>2023-05-17T12:25:59Z</time>
</trkpt>
<trkpt lat="49.10514495335519" lon="8.387079918757081">
<ele>103.60000000000002</ele>
<time>2023-05-17T12:26:00Z</time>
</trkpt>
<trkpt lat="49.10517697222531" lon="8.387067932635546">
<ele>103.79999999999995</ele>
<time>2023-05-17T12:26:01Z</time>
</trkpt>
<trkpt lat="49.105209996923804" lon="8.387051923200488">
<ele>104</ele>
<time>2023-05-17T12:26:02Z</time>
</trkpt>
<trkpt lat="49.10524494946003" lon="8.387034991756082">
<ele>104.20000000000005</ele>
<time>2023-05-17T12:26:03Z</time>
</trkpt>
<trkpt lat="49.1052829194814" lon="8.387017976492643">
<ele>104.39999999999998</ele>
<time>2023-05-17T12:26:04Z</time>
</trkpt>
<trkpt lat="49.10532298497856" lon="8.387002972885966">
<ele>104.60000000000002</ele>
<time>2023-05-17T12:26:05Z</time>
</trkpt>
<trkpt lat="49.105361960828304" lon="8.386982940137386">
<ele>104.60000000000002</ele>
<time>2023-05-17T12:26:06Z</time>
</trkpt>
<trkpt lat="49.10540194250643" lon="8.386957962065935">
<ele>104.60000000000002</ele>
<time>2023-05-17T12:26:07Z</time>
</trkpt>
<trkpt lat="49.10543798469007" lon="8.386936923488975">
<ele>104.79999999999995</ele>
<time>2023-05-17T12:26:08Z</time>
</trkpt>
<trkpt lat="49.10547494888306" lon="8.386917980387807">
<ele>104.79999999999995</ele>
<time>2023-05-17T12:26:09Z</time>
</trkpt>
<trkpt lat="49.10552691668272" lon="8.386887973174453">
<ele>104.79999999999995</ele>
<time>2023-05-17T12:26:10Z</time>
</trkpt>
<trkpt lat="49.10556798800826" lon="8.386864922940731">
<ele>105</ele>
<time>2023-05-17T12:26:11Z</time>
</trkpt>
<trkpt lat="49.10560696385801" lon="8.386846985667944">
<ele>105</ele>
<time>2023-05-17T12:26:12Z</time>
</trkpt>
<trkpt lat="49.105641916394234" lon="8.386836927384138">
<ele>105</ele>
<time>2023-05-17T12:26:13Z</time>
</trkpt>
<trkpt lat="49.10567292943597" lon="8.386826952919364">
<ele>105</ele>
<time>2023-05-17T12:26:14Z</time>
</trkpt>
<trkpt lat="49.105706959962845" lon="8.386814966797829">
<ele>105</ele>
<time>2023-05-17T12:26:15Z</time>
</trkpt>
<trkpt lat="49.10573495551944" lon="8.386804992333055">
<ele>105</ele>
<time>2023-05-17T12:26:16Z</time>
</trkpt>
<trkpt lat="49.10576496273279" lon="8.386787977069616">
<ele>105</ele>
<time>2023-05-17T12:26:17Z</time>
</trkpt>
<trkpt lat="49.10579698160291" lon="8.386776996776462">
<ele>105</ele>
<time>2023-05-17T12:26:18Z</time>
</trkpt>
<trkpt lat="49.10582992248237" lon="8.386762998998165">
<ele>105</ele>
<time>2023-05-17T12:26:19Z</time>
</trkpt>
<trkpt lat="49.10586194135249" lon="8.386746989563107">
<ele>105</ele>
<time>2023-05-17T12:26:20Z</time>
</trkpt>
<trkpt lat="49.105896977707744" lon="8.386722933501005">
<ele>105</ele>
<time>2023-05-17T12:26:21Z</time>
</trkpt>
<trkpt lat="49.10593494772911" lon="8.386694937944412">
<ele>104.79999999999995</ele>
<time>2023-05-17T12:26:22Z</time>
</trkpt>
<trkpt lat="49.10597794689238" lon="8.386662919074297">
<ele>104.79999999999995</ele>
<time>2023-05-17T12:26:23Z</time>
</trkpt>
<trkpt lat="49.10602195188403" lon="8.386639952659607">
<ele>104.79999999999995</ele>
<time>2023-05-17T12:26:24Z</time>
</trkpt>
<trkpt lat="49.1060649510473" lon="8.386621931567788">
<ele>104.79999999999995</ele>
<time>2023-05-17T12:26:25Z</time>
</trkpt>
<trkpt lat="49.10610795021057" lon="8.386597959324718">
<ele>104.79999999999995</ele>
<time>2023-05-17T12:26:26Z</time>
</trkpt>
<trkpt lat="49.10614994354546" lon="8.386577926576138">
<ele>104.79999999999995</ele>
<time>2023-05-17T12:26:27Z</time>
</trkpt>
<trkpt lat="49.10618799738586" lon="8.38656292296946">
<ele>104.60000000000002</ele>
<time>2023-05-17T12:26:28Z</time>
</trkpt>
<trkpt lat="49.106224961578846" lon="8.386546997353435">
<ele>104.60000000000002</ele>
<time>2023-05-17T12:26:29Z</time>
</trkpt>
<trkpt lat="49.10625798627734" lon="8.386531993746758">
<ele>104.60000000000002</ele>
<time>2023-05-17T12:26:30Z</time>
</trkpt>
<trkpt lat="49.10629696212709" lon="8.386509949341416">
<ele>104.60000000000002</ele>
<time>2023-05-17T12:26:31Z</time>
</trkpt>
<trkpt lat="49.10633694380522" lon="8.386489916592836">
<ele>104.60000000000002</ele>
<time>2023-05-17T12:26:32Z</time>
</trkpt>
<trkpt lat="49.10637499764562" lon="8.386469967663288">
<ele>104.60000000000002</ele>
<time>2023-05-17T12:26:33Z</time>
</trkpt>
<trkpt lat="49.106412967666984" lon="8.386449934914708">
<ele>104.60000000000002</ele>
<time>2023-05-17T12:26:34Z</time>
</trkpt>
<trkpt lat="49.10645294934511" lon="8.38643291965127">
<ele>104.60000000000002</ele>
<time>2023-05-17T12:26:35Z</time>
</trkpt>
<trkpt lat="49.10649494268" lon="8.386417999863625">
<ele>104.60000000000002</ele>
<time>2023-05-17T12:26:36Z</time>
</trkpt>
<trkpt lat="49.10653794184327" lon="8.386397967115045">
<ele>104.60000000000002</ele>
<time>2023-05-17T12:26:37Z</time>
</trkpt>
<trkpt lat="49.1065779235214" lon="8.386376928538084">
<ele>104.60000000000002</ele>
<time>2023-05-17T12:26:38Z</time>
</trkpt>
<trkpt lat="49.10661991685629" lon="8.386356979608536">
<ele>104.60000000000002</ele>
<time>2023-05-17T12:26:39Z</time>
</trkpt>
<trkpt lat="49.10666199401021" lon="8.386334935203195">
<ele>104.60000000000002</ele>
<time>2023-05-17T12:26:40Z</time>
</trkpt>
<trkpt lat="49.10670692101121" lon="8.38632294908166">
<ele>104.60000000000002</ele>
<time>2023-05-17T12:26:41Z</time>
</trkpt>
<trkpt lat="49.10674799233675" lon="8.386311968788505">
<ele>104.60000000000002</ele>
<time>2023-05-17T12:26:42Z</time>
</trkpt>
<trkpt lat="49.1067919973284" lon="8.386294953525066">
<ele>104.60000000000002</ele>
<time>2023-05-17T12:26:43Z</time>
</trkpt>
<trkpt lat="49.10683793015778" lon="8.386271987110376">
<ele>104.60000000000002</ele>
<time>2023-05-17T12:26:44Z</time>
</trkpt>
<trkpt lat="49.10688294097781" lon="8.386247931048274">
<ele>104.60000000000002</ele>
<time>2023-05-17T12:26:45Z</time>
</trkpt>
<trkpt lat="49.10692795179784" lon="8.386226976290345">
<ele>104.60000000000002</ele>
<time>2023-05-17T12:26:46Z</time>
</trkpt>
<trkpt lat="49.1069769859314" lon="8.386204931885004">
<ele>104.60000000000002</ele>
<time>2023-05-17T12:26:47Z</time>
</trkpt>
<trkpt lat="49.10702493041754" lon="8.386184982955456">
<ele>104.60000000000002</ele>
<time>2023-05-17T12:26:48Z</time>
</trkpt>
<trkpt lat="49.10706792958081" lon="8.386159921064973">
<ele>104.60000000000002</ele>
<time>2023-05-17T12:26:49Z</time>
</trkpt>
<trkpt lat="49.1071149520576" lon="8.386139972135425">
<ele>104.60000000000002</ele>
<time>2023-05-17T12:26:50Z</time>
</trkpt>
<trkpt lat="49.10716197453439" lon="8.386111976578832">
<ele>104.60000000000002</ele>
<time>2023-05-17T12:26:51Z</time>
</trkpt>
<trkpt lat="49.10722693428397" lon="8.386079957708716">
<ele>104.60000000000002</ele>
<time>2023-05-17T12:26:52Z</time>
</trkpt>
<trkpt lat="49.107294995337725" lon="8.386059924960136">
<ele>104.60000000000002</ele>
<time>2023-05-17T12:26:53Z</time>
</trkpt>
<trkpt lat="49.10734796896577" lon="8.386037964373827">
<ele>104.60000000000002</ele>
<time>2023-05-17T12:26:54Z</time>
</trkpt>
<trkpt lat="49.10739993676543" lon="8.386014997959137">
<ele>104.60000000000002</ele>
<time>2023-05-17T12:26:55Z</time>
</trkpt>
<trkpt lat="49.10745198838413" lon="8.385989936068654">
<ele>104.60000000000002</ele>
<time>2023-05-17T12:26:56Z</time>
</trkpt>
<trkpt lat="49.10749993287027" lon="8.385969987139106">
<ele>104.60000000000002</ele>
<time>2023-05-17T12:26:57Z</time>
</trkpt>
<trkpt lat="49.10754293203354" lon="8.385946936905384">
<ele>104.60000000000002</ele>
<time>2023-05-17T12:26:58Z</time>
</trkpt>
<trkpt lat="49.10758693702519" lon="8.385924976319075">
<ele>104.60000000000002</ele>
<time>2023-05-17T12:26:59Z</time>
</trkpt>
<trkpt lat="49.10762993618846" lon="8.385897986590862">
<ele>104.60000000000002</ele>
<time>2023-05-17T12:27:00Z</time>
</trkpt>
<trkpt lat="49.107681987807155" lon="8.385876948013902">
<ele>104.39999999999998</ele>
<time>2023-05-17T12:27:01Z</time>
</trkpt>
<trkpt lat="49.107724986970425" lon="8.38585196994245">
<ele>104.39999999999998</ele>
<time>2023-05-17T12:27:02Z</time>
</trkpt>
<trkpt lat="49.10777695477009" lon="8.38583193719387">
<ele>104.39999999999998</ele>
<time>2023-05-17T12:27:03Z</time>
</trkpt>
<trkpt lat="49.10782196559012" lon="8.385809976607561">
<ele>104.39999999999998</ele>
<time>2023-05-17T12:27:04Z</time>
</trkpt>
<trkpt lat="49.10786295309663" lon="8.38578692637384">
<ele>104.20000000000005</ele>
<time>2023-05-17T12:27:05Z</time>
</trkpt>
<trkpt lat="49.10790997557342" lon="8.385766977444291">
<ele>104.20000000000005</ele>
<time>2023-05-17T12:27:06Z</time>
</trkpt>
<trkpt lat="49.10794995725155" lon="8.385747950524092">
<ele>104</ele>
<time>2023-05-17T12:27:07Z</time>
</trkpt>
<trkpt lat="49.10799496807158" lon="8.385726995766163">
<ele>104</ele>
<time>2023-05-17T12:27:08Z</time>
</trkpt>
<trkpt lat="49.10803494974971" lon="8.385707968845963">
<ele>104</ele>
<time>2023-05-17T12:27:09Z</time>
</trkpt>
<trkpt lat="49.108071997761726" lon="8.385692965239286">
<ele>103.79999999999995</ele>
<time>2023-05-17T12:27:10Z</time>
</trkpt>
<trkpt lat="49.10810996778309" lon="8.385676955804229">
<ele>103.79999999999995</ele>
<time>2023-05-17T12:27:11Z</time>
</trkpt>
<trkpt lat="49.10814994946122" lon="8.385661952197552">
<ele>103.79999999999995</ele>
<time>2023-05-17T12:27:12Z</time>
</trkpt>
<trkpt lat="49.10818993113935" lon="8.385647954419255">
<ele>103.79999999999995</ele>
<time>2023-05-17T12:27:13Z</time>
</trkpt>
<trkpt lat="49.10823192447424" lon="8.385632950812578">
<ele>103.79999999999995</ele>
<time>2023-05-17T12:27:14Z</time>
</trkpt>
<trkpt lat="49.10826796665788" lon="8.38561492972076">
<ele>103.79999999999995</ele>
<time>2023-05-17T12:27:15Z</time>
</trkpt>
<trkpt lat="49.1083029191941" lon="8.385599926114082">
<ele>103.79999999999995</ele>
<time>2023-05-17T12:27:16Z</time>
</trkpt>
<trkpt lat="49.10833996720612" lon="8.385584922507405">
<ele>103.79999999999995</ele>
<time>2023-05-17T12:27:17Z</time>
</trkpt>
<trkpt lat="49.10837793722749" lon="8.385567991062999">
<ele>103.79999999999995</ele>
<time>2023-05-17T12:27:18Z</time>
</trkpt>
<trkpt lat="49.108412973582745" lon="8.385547958314419">
<ele>103.79999999999995</ele>
<time>2023-05-17T12:27:19Z</time>
</trkpt>
<trkpt lat="49.10844993777573" lon="8.385527925565839">
<ele>103.79999999999995</ele>
<time>2023-05-17T12:27:20Z</time>
</trkpt>
<trkpt lat="49.10849193111062" lon="8.38550797663629">
<ele>103.79999999999995</ele>
<time>2023-05-17T12:27:21Z</time>
</trkpt>
<trkpt lat="49.10853291861713" lon="8.385489955544472">
<ele>103.79999999999995</ele>
<time>2023-05-17T12:27:22Z</time>
</trkpt>
<trkpt lat="49.10857298411429" lon="8.385469922795892">
<ele>103.79999999999995</ele>
<time>2023-05-17T12:27:23Z</time>
</trkpt>
<trkpt lat="49.10861296579242" lon="8.385449973866343">
<ele>103.79999999999995</ele>
<time>2023-05-17T12:27:24Z</time>
</trkpt>
<trkpt lat="49.108651941642165" lon="8.385427929461002">
<ele>103.79999999999995</ele>
<time>2023-05-17T12:27:25Z</time>
</trkpt>
<trkpt lat="49.10869996994734" lon="8.385402951389551">
<ele>103.79999999999995</ele>
<time>2023-05-17T12:27:26Z</time>
</trkpt>
<trkpt lat="49.108736934140325" lon="8.385379984974861">
<ele>103.79999999999995</ele>
<time>2023-05-17T12:27:27Z</time>
</trkpt>
<trkpt lat="49.10877297632396" lon="8.385359952226281">
<ele>103.79999999999995</ele>
<time>2023-05-17T12:27:28Z</time>
</trkpt>
<trkpt lat="49.108819998800755" lon="8.385339919477701">
<ele>103.79999999999995</ele>
<time>2023-05-17T12:27:29Z</time>
</trkpt>
<trkpt lat="49.10885998047888" lon="8.385322988033295">
<ele>103.79999999999995</ele>
<time>2023-05-17T12:27:30Z</time>
</trkpt>
<trkpt lat="49.108891999349" lon="8.385316953063011">
<ele>103.79999999999995</ele>
<time>2023-05-17T12:27:31Z</time>
</trkpt>
<trkpt lat="49.10892192274332" lon="8.385316953063011">
<ele>103.79999999999995</ele>
<time>2023-05-17T12:27:32Z</time>
</trkpt>
<trkpt lat="49.10894497297704" lon="8.385326927527785">
<ele>103.79999999999995</ele>
<time>2023-05-17T12:27:33Z</time>
</trkpt>
<trkpt lat="49.10896492190659" lon="8.385342936962843">
<ele>103.79999999999995</ele>
<time>2023-05-17T12:27:34Z</time>
</trkpt>
<trkpt lat="49.10898294299841" lon="8.385364981368184">
<ele>103.79999999999995</ele>
<time>2023-05-17T12:27:35Z</time>
</trkpt>
<trkpt lat="49.10899995826185" lon="8.385384930297732">
<ele>103.79999999999995</ele>
<time>2023-05-17T12:27:36Z</time>
</trkpt>
<trkpt lat="49.109016973525286" lon="8.385404963046312">
<ele>103.79999999999995</ele>
<time>2023-05-17T12:27:37Z</time>
</trkpt>
<trkpt lat="49.1090299654752" lon="8.385431952774525">
<ele>103.79999999999995</ele>
<time>2023-05-17T12:27:38Z</time>
</trkpt>
<trkpt lat="49.10904496908188" lon="8.385456930845976">
<ele>103.79999999999995</ele>
<time>2023-05-17T12:27:39Z</time>
</trkpt>
<trkpt lat="49.10907195881009" lon="8.385472940281034">
<ele>103.79999999999995</ele>
<time>2023-05-17T12:27:40Z</time>
</trkpt>
<trkpt lat="49.10909199155867" lon="8.385491967201233">
<ele>103.79999999999995</ele>
<time>2023-05-17T12:27:41Z</time>
</trkpt>
<trkpt lat="49.109102971851826" lon="8.38550797663629">
<ele>103.79999999999995</ele>
<time>2023-05-17T12:27:42Z</time>
</trkpt>
<trkpt lat="49.1091129463166" lon="8.385522980242968">
<ele>103.79999999999995</ele>
<time>2023-05-17T12:27:43Z</time>
</trkpt>
<trkpt lat="49.109119987115264" lon="8.385532954707742">
<ele>103.79999999999995</ele>
<time>2023-05-17T12:27:44Z</time>
</trkpt>
<trkpt lat="49.109124932438135" lon="8.385537983849645">
<ele>103.79999999999995</ele>
<time>2023-05-17T12:27:45Z</time>
</trkpt>
<trkpt lat="49.10912996158004" lon="8.385551981627941">
<ele>103.79999999999995</ele>
<time>2023-05-17T12:27:46Z</time>
</trkpt>
<trkpt lat="49.10913691855967" lon="8.385564973577857">
<ele>103.79999999999995</ele>
<time>2023-05-17T12:27:47Z</time>
</trkpt>
<trkpt lat="49.109142953529954" lon="8.385566985234618">
<ele>103.79999999999995</ele>
<time>2023-05-17T12:27:48Z</time>
</trkpt>
<trkpt lat="49.109144965186715" lon="8.385567991062999">
<ele>103.79999999999995</ele>
<time>2023-05-17T12:27:49Z</time>
</trkpt>
<trkpt lat="49.109146976843476" lon="8.385569918900728">
<ele>103.79999999999995</ele>
<time>2023-05-17T12:27:50Z</time>
</trkpt>
<trkpt lat="49.10917698405683" lon="8.38561694137752">
<ele>103.79999999999995</ele>
<time>2023-05-17T12:27:50Z</time>
</trkpt>
<trkpt lat="49.109186958521605" lon="8.385622976347804">
<ele>103.79999999999995</ele>
<time>2023-05-17T12:27:51Z</time>
</trkpt>
<trkpt lat="49.10919299349189" lon="8.385622976347804">
<ele>103.79999999999995</ele>
<time>2023-05-17T12:27:52Z</time>
</trkpt>
<trkpt lat="49.10919693298638" lon="8.385622976347804">
<ele>103.79999999999995</ele>
<time>2023-05-17T12:27:53Z</time>
</trkpt>
<trkpt lat="49.109229957684875" lon="8.385646948590875">
<ele>104</ele>
<time>2023-05-17T12:27:53Z</time>
</trkpt>
<trkpt lat="49.10924496129155" lon="8.385656923055649">
<ele>104</ele>
<time>2023-05-17T12:27:54Z</time>
</trkpt>
<trkpt lat="49.10926298238337" lon="8.385667987167835">
<ele>104</ele>
<time>2023-05-17T12:27:55Z</time>
</trkpt>
<trkpt lat="49.10928192548454" lon="8.385681984946132">
<ele>104</ele>
<time>2023-05-17T12:27:56Z</time>
</trkpt>
<trkpt lat="49.10929994657636" lon="8.385692965239286">
<ele>104</ele>
<time>2023-05-17T12:27:57Z</time>
</trkpt>
<trkpt lat="49.109317967668176" lon="8.385704951360822">
<ele>104</ele>
<time>2023-05-17T12:27:58Z</time>
</trkpt>
<trkpt lat="49.109337916597724" lon="8.385707968845963">
<ele>104</ele>
<time>2023-05-17T12:27:59Z</time>
</trkpt>
<trkpt lat="49.10935694351792" lon="8.385709980502725">
<ele>104</ele>
<time>2023-05-17T12:28:00Z</time>
</trkpt>
<trkpt lat="49.10937295295298" lon="8.385709980502725">
<ele>104</ele>
<time>2023-05-17T12:28:01Z</time>
</trkpt>
<trkpt lat="49.10938795655966" lon="8.385709980502725">
<ele>104</ele>
<time>2023-05-17T12:28:02Z</time>
</trkpt>
<trkpt lat="49.10939793102443" lon="8.385709980502725">
<ele>104</ele>
<time>2023-05-17T12:28:03Z</time>
</trkpt>
<trkpt lat="49.109402960166335" lon="8.385709980502725">
<ele>104</ele>
<time>2023-05-17T12:28:04Z</time>
</trkpt>
<trkpt lat="49.109402960166335" lon="8.385712997987866">
<ele>104</ele>
<time>2023-05-17T12:28:04Z</time>
</trkpt>
<trkpt lat="49.10939692519605" lon="8.385711992159486">
<ele>103.79999999999995</ele>
<time>2023-05-17T12:28:05Z</time>
</trkpt>
<trkpt lat="49.10938996821642" lon="8.385711992159486">
<ele>103.79999999999995</ele>
<time>2023-05-17T12:28:06Z</time>
</trkpt>
<trkpt lat="49.109382927417755" lon="8.385709980502725">
<ele>103.79999999999995</ele>
<time>2023-05-17T12:28:07Z</time>
</trkpt>
<trkpt lat="49.10937496460974" lon="8.385712997987866">
<ele>103.79999999999995</ele>
<time>2023-05-17T12:28:08Z</time>
</trkpt>
<trkpt lat="49.10936792381108" lon="8.385712997987866">
<ele>103.79999999999995</ele>
<time>2023-05-17T12:28:09Z</time>
</trkpt>
<trkpt lat="49.109359961003065" lon="8.385712997987866">
<ele>103.79999999999995</ele>
<time>2023-05-17T12:28:10Z</time>
</trkpt>
<trkpt lat="49.1093529202044" lon="8.385712997987866">
<ele>103.79999999999995</ele>
<time>2023-05-17T12:28:11Z</time>
</trkpt>
<trkpt lat="49.10934696905315" lon="8.385712997987866">
<ele>104</ele>
<time>2023-05-17T12:28:12Z</time>
</trkpt>
<trkpt lat="49.109341939911246" lon="8.385711992159486">
<ele>104</ele>
<time>2023-05-17T12:28:13Z</time>
</trkpt>
<trkpt lat="49.10933297127485" lon="8.385711992159486">
<ele>104</ele>
<time>2023-05-17T12:28:14Z</time>
</trkpt>
<trkpt lat="49.10932693630457" lon="8.385712997987866">
<ele>104</ele>
<time>2023-05-17T12:28:15Z</time>
</trkpt>
<trkpt lat="49.1093219909817" lon="8.385712997987866">
<ele>104</ele>
<time>2023-05-17T12:28:16Z</time>
</trkpt>
<trkpt lat="49.10926298238337" lon="8.385716937482357">
<ele>103.39999999999998</ele>
<time>2023-05-17T12:28:16Z</time>
</trkpt>
<trkpt lat="49.109252924099565" lon="8.385704951360822">
<ele>103.20000000000005</ele>
<time>2023-05-17T12:28:22Z</time>
</trkpt>
<trkpt lat="49.10924294963479" lon="8.385692965239286">
<ele>103.20000000000005</ele>
<time>2023-05-17T12:28:23Z</time>
</trkpt>
<trkpt lat="49.109231969341636" lon="8.38567997328937">
<ele>103.20000000000005</ele>
<time>2023-05-17T12:28:24Z</time>
</trkpt>
<trkpt lat="49.10922199487686" lon="8.385661952197552">
<ele>103.20000000000005</ele>
<time>2023-05-17T12:28:25Z</time>
</trkpt>
<trkpt lat="49.109212942421436" lon="8.38563496246934">
<ele>103.20000000000005</ele>
<time>2023-05-17T12:28:26Z</time>
</trkpt>
<trkpt lat="49.109206991270185" lon="8.385601937770844">
<ele>103.20000000000005</ele>
<time>2023-05-17T12:28:27Z</time>
</trkpt>
<trkpt lat="49.10920196212828" lon="8.385561956092715">
<ele>103.39999999999998</ele>
<time>2023-05-17T12:28:28Z</time>
</trkpt>
<trkpt lat="49.10920196212828" lon="8.385519962757826">
<ele>103.39999999999998</ele>
<time>2023-05-17T12:28:29Z</time>
</trkpt>
<trkpt lat="49.109206991270185" lon="8.385472940281034">
<ele>103.39999999999998</ele>
<time>2023-05-17T12:28:30Z</time>
</trkpt>
<trkpt lat="49.109212942421436" lon="8.385422984138131">
<ele>103.39999999999998</ele>
<time>2023-05-17T12:28:31Z</time>
</trkpt>
<trkpt lat="49.10922492854297" lon="8.385367998853326">
<ele>103.39999999999998</ele>
<time>2023-05-17T12:28:32Z</time>
</trkpt>
<trkpt lat="49.10923993214965" lon="8.385311923921108">
<ele>103.39999999999998</ele>
<time>2023-05-17T12:28:33Z</time>
</trkpt>
<trkpt lat="49.10925694741309" lon="8.385251993313432">
<ele>103.39999999999998</ele>
<time>2023-05-17T12:28:34Z</time>
</trkpt>
<trkpt lat="49.10927798599005" lon="8.38520497083664">
<ele>103.39999999999998</ele>
<time>2023-05-17T12:28:35Z</time>
</trkpt>
<trkpt lat="49.10930497571826" lon="8.38516297750175">
<ele>103.39999999999998</ele>
<time>2023-05-17T12:28:36Z</time>
</trkpt>
<trkpt lat="49.109334982931614" lon="8.385129952803254">
<ele>103.39999999999998</ele>
<time>2023-05-17T12:28:37Z</time>
</trkpt>
<trkpt lat="49.1093719471246" lon="8.385104974731803">
<ele>103.39999999999998</ele>
<time>2023-05-17T12:28:38Z</time>
</trkpt>
<trkpt lat="49.10940991714597" lon="8.385072955861688">
<ele>103.39999999999998</ele>
<time>2023-05-17T12:28:39Z</time>
</trkpt>
<trkpt lat="49.10944294184446" lon="8.385039931163192">
<ele>103.39999999999998</ele>
<time>2023-05-17T12:28:40Z</time>
</trkpt>
<trkpt lat="49.10947697237134" lon="8.384999949485064">
<ele>103.60000000000002</ele>
<time>2023-05-17T12:28:41Z</time>
</trkpt>
<trkpt lat="49.109507985413074" lon="8.384961979463696">
<ele>103.60000000000002</ele>
<time>2023-05-17T12:28:42Z</time>
</trkpt>
<trkpt lat="49.10953992046416" lon="8.38492794893682">
<ele>103.60000000000002</ele>
<time>2023-05-17T12:28:43Z</time>
</trkpt>
<trkpt lat="49.10957998596132" lon="8.38488494977355">
<ele>103.79999999999995</ele>
<time>2023-05-17T12:28:44Z</time>
</trkpt>
<trkpt lat="49.10961493849754" lon="8.38484195061028">
<ele>103.79999999999995</ele>
<time>2023-05-17T12:28:45Z</time>
</trkpt>
<trkpt lat="49.10964695736766" lon="8.384792916476727">
<ele>103.79999999999995</ele>
<time>2023-05-17T12:28:46Z</time>
</trkpt>
<trkpt lat="49.10967797040939" lon="8.384747989475727">
<ele>104</ele>
<time>2023-05-17T12:28:47Z</time>
</trkpt>
<trkpt lat="49.10970797762275" lon="8.384707923978567">
<ele>104</ele>
<time>2023-05-17T12:28:48Z</time>
</trkpt>
<trkpt lat="49.10973697900772" lon="8.384666936472058">
<ele>104.20000000000005</ele>
<time>2023-05-17T12:28:49Z</time>
</trkpt>
<trkpt lat="49.10976296290755" lon="8.384622931480408">
<ele>104.20000000000005</ele>
<time>2023-05-17T12:28:50Z</time>
</trkpt>
<trkpt lat="49.10979498177767" lon="8.384577920660377">
<ele>104.20000000000005</ele>
<time>2023-05-17T12:28:51Z</time>
</trkpt>
<trkpt lat="49.10982297733426" lon="8.384536933153868">
<ele>104.39999999999998</ele>
<time>2023-05-17T12:28:52Z</time>
</trkpt>
<trkpt lat="49.10984493792057" lon="8.384492928162217">
<ele>104.39999999999998</ele>
<time>2023-05-17T12:28:53Z</time>
</trkpt>
<trkpt lat="49.109854996204376" lon="8.384449928998947">
<ele>104.39999999999998</ele>
<time>2023-05-17T12:28:54Z</time>
</trkpt>
<trkpt lat="49.109852984547615" lon="8.384402990341187">
<ele>104.60000000000002</ele>
<time>2023-05-17T12:28:55Z</time>
</trkpt>
<trkpt lat="49.10986195318401" lon="8.384342975914478">
<ele>104.60000000000002</ele>
<time>2023-05-17T12:28:56Z</time>
</trkpt>
<trkpt lat="49.109877962619066" lon="8.384287990629673">
<ele>104.60000000000002</ele>
<time>2023-05-17T12:28:57Z</time>
</trkpt>
<trkpt lat="49.10990294069052" lon="8.384227976202965">
<ele>104.60000000000002</ele>
<time>2023-05-17T12:28:58Z</time>
</trkpt>
<trkpt lat="49.10992699675262" lon="8.384162932634354">
<ele>104.60000000000002</ele>
<time>2023-05-17T12:28:59Z</time>
</trkpt>
<trkpt lat="49.10994795151055" lon="8.384096967056394">
<ele>104.60000000000002</ele>
<time>2023-05-17T12:29:00Z</time>
</trkpt>
<trkpt lat="49.109972929582" lon="8.384032929316163">
<ele>104.79999999999995</ele>
<time>2023-05-17T12:29:01Z</time>
</trkpt>
<trkpt lat="49.10999799147248" lon="8.383964952081442">
<ele>104.79999999999995</ele>
<time>2023-05-17T12:29:02Z</time>
</trkpt>
<trkpt lat="49.11001794040203" lon="8.383891945704818">
<ele>104.79999999999995</ele>
<time>2023-05-17T12:29:03Z</time>
</trkpt>
<trkpt lat="49.11003797315061" lon="8.383814999833703">
<ele>104.79999999999995</ele>
<time>2023-05-17T12:29:04Z</time>
</trkpt>
<trkpt lat="49.11005792208016" lon="8.383739981800318">
<ele>104.79999999999995</ele>
<time>2023-05-17T12:29:05Z</time>
</trkpt>
<trkpt lat="49.1100749373436" lon="8.383662952110171">
<ele>104.79999999999995</ele>
<time>2023-05-17T12:29:06Z</time>
</trkpt>
<trkpt lat="49.110089940950274" lon="8.383581982925534">
<ele>104.79999999999995</ele>
<time>2023-05-17T12:29:07Z</time>
</trkpt>
<trkpt lat="49.11010192707181" lon="8.383496990427375">
<ele>104.79999999999995</ele>
<time>2023-05-17T12:29:08Z</time>
</trkpt>
<trkpt lat="49.110114919021726" lon="8.383409986272454">
<ele>104.79999999999995</ele>
<time>2023-05-17T12:29:09Z</time>
</trkpt>
<trkpt lat="49.11012497730553" lon="8.383322982117534">
<ele>104.79999999999995</ele>
<time>2023-05-17T12:29:10Z</time>
</trkpt>
<trkpt lat="49.110132940113544" lon="8.383236983790994">
<ele>104.79999999999995</ele>
<time>2023-05-17T12:29:11Z</time>
</trkpt>
<trkpt lat="49.11013998091221" lon="8.383147967979312">
<ele>104.79999999999995</ele>
<time>2023-05-17T12:29:12Z</time>
</trkpt>
<trkpt lat="49.11014794372022" lon="8.38305995799601">
<ele>104.79999999999995</ele>
<time>2023-05-17T12:29:13Z</time>
</trkpt>
<trkpt lat="49.11015992984176" lon="8.38297295384109">
<ele>104.79999999999995</ele>
<time>2023-05-17T12:29:14Z</time>
</trkpt>
<trkpt lat="49.1101679764688" lon="8.382884943857789">
<ele>104.79999999999995</ele>
<time>2023-05-17T12:29:15Z</time>
</trkpt>
<trkpt lat="49.110174933448434" lon="8.382796933874488">
<ele>104.79999999999995</ele>
<time>2023-05-17T12:29:16Z</time>
</trkpt>
<trkpt lat="49.1101819742471" lon="8.382704984396696">
<ele>104.79999999999995</ele>
<time>2023-05-17T12:29:17Z</time>
</trkpt>
<trkpt lat="49.11019194871187" lon="8.382614962756634">
<ele>104.60000000000002</ele>
<time>2023-05-17T12:29:18Z</time>
</trkpt>
<trkpt lat="49.110197983682156" lon="8.3825199957937">
<ele>104.60000000000002</ele>
<time>2023-05-17T12:29:19Z</time>
</trkpt>
<trkpt lat="49.11020494066179" lon="8.382427962496877">
<ele>104.60000000000002</ele>
<time>2023-05-17T12:29:20Z</time>
</trkpt>
<trkpt lat="49.11021198146045" lon="8.382334923371673">
<ele>104.60000000000002</ele>
<time>2023-05-17T12:29:21Z</time>
</trkpt>
<trkpt lat="49.110219944268465" lon="8.38224297389388">
<ele>104.60000000000002</ele>
<time>2023-05-17T12:29:22Z</time>
</trkpt>
<trkpt lat="49.11022497341037" lon="8.382151946425438">
<ele>104.60000000000002</ele>
<time>2023-05-17T12:29:23Z</time>
</trkpt>
<trkpt lat="49.11023293621838" lon="8.382061924785376">
<ele>104.39999999999998</ele>
<time>2023-05-17T12:29:24Z</time>
</trkpt>
<trkpt lat="49.110239977017045" lon="8.381969975307584">
<ele>104.39999999999998</ele>
<time>2023-05-17T12:29:25Z</time>
</trkpt>
<trkpt lat="49.11024693399668" lon="8.381874924525619">
<ele>104.39999999999998</ele>
<time>2023-05-17T12:29:26Z</time>
</trkpt>
<trkpt lat="49.11025196313858" lon="8.381776940077543">
<ele>104.39999999999998</ele>
<time>2023-05-17T12:29:27Z</time>
</trkpt>
<trkpt lat="49.110257998108864" lon="8.38168197311461">
<ele>104.39999999999998</ele>
<time>2023-05-17T12:29:28Z</time>
</trkpt>
<trkpt lat="49.110264955088496" lon="8.381584994494915">
<ele>104.39999999999998</ele>
<time>2023-05-17T12:29:29Z</time>
</trkpt>
<trkpt lat="49.11027199588716" lon="8.381487932056189">
<ele>104.39999999999998</ele>
<time>2023-05-17T12:29:30Z</time>
</trkpt>
<trkpt lat="49.11027794703841" lon="8.381391959264874">
<ele>104.39999999999998</ele>
<time>2023-05-17T12:29:31Z</time>
</trkpt>
<trkpt lat="49.11028699949384" lon="8.381296992301941">
<ele>104.39999999999998</ele>
<time>2023-05-17T12:29:32Z</time>
</trkpt>
<trkpt lat="49.11029295064509" lon="8.381199929863214">
<ele>104.39999999999998</ele>
<time>2023-05-17T12:29:33Z</time>
</trkpt>
<trkpt lat="49.11030191928148" lon="8.381104962900281">
<ele>104.39999999999998</ele>
<time>2023-05-17T12:29:34Z</time>
</trkpt>
<trkpt lat="49.110307954251766" lon="8.381009995937347">
<ele>104.39999999999998</ele>
<time>2023-05-17T12:29:35Z</time>
</trkpt>
<trkpt lat="49.11031298339367" lon="8.380919974297285">
<ele>104.39999999999998</ele>
<time>2023-05-17T12:29:36Z</time>
</trkpt>
<trkpt lat="49.1103199403733" lon="8.380829952657223">
<ele>104.39999999999998</ele>
<time>2023-05-17T12:29:37Z</time>
</trkpt>
<trkpt lat="49.110326981171966" lon="8.38073699735105">
<ele>104.20000000000005</ele>
<time>2023-05-17T12:29:38Z</time>
</trkpt>
<trkpt lat="49.11033293232322" lon="8.380641946569085">
<ele>104.20000000000005</ele>
<time>2023-05-17T12:29:39Z</time>
</trkpt>
<trkpt lat="49.11033997312188" lon="8.380549997091293">
<ele>104.20000000000005</ele>
<time>2023-05-17T12:29:40Z</time>
</trkpt>
<trkpt lat="49.11034491844475" lon="8.380459975451231">
<ele>104.20000000000005</ele>
<time>2023-05-17T12:29:41Z</time>
</trkpt>
<trkpt lat="49.110346930101514" lon="8.380369953811169">
<ele>104.39999999999998</ele>
<time>2023-05-17T12:29:42Z</time>
</trkpt>
<trkpt lat="49.110349947586656" lon="8.380277920514345">
<ele>104.39999999999998</ele>
<time>2023-05-17T12:29:43Z</time>
</trkpt>
<trkpt lat="49.11035698838532" lon="8.380187982693315">
<ele>104.39999999999998</ele>
<time>2023-05-17T12:29:44Z</time>
</trkpt>
<trkpt lat="49.11036293953657" lon="8.380102990195155">
<ele>104.39999999999998</ele>
<time>2023-05-17T12:29:45Z</time>
</trkpt>
<trkpt lat="49.110366962850094" lon="8.380011962726712">
<ele>104.39999999999998</ele>
<time>2023-05-17T12:29:46Z</time>
</trkpt>
<trkpt lat="49.110369980335236" lon="8.379911966621876">
<ele>104.39999999999998</ele>
<time>2023-05-17T12:29:47Z</time>
</trkpt>
<trkpt lat="49.11037492565811" lon="8.379819933325052">
<ele>104.39999999999998</ele>
<time>2023-05-17T12:29:48Z</time>
</trkpt>
<trkpt lat="49.11038297228515" lon="8.379717925563455">
<ele>104.39999999999998</ele>
<time>2023-05-17T12:29:49Z</time>
</trkpt>
<trkpt lat="49.110386995598674" lon="8.379627987742424">
<ele>104.39999999999998</ele>
<time>2023-05-17T12:29:50Z</time>
</trkpt>
<trkpt lat="49.110389929264784" lon="8.379537966102362">
<ele>104.39999999999998</ele>
<time>2023-05-17T12:29:51Z</time>
</trkpt>
<trkpt lat="49.11039495840669" lon="8.37944995611906">
<ele>104.39999999999998</ele>
<time>2023-05-17T12:29:52Z</time>
</trkpt>
<trkpt lat="49.11039998754859" lon="8.379359934478998">
<ele>104.39999999999998</ele>
<time>2023-05-17T12:29:53Z</time>
</trkpt>
<trkpt lat="49.11040694452822" lon="8.379267985001206">
<ele>104.39999999999998</ele>
<time>2023-05-17T12:29:54Z</time>
</trkpt>
<trkpt lat="49.110411973670125" lon="8.379176957532763">
<ele>104.20000000000005</ele>
<time>2023-05-17T12:29:55Z</time>
</trkpt>
<trkpt lat="49.11041792482138" lon="8.37908492423594">
<ele>104.20000000000005</ele>
<time>2023-05-17T12:29:56Z</time>
</trkpt>
<trkpt lat="49.11042295396328" lon="8.378991968929768">
<ele>104.20000000000005</ele>
<time>2023-05-17T12:29:57Z</time>
</trkpt>
<trkpt lat="49.11043192259967" lon="8.37888996116817">
<ele>104.20000000000005</ele>
<time>2023-05-17T12:29:58Z</time>
</trkpt>
<trkpt lat="49.110434940084815" lon="8.378796922042966">
<ele>104.20000000000005</ele>
<time>2023-05-17T12:29:59Z</time>
</trkpt>
<trkpt lat="49.11043795756996" lon="8.378701955080032">
<ele>104.20000000000005</ele>
<time>2023-05-17T12:30:00Z</time>
</trkpt>
<trkpt lat="49.11043996922672" lon="8.378604976460338">
<ele>104.20000000000005</ele>
<time>2023-05-17T12:30:01Z</time>
</trkpt>
<trkpt lat="49.11044198088348" lon="8.378511937335134">
<ele>104.20000000000005</ele>
<time>2023-05-17T12:30:02Z</time>
</trkpt>
<trkpt lat="49.11044298671186" lon="8.378414958715439">
<ele>104.20000000000005</ele>
<time>2023-05-17T12:30:03Z</time>
</trkpt>
<trkpt lat="49.11044499836862" lon="8.378322925418615">
<ele>104.20000000000005</ele>
<time>2023-05-17T12:30:04Z</time>
</trkpt>
<trkpt lat="49.11045195534825" lon="8.378229970112443">
<ele>104.20000000000005</ele>
<time>2023-05-17T12:30:05Z</time>
</trkpt>
<trkpt lat="49.11045799031854" lon="8.378132991492748">
<ele>104.20000000000005</ele>
<time>2023-05-17T12:30:06Z</time>
</trkpt>
<trkpt lat="49.11046192981303" lon="8.378042969852686">
<ele>104.20000000000005</ele>
<time>2023-05-17T12:30:07Z</time>
</trkpt>
<trkpt lat="49.11046796478331" lon="8.377949930727482">
<ele>104.20000000000005</ele>
<time>2023-05-17T12:30:08Z</time>
</trkpt>
<trkpt lat="49.11047492176294" lon="8.37785697542131">
<ele>104.20000000000005</ele>
<time>2023-05-17T12:30:09Z</time>
</trkpt>
<trkpt lat="49.11048296838999" lon="8.377759996801615">
<ele>104.20000000000005</ele>
<time>2023-05-17T12:30:10Z</time>
</trkpt>
<trkpt lat="49.11048799753189" lon="8.37766695767641">
<ele>104.20000000000005</ele>
<time>2023-05-17T12:30:11Z</time>
</trkpt>
<trkpt lat="49.11048992536962" lon="8.377574924379587">
<ele>104.20000000000005</ele>
<time>2023-05-17T12:30:12Z</time>
</trkpt>
<trkpt lat="49.11049495451152" lon="8.377481969073415">
<ele>104.20000000000005</ele>
<time>2023-05-17T12:30:13Z</time>
</trkpt>
<trkpt lat="49.11050199531019" lon="8.377381972968578">
<ele>104.20000000000005</ele>
<time>2023-05-17T12:30:14Z</time>
</trkpt>
<trkpt lat="49.110502917319536" lon="8.377282982692122">
<ele>104.20000000000005</ele>
<time>2023-05-17T12:30:15Z</time>
</trkpt>
<trkpt lat="49.1105049289763" lon="8.377184998244047">
<ele>104.20000000000005</ele>
<time>2023-05-17T12:30:16Z</time>
</trkpt>
<trkpt lat="49.1105099581182" lon="8.37708793580532">
<ele>104.20000000000005</ele>
<time>2023-05-17T12:30:17Z</time>
</trkpt>
<trkpt lat="49.1105149872601" lon="8.376992968842387">
<ele>104.20000000000005</ele>
<time>2023-05-17T12:30:18Z</time>
</trkpt>
<trkpt lat="49.11051792092621" lon="8.376899929717183">
<ele>104.20000000000005</ele>
<time>2023-05-17T12:30:19Z</time>
</trkpt>
<trkpt lat="49.110521944239736" lon="8.376807980239391">
<ele>104.20000000000005</ele>
<time>2023-05-17T12:30:20Z</time>
</trkpt>
<trkpt lat="49.110522950068116" lon="8.376717958599329">
<ele>104.39999999999998</ele>
<time>2023-05-17T12:30:21Z</time>
</trkpt>
<trkpt lat="49.11052496172488" lon="8.376627936959267">
<ele>104.39999999999998</ele>
<time>2023-05-17T12:30:22Z</time>
</trkpt>
<trkpt lat="49.11052496172488" lon="8.376537999138236">
<ele>104.39999999999998</ele>
<time>2023-05-17T12:30:23Z</time>
</trkpt>
<trkpt lat="49.11052496172488" lon="8.376452922821045">
<ele>104.39999999999998</ele>
<time>2023-05-17T12:30:24Z</time>
</trkpt>
<trkpt lat="49.11052697338164" lon="8.376366924494505">
<ele>104.39999999999998</ele>
<time>2023-05-17T12:30:25Z</time>
</trkpt>
<trkpt lat="49.11052496172488" lon="8.376276986673474">
<ele>104.39999999999998</ele>
<time>2023-05-17T12:30:26Z</time>
</trkpt>
<trkpt lat="49.110521944239736" lon="8.376186965033412">
<ele>104.39999999999998</ele>
<time>2023-05-17T12:30:27Z</time>
</trkpt>
<trkpt lat="49.110519932582974" lon="8.376094931736588">
<ele>104.39999999999998</ele>
<time>2023-05-17T12:30:28Z</time>
</trkpt>
<trkpt lat="49.110519932582974" lon="8.376001976430416">
<ele>104.39999999999998</ele>
<time>2023-05-17T12:30:29Z</time>
</trkpt>
<trkpt lat="49.110516998916864" lon="8.375909943133593">
<ele>104.39999999999998</ele>
<time>2023-05-17T12:30:30Z</time>
</trkpt>
<trkpt lat="49.11051297560334" lon="8.3758179936558">
<ele>104.39999999999998</ele>
<time>2023-05-17T12:30:31Z</time>
</trkpt>
<trkpt lat="49.1105099581182" lon="8.375727972015738">
<ele>104.39999999999998</ele>
<time>2023-05-17T12:30:32Z</time>
</trkpt>
<trkpt lat="49.1105049289763" lon="8.375637950375676">
<ele>104.39999999999998</ele>
<time>2023-05-17T12:30:33Z</time>
</trkpt>
<trkpt lat="49.110499983653426" lon="8.375547928735614">
<ele>104.39999999999998</ele>
<time>2023-05-17T12:30:34Z</time>
</trkpt>
<trkpt lat="49.11049495451152" lon="8.375457990914583">
<ele>104.39999999999998</ele>
<time>2023-05-17T12:30:35Z</time>
</trkpt>
<trkpt lat="49.11048799753189" lon="8.37536495178938">
<ele>104.39999999999998</ele>
<time>2023-05-17T12:30:36Z</time>
</trkpt>
<trkpt lat="49.11048196256161" lon="8.375277947634459">
<ele>104.39999999999998</ele>
<time>2023-05-17T12:30:37Z</time>
</trkpt>
<trkpt lat="49.110472993925214" lon="8.375191949307919">
<ele>104.39999999999998</ele>
<time>2023-05-17T12:30:38Z</time>
</trkpt>
<trkpt lat="49.11046494729817" lon="8.37510695680976">
<ele>104.39999999999998</ele>
<time>2023-05-17T12:30:39Z</time>
</trkpt>
<trkpt lat="49.110459918156266" lon="8.37502297013998">
<ele>104.39999999999998</ele>
<time>2023-05-17T12:30:40Z</time>
</trkpt>
<trkpt lat="49.110452961176634" lon="8.374941917136312">
<ele>104.39999999999998</ele>
<time>2023-05-17T12:30:41Z</time>
</trkpt>
<trkpt lat="49.11044692620635" lon="8.374859942123294">
<ele>104.39999999999998</ele>
<time>2023-05-17T12:30:42Z</time>
</trkpt>
<trkpt lat="49.11044198088348" lon="8.374776961281896">
<ele>104.39999999999998</ele>
<time>2023-05-17T12:30:43Z</time>
</trkpt>
<trkpt lat="49.11043795756996" lon="8.37469699792564">
<ele>104.39999999999998</ele>
<time>2023-05-17T12:30:44Z</time>
</trkpt>
<trkpt lat="49.11043192259967" lon="8.374617956578732">
<ele>104.39999999999998</ele>
<time>2023-05-17T12:30:45Z</time>
</trkpt>
<trkpt lat="49.1104269772768" lon="8.374541932716966">
<ele>104.39999999999998</ele>
<time>2023-05-17T12:30:46Z</time>
</trkpt>
<trkpt lat="49.11041792482138" lon="8.37446196936071">
<ele>104.39999999999998</ele>
<time>2023-05-17T12:30:47Z</time>
</trkpt>
<trkpt lat="49.11041499115527" lon="8.374387957155704">
<ele>104.39999999999998</ele>
<time>2023-05-17T12:30:48Z</time>
</trkpt>
<trkpt lat="49.110411973670125" lon="8.374316962435842">
<ele>104.39999999999998</ele>
<time>2023-05-17T12:30:49Z</time>
</trkpt>
<trkpt lat="49.11040694452822" lon="8.374244961887598">
<ele>104.39999999999998</ele>
<time>2023-05-17T12:30:50Z</time>
</trkpt>
<trkpt lat="49.11039998754859" lon="8.374167932197452">
<ele>104.39999999999998</ele>
<time>2023-05-17T12:30:51Z</time>
</trkpt>
<trkpt lat="49.110392946749926" lon="8.374092997983098">
<ele>104.60000000000002</ele>
<time>2023-05-17T12:30:52Z</time>
</trkpt>
<trkpt lat="49.11038498394191" lon="8.374019991606474">
<ele>104.60000000000002</ele>
<time>2023-05-17T12:30:53Z</time>
</trkpt>
<trkpt lat="49.11037794314325" lon="8.373941956087947">
<ele>104.60000000000002</ele>
<time>2023-05-17T12:30:54Z</time>
</trkpt>
<trkpt lat="49.11037299782038" lon="8.373862998560071">
<ele>104.60000000000002</ele>
<time>2023-05-17T12:30:55Z</time>
</trkpt>
<trkpt lat="49.110366962850094" lon="8.373784963041544">
<ele>104.60000000000002</ele>
<time>2023-05-17T12:30:56Z</time>
</trkpt>
<trkpt lat="49.11036193370819" lon="8.373706927523017">
<ele>104.60000000000002</ele>
<time>2023-05-17T12:30:57Z</time>
</trkpt>
<trkpt lat="49.1103579942137" lon="8.373627969995141">
<ele>104.79999999999995</ele>
<time>2023-05-17T12:30:58Z</time>
</trkpt>
<trkpt lat="49.11035195924342" lon="8.373547922819853">
<ele>104.79999999999995</ele>
<time>2023-05-17T12:30:59Z</time>
</trkpt>
<trkpt lat="49.110346930101514" lon="8.373466953635216">
<ele>104.79999999999995</ele>
<time>2023-05-17T12:31:00Z</time>
</trkpt>
<trkpt lat="49.11033796146512" lon="8.373384978622198">
<ele>104.79999999999995</ele>
<time>2023-05-17T12:31:01Z</time>
</trkpt>
<trkpt lat="49.11033192649484" lon="8.373302919790149">
<ele>104.79999999999995</ele>
<time>2023-05-17T12:31:02Z</time>
</trkpt>
<trkpt lat="49.110327987000346" lon="8.373224968090653">
<ele>104.79999999999995</ele>
<time>2023-05-17T12:31:03Z</time>
</trkpt>
<trkpt lat="49.110324969515204" lon="8.373144920915365">
<ele>104.79999999999995</ele>
<time>2023-05-17T12:31:04Z</time>
</trkpt>
<trkpt lat="49.11031692288816" lon="8.373061940073967">
<ele>104.79999999999995</ele>
<time>2023-05-17T12:31:05Z</time>
</trkpt>
<trkpt lat="49.11030996590853" lon="8.37298197671771">
<ele>104.79999999999995</ele>
<time>2023-05-17T12:31:06Z</time>
</trkpt>
<trkpt lat="49.110304936766624" lon="8.372902935370803">
<ele>104.79999999999995</ele>
<time>2023-05-17T12:31:07Z</time>
</trkpt>
<trkpt lat="49.11029999144375" lon="8.372824983671308">
<ele>104.79999999999995</ele>
<time>2023-05-17T12:31:08Z</time>
</trkpt>
<trkpt lat="49.11029697395861" lon="8.37274493649602">
<ele>104.79999999999995</ele>
<time>2023-05-17T12:31:09Z</time>
</trkpt>
<trkpt lat="49.11029295064509" lon="8.372666984796524">
<ele>104.79999999999995</ele>
<time>2023-05-17T12:31:10Z</time>
</trkpt>
<trkpt lat="49.110287921503186" lon="8.372584925964475">
<ele>104.79999999999995</ele>
<time>2023-05-17T12:31:11Z</time>
</trkpt>
<trkpt lat="49.110282976180315" lon="8.372504962608218">
<ele>104.79999999999995</ele>
<time>2023-05-17T12:31:12Z</time>
</trkpt>
<trkpt lat="49.11027995869517" lon="8.3724229875952">
<ele>104.79999999999995</ele>
<time>2023-05-17T12:31:13Z</time>
</trkpt>
<trkpt lat="49.11027694121003" lon="8.372342940419912">
<ele>104.79999999999995</ele>
<time>2023-05-17T12:31:14Z</time>
</trkpt>
<trkpt lat="49.11027492955327" lon="8.372264988720417">
<ele>104.79999999999995</ele>
<time>2023-05-17T12:31:15Z</time>
</trkpt>
<trkpt lat="49.11027492955327" lon="8.372182929888368">
<ele>104.79999999999995</ele>
<time>2023-05-17T12:31:16Z</time>
</trkpt>
<trkpt lat="49.11027794703841" lon="8.372096931561828">
<ele>104.79999999999995</ele>
<time>2023-05-17T12:31:17Z</time>
</trkpt>
<trkpt lat="49.110281970351934" lon="8.372016968205571">
<ele>104.79999999999995</ele>
<time>2023-05-17T12:31:18Z</time>
</trkpt>
<trkpt lat="49.110282976180315" lon="8.371937926858664">
<ele>104.79999999999995</ele>
<time>2023-05-17T12:31:19Z</time>
</trkpt>
<trkpt lat="49.11028699949384" lon="8.371856957674026">
<ele>104.79999999999995</ele>
<time>2023-05-17T12:31:20Z</time>
</trkpt>
<trkpt lat="49.11029194481671" lon="8.371772971004248">
<ele>104.79999999999995</ele>
<time>2023-05-17T12:31:21Z</time>
</trkpt>
<trkpt lat="49.11029999144375" lon="8.371691918000579">
<ele>104.79999999999995</ele>
<time>2023-05-17T12:31:22Z</time>
</trkpt>
<trkpt lat="49.11031197756529" lon="8.371611954644322">
<ele>104.79999999999995</ele>
<time>2023-05-17T12:31:23Z</time>
</trkpt>
<trkpt lat="49.11032295785844" lon="8.371531991288066">
<ele>104.79999999999995</ele>
<time>2023-05-17T12:31:24Z</time>
</trkpt>
<trkpt lat="49.11033997312188" lon="8.371452949941158">
<ele>104.79999999999995</ele>
<time>2023-05-17T12:31:25Z</time>
</trkpt>
<trkpt lat="49.11035992205143" lon="8.371376926079392">
<ele>105</ele>
<time>2023-05-17T12:31:26Z</time>
</trkpt>
<trkpt lat="49.11037995480001" lon="8.371299980208278">
<ele>105</ele>
<time>2023-05-17T12:31:27Z</time>
</trkpt>
<trkpt lat="49.11040199920535" lon="8.371224962174892">
<ele>105</ele>
<time>2023-05-17T12:31:28Z</time>
</trkpt>
<trkpt lat="49.11042295396328" lon="8.371151955798268">
<ele>105</ele>
<time>2023-05-17T12:31:29Z</time>
</trkpt>
<trkpt lat="49.11044793203473" lon="8.371079955250025">
<ele>105</ele>
<time>2023-05-17T12:31:30Z</time>
</trkpt>
<trkpt lat="49.110476933419704" lon="8.371009966358542">
<ele>105</ele>
<time>2023-05-17T12:31:31Z</time>
</trkpt>
<trkpt lat="49.11050694063306" lon="8.370944922789931">
<ele>105</ele>
<time>2023-05-17T12:31:32Z</time>
</trkpt>
<trkpt lat="49.11053795367479" lon="8.370879963040352">
<ele>105</ele>
<time>2023-05-17T12:31:33Z</time>
</trkpt>
<trkpt lat="49.11056997254491" lon="8.370817936956882">
<ele>105</ele>
<time>2023-05-17T12:31:34Z</time>
</trkpt>
<trkpt lat="49.110602997243404" lon="8.370756916701794">
<ele>105</ele>
<time>2023-05-17T12:31:35Z</time>
</trkpt>
<trkpt lat="49.11063694395125" lon="8.370699919760227">
<ele>105</ele>
<time>2023-05-17T12:31:36Z</time>
</trkpt>
<trkpt lat="49.110671980306506" lon="8.37064292281866">
<ele>105</ele>
<time>2023-05-17T12:31:37Z</time>
</trkpt>
<trkpt lat="49.110711961984634" lon="8.370586931705475">
<ele>105</ele>
<time>2023-05-17T12:31:38Z</time>
</trkpt>
<trkpt lat="49.110749932006" lon="8.370529934763908">
<ele>105</ele>
<time>2023-05-17T12:31:39Z</time>
</trkpt>
<trkpt lat="49.11078698001802" lon="8.370474949479103">
<ele>105</ele>
<time>2023-05-17T12:31:40Z</time>
</trkpt>
<trkpt lat="49.11082495003939" lon="8.370416946709156">
<ele>105</ele>
<time>2023-05-17T12:31:41Z</time>
</trkpt>
<trkpt lat="49.110862920060754" lon="8.37035994976759">
<ele>105.20000000000005</ele>
<time>2023-05-17T12:31:42Z</time>
</trkpt>
<trkpt lat="49.11089996807277" lon="8.370302952826023">
<ele>105.20000000000005</ele>
<time>2023-05-17T12:31:43Z</time>
</trkpt>
<trkpt lat="49.11093693226576" lon="8.370249979197979">
<ele>105.20000000000005</ele>
<time>2023-05-17T12:31:44Z</time>
</trkpt>
<trkpt lat="49.11097498610616" lon="8.370196921750903">
<ele>105.20000000000005</ele>
<time>2023-05-17T12:31:45Z</time>
</trkpt>
<trkpt lat="49.111011950299144" lon="8.370141936466098">
<ele>105.20000000000005</ele>
<time>2023-05-17T12:31:46Z</time>
</trkpt>
<trkpt lat="49.11104799248278" lon="8.370087957009673">
<ele>105.20000000000005</ele>
<time>2023-05-17T12:31:47Z</time>
</trkpt>
<trkpt lat="49.11108495667577" lon="8.370029954239726">
<ele>105.20000000000005</ele>
<time>2023-05-17T12:31:48Z</time>
</trkpt>
<trkpt lat="49.111121920868754" lon="8.36997496895492">
<ele>105.20000000000005</ele>
<time>2023-05-17T12:31:49Z</time>
</trkpt>
<trkpt lat="49.11115796305239" lon="8.369919983670115">
<ele>105.20000000000005</ele>
<time>2023-05-17T12:31:50Z</time>
</trkpt>
<trkpt lat="49.11119299940765" lon="8.369861980900168">
<ele>105.20000000000005</ele>
<time>2023-05-17T12:31:51Z</time>
</trkpt>
<trkpt lat="49.1112319752574" lon="8.36980297230184">
<ele>105.20000000000005</ele>
<time>2023-05-17T12:31:52Z</time>
</trkpt>
<trkpt lat="49.111269945278764" lon="8.369742957875133">
<ele>105.20000000000005</ele>
<time>2023-05-17T12:31:53Z</time>
</trkpt>
<trkpt lat="49.11130799911916" lon="8.369687972590327">
<ele>105.20000000000005</ele>
<time>2023-05-17T12:31:54Z</time>
</trkpt>
<trkpt lat="49.11134697496891" lon="8.369632987305522">
<ele>105.20000000000005</ele>
<time>2023-05-17T12:31:55Z</time>
</trkpt>
<trkpt lat="49.11138494499028" lon="8.369577918201685">
<ele>105.20000000000005</ele>
<time>2023-05-17T12:31:56Z</time>
</trkpt>
<trkpt lat="49.111421993002295" lon="8.36952494457364">
<ele>105.20000000000005</ele>
<time>2023-05-17T12:31:57Z</time>
</trkpt>
<trkpt lat="49.11145996302366" lon="8.369469959288836">
<ele>105.20000000000005</ele>
<time>2023-05-17T12:31:58Z</time>
</trkpt>
<trkpt lat="49.11149692721665" lon="8.369416985660791">
<ele>105.20000000000005</ele>
<time>2023-05-17T12:31:59Z</time>
</trkpt>
<trkpt lat="49.11153699271381" lon="8.369359988719225">
<ele>105.20000000000005</ele>
<time>2023-05-17T12:32:00Z</time>
</trkpt>
<trkpt lat="49.111574962735176" lon="8.369306931272149">
<ele>105.20000000000005</ele>
<time>2023-05-17T12:32:01Z</time>
</trkpt>
<trkpt lat="49.11160798743367" lon="8.369257980957627">
<ele>105.20000000000005</ele>
<time>2023-05-17T12:32:02Z</time>
</trkpt>
<trkpt lat="49.11164193414152" lon="8.369209952652454">
<ele>105.20000000000005</ele>
<time>2023-05-17T12:32:03Z</time>
</trkpt>
<trkpt lat="49.111677976325154" lon="8.36915798485279">
<ele>105.20000000000005</ele>
<time>2023-05-17T12:32:04Z</time>
</trkpt>
<trkpt lat="49.111719969660044" lon="8.369106939062476">
<ele>105.20000000000005</ele>
<time>2023-05-17T12:32:05Z</time>
</trkpt>
<trkpt lat="49.11175793968141" lon="8.369052959606051">
<ele>105.20000000000005</ele>
<time>2023-05-17T12:32:06Z</time>
</trkpt>
<trkpt lat="49.11179699935019" lon="8.368999985978007">
<ele>105.20000000000005</ele>
<time>2023-05-17T12:32:07Z</time>
</trkpt>
<trkpt lat="49.11183496937156" lon="8.368949946016073">
<ele>105.20000000000005</ele>
<time>2023-05-17T12:32:08Z</time>
</trkpt>
<trkpt lat="49.111872939392924" lon="8.368896972388029">
<ele>105.20000000000005</ele>
<time>2023-05-17T12:32:09Z</time>
</trkpt>
<trkpt lat="49.11191292107105" lon="8.368839975446463">
<ele>105.20000000000005</ele>
<time>2023-05-17T12:32:10Z</time>
</trkpt>
<trkpt lat="49.11195198073983" lon="8.368784990161657">
<ele>105.20000000000005</ele>
<time>2023-05-17T12:32:11Z</time>
</trkpt>
<trkpt lat="49.1119899507612" lon="8.36872992105782">
<ele>105.20000000000005</ele>
<time>2023-05-17T12:32:12Z</time>
</trkpt>
<trkpt lat="49.11202699877322" lon="8.368672924116254">
<ele>105.20000000000005</ele>
<time>2023-05-17T12:32:13Z</time>
</trkpt>
<trkpt lat="49.11206295713782" lon="8.368614921346307">
<ele>105.20000000000005</ele>
<time>2023-05-17T12:32:14Z</time>
</trkpt>
<trkpt lat="49.1120969876647" lon="8.368566976860166">
<ele>105.20000000000005</ele>
<time>2023-05-17T12:32:15Z</time>
</trkpt>
<trkpt lat="49.112129928544164" lon="8.368517942726612">
<ele>105.20000000000005</ele>
<time>2023-05-17T12:32:16Z</time>
</trkpt>
<trkpt lat="49.11216496489942" lon="8.36846698075533">
<ele>105.20000000000005</ele>
<time>2023-05-17T12:32:17Z</time>
</trkpt>
<trkpt lat="49.112199917435646" lon="8.368417946621776">
<ele>105.20000000000005</ele>
<time>2023-05-17T12:32:18Z</time>
</trkpt>
<trkpt lat="49.11223193630576" lon="8.368367990478873">
<ele>105.20000000000005</ele>
<time>2023-05-17T12:32:19Z</time>
</trkpt>
<trkpt lat="49.112261943519115" lon="8.368321973830462">
<ele>105.20000000000005</ele>
<time>2023-05-17T12:32:20Z</time>
</trkpt>
<trkpt lat="49.11229295656085" lon="8.368277968838811">
<ele>105.20000000000005</ele>
<time>2023-05-17T12:32:21Z</time>
</trkpt>
<trkpt lat="49.112322963774204" lon="8.368236981332302">
<ele>105.20000000000005</ele>
<time>2023-05-17T12:32:22Z</time>
</trkpt>
<trkpt lat="49.11234995350242" lon="8.368199933320284">
<ele>105.20000000000005</ele>
<time>2023-05-17T12:32:23Z</time>
</trkpt>
<trkpt lat="49.11237794905901" lon="8.368162969127297">
<ele>105.20000000000005</ele>
<time>2023-05-17T12:32:24Z</time>
</trkpt>
<trkpt lat="49.11240695044398" lon="8.36812298744917">
<ele>105.20000000000005</ele>
<time>2023-05-17T12:32:25Z</time>
</trkpt>
<trkpt lat="49.112434946000576" lon="8.36808493360877">
<ele>105.20000000000005</ele>
<time>2023-05-17T12:32:26Z</time>
</trkpt>
<trkpt lat="49.11246294155717" lon="8.368044951930642">
<ele>105.20000000000005</ele>
<time>2023-05-17T12:32:27Z</time>
</trkpt>
<trkpt lat="49.11249194294214" lon="8.368004970252514">
<ele>105.20000000000005</ele>
<time>2023-05-17T12:32:28Z</time>
</trkpt>
<trkpt lat="49.112519938498735" lon="8.367966916412115">
<ele>105.20000000000005</ele>
<time>2023-05-17T12:32:29Z</time>
</trkpt>
<trkpt lat="49.11254793405533" lon="8.367929952219129">
<ele>105.20000000000005</ele>
<time>2023-05-17T12:32:30Z</time>
</trkpt>
<trkpt lat="49.1125769354403" lon="8.36788795888424">
<ele>105.20000000000005</ele>
<time>2023-05-17T12:32:31Z</time>
</trkpt>
<trkpt lat="49.112602919340134" lon="8.367849988862872">
<ele>105.39999999999998</ele>
<time>2023-05-17T12:32:32Z</time>
</trkpt>
<trkpt lat="49.11263292655349" lon="8.367806989699602">
<ele>105.39999999999998</ele>
<time>2023-05-17T12:32:33Z</time>
</trkpt>
<trkpt lat="49.11266192793846" lon="8.367766924202442">
<ele>105.39999999999998</ele>
<time>2023-05-17T12:32:34Z</time>
</trkpt>
<trkpt lat="49.112687995657325" lon="8.367729960009456">
<ele>105.60000000000002</ele>
<time>2023-05-17T12:32:35Z</time>
</trkpt>
<trkpt lat="49.112712973728776" lon="8.367691989988089">
<ele>105.79999999999995</ele>
<time>2023-05-17T12:32:36Z</time>
</trkpt>
<trkpt lat="49.11273996345699" lon="8.367651924490929">
<ele>105.79999999999995</ele>
<time>2023-05-17T12:32:37Z</time>
</trkpt>
<trkpt lat="49.11275999620557" lon="8.367617977783084">
<ele>106</ele>
<time>2023-05-17T12:32:38Z</time>
</trkpt>
<trkpt lat="49.11278799176216" lon="8.367576990276575">
<ele>106.20000000000005</ele>
<time>2023-05-17T12:32:39Z</time>
</trkpt>
<trkpt lat="49.112814981490374" lon="8.367537930607796">
<ele>106.20000000000005</ele>
<time>2023-05-17T12:32:40Z</time>
</trkpt>
<trkpt lat="49.11285194568336" lon="8.367477916181087">
<ele>106.39999999999998</ele>
<time>2023-05-17T12:32:41Z</time>
</trkpt>
<trkpt lat="49.112881952896714" lon="8.367431983351707">
<ele>106.60000000000002</ele>
<time>2023-05-17T12:32:42Z</time>
</trkpt>
<trkpt lat="49.11291296593845" lon="8.367384960874915">
<ele>106.60000000000002</ele>
<time>2023-05-17T12:32:43Z</time>
</trkpt>
<trkpt lat="49.1129429731518" lon="8.367336932569742">
<ele>106.60000000000002</ele>
<time>2023-05-17T12:32:44Z</time>
</trkpt>
<trkpt lat="49.11297298036516" lon="8.367289993911982">
<ele>106.79999999999995</ele>
<time>2023-05-17T12:32:45Z</time>
</trkpt>
<trkpt lat="49.113006927073" lon="8.367241965606809">
<ele>106.79999999999995</ele>
<time>2023-05-17T12:32:46Z</time>
</trkpt>
<trkpt lat="49.11303794011474" lon="8.367197960615158">
<ele>106.79999999999995</ele>
<time>2023-05-17T12:32:47Z</time>
</trkpt>
<trkpt lat="49.11306995898485" lon="8.367151943966746">
<ele>107</ele>
<time>2023-05-17T12:32:48Z</time>
</trkpt>
<trkpt lat="49.11310197785497" lon="8.367104921489954">
<ele>107</ele>
<time>2023-05-17T12:32:49Z</time>
</trkpt>
<trkpt lat="49.1131329908967" lon="8.367057982832193">
<ele>107</ele>
<time>2023-05-17T12:32:50Z</time>
</trkpt>
<trkpt lat="49.11316693760455" lon="8.367011966183782">
<ele>107.20000000000005</ele>
<time>2023-05-17T12:32:51Z</time>
</trkpt>
<trkpt lat="49.113201973959804" lon="8.36696494370699">
<ele>107.20000000000005</ele>
<time>2023-05-17T12:32:52Z</time>
</trkpt>
<trkpt lat="49.1132349986583" lon="8.366919932886958">
<ele>107.20000000000005</ele>
<time>2023-05-17T12:32:53Z</time>
</trkpt>
<trkpt lat="49.11326693370938" lon="8.366871988400817">
<ele>107.20000000000005</ele>
<time>2023-05-17T12:32:54Z</time>
</trkpt>
<trkpt lat="49.11329794675112" lon="8.366819936782122">
<ele>107.20000000000005</ele>
<time>2023-05-17T12:32:55Z</time>
</trkpt>
<trkpt lat="49.11332795396447" lon="8.366767968982458">
<ele>107.20000000000005</ele>
<time>2023-05-17T12:32:56Z</time>
</trkpt>
<trkpt lat="49.11335997283459" lon="8.366719940677285">
<ele>107.20000000000005</ele>
<time>2023-05-17T12:32:57Z</time>
</trkpt>
<trkpt lat="49.11339299753308" lon="8.366669984534383">
<ele>107.20000000000005</ele>
<time>2023-05-17T12:32:58Z</time>
</trkpt>
<trkpt lat="49.11342694424093" lon="8.36662195622921">
<ele>107.20000000000005</ele>
<time>2023-05-17T12:32:59Z</time>
</trkpt>
<trkpt lat="49.113459968939424" lon="8.366572922095656">
<ele>107.20000000000005</ele>
<time>2023-05-17T12:33:00Z</time>
</trkpt>
<trkpt lat="49.11349492147565" lon="8.366526989266276">
<ele>107.20000000000005</ele>
<time>2023-05-17T12:33:01Z</time>
</trkpt>
<trkpt lat="49.113527946174145" lon="8.366477955132723">
<ele>107</ele>
<time>2023-05-17T12:33:02Z</time>
</trkpt>
<trkpt lat="49.1135629825294" lon="8.36642799898982">
<ele>107</ele>
<time>2023-05-17T12:33:03Z</time>
</trkpt>
<trkpt lat="49.11359692923725" lon="8.366376953199506">
<ele>107</ele>
<time>2023-05-17T12:33:04Z</time>
</trkpt>
<trkpt lat="49.113632971420884" lon="8.366326997056603">
<ele>106.79999999999995</ele>
<time>2023-05-17T12:33:05Z</time>
</trkpt>
<trkpt lat="49.11366993561387" lon="8.36627695709467">
<ele>106.79999999999995</ele>
<time>2023-05-17T12:33:06Z</time>
</trkpt>
<trkpt lat="49.11370497196913" lon="8.366216942667961">
<ele>106.60000000000002</ele>
<time>2023-05-17T12:33:07Z</time>
</trkpt>
<trkpt lat="49.113742941990495" lon="8.366161957383156">
<ele>106.39999999999998</ele>
<time>2023-05-17T12:33:08Z</time>
</trkpt>
<trkpt lat="49.11378292366862" lon="8.36610496044159">
<ele>106.20000000000005</ele>
<time>2023-05-17T12:33:09Z</time>
</trkpt>
<trkpt lat="49.11382298916578" lon="8.366051986813545">
<ele>106</ele>
<time>2023-05-17T12:33:10Z</time>
</trkpt>
<trkpt lat="49.11386196501553" lon="8.365996917709708">
<ele>106</ele>
<time>2023-05-17T12:33:11Z</time>
</trkpt>
<trkpt lat="49.1138999350369" lon="8.365944949910045">
<ele>105.79999999999995</ele>
<time>2023-05-17T12:33:12Z</time>
</trkpt>
<trkpt lat="49.11394192837179" lon="8.365902956575155">
<ele>105.60000000000002</ele>
<time>2023-05-17T12:33:13Z</time>
</trkpt>
<trkpt lat="49.113977970555425" lon="8.365864986553788">
<ele>105.60000000000002</ele>
<time>2023-05-17T12:33:14Z</time>
</trkpt>
<trkpt lat="49.11401191726327" lon="8.36582793854177">
<ele>105.39999999999998</ele>
<time>2023-05-17T12:33:15Z</time>
</trkpt>
<trkpt lat="49.114042930305004" lon="8.365792986005545">
<ele>105.39999999999998</ele>
<time>2023-05-17T12:33:16Z</time>
</trkpt>
<trkpt lat="49.11407293751836" lon="8.36576197296381">
<ele>105.39999999999998</ele>
<time>2023-05-17T12:33:17Z</time>
</trkpt>
<trkpt lat="49.11410495638847" lon="8.365734983235598">
<ele>105.20000000000005</ele>
<time>2023-05-17T12:33:18Z</time>
</trkpt>
<trkpt lat="49.11413295194507" lon="8.365709921345115">
<ele>105.20000000000005</ele>
<time>2023-05-17T12:33:19Z</time>
</trkpt>
<trkpt lat="49.11416195333004" lon="8.365682931616902">
<ele>105.20000000000005</ele>
<time>2023-05-17T12:33:20Z</time>
</trkpt>
<trkpt lat="49.11418793722987" lon="8.365661976858974">
<ele>105</ele>
<time>2023-05-17T12:33:21Z</time>
</trkpt>
<trkpt lat="49.114214926958084" lon="8.365639932453632">
<ele>105</ele>
<time>2023-05-17T12:33:22Z</time>
</trkpt>
<trkpt lat="49.11423998884857" lon="8.365621995180845">
<ele>105</ele>
<time>2023-05-17T12:33:23Z</time>
</trkpt>
<trkpt lat="49.11426496692002" lon="8.365604979917407">
<ele>104.79999999999995</ele>
<time>2023-05-17T12:33:24Z</time>
</trkpt>
<trkpt lat="49.11429296247661" lon="8.365592993795872">
<ele>104.79999999999995</ele>
<time>2023-05-17T12:33:25Z</time>
</trkpt>
<trkpt lat="49.114321963861585" lon="8.365584947168827">
<ele>104.79999999999995</ele>
<time>2023-05-17T12:33:26Z</time>
</trkpt>
<trkpt lat="49.114347947761416" lon="8.365579918026924">
<ele>104.79999999999995</ele>
<time>2023-05-17T12:33:27Z</time>
</trkpt>
<trkpt lat="49.11437694914639" lon="8.365579918026924">
<ele>104.79999999999995</ele>
<time>2023-05-17T12:33:28Z</time>
</trkpt>
<trkpt lat="49.11440192721784" lon="8.365572961047292">
<ele>104.79999999999995</ele>
<time>2023-05-17T12:33:29Z</time>
</trkpt>
<trkpt lat="49.114429922774434" lon="8.365566926077008">
<ele>104.79999999999995</ele>
<time>2023-05-17T12:33:30Z</time>
</trkpt>
<trkpt lat="49.11445498466492" lon="8.365561980754137">
<ele>104.79999999999995</ele>
<time>2023-05-17T12:33:31Z</time>
</trkpt>
<trkpt lat="49.114476945251226" lon="8.365554939955473">
<ele>104.79999999999995</ele>
<time>2023-05-17T12:33:32Z</time>
</trkpt>
<trkpt lat="49.11449798382819" lon="8.365551922470331">
<ele>104.79999999999995</ele>
<time>2023-05-17T12:33:33Z</time>
</trkpt>
<trkpt lat="49.114519944414496" lon="8.365551922470331">
<ele>104.79999999999995</ele>
<time>2023-05-17T12:33:34Z</time>
</trkpt>
<trkpt lat="49.114539977163076" lon="8.365549994632602">
<ele>104.60000000000002</ele>
<time>2023-05-17T12:33:35Z</time>
</trkpt>
<trkpt lat="49.114557998254895" lon="8.36554798297584">
<ele>104.60000000000002</ele>
<time>2023-05-17T12:33:36Z</time>
</trkpt>
<trkpt lat="49.11457794718444" lon="8.36554798297584">
<ele>104.60000000000002</ele>
<time>2023-05-17T12:33:37Z</time>
</trkpt>
<trkpt lat="49.11459697410464" lon="8.36554697714746">
<ele>104.60000000000002</ele>
<time>2023-05-17T12:33:38Z</time>
</trkpt>
<trkpt lat="49.1146129835397" lon="8.365542953833938">
<ele>104.60000000000002</ele>
<time>2023-05-17T12:33:39Z</time>
</trkpt>
<trkpt lat="49.11462999880314" lon="8.365541948005557">
<ele>104.60000000000002</ele>
<time>2023-05-17T12:33:40Z</time>
</trkpt>
<trkpt lat="49.114647936075926" lon="8.365537924692035">
<ele>104.60000000000002</ele>
<time>2023-05-17T12:33:41Z</time>
</trkpt>
<trkpt lat="49.1146629396826" lon="8.365534991025925">
<ele>104.60000000000002</ele>
<time>2023-05-17T12:33:42Z</time>
</trkpt>
<trkpt lat="49.1146819666028" lon="8.365534991025925">
<ele>104.60000000000002</ele>
<time>2023-05-17T12:33:43Z</time>
</trkpt>
<trkpt lat="49.11470199935138" lon="8.365536918863654">
<ele>104.60000000000002</ele>
<time>2023-05-17T12:33:44Z</time>
</trkpt>
<trkpt lat="49.11472496576607" lon="8.365537924692035">
<ele>104.60000000000002</ele>
<time>2023-05-17T12:33:45Z</time>
</trkpt>
<trkpt lat="49.11474994383752" lon="8.365541948005557">
<ele>104.60000000000002</ele>
<time>2023-05-17T12:33:46Z</time>
</trkpt>
<trkpt lat="49.114771988242865" lon="8.365544965490699">
<ele>104.60000000000002</ele>
<time>2023-05-17T12:33:47Z</time>
</trkpt>
<trkpt lat="49.11479193717241" lon="8.365542953833938">
<ele>104.60000000000002</ele>
<time>2023-05-17T12:33:48Z</time>
</trkpt>
<trkpt lat="49.11480995826423" lon="8.365542953833938">
<ele>104.60000000000002</ele>
<time>2023-05-17T12:33:49Z</time>
</trkpt>
<trkpt lat="49.11482999101281" lon="8.365542953833938">
<ele>104.60000000000002</ele>
<time>2023-05-17T12:33:50Z</time>
</trkpt>
<trkpt lat="49.1148529574275" lon="8.365542953833938">
<ele>104.60000000000002</ele>
<time>2023-05-17T12:33:51Z</time>
</trkpt>
<trkpt lat="49.11487793549895" lon="8.365551922470331">
<ele>104.60000000000002</ele>
<time>2023-05-17T12:33:52Z</time>
</trkpt>
<trkpt lat="49.114901991561055" lon="8.365564998239279">
<ele>104.60000000000002</ele>
<time>2023-05-17T12:33:53Z</time>
</trkpt>
<trkpt lat="49.11492998711765" lon="8.365574972704053">
<ele>104.60000000000002</ele>
<time>2023-05-17T12:33:54Z</time>
</trkpt>
<trkpt lat="49.114959994331" lon="8.365581929683685">
<ele>104.60000000000002</ele>
<time>2023-05-17T12:33:55Z</time>
</trkpt>
<trkpt lat="49.114989917725325" lon="8.365586958825588">
<ele>104.39999999999998</ele>
<time>2023-05-17T12:33:56Z</time>
</trkpt>
<trkpt lat="49.11502495408058" lon="8.365584947168827">
<ele>104.39999999999998</ele>
<time>2023-05-17T12:33:57Z</time>
</trkpt>
<trkpt lat="49.115051943808794" lon="8.365587964653969">
<ele>104.39999999999998</ele>
<time>2023-05-17T12:33:58Z</time>
</trkpt>
<trkpt lat="49.11508195102215" lon="8.365591987967491">
<ele>104.39999999999998</ele>
<time>2023-05-17T12:33:59Z</time>
</trkpt>
<trkpt lat="49.1151069290936" lon="8.365594921633601">
<ele>104.39999999999998</ele>
<time>2023-05-17T12:34:00Z</time>
</trkpt>
<trkpt lat="49.11513492465019" lon="8.365596933290362">
<ele>104.39999999999998</ele>
<time>2023-05-17T12:34:01Z</time>
</trkpt>
<trkpt lat="49.115162920206785" lon="8.365592993795872">
<ele>104.39999999999998</ele>
<time>2023-05-17T12:34:02Z</time>
</trkpt>
<trkpt lat="49.11518697626889" lon="8.365591987967491">
<ele>104.39999999999998</ele>
<time>2023-05-17T12:34:03Z</time>
</trkpt>
<trkpt lat="49.11520994268358" lon="8.365591987967491">
<ele>104.39999999999998</ele>
<time>2023-05-17T12:34:04Z</time>
</trkpt>
<trkpt lat="49.115227963775396" lon="8.365592993795872">
<ele>104.39999999999998</ele>
<time>2023-05-17T12:34:05Z</time>
</trkpt>
<trkpt lat="49.115249924361706" lon="8.365594921633601">
<ele>104.39999999999998</ele>
<time>2023-05-17T12:34:06Z</time>
</trkpt>
<trkpt lat="49.11527297459543" lon="8.365601962432265">
<ele>104.39999999999998</ele>
<time>2023-05-17T12:34:07Z</time>
</trkpt>
<trkpt lat="49.11529493518174" lon="8.36561193689704">
<ele>104.39999999999998</ele>
<time>2023-05-17T12:34:08Z</time>
</trkpt>
<trkpt lat="49.115312956273556" lon="8.365621995180845">
<ele>104.39999999999998</ele>
<time>2023-05-17T12:34:09Z</time>
</trkpt>
<trkpt lat="49.115332989022136" lon="8.365629957988858">
<ele>104.39999999999998</ele>
<time>2023-05-17T12:34:10Z</time>
</trkpt>
<trkpt lat="49.11534992046654" lon="8.36563196964562">
<ele>104.39999999999998</ele>
<time>2023-05-17T12:34:11Z</time>
</trkpt>
<trkpt lat="49.11536693572998" lon="8.365632975474">
<ele>104.39999999999998</ele>
<time>2023-05-17T12:34:12Z</time>
</trkpt>
<trkpt lat="49.11538294516504" lon="8.365634987130761">
<ele>104.39999999999998</ele>
<time>2023-05-17T12:34:13Z</time>
</trkpt>
<trkpt lat="49.11540297791362" lon="8.365636998787522">
<ele>104.20000000000005</ele>
<time>2023-05-17T12:34:14Z</time>
</trkpt>
<trkpt lat="49.115421921014786" lon="8.365639932453632">
<ele>104.20000000000005</ele>
<time>2023-05-17T12:34:15Z</time>
</trkpt>
<trkpt lat="49.115439942106605" lon="8.365642949938774">
<ele>104.20000000000005</ele>
<time>2023-05-17T12:34:16Z</time>
</trkpt>
<trkpt lat="49.115461986511946" lon="8.365644961595535">
<ele>104.20000000000005</ele>
<time>2023-05-17T12:34:17Z</time>
</trkpt>
<trkpt lat="49.115481935441494" lon="8.365646973252296">
<ele>104.20000000000005</ele>
<time>2023-05-17T12:34:18Z</time>
</trkpt>
<trkpt lat="49.115501968190074" lon="8.365647979080677">
<ele>104.20000000000005</ele>
<time>2023-05-17T12:34:19Z</time>
</trkpt>
<trkpt lat="49.11551998928189" lon="8.365646973252296">
<ele>104.20000000000005</ele>
<time>2023-05-17T12:34:20Z</time>
</trkpt>
<trkpt lat="49.11553298123181" lon="8.365646973252296">
<ele>104.20000000000005</ele>
<time>2023-05-17T12:34:21Z</time>
</trkpt>
<trkpt lat="49.11554999649525" lon="8.365646973252296">
<ele>104.20000000000005</ele>
<time>2023-05-17T12:34:22Z</time>
</trkpt>
<trkpt lat="49.11556298844516" lon="8.365649990737438">
<ele>104.20000000000005</ele>
<time>2023-05-17T12:34:23Z</time>
</trkpt>
<trkpt lat="49.1155749745667" lon="8.36565493606031">
<ele>104.20000000000005</ele>
<time>2023-05-17T12:34:24Z</time>
</trkpt>
<trkpt lat="49.11558494903147" lon="8.365657953545451">
<ele>104.20000000000005</ele>
<time>2023-05-17T12:34:25Z</time>
</trkpt>
<trkpt lat="49.115594923496246" lon="8.365659965202212">
<ele>104.20000000000005</ele>
<time>2023-05-17T12:34:26Z</time>
</trkpt>
<trkpt lat="49.11560297012329" lon="8.365659965202212">
<ele>104.20000000000005</ele>
<time>2023-05-17T12:34:27Z</time>
</trkpt>
<trkpt lat="49.115611938759685" lon="8.365657953545451">
<ele>104.20000000000005</ele>
<time>2023-05-17T12:34:28Z</time>
</trkpt>
<trkpt lat="49.11561797372997" lon="8.36565694771707">
<ele>104.20000000000005</ele>
<time>2023-05-17T12:34:29Z</time>
</trkpt>
<trkpt lat="49.1156249307096" lon="8.365652924403548">
<ele>104.20000000000005</ele>
<time>2023-05-17T12:34:30Z</time>
</trkpt>
<trkpt lat="49.115631971508265" lon="8.365649990737438">
<ele>104.20000000000005</ele>
<time>2023-05-17T12:34:31Z</time>
</trkpt>
<trkpt lat="49.115632977336645" lon="8.365651918575168">
<ele>104.20000000000005</ele>
<time>2023-05-17T12:34:32Z</time>
</trkpt>
<trkpt lat="49.115632977336645" lon="8.365649990737438">
<ele>104.20000000000005</ele>
<time>2023-05-17T12:34:33Z</time>
</trkpt>
<trkpt lat="49.115632977336645" lon="8.365647979080677">
<ele>104.20000000000005</ele>
<time>2023-05-17T12:34:34Z</time>
</trkpt>
<trkpt lat="49.11568695679307" lon="8.365582935512066">
<ele>104.20000000000005</ele>
<time>2023-05-17T12:34:34Z</time>
</trkpt>
<trkpt lat="49.11569299176335" lon="8.365576984360814">
<ele>104.20000000000005</ele>
<time>2023-05-17T12:34:35Z</time>
</trkpt>
<trkpt lat="49.115699948742986" lon="8.365566926077008">
<ele>104.20000000000005</ele>
<time>2023-05-17T12:34:36Z</time>
</trkpt>
<trkpt lat="49.11570799537003" lon="8.365554939955473">
<ele>104.20000000000005</ele>
<time>2023-05-17T12:34:37Z</time>
</trkpt>
<trkpt lat="49.115716964006424" lon="8.365544965490699">
<ele>104.20000000000005</ele>
<time>2023-05-17T12:34:38Z</time>
</trkpt>
<trkpt lat="49.11572299897671" lon="8.365532979369164">
<ele>104.20000000000005</ele>
<time>2023-05-17T12:34:39Z</time>
</trkpt>
<trkpt lat="49.11572995595634" lon="8.365521999076009">
<ele>104.20000000000005</ele>
<time>2023-05-17T12:34:40Z</time>
</trkpt>
<trkpt lat="49.11573791876435" lon="8.365509929135442">
<ele>104.20000000000005</ele>
<time>2023-05-17T12:34:41Z</time>
</trkpt>
<trkpt lat="49.11574697121978" lon="8.365497943013906">
<ele>104.20000000000005</ele>
<time>2023-05-17T12:34:42Z</time>
</trkpt>
<trkpt lat="49.11575694568455" lon="8.365486962720752">
<ele>104.39999999999998</ele>
<time>2023-05-17T12:34:43Z</time>
</trkpt>
<trkpt lat="49.1157649923116" lon="8.365476988255978">
<ele>104.39999999999998</ele>
<time>2023-05-17T12:34:44Z</time>
</trkpt>
<trkpt lat="49.11577295511961" lon="8.365462990477681">
<ele>104.39999999999998</ele>
<time>2023-05-17T12:34:45Z</time>
</trkpt>
<trkpt lat="49.115782929584384" lon="8.365454943850636">
<ele>104.39999999999998</ele>
<time>2023-05-17T12:34:46Z</time>
</trkpt>
<trkpt lat="49.11578997038305" lon="8.365446981042624">
<ele>104.39999999999998</ele>
<time>2023-05-17T12:34:47Z</time>
</trkpt>
<trkpt lat="49.11579692736268" lon="8.365434994921088">
<ele>104.39999999999998</ele>
<time>2023-05-17T12:34:48Z</time>
</trkpt>
<trkpt lat="49.11580195650458" lon="8.365419991314411">
<ele>104.60000000000002</ele>
<time>2023-05-17T12:34:49Z</time>
</trkpt>
<trkpt lat="49.11580799147487" lon="8.365406999364495">
<ele>104.60000000000002</ele>
<time>2023-05-17T12:34:50Z</time>
</trkpt>
<trkpt lat="49.11581696011126" lon="8.365392917767167">
<ele>104.60000000000002</ele>
<time>2023-05-17T12:34:51Z</time>
</trkpt>
<trkpt lat="49.115822995081544" lon="8.365379925817251">
<ele>104.60000000000002</ele>
<time>2023-05-17T12:34:52Z</time>
</trkpt>
<trkpt lat="49.115829952061176" lon="8.365369951352477">
<ele>104.79999999999995</ele>
<time>2023-05-17T12:34:53Z</time>
</trkpt>
<trkpt lat="49.11583296954632" lon="8.365357965230942">
<ele>104.79999999999995</ele>
<time>2023-05-17T12:34:54Z</time>
</trkpt>
<trkpt lat="49.11583992652595" lon="8.365351930260658">
<ele>104.79999999999995</ele>
<time>2023-05-17T12:34:55Z</time>
</trkpt>
<trkpt lat="49.11584495566785" lon="8.365339944139123">
<ele>104.79999999999995</ele>
<time>2023-05-17T12:34:56Z</time>
</trkpt>
<trkpt lat="49.11585199646652" lon="8.36533198133111">
<ele>104.79999999999995</ele>
<time>2023-05-17T12:34:57Z</time>
</trkpt>
<trkpt lat="49.11585694178939" lon="8.365319995209575">
<ele>104.79999999999995</ele>
<time>2023-05-17T12:34:58Z</time>
</trkpt>
<trkpt lat="49.11586297675967" lon="8.36531194858253">
<ele>104.79999999999995</ele>
<time>2023-05-17T12:34:59Z</time>
</trkpt>
<trkpt lat="49.115869933739305" lon="8.365301974117756">
<ele>104.79999999999995</ele>
<time>2023-05-17T12:35:00Z</time>
</trkpt>
<trkpt lat="49.11587496288121" lon="8.365291999652982">
<ele>104.79999999999995</ele>
<time>2023-05-17T12:35:01Z</time>
</trkpt>
<trkpt lat="49.11587999202311" lon="8.365281941369176">
<ele>104.79999999999995</ele>
<time>2023-05-17T12:35:02Z</time>
</trkpt>
<trkpt lat="49.11588493734598" lon="8.36526995524764">
<ele>105</ele>
<time>2023-05-17T12:35:03Z</time>
</trkpt>
<trkpt lat="49.11588795483112" lon="8.365259980782866">
<ele>105</ele>
<time>2023-05-17T12:35:04Z</time>
</trkpt>
<trkpt lat="49.115891978144646" lon="8.365251934155822">
<ele>105</ele>
<time>2023-05-17T12:35:05Z</time>
</trkpt>
<trkpt lat="49.11589692346752" lon="8.36524497717619">
<ele>105</ele>
<time>2023-05-17T12:35:06Z</time>
</trkpt>
<trkpt lat="49.1158979292959" lon="8.365234918892384">
<ele>105</ele>
<time>2023-05-17T12:35:07Z</time>
</trkpt>
<trkpt lat="49.11590195260942" lon="8.36522494442761">
<ele>105</ele>
<time>2023-05-17T12:35:08Z</time>
</trkpt>
<trkpt lat="49.11590497009456" lon="8.365216981619596">
<ele>105</ele>
<time>2023-05-17T12:35:09Z</time>
</trkpt>
<trkpt lat="49.1159079875797" lon="8.365207929164171">
<ele>105</ele>
<time>2023-05-17T12:35:10Z</time>
</trkpt>
<trkpt lat="49.115909999236465" lon="8.3652029838413">
<ele>105</ele>
<time>2023-05-17T12:35:11Z</time>
</trkpt>
<trkpt lat="49.11601192317903" lon="8.362246938049793">
<ele>105.20000000000005</ele>
<time>2023-05-17T12:35:11Z</time>
</trkpt>
<trkpt lat="49.1160099953413" lon="8.36221693083644">
<ele>105.20000000000005</ele>
<time>2023-05-17T12:35:12Z</time>
</trkpt>
<trkpt lat="49.1160099953413" lon="8.362179966643453">
<ele>105.20000000000005</ele>
<time>2023-05-17T12:35:13Z</time>
</trkpt>
<trkpt lat="49.1160099953413" lon="8.362134955823421">
<ele>105.20000000000005</ele>
<time>2023-05-17T12:35:14Z</time>
</trkpt>
<trkpt lat="49.1160099953413" lon="8.362079970538616">
<ele>105.20000000000005</ele>
<time>2023-05-17T12:35:15Z</time>
</trkpt>
<trkpt lat="49.11600697785616" lon="8.362026996910572">
<ele>105.20000000000005</ele>
<time>2023-05-17T12:35:16Z</time>
</trkpt>
<trkpt lat="49.11600697785616" lon="8.361969999969006">
<ele>105</ele>
<time>2023-05-17T12:35:17Z</time>
</trkpt>
<trkpt lat="49.11601192317903" lon="8.361911997199059">
<ele>105</ele>
<time>2023-05-17T12:35:18Z</time>
</trkpt>
<trkpt lat="49.11602692678571" lon="8.361857933923602">
<ele>105</ele>
<time>2023-05-17T12:35:19Z</time>
</trkpt>
<trkpt lat="49.11605299450457" lon="8.361819963902235">
<ele>104.79999999999995</ele>
<time>2023-05-17T12:35:20Z</time>
</trkpt>
<trkpt lat="49.116086941212416" lon="8.361796997487545">
<ele>104.79999999999995</ele>
<time>2023-05-17T12:35:21Z</time>
</trkpt>
<trkpt lat="49.11611996591091" lon="8.361777970567346">
<ele>104.60000000000002</ele>
<time>2023-05-17T12:35:22Z</time>
</trkpt>
<trkpt lat="49.11615198478103" lon="8.361751986667514">
<ele>104.60000000000002</ele>
<time>2023-05-17T12:35:23Z</time>
</trkpt>
<trkpt lat="49.11617998033762" lon="8.361706975847483">
<ele>104.60000000000002</ele>
<time>2023-05-17T12:35:24Z</time>
</trkpt>
<trkpt lat="49.1161949839443" lon="8.361647967249155">
<ele>104.39999999999998</ele>
<time>2023-05-17T12:35:25Z</time>
</trkpt>
<trkpt lat="49.11619699560106" lon="8.361586946994066">
<ele>104.39999999999998</ele>
<time>2023-05-17T12:35:26Z</time>
</trkpt>
<trkpt lat="49.11618492566049" lon="8.361532967537642">
<ele>104.39999999999998</ele>
<time>2023-05-17T12:35:27Z</time>
</trkpt>
<trkpt lat="49.116167994216084" lon="8.36148695088923">
<ele>104.39999999999998</ele>
<time>2023-05-17T12:35:28Z</time>
</trkpt>
<trkpt lat="49.11615299060941" lon="8.36144495755434">
<ele>104.39999999999998</ele>
<time>2023-05-17T12:35:29Z</time>
</trkpt>
<trkpt lat="49.116146955639124" lon="8.361397935077548">
<ele>104.39999999999998</ele>
<time>2023-05-17T12:35:30Z</time>
</trkpt>
<trkpt lat="49.116146955639124" lon="8.361347978934646">
<ele>104.20000000000005</ele>
<time>2023-05-17T12:35:31Z</time>
</trkpt>
<trkpt lat="49.116147961467505" lon="8.361304979771376">
<ele>104.20000000000005</ele>
<time>2023-05-17T12:35:32Z</time>
</trkpt>
<trkpt lat="49.116147961467505" lon="8.361266925930977">
<ele>104.20000000000005</ele>
<time>2023-05-17T12:35:33Z</time>
</trkpt>
<trkpt lat="49.116146955639124" lon="8.36122996173799">
<ele>104.20000000000005</ele>
<time>2023-05-17T12:35:34Z</time>
</trkpt>
<trkpt lat="49.11614494398236" lon="8.361197942867875">
<ele>104.20000000000005</ele>
<time>2023-05-17T12:35:35Z</time>
</trkpt>
<trkpt lat="49.1161429323256" lon="8.361169947311282">
<ele>104.20000000000005</ele>
<time>2023-05-17T12:35:36Z</time>
</trkpt>
<trkpt lat="49.11613999865949" lon="8.361149998381734">
<ele>104.20000000000005</ele>
<time>2023-05-17T12:35:37Z</time>
</trkpt>
<trkpt lat="49.11613698117435" lon="8.361124936491251">
<ele>104.20000000000005</ele>
<time>2023-05-17T12:35:38Z</time>
</trkpt>
<trkpt lat="49.11613698117435" lon="8.361094929277897">
<ele>104.20000000000005</ele>
<time>2023-05-17T12:35:39Z</time>
</trkpt>
<trkpt lat="49.11613496951759" lon="8.361064922064543">
<ele>104.20000000000005</ele>
<time>2023-05-17T12:35:40Z</time>
</trkpt>
<trkpt lat="49.11613698117435" lon="8.36103793233633">
<ele>104.39999999999998</ele>
<time>2023-05-17T12:35:41Z</time>
</trkpt>
<trkpt lat="49.1161429323256" lon="8.361007925122976">
<ele>104.39999999999998</ele>
<time>2023-05-17T12:35:42Z</time>
</trkpt>
<trkpt lat="49.11615198478103" lon="8.360986970365047">
<ele>104.39999999999998</ele>
<time>2023-05-17T12:35:43Z</time>
</trkpt>
<trkpt lat="49.1161569301039" lon="8.360966937616467">
<ele>104.39999999999998</ele>
<time>2023-05-17T12:35:44Z</time>
</trkpt>
<trkpt lat="49.1161619592458" lon="8.360934918746352">
<ele>104.39999999999998</ele>
<time>2023-05-17T12:35:45Z</time>
</trkpt>
<trkpt lat="49.116169922053814" lon="8.36090792901814">
<ele>104.39999999999998</ele>
<time>2023-05-17T12:35:46Z</time>
</trkpt>
<trkpt lat="49.11617998033762" lon="8.360872976481915">
<ele>104.39999999999998</ele>
<time>2023-05-17T12:35:47Z</time>
</trkpt>
<trkpt lat="49.11618492566049" lon="8.360844980925322">
<ele>104.39999999999998</ele>
<time>2023-05-17T12:35:48Z</time>
</trkpt>
<trkpt lat="49.11618794314563" lon="8.360809944570065">
<ele>104.60000000000002</ele>
<time>2023-05-17T12:35:49Z</time>
</trkpt>
<trkpt lat="49.116192972287536" lon="8.360769962891936">
<ele>104.60000000000002</ele>
<time>2023-05-17T12:35:50Z</time>
</trkpt>
<trkpt lat="49.11619699560106" lon="8.36073199287057">
<ele>104.60000000000002</ele>
<time>2023-05-17T12:35:51Z</time>
</trkpt>
<trkpt lat="49.11620294675231" lon="8.360686982050538">
<ele>104.60000000000002</ele>
<time>2023-05-17T12:35:52Z</time>
</trkpt>
<trkpt lat="49.116209987550974" lon="8.360637947916985">
<ele>104.79999999999995</ele>
<time>2023-05-17T12:35:53Z</time>
</trkpt>
<trkpt lat="49.11621795035899" lon="8.360591931268573">
<ele>104.79999999999995</ele>
<time>2023-05-17T12:35:54Z</time>
</trkpt>
<trkpt lat="49.11622297950089" lon="8.360544992610812">
<ele>104.79999999999995</ele>
<time>2023-05-17T12:35:55Z</time>
</trkpt>
<trkpt lat="49.11622792482376" lon="8.360492940992117">
<ele>105</ele>
<time>2023-05-17T12:35:56Z</time>
</trkpt>
<trkpt lat="49.116234965622425" lon="8.360441979020834">
<ele>105</ele>
<time>2023-05-17T12:35:57Z</time>
</trkpt>
<trkpt lat="49.11624292843044" lon="8.360394956544042">
<ele>105</ele>
<time>2023-05-17T12:35:58Z</time>
</trkpt>
<trkpt lat="49.116252986714244" lon="8.360341982915998">
<ele>105.20000000000005</ele>
<time>2023-05-17T12:35:59Z</time>
</trkpt>
<trkpt lat="49.116259943693876" lon="8.360291942954063">
<ele>105.20000000000005</ele>
<time>2023-05-17T12:36:00Z</time>
</trkpt>
<trkpt lat="49.11626799032092" lon="8.360241986811161">
<ele>105.20000000000005</ele>
<time>2023-05-17T12:36:01Z</time>
</trkpt>
<trkpt lat="49.116277964785695" lon="8.360194964334369">
<ele>105.39999999999998</ele>
<time>2023-05-17T12:36:02Z</time>
</trkpt>
<trkpt lat="49.11629196256399" lon="8.360149953514338">
<ele>105.39999999999998</ele>
<time>2023-05-17T12:36:03Z</time>
</trkpt>
<trkpt lat="49.11630797199905" lon="8.360099997371435">
<ele>105.39999999999998</ele>
<time>2023-05-17T12:36:04Z</time>
</trkpt>
<trkpt lat="49.11632699891925" lon="8.360049957409501">
<ele>105.39999999999998</ele>
<time>2023-05-17T12:36:05Z</time>
</trkpt>
<trkpt lat="49.116344936192036" lon="8.360001929104328">
<ele>105.39999999999998</ele>
<time>2023-05-17T12:36:06Z</time>
</trkpt>
<trkpt lat="49.11636798642576" lon="8.359957924112678">
<ele>105.39999999999998</ele>
<time>2023-05-17T12:36:07Z</time>
</trkpt>
<trkpt lat="49.116387935355306" lon="8.359922971576452">
<ele>105.60000000000002</ele>
<time>2023-05-17T12:36:08Z</time>
</trkpt>
<trkpt lat="49.11641492508352" lon="8.359891958534718">
<ele>105.60000000000002</ele>
<time>2023-05-17T12:36:09Z</time>
</trkpt>
<trkpt lat="49.11644199863076" lon="8.359871925786138">
<ele>105.60000000000002</ele>
<time>2023-05-17T12:36:10Z</time>
</trkpt>
<trkpt lat="49.116472927853465" lon="8.359849965199828">
<ele>105.60000000000002</ele>
<time>2023-05-17T12:36:11Z</time>
</trkpt>
<trkpt lat="49.116511987522244" lon="8.359821969643235">
<ele>105.60000000000002</ele>
<time>2023-05-17T12:36:12Z</time>
</trkpt>
<trkpt lat="49.11654995754361" lon="8.359796991571784">
<ele>105.79999999999995</ele>
<time>2023-05-17T12:36:13Z</time>
</trkpt>
<trkpt lat="49.11658993922174" lon="8.359781987965107">
<ele>105.79999999999995</ele>
<time>2023-05-17T12:36:14Z</time>
</trkpt>
<trkpt lat="49.11662698723376" lon="8.359772935509682">
<ele>105.79999999999995</ele>
<time>2023-05-17T12:36:15Z</time>
</trkpt>
<trkpt lat="49.116666968911886" lon="8.359764972701669">
<ele>106</ele>
<time>2023-05-17T12:36:16Z</time>
</trkpt>
<trkpt lat="49.11670493893325" lon="8.359759943559766">
<ele>106</ele>
<time>2023-05-17T12:36:17Z</time>
</trkpt>
<trkpt lat="49.11674492061138" lon="8.359756926074624">
<ele>106</ele>
<time>2023-05-17T12:36:18Z</time>
</trkpt>
<trkpt lat="49.1167869977653" lon="8.359752986580133">
<ele>106.20000000000005</ele>
<time>2023-05-17T12:36:19Z</time>
</trkpt>
<trkpt lat="49.11682697944343" lon="8.359751980751753">
<ele>106.20000000000005</ele>
<time>2023-05-17T12:36:20Z</time>
</trkpt>
<trkpt lat="49.11686696112156" lon="8.359749969094992">
<ele>106.20000000000005</ele>
<time>2023-05-17T12:36:21Z</time>
</trkpt>
<trkpt lat="49.11690794862807" lon="8.35974795743823">
<ele>106.39999999999998</ele>
<time>2023-05-17T12:36:22Z</time>
</trkpt>
<trkpt lat="49.116946924477816" lon="8.359744939953089">
<ele>106.39999999999998</ele>
<time>2023-05-17T12:36:23Z</time>
</trkpt>
<trkpt lat="49.116986989974976" lon="8.359739994630218">
<ele>106.39999999999998</ele>
<time>2023-05-17T12:36:24Z</time>
</trkpt>
<trkpt lat="49.117026971653104" lon="8.359736977145076">
<ele>106.39999999999998</ele>
<time>2023-05-17T12:36:25Z</time>
</trkpt>
<trkpt lat="49.11706695333123" lon="8.359732953831553">
<ele>106.60000000000002</ele>
<time>2023-05-17T12:36:26Z</time>
</trkpt>
<trkpt lat="49.1171099524945" lon="8.35972792468965">
<ele>106.60000000000002</ele>
<time>2023-05-17T12:36:27Z</time>
</trkpt>
<trkpt lat="49.11715194582939" lon="8.35972297936678">
<ele>106.60000000000002</ele>
<time>2023-05-17T12:36:28Z</time>
</trkpt>
<trkpt lat="49.1171929333359" lon="8.359717950224876">
<ele>106.60000000000002</ele>
<time>2023-05-17T12:36:29Z</time>
</trkpt>
<trkpt lat="49.11723794415593" lon="8.359716944396496">
<ele>106.79999999999995</ele>
<time>2023-05-17T12:36:30Z</time>
</trkpt>
<trkpt lat="49.11727993749082" lon="8.359716944396496">
<ele>106.79999999999995</ele>
<time>2023-05-17T12:36:31Z</time>
</trkpt>
<trkpt lat="49.11731799133122" lon="8.359719961881638">
<ele>106.79999999999995</ele>
<time>2023-05-17T12:36:32Z</time>
</trkpt>
<trkpt lat="49.11735696718097" lon="8.35972499102354">
<ele>106.79999999999995</ele>
<time>2023-05-17T12:36:33Z</time>
</trkpt>
<trkpt lat="49.11739191971719" lon="8.35972691886127">
<ele>106.79999999999995</ele>
<time>2023-05-17T12:36:34Z</time>
</trkpt>
<trkpt lat="49.11742796190083" lon="8.359729936346412">
<ele>106.79999999999995</ele>
<time>2023-05-17T12:36:35Z</time>
</trkpt>
<trkpt lat="49.11746492609382" lon="8.359737982973456">
<ele>106.79999999999995</ele>
<time>2023-05-17T12:36:36Z</time>
</trkpt>
<trkpt lat="49.11750499159098" lon="8.35974695160985">
<ele>106.79999999999995</ele>
<time>2023-05-17T12:36:37Z</time>
</trkpt>
<trkpt lat="49.117546984925866" lon="8.359754998236895">
<ele>106.79999999999995</ele>
<time>2023-05-17T12:36:38Z</time>
</trkpt>
<trkpt lat="49.117589984089136" lon="8.35976799018681">
<ele>106.79999999999995</ele>
<time>2023-05-17T12:36:39Z</time>
</trkpt>
<trkpt lat="49.117631977424026" lon="8.359782993793488">
<ele>106.79999999999995</ele>
<time>2023-05-17T12:36:40Z</time>
</trkpt>
<trkpt lat="49.11766994744539" lon="8.359796991571784">
<ele>106.79999999999995</ele>
<time>2023-05-17T12:36:41Z</time>
</trkpt>
<trkpt lat="49.11770992912352" lon="8.359807971864939">
<ele>106.79999999999995</ele>
<time>2023-05-17T12:36:42Z</time>
</trkpt>
<trkpt lat="49.11774999462068" lon="8.359826998785138">
<ele>106.79999999999995</ele>
<time>2023-05-17T12:36:43Z</time>
</trkpt>
<trkpt lat="49.11779198795557" lon="8.359844936057925">
<ele>106.79999999999995</ele>
<time>2023-05-17T12:36:44Z</time>
</trkpt>
<trkpt lat="49.1178319696337" lon="8.359867986291647">
<ele>106.79999999999995</ele>
<time>2023-05-17T12:36:45Z</time>
</trkpt>
<trkpt lat="49.117869939655066" lon="8.359891958534718">
<ele>106.79999999999995</ele>
<time>2023-05-17T12:36:46Z</time>
</trkpt>
<trkpt lat="49.117906987667084" lon="8.359914924949408">
<ele>106.79999999999995</ele>
<time>2023-05-17T12:36:47Z</time>
</trkpt>
<trkpt lat="49.11794194020331" lon="8.359932946041226">
<ele>106.79999999999995</ele>
<time>2023-05-17T12:36:48Z</time>
</trkpt>
<trkpt lat="49.117974964901805" lon="8.359954990446568">
<ele>107</ele>
<time>2023-05-17T12:36:49Z</time>
</trkpt>
<trkpt lat="49.11800698377192" lon="8.359976951032877">
<ele>107</ele>
<time>2023-05-17T12:36:50Z</time>
</trkpt>
<trkpt lat="49.118037996813655" lon="8.359992960467935">
<ele>107</ele>
<time>2023-05-17T12:36:51Z</time>
</trkpt>
<trkpt lat="49.11806699819863" lon="8.360007964074612">
<ele>107</ele>
<time>2023-05-17T12:36:52Z</time>
</trkpt>
<trkpt lat="49.11809197627008" lon="8.36002497933805">
<ele>107</ele>
<time>2023-05-17T12:36:53Z</time>
</trkpt>
<trkpt lat="49.11811494268477" lon="8.360039982944727">
<ele>107</ele>
<time>2023-05-17T12:36:54Z</time>
</trkpt>
<trkpt lat="49.11813799291849" lon="8.360052974894643">
<ele>107</ele>
<time>2023-05-17T12:36:55Z</time>
</trkpt>
<trkpt lat="49.11816196516156" lon="8.360062949359417">
<ele>107</ele>
<time>2023-05-17T12:36:56Z</time>
</trkpt>
<trkpt lat="49.11818694323301" lon="8.36006797850132">
<ele>107</ele>
<time>2023-05-17T12:36:57Z</time>
</trkpt>
<trkpt lat="49.11821695044637" lon="8.360057920217514">
<ele>107</ele>
<time>2023-05-17T12:36:58Z</time>
</trkpt>
<trkpt lat="49.11824997514486" lon="8.360039982944727">
<ele>107</ele>
<time>2023-05-17T12:36:59Z</time>
</trkpt>
<trkpt lat="49.11828199401498" lon="8.360014921054244">
<ele>106.79999999999995</ele>
<time>2023-05-17T12:37:00Z</time>
</trkpt>
<trkpt lat="49.11832197569311" lon="8.359972927719355">
<ele>106.79999999999995</ele>
<time>2023-05-17T12:37:01Z</time>
</trkpt>
<trkpt lat="49.118359945714474" lon="8.359931940212846">
<ele>106.60000000000002</ele>
<time>2023-05-17T12:37:02Z</time>
</trkpt>
<trkpt lat="49.11841493099928" lon="8.359887935221195">
<ele>106.39999999999998</ele>
<time>2023-05-17T12:37:03Z</time>
</trkpt>
<trkpt lat="49.11847494542599" lon="8.359834961593151">
<ele>106.39999999999998</ele>
<time>2023-05-17T12:37:04Z</time>
</trkpt>
<trkpt lat="49.118531942367554" lon="8.359782993793488">
<ele>106.20000000000005</ele>
<time>2023-05-17T12:37:05Z</time>
</trkpt>
<trkpt lat="49.11859195679426" lon="8.359731948003173">
<ele>106</ele>
<time>2023-05-17T12:37:06Z</time>
</trkpt>
<trkpt lat="49.11864694207907" lon="8.359682997688651">
<ele>106</ele>
<time>2023-05-17T12:37:07Z</time>
</trkpt>
<trkpt lat="49.11870192736387" lon="8.359627928584814">
<ele>105.79999999999995</ele>
<time>2023-05-17T12:37:08Z</time>
</trkpt>
<trkpt lat="49.11875699646771" lon="8.35957495495677">
<ele>105.60000000000002</ele>
<time>2023-05-17T12:37:09Z</time>
</trkpt>
<trkpt lat="49.118811981752515" lon="8.359524998813868">
<ele>105.20000000000005</ele>
<time>2023-05-17T12:37:10Z</time>
</trkpt>
<trkpt lat="49.11886696703732" lon="8.359472947195172">
<ele>105</ele>
<time>2023-05-17T12:37:11Z</time>
</trkpt>
<trkpt lat="49.118919940665364" lon="8.35942693054676">
<ele>104.79999999999995</ele>
<time>2023-05-17T12:37:12Z</time>
</trkpt>
<trkpt lat="49.1189699806273" lon="8.359376974403858">
<ele>104.60000000000002</ele>
<time>2023-05-17T12:37:13Z</time>
</trkpt>
<trkpt lat="49.11901792511344" lon="8.359327940270305">
<ele>104.39999999999998</ele>
<time>2023-05-17T12:37:14Z</time>
</trkpt>
<trkpt lat="49.11906494759023" lon="8.359277984127402">
<ele>104.20000000000005</ele>
<time>2023-05-17T12:37:15Z</time>
</trkpt>
<trkpt lat="49.11910995841026" lon="8.359227944165468">
<ele>104.20000000000005</ele>
<time>2023-05-17T12:37:16Z</time>
</trkpt>
<trkpt lat="49.119154969230294" lon="8.359179999679327">
<ele>104.20000000000005</ele>
<time>2023-05-17T12:37:17Z</time>
</trkpt>
<trkpt lat="49.11920199170709" lon="8.359129959717393">
<ele>104.20000000000005</ele>
<time>2023-05-17T12:37:18Z</time>
</trkpt>
<trkpt lat="49.119242979213595" lon="8.3590829372406">
<ele>104.20000000000005</ele>
<time>2023-05-17T12:37:19Z</time>
</trkpt>
<trkpt lat="49.119289917871356" lon="8.35903792642057">
<ele>104.20000000000005</ele>
<time>2023-05-17T12:37:20Z</time>
</trkpt>
<trkpt lat="49.11933694034815" lon="8.35899199359119">
<ele>104.20000000000005</ele>
<time>2023-05-17T12:37:21Z</time>
</trkpt>
<trkpt lat="49.11938698031008" lon="8.358946982771158">
<ele>104.20000000000005</ele>
<time>2023-05-17T12:37:22Z</time>
</trkpt>
<trkpt lat="49.119436936452985" lon="8.358902977779508">
<ele>104.20000000000005</ele>
<time>2023-05-17T12:37:23Z</time>
</trkpt>
<trkpt lat="49.119481947273016" lon="8.358859978616238">
<ele>104.20000000000005</ele>
<time>2023-05-17T12:37:24Z</time>
</trkpt>
<trkpt lat="49.11952695809305" lon="8.35881999693811">
<ele>104.20000000000005</ele>
<time>2023-05-17T12:37:25Z</time>
</trkpt>
<trkpt lat="49.11957498639822" lon="8.358786972239614">
<ele>104.20000000000005</ele>
<time>2023-05-17T12:37:26Z</time>
</trkpt>
<trkpt lat="49.119627960026264" lon="8.358751935884356">
<ele>104.20000000000005</ele>
<time>2023-05-17T12:37:27Z</time>
</trkpt>
<trkpt lat="49.1196779999882" lon="8.358711954206228">
<ele>104.20000000000005</ele>
<time>2023-05-17T12:37:28Z</time>
</trkpt>
<trkpt lat="49.1197279561311" lon="8.358669960871339">
<ele>104.20000000000005</ele>
<time>2023-05-17T12:37:29Z</time>
</trkpt>
<trkpt lat="49.11977497860789" lon="8.358624950051308">
<ele>104.20000000000005</ele>
<time>2023-05-17T12:37:30Z</time>
</trkpt>
<trkpt lat="49.119819989427924" lon="8.358579939231277">
<ele>104.20000000000005</ele>
<time>2023-05-17T12:37:31Z</time>
</trkpt>
<trkpt lat="49.119866928085685" lon="8.358546998351812">
<ele>104.20000000000005</ele>
<time>2023-05-17T12:37:32Z</time>
</trkpt>
<trkpt lat="49.119907999411225" lon="8.358512967824936">
<ele>104.20000000000005</ele>
<time>2023-05-17T12:37:33Z</time>
</trkpt>
<trkpt lat="49.119952926412225" lon="8.358472986146808">
<ele>104.20000000000005</ele>
<time>2023-05-17T12:37:34Z</time>
</trkpt>
<trkpt lat="49.119991986081004" lon="8.35843794979155">
<ele>104.20000000000005</ele>
<time>2023-05-17T12:37:35Z</time>
</trkpt>
<trkpt lat="49.120037918910384" lon="8.35839495062828">
<ele>104.20000000000005</ele>
<time>2023-05-17T12:37:36Z</time>
</trkpt>
<trkpt lat="49.12008795887232" lon="8.358346922323108">
<ele>104.20000000000005</ele>
<time>2023-05-17T12:37:37Z</time>
</trkpt>
<trkpt lat="49.12013196386397" lon="8.358309958130121">
<ele>104.20000000000005</ele>
<time>2023-05-17T12:37:38Z</time>
</trkpt>
<trkpt lat="49.12017999216914" lon="8.358266958966851">
<ele>104.20000000000005</ele>
<time>2023-05-17T12:37:39Z</time>
</trkpt>
<trkpt lat="49.120232965797186" lon="8.358216919004917">
<ele>104.20000000000005</ele>
<time>2023-05-17T12:37:40Z</time>
</trkpt>
<trkpt lat="49.12028493359685" lon="8.358169980347157">
<ele>104.20000000000005</ele>
<time>2023-05-17T12:37:41Z</time>
</trkpt>
<trkpt lat="49.12033497355878" lon="8.358117928728461">
<ele>104.20000000000005</ele>
<time>2023-05-17T12:37:42Z</time>
</trkpt>
<trkpt lat="49.120379984378815" lon="8.358076941221952">
<ele>104.20000000000005</ele>
<time>2023-05-17T12:37:43Z</time>
</trkpt>
<trkpt lat="49.120421977713704" lon="8.358037965372205">
<ele>104.20000000000005</ele>
<time>2023-05-17T12:37:44Z</time>
</trkpt>
<trkpt lat="49.12046195939183" lon="8.358001923188567">
<ele>104.20000000000005</ele>
<time>2023-05-17T12:37:45Z</time>
</trkpt>
<trkpt lat="49.1205049585551" lon="8.35796294733882">
<ele>104.20000000000005</ele>
<time>2023-05-17T12:37:46Z</time>
</trkpt>
<trkpt lat="49.120552986860275" lon="8.357924977317452">
<ele>104.20000000000005</ele>
<time>2023-05-17T12:37:47Z</time>
</trkpt>
<trkpt lat="49.120599925518036" lon="8.357882983982563">
<ele>104.20000000000005</ele>
<time>2023-05-17T12:37:48Z</time>
</trkpt>
<trkpt lat="49.120642924681306" lon="8.357844930142164">
<ele>104.20000000000005</ele>
<time>2023-05-17T12:37:49Z</time>
</trkpt>
<trkpt lat="49.1206899471581" lon="8.357801930978894">
<ele>104.20000000000005</ele>
<time>2023-05-17T12:37:50Z</time>
</trkpt>
<trkpt lat="49.12074292078614" lon="8.357752980664372">
<ele>104.20000000000005</ele>
<time>2023-05-17T12:37:51Z</time>
</trkpt>
<trkpt lat="49.120792960748076" lon="8.357701934874058">
<ele>104.20000000000005</ele>
<time>2023-05-17T12:37:52Z</time>
</trkpt>
<trkpt lat="49.12084291689098" lon="8.357651978731155">
<ele>104.20000000000005</ele>
<time>2023-05-17T12:37:53Z</time>
</trkpt>
<trkpt lat="49.12089195102453" lon="8.357612919062376">
<ele>104.20000000000005</ele>
<time>2023-05-17T12:37:54Z</time>
</trkpt>
<trkpt lat="49.120937967672944" lon="8.357562962919474">
<ele>104.20000000000005</ele>
<time>2023-05-17T12:37:55Z</time>
</trkpt>
<trkpt lat="49.120986917987466" lon="8.357521975412965">
<ele>104.20000000000005</ele>
<time>2023-05-17T12:37:56Z</time>
</trkpt>
<trkpt lat="49.12103494629264" lon="8.357472941279411">
<ele>104.20000000000005</ele>
<time>2023-05-17T12:37:57Z</time>
</trkpt>
<trkpt lat="49.12107995711267" lon="8.357437988743186">
<ele>104.20000000000005</ele>
<time>2023-05-17T12:37:58Z</time>
</trkpt>
<trkpt lat="49.1211249679327" lon="8.35740496404469">
<ele>104.20000000000005</ele>
<time>2023-05-17T12:37:59Z</time>
</trkpt>
<trkpt lat="49.12116997875273" lon="8.357359953224659">
<ele>104.20000000000005</ele>
<time>2023-05-17T12:38:00Z</time>
</trkpt>
<trkpt lat="49.121212977916" lon="8.357321983203292">
<ele>104.20000000000005</ele>
<time>2023-05-17T12:38:01Z</time>
</trkpt>
<trkpt lat="49.12125698290765" lon="8.357282923534513">
<ele>104.20000000000005</ele>
<time>2023-05-17T12:38:02Z</time>
</trkpt>
<trkpt lat="49.121301993727684" lon="8.357242941856384">
<ele>104.20000000000005</ele>
<time>2023-05-17T12:38:03Z</time>
</trkpt>
<trkpt lat="49.12133996374905" lon="8.357204971835017">
<ele>104.20000000000005</ele>
<time>2023-05-17T12:38:04Z</time>
</trkpt>
<trkpt lat="49.12138296291232" lon="8.35716993547976">
<ele>104.20000000000005</ele>
<time>2023-05-17T12:38:05Z</time>
</trkpt>
<trkpt lat="49.12142696790397" lon="8.35712693631649">
<ele>104.20000000000005</ele>
<time>2023-05-17T12:38:06Z</time>
</trkpt>
<trkpt lat="49.121477929875255" lon="8.357071951031685">
<ele>104.20000000000005</ele>
<time>2023-05-17T12:38:07Z</time>
</trkpt>
<trkpt lat="49.12152495235205" lon="8.357024928554893">
<ele>104.20000000000005</ele>
<time>2023-05-17T12:38:08Z</time>
</trkpt>
<trkpt lat="49.12156996317208" lon="8.356979917734861">
<ele>104.20000000000005</ele>
<time>2023-05-17T12:38:09Z</time>
</trkpt>
<trkpt lat="49.12161799147725" lon="8.356937924399972">
<ele>104.20000000000005</ele>
<time>2023-05-17T12:38:10Z</time>
</trkpt>
<trkpt lat="49.12166694179177" lon="8.356897942721844">
<ele>104.20000000000005</ele>
<time>2023-05-17T12:38:11Z</time>
</trkpt>
<trkpt lat="49.12171698175371" lon="8.356856955215335">
<ele>104.20000000000005</ele>
<time>2023-05-17T12:38:12Z</time>
</trkpt>
<trkpt lat="49.12177297286689" lon="8.356806999072433">
<ele>104.20000000000005</ele>
<time>2023-05-17T12:38:13Z</time>
</trkpt>
<trkpt lat="49.121819995343685" lon="8.356757964938879">
<ele>104.20000000000005</ele>
<time>2023-05-17T12:38:14Z</time>
</trkpt>
<trkpt lat="49.121866934001446" lon="8.356709936633706">
<ele>104.20000000000005</ele>
<time>2023-05-17T12:38:15Z</time>
</trkpt>
<trkpt lat="49.12191697396338" lon="8.356661992147565">
<ele>104.20000000000005</ele>
<time>2023-05-17T12:38:16Z</time>
</trkpt>
<trkpt lat="49.12196693010628" lon="8.35661195218563">
<ele>104.20000000000005</ele>
<time>2023-05-17T12:38:17Z</time>
</trkpt>
<trkpt lat="49.122014958411455" lon="8.3565669413656">
<ele>104.20000000000005</ele>
<time>2023-05-17T12:38:18Z</time>
</trkpt>
<trkpt lat="49.1220679320395" lon="8.356521930545568">
<ele>104.20000000000005</ele>
<time>2023-05-17T12:38:19Z</time>
</trkpt>
<trkpt lat="49.12211495451629" lon="8.356477925553918">
<ele>104.20000000000005</ele>
<time>2023-05-17T12:38:20Z</time>
</trkpt>
<trkpt lat="49.122162982821465" lon="8.356434926390648">
<ele>104.20000000000005</ele>
<time>2023-05-17T12:38:21Z</time>
</trkpt>
<trkpt lat="49.122209921479225" lon="8.356391927227378">
<ele>104.20000000000005</ele>
<time>2023-05-17T12:38:22Z</time>
</trkpt>
<trkpt lat="49.1222579497844" lon="8.356341971084476">
<ele>104.20000000000005</ele>
<time>2023-05-17T12:38:23Z</time>
</trkpt>
<trkpt lat="49.12230698391795" lon="8.35628991946578">
<ele>104.20000000000005</ele>
<time>2023-05-17T12:38:24Z</time>
</trkpt>
<trkpt lat="49.12235199473798" lon="8.35624499246478">
<ele>104.20000000000005</ele>
<time>2023-05-17T12:38:25Z</time>
</trkpt>
<trkpt lat="49.12239499390125" lon="8.356206938624382">
<ele>104.20000000000005</ele>
<time>2023-05-17T12:38:26Z</time>
</trkpt>
<trkpt lat="49.12243799306452" lon="8.35616192780435">
<ele>104.20000000000005</ele>
<time>2023-05-17T12:38:27Z</time>
</trkpt>
<trkpt lat="49.12247998639941" lon="8.356121946126223">
<ele>104.20000000000005</ele>
<time>2023-05-17T12:38:28Z</time>
</trkpt>
<trkpt lat="49.1225219797343" lon="8.356081964448094">
<ele>104.39999999999998</ele>
<time>2023-05-17T12:38:29Z</time>
</trkpt>
<trkpt lat="49.12255994975567" lon="8.356049945577979">
<ele>104.39999999999998</ele>
<time>2023-05-17T12:38:30Z</time>
</trkpt>
<trkpt lat="49.122594986110926" lon="8.356017926707864">
<ele>104.60000000000002</ele>
<time>2023-05-17T12:38:31Z</time>
</trkpt>
<trkpt lat="49.12262993864715" lon="8.3559849858284">
<ele>104.79999999999995</ele>
<time>2023-05-17T12:38:32Z</time>
</trkpt>
<trkpt lat="49.12266296334565" lon="8.355952966958284">
<ele>105</ele>
<time>2023-05-17T12:38:33Z</time>
</trkpt>
<trkpt lat="49.12269699387252" lon="8.355926983058453">
<ele>105.39999999999998</ele>
<time>2023-05-17T12:38:34Z</time>
</trkpt>
<trkpt lat="49.12273697555065" lon="8.355896975845098">
<ele>105.79999999999995</ele>
<time>2023-05-17T12:38:35Z</time>
</trkpt>
<trkpt lat="49.12277494557202" lon="8.355867974460125">
<ele>106</ele>
<time>2023-05-17T12:38:36Z</time>
</trkpt>
<trkpt lat="49.12282196804881" lon="8.35583696141839">
<ele>106.39999999999998</ele>
<time>2023-05-17T12:38:37Z</time>
</trkpt>
<trkpt lat="49.122877959162" lon="8.355799997225404">
<ele>106.60000000000002</ele>
<time>2023-05-17T12:38:38Z</time>
</trkpt>
<trkpt lat="49.122937973588705" lon="8.355759931728244">
<ele>106.60000000000002</ele>
<time>2023-05-17T12:38:39Z</time>
</trkpt>
<trkpt lat="49.12299497053027" lon="8.355719950050116">
<ele>106.60000000000002</ele>
<time>2023-05-17T12:38:40Z</time>
</trkpt>
<trkpt lat="49.12304995581508" lon="8.355671921744943">
<ele>106.60000000000002</ele>
<time>2023-05-17T12:38:41Z</time>
</trkpt>
<trkpt lat="49.12311298772693" lon="8.355617942288518">
<ele>106.39999999999998</ele>
<time>2023-05-17T12:38:42Z</time>
</trkpt>
<trkpt lat="49.12318699993193" lon="8.355564968660474">
<ele>106.39999999999998</ele>
<time>2023-05-17T12:38:43Z</time>
</trkpt>
<trkpt lat="49.12325497716665" lon="8.35551492869854">
<ele>106.39999999999998</ele>
<time>2023-05-17T12:38:44Z</time>
</trkpt>
<trkpt lat="49.123322954401374" lon="8.355469917878509">
<ele>106.20000000000005</ele>
<time>2023-05-17T12:38:45Z</time>
</trkpt>
<trkpt lat="49.123391937464476" lon="8.35542792454362">
<ele>106.20000000000005</ele>
<time>2023-05-17T12:38:46Z</time>
</trkpt>
<trkpt lat="49.12345798686147" lon="8.355389954522252">
<ele>106</ele>
<time>2023-05-17T12:38:47Z</time>
</trkpt>
<trkpt lat="49.12352495826781" lon="8.355347961187363">
<ele>105.79999999999995</ele>
<time>2023-05-17T12:38:48Z</time>
</trkpt>
<trkpt lat="49.12358799017966" lon="8.355311919003725">
<ele>105.79999999999995</ele>
<time>2023-05-17T12:38:49Z</time>
</trkpt>
<trkpt lat="49.123649932444096" lon="8.355281995609403">
<ele>105.60000000000002</ele>
<time>2023-05-17T12:38:50Z</time>
</trkpt>
<trkpt lat="49.123711958527565" lon="8.355254922062159">
<ele>105.39999999999998</ele>
<time>2023-05-17T12:38:51Z</time>
</trkpt>
<trkpt lat="49.12376996129751" lon="8.355229943990707">
<ele>105.20000000000005</ele>
<time>2023-05-17T12:38:52Z</time>
</trkpt>
<trkpt lat="49.12382796406746" lon="8.355207983404398">
<ele>105</ele>
<time>2023-05-17T12:38:53Z</time>
</trkpt>
<trkpt lat="49.12388697266579" lon="8.355187950655818">
<ele>104.79999999999995</ele>
<time>2023-05-17T12:38:54Z</time>
</trkpt>
<trkpt lat="49.123944975435734" lon="8.355169929564">
<ele>104.60000000000002</ele>
<time>2023-05-17T12:38:55Z</time>
</trkpt>
<trkpt lat="49.12399996072054" lon="8.355151992291212">
<ele>104.39999999999998</ele>
<time>2023-05-17T12:38:56Z</time>
</trkpt>
<trkpt lat="49.124056957662106" lon="8.355129947885871">
<ele>104.39999999999998</ele>
<time>2023-05-17T12:38:57Z</time>
</trkpt>
<trkpt lat="49.12410993129015" lon="8.355107987299562">
<ele>104.20000000000005</ele>
<time>2023-05-17T12:38:58Z</time>
</trkpt>
<trkpt lat="49.124162988737226" lon="8.355086948722601">
<ele>104.20000000000005</ele>
<time>2023-05-17T12:38:59Z</time>
</trkpt>
<trkpt lat="49.12421696819365" lon="8.355066999793053">
<ele>104.20000000000005</ele>
<time>2023-05-17T12:39:00Z</time>
</trkpt>
<trkpt lat="49.124269941821694" lon="8.355044955387712">
<ele>104.20000000000005</ele>
<time>2023-05-17T12:39:01Z</time>
</trkpt>
<trkpt lat="49.12432299926877" lon="8.355022994801402">
<ele>104.20000000000005</ele>
<time>2023-05-17T12:39:02Z</time>
</trkpt>
<trkpt lat="49.124376978725195" lon="8.355002962052822">
<ele>104.20000000000005</ele>
<time>2023-05-17T12:39:03Z</time>
</trkpt>
<trkpt lat="49.12443196401" lon="8.354982929304242">
<ele>104</ele>
<time>2023-05-17T12:39:04Z</time>
</trkpt>
<trkpt lat="49.124486949294806" lon="8.354962980374694">
<ele>104</ele>
<time>2023-05-17T12:39:05Z</time>
</trkpt>
<trkpt lat="49.12453799508512" lon="8.354939930140972">
<ele>104</ele>
<time>2023-05-17T12:39:06Z</time>
</trkpt>
<trkpt lat="49.124589962884784" lon="8.354916963726282">
<ele>104</ele>
<time>2023-05-17T12:39:07Z</time>
</trkpt>
<trkpt lat="49.12464494816959" lon="8.354899948462844">
<ele>103.79999999999995</ele>
<time>2023-05-17T12:39:08Z</time>
</trkpt>
<trkpt lat="49.124696999788284" lon="8.354892991483212">
<ele>103.79999999999995</ele>
<time>2023-05-17T12:39:09Z</time>
</trkpt>
<trkpt lat="49.12474796175957" lon="8.354896930977702">
<ele>103.79999999999995</ele>
<time>2023-05-17T12:39:10Z</time>
</trkpt>
<trkpt lat="49.12479699589312" lon="8.354904977604747">
<ele>103.60000000000002</ele>
<time>2023-05-17T12:39:11Z</time>
</trkpt>
<trkpt lat="49.124847957864404" lon="8.354916963726282">
<ele>103.60000000000002</ele>
<time>2023-05-17T12:39:12Z</time>
</trkpt>
<trkpt lat="49.12489992566407" lon="8.354919981211424">
<ele>103.39999999999998</ele>
<time>2023-05-17T12:39:13Z</time>
</trkpt>
<trkpt lat="49.12495197728276" lon="8.35491193458438">
<ele>103.20000000000005</ele>
<time>2023-05-17T12:39:14Z</time>
</trkpt>
<trkpt lat="49.124999921768904" lon="8.354894919320941">
<ele>103.20000000000005</ele>
<time>2023-05-17T12:39:15Z</time>
</trkpt>
<trkpt lat="49.125042920932174" lon="8.35486994124949">
<ele>103.20000000000005</ele>
<time>2023-05-17T12:39:16Z</time>
</trkpt>
<trkpt lat="49.12507996894419" lon="8.35484798066318">
<ele>103.20000000000005</ele>
<time>2023-05-17T12:39:17Z</time>
</trkpt>
<trkpt lat="49.125106958672404" lon="8.354816967621446">
<ele>103.20000000000005</ele>
<time>2023-05-17T12:39:18Z</time>
</trkpt>
<trkpt lat="49.12511693313718" lon="8.354781931266189">
<ele>103.20000000000005</ele>
<time>2023-05-17T12:39:19Z</time>
</trkpt>
<trkpt lat="49.12511198781431" lon="8.354737926274538">
<ele>103.20000000000005</ele>
<time>2023-05-17T12:39:20Z</time>
</trkpt>
<trkpt lat="49.12509991787374" lon="8.35469693876803">
<ele>103.20000000000005</ele>
<time>2023-05-17T12:39:21Z</time>
</trkpt>
<trkpt lat="49.125086925923824" lon="8.354642959311604">
<ele>103.20000000000005</ele>
<time>2023-05-17T12:39:22Z</time>
</trkpt>
<trkpt lat="49.125066976994276" lon="8.35458998568356">
<ele>103.20000000000005</ele>
<time>2023-05-17T12:39:23Z</time>
</trkpt>
<trkpt lat="49.1250519733876" lon="8.354532988741994">
<ele>103.20000000000005</ele>
<time>2023-05-17T12:39:24Z</time>
</trkpt>
<trkpt lat="49.12502992898226" lon="8.354464927688241">
<ele>103.20000000000005</ele>
<time>2023-05-17T12:39:25Z</time>
</trkpt>
<trkpt lat="49.12500796839595" lon="8.354392927139997">
<ele>103.20000000000005</ele>
<time>2023-05-17T12:39:26Z</time>
</trkpt>
<trkpt lat="49.12498491816223" lon="8.354321932420135">
<ele>103.20000000000005</ele>
<time>2023-05-17T12:39:27Z</time>
</trkpt>
<trkpt lat="49.124957928434014" lon="8.354251943528652">
<ele>103.20000000000005</ele>
<time>2023-05-17T12:39:28Z</time>
</trkpt>
<trkpt lat="49.12493194453418" lon="8.354177931323647">
<ele>103.20000000000005</ele>
<time>2023-05-17T12:39:29Z</time>
</trkpt>
<trkpt lat="49.12490797229111" lon="8.354104924947023">
<ele>103.20000000000005</ele>
<time>2023-05-17T12:39:30Z</time>
</trkpt>
<trkpt lat="49.12488693371415" lon="8.35403292439878">
<ele>103.20000000000005</ele>
<time>2023-05-17T12:39:31Z</time>
</trkpt>
<trkpt lat="49.12486497312784" lon="8.353961929678917">
<ele>103.20000000000005</ele>
<time>2023-05-17T12:39:32Z</time>
</trkpt>
<trkpt lat="49.12484695203602" lon="8.353887917473912">
<ele>103.20000000000005</ele>
<time>2023-05-17T12:39:33Z</time>
</trkpt>
<trkpt lat="49.124829936772585" lon="8.35381692275405">
<ele>103.20000000000005</ele>
<time>2023-05-17T12:39:34Z</time>
</trkpt>
<trkpt lat="49.12481694482267" lon="8.353744922205806">
<ele>103.20000000000005</ele>
<time>2023-05-17T12:39:35Z</time>
</trkpt>
<trkpt lat="49.124804958701134" lon="8.353674933314323">
<ele>103.20000000000005</ele>
<time>2023-05-17T12:39:36Z</time>
</trkpt>
<trkpt lat="49.1247929725796" lon="8.353607961907983">
<ele>103.20000000000005</ele>
<time>2023-05-17T12:39:37Z</time>
</trkpt>
<trkpt lat="49.124782998114824" lon="8.353541996330023">
<ele>103.20000000000005</ele>
<time>2023-05-17T12:39:38Z</time>
</trkpt>
<trkpt lat="49.12476799450815" lon="8.353482987731695">
<ele>103.20000000000005</ele>
<time>2023-05-17T12:39:39Z</time>
</trkpt>
<trkpt lat="49.124739998951554" lon="8.353441916406155">
<ele>103.20000000000005</ele>
<time>2023-05-17T12:39:40Z</time>
</trkpt>
<trkpt lat="49.12470697425306" lon="8.353411993011832">
<ele>103.20000000000005</ele>
<time>2023-05-17T12:39:41Z</time>
</trkpt>
<trkpt lat="49.124676967039704" lon="8.353382991626859">
<ele>103.20000000000005</ele>
<time>2023-05-17T12:39:42Z</time>
</trkpt>
<trkpt lat="49.12464997731149" lon="8.353354996070266">
<ele>103.20000000000005</ele>
<time>2023-05-17T12:39:43Z</time>
</trkpt>
<trkpt lat="49.124634973704815" lon="8.35332297720015">
<ele>103.20000000000005</ele>
<time>2023-05-17T12:39:44Z</time>
</trkpt>
<trkpt lat="49.124634973704815" lon="8.353289952501655">
<ele>103.20000000000005</ele>
<time>2023-05-17T12:39:45Z</time>
</trkpt>
<trkpt lat="49.12465198896825" lon="8.353267991915345">
<ele>103.20000000000005</ele>
<time>2023-05-17T12:39:46Z</time>
</trkpt>
<trkpt lat="49.124677972868085" lon="8.353261956945062">
<ele>103</ele>
<time>2023-05-17T12:39:47Z</time>
</trkpt>
<trkpt lat="49.12470697425306" lon="8.353261956945062">
<ele>103</ele>
<time>2023-05-17T12:39:48Z</time>
</trkpt>
<trkpt lat="49.124739998951554" lon="8.353262962773442">
<ele>103</ele>
<time>2023-05-17T12:39:49Z</time>
</trkpt>
<trkpt lat="49.12477193400264" lon="8.353267991915345">
<ele>103</ele>
<time>2023-05-17T12:39:50Z</time>
</trkpt>
<trkpt lat="49.124804958701134" lon="8.353274948894978">
<ele>103</ele>
<time>2023-05-17T12:39:51Z</time>
</trkpt>
<trkpt lat="49.12484695203602" lon="8.353284923359752">
<ele>103</ele>
<time>2023-05-17T12:39:52Z</time>
</trkpt>
<trkpt lat="49.12488793954253" lon="8.353294981643558">
<ele>103</ele>
<time>2023-05-17T12:39:53Z</time>
</trkpt>
<trkpt lat="49.12493295036256" lon="8.353304956108332">
<ele>103</ele>
<time>2023-05-17T12:39:54Z</time>
</trkpt>
<trkpt lat="49.124976955354214" lon="8.353311996906996">
<ele>103</ele>
<time>2023-05-17T12:39:55Z</time>
</trkpt>
<trkpt lat="49.12501794286072" lon="8.353312918916345">
<ele>103</ele>
<time>2023-05-17T12:39:56Z</time>
</trkpt>
<trkpt lat="49.12506194785237" lon="8.353311996906996">
<ele>103</ele>
<time>2023-05-17T12:39:57Z</time>
</trkpt>
<trkpt lat="49.125106958672404" lon="8.353306967765093">
<ele>103</ele>
<time>2023-05-17T12:39:58Z</time>
</trkpt>
<trkpt lat="49.125151969492435" lon="8.353307973593473">
<ele>103.20000000000005</ele>
<time>2023-05-17T12:39:59Z</time>
</trkpt>
<trkpt lat="49.125194968655705" lon="8.353307973593473">
<ele>103.20000000000005</ele>
<time>2023-05-17T12:40:00Z</time>
</trkpt>
<trkpt lat="49.12523997947574" lon="8.353306967765093">
<ele>103.39999999999998</ele>
<time>2023-05-17T12:40:01Z</time>
</trkpt>
<trkpt lat="49.12528499029577" lon="8.353311996906996">
<ele>103.39999999999998</ele>
<time>2023-05-17T12:40:02Z</time>
</trkpt>
<trkpt lat="49.12532698363066" lon="8.353316942229867">
<ele>103.60000000000002</ele>
<time>2023-05-17T12:40:03Z</time>
</trkpt>
<trkpt lat="49.125366965308785" lon="8.353319959715009">
<ele>103.79999999999995</ele>
<time>2023-05-17T12:40:04Z</time>
</trkpt>
<trkpt lat="49.125406946986914" lon="8.35332197137177">
<ele>103.79999999999995</ele>
<time>2023-05-17T12:40:05Z</time>
</trkpt>
<trkpt lat="49.12544298917055" lon="8.353319959715009">
<ele>104</ele>
<time>2023-05-17T12:40:06Z</time>
</trkpt>
<trkpt lat="49.12547995336354" lon="8.353316942229867">
<ele>104</ele>
<time>2023-05-17T12:40:07Z</time>
</trkpt>
<trkpt lat="49.125514989718795" lon="8.353311996906996">
<ele>104.20000000000005</ele>
<time>2023-05-17T12:40:08Z</time>
</trkpt>
<trkpt lat="49.12554793059826" lon="8.353304956108332">
<ele>104.20000000000005</ele>
<time>2023-05-17T12:40:09Z</time>
</trkpt>
<trkpt lat="49.125581961125135" lon="8.353292969986796">
<ele>104.20000000000005</ele>
<time>2023-05-17T12:40:10Z</time>
</trkpt>
<trkpt lat="49.12561196833849" lon="8.353274948894978">
<ele>104.20000000000005</ele>
<time>2023-05-17T12:40:11Z</time>
</trkpt>
<trkpt lat="49.12563996389508" lon="8.3532599452883">
<ele>104.39999999999998</ele>
<time>2023-05-17T12:40:12Z</time>
</trkpt>
<trkpt lat="49.125666953623295" lon="8.353242930024862">
<ele>104.39999999999998</ele>
<time>2023-05-17T12:40:13Z</time>
</trkpt>
<trkpt lat="49.125689920037985" lon="8.353219963610172">
<ele>104.39999999999998</ele>
<time>2023-05-17T12:40:14Z</time>
</trkpt>
<trkpt lat="49.125707941129804" lon="8.353184927254915">
<ele>104.60000000000002</ele>
<time>2023-05-17T12:40:15Z</time>
</trkpt>
<trkpt lat="49.1257219389081" lon="8.353134971112013">
<ele>104.60000000000002</ele>
<time>2023-05-17T12:40:16Z</time>
</trkpt>
<trkpt lat="49.125727973878384" lon="8.353076968342066">
<ele>104.79999999999995</ele>
<time>2023-05-17T12:40:17Z</time>
</trkpt>
<trkpt lat="49.125734930858016" lon="8.353012930601835">
<ele>104.79999999999995</ele>
<time>2023-05-17T12:40:18Z</time>
</trkpt>
<trkpt lat="49.12573794834316" lon="8.352944953367114">
<ele>104.79999999999995</ele>
<time>2023-05-17T12:40:19Z</time>
</trkpt>
<trkpt lat="49.12573794834316" lon="8.352874964475632">
<ele>104.79999999999995</ele>
<time>2023-05-17T12:40:20Z</time>
</trkpt>
<trkpt lat="49.12573995999992" lon="8.352801958099008">
<ele>104.79999999999995</ele>
<time>2023-05-17T12:40:21Z</time>
</trkpt>
<trkpt lat="49.12573995999992" lon="8.352726940065622">
<ele>105</ele>
<time>2023-05-17T12:40:22Z</time>
</trkpt>
<trkpt lat="49.12573995999992" lon="8.352649994194508">
<ele>105</ele>
<time>2023-05-17T12:40:23Z</time>
</trkpt>
<trkpt lat="49.12574197165668" lon="8.352576987817883">
<ele>105</ele>
<time>2023-05-17T12:40:24Z</time>
</trkpt>
<trkpt lat="49.12574297748506" lon="8.352502975612879">
<ele>105</ele>
<time>2023-05-17T12:40:25Z</time>
</trkpt>
<trkpt lat="49.12574792280793" lon="8.352432986721396">
<ele>105</ele>
<time>2023-05-17T12:40:26Z</time>
</trkpt>
<trkpt lat="49.125751946121454" lon="8.352362997829914">
<ele>105</ele>
<time>2023-05-17T12:40:27Z</time>
</trkpt>
<trkpt lat="49.125751946121454" lon="8.3522929251194">
<ele>105</ele>
<time>2023-05-17T12:40:28Z</time>
</trkpt>
<trkpt lat="49.125751946121454" lon="8.352222936227918">
<ele>105</ele>
<time>2023-05-17T12:40:29Z</time>
</trkpt>
<trkpt lat="49.125752951949835" lon="8.352152947336435">
<ele>105</ele>
<time>2023-05-17T12:40:30Z</time>
</trkpt>
<trkpt lat="49.12575798109174" lon="8.352082958444953">
<ele>105</ele>
<time>2023-05-17T12:40:31Z</time>
</trkpt>
<trkpt lat="49.1257599927485" lon="8.352014981210232">
<ele>105</ele>
<time>2023-05-17T12:40:32Z</time>
</trkpt>
<trkpt lat="49.1257599927485" lon="8.351946920156479">
<ele>105</ele>
<time>2023-05-17T12:40:33Z</time>
</trkpt>
<trkpt lat="49.125754963606596" lon="8.351876931264997">
<ele>105</ele>
<time>2023-05-17T12:40:34Z</time>
</trkpt>
<trkpt lat="49.125751946121454" lon="8.351802919059992">
<ele>105</ele>
<time>2023-05-17T12:40:35Z</time>
</trkpt>
<trkpt lat="49.12574691697955" lon="8.351727984845638">
<ele>104.79999999999995</ele>
<time>2023-05-17T12:40:36Z</time>
</trkpt>
<trkpt lat="49.12574297748506" lon="8.351656990125775">
<ele>104.79999999999995</ele>
<time>2023-05-17T12:40:37Z</time>
</trkpt>
<trkpt lat="49.12574498914182" lon="8.351584989577532">
<ele>104.79999999999995</ele>
<time>2023-05-17T12:40:38Z</time>
</trkpt>
<trkpt lat="49.12574691697955" lon="8.351511983200908">
<ele>104.79999999999995</ele>
<time>2023-05-17T12:40:39Z</time>
</trkpt>
<trkpt lat="49.12574691697955" lon="8.351436965167522">
<ele>104.79999999999995</ele>
<time>2023-05-17T12:40:40Z</time>
</trkpt>
<trkpt lat="49.125751946121454" lon="8.351361947134137">
<ele>104.79999999999995</ele>
<time>2023-05-17T12:40:41Z</time>
</trkpt>
<trkpt lat="49.12575798109174" lon="8.351282989606261">
<ele>104.79999999999995</ele>
<time>2023-05-17T12:40:42Z</time>
</trkpt>
<trkpt lat="49.12576192058623" lon="8.351209983229637">
<ele>104.79999999999995</ele>
<time>2023-05-17T12:40:43Z</time>
</trkpt>
<trkpt lat="49.12576292641461" lon="8.35113194771111">
<ele>104.79999999999995</ele>
<time>2023-05-17T12:40:44Z</time>
</trkpt>
<trkpt lat="49.12576694972813" lon="8.351052990183234">
<ele>104.79999999999995</ele>
<time>2023-05-17T12:40:45Z</time>
</trkpt>
<trkpt lat="49.12576996721327" lon="8.350971937179565">
<ele>104.79999999999995</ele>
<time>2023-05-17T12:40:46Z</time>
</trkpt>
<trkpt lat="49.125771978870034" lon="8.35089297965169">
<ele>104.79999999999995</ele>
<time>2023-05-17T12:40:47Z</time>
</trkpt>
<trkpt lat="49.125774996355176" lon="8.350812932476401">
<ele>104.79999999999995</ele>
<time>2023-05-17T12:40:48Z</time>
</trkpt>
<trkpt lat="49.125776924192905" lon="8.350731963291764">
<ele>104.79999999999995</ele>
<time>2023-05-17T12:40:49Z</time>
</trkpt>
<trkpt lat="49.12578195333481" lon="8.350651999935508">
<ele>104.79999999999995</ele>
<time>2023-05-17T12:40:50Z</time>
</trkpt>
<trkpt lat="49.12578295916319" lon="8.350569941103458">
<ele>104.79999999999995</ele>
<time>2023-05-17T12:40:51Z</time>
</trkpt>
<trkpt lat="49.12578295916319" lon="8.350484948605299">
<ele>104.79999999999995</ele>
<time>2023-05-17T12:40:52Z</time>
</trkpt>
<trkpt lat="49.12578497081995" lon="8.350402973592281">
<ele>104.79999999999995</ele>
<time>2023-05-17T12:40:53Z</time>
</trkpt>
<trkpt lat="49.12578698247671" lon="8.350321920588613">
<ele>104.79999999999995</ele>
<time>2023-05-17T12:40:54Z</time>
</trkpt>
<trkpt lat="49.12578999996185" lon="8.350239945575595">
<ele>104.79999999999995</ele>
<time>2023-05-17T12:40:55Z</time>
</trkpt>
<trkpt lat="49.12578798830509" lon="8.350156964734197">
<ele>104.79999999999995</ele>
<time>2023-05-17T12:40:56Z</time>
</trkpt>
<trkpt lat="49.12578698247671" lon="8.350074989721179">
<ele>104.79999999999995</ele>
<time>2023-05-17T12:40:57Z</time>
</trkpt>
<trkpt lat="49.12578295916319" lon="8.34999293088913">
<ele>104.79999999999995</ele>
<time>2023-05-17T12:40:58Z</time>
</trkpt>
<trkpt lat="49.12578195333481" lon="8.349912967532873">
<ele>104.79999999999995</ele>
<time>2023-05-17T12:40:59Z</time>
</trkpt>
<trkpt lat="49.125777930021286" lon="8.349836943671107">
<ele>104.79999999999995</ele>
<time>2023-05-17T12:41:00Z</time>
</trkpt>
<trkpt lat="49.125777930021286" lon="8.349761925637722">
<ele>104.79999999999995</ele>
<time>2023-05-17T12:41:01Z</time>
</trkpt>
<trkpt lat="49.125776924192905" lon="8.349687997251749">
<ele>104.79999999999995</ele>
<time>2023-05-17T12:41:02Z</time>
</trkpt>
<trkpt lat="49.125774996355176" lon="8.349611973389983">
<ele>104.79999999999995</ele>
<time>2023-05-17T12:41:03Z</time>
</trkpt>
<trkpt lat="49.125774996355176" lon="8.349536955356598">
<ele>104.79999999999995</ele>
<time>2023-05-17T12:41:04Z</time>
</trkpt>
<trkpt lat="49.125774996355176" lon="8.349461937323213">
<ele>104.79999999999995</ele>
<time>2023-05-17T12:41:05Z</time>
</trkpt>
<trkpt lat="49.125772984698415" lon="8.349387925118208">
<ele>104.79999999999995</ele>
<time>2023-05-17T12:41:06Z</time>
</trkpt>
<trkpt lat="49.125772984698415" lon="8.349316930398345">
<ele>104.79999999999995</ele>
<time>2023-05-17T12:41:07Z</time>
</trkpt>
<trkpt lat="49.125776924192905" lon="8.34924291819334">
<ele>104.79999999999995</ele>
<time>2023-05-17T12:41:08Z</time>
</trkpt>
<trkpt lat="49.12578295916319" lon="8.349169995635748">
<ele>104.79999999999995</ele>
<time>2023-05-17T12:41:09Z</time>
</trkpt>
<trkpt lat="49.12578798830509" lon="8.349092965945601">
<ele>104.79999999999995</ele>
<time>2023-05-17T12:41:10Z</time>
</trkpt>
<trkpt lat="49.12578999996185" lon="8.349016942083836">
<ele>104.79999999999995</ele>
<time>2023-05-17T12:41:11Z</time>
</trkpt>
<trkpt lat="49.12578798830509" lon="8.34893999621272">
<ele>104.79999999999995</ele>
<time>2023-05-17T12:41:12Z</time>
</trkpt>
<trkpt lat="49.12578999996185" lon="8.348866989836097">
<ele>104.79999999999995</ele>
<time>2023-05-17T12:41:13Z</time>
</trkpt>
<trkpt lat="49.12578999996185" lon="8.34878996014595">
<ele>104.79999999999995</ele>
<time>2023-05-17T12:41:14Z</time>
</trkpt>
<trkpt lat="49.12578798830509" lon="8.348712930455804">
<ele>104.79999999999995</ele>
<time>2023-05-17T12:41:15Z</time>
</trkpt>
<trkpt lat="49.12578798830509" lon="8.34863699041307">
<ele>104.79999999999995</ele>
<time>2023-05-17T12:41:16Z</time>
</trkpt>
<trkpt lat="49.12578295916319" lon="8.348556943237782">
<ele>104.60000000000002</ele>
<time>2023-05-17T12:41:17Z</time>
</trkpt>
<trkpt lat="49.125777930021286" lon="8.348474968224764">
<ele>104.60000000000002</ele>
<time>2023-05-17T12:41:18Z</time>
</trkpt>
<trkpt lat="49.125774996355176" lon="8.348394921049476">
<ele>104.60000000000002</ele>
<time>2023-05-17T12:41:19Z</time>
</trkpt>
<trkpt lat="49.125774996355176" lon="8.348317975178361">
<ele>104.60000000000002</ele>
<time>2023-05-17T12:41:20Z</time>
</trkpt>
<trkpt lat="49.12577994167805" lon="8.34825293160975">
<ele>104.39999999999998</ele>
<time>2023-05-17T12:41:21Z</time>
</trkpt>
<trkpt lat="49.12578497081995" lon="8.348201969638467">
<ele>104.39999999999998</ele>
<time>2023-05-17T12:41:22Z</time>
</trkpt>
<trkpt lat="49.12578497081995" lon="8.348161987960339">
<ele>104.39999999999998</ele>
<time>2023-05-17T12:41:23Z</time>
</trkpt>
<trkpt lat="49.12578798830509" lon="8.348129969090223">
<ele>104.39999999999998</ele>
<time>2023-05-17T12:41:24Z</time>
</trkpt>
<trkpt lat="49.125794945284724" lon="8.348104991018772">
<ele>104.20000000000005</ele>
<time>2023-05-17T12:41:25Z</time>
</trkpt>
<trkpt lat="49.125796956941485" lon="8.348084958270192">
<ele>104.20000000000005</ele>
<time>2023-05-17T12:41:26Z</time>
</trkpt>
<trkpt lat="49.12579997442663" lon="8.348066937178373">
<ele>104.20000000000005</ele>
<time>2023-05-17T12:41:27Z</time>
</trkpt>
<trkpt lat="49.12580299191177" lon="8.348046988248825">
<ele>104.20000000000005</ele>
<time>2023-05-17T12:41:28Z</time>
</trkpt>
<trkpt lat="49.12580299191177" lon="8.348029972985387">
<ele>104.20000000000005</ele>
<time>2023-05-17T12:41:29Z</time>
</trkpt>
<trkpt lat="49.12580299191177" lon="8.348011951893568">
<ele>104</ele>
<time>2023-05-17T12:41:30Z</time>
</trkpt>
<trkpt lat="49.12580299191177" lon="8.347986973822117">
<ele>104</ele>
<time>2023-05-17T12:41:31Z</time>
</trkpt>
<trkpt lat="49.1258049197495" lon="8.347954954952002">
<ele>104</ele>
<time>2023-05-17T12:41:32Z</time>
</trkpt>
<trkpt lat="49.12580299191177" lon="8.347922936081886">
<ele>104</ele>
<time>2023-05-17T12:41:33Z</time>
</trkpt>
<trkpt lat="49.1258049197495" lon="8.347887983545661">
<ele>104</ele>
<time>2023-05-17T12:41:34Z</time>
</trkpt>
<trkpt lat="49.12580299191177" lon="8.347849929705262">
<ele>104</ele>
<time>2023-05-17T12:41:35Z</time>
</trkpt>
<trkpt lat="49.12580693140626" lon="8.347811959683895">
<ele>104</ele>
<time>2023-05-17T12:41:36Z</time>
</trkpt>
<trkpt lat="49.125816989690065" lon="8.347771978005767">
<ele>104</ele>
<time>2023-05-17T12:41:37Z</time>
</trkpt>
<trkpt lat="49.12582796998322" lon="8.347726967185736">
<ele>104</ele>
<time>2023-05-17T12:41:38Z</time>
</trkpt>
<trkpt lat="49.125839956104755" lon="8.347679944708943">
<ele>104</ele>
<time>2023-05-17T12:41:39Z</time>
</trkpt>
<trkpt lat="49.12585194222629" lon="8.347629988566041">
<ele>104</ele>
<time>2023-05-17T12:41:40Z</time>
</trkpt>
<trkpt lat="49.125859988853335" lon="8.347577936947346">
<ele>104</ele>
<time>2023-05-17T12:41:41Z</time>
</trkpt>
<trkpt lat="49.12586996331811" lon="8.34752194583416">
<ele>104</ele>
<time>2023-05-17T12:41:42Z</time>
</trkpt>
<trkpt lat="49.125881949439645" lon="8.347467966377735">
<ele>103.79999999999995</ele>
<time>2023-05-17T12:41:43Z</time>
</trkpt>
<trkpt lat="49.12589494138956" lon="8.34741298109293">
<ele>103.79999999999995</ele>
<time>2023-05-17T12:41:44Z</time>
</trkpt>
<trkpt lat="49.12590793333948" lon="8.347357995808125">
<ele>103.79999999999995</ele>
<time>2023-05-17T12:41:45Z</time>
</trkpt>
<trkpt lat="49.125922936946154" lon="8.34730695001781">
<ele>103.79999999999995</ele>
<time>2023-05-17T12:41:46Z</time>
</trkpt>
<trkpt lat="49.12593492306769" lon="8.347256993874907">
<ele>103.79999999999995</ele>
<time>2023-05-17T12:41:47Z</time>
</trkpt>
<trkpt lat="49.12594799883664" lon="8.34720192477107">
<ele>104</ele>
<time>2023-05-17T12:41:48Z</time>
</trkpt>
<trkpt lat="49.12596291862428" lon="8.347139982506633">
<ele>104</ele>
<time>2023-05-17T12:41:49Z</time>
</trkpt>
<trkpt lat="49.12597691640258" lon="8.347076950594783">
<ele>104</ele>
<time>2023-05-17T12:41:50Z</time>
</trkpt>
<trkpt lat="49.125989992171526" lon="8.347001932561398">
<ele>104</ele>
<time>2023-05-17T12:41:51Z</time>
</trkpt>
<trkpt lat="49.1260049957782" lon="8.346924986690283">
<ele>104</ele>
<time>2023-05-17T12:41:52Z</time>
</trkpt>
<trkpt lat="49.12602293305099" lon="8.3468549977988">
<ele>104</ele>
<time>2023-05-17T12:41:53Z</time>
</trkpt>
<trkpt lat="49.12604296579957" lon="8.346781991422176">
<ele>104</ele>
<time>2023-05-17T12:41:54Z</time>
</trkpt>
<trkpt lat="49.12606199271977" lon="8.346702950075269">
<ele>104</ele>
<time>2023-05-17T12:41:55Z</time>
</trkpt>
<trkpt lat="49.126077918335795" lon="8.346631955355406">
<ele>104</ele>
<time>2023-05-17T12:41:56Z</time>
</trkpt>
<trkpt lat="49.126094933599234" lon="8.346559954807162">
<ele>104</ele>
<time>2023-05-17T12:41:57Z</time>
</trkpt>
<trkpt lat="49.12611194886267" lon="8.346487954258919">
<ele>104</ele>
<time>2023-05-17T12:41:58Z</time>
</trkpt>
<trkpt lat="49.12612795829773" lon="8.346419977024198">
<ele>104</ele>
<time>2023-05-17T12:41:59Z</time>
</trkpt>
<trkpt lat="49.12614296190441" lon="8.346347976475954">
<ele>104</ele>
<time>2023-05-17T12:42:00Z</time>
</trkpt>
<trkpt lat="49.1261569596827" lon="8.346282932907343">
<ele>104</ele>
<time>2023-05-17T12:42:01Z</time>
</trkpt>
<trkpt lat="49.12616995163262" lon="8.346217973157763">
<ele>104</ele>
<time>2023-05-17T12:42:02Z</time>
</trkpt>
<trkpt lat="49.126184955239296" lon="8.346151923760772">
<ele>104</ele>
<time>2023-05-17T12:42:03Z</time>
</trkpt>
<trkpt lat="49.12619995884597" lon="8.346087969839573">
<ele>104</ele>
<time>2023-05-17T12:42:04Z</time>
</trkpt>
<trkpt lat="49.12621697410941" lon="8.346029967069626">
<ele>104</ele>
<time>2023-05-17T12:42:05Z</time>
</trkpt>
<trkpt lat="49.12623298354447" lon="8.345967940986156">
<ele>104</ele>
<time>2023-05-17T12:42:06Z</time>
</trkpt>
<trkpt lat="49.126247987151146" lon="8.345901975408196">
<ele>104</ele>
<time>2023-05-17T12:42:07Z</time>
</trkpt>
<trkpt lat="49.12626491859555" lon="8.345832992345095">
<ele>104</ele>
<time>2023-05-17T12:42:08Z</time>
</trkpt>
<trkpt lat="49.12628193385899" lon="8.345767948776484">
<ele>104</ele>
<time>2023-05-17T12:42:09Z</time>
</trkpt>
<trkpt lat="49.12629794329405" lon="8.345702989026904">
<ele>104</ele>
<time>2023-05-17T12:42:10Z</time>
</trkpt>
<trkpt lat="49.126309929415584" lon="8.34563291631639">
<ele>104</ele>
<time>2023-05-17T12:42:11Z</time>
</trkpt>
<trkpt lat="49.12631998769939" lon="8.34556695073843">
<ele>104</ele>
<time>2023-05-17T12:42:12Z</time>
</trkpt>
<trkpt lat="49.126329962164164" lon="8.34549997933209">
<ele>104</ele>
<time>2023-05-17T12:42:13Z</time>
</trkpt>
<trkpt lat="49.12634295411408" lon="8.34543694742024">
<ele>104</ele>
<time>2023-05-17T12:42:14Z</time>
</trkpt>
<trkpt lat="49.126354940235615" lon="8.34537198767066">
<ele>104</ele>
<time>2023-05-17T12:42:15Z</time>
</trkpt>
<trkpt lat="49.12636793218553" lon="8.345306944102049">
<ele>104</ele>
<time>2023-05-17T12:42:16Z</time>
</trkpt>
<trkpt lat="49.12638494744897" lon="8.345239972695708">
<ele>104</ele>
<time>2023-05-17T12:42:17Z</time>
</trkpt>
<trkpt lat="49.12640196271241" lon="8.345171995460987">
<ele>104.20000000000005</ele>
<time>2023-05-17T12:42:18Z</time>
</trkpt>
<trkpt lat="49.126419983804226" lon="8.345102928578854">
<ele>104.20000000000005</ele>
<time>2023-05-17T12:42:19Z</time>
</trkpt>
<trkpt lat="49.126436999067664" lon="8.345034951344132">
<ele>104.20000000000005</ele>
<time>2023-05-17T12:42:20Z</time>
</trkpt>
<trkpt lat="49.12645292468369" lon="8.344966974109411">
<ele>104.20000000000005</ele>
<time>2023-05-17T12:42:21Z</time>
</trkpt>
<trkpt lat="49.12646692246199" lon="8.344899918884039">
<ele>104.20000000000005</ele>
<time>2023-05-17T12:42:22Z</time>
</trkpt>
<trkpt lat="49.126481926068664" lon="8.344832947477698">
<ele>104.20000000000005</ele>
<time>2023-05-17T12:42:23Z</time>
</trkpt>
<trkpt lat="49.12649793550372" lon="8.34476999938488">
<ele>104.20000000000005</ele>
<time>2023-05-17T12:42:24Z</time>
</trkpt>
<trkpt lat="49.1265129391104" lon="8.344709984958172">
<ele>104</ele>
<time>2023-05-17T12:42:25Z</time>
</trkpt>
<trkpt lat="49.12652995437384" lon="8.344649970531464">
<ele>104</ele>
<time>2023-05-17T12:42:26Z</time>
</trkpt>
<trkpt lat="49.12654998712242" lon="8.344591967761517">
<ele>104</ele>
<time>2023-05-17T12:42:27Z</time>
</trkpt>
<trkpt lat="49.126567924395204" lon="8.344536982476711">
<ele>104</ele>
<time>2023-05-17T12:42:28Z</time>
</trkpt>
<trkpt lat="49.1265869513154" lon="8.344481997191906">
<ele>104</ele>
<time>2023-05-17T12:42:29Z</time>
</trkpt>
<trkpt lat="49.12660497240722" lon="8.34442793391645">
<ele>104</ele>
<time>2023-05-17T12:42:30Z</time>
</trkpt>
<trkpt lat="49.12662198767066" lon="8.344372948631644">
<ele>104</ele>
<time>2023-05-17T12:42:31Z</time>
</trkpt>
<trkpt lat="49.12664193660021" lon="8.3443199750036">
<ele>104</ele>
<time>2023-05-17T12:42:32Z</time>
</trkpt>
<trkpt lat="49.12665995769203" lon="8.344262978062034">
<ele>104</ele>
<time>2023-05-17T12:42:33Z</time>
</trkpt>
<trkpt lat="49.126677978783846" lon="8.344201957806945">
<ele>104</ele>
<time>2023-05-17T12:42:34Z</time>
</trkpt>
<trkpt lat="49.126694994047284" lon="8.344142949208617">
<ele>104</ele>
<time>2023-05-17T12:42:35Z</time>
</trkpt>
<trkpt lat="49.12671192549169" lon="8.344082934781909">
<ele>104</ele>
<time>2023-05-17T12:42:36Z</time>
</trkpt>
<trkpt lat="49.12672994658351" lon="8.344024932011962">
<ele>104</ele>
<time>2023-05-17T12:42:37Z</time>
</trkpt>
<trkpt lat="49.12674696184695" lon="8.343966929242015">
<ele>104</ele>
<time>2023-05-17T12:42:38Z</time>
</trkpt>
<trkpt lat="49.12676498293877" lon="8.343906998634338">
<ele>104</ele>
<time>2023-05-17T12:42:39Z</time>
</trkpt>
<trkpt lat="49.126782920211554" lon="8.343844972550869">
<ele>104</ele>
<time>2023-05-17T12:42:40Z</time>
</trkpt>
<trkpt lat="49.12680194713175" lon="8.343789987266064">
<ele>104</ele>
<time>2023-05-17T12:42:41Z</time>
</trkpt>
<trkpt lat="49.12681795656681" lon="8.343736929818988">
<ele>104</ele>
<time>2023-05-17T12:42:42Z</time>
</trkpt>
<trkpt lat="49.12683296017349" lon="8.343682950362563">
<ele>104</ele>
<time>2023-05-17T12:42:43Z</time>
</trkpt>
<trkpt lat="49.12683497183025" lon="8.34363198839128">
<ele>104</ele>
<time>2023-05-17T12:42:44Z</time>
</trkpt>
<trkpt lat="49.12682298570871" lon="8.343584965914488">
<ele>104</ele>
<time>2023-05-17T12:42:45Z</time>
</trkpt>
<trkpt lat="49.12679691798985" lon="8.34354498423636">
<ele>104</ele>
<time>2023-05-17T12:42:46Z</time>
</trkpt>
<trkpt lat="49.12676498293877" lon="8.343512965366244">
<ele>104</ele>
<time>2023-05-17T12:42:47Z</time>
</trkpt>
<trkpt lat="49.12673195824027" lon="8.343486981466413">
<ele>104</ele>
<time>2023-05-17T12:42:48Z</time>
</trkpt>
<trkpt lat="49.126694994047284" lon="8.343466948717833">
<ele>104</ele>
<time>2023-05-17T12:42:49Z</time>
</trkpt>
<trkpt lat="49.126657946035266" lon="8.343441970646381">
<ele>104</ele>
<time>2023-05-17T12:42:50Z</time>
</trkpt>
<trkpt lat="49.12662693299353" lon="8.343409951776266">
<ele>104</ele>
<time>2023-05-17T12:42:51Z</time>
</trkpt>
<trkpt lat="49.12659298628569" lon="8.34337793290615">
<ele>104</ele>
<time>2023-05-17T12:42:52Z</time>
</trkpt>
<trkpt lat="49.12655694410205" lon="8.343342980369925">
<ele>104</ele>
<time>2023-05-17T12:42:53Z</time>
</trkpt>
<trkpt lat="49.12651696242392" lon="8.34330995567143">
<ele>104</ele>
<time>2023-05-17T12:42:54Z</time>
</trkpt>
<trkpt lat="49.12647496908903" lon="8.343277936801314">
<ele>104</ele>
<time>2023-05-17T12:42:55Z</time>
</trkpt>
<trkpt lat="49.126441944390535" lon="8.343242984265089">
<ele>104</ele>
<time>2023-05-17T12:42:56Z</time>
</trkpt>
<trkpt lat="49.12640799768269" lon="8.343206942081451">
<ele>104</ele>
<time>2023-05-17T12:42:57Z</time>
</trkpt>
<trkpt lat="49.126376984640956" lon="8.34316193126142">
<ele>104</ele>
<time>2023-05-17T12:42:58Z</time>
</trkpt>
<trkpt lat="49.126349994912744" lon="8.343116920441389">
<ele>104</ele>
<time>2023-05-17T12:42:59Z</time>
</trkpt>
<trkpt lat="49.12633499130607" lon="8.343057995662093">
<ele>104</ele>
<time>2023-05-17T12:43:00Z</time>
</trkpt>
<trkpt lat="49.126332979649305" lon="8.342999992892146">
<ele>104</ele>
<time>2023-05-17T12:43:01Z</time>
</trkpt>
<trkpt lat="49.12634295411408" lon="8.34294299595058">
<ele>104</ele>
<time>2023-05-17T12:43:02Z</time>
</trkpt>
<trkpt lat="49.12635996937752" lon="8.342887926846743">
<ele>104</ele>
<time>2023-05-17T12:43:03Z</time>
</trkpt>
<trkpt lat="49.12637799046934" lon="8.34283696487546">
<ele>104</ele>
<time>2023-05-17T12:43:04Z</time>
</trkpt>
<trkpt lat="49.12639492191374" lon="8.342779967933893">
<ele>104</ele>
<time>2023-05-17T12:43:05Z</time>
</trkpt>
<trkpt lat="49.126417972147465" lon="8.342727916315198">
<ele>104</ele>
<time>2023-05-17T12:43:06Z</time>
</trkpt>
<trkpt lat="49.126439932733774" lon="8.342682989314198">
<ele>104</ele>
<time>2023-05-17T12:43:07Z</time>
</trkpt>
<trkpt lat="49.126461977139115" lon="8.342634961009026">
<ele>104</ele>
<time>2023-05-17T12:43:08Z</time>
</trkpt>
<trkpt lat="49.126482931897044" lon="8.342589950188994">
<ele>104</ele>
<time>2023-05-17T12:43:09Z</time>
</trkpt>
<trkpt lat="49.126504976302385" lon="8.342544939368963">
<ele>104</ele>
<time>2023-05-17T12:43:10Z</time>
</trkpt>
<trkpt lat="49.126527942717075" lon="8.342497916892171">
<ele>104</ele>
<time>2023-05-17T12:43:11Z</time>
</trkpt>
<trkpt lat="49.12654998712242" lon="8.342452989891171">
<ele>104.20000000000005</ele>
<time>2023-05-17T12:43:12Z</time>
</trkpt>
<trkpt lat="49.126567924395204" lon="8.34240697324276">
<ele>104.20000000000005</ele>
<time>2023-05-17T12:43:13Z</time>
</trkpt>
<trkpt lat="49.1265869513154" lon="8.342357939109206">
<ele>104.20000000000005</ele>
<time>2023-05-17T12:43:14Z</time>
</trkpt>
<trkpt lat="49.12660497240722" lon="8.342311922460794">
<ele>104.20000000000005</ele>
<time>2023-05-17T12:43:15Z</time>
</trkpt>
<trkpt lat="49.12662299349904" lon="8.342264983803034">
<ele>104.20000000000005</ele>
<time>2023-05-17T12:43:16Z</time>
</trkpt>
<trkpt lat="49.12664294242859" lon="8.342212932184339">
<ele>104.20000000000005</ele>
<time>2023-05-17T12:43:17Z</time>
</trkpt>
<trkpt lat="49.126657946035266" lon="8.342166999354959">
<ele>104.20000000000005</ele>
<time>2023-05-17T12:43:18Z</time>
</trkpt>
<trkpt lat="49.1266699321568" lon="8.342121988534927">
<ele>104.20000000000005</ele>
<time>2023-05-17T12:43:19Z</time>
</trkpt>
<trkpt lat="49.12668191827834" lon="8.342076977714896">
<ele>104.39999999999998</ele>
<time>2023-05-17T12:43:20Z</time>
</trkpt>
<trkpt lat="49.12668996490538" lon="8.342034984380007">
<ele>104.39999999999998</ele>
<time>2023-05-17T12:43:21Z</time>
</trkpt>
<trkpt lat="49.126694994047284" lon="8.341997936367989">
<ele>104.39999999999998</ele>
<time>2023-05-17T12:43:22Z</time>
</trkpt>
<trkpt lat="49.12670195102692" lon="8.341949991881847">
<ele>104.39999999999998</ele>
<time>2023-05-17T12:43:23Z</time>
</trkpt>
<trkpt lat="49.1267079859972" lon="8.341896934434772">
<ele>104.39999999999998</ele>
<time>2023-05-17T12:43:24Z</time>
</trkpt>
<trkpt lat="49.12671494297683" lon="8.34184798412025">
<ele>104.39999999999998</ele>
<time>2023-05-17T12:43:25Z</time>
</trkpt>
<trkpt lat="49.1267219837755" lon="8.341801967471838">
<ele>104.60000000000002</ele>
<time>2023-05-17T12:43:26Z</time>
</trkpt>
<trkpt lat="49.12673296406865" lon="8.341754944995046">
<ele>104.60000000000002</ele>
<time>2023-05-17T12:43:27Z</time>
</trkpt>
<trkpt lat="49.12673698738217" lon="8.341707922518253">
<ele>104.60000000000002</ele>
<time>2023-05-17T12:43:28Z</time>
</trkpt>
<trkpt lat="49.126742938533425" lon="8.341662995517254">
<ele>104.60000000000002</ele>
<time>2023-05-17T12:43:29Z</time>
</trkpt>
<trkpt lat="49.12674796767533" lon="8.341617984697223">
<ele>104.60000000000002</ele>
<time>2023-05-17T12:43:30Z</time>
</trkpt>
<trkpt lat="49.1267579421401" lon="8.341562999412417">
<ele>104.79999999999995</ele>
<time>2023-05-17T12:43:31Z</time>
</trkpt>
<trkpt lat="49.12676992826164" lon="8.34150499664247">
<ele>104.79999999999995</ele>
<time>2023-05-17T12:43:32Z</time>
</trkpt>
<trkpt lat="49.1267719399184" lon="8.341456968337297">
<ele>104.79999999999995</ele>
<time>2023-05-17T12:43:33Z</time>
</trkpt>
<trkpt lat="49.12678996101022" lon="8.341402988880873">
<ele>104.79999999999995</ele>
<time>2023-05-17T12:43:34Z</time>
</trkpt>
<trkpt lat="49.12681493908167" lon="8.341342974454165">
<ele>105</ele>
<time>2023-05-17T12:43:35Z</time>
</trkpt>
<trkpt lat="49.12684192880988" lon="8.34128798916936">
<ele>105</ele>
<time>2023-05-17T12:43:36Z</time>
</trkpt>
<trkpt lat="49.126871936023235" lon="8.341232920065522">
<ele>105</ele>
<time>2023-05-17T12:43:37Z</time>
</trkpt>
<trkpt lat="49.12690496072173" lon="8.341166954487562">
<ele>105</ele>
<time>2023-05-17T12:43:38Z</time>
</trkpt>
<trkpt lat="49.12693999707699" lon="8.34109696559608">
<ele>105</ele>
<time>2023-05-17T12:43:39Z</time>
</trkpt>
<trkpt lat="49.12697494961321" lon="8.34103292785585">
<ele>105.20000000000005</ele>
<time>2023-05-17T12:43:40Z</time>
</trkpt>
<trkpt lat="49.12701199762523" lon="8.340959921479225">
<ele>105.20000000000005</ele>
<time>2023-05-17T12:43:41Z</time>
</trkpt>
<trkpt lat="49.127042926847935" lon="8.340901918709278">
<ele>105.20000000000005</ele>
<time>2023-05-17T12:43:42Z</time>
</trkpt>
<trkpt lat="49.12707293406129" lon="8.340849950909615">
<ele>105.20000000000005</ele>
<time>2023-05-17T12:43:43Z</time>
</trkpt>
<trkpt lat="49.12709699012339" lon="8.340806951746345">
<ele>105.20000000000005</ele>
<time>2023-05-17T12:43:44Z</time>
</trkpt>
<trkpt lat="49.12711995653808" lon="8.340762946754694">
<ele>105.20000000000005</ele>
<time>2023-05-17T12:43:45Z</time>
</trkpt>
<trkpt lat="49.127149963751435" lon="8.340707961469889">
<ele>105.20000000000005</ele>
<time>2023-05-17T12:43:46Z</time>
</trkpt>
<trkpt lat="49.12717695347965" lon="8.340654987841845">
<ele>105.39999999999998</ele>
<time>2023-05-17T12:43:47Z</time>
</trkpt>
<trkpt lat="49.12720494903624" lon="8.34060494787991">
<ele>105.39999999999998</ele>
<time>2023-05-17T12:43:48Z</time>
</trkpt>
<trkpt lat="49.12723294459283" lon="8.340552980080247">
<ele>105.39999999999998</ele>
<time>2023-05-17T12:43:49Z</time>
</trkpt>
<trkpt lat="49.127259934321046" lon="8.340496988967061">
<ele>105.39999999999998</ele>
<time>2023-05-17T12:43:50Z</time>
</trkpt>
<trkpt lat="49.12728692404926" lon="8.340437980368733">
<ele>105.39999999999998</ele>
<time>2023-05-17T12:43:51Z</time>
</trkpt>
<trkpt lat="49.12731299176812" lon="8.340377965942025">
<ele>105.39999999999998</ele>
<time>2023-05-17T12:43:52Z</time>
</trkpt>
<trkpt lat="49.127341993153095" lon="8.340319963172078">
<ele>105.39999999999998</ele>
<time>2023-05-17T12:43:53Z</time>
</trkpt>
<trkpt lat="49.12738197483122" lon="8.34025994874537">
<ele>105.39999999999998</ele>
<time>2023-05-17T12:43:54Z</time>
</trkpt>
<trkpt lat="49.127409970387816" lon="8.340207980945706">
<ele>105.60000000000002</ele>
<time>2023-05-17T12:43:55Z</time>
</trkpt>
<trkpt lat="49.12743796594441" lon="8.34014997817576">
<ele>105.60000000000002</ele>
<time>2023-05-17T12:43:56Z</time>
</trkpt>
<trkpt lat="49.12746193818748" lon="8.340094992890954">
<ele>105.60000000000002</ele>
<time>2023-05-17T12:43:57Z</time>
</trkpt>
<trkpt lat="49.12748993374407" lon="8.340036990121007">
<ele>105.60000000000002</ele>
<time>2023-05-17T12:43:58Z</time>
</trkpt>
<trkpt lat="49.12752195261419" lon="8.33998192101717">
<ele>105.60000000000002</ele>
<time>2023-05-17T12:43:59Z</time>
</trkpt>
<trkpt lat="49.12755195982754" lon="8.339924924075603">
<ele>105.60000000000002</ele>
<time>2023-05-17T12:44:00Z</time>
</trkpt>
<trkpt lat="49.1275869961828" lon="8.339866921305656">
<ele>105.60000000000002</ele>
<time>2023-05-17T12:44:01Z</time>
</trkpt>
<trkpt lat="49.12761691957712" lon="8.339817970991135">
<ele>105.60000000000002</ele>
<time>2023-05-17T12:44:02Z</time>
</trkpt>
<trkpt lat="49.1276369523257" lon="8.339776983484626">
<ele>105.60000000000002</ele>
<time>2023-05-17T12:44:03Z</time>
</trkpt>
<trkpt lat="49.12765799090266" lon="8.339736917987466">
<ele>105.60000000000002</ele>
<time>2023-05-17T12:44:04Z</time>
</trkpt>
<trkpt lat="49.127667965367436" lon="8.339707916602492">
<ele>105.60000000000002</ele>
<time>2023-05-17T12:44:05Z</time>
</trkpt>
<trkpt lat="49.12767793983221" lon="8.339682938531041">
<ele>105.60000000000002</ele>
<time>2023-05-17T12:44:06Z</time>
</trkpt>
<trkpt lat="49.127686992287636" lon="8.339661983773112">
<ele>105.79999999999995</ele>
<time>2023-05-17T12:44:07Z</time>
</trkpt>
<trkpt lat="49.12769495509565" lon="8.339646980166435">
<ele>105.79999999999995</ele>
<time>2023-05-17T12:44:08Z</time>
</trkpt>
<trkpt lat="49.12769998423755" lon="8.339632982388139">
<ele>105.79999999999995</ele>
<time>2023-05-17T12:44:09Z</time>
</trkpt>
<trkpt lat="49.127706941217184" lon="8.339621918275952">
<ele>105.79999999999995</ele>
<time>2023-05-17T12:44:10Z</time>
</trkpt>
<trkpt lat="49.12771792151034" lon="8.339604986831546">
<ele>105.79999999999995</ele>
<time>2023-05-17T12:44:11Z</time>
</trkpt>
<trkpt lat="49.127726973965764" lon="8.339587971568108">
<ele>105.79999999999995</ele>
<time>2023-05-17T12:44:12Z</time>
</trkpt>
<trkpt lat="49.127729991450906" lon="8.339577997103333">
<ele>105.79999999999995</ele>
<time>2023-05-17T12:44:13Z</time>
</trkpt>
<trkpt lat="49.127729991450906" lon="8.339576991274953">
<ele>105.79999999999995</ele>
<time>2023-05-17T12:44:14Z</time>
</trkpt>
<trkpt lat="49.127731919288635" lon="8.339574979618192">
<ele>105.79999999999995</ele>
<time>2023-05-17T12:44:15Z</time>
</trkpt>
<trkpt lat="49.1277579870075" lon="8.339506918564439">
<ele>105.79999999999995</ele>
<time>2023-05-17T12:44:15Z</time>
</trkpt>
<trkpt lat="49.127771984785795" lon="8.339489987120032">
<ele>105.79999999999995</ele>
<time>2023-05-17T12:44:16Z</time>
</trkpt>
<trkpt lat="49.12778497673571" lon="8.339469954371452">
<ele>105.79999999999995</ele>
<time>2023-05-17T12:44:17Z</time>
</trkpt>
<trkpt lat="49.12779998034239" lon="8.339447993785143">
<ele>105.79999999999995</ele>
<time>2023-05-17T12:44:18Z</time>
</trkpt>
<trkpt lat="49.12780995480716" lon="8.339429972693324">
<ele>105.79999999999995</ele>
<time>2023-05-17T12:44:19Z</time>
</trkpt>
<trkpt lat="49.12782294675708" lon="8.339409939944744">
<ele>106</ele>
<time>2023-05-17T12:44:20Z</time>
</trkpt>
<trkpt lat="49.127839962020516" lon="8.339389991015196">
<ele>106</ele>
<time>2023-05-17T12:44:21Z</time>
</trkpt>
<trkpt lat="49.127857983112335" lon="8.339361995458603">
<ele>106</ele>
<time>2023-05-17T12:44:22Z</time>
</trkpt>
<trkpt lat="49.12787793204188" lon="8.339329976588488">
<ele>106</ele>
<time>2023-05-17T12:44:23Z</time>
</trkpt>
<trkpt lat="49.127902993932366" lon="8.339291922748089">
<ele>106</ele>
<time>2023-05-17T12:44:24Z</time>
</trkpt>
<trkpt lat="49.12792696617544" lon="8.3392499294132">
<ele>106</ele>
<time>2023-05-17T12:44:25Z</time>
</trkpt>
<trkpt lat="49.12796191871166" lon="8.339196955785155">
<ele>106</ele>
<time>2023-05-17T12:44:26Z</time>
</trkpt>
<trkpt lat="49.127991925925016" lon="8.339144987985492">
<ele>106</ele>
<time>2023-05-17T12:44:27Z</time>
</trkpt>
<trkpt lat="49.12802293896675" lon="8.339089918881655">
<ele>106</ele>
<time>2023-05-17T12:44:28Z</time>
</trkpt>
<trkpt lat="49.1280479170382" lon="8.33903694525361">
<ele>106</ele>
<time>2023-05-17T12:44:29Z</time>
</trkpt>
<trkpt lat="49.128071973100305" lon="8.338977936655283">
<ele>106</ele>
<time>2023-05-17T12:44:30Z</time>
</trkpt>
<trkpt lat="49.1281049977988" lon="8.338914988562465">
<ele>106</ele>
<time>2023-05-17T12:44:31Z</time>
</trkpt>
<trkpt lat="49.12812997587025" lon="8.338861931115389">
<ele>106</ele>
<time>2023-05-17T12:44:32Z</time>
</trkpt>
<trkpt lat="49.128157971426845" lon="8.338812980800867">
<ele>106</ele>
<time>2023-05-17T12:44:33Z</time>
</trkpt>
<trkpt lat="49.128182949498296" lon="8.338764952495694">
<ele>106</ele>
<time>2023-05-17T12:44:34Z</time>
</trkpt>
<trkpt lat="49.12821295671165" lon="8.338716924190521">
<ele>106</ele>
<time>2023-05-17T12:44:35Z</time>
</trkpt>
<trkpt lat="49.12823692895472" lon="8.338677948340774">
<ele>106</ele>
<time>2023-05-17T12:44:36Z</time>
</trkpt>
<trkpt lat="49.12825997918844" lon="8.338636960834265">
<ele>106</ele>
<time>2023-05-17T12:44:37Z</time>
</trkpt>
<trkpt lat="49.12829794920981" lon="8.33858298137784">
<ele>106</ele>
<time>2023-05-17T12:44:38Z</time>
</trkpt>
<trkpt lat="49.128332985565066" lon="8.338529923930764">
<ele>106</ele>
<time>2023-05-17T12:44:39Z</time>
</trkpt>
<trkpt lat="49.1283779963851" lon="8.338466975837946">
<ele>106</ele>
<time>2023-05-17T12:44:40Z</time>
</trkpt>
<trkpt lat="49.12840993143618" lon="8.338421965017915">
<ele>106</ele>
<time>2023-05-17T12:44:41Z</time>
</trkpt>
<trkpt lat="49.12844496779144" lon="8.33836798556149">
<ele>105.79999999999995</ele>
<time>2023-05-17T12:44:42Z</time>
</trkpt>
<trkpt lat="49.128481931984425" lon="8.338309982791543">
<ele>105.79999999999995</ele>
<time>2023-05-17T12:44:43Z</time>
</trkpt>
<trkpt lat="49.12851797416806" lon="8.338256925344467">
<ele>105.79999999999995</ele>
<time>2023-05-17T12:44:44Z</time>
</trkpt>
<trkpt lat="49.12855292670429" lon="8.338201940059662">
<ele>105.79999999999995</ele>
<time>2023-05-17T12:44:45Z</time>
</trkpt>
<trkpt lat="49.128587963059545" lon="8.338147960603237">
<ele>105.79999999999995</ele>
<time>2023-05-17T12:44:46Z</time>
</trkpt>
<trkpt lat="49.12861998192966" lon="8.338096998631954">
<ele>105.79999999999995</ele>
<time>2023-05-17T12:44:47Z</time>
</trkpt>
<trkpt lat="49.12864496000111" lon="8.33804695867002">
<ele>105.79999999999995</ele>
<time>2023-05-17T12:44:48Z</time>
</trkpt>
<trkpt lat="49.128672955557704" lon="8.337999936193228">
<ele>105.79999999999995</ele>
<time>2023-05-17T12:44:49Z</time>
</trkpt>
<trkpt lat="49.12871494889259" lon="8.337949980050325">
<ele>105.79999999999995</ele>
<time>2023-05-17T12:44:50Z</time>
</trkpt>
<trkpt lat="49.12875694222748" lon="8.337909998372197">
<ele>105.79999999999995</ele>
<time>2023-05-17T12:44:51Z</time>
</trkpt>
<trkpt lat="49.128801953047514" lon="8.337871944531798">
<ele>105.79999999999995</ele>
<time>2023-05-17T12:44:52Z</time>
</trkpt>
<trkpt lat="49.12885199300945" lon="8.33783196285367">
<ele>106</ele>
<time>2023-05-17T12:44:53Z</time>
</trkpt>
<trkpt lat="49.12889792583883" lon="8.337797932326794">
<ele>106</ele>
<time>2023-05-17T12:44:54Z</time>
</trkpt>
<trkpt lat="49.12894695997238" lon="8.337754933163524">
<ele>106</ele>
<time>2023-05-17T12:44:55Z</time>
</trkpt>
<trkpt lat="49.128996999934316" lon="8.337704977020621">
<ele>106</ele>
<time>2023-05-17T12:44:56Z</time>
</trkpt>
<trkpt lat="49.12904494442046" lon="8.337654937058687">
<ele>106</ele>
<time>2023-05-17T12:44:57Z</time>
</trkpt>
<trkpt lat="49.12909196689725" lon="8.337601963430643">
<ele>106</ele>
<time>2023-05-17T12:44:58Z</time>
</trkpt>
<trkpt lat="49.12913798354566" lon="8.337547983974218">
<ele>106</ele>
<time>2023-05-17T12:44:59Z</time>
</trkpt>
<trkpt lat="49.12918793968856" lon="8.337489981204271">
<ele>106</ele>
<time>2023-05-17T12:45:00Z</time>
</trkpt>
<trkpt lat="49.129231944680214" lon="8.337441952899098">
<ele>106</ele>
<time>2023-05-17T12:45:01Z</time>
</trkpt>
<trkpt lat="49.12926999852061" lon="8.337409934028983">
<ele>106</ele>
<time>2023-05-17T12:45:02Z</time>
</trkpt>
<trkpt lat="49.12930796854198" lon="8.337361989542842">
<ele>106</ele>
<time>2023-05-17T12:45:03Z</time>
</trkpt>
<trkpt lat="49.129344932734966" lon="8.337317984551191">
<ele>106</ele>
<time>2023-05-17T12:45:04Z</time>
</trkpt>
<trkpt lat="49.12937292829156" lon="8.337281942367554">
<ele>106</ele>
<time>2023-05-17T12:45:05Z</time>
</trkpt>
<trkpt lat="49.12939991801977" lon="8.337246989831328">
<ele>106</ele>
<time>2023-05-17T12:45:06Z</time>
</trkpt>
<trkpt lat="49.12943294271827" lon="8.33720994181931">
<ele>106</ele>
<time>2023-05-17T12:45:07Z</time>
</trkpt>
<trkpt lat="49.129466973245144" lon="8.337169960141182">
<ele>106</ele>
<time>2023-05-17T12:45:08Z</time>
</trkpt>
<trkpt lat="49.129516929388046" lon="8.337117992341518">
<ele>106</ele>
<time>2023-05-17T12:45:09Z</time>
</trkpt>
<trkpt lat="49.129557916894555" lon="8.337076921015978">
<ele>106</ele>
<time>2023-05-17T12:45:10Z</time>
</trkpt>
<trkpt lat="49.12960695102811" lon="8.337027970701456">
<ele>106</ele>
<time>2023-05-17T12:45:11Z</time>
</trkpt>
<trkpt lat="49.12965699099004" lon="8.33697298541665">
<ele>106</ele>
<time>2023-05-17T12:45:12Z</time>
</trkpt>
<trkpt lat="49.129707952961326" lon="8.336931997910142">
<ele>106</ele>
<time>2023-05-17T12:45:13Z</time>
</trkpt>
<trkpt lat="49.12974692881107" lon="8.336899979040027">
<ele>106</ele>
<time>2023-05-17T12:45:14Z</time>
</trkpt>
<trkpt lat="49.12978699430823" lon="8.336862931028008">
<ele>106</ele>
<time>2023-05-17T12:45:15Z</time>
</trkpt>
<trkpt lat="49.129834938794374" lon="8.336812974885106">
<ele>106</ele>
<time>2023-05-17T12:45:16Z</time>
</trkpt>
<trkpt lat="49.12987299263477" lon="8.336769975721836">
<ele>106</ele>
<time>2023-05-17T12:45:17Z</time>
</trkpt>
<trkpt lat="49.129907945171" lon="8.336731921881437">
<ele>106</ele>
<time>2023-05-17T12:45:18Z</time>
</trkpt>
<trkpt lat="49.129939964041114" lon="8.336701998487115">
<ele>106</ele>
<time>2023-05-17T12:45:19Z</time>
</trkpt>
<trkpt lat="49.12997198291123" lon="8.33667492493987">
<ele>106</ele>
<time>2023-05-17T12:45:20Z</time>
</trkpt>
<trkpt lat="49.13000492379069" lon="8.336647935211658">
<ele>106</ele>
<time>2023-05-17T12:45:21Z</time>
</trkpt>
<trkpt lat="49.130049934610724" lon="8.33660694770515">
<ele>106</ele>
<time>2023-05-17T12:45:22Z</time>
</trkpt>
<trkpt lat="49.13008991628885" lon="8.336569983512163">
<ele>106</ele>
<time>2023-05-17T12:45:23Z</time>
</trkpt>
<trkpt lat="49.130132999271154" lon="8.336532935500145">
<ele>106</ele>
<time>2023-05-17T12:45:24Z</time>
</trkpt>
<trkpt lat="49.13016996346414" lon="8.336504939943552">
<ele>106</ele>
<time>2023-05-17T12:45:25Z</time>
</trkpt>
<trkpt lat="49.1302049998194" lon="8.336474932730198">
<ele>106</ele>
<time>2023-05-17T12:45:26Z</time>
</trkpt>
<trkpt lat="49.130241964012384" lon="8.336444925516844">
<ele>106</ele>
<time>2023-05-17T12:45:27Z</time>
</trkpt>
<trkpt lat="49.13027498871088" lon="8.336421959102154">
<ele>106</ele>
<time>2023-05-17T12:45:28Z</time>
</trkpt>
<trkpt lat="49.13031195290387" lon="8.336397986859083">
<ele>106</ele>
<time>2023-05-17T12:45:29Z</time>
</trkpt>
<trkpt lat="49.130349922925234" lon="8.336366973817348">
<ele>106</ele>
<time>2023-05-17T12:45:30Z</time>
</trkpt>
<trkpt lat="49.130389988422394" lon="8.336336966603994">
<ele>105.79999999999995</ele>
<time>2023-05-17T12:45:31Z</time>
</trkpt>
<trkpt lat="49.130432987585664" lon="8.336302936077118">
<ele>105.79999999999995</ele>
<time>2023-05-17T12:45:32Z</time>
</trkpt>
<trkpt lat="49.130476992577314" lon="8.336267983540893">
<ele>105.79999999999995</ele>
<time>2023-05-17T12:45:33Z</time>
</trkpt>
<trkpt lat="49.130519991740584" lon="8.336227918043733">
<ele>105.79999999999995</ele>
<time>2023-05-17T12:45:34Z</time>
</trkpt>
<trkpt lat="49.130562990903854" lon="8.336184918880463">
<ele>105.79999999999995</ele>
<time>2023-05-17T12:45:35Z</time>
</trkpt>
<trkpt lat="49.130606995895505" lon="8.336151978000998">
<ele>105.79999999999995</ele>
<time>2023-05-17T12:45:36Z</time>
</trkpt>
<trkpt lat="49.13064697757363" lon="8.336119959130883">
<ele>105.79999999999995</ele>
<time>2023-05-17T12:45:37Z</time>
</trkpt>
<trkpt lat="49.13068695925176" lon="8.336082994937897">
<ele>105.79999999999995</ele>
<time>2023-05-17T12:45:38Z</time>
</trkpt>
<trkpt lat="49.13072694092989" lon="8.336044941097498">
<ele>105.79999999999995</ele>
<time>2023-05-17T12:45:39Z</time>
</trkpt>
<trkpt lat="49.13076692260802" lon="8.33600697107613">
<ele>105.79999999999995</ele>
<time>2023-05-17T12:45:40Z</time>
</trkpt>
<trkpt lat="49.130802964791656" lon="8.335967995226383">
<ele>105.79999999999995</ele>
<time>2023-05-17T12:45:41Z</time>
</trkpt>
<trkpt lat="49.13085199892521" lon="8.335931953042746">
<ele>105.79999999999995</ele>
<time>2023-05-17T12:45:42Z</time>
</trkpt>
<trkpt lat="49.13089793175459" lon="8.33589993417263">
<ele>105.79999999999995</ele>
<time>2023-05-17T12:45:43Z</time>
</trkpt>
<trkpt lat="49.13094294257462" lon="8.335862969979644">
<ele>105.79999999999995</ele>
<time>2023-05-17T12:45:44Z</time>
</trkpt>
<trkpt lat="49.13098493590951" lon="8.335826927796006">
<ele>105.79999999999995</ele>
<time>2023-05-17T12:45:45Z</time>
</trkpt>
<trkpt lat="49.13102491758764" lon="8.335794992744923">
<ele>105.79999999999995</ele>
<time>2023-05-17T12:45:46Z</time>
</trkpt>
<trkpt lat="49.13106297142804" lon="8.335762973874807">
<ele>105.79999999999995</ele>
<time>2023-05-17T12:45:47Z</time>
</trkpt>
<trkpt lat="49.13110999390483" lon="8.335731960833073">
<ele>105.79999999999995</ele>
<time>2023-05-17T12:45:48Z</time>
</trkpt>
<trkpt lat="49.13114997558296" lon="8.33570497110486">
<ele>105.79999999999995</ele>
<time>2023-05-17T12:45:49Z</time>
</trkpt>
<trkpt lat="49.13119196891785" lon="8.335677981376648">
<ele>105.79999999999995</ele>
<time>2023-05-17T12:45:50Z</time>
</trkpt>
<trkpt lat="49.131231950595975" lon="8.335652919486165">
<ele>105.79999999999995</ele>
<time>2023-05-17T12:45:51Z</time>
</trkpt>
<trkpt lat="49.13126497529447" lon="8.335632970556617">
<ele>105.79999999999995</ele>
<time>2023-05-17T12:45:52Z</time>
</trkpt>
<trkpt lat="49.131292970851064" lon="8.33561696112156">
<ele>105.79999999999995</ele>
<time>2023-05-17T12:45:53Z</time>
</trkpt>
<trkpt lat="49.13132498972118" lon="8.33559793420136">
<ele>105.79999999999995</ele>
<time>2023-05-17T12:45:54Z</time>
</trkpt>
<trkpt lat="49.131361953914165" lon="8.33557496778667">
<ele>105.79999999999995</ele>
<time>2023-05-17T12:45:55Z</time>
</trkpt>
<trkpt lat="49.131402941420674" lon="8.335552923381329">
<ele>105.79999999999995</ele>
<time>2023-05-17T12:45:56Z</time>
</trkpt>
<trkpt lat="49.1314429230988" lon="8.33553297445178">
<ele>105.79999999999995</ele>
<time>2023-05-17T12:45:57Z</time>
</trkpt>
<trkpt lat="49.13148198276758" lon="8.335506990551949">
<ele>105.79999999999995</ele>
<time>2023-05-17T12:45:58Z</time>
</trkpt>
<trkpt lat="49.13152196444571" lon="8.335482934489846">
<ele>105.79999999999995</ele>
<time>2023-05-17T12:45:59Z</time>
</trkpt>
<trkpt lat="49.13156295195222" lon="8.335457956418395">
<ele>105.79999999999995</ele>
<time>2023-05-17T12:46:00Z</time>
</trkpt>
<trkpt lat="49.13160192780197" lon="8.335434990003705">
<ele>105.79999999999995</ele>
<time>2023-05-17T12:46:01Z</time>
</trkpt>
<trkpt lat="49.131637969985604" lon="8.335414957255125">
<ele>105.79999999999995</ele>
<time>2023-05-17T12:46:02Z</time>
</trkpt>
<trkpt lat="49.13167292252183" lon="8.335394924506545">
<ele>105.79999999999995</ele>
<time>2023-05-17T12:46:03Z</time>
</trkpt>
<trkpt lat="49.13170795887709" lon="8.335374975576997">
<ele>105.79999999999995</ele>
<time>2023-05-17T12:46:04Z</time>
</trkpt>
<trkpt lat="49.13174492307007" lon="8.335356954485178">
<ele>105.79999999999995</ele>
<time>2023-05-17T12:46:05Z</time>
</trkpt>
<trkpt lat="49.13178197108209" lon="8.335337927564979">
<ele>105.79999999999995</ele>
<time>2023-05-17T12:46:06Z</time>
</trkpt>
<trkpt lat="49.13181499578059" lon="8.33531797863543">
<ele>105.79999999999995</ele>
<time>2023-05-17T12:46:07Z</time>
</trkpt>
<trkpt lat="49.13184793666005" lon="8.335299957543612">
<ele>105.79999999999995</ele>
<time>2023-05-17T12:46:08Z</time>
</trkpt>
<trkpt lat="49.13188297301531" lon="8.335281936451793">
<ele>105.79999999999995</ele>
<time>2023-05-17T12:46:09Z</time>
</trkpt>
<trkpt lat="49.131921948865056" lon="8.335259975865483">
<ele>105.79999999999995</ele>
<time>2023-05-17T12:46:10Z</time>
</trkpt>
<trkpt lat="49.131962936371565" lon="8.335237931460142">
<ele>105.79999999999995</ele>
<time>2023-05-17T12:46:11Z</time>
</trkpt>
<trkpt lat="49.132004929706454" lon="8.335206918418407">
<ele>105.79999999999995</ele>
<time>2023-05-17T12:46:12Z</time>
</trkpt>
<trkpt lat="49.132046923041344" lon="8.335179928690195">
<ele>105.79999999999995</ele>
<time>2023-05-17T12:46:13Z</time>
</trkpt>
<trkpt lat="49.13208497688174" lon="8.335146987810731">
<ele>105.79999999999995</ele>
<time>2023-05-17T12:46:14Z</time>
</trkpt>
<trkpt lat="49.13212495855987" lon="8.335116980597377">
<ele>105.79999999999995</ele>
<time>2023-05-17T12:46:15Z</time>
</trkpt>
<trkpt lat="49.13216292858124" lon="8.335087979212403">
<ele>105.79999999999995</ele>
<time>2023-05-17T12:46:16Z</time>
</trkpt>
<trkpt lat="49.13219192996621" lon="8.335069958120584">
<ele>105.79999999999995</ele>
<time>2023-05-17T12:46:17Z</time>
</trkpt>
<trkpt lat="49.13221498019993" lon="8.335047997534275">
<ele>105.79999999999995</ele>
<time>2023-05-17T12:46:18Z</time>
</trkpt>
<trkpt lat="49.13222696632147" lon="8.335024947300553">
<ele>105.79999999999995</ele>
<time>2023-05-17T12:46:19Z</time>
</trkpt>
<trkpt lat="49.13223794661462" lon="8.3349949400872">
<ele>105.79999999999995</ele>
<time>2023-05-17T12:46:20Z</time>
</trkpt>
<trkpt lat="49.13224498741329" lon="8.334954958409071">
<ele>105.79999999999995</ele>
<time>2023-05-17T12:46:21Z</time>
</trkpt>
<trkpt lat="49.132242975756526" lon="8.334906930103898">
<ele>105.79999999999995</ele>
<time>2023-05-17T12:46:22Z</time>
</trkpt>
<trkpt lat="49.132241969928145" lon="8.334851944819093">
<ele>105.79999999999995</ele>
<time>2023-05-17T12:46:23Z</time>
</trkpt>
<trkpt lat="49.132239958271384" lon="8.334784973412752">
<ele>105.79999999999995</ele>
<time>2023-05-17T12:46:24Z</time>
</trkpt>
<trkpt lat="49.13223794661462" lon="8.334721941500902">
<ele>105.79999999999995</ele>
<time>2023-05-17T12:46:25Z</time>
</trkpt>
<trkpt lat="49.132239958271384" lon="8.334659999236465">
<ele>105.79999999999995</ele>
<time>2023-05-17T12:46:26Z</time>
</trkpt>
<trkpt lat="49.13224699907005" lon="8.334599984809756">
<ele>105.79999999999995</ele>
<time>2023-05-17T12:46:27Z</time>
</trkpt>
<trkpt lat="49.132262924686074" lon="8.33454198203981">
<ele>105.79999999999995</ele>
<time>2023-05-17T12:46:28Z</time>
</trkpt>
<trkpt lat="49.13228798657656" lon="8.334486996755004">
<ele>105.79999999999995</ele>
<time>2023-05-17T12:46:29Z</time>
</trkpt>
<trkpt lat="49.13231992162764" lon="8.334432933479548">
<ele>105.79999999999995</ele>
<time>2023-05-17T12:46:30Z</time>
</trkpt>
<trkpt lat="49.13235294632614" lon="8.334382977336645">
<ele>105.79999999999995</ele>
<time>2023-05-17T12:46:31Z</time>
</trkpt>
<trkpt lat="49.132394939661026" lon="8.334341989830136">
<ele>105.79999999999995</ele>
<time>2023-05-17T12:46:32Z</time>
</trkpt>
<trkpt lat="49.13244196213782" lon="8.334304941818118">
<ele>105.79999999999995</ele>
<time>2023-05-17T12:46:33Z</time>
</trkpt>
<trkpt lat="49.13248999044299" lon="8.334269989281893">
<ele>105.79999999999995</ele>
<time>2023-05-17T12:46:34Z</time>
</trkpt>
<trkpt lat="49.13253793492913" lon="8.334239982068539">
<ele>105.79999999999995</ele>
<time>2023-05-17T12:46:35Z</time>
</trkpt>
<trkpt lat="49.13258797489107" lon="8.334212992340326">
<ele>105.79999999999995</ele>
<time>2023-05-17T12:46:36Z</time>
</trkpt>
<trkpt lat="49.13263793103397" lon="8.334182985126972">
<ele>105.79999999999995</ele>
<time>2023-05-17T12:46:37Z</time>
</trkpt>
<trkpt lat="49.132689982652664" lon="8.334152977913618">
<ele>106</ele>
<time>2023-05-17T12:46:38Z</time>
</trkpt>
<trkpt lat="49.13273993879557" lon="8.334124982357025">
<ele>106</ele>
<time>2023-05-17T12:46:39Z</time>
</trkpt>
<trkpt lat="49.13278796710074" lon="8.334094975143671">
<ele>106</ele>
<time>2023-05-17T12:46:40Z</time>
</trkpt>
<trkpt lat="49.13283498957753" lon="8.334059938788414">
<ele>106</ele>
<time>2023-05-17T12:46:41Z</time>
</trkpt>
<trkpt lat="49.1328779887408" lon="8.334027919918299">
<ele>106</ele>
<time>2023-05-17T12:46:42Z</time>
</trkpt>
<trkpt lat="49.13292299956083" lon="8.334001936018467">
<ele>106</ele>
<time>2023-05-17T12:46:43Z</time>
</trkpt>
<trkpt lat="49.13296792656183" lon="8.333974946290255">
<ele>106</ele>
<time>2023-05-17T12:46:44Z</time>
</trkpt>
<trkpt lat="49.13300991989672" lon="8.333946950733662">
<ele>106</ele>
<time>2023-05-17T12:46:45Z</time>
</trkpt>
<trkpt lat="49.13305291905999" lon="8.33391996100545">
<ele>106</ele>
<time>2023-05-17T12:46:46Z</time>
</trkpt>
<trkpt lat="49.13309692405164" lon="8.33389699459076">
<ele>106</ele>
<time>2023-05-17T12:46:47Z</time>
</trkpt>
<trkpt lat="49.133142940700054" lon="8.333869921043515">
<ele>106</ele>
<time>2023-05-17T12:46:48Z</time>
</trkpt>
<trkpt lat="49.13318996317685" lon="8.333837985992432">
<ele>106</ele>
<time>2023-05-17T12:46:49Z</time>
</trkpt>
<trkpt lat="49.133231956511736" lon="8.333809990435839">
<ele>106</ele>
<time>2023-05-17T12:46:50Z</time>
</trkpt>
<trkpt lat="49.1332699265331" lon="8.333784928545356">
<ele>106</ele>
<time>2023-05-17T12:46:51Z</time>
</trkpt>
<trkpt lat="49.13330194540322" lon="8.333761962130666">
<ele>106</ele>
<time>2023-05-17T12:46:52Z</time>
</trkpt>
<trkpt lat="49.13332692347467" lon="8.333746958523989">
<ele>106</ele>
<time>2023-05-17T12:46:53Z</time>
</trkpt>
<trkpt lat="49.13335491903126" lon="8.33372793160379">
<ele>106</ele>
<time>2023-05-17T12:46:54Z</time>
</trkpt>
<trkpt lat="49.13338492624462" lon="8.333709994331002">
<ele>106</ele>
<time>2023-05-17T12:46:55Z</time>
</trkpt>
<trkpt lat="49.13341996259987" lon="8.333691973239183">
<ele>106</ele>
<time>2023-05-17T12:46:56Z</time>
</trkpt>
<trkpt lat="49.13346195593476" lon="8.333667917177081">
<ele>106</ele>
<time>2023-05-17T12:46:57Z</time>
</trkpt>
<trkpt lat="49.13351492956281" lon="8.333629947155714">
<ele>106</ele>
<time>2023-05-17T12:46:58Z</time>
</trkpt>
<trkpt lat="49.13355994038284" lon="8.333592982962728">
<ele>106</ele>
<time>2023-05-17T12:46:59Z</time>
</trkpt>
<trkpt lat="49.13360495120287" lon="8.333554929122329">
<ele>106</ele>
<time>2023-05-17T12:47:00Z</time>
</trkpt>
<trkpt lat="49.1336499620229" lon="8.3335149474442">
<ele>106</ele>
<time>2023-05-17T12:47:01Z</time>
</trkpt>
<trkpt lat="49.133701929822564" lon="8.333467924967408">
<ele>106</ele>
<time>2023-05-17T12:47:02Z</time>
</trkpt>
<trkpt lat="49.13374995812774" lon="8.333417968824506">
<ele>106</ele>
<time>2023-05-17T12:47:03Z</time>
</trkpt>
<trkpt lat="49.133789939805865" lon="8.333379998803139">
<ele>106</ele>
<time>2023-05-17T12:47:04Z</time>
</trkpt>
<trkpt lat="49.13382698781788" lon="8.333346974104643">
<ele>106</ele>
<time>2023-05-17T12:47:05Z</time>
</trkpt>
<trkpt lat="49.13386495783925" lon="8.333307998254895">
<ele>105.79999999999995</ele>
<time>2023-05-17T12:47:06Z</time>
</trkpt>
<trkpt lat="49.13390292786062" lon="8.333272961899638">
<ele>105.79999999999995</ele>
<time>2023-05-17T12:47:07Z</time>
</trkpt>
<trkpt lat="49.13394492119551" lon="8.333229962736368">
<ele>105.79999999999995</ele>
<time>2023-05-17T12:47:08Z</time>
</trkpt>
<trkpt lat="49.13398699834943" lon="8.333176989108324">
<ele>105.79999999999995</ele>
<time>2023-05-17T12:47:09Z</time>
</trkpt>
<trkpt lat="49.134024968370795" lon="8.33312694914639">
<ele>105.79999999999995</ele>
<time>2023-05-17T12:47:10Z</time>
</trkpt>
<trkpt lat="49.13406193256378" lon="8.333076993003488">
<ele>105.79999999999995</ele>
<time>2023-05-17T12:47:11Z</time>
</trkpt>
<trkpt lat="49.13409495726228" lon="8.333034999668598">
<ele>105.79999999999995</ele>
<time>2023-05-17T12:47:12Z</time>
</trkpt>
<trkpt lat="49.13412697613239" lon="8.3329969458282">
<ele>105.79999999999995</ele>
<time>2023-05-17T12:47:13Z</time>
</trkpt>
<trkpt lat="49.13415991701186" lon="8.332961993291974">
<ele>105.79999999999995</ele>
<time>2023-05-17T12:47:14Z</time>
</trkpt>
<trkpt lat="49.134194953367114" lon="8.332919999957085">
<ele>105.79999999999995</ele>
<time>2023-05-17T12:47:15Z</time>
</trkpt>
<trkpt lat="49.13423493504524" lon="8.332881946116686">
<ele>105.79999999999995</ele>
<time>2023-05-17T12:47:16Z</time>
</trkpt>
<trkpt lat="49.1342699714005" lon="8.3328449819237">
<ele>105.79999999999995</ele>
<time>2023-05-17T12:47:17Z</time>
</trkpt>
<trkpt lat="49.134304923936725" lon="8.332807933911681">
<ele>105.79999999999995</ele>
<time>2023-05-17T12:47:18Z</time>
</trkpt>
<trkpt lat="49.13434197194874" lon="8.332772981375456">
<ele>105.79999999999995</ele>
<time>2023-05-17T12:47:19Z</time>
</trkpt>
<trkpt lat="49.13437298499048" lon="8.33273995667696">
<ele>105.79999999999995</ele>
<time>2023-05-17T12:47:20Z</time>
</trkpt>
<trkpt lat="49.1344079375267" lon="8.332701986655593">
<ele>105.79999999999995</ele>
<time>2023-05-17T12:47:21Z</time>
</trkpt>
<trkpt lat="49.13444498553872" lon="8.332659993320704">
<ele>105.79999999999995</ele>
<time>2023-05-17T12:47:22Z</time>
</trkpt>
<trkpt lat="49.134479938074946" lon="8.332622945308685">
<ele>105.79999999999995</ele>
<time>2023-05-17T12:47:23Z</time>
</trkpt>
<trkpt lat="49.13451195694506" lon="8.33258799277246">
<ele>105.79999999999995</ele>
<time>2023-05-17T12:47:24Z</time>
</trkpt>
<trkpt lat="49.13454699330032" lon="8.332552956417203">
<ele>105.79999999999995</ele>
<time>2023-05-17T12:47:25Z</time>
</trkpt>
<trkpt lat="49.13457792252302" lon="8.332517920061946">
<ele>105.79999999999995</ele>
<time>2023-05-17T12:47:26Z</time>
</trkpt>
<trkpt lat="49.13461295887828" lon="8.332486990839243">
<ele>105.79999999999995</ele>
<time>2023-05-17T12:47:27Z</time>
</trkpt>
<trkpt lat="49.134651934728026" lon="8.332452960312366">
<ele>105.79999999999995</ele>
<time>2023-05-17T12:47:28Z</time>
</trkpt>
<trkpt lat="49.134689988568425" lon="8.332411972805858">
<ele>105.79999999999995</ele>
<time>2023-05-17T12:47:29Z</time>
</trkpt>
<trkpt lat="49.134734999388456" lon="8.33237492479384">
<ele>105.79999999999995</ele>
<time>2023-05-17T12:47:30Z</time>
</trkpt>
<trkpt lat="49.13477296940982" lon="8.332341983914375">
<ele>105.79999999999995</ele>
<time>2023-05-17T12:47:31Z</time>
</trkpt>
<trkpt lat="49.134816974401474" lon="8.332301918417215">
<ele>105.79999999999995</ele>
<time>2023-05-17T12:47:32Z</time>
</trkpt>
<trkpt lat="49.1348569560796" lon="8.332264954224229">
<ele>105.79999999999995</ele>
<time>2023-05-17T12:47:33Z</time>
</trkpt>
<trkpt lat="49.134886963292956" lon="8.332241987809539">
<ele>105.79999999999995</ele>
<time>2023-05-17T12:47:34Z</time>
</trkpt>
<trkpt lat="49.13492493331432" lon="8.332206951454282">
<ele>105.79999999999995</ele>
<time>2023-05-17T12:47:35Z</time>
</trkpt>
<trkpt lat="49.13495795801282" lon="8.332172920927405">
<ele>105.79999999999995</ele>
<time>2023-05-17T12:47:36Z</time>
</trkpt>
<trkpt lat="49.134991988539696" lon="8.332141991704702">
<ele>105.79999999999995</ele>
<time>2023-05-17T12:47:37Z</time>
</trkpt>
<trkpt lat="49.13502492941916" lon="8.332104943692684">
<ele>105.79999999999995</ele>
<time>2023-05-17T12:47:38Z</time>
</trkpt>
<trkpt lat="49.135054936632514" lon="8.332072924822569">
<ele>105.79999999999995</ele>
<time>2023-05-17T12:47:39Z</time>
</trkpt>
<trkpt lat="49.13508796133101" lon="8.332034954801202">
<ele>105.79999999999995</ele>
<time>2023-05-17T12:47:40Z</time>
</trkpt>
<trkpt lat="49.13512794300914" lon="8.331991955637932">
<ele>105.79999999999995</ele>
<time>2023-05-17T12:47:41Z</time>
</trkpt>
<trkpt lat="49.135162979364395" lon="8.331954991444945">
<ele>105.79999999999995</ele>
<time>2023-05-17T12:47:42Z</time>
</trkpt>
<trkpt lat="49.13519692607224" lon="8.33192196674645">
<ele>105.79999999999995</ele>
<time>2023-05-17T12:47:43Z</time>
</trkpt>
<trkpt lat="49.1352319624275" lon="8.331886930391192">
<ele>105.79999999999995</ele>
<time>2023-05-17T12:47:44Z</time>
</trkpt>
<trkpt lat="49.135266998782754" lon="8.331846948713064">
<ele>105.79999999999995</ele>
<time>2023-05-17T12:47:45Z</time>
</trkpt>
<trkpt lat="49.13529499433935" lon="8.331809984520078">
<ele>105.79999999999995</ele>
<time>2023-05-17T12:47:46Z</time>
</trkpt>
<trkpt lat="49.13532298989594" lon="8.331781988963485">
<ele>105.79999999999995</ele>
<time>2023-05-17T12:47:47Z</time>
</trkpt>
<trkpt lat="49.135359954088926" lon="8.331746952608228">
<ele>105.79999999999995</ele>
<time>2023-05-17T12:47:48Z</time>
</trkpt>
<trkpt lat="49.135402953252196" lon="8.331709988415241">
<ele>105.79999999999995</ele>
<time>2023-05-17T12:47:49Z</time>
</trkpt>
<trkpt lat="49.135444946587086" lon="8.331666989251971">
<ele>105.79999999999995</ele>
<time>2023-05-17T12:47:50Z</time>
</trkpt>
<trkpt lat="49.135486939921975" lon="8.331619966775179">
<ele>105.79999999999995</ele>
<time>2023-05-17T12:47:51Z</time>
</trkpt>
<trkpt lat="49.135524993762374" lon="8.33157998509705">
<ele>106</ele>
<time>2023-05-17T12:47:52Z</time>
</trkpt>
<trkpt lat="49.13557696156204" lon="8.331527933478355">
<ele>106</ele>
<time>2023-05-17T12:47:53Z</time>
</trkpt>
<trkpt lat="49.13561996072531" lon="8.331486945971847">
<ele>106</ele>
<time>2023-05-17T12:47:54Z</time>
</trkpt>
<trkpt lat="49.13566991686821" lon="8.331442940980196">
<ele>105.79999999999995</ele>
<time>2023-05-17T12:47:55Z</time>
</trkpt>
<trkpt lat="49.13572498597205" lon="8.331402959302068">
<ele>105.79999999999995</ele>
<time>2023-05-17T12:47:56Z</time>
</trkpt>
<trkpt lat="49.13578198291361" lon="8.331359960138798">
<ele>105.79999999999995</ele>
<time>2023-05-17T12:47:57Z</time>
</trkpt>
<trkpt lat="49.13583696819842" lon="8.331326935440302">
<ele>105.79999999999995</ele>
<time>2023-05-17T12:47:58Z</time>
</trkpt>
<trkpt lat="49.13588499650359" lon="8.331306986510754">
<ele>105.79999999999995</ele>
<time>2023-05-17T12:47:59Z</time>
</trkpt>
<trkpt lat="49.13593193516135" lon="8.331289971247315">
<ele>105.79999999999995</ele>
<time>2023-05-17T12:48:00Z</time>
</trkpt>
<trkpt lat="49.135979963466525" lon="8.33127798512578">
<ele>105.79999999999995</ele>
<time>2023-05-17T12:48:01Z</time>
</trkpt>
<trkpt lat="49.1360279917717" lon="8.331266921013594">
<ele>105.79999999999995</ele>
<time>2023-05-17T12:48:02Z</time>
</trkpt>
<trkpt lat="49.13607995957136" lon="8.33125694654882">
<ele>105.79999999999995</ele>
<time>2023-05-17T12:48:03Z</time>
</trkpt>
<trkpt lat="49.136129999533296" lon="8.331249989569187">
<ele>105.79999999999995</ele>
<time>2023-05-17T12:48:04Z</time>
</trkpt>
<trkpt lat="49.13617794401944" lon="8.331246972084045">
<ele>105.79999999999995</ele>
<time>2023-05-17T12:48:05Z</time>
</trkpt>
<trkpt lat="49.13622697815299" lon="8.331246972084045">
<ele>105.79999999999995</ele>
<time>2023-05-17T12:48:06Z</time>
</trkpt>
<trkpt lat="49.13626997731626" lon="8.331244960427284">
<ele>105.79999999999995</ele>
<time>2023-05-17T12:48:07Z</time>
</trkpt>
<trkpt lat="49.13631197065115" lon="8.331242948770523">
<ele>105.79999999999995</ele>
<time>2023-05-17T12:48:08Z</time>
</trkpt>
<trkpt lat="49.13635295815766" lon="8.331241942942142">
<ele>105.79999999999995</ele>
<time>2023-05-17T12:48:09Z</time>
</trkpt>
<trkpt lat="49.13640199229121" lon="8.33123498596251">
<ele>105.79999999999995</ele>
<time>2023-05-17T12:48:10Z</time>
</trkpt>
<trkpt lat="49.13644499145448" lon="8.331229956820607">
<ele>105.79999999999995</ele>
<time>2023-05-17T12:48:11Z</time>
</trkpt>
<trkpt lat="49.13648991845548" lon="8.331227945163846">
<ele>105.79999999999995</ele>
<time>2023-05-17T12:48:12Z</time>
</trkpt>
<trkpt lat="49.13653291761875" lon="8.33123498596251">
<ele>105.79999999999995</ele>
<time>2023-05-17T12:48:13Z</time>
</trkpt>
<trkpt lat="49.1365769226104" lon="8.33123791962862">
<ele>105.79999999999995</ele>
<time>2023-05-17T12:48:14Z</time>
</trkpt>
<trkpt lat="49.13662193343043" lon="8.331239931285381">
<ele>105.79999999999995</ele>
<time>2023-05-17T12:48:15Z</time>
</trkpt>
<trkpt lat="49.1366649325937" lon="8.331246972084045">
<ele>105.79999999999995</ele>
<time>2023-05-17T12:48:16Z</time>
</trkpt>
<trkpt lat="49.13670793175697" lon="8.331252923235297">
<ele>105.79999999999995</ele>
<time>2023-05-17T12:48:17Z</time>
</trkpt>
<trkpt lat="49.136754954233766" lon="8.331261975690722">
<ele>105.79999999999995</ele>
<time>2023-05-17T12:48:18Z</time>
</trkpt>
<trkpt lat="49.13680298253894" lon="8.331267926841974">
<ele>105.79999999999995</ele>
<time>2023-05-17T12:48:19Z</time>
</trkpt>
<trkpt lat="49.13685193285346" lon="8.331274967640638">
<ele>105.79999999999995</ele>
<time>2023-05-17T12:48:20Z</time>
</trkpt>
<trkpt lat="49.136902978643775" lon="8.331282930448651">
<ele>105.79999999999995</ele>
<time>2023-05-17T12:48:21Z</time>
</trkpt>
<trkpt lat="49.13695494644344" lon="8.331291982904077">
<ele>105.79999999999995</ele>
<time>2023-05-17T12:48:22Z</time>
</trkpt>
<trkpt lat="49.13700792007148" lon="8.331302963197231">
<ele>105.79999999999995</ele>
<time>2023-05-17T12:48:23Z</time>
</trkpt>
<trkpt lat="49.13706198334694" lon="8.331314949318767">
<ele>105.79999999999995</ele>
<time>2023-05-17T12:48:24Z</time>
</trkpt>
<trkpt lat="49.13710992783308" lon="8.331322995945811">
<ele>105.79999999999995</ele>
<time>2023-05-17T12:48:25Z</time>
</trkpt>
<trkpt lat="49.137159967795014" lon="8.331331964582205">
<ele>105.79999999999995</ele>
<time>2023-05-17T12:48:26Z</time>
</trkpt>
<trkpt lat="49.13721193559468" lon="8.331339927390218">
<ele>105.79999999999995</ele>
<time>2023-05-17T12:48:27Z</time>
</trkpt>
<trkpt lat="49.13726197555661" lon="8.331349985674024">
<ele>105.79999999999995</ele>
<time>2023-05-17T12:48:28Z</time>
</trkpt>
<trkpt lat="49.13730992004275" lon="8.331356942653656">
<ele>105.79999999999995</ele>
<time>2023-05-17T12:48:29Z</time>
</trkpt>
<trkpt lat="49.137357948347926" lon="8.331359960138798">
<ele>105.79999999999995</ele>
<time>2023-05-17T12:48:30Z</time>
</trkpt>
<trkpt lat="49.13740698248148" lon="8.331361971795559">
<ele>105.79999999999995</ele>
<time>2023-05-17T12:48:31Z</time>
</trkpt>
<trkpt lat="49.13745492696762" lon="8.33136691711843">
<ele>105.79999999999995</ele>
<time>2023-05-17T12:48:32Z</time>
</trkpt>
<trkpt lat="49.13749692030251" lon="8.331371946260333">
<ele>105.79999999999995</ele>
<time>2023-05-17T12:48:33Z</time>
</trkpt>
<trkpt lat="49.13753991946578" lon="8.331376975402236">
<ele>105.79999999999995</ele>
<time>2023-05-17T12:48:34Z</time>
</trkpt>
<trkpt lat="49.1375819966197" lon="8.331382926553488">
<ele>105.79999999999995</ele>
<time>2023-05-17T12:48:35Z</time>
</trkpt>
<trkpt lat="49.13762499578297" lon="8.331389967352152">
<ele>105.79999999999995</ele>
<time>2023-05-17T12:48:36Z</time>
</trkpt>
<trkpt lat="49.13766799494624" lon="8.331399941816926">
<ele>105.79999999999995</ele>
<time>2023-05-17T12:48:37Z</time>
</trkpt>
<trkpt lat="49.137714933604" lon="8.33140698261559">
<ele>105.79999999999995</ele>
<time>2023-05-17T12:48:38Z</time>
</trkpt>
<trkpt lat="49.137761956080794" lon="8.33140698261559">
<ele>105.79999999999995</ele>
<time>2023-05-17T12:48:39Z</time>
</trkpt>
<trkpt lat="49.137807972729206" lon="8.33140698261559">
<ele>105.79999999999995</ele>
<time>2023-05-17T12:48:40Z</time>
</trkpt>
<trkpt lat="49.137849966064095" lon="8.331412933766842">
<ele>105.79999999999995</ele>
<time>2023-05-17T12:48:41Z</time>
</trkpt>
<trkpt lat="49.137889947742224" lon="8.331417962908745">
<ele>105.79999999999995</ele>
<time>2023-05-17T12:48:42Z</time>
</trkpt>
<trkpt lat="49.13792992942035" lon="8.331419974565506">
<ele>105.79999999999995</ele>
<time>2023-05-17T12:48:43Z</time>
</trkpt>
<trkpt lat="49.13796194829047" lon="8.331422992050648">
<ele>105.79999999999995</ele>
<time>2023-05-17T12:48:44Z</time>
</trkpt>
<trkpt lat="49.1379929613322" lon="8.331422992050648">
<ele>105.79999999999995</ele>
<time>2023-05-17T12:48:45Z</time>
</trkpt>
<trkpt lat="49.13802498020232" lon="8.331426931545138">
<ele>105.79999999999995</ele>
<time>2023-05-17T12:48:46Z</time>
</trkpt>
<trkpt lat="49.13805699907243" lon="8.331424919888377">
<ele>105.79999999999995</ele>
<time>2023-05-17T12:48:47Z</time>
</trkpt>
<trkpt lat="49.138087928295135" lon="8.331432966515422">
<ele>105.79999999999995</ele>
<time>2023-05-17T12:48:48Z</time>
</trkpt>
<trkpt lat="49.13812296465039" lon="8.331434978172183">
<ele>105.79999999999995</ele>
<time>2023-05-17T12:48:49Z</time>
</trkpt>
<trkpt lat="49.13815992884338" lon="8.331437995657325">
<ele>105.79999999999995</ele>
<time>2023-05-17T12:48:50Z</time>
</trkpt>
<trkpt lat="49.1381969768554" lon="8.331441935151815">
<ele>105.79999999999995</ele>
<time>2023-05-17T12:48:51Z</time>
</trkpt>
<trkpt lat="49.138236958533525" lon="8.331447970122099">
<ele>105.79999999999995</ele>
<time>2023-05-17T12:48:52Z</time>
</trkpt>
<trkpt lat="49.138277946040034" lon="8.331457944586873">
<ele>105.79999999999995</ele>
<time>2023-05-17T12:48:53Z</time>
</trkpt>
<trkpt lat="49.138321951031685" lon="8.331467919051647">
<ele>105.79999999999995</ele>
<time>2023-05-17T12:48:54Z</time>
</trkpt>
<trkpt lat="49.138364950194955" lon="8.331476971507072">
<ele>105.79999999999995</ele>
<time>2023-05-17T12:48:55Z</time>
</trkpt>
<trkpt lat="49.138407949358225" lon="8.331482922658324">
<ele>105.79999999999995</ele>
<time>2023-05-17T12:48:56Z</time>
</trkpt>
<trkpt lat="49.138452960178256" lon="8.331487951800227">
<ele>105.79999999999995</ele>
<time>2023-05-17T12:48:57Z</time>
</trkpt>
<trkpt lat="49.13849998265505" lon="8.331489963456988">
<ele>105.79999999999995</ele>
<time>2023-05-17T12:48:58Z</time>
</trkpt>
<trkpt lat="49.13854499347508" lon="8.331487951800227">
<ele>105.79999999999995</ele>
<time>2023-05-17T12:48:59Z</time>
</trkpt>
<trkpt lat="49.13858799263835" lon="8.331481916829944">
<ele>105.79999999999995</ele>
<time>2023-05-17T12:49:00Z</time>
</trkpt>
<trkpt lat="49.13863199763" lon="8.331476971507072">
<ele>105.79999999999995</ele>
<time>2023-05-17T12:49:01Z</time>
</trkpt>
<trkpt lat="49.13867298513651" lon="8.331469930708408">
<ele>105.79999999999995</ele>
<time>2023-05-17T12:49:02Z</time>
</trkpt>
<trkpt lat="49.13871699012816" lon="8.331466997042298">
<ele>105.79999999999995</ele>
<time>2023-05-17T12:49:03Z</time>
</trkpt>
<trkpt lat="49.13875697180629" lon="8.331459956243634">
<ele>105.79999999999995</ele>
<time>2023-05-17T12:49:04Z</time>
</trkpt>
<trkpt lat="49.1387979593128" lon="8.331451993435621">
<ele>105.79999999999995</ele>
<time>2023-05-17T12:49:05Z</time>
</trkpt>
<trkpt lat="49.138837940990925" lon="8.331437995657325">
<ele>105.79999999999995</ele>
<time>2023-05-17T12:49:06Z</time>
</trkpt>
<trkpt lat="49.138881945982575" lon="8.331422992050648">
<ele>106</ele>
<time>2023-05-17T12:49:07Z</time>
</trkpt>
<trkpt lat="49.138924945145845" lon="8.33140798844397">
<ele>106</ele>
<time>2023-05-17T12:49:08Z</time>
</trkpt>
<trkpt lat="49.138961993157864" lon="8.331392984837294">
<ele>106</ele>
<time>2023-05-17T12:49:09Z</time>
</trkpt>
<trkpt lat="49.13899795152247" lon="8.331376975402236">
<ele>106</ele>
<time>2023-05-17T12:49:10Z</time>
</trkpt>
<trkpt lat="49.1390379332006" lon="8.331356942653656">
<ele>106.20000000000005</ele>
<time>2023-05-17T12:49:11Z</time>
</trkpt>
<trkpt lat="49.13907992653549" lon="8.331337999552488">
<ele>106.20000000000005</ele>
<time>2023-05-17T12:49:12Z</time>
</trkpt>
<trkpt lat="49.13912191987038" lon="8.33132492378354">
<ele>106.20000000000005</ele>
<time>2023-05-17T12:49:13Z</time>
</trkpt>
<trkpt lat="49.13916299119592" lon="8.331307992339134">
<ele>106.20000000000005</ele>
<time>2023-05-17T12:49:14Z</time>
</trkpt>
<trkpt lat="49.13920498453081" lon="8.331287959590554">
<ele>106.39999999999998</ele>
<time>2023-05-17T12:49:15Z</time>
</trkpt>
<trkpt lat="49.139246977865696" lon="8.331264993175864">
<ele>106.39999999999998</ele>
<time>2023-05-17T12:49:16Z</time>
</trkpt>
<trkpt lat="49.139289977028966" lon="8.331241942942142">
<ele>106.39999999999998</ele>
<time>2023-05-17T12:49:17Z</time>
</trkpt>
<trkpt lat="49.139334987849" lon="8.331216964870691">
<ele>106.39999999999998</ele>
<time>2023-05-17T12:49:18Z</time>
</trkpt>
<trkpt lat="49.13937798701227" lon="8.33119198679924">
<ele>106.39999999999998</ele>
<time>2023-05-17T12:49:19Z</time>
</trkpt>
<trkpt lat="49.13942492567003" lon="8.331162985414267">
<ele>106.39999999999998</ele>
<time>2023-05-17T12:49:20Z</time>
</trkpt>
<trkpt lat="49.13946993649006" lon="8.331134989857674">
<ele>106.39999999999998</ele>
<time>2023-05-17T12:49:21Z</time>
</trkpt>
<trkpt lat="49.13951192982495" lon="8.33110791631043">
<ele>106.39999999999998</ele>
<time>2023-05-17T12:49:22Z</time>
</trkpt>
<trkpt lat="49.13954998366535" lon="8.331082938238978">
<ele>106.39999999999998</ele>
<time>2023-05-17T12:49:23Z</time>
</trkpt>
<trkpt lat="49.139587953686714" lon="8.331052931025624">
<ele>106.39999999999998</ele>
<time>2023-05-17T12:49:24Z</time>
</trkpt>
<trkpt lat="49.139629947021604" lon="8.33101999014616">
<ele>106.60000000000002</ele>
<time>2023-05-17T12:49:25Z</time>
</trkpt>
<trkpt lat="49.139676969498396" lon="8.330987971276045">
<ele>106.60000000000002</ele>
<time>2023-05-17T12:49:26Z</time>
</trkpt>
<trkpt lat="49.139717957004905" lon="8.330959975719452">
<ele>106.60000000000002</ele>
<time>2023-05-17T12:49:27Z</time>
</trkpt>
<trkpt lat="49.139759950339794" lon="8.330927956849337">
<ele>106.60000000000002</ele>
<time>2023-05-17T12:49:28Z</time>
</trkpt>
<trkpt lat="49.13979993201792" lon="8.33088998682797">
<ele>106.60000000000002</ele>
<time>2023-05-17T12:49:29Z</time>
</trkpt>
<trkpt lat="49.13983999751508" lon="8.33085193298757">
<ele>106.79999999999995</ele>
<time>2023-05-17T12:49:30Z</time>
</trkpt>
<trkpt lat="49.13987796753645" lon="8.33080692216754">
<ele>106.79999999999995</ele>
<time>2023-05-17T12:49:31Z</time>
</trkpt>
<trkpt lat="49.1399169433862" lon="8.330757971853018">
<ele>106.79999999999995</ele>
<time>2023-05-17T12:49:32Z</time>
</trkpt>
<trkpt lat="49.139952985569835" lon="8.330709943547845">
<ele>106.79999999999995</ele>
<time>2023-05-17T12:49:33Z</time>
</trkpt>
<trkpt lat="49.13998994976282" lon="8.330666944384575">
<ele>106.79999999999995</ele>
<time>2023-05-17T12:49:34Z</time>
</trkpt>
<trkpt lat="49.14002993144095" lon="8.330619921907783">
<ele>106.79999999999995</ele>
<time>2023-05-17T12:49:35Z</time>
</trkpt>
<trkpt lat="49.14006697945297" lon="8.330571977421641">
<ele>106.79999999999995</ele>
<time>2023-05-17T12:49:36Z</time>
</trkpt>
<trkpt lat="49.14010293781757" lon="8.33052696660161">
<ele>106.79999999999995</ele>
<time>2023-05-17T12:49:37Z</time>
</trkpt>
<trkpt lat="49.14014199748635" lon="8.330477932468057">
<ele>106.79999999999995</ele>
<time>2023-05-17T12:49:38Z</time>
</trkpt>
<trkpt lat="49.14017996750772" lon="8.330427976325154">
<ele>106.79999999999995</ele>
<time>2023-05-17T12:49:39Z</time>
</trkpt>
<trkpt lat="49.14021693170071" lon="8.330371985211968">
<ele>106.79999999999995</ele>
<time>2023-05-17T12:49:40Z</time>
</trkpt>
<trkpt lat="49.140252973884344" lon="8.330316999927163">
<ele>106.79999999999995</ele>
<time>2023-05-17T12:49:41Z</time>
</trkpt>
<trkpt lat="49.14028993807733" lon="8.330264948308468">
<ele>106.79999999999995</ele>
<time>2023-05-17T12:49:42Z</time>
</trkpt>
<trkpt lat="49.14032296277583" lon="8.330212980508804">
<ele>106.79999999999995</ele>
<time>2023-05-17T12:49:43Z</time>
</trkpt>
<trkpt lat="49.140362944453955" lon="8.330159923061728">
<ele>106.79999999999995</ele>
<time>2023-05-17T12:49:44Z</time>
</trkpt>
<trkpt lat="49.14039999246597" lon="8.330109966918826">
<ele>106.79999999999995</ele>
<time>2023-05-17T12:49:45Z</time>
</trkpt>
<trkpt lat="49.1404399741441" lon="8.330056993290782">
<ele>106.79999999999995</ele>
<time>2023-05-17T12:49:46Z</time>
</trkpt>
<trkpt lat="49.14048196747899" lon="8.330001924186945">
<ele>106.79999999999995</ele>
<time>2023-05-17T12:49:47Z</time>
</trkpt>
<trkpt lat="49.14051993750036" lon="8.329952973872423">
<ele>106.79999999999995</ele>
<time>2023-05-17T12:49:48Z</time>
</trkpt>
<trkpt lat="49.140556985512376" lon="8.329907963052392">
<ele>106.79999999999995</ele>
<time>2023-05-17T12:49:49Z</time>
</trkpt>
<trkpt lat="49.14059294387698" lon="8.329857923090458">
<ele>106.79999999999995</ele>
<time>2023-05-17T12:49:50Z</time>
</trkpt>
<trkpt lat="49.140629991889" lon="8.329807966947556">
<ele>106.79999999999995</ele>
<time>2023-05-17T12:49:51Z</time>
</trkpt>
<trkpt lat="49.140666956081986" lon="8.32975692115724">
<ele>106.79999999999995</ele>
<time>2023-05-17T12:49:52Z</time>
</trkpt>
<trkpt lat="49.14070492610335" lon="8.329704953357577">
<ele>106.79999999999995</ele>
<time>2023-05-17T12:49:53Z</time>
</trkpt>
<trkpt lat="49.14074792526662" lon="8.329649968072772">
<ele>106.79999999999995</ele>
<time>2023-05-17T12:49:54Z</time>
</trkpt>
<trkpt lat="49.14078991860151" lon="8.329596994444728">
<ele>106.79999999999995</ele>
<time>2023-05-17T12:49:55Z</time>
</trkpt>
<trkpt lat="49.140831995755434" lon="8.32953698001802">
<ele>106.79999999999995</ele>
<time>2023-05-17T12:49:56Z</time>
</trkpt>
<trkpt lat="49.14087197743356" lon="8.329476965591311">
<ele>106.60000000000002</ele>
<time>2023-05-17T12:49:57Z</time>
</trkpt>
<trkpt lat="49.14090793579817" lon="8.329424997791648">
<ele>106.60000000000002</ele>
<time>2023-05-17T12:49:58Z</time>
</trkpt>
<trkpt lat="49.140944983810186" lon="8.329379986971617">
<ele>106.60000000000002</ele>
<time>2023-05-17T12:49:59Z</time>
</trkpt>
<trkpt lat="49.140984965488315" lon="8.329329947009683">
<ele>106.60000000000002</ele>
<time>2023-05-17T12:50:00Z</time>
</trkpt>
<trkpt lat="49.14102494716644" lon="8.329274961724877">
<ele>106.60000000000002</ele>
<time>2023-05-17T12:50:01Z</time>
</trkpt>
<trkpt lat="49.14106199517846" lon="8.329221988096833">
<ele>106.60000000000002</ele>
<time>2023-05-17T12:50:02Z</time>
</trkpt>
<trkpt lat="49.141092924401164" lon="8.329182928428054">
<ele>106.60000000000002</ele>
<time>2023-05-17T12:50:03Z</time>
</trkpt>
<trkpt lat="49.14112494327128" lon="8.329144958406687">
<ele>106.39999999999998</ele>
<time>2023-05-17T12:50:04Z</time>
</trkpt>
<trkpt lat="49.14115293882787" lon="8.329101959243417">
<ele>106.39999999999998</ele>
<time>2023-05-17T12:50:05Z</time>
</trkpt>
<trkpt lat="49.141181940212846" lon="8.329061977565289">
<ele>106.39999999999998</ele>
<time>2023-05-17T12:50:06Z</time>
</trkpt>
<trkpt lat="49.14120792411268" lon="8.32902291789651">
<ele>106.39999999999998</ele>
<time>2023-05-17T12:50:07Z</time>
</trkpt>
<trkpt lat="49.14123198017478" lon="8.328986959531903">
<ele>106.60000000000002</ele>
<time>2023-05-17T12:50:08Z</time>
</trkpt>
<trkpt lat="49.141261987388134" lon="8.328941948711872">
<ele>106.60000000000002</ele>
<time>2023-05-17T12:50:09Z</time>
</trkpt>
<trkpt lat="49.14129199460149" lon="8.328897943720222">
<ele>106.60000000000002</ele>
<time>2023-05-17T12:50:10Z</time>
</trkpt>
<trkpt lat="49.14131999015808" lon="8.32885192707181">
<ele>106.60000000000002</ele>
<time>2023-05-17T12:50:11Z</time>
</trkpt>
<trkpt lat="49.141347985714674" lon="8.328799959272146">
<ele>106.60000000000002</ele>
<time>2023-05-17T12:50:12Z</time>
</trkpt>
<trkpt lat="49.14138193242252" lon="8.328749919310212">
<ele>106.60000000000002</ele>
<time>2023-05-17T12:50:13Z</time>
</trkpt>
<trkpt lat="49.14141294546425" lon="8.328697951510549">
<ele>106.60000000000002</ele>
<time>2023-05-17T12:50:14Z</time>
</trkpt>
<trkpt lat="49.14144295267761" lon="8.328647995367646">
<ele>106.60000000000002</ele>
<time>2023-05-17T12:50:15Z</time>
</trkpt>
<trkpt lat="49.14147497154772" lon="8.32859493792057">
<ele>106.60000000000002</ele>
<time>2023-05-17T12:50:16Z</time>
</trkpt>
<trkpt lat="49.14150497876108" lon="8.328539952635765">
<ele>106.60000000000002</ele>
<time>2023-05-17T12:50:17Z</time>
</trkpt>
<trkpt lat="49.14153791964054" lon="8.328479938209057">
<ele>106.60000000000002</ele>
<time>2023-05-17T12:50:18Z</time>
</trkpt>
<trkpt lat="49.141569938510656" lon="8.328426964581013">
<ele>106.60000000000002</ele>
<time>2023-05-17T12:50:19Z</time>
</trkpt>
<trkpt lat="49.14160497486591" lon="8.328364938497543">
<ele>106.60000000000002</ele>
<time>2023-05-17T12:50:20Z</time>
</trkpt>
<trkpt lat="49.14164495654404" lon="8.328304924070835">
<ele>106.60000000000002</ele>
<time>2023-05-17T12:50:21Z</time>
</trkpt>
<trkpt lat="49.14167798124254" lon="8.32824993878603">
<ele>106.60000000000002</ele>
<time>2023-05-17T12:50:22Z</time>
</trkpt>
<trkpt lat="49.14171293377876" lon="8.328201994299889">
<ele>106.60000000000002</ele>
<time>2023-05-17T12:50:23Z</time>
</trkpt>
<trkpt lat="49.14174495264888" lon="8.328149942681193">
<ele>106.60000000000002</ele>
<time>2023-05-17T12:50:24Z</time>
</trkpt>
<trkpt lat="49.14177697151899" lon="8.328094957396388">
<ele>106.60000000000002</ele>
<time>2023-05-17T12:50:25Z</time>
</trkpt>
<trkpt lat="49.14180697873235" lon="8.328041983768344">
<ele>106.60000000000002</ele>
<time>2023-05-17T12:50:26Z</time>
</trkpt>
<trkpt lat="49.1418369859457" lon="8.327987920492887">
<ele>106.60000000000002</ele>
<time>2023-05-17T12:50:27Z</time>
</trkpt>
<trkpt lat="49.14186196401715" lon="8.327942993491888">
<ele>106.60000000000002</ele>
<time>2023-05-17T12:50:28Z</time>
</trkpt>
<trkpt lat="49.141889959573746" lon="8.327892953529954">
<ele>106.60000000000002</ele>
<time>2023-05-17T12:50:29Z</time>
</trkpt>
<trkpt lat="49.1419199667871" lon="8.327841991558671">
<ele>106.79999999999995</ele>
<time>2023-05-17T12:50:30Z</time>
</trkpt>
<trkpt lat="49.14194796234369" lon="8.327791951596737">
<ele>106.79999999999995</ele>
<time>2023-05-17T12:50:31Z</time>
</trkpt>
<trkpt lat="49.141972940415144" lon="8.327742917463183">
<ele>106.79999999999995</ele>
<time>2023-05-17T12:50:32Z</time>
</trkpt>
<trkpt lat="49.141997918486595" lon="8.327692961320281">
<ele>106.79999999999995</ele>
<time>2023-05-17T12:50:33Z</time>
</trkpt>
<trkpt lat="49.14202499203384" lon="8.327637976035476">
<ele>107</ele>
<time>2023-05-17T12:50:34Z</time>
</trkpt>
<trkpt lat="49.14205692708492" lon="8.327586930245161">
<ele>107</ele>
<time>2023-05-17T12:50:35Z</time>
</trkpt>
<trkpt lat="49.14208693429828" lon="8.3275399915874">
<ele>107</ele>
<time>2023-05-17T12:50:36Z</time>
</trkpt>
<trkpt lat="49.14211492985487" lon="8.327487939968705">
<ele>107</ele>
<time>2023-05-17T12:50:37Z</time>
</trkpt>
<trkpt lat="49.142147954553366" lon="8.327427925541997">
<ele>107</ele>
<time>2023-05-17T12:50:38Z</time>
</trkpt>
<trkpt lat="49.14218491874635" lon="8.32736799493432">
<ele>107</ele>
<time>2023-05-17T12:50:39Z</time>
</trkpt>
<trkpt lat="49.14221693761647" lon="8.327316949144006">
<ele>107</ele>
<time>2023-05-17T12:50:40Z</time>
</trkpt>
<trkpt lat="49.142252979800105" lon="8.32725995220244">
<ele>107</ele>
<time>2023-05-17T12:50:41Z</time>
</trkpt>
<trkpt lat="49.14228198118508" lon="8.327206978574395">
<ele>107</ele>
<time>2023-05-17T12:50:42Z</time>
</trkpt>
<trkpt lat="49.14231198839843" lon="8.3271549269557">
<ele>107</ele>
<time>2023-05-17T12:50:43Z</time>
</trkpt>
<trkpt lat="49.14234199561179" lon="8.327097930014133">
<ele>107</ele>
<time>2023-05-17T12:50:44Z</time>
</trkpt>
<trkpt lat="49.14237191900611" lon="8.327042944729328">
<ele>107</ele>
<time>2023-05-17T12:50:45Z</time>
</trkpt>
<trkpt lat="49.142399998381734" lon="8.326992988586426">
<ele>107</ele>
<time>2023-05-17T12:50:46Z</time>
</trkpt>
<trkpt lat="49.142426988109946" lon="8.326947977766395">
<ele>107</ele>
<time>2023-05-17T12:50:47Z</time>
</trkpt>
<trkpt lat="49.1424569953233" lon="8.32689693197608">
<ele>107</ele>
<time>2023-05-17T12:50:48Z</time>
</trkpt>
<trkpt lat="49.14248691871762" lon="8.326844964176416">
<ele>107</ele>
<time>2023-05-17T12:50:49Z</time>
</trkpt>
<trkpt lat="49.14251499809325" lon="8.326794924214482">
<ele>107</ele>
<time>2023-05-17T12:50:50Z</time>
</trkpt>
<trkpt lat="49.14254198782146" lon="8.326746979728341">
<ele>107</ele>
<time>2023-05-17T12:50:51Z</time>
</trkpt>
<trkpt lat="49.14256998337805" lon="8.326696939766407">
<ele>107</ele>
<time>2023-05-17T12:50:52Z</time>
</trkpt>
<trkpt lat="49.14259999059141" lon="8.326651928946376">
<ele>107</ele>
<time>2023-05-17T12:50:53Z</time>
</trkpt>
<trkpt lat="49.14262999780476" lon="8.326606918126345">
<ele>107</ele>
<time>2023-05-17T12:50:54Z</time>
</trkpt>
<trkpt lat="49.142657993361354" lon="8.326564924791455">
<ele>107</ele>
<time>2023-05-17T12:50:55Z</time>
</trkpt>
<trkpt lat="49.142687916755676" lon="8.326519997790456">
<ele>107</ele>
<time>2023-05-17T12:50:56Z</time>
</trkpt>
<trkpt lat="49.14271691814065" lon="8.326474986970425">
<ele>107</ele>
<time>2023-05-17T12:50:57Z</time>
</trkpt>
<trkpt lat="49.142744997516274" lon="8.326429976150393">
<ele>107</ele>
<time>2023-05-17T12:50:58Z</time>
</trkpt>
<trkpt lat="49.142767963930964" lon="8.32638194784522">
<ele>107</ele>
<time>2023-05-17T12:50:59Z</time>
</trkpt>
<trkpt lat="49.142789924517274" lon="8.326332997530699">
<ele>107</ele>
<time>2023-05-17T12:51:00Z</time>
</trkpt>
<trkpt lat="49.142812974750996" lon="8.326276922598481">
<ele>107</ele>
<time>2023-05-17T12:51:01Z</time>
</trkpt>
<trkpt lat="49.14283996447921" lon="8.326216991990805">
<ele>107</ele>
<time>2023-05-17T12:51:02Z</time>
</trkpt>
<trkpt lat="49.14287491701543" lon="8.326157983392477">
<ele>107</ele>
<time>2023-05-17T12:51:03Z</time>
</trkpt>
<trkpt lat="49.14290693588555" lon="8.326104925945401">
<ele>107</ele>
<time>2023-05-17T12:51:04Z</time>
</trkpt>
<trkpt lat="49.14293794892728" lon="8.326044995337725">
<ele>107</ele>
<time>2023-05-17T12:51:05Z</time>
</trkpt>
<trkpt lat="49.142964938655496" lon="8.325991937890649">
<ele>107</ele>
<time>2023-05-17T12:51:06Z</time>
</trkpt>
<trkpt lat="49.14299293421209" lon="8.325941981747746">
<ele>107</ele>
<time>2023-05-17T12:51:07Z</time>
</trkpt>
<trkpt lat="49.14301799610257" lon="8.325886996462941">
<ele>107</ele>
<time>2023-05-17T12:51:08Z</time>
</trkpt>
<trkpt lat="49.143046997487545" lon="8.325832933187485">
<ele>107</ele>
<time>2023-05-17T12:51:09Z</time>
</trkpt>
<trkpt lat="49.14307298138738" lon="8.325772918760777">
<ele>107</ele>
<time>2023-05-17T12:51:10Z</time>
</trkpt>
<trkpt lat="49.14309997111559" lon="8.32571692764759">
<ele>107</ele>
<time>2023-05-17T12:51:11Z</time>
</trkpt>
<trkpt lat="49.14312796667218" lon="8.325659930706024">
<ele>107.20000000000005</ele>
<time>2023-05-17T12:51:12Z</time>
</trkpt>
<trkpt lat="49.14315193891525" lon="8.325602933764458">
<ele>107.20000000000005</ele>
<time>2023-05-17T12:51:13Z</time>
</trkpt>
<trkpt lat="49.143176916986704" lon="8.32554493099451">
<ele>107.20000000000005</ele>
<time>2023-05-17T12:51:14Z</time>
</trkpt>
<trkpt lat="49.14320197887719" lon="8.325486928224564">
<ele>107.20000000000005</ele>
<time>2023-05-17T12:51:15Z</time>
</trkpt>
<trkpt lat="49.14322796277702" lon="8.325427919626236">
<ele>107.39999999999998</ele>
<time>2023-05-17T12:51:16Z</time>
</trkpt>
<trkpt lat="49.1432479955256" lon="8.325364971533418">
<ele>107.39999999999998</ele>
<time>2023-05-17T12:51:17Z</time>
</trkpt>
<trkpt lat="49.14326794445515" lon="8.32530495710671">
<ele>107.60000000000002</ele>
<time>2023-05-17T12:51:18Z</time>
</trkpt>
<trkpt lat="49.143286971375346" lon="8.325237985700369">
<ele>107.60000000000002</ele>
<time>2023-05-17T12:51:19Z</time>
</trkpt>
<trkpt lat="49.143306920304894" lon="8.325174953788519">
<ele>107.79999999999995</ele>
<time>2023-05-17T12:51:20Z</time>
</trkpt>
<trkpt lat="49.143326953053474" lon="8.325107982382178">
<ele>107.79999999999995</ele>
<time>2023-05-17T12:51:21Z</time>
</trkpt>
<trkpt lat="49.14333994500339" lon="8.32504796795547">
<ele>108</ele>
<time>2023-05-17T12:51:22Z</time>
</trkpt>
<trkpt lat="49.14335494861007" lon="8.324979990720749">
<ele>108</ele>
<time>2023-05-17T12:51:23Z</time>
</trkpt>
<trkpt lat="49.1433669347316" lon="8.324909918010235">
<ele>108.20000000000005</ele>
<time>2023-05-17T12:51:24Z</time>
</trkpt>
<trkpt lat="49.14337699301541" lon="8.324841940775514">
<ele>108.39999999999998</ele>
<time>2023-05-17T12:51:25Z</time>
</trkpt>
<trkpt lat="49.14338797330856" lon="8.324772957712412">
<ele>108.39999999999998</ele>
<time>2023-05-17T12:51:26Z</time>
</trkpt>
<trkpt lat="49.14340197108686" lon="8.324712943285704">
<ele>108.60000000000002</ele>
<time>2023-05-17T12:51:27Z</time>
</trkpt>
<trkpt lat="49.143412951380014" lon="8.324654940515757">
<ele>108.79999999999995</ele>
<time>2023-05-17T12:51:28Z</time>
</trkpt>
<trkpt lat="49.14342493750155" lon="8.324591992422938">
<ele>109</ele>
<time>2023-05-17T12:51:29Z</time>
</trkpt>
<trkpt lat="49.143434995785356" lon="8.32453197799623">
<ele>109.20000000000005</ele>
<time>2023-05-17T12:51:30Z</time>
</trkpt>
<trkpt lat="49.14344295859337" lon="8.324476992711425">
<ele>109.20000000000005</ele>
<time>2023-05-17T12:51:31Z</time>
</trkpt>
<trkpt lat="49.14345192722976" lon="8.324416978284717">
<ele>109.39999999999998</ele>
<time>2023-05-17T12:51:32Z</time>
</trkpt>
<trkpt lat="49.14345997385681" lon="8.32435998134315">
<ele>109.60000000000002</ele>
<time>2023-05-17T12:51:33Z</time>
</trkpt>
<trkpt lat="49.14346693083644" lon="8.324302984401584">
<ele>109.79999999999995</ele>
<time>2023-05-17T12:51:34Z</time>
</trkpt>
<trkpt lat="49.14347296580672" lon="8.324249926954508">
<ele>110</ele>
<time>2023-05-17T12:51:35Z</time>
</trkpt>
<trkpt lat="49.1434829402715" lon="8.32418798469007">
<ele>110</ele>
<time>2023-05-17T12:51:36Z</time>
</trkpt>
<trkpt lat="49.1434929985553" lon="8.324132999405265">
<ele>110.20000000000005</ele>
<time>2023-05-17T12:51:37Z</time>
</trkpt>
<trkpt lat="49.143501967191696" lon="8.324074996635318">
<ele>110.39999999999998</ele>
<time>2023-05-17T12:51:38Z</time>
</trkpt>
<trkpt lat="49.14350992999971" lon="8.324017999693751">
<ele>110.60000000000002</ele>
<time>2023-05-17T12:51:39Z</time>
</trkpt>
<trkpt lat="49.143517976626754" lon="8.323961924761534">
<ele>110.79999999999995</ele>
<time>2023-05-17T12:51:40Z</time>
</trkpt>
<trkpt lat="49.14352795109153" lon="8.323902999982238">
<ele>111</ele>
<time>2023-05-17T12:51:41Z</time>
</trkpt>
<trkpt lat="49.1435379255563" lon="8.323841979727149">
<ele>111.20000000000005</ele>
<time>2023-05-17T12:51:42Z</time>
</trkpt>
<trkpt lat="49.14354798384011" lon="8.323784982785583">
<ele>111.39999999999998</ele>
<time>2023-05-17T12:51:43Z</time>
</trkpt>
<trkpt lat="49.14355494081974" lon="8.323732931166887">
<ele>111.60000000000002</ele>
<time>2023-05-17T12:51:44Z</time>
</trkpt>
<trkpt lat="49.143564999103546" lon="8.323677945882082">
<ele>111.79999999999995</ele>
<time>2023-05-17T12:51:45Z</time>
</trkpt>
<trkpt lat="49.14357991889119" lon="8.323614997789264">
<ele>112</ele>
<time>2023-05-17T12:51:46Z</time>
</trkpt>
<trkpt lat="49.14359198883176" lon="8.323556995019317">
<ele>112.20000000000005</ele>
<time>2023-05-17T12:51:47Z</time>
</trkpt>
<trkpt lat="49.14360196329653" lon="8.323494968935847">
<ele>112.39999999999998</ele>
<time>2023-05-17T12:51:48Z</time>
</trkpt>
<trkpt lat="49.14361193776131" lon="8.323431937023997">
<ele>112.60000000000002</ele>
<time>2023-05-17T12:51:49Z</time>
</trkpt>
<trkpt lat="49.14362199604511" lon="8.323366977274418">
<ele>112.79999999999995</ele>
<time>2023-05-17T12:51:50Z</time>
</trkpt>
<trkpt lat="49.143627947196364" lon="8.323304951190948">
<ele>113</ele>
<time>2023-05-17T12:51:51Z</time>
</trkpt>
<trkpt lat="49.14363792166114" lon="8.323241919279099">
<ele>113.20000000000005</ele>
<time>2023-05-17T12:51:52Z</time>
</trkpt>
<trkpt lat="49.143651919439435" lon="8.323181988671422">
<ele>113.39999999999998</ele>
<time>2023-05-17T12:51:53Z</time>
</trkpt>
<trkpt lat="49.14365996606648" lon="8.323126919567585">
<ele>113.60000000000002</ele>
<time>2023-05-17T12:51:54Z</time>
</trkpt>
<trkpt lat="49.14366792887449" lon="8.323074951767921">
<ele>113.79999999999995</ele>
<time>2023-05-17T12:51:55Z</time>
</trkpt>
<trkpt lat="49.14367496967316" lon="8.323022983968258">
<ele>113.79999999999995</ele>
<time>2023-05-17T12:51:56Z</time>
</trkpt>
<trkpt lat="49.14368494413793" lon="8.322966992855072">
<ele>114</ele>
<time>2023-05-17T12:51:57Z</time>
</trkpt>
<trkpt lat="49.143692990764976" lon="8.322914941236377">
<ele>114.20000000000005</ele>
<time>2023-05-17T12:51:58Z</time>
</trkpt>
<trkpt lat="49.14369994774461" lon="8.322869930416346">
<ele>114.39999999999998</ele>
<time>2023-05-17T12:51:59Z</time>
</trkpt>
<trkpt lat="49.14370296522975" lon="8.322829948738217">
<ele>114.60000000000002</ele>
<time>2023-05-17T12:52:00Z</time>
</trkpt>
<trkpt lat="49.14371193386614" lon="8.322787955403328">
<ele>114.60000000000002</ele>
<time>2023-05-17T12:52:01Z</time>
</trkpt>
<trkpt lat="49.14372299797833" lon="8.322739927098155">
<ele>114.79999999999995</ele>
<time>2023-05-17T12:52:02Z</time>
</trkpt>
<trkpt lat="49.143734984099865" lon="8.322687959298491">
<ele>115</ele>
<time>2023-05-17T12:52:03Z</time>
</trkpt>
<trkpt lat="49.1437469702214" lon="8.322634985670447">
<ele>115.20000000000005</ele>
<time>2023-05-17T12:52:04Z</time>
</trkpt>
<trkpt lat="49.143757950514555" lon="8.3225769829005">
<ele>115.20000000000005</ele>
<time>2023-05-17T12:52:05Z</time>
</trkpt>
<trkpt lat="49.14376691915095" lon="8.322517974302173">
<ele>115.39999999999998</ele>
<time>2023-05-17T12:52:06Z</time>
</trkpt>
<trkpt lat="49.14377496577799" lon="8.322459971532226">
<ele>115.60000000000002</ele>
<time>2023-05-17T12:52:07Z</time>
</trkpt>
<trkpt lat="49.143782928586006" lon="8.32240297459066">
<ele>115.60000000000002</ele>
<time>2023-05-17T12:52:08Z</time>
</trkpt>
<trkpt lat="49.14379198104143" lon="8.322349917143583">
<ele>115.79999999999995</ele>
<time>2023-05-17T12:52:09Z</time>
</trkpt>
<trkpt lat="49.14379793219268" lon="8.32229794934392">
<ele>116</ele>
<time>2023-05-17T12:52:10Z</time>
</trkpt>
<trkpt lat="49.14380799047649" lon="8.322244975715876">
<ele>116</ele>
<time>2023-05-17T12:52:11Z</time>
</trkpt>
<trkpt lat="49.14381796494126" lon="8.32218999043107">
<ele>116.20000000000005</ele>
<time>2023-05-17T12:52:12Z</time>
</trkpt>
<trkpt lat="49.14382793940604" lon="8.322134921327233">
<ele>116.20000000000005</ele>
<time>2023-05-17T12:52:13Z</time>
</trkpt>
<trkpt lat="49.14383799768984" lon="8.322076918557286">
<ele>116.39999999999998</ele>
<time>2023-05-17T12:52:14Z</time>
</trkpt>
<trkpt lat="49.14384797215462" lon="8.32201698794961">
<ele>116.39999999999998</ele>
<time>2023-05-17T12:52:15Z</time>
</trkpt>
<trkpt lat="49.14385694079101" lon="8.321957979351282">
<ele>116.60000000000002</ele>
<time>2023-05-17T12:52:16Z</time>
</trkpt>
<trkpt lat="49.14386699907482" lon="8.321899976581335">
<ele>116.60000000000002</ele>
<time>2023-05-17T12:52:17Z</time>
</trkpt>
<trkpt lat="49.14387496188283" lon="8.321842979639769">
<ele>116.60000000000002</ele>
<time>2023-05-17T12:52:18Z</time>
</trkpt>
<trkpt lat="49.14388292469084" lon="8.321786988526583">
<ele>116.60000000000002</ele>
<time>2023-05-17T12:52:19Z</time>
</trkpt>
<trkpt lat="49.14388996548951" lon="8.321731919422746">
<ele>116.79999999999995</ele>
<time>2023-05-17T12:52:20Z</time>
</trkpt>
<trkpt lat="49.14389993995428" lon="8.321677939966321">
<ele>116.79999999999995</ele>
<time>2023-05-17T12:52:21Z</time>
</trkpt>
<trkpt lat="49.1439129319042" lon="8.321621948853135">
<ele>116.79999999999995</ele>
<time>2023-05-17T12:52:22Z</time>
</trkpt>
<trkpt lat="49.143922990188" lon="8.321561934426427">
<ele>116.79999999999995</ele>
<time>2023-05-17T12:52:23Z</time>
</trkpt>
<trkpt lat="49.143931958824396" lon="8.32149999216199">
<ele>116.79999999999995</ele>
<time>2023-05-17T12:52:24Z</time>
</trkpt>
<trkpt lat="49.14393799379468" lon="8.321439977735281">
<ele>116.79999999999995</ele>
<time>2023-05-17T12:52:25Z</time>
</trkpt>
<trkpt lat="49.14394293911755" lon="8.321377951651812">
<ele>116.79999999999995</ele>
<time>2023-05-17T12:52:26Z</time>
</trkpt>
<trkpt lat="49.143951991572976" lon="8.321316931396723">
<ele>116.79999999999995</ele>
<time>2023-05-17T12:52:27Z</time>
</trkpt>
<trkpt lat="49.14395693689585" lon="8.321252977475524">
<ele>116.79999999999995</ele>
<time>2023-05-17T12:52:28Z</time>
</trkpt>
<trkpt lat="49.14396297186613" lon="8.321186928078532">
<ele>116.79999999999995</ele>
<time>2023-05-17T12:52:29Z</time>
</trkpt>
<trkpt lat="49.14396992884576" lon="8.321122974157333">
<ele>116.79999999999995</ele>
<time>2023-05-17T12:52:30Z</time>
</trkpt>
<trkpt lat="49.14397696964443" lon="8.321052985265851">
<ele>116.79999999999995</ele>
<time>2023-05-17T12:52:31Z</time>
</trkpt>
<trkpt lat="49.14398199878633" lon="8.32098794169724">
<ele>116.79999999999995</ele>
<time>2023-05-17T12:52:32Z</time>
</trkpt>
<trkpt lat="49.1439869441092" lon="8.32092197611928">
<ele>116.79999999999995</ele>
<time>2023-05-17T12:52:33Z</time>
</trkpt>
<trkpt lat="49.143994990736246" lon="8.320852993056178">
<ele>116.79999999999995</ele>
<time>2023-05-17T12:52:34Z</time>
</trkpt>
<trkpt lat="49.14400194771588" lon="8.320784932002425">
<ele>116.79999999999995</ele>
<time>2023-05-17T12:52:35Z</time>
</trkpt>
<trkpt lat="49.14400697685778" lon="8.320716954767704">
<ele>116.79999999999995</ele>
<time>2023-05-17T12:52:36Z</time>
</trkpt>
<trkpt lat="49.14401192218065" lon="8.320647971704602">
<ele>116.60000000000002</ele>
<time>2023-05-17T12:52:37Z</time>
</trkpt>
<trkpt lat="49.144014939665794" lon="8.32058192230761">
<ele>116.60000000000002</ele>
<time>2023-05-17T12:52:38Z</time>
</trkpt>
<trkpt lat="49.14402198046446" lon="8.320512939244509">
<ele>116.60000000000002</ele>
<time>2023-05-17T12:52:39Z</time>
</trkpt>
<trkpt lat="49.14402298629284" lon="8.32045191898942">
<ele>116.60000000000002</ele>
<time>2023-05-17T12:52:40Z</time>
</trkpt>
<trkpt lat="49.14402793161571" lon="8.320389976724982">
<ele>116.60000000000002</ele>
<time>2023-05-17T12:52:41Z</time>
</trkpt>
<trkpt lat="49.14402793161571" lon="8.320327950641513">
<ele>116.60000000000002</ele>
<time>2023-05-17T12:52:42Z</time>
</trkpt>
<trkpt lat="49.144034972414374" lon="8.320267936214805">
<ele>116.60000000000002</ele>
<time>2023-05-17T12:52:43Z</time>
</trkpt>
<trkpt lat="49.144039917737246" lon="8.320206999778748">
<ele>116.39999999999998</ele>
<time>2023-05-17T12:52:44Z</time>
</trkpt>
<trkpt lat="49.14404796436429" lon="8.32014698535204">
<ele>116.39999999999998</ele>
<time>2023-05-17T12:52:45Z</time>
</trkpt>
<trkpt lat="49.14405492134392" lon="8.32008495926857">
<ele>116.39999999999998</ele>
<time>2023-05-17T12:52:46Z</time>
</trkpt>
<trkpt lat="49.144059950485826" lon="8.32002192735672">
<ele>116.39999999999998</ele>
<time>2023-05-17T12:52:47Z</time>
</trkpt>
<trkpt lat="49.14406296797097" lon="8.31995696760714">
<ele>116.39999999999998</ele>
<time>2023-05-17T12:52:48Z</time>
</trkpt>
<trkpt lat="49.14406799711287" lon="8.31989192403853">
<ele>116.39999999999998</ele>
<time>2023-05-17T12:52:49Z</time>
</trkpt>
<trkpt lat="49.1440749540925" lon="8.319831993430853">
<ele>116.39999999999998</ele>
<time>2023-05-17T12:52:50Z</time>
</trkpt>
<trkpt lat="49.144079983234406" lon="8.319772984832525">
<ele>116.39999999999998</ele>
<time>2023-05-17T12:52:51Z</time>
</trkpt>
<trkpt lat="49.144079983234406" lon="8.319714982062578">
<ele>116.39999999999998</ele>
<time>2023-05-17T12:52:52Z</time>
</trkpt>
<trkpt lat="49.14408199489117" lon="8.319656979292631">
<ele>116.39999999999998</ele>
<time>2023-05-17T12:52:53Z</time>
</trkpt>
<trkpt lat="49.14408199489117" lon="8.319596964865923">
<ele>116.39999999999998</ele>
<time>2023-05-17T12:52:54Z</time>
</trkpt>
<trkpt lat="49.14408199489117" lon="8.319537956267595">
<ele>116.39999999999998</ele>
<time>2023-05-17T12:52:55Z</time>
</trkpt>
<trkpt lat="49.144077971577644" lon="8.319479953497648">
<ele>116.39999999999998</ele>
<time>2023-05-17T12:52:56Z</time>
</trkpt>
<trkpt lat="49.144076965749264" lon="8.319421950727701">
<ele>116.39999999999998</ele>
<time>2023-05-17T12:52:57Z</time>
</trkpt>
<trkpt lat="49.144077971577644" lon="8.319362942129374">
<ele>116.39999999999998</ele>
<time>2023-05-17T12:52:58Z</time>
</trkpt>
<trkpt lat="49.144079983234406" lon="8.319302927702665">
<ele>116.39999999999998</ele>
<time>2023-05-17T12:52:59Z</time>
</trkpt>
<trkpt lat="49.144079983234406" lon="8.319242997094989">
<ele>116.39999999999998</ele>
<time>2023-05-17T12:53:00Z</time>
</trkpt>
<trkpt lat="49.144082916900516" lon="8.319179965183139">
<ele>116.20000000000005</ele>
<time>2023-05-17T12:53:01Z</time>
</trkpt>
<trkpt lat="49.14408199489117" lon="8.319114921614528">
<ele>116.20000000000005</ele>
<time>2023-05-17T12:53:02Z</time>
</trkpt>
<trkpt lat="49.144077971577644" lon="8.319047950208187">
<ele>116.20000000000005</ele>
<time>2023-05-17T12:53:03Z</time>
</trkpt>
<trkpt lat="49.1440749540925" lon="8.318982990458608">
<ele>116.20000000000005</ele>
<time>2023-05-17T12:53:04Z</time>
</trkpt>
<trkpt lat="49.1440699249506" lon="8.318917946889997">
<ele>116</ele>
<time>2023-05-17T12:53:05Z</time>
</trkpt>
<trkpt lat="49.14406497962773" lon="8.318852987140417">
<ele>116</ele>
<time>2023-05-17T12:53:06Z</time>
</trkpt>
<trkpt lat="49.144057938829064" lon="8.318789955228567">
<ele>116</ele>
<time>2023-05-17T12:53:07Z</time>
</trkpt>
<trkpt lat="49.14404997602105" lon="8.318726923316717">
<ele>115.79999999999995</ele>
<time>2023-05-17T12:53:08Z</time>
</trkpt>
<trkpt lat="49.14404293522239" lon="8.318659951910377">
<ele>115.79999999999995</ele>
<time>2023-05-17T12:53:09Z</time>
</trkpt>
<trkpt lat="49.144039917737246" lon="8.318592980504036">
<ele>115.79999999999995</ele>
<time>2023-05-17T12:53:10Z</time>
</trkpt>
<trkpt lat="49.144037989899516" lon="8.318526931107044">
<ele>115.79999999999995</ele>
<time>2023-05-17T12:53:11Z</time>
</trkpt>
<trkpt lat="49.144039917737246" lon="8.318462977185845">
<ele>115.79999999999995</ele>
<time>2023-05-17T12:53:12Z</time>
</trkpt>
<trkpt lat="49.144039917737246" lon="8.318396927788854">
<ele>115.79999999999995</ele>
<time>2023-05-17T12:53:13Z</time>
</trkpt>
<trkpt lat="49.14404293522239" lon="8.318329956382513">
<ele>115.79999999999995</ele>
<time>2023-05-17T12:53:14Z</time>
</trkpt>
<trkpt lat="49.14404494687915" lon="8.31825996749103">
<ele>115.79999999999995</ele>
<time>2023-05-17T12:53:15Z</time>
</trkpt>
<trkpt lat="49.14404695853591" lon="8.31819299608469">
<ele>115.79999999999995</ele>
<time>2023-05-17T12:53:16Z</time>
</trkpt>
<trkpt lat="49.14404796436429" lon="8.318122923374176">
<ele>115.79999999999995</ele>
<time>2023-05-17T12:53:17Z</time>
</trkpt>
<trkpt lat="49.14404997602105" lon="8.318056957796216">
<ele>115.79999999999995</ele>
<time>2023-05-17T12:53:18Z</time>
</trkpt>
<trkpt lat="49.14405198767781" lon="8.317987974733114">
<ele>115.79999999999995</ele>
<time>2023-05-17T12:53:19Z</time>
</trkpt>
<trkpt lat="49.14405299350619" lon="8.317916980013251">
<ele>115.79999999999995</ele>
<time>2023-05-17T12:53:20Z</time>
</trkpt>
<trkpt lat="49.14405198767781" lon="8.317846991121769">
<ele>115.79999999999995</ele>
<time>2023-05-17T12:53:21Z</time>
</trkpt>
<trkpt lat="49.14405198767781" lon="8.317774990573525">
<ele>115.79999999999995</ele>
<time>2023-05-17T12:53:22Z</time>
</trkpt>
<trkpt lat="49.14405299350619" lon="8.317702990025282">
<ele>115.79999999999995</ele>
<time>2023-05-17T12:53:23Z</time>
</trkpt>
<trkpt lat="49.14405492134392" lon="8.317634928971529">
<ele>115.79999999999995</ele>
<time>2023-05-17T12:53:24Z</time>
</trkpt>
<trkpt lat="49.144056933000684" lon="8.317566951736808">
<ele>115.79999999999995</ele>
<time>2023-05-17T12:53:25Z</time>
</trkpt>
<trkpt lat="49.144056933000684" lon="8.317496962845325">
<ele>115.79999999999995</ele>
<time>2023-05-17T12:53:26Z</time>
</trkpt>
<trkpt lat="49.14405299350619" lon="8.317424962297082">
<ele>115.79999999999995</ele>
<time>2023-05-17T12:53:27Z</time>
</trkpt>
<trkpt lat="49.14404695853591" lon="8.317361930385232">
<ele>115.79999999999995</ele>
<time>2023-05-17T12:53:28Z</time>
</trkpt>
<trkpt lat="49.14404293522239" lon="8.317296970635653">
<ele>115.60000000000002</ele>
<time>2023-05-17T12:53:29Z</time>
</trkpt>
<trkpt lat="49.14404192939401" lon="8.317229999229312">
<ele>115.60000000000002</ele>
<time>2023-05-17T12:53:30Z</time>
</trkpt>
<trkpt lat="49.14404293522239" lon="8.31716294400394">
<ele>115.60000000000002</ele>
<time>2023-05-17T12:53:31Z</time>
</trkpt>
<trkpt lat="49.14404494687915" lon="8.317092955112457">
<ele>115.60000000000002</ele>
<time>2023-05-17T12:53:32Z</time>
</trkpt>
<trkpt lat="49.14404695853591" lon="8.317021960392594">
<ele>115.39999999999998</ele>
<time>2023-05-17T12:53:33Z</time>
</trkpt>
<trkpt lat="49.14404494687915" lon="8.316944930702448">
<ele>115.39999999999998</ele>
<time>2023-05-17T12:53:34Z</time>
</trkpt>
<trkpt lat="49.14404796436429" lon="8.316867984831333">
<ele>115.39999999999998</ele>
<time>2023-05-17T12:53:35Z</time>
</trkpt>
<trkpt lat="49.14405198767781" lon="8.316792966797948">
<ele>115.39999999999998</ele>
<time>2023-05-17T12:53:36Z</time>
</trkpt>
<trkpt lat="49.14405299350619" lon="8.316719960421324">
<ele>115.39999999999998</ele>
<time>2023-05-17T12:53:37Z</time>
</trkpt>
<trkpt lat="49.14405198767781" lon="8.3166469540447">
<ele>115.39999999999998</ele>
<time>2023-05-17T12:53:38Z</time>
</trkpt>
<trkpt lat="49.14404997602105" lon="8.316576965153217">
<ele>115.39999999999998</ele>
<time>2023-05-17T12:53:39Z</time>
</trkpt>
<trkpt lat="49.14404695853591" lon="8.316506976261735">
<ele>115.39999999999998</ele>
<time>2023-05-17T12:53:40Z</time>
</trkpt>
<trkpt lat="49.14404494687915" lon="8.316436987370253">
<ele>115.39999999999998</ele>
<time>2023-05-17T12:53:41Z</time>
</trkpt>
<trkpt lat="49.14404293522239" lon="8.316364986822009">
<ele>115.39999999999998</ele>
<time>2023-05-17T12:53:42Z</time>
</trkpt>
<trkpt lat="49.14404494687915" lon="8.316291980445385">
<ele>115.39999999999998</ele>
<time>2023-05-17T12:53:43Z</time>
</trkpt>
<trkpt lat="49.144056933000684" lon="8.316226936876774">
<ele>115.39999999999998</ele>
<time>2023-05-17T12:53:44Z</time>
</trkpt>
<trkpt lat="49.14408794604242" lon="8.316166922450066">
<ele>115.39999999999998</ele>
<time>2023-05-17T12:53:45Z</time>
</trkpt>
<trkpt lat="49.14411493577063" lon="8.316106991842389">
<ele>115.20000000000005</ele>
<time>2023-05-17T12:53:46Z</time>
</trkpt>
<trkpt lat="49.144144942983985" lon="8.316047983244061">
<ele>115.20000000000005</ele>
<time>2023-05-17T12:53:47Z</time>
</trkpt>
<trkpt lat="49.14417796768248" lon="8.315994925796986">
<ele>115.20000000000005</ele>
<time>2023-05-17T12:53:48Z</time>
</trkpt>
<trkpt lat="49.144212920218706" lon="8.31593994051218">
<ele>115.20000000000005</ele>
<time>2023-05-17T12:53:49Z</time>
</trkpt>
<trkpt lat="49.14424795657396" lon="8.315881937742233">
<ele>115.20000000000005</ele>
<time>2023-05-17T12:53:50Z</time>
</trkpt>
<trkpt lat="49.14428492076695" lon="8.315816977992654">
<ele>115</ele>
<time>2023-05-17T12:53:51Z</time>
</trkpt>
<trkpt lat="49.14432297460735" lon="8.315749922767282">
<ele>115</ele>
<time>2023-05-17T12:53:52Z</time>
</trkpt>
<trkpt lat="49.144359938800335" lon="8.315684963017702">
<ele>114.79999999999995</ele>
<time>2023-05-17T12:53:53Z</time>
</trkpt>
<trkpt lat="49.144397992640734" lon="8.315621931105852">
<ele>114.79999999999995</ele>
<time>2023-05-17T12:53:54Z</time>
</trkpt>
<trkpt lat="49.14443495683372" lon="8.315556971356273">
<ele>114.60000000000002</ele>
<time>2023-05-17T12:53:55Z</time>
</trkpt>
<trkpt lat="49.144466975703835" lon="8.315487988293171">
<ele>114.39999999999998</ele>
<time>2023-05-17T12:53:56Z</time>
</trkpt>
<trkpt lat="49.14449798874557" lon="8.315416993573308">
<ele>114.20000000000005</ele>
<time>2023-05-17T12:53:57Z</time>
</trkpt>
<trkpt lat="49.144531935453415" lon="8.315347926691175">
<ele>114</ele>
<time>2023-05-17T12:53:58Z</time>
</trkpt>
<trkpt lat="49.14456797763705" lon="8.315282966941595">
<ele>113.79999999999995</ele>
<time>2023-05-17T12:53:59Z</time>
</trkpt>
<trkpt lat="49.14460795931518" lon="8.315221946686506">
<ele>113.79999999999995</ele>
<time>2023-05-17T12:54:00Z</time>
</trkpt>
<trkpt lat="49.14464794099331" lon="8.315161932259798">
<ele>113.60000000000002</ele>
<time>2023-05-17T12:54:01Z</time>
</trkpt>
<trkpt lat="49.14468498900533" lon="8.315106946974993">
<ele>113.39999999999998</ele>
<time>2023-05-17T12:54:02Z</time>
</trkpt>
<trkpt lat="49.144721953198314" lon="8.315052967518568">
<ele>113.20000000000005</ele>
<time>2023-05-17T12:54:03Z</time>
</trkpt>
<trkpt lat="49.14475497789681" lon="8.315001921728253">
<ele>113</ele>
<time>2023-05-17T12:54:04Z</time>
</trkpt>
<trkpt lat="49.144789930433035" lon="8.314952971413732">
<ele>112.79999999999995</ele>
<time>2023-05-17T12:54:05Z</time>
</trkpt>
<trkpt lat="49.144827984273434" lon="8.314902931451797">
<ele>112.79999999999995</ele>
<time>2023-05-17T12:54:06Z</time>
</trkpt>
<trkpt lat="49.14486796595156" lon="8.314856998622417">
<ele>112.60000000000002</ele>
<time>2023-05-17T12:54:07Z</time>
</trkpt>
<trkpt lat="49.14490291848779" lon="8.314811987802386">
<ele>112.39999999999998</ele>
<time>2023-05-17T12:54:08Z</time>
</trkpt>
<trkpt lat="49.14493191987276" lon="8.314766976982355">
<ele>112.20000000000005</ele>
<time>2023-05-17T12:54:09Z</time>
</trkpt>
<trkpt lat="49.14496695622802" lon="8.314719954505563">
<ele>112</ele>
<time>2023-05-17T12:54:10Z</time>
</trkpt>
<trkpt lat="49.14499696344137" lon="8.314681984484196">
<ele>111.79999999999995</ele>
<time>2023-05-17T12:54:11Z</time>
</trkpt>
<trkpt lat="49.14501992985606" lon="8.31464795395732">
<ele>111.79999999999995</ele>
<time>2023-05-17T12:54:12Z</time>
</trkpt>
<trkpt lat="49.1450419742614" lon="8.314617946743965">
<ele>111.60000000000002</ele>
<time>2023-05-17T12:54:13Z</time>
</trkpt>
<trkpt lat="49.14506494067609" lon="8.314589951187372">
<ele>111.60000000000002</ele>
<time>2023-05-17T12:54:14Z</time>
</trkpt>
<trkpt lat="49.145086985081434" lon="8.31456296145916">
<ele>111.60000000000002</ele>
<time>2023-05-17T12:54:15Z</time>
</trkpt>
<trkpt lat="49.14510793983936" lon="8.314534965902567">
<ele>111.60000000000002</ele>
<time>2023-05-17T12:54:16Z</time>
</trkpt>
<trkpt lat="49.145129984244704" lon="8.314506970345974">
<ele>111.39999999999998</ele>
<time>2023-05-17T12:54:17Z</time>
</trkpt>
<trkpt lat="49.145152950659394" lon="8.314472939819098">
<ele>111.39999999999998</ele>
<time>2023-05-17T12:54:18Z</time>
</trkpt>
<trkpt lat="49.145177928730845" lon="8.314446955919266">
<ele>111.39999999999998</ele>
<time>2023-05-17T12:54:19Z</time>
</trkpt>
<trkpt lat="49.14520299062133" lon="8.31441292539239">
<ele>111.39999999999998</ele>
<time>2023-05-17T12:54:20Z</time>
</trkpt>
<trkpt lat="49.14522796869278" lon="8.314376967027783">
<ele>111.39999999999998</ele>
<time>2023-05-17T12:54:21Z</time>
</trkpt>
<trkpt lat="49.14525294676423" lon="8.314344948157668">
<ele>111.39999999999998</ele>
<time>2023-05-17T12:54:22Z</time>
</trkpt>
<trkpt lat="49.14527792483568" lon="8.314311923459172">
<ele>111.39999999999998</ele>
<time>2023-05-17T12:54:23Z</time>
</trkpt>
<trkpt lat="49.145304998382926" lon="8.314274959266186">
<ele>111.39999999999998</ele>
<time>2023-05-17T12:54:24Z</time>
</trkpt>
<trkpt lat="49.14533299393952" lon="8.3142379950732">
<ele>111.39999999999998</ele>
<time>2023-05-17T12:54:25Z</time>
</trkpt>
<trkpt lat="49.14535998366773" lon="8.3141999412328">
<ele>111.39999999999998</ele>
<time>2023-05-17T12:54:26Z</time>
</trkpt>
<trkpt lat="49.145386973395944" lon="8.314164988696575">
<ele>111.60000000000002</ele>
<time>2023-05-17T12:54:27Z</time>
</trkpt>
<trkpt lat="49.145412957295775" lon="8.314126934856176">
<ele>111.60000000000002</ele>
<time>2023-05-17T12:54:28Z</time>
</trkpt>
<trkpt lat="49.14543793536723" lon="8.314082929864526">
<ele>111.60000000000002</ele>
<time>2023-05-17T12:54:29Z</time>
</trkpt>
<trkpt lat="49.1454669367522" lon="8.314044959843159">
<ele>111.60000000000002</ele>
<time>2023-05-17T12:54:30Z</time>
</trkpt>
<trkpt lat="49.14549493230879" lon="8.314009923487902">
<ele>111.79999999999995</ele>
<time>2023-05-17T12:54:31Z</time>
</trkpt>
<trkpt lat="49.145521922037005" lon="8.313969941809773">
<ele>111.79999999999995</ele>
<time>2023-05-17T12:54:32Z</time>
</trkpt>
<trkpt lat="49.14554698392749" lon="8.313924930989742">
<ele>112</ele>
<time>2023-05-17T12:54:33Z</time>
</trkpt>
<trkpt lat="49.14557497948408" lon="8.313879920169711">
<ele>112</ele>
<time>2023-05-17T12:54:34Z</time>
</trkpt>
<trkpt lat="49.145601969212294" lon="8.313837926834822">
<ele>112.20000000000005</ele>
<time>2023-05-17T12:54:35Z</time>
</trkpt>
<trkpt lat="49.14563197642565" lon="8.313796939328313">
<ele>112.20000000000005</ele>
<time>2023-05-17T12:54:36Z</time>
</trkpt>
<trkpt lat="49.145661983639" lon="8.313757963478565">
<ele>112.39999999999998</ele>
<time>2023-05-17T12:54:37Z</time>
</trkpt>
<trkpt lat="49.145691990852356" lon="8.313716975972056">
<ele>112.39999999999998</ele>
<time>2023-05-17T12:54:38Z</time>
</trkpt>
<trkpt lat="49.14572199806571" lon="8.313677916303277">
<ele>112.60000000000002</ele>
<time>2023-05-17T12:54:39Z</time>
</trkpt>
<trkpt lat="49.145754938945174" lon="8.313641957938671">
<ele>112.60000000000002</ele>
<time>2023-05-17T12:54:40Z</time>
</trkpt>
<trkpt lat="49.14578695781529" lon="8.313602982088923">
<ele>112.60000000000002</ele>
<time>2023-05-17T12:54:41Z</time>
</trkpt>
<trkpt lat="49.14582199417055" lon="8.313567945733666">
<ele>112.79999999999995</ele>
<time>2023-05-17T12:54:42Z</time>
</trkpt>
<trkpt lat="49.14585493505001" lon="8.3135299757123">
<ele>112.79999999999995</ele>
<time>2023-05-17T12:54:43Z</time>
</trkpt>
<trkpt lat="49.14588795974851" lon="8.3134919218719">
<ele>113</ele>
<time>2023-05-17T12:54:44Z</time>
</trkpt>
<trkpt lat="49.14592199027538" lon="8.313454957678914">
<ele>113</ele>
<time>2023-05-17T12:54:45Z</time>
</trkpt>
<trkpt lat="49.14595493115485" lon="8.313419921323657">
<ele>113.20000000000005</ele>
<time>2023-05-17T12:54:46Z</time>
</trkpt>
<trkpt lat="49.14598795585334" lon="8.31338295713067">
<ele>113.39999999999998</ele>
<time>2023-05-17T12:54:47Z</time>
</trkpt>
<trkpt lat="49.14601997472346" lon="8.313341969624162">
<ele>113.39999999999998</ele>
<time>2023-05-17T12:54:48Z</time>
</trkpt>
<trkpt lat="49.14604998193681" lon="8.313297964632511">
<ele>113.60000000000002</ele>
<time>2023-05-17T12:54:49Z</time>
</trkpt>
<trkpt lat="49.14607998915017" lon="8.313256977126002">
<ele>113.60000000000002</ele>
<time>2023-05-17T12:54:50Z</time>
</trkpt>
<trkpt lat="49.14610798470676" lon="8.313212972134352">
<ele>113.60000000000002</ele>
<time>2023-05-17T12:54:51Z</time>
</trkpt>
<trkpt lat="49.146141931414604" lon="8.313174918293953">
<ele>113.60000000000002</ele>
<time>2023-05-17T12:54:52Z</time>
</trkpt>
<trkpt lat="49.1461749561131" lon="8.313137954100966">
<ele>113.79999999999995</ele>
<time>2023-05-17T12:54:53Z</time>
</trkpt>
<trkpt lat="49.14620999246836" lon="8.31310492940247">
<ele>113.79999999999995</ele>
<time>2023-05-17T12:54:54Z</time>
</trkpt>
<trkpt lat="49.14624192751944" lon="8.313067965209484">
<ele>113.79999999999995</ele>
<time>2023-05-17T12:54:55Z</time>
</trkpt>
<trkpt lat="49.146272940561175" lon="8.313029995188117">
<ele>114</ele>
<time>2023-05-17T12:54:56Z</time>
</trkpt>
<trkpt lat="49.14630294777453" lon="8.312987918034196">
<ele>114</ele>
<time>2023-05-17T12:54:57Z</time>
</trkpt>
<trkpt lat="49.146334966644645" lon="8.312949948012829">
<ele>114</ele>
<time>2023-05-17T12:54:58Z</time>
</trkpt>
<trkpt lat="49.14636698551476" lon="8.312912983819842">
<ele>114.20000000000005</ele>
<time>2023-05-17T12:54:59Z</time>
</trkpt>
<trkpt lat="49.146396992728114" lon="8.312874929979444">
<ele>114.20000000000005</ele>
<time>2023-05-17T12:55:00Z</time>
</trkpt>
<trkpt lat="49.14642699994147" lon="8.312836959958076">
<ele>114.39999999999998</ele>
<time>2023-05-17T12:55:01Z</time>
</trkpt>
<trkpt lat="49.14645692333579" lon="8.312797984108329">
<ele>114.39999999999998</ele>
<time>2023-05-17T12:55:02Z</time>
</trkpt>
<trkpt lat="49.146487936377525" lon="8.312757918611169">
<ele>114.60000000000002</ele>
<time>2023-05-17T12:55:03Z</time>
</trkpt>
<trkpt lat="49.1465219669044" lon="8.31271693110466">
<ele>114.60000000000002</ele>
<time>2023-05-17T12:55:04Z</time>
</trkpt>
<trkpt lat="49.14655297994614" lon="8.31267292611301">
<ele>114.60000000000002</ele>
<time>2023-05-17T12:55:05Z</time>
</trkpt>
<trkpt lat="49.14658499881625" lon="8.312632944434881">
<ele>114.79999999999995</ele>
<time>2023-05-17T12:55:06Z</time>
</trkpt>
<trkpt lat="49.146617939695716" lon="8.312592962756753">
<ele>114.79999999999995</ele>
<time>2023-05-17T12:55:07Z</time>
</trkpt>
<trkpt lat="49.14664995856583" lon="8.312552981078625">
<ele>114.79999999999995</ele>
<time>2023-05-17T12:55:08Z</time>
</trkpt>
<trkpt lat="49.14668197743595" lon="8.312512999400496">
<ele>115</ele>
<time>2023-05-17T12:55:09Z</time>
</trkpt>
<trkpt lat="49.14671299047768" lon="8.312474945560098">
<ele>115</ele>
<time>2023-05-17T12:55:10Z</time>
</trkpt>
<trkpt lat="49.146746937185526" lon="8.31243697553873">
<ele>115</ele>
<time>2023-05-17T12:55:11Z</time>
</trkpt>
<trkpt lat="49.14677795022726" lon="8.312396993860602">
<ele>115</ele>
<time>2023-05-17T12:55:12Z</time>
</trkpt>
<trkpt lat="49.14681198075414" lon="8.312352988868952">
<ele>115.20000000000005</ele>
<time>2023-05-17T12:55:13Z</time>
</trkpt>
<trkpt lat="49.14684693329036" lon="8.312309989705682">
<ele>115.20000000000005</ele>
<time>2023-05-17T12:55:14Z</time>
</trkpt>
<trkpt lat="49.14687995798886" lon="8.31226497888565">
<ele>115.39999999999998</ele>
<time>2023-05-17T12:55:15Z</time>
</trkpt>
<trkpt lat="49.146917928010225" lon="8.31222197972238">
<ele>115.39999999999998</ele>
<time>2023-05-17T12:55:16Z</time>
</trkpt>
<trkpt lat="49.14695296436548" lon="8.312174957245588">
<ele>115.60000000000002</ele>
<time>2023-05-17T12:55:17Z</time>
</trkpt>
<trkpt lat="49.14698699489236" lon="8.312126928940415">
<ele>115.60000000000002</ele>
<time>2023-05-17T12:55:18Z</time>
</trkpt>
<trkpt lat="49.147021947428584" lon="8.312077978625894">
<ele>115.60000000000002</ele>
<time>2023-05-17T12:55:19Z</time>
</trkpt>
<trkpt lat="49.14705497212708" lon="8.312031961977482">
<ele>115.60000000000002</ele>
<time>2023-05-17T12:55:20Z</time>
</trkpt>
<trkpt lat="49.14709294214845" lon="8.311987956985831">
<ele>115.60000000000002</ele>
<time>2023-05-17T12:55:21Z</time>
</trkpt>
<trkpt lat="49.14712697267532" lon="8.31194194033742">
<ele>115.60000000000002</ele>
<time>2023-05-17T12:55:22Z</time>
</trkpt>
<trkpt lat="49.14716293103993" lon="8.311894917860627">
<ele>115.60000000000002</ele>
<time>2023-05-17T12:55:23Z</time>
</trkpt>
<trkpt lat="49.14720199070871" lon="8.311847979202867">
<ele>115.60000000000002</ele>
<time>2023-05-17T12:55:24Z</time>
</trkpt>
<trkpt lat="49.147237949073315" lon="8.311802968382835">
<ele>115.60000000000002</ele>
<time>2023-05-17T12:55:25Z</time>
</trkpt>
<trkpt lat="49.14727692492306" lon="8.311754940077662">
<ele>115.60000000000002</ele>
<time>2023-05-17T12:55:26Z</time>
</trkpt>
<trkpt lat="49.14731497876346" lon="8.311706995591521">
<ele>115.60000000000002</ele>
<time>2023-05-17T12:55:27Z</time>
</trkpt>
<trkpt lat="49.14735496044159" lon="8.311654943972826">
<ele>115.60000000000002</ele>
<time>2023-05-17T12:55:28Z</time>
</trkpt>
<trkpt lat="49.14739695377648" lon="8.311604987829924">
<ele>115.60000000000002</ele>
<time>2023-05-17T12:55:29Z</time>
</trkpt>
<trkpt lat="49.14743794128299" lon="8.31155494786799">
<ele>115.60000000000002</ele>
<time>2023-05-17T12:55:30Z</time>
</trkpt>
<trkpt lat="49.147476917132735" lon="8.311501974239945">
<ele>115.79999999999995</ele>
<time>2023-05-17T12:55:31Z</time>
</trkpt>
<trkpt lat="49.14751195348799" lon="8.31144799478352">
<ele>115.79999999999995</ele>
<time>2023-05-17T12:55:32Z</time>
</trkpt>
<trkpt lat="49.14754698984325" lon="8.311392925679684">
<ele>115.79999999999995</ele>
<time>2023-05-17T12:55:33Z</time>
</trkpt>
<trkpt lat="49.147581942379475" lon="8.311336934566498">
<ele>115.79999999999995</ele>
<time>2023-05-17T12:55:34Z</time>
</trkpt>
<trkpt lat="49.14761798456311" lon="8.311286978423595">
<ele>115.79999999999995</ele>
<time>2023-05-17T12:55:35Z</time>
</trkpt>
<trkpt lat="49.147647991776466" lon="8.311237944290042">
<ele>115.79999999999995</ele>
<time>2023-05-17T12:55:36Z</time>
</trkpt>
<trkpt lat="49.14767699316144" lon="8.3111899998039">
<ele>115.79999999999995</ele>
<time>2023-05-17T12:55:37Z</time>
</trkpt>
<trkpt lat="49.14770792238414" lon="8.311146916821599">
<ele>115.79999999999995</ele>
<time>2023-05-17T12:55:38Z</time>
</trkpt>
<trkpt lat="49.14773499593139" lon="8.31110299564898">
<ele>115.79999999999995</ele>
<time>2023-05-17T12:55:39Z</time>
</trkpt>
<trkpt lat="49.147756956517696" lon="8.311057984828949">
<ele>115.79999999999995</ele>
<time>2023-05-17T12:55:40Z</time>
</trkpt>
<trkpt lat="49.147779922932386" lon="8.311012974008918">
<ele>115.79999999999995</ele>
<time>2023-05-17T12:55:41Z</time>
</trkpt>
<trkpt lat="49.14780196733773" lon="8.310967963188887">
<ele>115.79999999999995</ele>
<time>2023-05-17T12:55:42Z</time>
</trkpt>
<trkpt lat="49.147821916267276" lon="8.310926975682378">
<ele>115.79999999999995</ele>
<time>2023-05-17T12:55:43Z</time>
</trkpt>
<trkpt lat="49.147841949015856" lon="8.31088799983263">
<ele>115.79999999999995</ele>
<time>2023-05-17T12:55:44Z</time>
</trkpt>
<trkpt lat="49.147862987592816" lon="8.310851957648993">
<ele>115.79999999999995</ele>
<time>2023-05-17T12:55:45Z</time>
</trkpt>
<trkpt lat="49.147882936522365" lon="8.310816921293736">
<ele>115.79999999999995</ele>
<time>2023-05-17T12:55:46Z</time>
</trkpt>
<trkpt lat="49.147902969270945" lon="8.31078196875751">
<ele>115.79999999999995</ele>
<time>2023-05-17T12:55:47Z</time>
</trkpt>
<trkpt lat="49.147921996191144" lon="8.310746932402253">
<ele>115.79999999999995</ele>
<time>2023-05-17T12:55:48Z</time>
</trkpt>
<trkpt lat="49.14793699979782" lon="8.310706950724125">
<ele>115.79999999999995</ele>
<time>2023-05-17T12:55:49Z</time>
</trkpt>
<trkpt lat="49.147951919585466" lon="8.310664957389235">
<ele>115.79999999999995</ele>
<time>2023-05-17T12:55:50Z</time>
</trkpt>
<trkpt lat="49.147967929020524" lon="8.310619946569204">
<ele>115.79999999999995</ele>
<time>2023-05-17T12:55:51Z</time>
</trkpt>
<trkpt lat="49.14798494428396" lon="8.31056797876954">
<ele>115.79999999999995</ele>
<time>2023-05-17T12:55:52Z</time>
</trkpt>
<trkpt lat="49.1480019595474" lon="8.310517938807607">
<ele>115.79999999999995</ele>
<time>2023-05-17T12:55:53Z</time>
</trkpt>
<trkpt lat="49.14801796898246" lon="8.310469994321465">
<ele>115.79999999999995</ele>
<time>2023-05-17T12:55:54Z</time>
</trkpt>
<trkpt lat="49.148034984245896" lon="8.310421966016293">
<ele>115.79999999999995</ele>
<time>2023-05-17T12:55:55Z</time>
</trkpt>
<trkpt lat="49.148051999509335" lon="8.310372931882739">
<ele>115.79999999999995</ele>
<time>2023-05-17T12:55:56Z</time>
</trkpt>
<trkpt lat="49.14807295426726" lon="8.310321969911456">
<ele>115.79999999999995</ele>
<time>2023-05-17T12:55:57Z</time>
</trkpt>
<trkpt lat="49.14809298701584" lon="8.31026698462665">
<ele>115.79999999999995</ele>
<time>2023-05-17T12:55:58Z</time>
</trkpt>
<trkpt lat="49.14811293594539" lon="8.310211999341846">
<ele>115.79999999999995</ele>
<time>2023-05-17T12:55:59Z</time>
</trkpt>
<trkpt lat="49.148136992007494" lon="8.310152990743518">
<ele>115.79999999999995</ele>
<time>2023-05-17T12:56:00Z</time>
</trkpt>
<trkpt lat="49.148159958422184" lon="8.31009498797357">
<ele>116</ele>
<time>2023-05-17T12:56:01Z</time>
</trkpt>
<trkpt lat="49.14818191900849" lon="8.310034973546863">
<ele>116</ele>
<time>2023-05-17T12:56:02Z</time>
</trkpt>
<trkpt lat="49.148204969242215" lon="8.309971941635013">
<ele>116</ele>
<time>2023-05-17T12:56:03Z</time>
</trkpt>
<trkpt lat="49.14822491817176" lon="8.30990295857191">
<ele>116</ele>
<time>2023-05-17T12:56:04Z</time>
</trkpt>
<trkpt lat="49.148246962577105" lon="8.30983498133719">
<ele>116</ele>
<time>2023-05-17T12:56:05Z</time>
</trkpt>
<trkpt lat="49.148269928991795" lon="8.309766920283437">
<ele>116</ele>
<time>2023-05-17T12:56:06Z</time>
</trkpt>
<trkpt lat="49.148292979225516" lon="8.309699948877096">
<ele>116</ele>
<time>2023-05-17T12:56:07Z</time>
</trkpt>
<trkpt lat="49.148314939811826" lon="8.309631971642375">
<ele>116.20000000000005</ele>
<time>2023-05-17T12:56:08Z</time>
</trkpt>
<trkpt lat="49.14833698421717" lon="8.309561982750893">
<ele>116.20000000000005</ele>
<time>2023-05-17T12:56:09Z</time>
</trkpt>
<trkpt lat="49.14835995063186" lon="8.30948998220265">
<ele>116.20000000000005</ele>
<time>2023-05-17T12:56:10Z</time>
</trkpt>
<trkpt lat="49.14838492870331" lon="8.309419993311167">
<ele>116.20000000000005</ele>
<time>2023-05-17T12:56:11Z</time>
</trkpt>
<trkpt lat="49.14840797893703" lon="8.309344975277781">
<ele>116.20000000000005</ele>
<time>2023-05-17T12:56:12Z</time>
</trkpt>
<trkpt lat="49.14842993952334" lon="8.309271968901157">
<ele>116.20000000000005</ele>
<time>2023-05-17T12:56:13Z</time>
</trkpt>
<trkpt lat="49.14845298975706" lon="8.309197956696153">
<ele>116.20000000000005</ele>
<time>2023-05-17T12:56:14Z</time>
</trkpt>
<trkpt lat="49.14847696200013" lon="8.30912696197629">
<ele>116.20000000000005</ele>
<time>2023-05-17T12:56:15Z</time>
</trkpt>
<trkpt lat="49.14849791675806" lon="8.309057978913188">
<ele>116.20000000000005</ele>
<time>2023-05-17T12:56:16Z</time>
</trkpt>
<trkpt lat="49.1485199611634" lon="8.308991929516196">
<ele>116.20000000000005</ele>
<time>2023-05-17T12:56:17Z</time>
</trkpt>
<trkpt lat="49.14854192174971" lon="8.308924958109856">
<ele>116.20000000000005</ele>
<time>2023-05-17T12:56:18Z</time>
</trkpt>
<trkpt lat="49.14856296032667" lon="8.308857986703515">
<ele>116.20000000000005</ele>
<time>2023-05-17T12:56:19Z</time>
</trkpt>
<trkpt lat="49.14858492091298" lon="8.308794954791665">
<ele>116.20000000000005</ele>
<time>2023-05-17T12:56:20Z</time>
</trkpt>
<trkpt lat="49.14860696531832" lon="8.308732928708196">
<ele>116.20000000000005</ele>
<time>2023-05-17T12:56:21Z</time>
</trkpt>
<trkpt lat="49.14862792007625" lon="8.308667968958616">
<ele>116.20000000000005</ele>
<time>2023-05-17T12:56:22Z</time>
</trkpt>
<trkpt lat="49.14865197613835" lon="8.308599991723895">
<ele>116.20000000000005</ele>
<time>2023-05-17T12:56:23Z</time>
</trkpt>
<trkpt lat="49.14867293089628" lon="8.308531930670142">
<ele>116.20000000000005</ele>
<time>2023-05-17T12:56:24Z</time>
</trkpt>
<trkpt lat="49.148696986958385" lon="8.30846194177866">
<ele>116.39999999999998</ele>
<time>2023-05-17T12:56:25Z</time>
</trkpt>
<trkpt lat="49.148719953373075" lon="8.308389941230416">
<ele>116.39999999999998</ele>
<time>2023-05-17T12:56:26Z</time>
</trkpt>
<trkpt lat="49.148742919787765" lon="8.308316934853792">
<ele>116.39999999999998</ele>
<time>2023-05-17T12:56:27Z</time>
</trkpt>
<trkpt lat="49.14876697584987" lon="8.308239988982677">
<ele>116.39999999999998</ele>
<time>2023-05-17T12:56:28Z</time>
</trkpt>
<trkpt lat="49.14878994226456" lon="8.308164970949292">
<ele>116.39999999999998</ele>
<time>2023-05-17T12:56:29Z</time>
</trkpt>
<trkpt lat="49.14881693199277" lon="8.308089952915907">
<ele>116.39999999999998</ele>
<time>2023-05-17T12:56:30Z</time>
</trkpt>
<trkpt lat="49.14884492754936" lon="8.308017952367663">
<ele>116.39999999999998</ele>
<time>2023-05-17T12:56:31Z</time>
</trkpt>
<trkpt lat="49.148867977783084" lon="8.307947963476181">
<ele>116.39999999999998</ele>
<time>2023-05-17T12:56:32Z</time>
</trkpt>
<trkpt lat="49.14888993836939" lon="8.30787998624146">
<ele>116.60000000000002</ele>
<time>2023-05-17T12:56:33Z</time>
</trkpt>
<trkpt lat="49.148912988603115" lon="8.307811925187707">
<ele>116.60000000000002</ele>
<time>2023-05-17T12:56:34Z</time>
</trkpt>
<trkpt lat="49.148936960846186" lon="8.307746965438128">
<ele>116.60000000000002</ele>
<time>2023-05-17T12:56:35Z</time>
</trkpt>
<trkpt lat="49.148959927260876" lon="8.307679994031787">
<ele>116.60000000000002</ele>
<time>2023-05-17T12:56:36Z</time>
</trkpt>
<trkpt lat="49.14898498915136" lon="8.307611932978034">
<ele>116.60000000000002</ele>
<time>2023-05-17T12:56:37Z</time>
</trkpt>
<trkpt lat="49.14900996722281" lon="8.307541944086552">
<ele>116.60000000000002</ele>
<time>2023-05-17T12:56:38Z</time>
</trkpt>
<trkpt lat="49.14903494529426" lon="8.30747195519507">
<ele>116.60000000000002</ele>
<time>2023-05-17T12:56:39Z</time>
</trkpt>
<trkpt lat="49.14905992336571" lon="8.307401966303587">
<ele>116.79999999999995</ele>
<time>2023-05-17T12:56:40Z</time>
</trkpt>
<trkpt lat="49.149082973599434" lon="8.307327954098582">
<ele>116.79999999999995</ele>
<time>2023-05-17T12:56:41Z</time>
</trkpt>
<trkpt lat="49.149106945842505" lon="8.307259976863861">
<ele>116.79999999999995</ele>
<time>2023-05-17T12:56:42Z</time>
</trkpt>
<trkpt lat="49.149129996076226" lon="8.307189987972379">
<ele>116.79999999999995</ele>
<time>2023-05-17T12:56:43Z</time>
</trkpt>
<trkpt lat="49.149152962490916" lon="8.307119999080896">
<ele>116.79999999999995</ele>
<time>2023-05-17T12:56:44Z</time>
</trkpt>
<trkpt lat="49.14917693473399" lon="8.307051938027143">
<ele>116.79999999999995</ele>
<time>2023-05-17T12:56:45Z</time>
</trkpt>
<trkpt lat="49.14919998496771" lon="8.306982954964042">
<ele>116.79999999999995</ele>
<time>2023-05-17T12:56:46Z</time>
</trkpt>
<trkpt lat="49.1492229513824" lon="8.306917995214462">
<ele>116.79999999999995</ele>
<time>2023-05-17T12:56:47Z</time>
</trkpt>
<trkpt lat="49.14924499578774" lon="8.306854963302612">
<ele>116.79999999999995</ele>
<time>2023-05-17T12:56:48Z</time>
</trkpt>
<trkpt lat="49.14926494471729" lon="8.306791931390762">
<ele>116.79999999999995</ele>
<time>2023-05-17T12:56:49Z</time>
</trkpt>
<trkpt lat="49.14928698912263" lon="8.306726971641183">
<ele>116.79999999999995</ele>
<time>2023-05-17T12:56:50Z</time>
</trkpt>
<trkpt lat="49.14930693805218" lon="8.306666957214475">
<ele>116.79999999999995</ele>
<time>2023-05-17T12:56:51Z</time>
</trkpt>
<trkpt lat="49.14932797662914" lon="8.306607948616147">
<ele>117</ele>
<time>2023-05-17T12:56:52Z</time>
</trkpt>
<trkpt lat="49.14934993721545" lon="8.306547934189439">
<ele>117</ele>
<time>2023-05-17T12:56:53Z</time>
</trkpt>
<trkpt lat="49.14936996996403" lon="8.30648791976273">
<ele>117.20000000000005</ele>
<time>2023-05-17T12:56:54Z</time>
</trkpt>
<trkpt lat="49.149387991055846" lon="8.306427989155054">
<ele>117.20000000000005</ele>
<time>2023-05-17T12:56:55Z</time>
</trkpt>
<trkpt lat="49.149407939985394" lon="8.306366968899965">
<ele>117.39999999999998</ele>
<time>2023-05-17T12:56:56Z</time>
</trkpt>
<trkpt lat="49.149429984390736" lon="8.306306954473257">
<ele>117.39999999999998</ele>
<time>2023-05-17T12:56:57Z</time>
</trkpt>
<trkpt lat="49.149451944977045" lon="8.30624794587493">
<ele>117.60000000000002</ele>
<time>2023-05-17T12:56:58Z</time>
</trkpt>
<trkpt lat="49.149472983554006" lon="8.306189943104982">
<ele>117.60000000000002</ele>
<time>2023-05-17T12:56:59Z</time>
</trkpt>
<trkpt lat="49.149492932483554" lon="8.306131940335035">
<ele>117.79999999999995</ele>
<time>2023-05-17T12:57:00Z</time>
</trkpt>
<trkpt lat="49.149512965232134" lon="8.306074943393469">
<ele>117.79999999999995</ele>
<time>2023-05-17T12:57:01Z</time>
</trkpt>
<trkpt lat="49.14952998049557" lon="8.306019958108664">
<ele>118</ele>
<time>2023-05-17T12:57:02Z</time>
</trkpt>
<trkpt lat="49.14954791776836" lon="8.305961955338717">
<ele>118</ele>
<time>2023-05-17T12:57:03Z</time>
</trkpt>
<trkpt lat="49.14956694468856" lon="8.30590495839715">
<ele>118</ele>
<time>2023-05-17T12:57:04Z</time>
</trkpt>
<trkpt lat="49.14958496578038" lon="8.305846955627203">
<ele>118.20000000000005</ele>
<time>2023-05-17T12:57:05Z</time>
</trkpt>
<trkpt lat="49.149602986872196" lon="8.305787947028875">
<ele>118.20000000000005</ele>
<time>2023-05-17T12:57:06Z</time>
</trkpt>
<trkpt lat="49.149621929973364" lon="8.30573296174407">
<ele>118.39999999999998</ele>
<time>2023-05-17T12:57:07Z</time>
</trkpt>
<trkpt lat="49.149642968550324" lon="8.305677976459265">
<ele>118.39999999999998</ele>
<time>2023-05-17T12:57:08Z</time>
</trkpt>
<trkpt lat="49.149661995470524" lon="8.305624919012189">
<ele>118.60000000000002</ele>
<time>2023-05-17T12:57:09Z</time>
</trkpt>
<trkpt lat="49.14967993274331" lon="8.305572951212525">
<ele>118.79999999999995</ele>
<time>2023-05-17T12:57:10Z</time>
</trkpt>
<trkpt lat="49.14969795383513" lon="8.30551796592772">
<ele>119</ele>
<time>2023-05-17T12:57:11Z</time>
</trkpt>
<trkpt lat="49.14971698075533" lon="8.305462980642915">
<ele>119</ele>
<time>2023-05-17T12:57:12Z</time>
</trkpt>
<trkpt lat="49.14973299019039" lon="8.305409923195839">
<ele>119.20000000000005</ele>
<time>2023-05-17T12:57:13Z</time>
</trkpt>
<trkpt lat="49.149751933291554" lon="8.305356949567795">
<ele>119.39999999999998</ele>
<time>2023-05-17T12:57:14Z</time>
</trkpt>
<trkpt lat="49.149771966040134" lon="8.30530297011137">
<ele>119.60000000000002</ele>
<time>2023-05-17T12:57:15Z</time>
</trkpt>
<trkpt lat="49.14978998713195" lon="8.305249996483326">
<ele>119.79999999999995</ele>
<time>2023-05-17T12:57:16Z</time>
</trkpt>
<trkpt lat="49.14980792440474" lon="8.30519693903625">
<ele>119.79999999999995</ele>
<time>2023-05-17T12:57:17Z</time>
</trkpt>
<trkpt lat="49.14982695132494" lon="8.305142959579825">
<ele>120</ele>
<time>2023-05-17T12:57:18Z</time>
</trkpt>
<trkpt lat="49.14984497241676" lon="8.305091997608542">
<ele>120.20000000000005</ele>
<time>2023-05-17T12:57:19Z</time>
</trkpt>
<trkpt lat="49.14986299350858" lon="8.305039945989847">
<ele>120.39999999999998</ele>
<time>2023-05-17T12:57:20Z</time>
</trkpt>
<trkpt lat="49.149881936609745" lon="8.304991917684674">
<ele>120.60000000000002</ele>
<time>2023-05-17T12:57:21Z</time>
</trkpt>
<trkpt lat="49.149899957701564" lon="8.304941961541772">
<ele>120.79999999999995</ele>
<time>2023-05-17T12:57:22Z</time>
</trkpt>
<trkpt lat="49.149919990450144" lon="8.304891921579838">
<ele>121</ele>
<time>2023-05-17T12:57:23Z</time>
</trkpt>
<trkpt lat="49.14993499405682" lon="8.304841965436935">
<ele>121.20000000000005</ele>
<time>2023-05-17T12:57:24Z</time>
</trkpt>
<trkpt lat="49.14995192550123" lon="8.304789997637272">
<ele>121.39999999999998</ele>
<time>2023-05-17T12:57:25Z</time>
</trkpt>
<trkpt lat="49.149967934936285" lon="8.304737946018577">
<ele>121.60000000000002</ele>
<time>2023-05-17T12:57:26Z</time>
</trkpt>
<trkpt lat="49.14998495019972" lon="8.304687989875674">
<ele>121.79999999999995</ele>
<time>2023-05-17T12:57:27Z</time>
</trkpt>
<trkpt lat="49.15000297129154" lon="8.30463794991374">
<ele>121.79999999999995</ele>
<time>2023-05-17T12:57:28Z</time>
</trkpt>
<trkpt lat="49.15001998655498" lon="8.304589921608567">
<ele>122</ele>
<time>2023-05-17T12:57:29Z</time>
</trkpt>
<trkpt lat="49.15003792382777" lon="8.304536947980523">
<ele>122.20000000000005</ele>
<time>2023-05-17T12:57:30Z</time>
</trkpt>
<trkpt lat="49.150052927434444" lon="8.304479951038957">
<ele>122.39999999999998</ele>
<time>2023-05-17T12:57:31Z</time>
</trkpt>
<trkpt lat="49.15006692521274" lon="8.304427983239293">
<ele>122.39999999999998</ele>
<time>2023-05-17T12:57:32Z</time>
</trkpt>
<trkpt lat="49.15007798932493" lon="8.304377943277359">
<ele>122.60000000000002</ele>
<time>2023-05-17T12:57:33Z</time>
</trkpt>
<trkpt lat="49.15008997544646" lon="8.304331926628947">
<ele>122.60000000000002</ele>
<time>2023-05-17T12:57:34Z</time>
</trkpt>
<trkpt lat="49.15010497905314" lon="8.304281970486045">
<ele>122.79999999999995</ele>
<time>2023-05-17T12:57:35Z</time>
</trkpt>
<trkpt lat="49.15011998265982" lon="8.304236959666014">
<ele>122.79999999999995</ele>
<time>2023-05-17T12:57:36Z</time>
</trkpt>
<trkpt lat="49.15013297460973" lon="8.304194966331124">
<ele>122.79999999999995</ele>
<time>2023-05-17T12:57:37Z</time>
</trkpt>
<trkpt lat="49.15014294907451" lon="8.304156996309757">
<ele>123</ele>
<time>2023-05-17T12:57:38Z</time>
</trkpt>
<trkpt lat="49.15015493519604" lon="8.304112991318107">
<ele>123</ele>
<time>2023-05-17T12:57:39Z</time>
</trkpt>
<trkpt lat="49.15016792714596" lon="8.304072925820947">
<ele>123</ele>
<time>2023-05-17T12:57:40Z</time>
</trkpt>
<trkpt lat="49.15018695406616" lon="8.304029926657677">
<ele>123</ele>
<time>2023-05-17T12:57:41Z</time>
</trkpt>
<trkpt lat="49.15020698681474" lon="8.303984999656677">
<ele>123</ele>
<time>2023-05-17T12:57:42Z</time>
</trkpt>
<trkpt lat="49.150222996249795" lon="8.303941916674376">
<ele>123.20000000000005</ele>
<time>2023-05-17T12:57:43Z</time>
</trkpt>
<trkpt lat="49.1502399276942" lon="8.303896989673376">
<ele>123.20000000000005</ele>
<time>2023-05-17T12:57:44Z</time>
</trkpt>
<trkpt lat="49.15025493130088" lon="8.303849967196584">
<ele>123.20000000000005</ele>
<time>2023-05-17T12:57:45Z</time>
</trkpt>
<trkpt lat="49.150269934907556" lon="8.303806968033314">
<ele>123.20000000000005</ele>
<time>2023-05-17T12:57:46Z</time>
</trkpt>
<trkpt lat="49.15028292685747" lon="8.303764974698424">
<ele>123.20000000000005</ele>
<time>2023-05-17T12:57:47Z</time>
</trkpt>
<trkpt lat="49.15029692463577" lon="8.303722981363535">
<ele>123.20000000000005</ele>
<time>2023-05-17T12:57:48Z</time>
</trkpt>
<trkpt lat="49.150311928242445" lon="8.303677970543504">
<ele>123.20000000000005</ele>
<time>2023-05-17T12:57:49Z</time>
</trkpt>
<trkpt lat="49.15032693184912" lon="8.30362793058157">
<ele>123.20000000000005</ele>
<time>2023-05-17T12:57:50Z</time>
</trkpt>
<trkpt lat="49.15034495294094" lon="8.303572945296764">
<ele>123.20000000000005</ele>
<time>2023-05-17T12:57:51Z</time>
</trkpt>
<trkpt lat="49.15036297403276" lon="8.303521983325481">
<ele>123.39999999999998</ele>
<time>2023-05-17T12:57:52Z</time>
</trkpt>
<trkpt lat="49.1503799892962" lon="8.303471943363547">
<ele>123.39999999999998</ele>
<time>2023-05-17T12:57:53Z</time>
</trkpt>
<trkpt lat="49.150396920740604" lon="8.303421987220645">
<ele>123.39999999999998</ele>
<time>2023-05-17T12:57:54Z</time>
</trkpt>
<trkpt lat="49.15040999650955" lon="8.303372953087091">
<ele>123.39999999999998</ele>
<time>2023-05-17T12:57:55Z</time>
</trkpt>
<trkpt lat="49.1504249162972" lon="8.303322996944189">
<ele>123.39999999999998</ele>
<time>2023-05-17T12:57:56Z</time>
</trkpt>
<trkpt lat="49.150441931560636" lon="8.303272956982255">
<ele>123.39999999999998</ele>
<time>2023-05-17T12:57:57Z</time>
</trkpt>
<trkpt lat="49.15045492351055" lon="8.303221995010972">
<ele>123.20000000000005</ele>
<time>2023-05-17T12:57:58Z</time>
</trkpt>
<trkpt lat="49.1504679992795" lon="8.303164998069406">
<ele>123.20000000000005</ele>
<time>2023-05-17T12:57:59Z</time>
</trkpt>
<trkpt lat="49.150482919067144" lon="8.303102971985936">
<ele>123.20000000000005</ele>
<time>2023-05-17T12:58:00Z</time>
</trkpt>
<trkpt lat="49.15049792267382" lon="8.303041951730847">
<ele>123.20000000000005</ele>
<time>2023-05-17T12:58:01Z</time>
</trkpt>
<trkpt lat="49.15051493793726" lon="8.302976991981268">
<ele>123</ele>
<time>2023-05-17T12:58:02Z</time>
</trkpt>
<trkpt lat="49.15053295902908" lon="8.302909936755896">
<ele>123</ele>
<time>2023-05-17T12:58:03Z</time>
</trkpt>
<trkpt lat="49.15055198594928" lon="8.302844977006316">
<ele>123</ele>
<time>2023-05-17T12:58:04Z</time>
</trkpt>
<trkpt lat="49.150571934878826" lon="8.302777921780944">
<ele>122.79999999999995</ele>
<time>2023-05-17T12:58:05Z</time>
</trkpt>
<trkpt lat="49.150591967627406" lon="8.302712962031364">
<ele>122.79999999999995</ele>
<time>2023-05-17T12:58:06Z</time>
</trkpt>
<trkpt lat="49.150609988719225" lon="8.302644984796643">
<ele>122.60000000000002</ele>
<time>2023-05-17T12:58:07Z</time>
</trkpt>
<trkpt lat="49.15062993764877" lon="8.302574995905161">
<ele>122.39999999999998</ele>
<time>2023-05-17T12:58:08Z</time>
</trkpt>
<trkpt lat="49.15064997039735" lon="8.302499977871776">
<ele>122.39999999999998</ele>
<time>2023-05-17T12:58:09Z</time>
</trkpt>
<trkpt lat="49.1506699193269" lon="8.302421942353249">
<ele>122.20000000000005</ele>
<time>2023-05-17T12:58:10Z</time>
</trkpt>
<trkpt lat="49.15069196373224" lon="8.302346924319863">
<ele>122</ele>
<time>2023-05-17T12:58:11Z</time>
</trkpt>
<trkpt lat="49.15071291849017" lon="8.302269978448749">
<ele>121.79999999999995</ele>
<time>2023-05-17T12:58:12Z</time>
</trkpt>
<trkpt lat="49.15073295123875" lon="8.302191942930222">
<ele>121.60000000000002</ele>
<time>2023-05-17T12:58:13Z</time>
</trkpt>
<trkpt lat="49.15075692348182" lon="8.302106950432062">
<ele>121.60000000000002</ele>
<time>2023-05-17T12:58:14Z</time>
</trkpt>
<trkpt lat="49.1507769562304" lon="8.302022963762283">
<ele>121.39999999999998</ele>
<time>2023-05-17T12:58:15Z</time>
</trkpt>
<trkpt lat="49.15079992264509" lon="8.301942916586995">
<ele>121.20000000000005</ele>
<time>2023-05-17T12:58:16Z</time>
</trkpt>
<trkpt lat="49.15081794373691" lon="8.3018649648875">
<ele>121</ele>
<time>2023-05-17T12:58:17Z</time>
</trkpt>
<trkpt lat="49.15083697065711" lon="8.301786929368973">
<ele>120.79999999999995</ele>
<time>2023-05-17T12:58:18Z</time>
</trkpt>
<trkpt lat="49.15085691958666" lon="8.301707971841097">
<ele>120.60000000000002</ele>
<time>2023-05-17T12:58:19Z</time>
</trkpt>
<trkpt lat="49.15087494067848" lon="8.301624990999699">
<ele>120.39999999999998</ele>
<time>2023-05-17T12:58:20Z</time>
</trkpt>
<trkpt lat="49.15089497342706" lon="8.301541926339269">
<ele>120.20000000000005</ele>
<time>2023-05-17T12:58:21Z</time>
</trkpt>
<trkpt lat="49.15091693401337" lon="8.301461962983012">
<ele>119.79999999999995</ele>
<time>2023-05-17T12:58:22Z</time>
</trkpt>
<trkpt lat="49.15093797259033" lon="8.301376970484853">
<ele>119.60000000000002</ele>
<time>2023-05-17T12:58:23Z</time>
</trkpt>
<trkpt lat="49.150957921519876" lon="8.301292983815074">
<ele>119.20000000000005</ele>
<time>2023-05-17T12:58:24Z</time>
</trkpt>
<trkpt lat="49.150976948440075" lon="8.301211930811405">
<ele>119</ele>
<time>2023-05-17T12:58:25Z</time>
</trkpt>
<trkpt lat="49.15099295787513" lon="8.301129955798388">
<ele>118.79999999999995</ele>
<time>2023-05-17T12:58:26Z</time>
</trkpt>
<trkpt lat="49.15101198479533" lon="8.301049992442131">
<ele>118.60000000000002</ele>
<time>2023-05-17T12:58:27Z</time>
</trkpt>
<trkpt lat="49.15103193372488" lon="8.300971956923604">
<ele>118.39999999999998</ele>
<time>2023-05-17T12:58:28Z</time>
</trkpt>
<trkpt lat="49.1510499548167" lon="8.30089995637536">
<ele>118.39999999999998</ele>
<time>2023-05-17T12:58:29Z</time>
</trkpt>
<trkpt lat="49.151064958423376" lon="8.300829967483878">
<ele>118.20000000000005</ele>
<time>2023-05-17T12:58:30Z</time>
</trkpt>
<trkpt lat="49.15107795037329" lon="8.300762996077538">
<ele>118</ele>
<time>2023-05-17T12:58:31Z</time>
</trkpt>
<trkpt lat="49.15109194815159" lon="8.300697952508926">
<ele>118</ele>
<time>2023-05-17T12:58:32Z</time>
</trkpt>
<trkpt lat="49.151104940101504" lon="8.300637938082218">
<ele>117.79999999999995</ele>
<time>2023-05-17T12:58:33Z</time>
</trkpt>
<trkpt lat="49.15111692622304" lon="8.30057792365551">
<ele>117.60000000000002</ele>
<time>2023-05-17T12:58:34Z</time>
</trkpt>
<trkpt lat="49.15113192982972" lon="8.300516987219453">
<ele>117.60000000000002</ele>
<time>2023-05-17T12:58:35Z</time>
</trkpt>
<trkpt lat="49.1511429939419" lon="8.300459990277886">
<ele>117.39999999999998</ele>
<time>2023-05-17T12:58:36Z</time>
</trkpt>
<trkpt lat="49.1511569917202" lon="8.30040492117405">
<ele>117.39999999999998</ele>
<time>2023-05-17T12:58:37Z</time>
</trkpt>
<trkpt lat="49.151169983670115" lon="8.300354965031147">
<ele>117.20000000000005</ele>
<time>2023-05-17T12:58:38Z</time>
</trkpt>
<trkpt lat="49.15118498727679" lon="8.300309954211116">
<ele>117.20000000000005</ele>
<time>2023-05-17T12:58:39Z</time>
</trkpt>
<trkpt lat="49.15120292454958" lon="8.300261925905943">
<ele>117</ele>
<time>2023-05-17T12:58:40Z</time>
</trkpt>
<trkpt lat="49.151216922327876" lon="8.30021196976304">
<ele>117</ele>
<time>2023-05-17T12:58:41Z</time>
</trkpt>
<trkpt lat="49.15122798644006" lon="8.300157990306616">
<ele>117</ele>
<time>2023-05-17T12:58:42Z</time>
</trkpt>
<trkpt lat="49.151232931762934" lon="8.300111973658204">
<ele>117</ele>
<time>2023-05-17T12:58:43Z</time>
</trkpt>
<trkpt lat="49.15123796090484" lon="8.300064951181412">
<ele>116.79999999999995</ele>
<time>2023-05-17T12:58:44Z</time>
</trkpt>
<trkpt lat="49.15124793536961" lon="8.300016922876239">
<ele>116.79999999999995</ele>
<time>2023-05-17T12:58:45Z</time>
</trkpt>
<trkpt lat="49.15126193314791" lon="8.299964955076575">
<ele>116.79999999999995</ele>
<time>2023-05-17T12:58:46Z</time>
</trkpt>
<trkpt lat="49.151272997260094" lon="8.29990996979177">
<ele>117</ele>
<time>2023-05-17T12:58:47Z</time>
</trkpt>
<trkpt lat="49.15128699503839" lon="8.299856996163726">
<ele>117</ele>
<time>2023-05-17T12:58:48Z</time>
</trkpt>
<trkpt lat="49.151297975331545" lon="8.29980293288827">
<ele>117</ele>
<time>2023-05-17T12:58:49Z</time>
</trkpt>
<trkpt lat="49.15130996145308" lon="8.299747947603464">
<ele>117</ele>
<time>2023-05-17T12:58:50Z</time>
</trkpt>
<trkpt lat="49.151321947574615" lon="8.299689944833517">
<ele>117</ele>
<time>2023-05-17T12:58:51Z</time>
</trkpt>
<trkpt lat="49.15133292786777" lon="8.29963194206357">
<ele>117</ele>
<time>2023-05-17T12:58:52Z</time>
</trkpt>
<trkpt lat="49.151342986151576" lon="8.299574945122004">
<ele>117</ele>
<time>2023-05-17T12:58:53Z</time>
</trkpt>
<trkpt lat="49.15135497227311" lon="8.299516942352057">
<ele>117</ele>
<time>2023-05-17T12:58:54Z</time>
</trkpt>
<trkpt lat="49.15136695839465" lon="8.299457933753729">
<ele>117</ele>
<time>2023-05-17T12:58:55Z</time>
</trkpt>
<trkpt lat="49.1513779386878" lon="8.299396997317672">
<ele>117</ele>
<time>2023-05-17T12:58:56Z</time>
</trkpt>
<trkpt lat="49.1513919364661" lon="8.299334971234202">
<ele>117</ele>
<time>2023-05-17T12:58:57Z</time>
</trkpt>
<trkpt lat="49.151404928416014" lon="8.299269927665591">
<ele>117</ele>
<time>2023-05-17T12:58:58Z</time>
</trkpt>
<trkpt lat="49.15141792036593" lon="8.29920295625925">
<ele>117</ele>
<time>2023-05-17T12:58:59Z</time>
</trkpt>
<trkpt lat="49.15143292397261" lon="8.29913699068129">
<ele>117</ele>
<time>2023-05-17T12:59:00Z</time>
</trkpt>
<trkpt lat="49.151447927579284" lon="8.299067923799157">
<ele>117</ele>
<time>2023-05-17T12:59:01Z</time>
</trkpt>
<trkpt lat="49.15146293118596" lon="8.299002964049578">
<ele>117</ele>
<time>2023-05-17T12:59:02Z</time>
</trkpt>
<trkpt lat="49.1514799464494" lon="8.298939932137728">
<ele>117</ele>
<time>2023-05-17T12:59:03Z</time>
</trkpt>
<trkpt lat="49.151494950056076" lon="8.29887798987329">
<ele>117</ele>
<time>2023-05-17T12:59:04Z</time>
</trkpt>
<trkpt lat="49.15150794200599" lon="8.298816969618201">
<ele>117</ele>
<time>2023-05-17T12:59:05Z</time>
</trkpt>
<trkpt lat="49.15152193978429" lon="8.298754943534732">
<ele>117</ele>
<time>2023-05-17T12:59:06Z</time>
</trkpt>
<trkpt lat="49.15153292007744" lon="8.298697946593165">
<ele>117</ele>
<time>2023-05-17T12:59:07Z</time>
</trkpt>
<trkpt lat="49.15154691785574" lon="8.298639943823218">
<ele>117</ele>
<time>2023-05-17T12:59:08Z</time>
</trkpt>
<trkpt lat="49.151557981967926" lon="8.298584958538413">
<ele>117</ele>
<time>2023-05-17T12:59:09Z</time>
</trkpt>
<trkpt lat="49.15156996808946" lon="8.298526955768466">
<ele>117</ele>
<time>2023-05-17T12:59:10Z</time>
</trkpt>
<trkpt lat="49.151581954211" lon="8.298466941341758">
<ele>117</ele>
<time>2023-05-17T12:59:11Z</time>
</trkpt>
<trkpt lat="49.15159293450415" lon="8.29840499907732">
<ele>117</ele>
<time>2023-05-17T12:59:12Z</time>
</trkpt>
<trkpt lat="49.15160793811083" lon="8.29834297299385">
<ele>117</ele>
<time>2023-05-17T12:59:13Z</time>
</trkpt>
<trkpt lat="49.151621935889125" lon="8.298282958567142">
<ele>117</ele>
<time>2023-05-17T12:59:14Z</time>
</trkpt>
<trkpt lat="49.15163492783904" lon="8.298224955797195">
<ele>117</ele>
<time>2023-05-17T12:59:15Z</time>
</trkpt>
<trkpt lat="49.15164791978896" lon="8.298164941370487">
<ele>116.79999999999995</ele>
<time>2023-05-17T12:59:16Z</time>
</trkpt>
<trkpt lat="49.151664935052395" lon="8.29810299910605">
<ele>116.79999999999995</ele>
<time>2023-05-17T12:59:17Z</time>
</trkpt>
<trkpt lat="49.15167993865907" lon="8.29804197885096">
<ele>116.79999999999995</ele>
<time>2023-05-17T12:59:18Z</time>
</trkpt>
<trkpt lat="49.15169494226575" lon="8.29797794111073">
<ele>116.79999999999995</ele>
<time>2023-05-17T12:59:19Z</time>
</trkpt>
<trkpt lat="49.151709945872426" lon="8.29791298136115">
<ele>116.79999999999995</ele>
<time>2023-05-17T12:59:20Z</time>
</trkpt>
<trkpt lat="49.15172293782234" lon="8.29784793779254">
<ele>116.79999999999995</ele>
<time>2023-05-17T12:59:21Z</time>
</trkpt>
<trkpt lat="49.15173693560064" lon="8.297779960557818">
<ele>116.79999999999995</ele>
<time>2023-05-17T12:59:22Z</time>
</trkpt>
<trkpt lat="49.151749927550554" lon="8.29771994613111">
<ele>116.79999999999995</ele>
<time>2023-05-17T12:59:23Z</time>
</trkpt>
<trkpt lat="49.15176493115723" lon="8.297659931704402">
<ele>116.79999999999995</ele>
<time>2023-05-17T12:59:24Z</time>
</trkpt>
<trkpt lat="49.15177993476391" lon="8.297597989439964">
<ele>116.79999999999995</ele>
<time>2023-05-17T12:59:25Z</time>
</trkpt>
<trkpt lat="49.15179695002735" lon="8.297537975013256">
<ele>116.79999999999995</ele>
<time>2023-05-17T12:59:26Z</time>
</trkpt>
<trkpt lat="49.15180994197726" lon="8.297479972243309">
<ele>116.79999999999995</ele>
<time>2023-05-17T12:59:27Z</time>
</trkpt>
<trkpt lat="49.15182293392718" lon="8.297421969473362">
<ele>116.79999999999995</ele>
<time>2023-05-17T12:59:28Z</time>
</trkpt>
<trkpt lat="49.151836931705475" lon="8.297364972531796">
<ele>116.79999999999995</ele>
<time>2023-05-17T12:59:29Z</time>
</trkpt>
<trkpt lat="49.15184799581766" lon="8.297304958105087">
<ele>116.79999999999995</ele>
<time>2023-05-17T12:59:30Z</time>
</trkpt>
<trkpt lat="49.15186199359596" lon="8.297241926193237">
<ele>116.79999999999995</ele>
<time>2023-05-17T12:59:31Z</time>
</trkpt>
<trkpt lat="49.151876997202635" lon="8.297177972272038">
<ele>116.79999999999995</ele>
<time>2023-05-17T12:59:32Z</time>
</trkpt>
<trkpt lat="49.15188998915255" lon="8.29711695201695">
<ele>116.79999999999995</ele>
<time>2023-05-17T12:59:33Z</time>
</trkpt>
<trkpt lat="49.151901975274086" lon="8.29705492593348">
<ele>116.79999999999995</ele>
<time>2023-05-17T12:59:34Z</time>
</trkpt>
<trkpt lat="49.1519099380821" lon="8.296992983669043">
<ele>116.79999999999995</ele>
<time>2023-05-17T12:59:35Z</time>
</trkpt>
<trkpt lat="49.151917984709144" lon="8.296929951757193">
<ele>116.79999999999995</ele>
<time>2023-05-17T12:59:36Z</time>
</trkpt>
<trkpt lat="49.15192997083068" lon="8.296866919845343">
<ele>116.79999999999995</ele>
<time>2023-05-17T12:59:37Z</time>
</trkpt>
<trkpt lat="49.151944974437356" lon="8.296807995066047">
<ele>116.60000000000002</ele>
<time>2023-05-17T12:59:38Z</time>
</trkpt>
<trkpt lat="49.15195997804403" lon="8.29675192013383">
<ele>116.60000000000002</ele>
<time>2023-05-17T12:59:39Z</time>
</trkpt>
<trkpt lat="49.15197296999395" lon="8.296692995354533">
<ele>116.60000000000002</ele>
<time>2023-05-17T12:59:40Z</time>
</trkpt>
<trkpt lat="49.151987973600626" lon="8.296637926250696">
<ele>116.39999999999998</ele>
<time>2023-05-17T12:59:41Z</time>
</trkpt>
<trkpt lat="49.15200197137892" lon="8.29658294096589">
<ele>116.39999999999998</ele>
<time>2023-05-17T12:59:42Z</time>
</trkpt>
<trkpt lat="49.15201496332884" lon="8.296527955681086">
<ele>116.39999999999998</ele>
<time>2023-05-17T12:59:43Z</time>
</trkpt>
<trkpt lat="49.152026949450374" lon="8.296469952911139">
<ele>116.39999999999998</ele>
<time>2023-05-17T12:59:44Z</time>
</trkpt>
<trkpt lat="49.15203692391515" lon="8.296406920999289">
<ele>116.39999999999998</ele>
<time>2023-05-17T12:59:45Z</time>
</trkpt>
<trkpt lat="49.152047988027334" lon="8.29634196124971">
<ele>116.39999999999998</ele>
<time>2023-05-17T12:59:46Z</time>
</trkpt>
<trkpt lat="49.15205796249211" lon="8.296274989843369">
<ele>116.39999999999998</ele>
<time>2023-05-17T12:59:47Z</time>
</trkpt>
<trkpt lat="49.15206793695688" lon="8.296211957931519">
<ele>116.39999999999998</ele>
<time>2023-05-17T12:59:48Z</time>
</trkpt>
<trkpt lat="49.15207799524069" lon="8.296152949333191">
<ele>116.39999999999998</ele>
<time>2023-05-17T12:59:49Z</time>
</trkpt>
<trkpt lat="49.152091993018985" lon="8.296092934906483">
<ele>116.39999999999998</ele>
<time>2023-05-17T12:59:50Z</time>
</trkpt>
<trkpt lat="49.1521049849689" lon="8.2960419729352">
<ele>116.39999999999998</ele>
<time>2023-05-17T12:59:51Z</time>
</trkpt>
<trkpt lat="49.15211797691882" lon="8.295994950458407">
<ele>116.39999999999998</ele>
<time>2023-05-17T12:59:52Z</time>
</trkpt>
<trkpt lat="49.152132980525494" lon="8.295944994315505">
<ele>116.39999999999998</ele>
<time>2023-05-17T12:59:53Z</time>
</trkpt>
<trkpt lat="49.15214798413217" lon="8.295897971838713">
<ele>116.39999999999998</ele>
<time>2023-05-17T12:59:54Z</time>
</trkpt>
<trkpt lat="49.15216198191047" lon="8.29584994353354">
<ele>116.39999999999998</ele>
<time>2023-05-17T12:59:55Z</time>
</trkpt>
<trkpt lat="49.15216994471848" lon="8.295802921056747">
<ele>116.39999999999998</ele>
<time>2023-05-17T12:59:56Z</time>
</trkpt>
<trkpt lat="49.152181930840015" lon="8.295757994055748">
<ele>116.39999999999998</ele>
<time>2023-05-17T12:59:57Z</time>
</trkpt>
<trkpt lat="49.1521929949522" lon="8.295707954093814">
<ele>116.39999999999998</ele>
<time>2023-05-17T12:59:58Z</time>
</trkpt>
<trkpt lat="49.152201963588595" lon="8.295662943273783">
<ele>116.39999999999998</ele>
<time>2023-05-17T12:59:59Z</time>
</trkpt>
<trkpt lat="49.15220992639661" lon="8.295624973252416">
<ele>116.39999999999998</ele>
<time>2023-05-17T13:00:00Z</time>
</trkpt>
<trkpt lat="49.152219984680414" lon="8.295584991574287">
<ele>116.39999999999998</ele>
<time>2023-05-17T13:00:01Z</time>
</trkpt>
<trkpt lat="49.15222794748843" lon="8.295542998239398">
<ele>116.39999999999998</ele>
<time>2023-05-17T13:00:02Z</time>
</trkpt>
<trkpt lat="49.15223993360996" lon="8.295502932742238">
<ele>116.39999999999998</ele>
<time>2023-05-17T13:00:03Z</time>
</trkpt>
<trkpt lat="49.15224798023701" lon="8.29546194523573">
<ele>116.39999999999998</ele>
<time>2023-05-17T13:00:04Z</time>
</trkpt>
<trkpt lat="49.15225996635854" lon="8.295416934415698">
<ele>116.39999999999998</ele>
<time>2023-05-17T13:00:05Z</time>
</trkpt>
<trkpt lat="49.15227295830846" lon="8.295362954959273">
<ele>116.39999999999998</ele>
<time>2023-05-17T13:00:06Z</time>
</trkpt>
<trkpt lat="49.15228293277323" lon="8.295306963846087">
<ele>116.39999999999998</ele>
<time>2023-05-17T13:00:07Z</time>
</trkpt>
<trkpt lat="49.15229693055153" lon="8.295249966904521">
<ele>116.39999999999998</ele>
<time>2023-05-17T13:00:08Z</time>
</trkpt>
<trkpt lat="49.152309922501445" lon="8.295196993276477">
<ele>116.39999999999998</ele>
<time>2023-05-17T13:00:09Z</time>
</trkpt>
<trkpt lat="49.15232299827039" lon="8.29513999633491">
<ele>116.39999999999998</ele>
<time>2023-05-17T13:00:10Z</time>
</trkpt>
<trkpt lat="49.15233498439193" lon="8.29507696442306">
<ele>116.39999999999998</ele>
<time>2023-05-17T13:00:11Z</time>
</trkpt>
<trkpt lat="49.152347976341844" lon="8.295016949996352">
<ele>116.39999999999998</ele>
<time>2023-05-17T13:00:12Z</time>
</trkpt>
<trkpt lat="49.15236197412014" lon="8.294951990246773">
<ele>116.39999999999998</ele>
<time>2023-05-17T13:00:13Z</time>
</trkpt>
<trkpt lat="49.15237697772682" lon="8.2948849350214">
<ele>116.39999999999998</ele>
<time>2023-05-17T13:00:14Z</time>
</trkpt>
<trkpt lat="49.152391981333494" lon="8.29481796361506">
<ele>116.39999999999998</ele>
<time>2023-05-17T13:00:15Z</time>
</trkpt>
<trkpt lat="49.15240698494017" lon="8.294749986380339">
<ele>116.39999999999998</ele>
<time>2023-05-17T13:00:16Z</time>
</trkpt>
<trkpt lat="49.15242299437523" lon="8.294681925326586">
<ele>116.39999999999998</ele>
<time>2023-05-17T13:00:17Z</time>
</trkpt>
<trkpt lat="49.15244495496154" lon="8.294614953920245">
<ele>116.39999999999998</ele>
<time>2023-05-17T13:00:18Z</time>
</trkpt>
<trkpt lat="49.15246699936688" lon="8.294549994170666">
<ele>116.39999999999998</ele>
<time>2023-05-17T13:00:19Z</time>
</trkpt>
<trkpt lat="49.15248694829643" lon="8.294484950602055">
<ele>116.39999999999998</ele>
<time>2023-05-17T13:00:20Z</time>
</trkpt>
<trkpt lat="49.15250496938825" lon="8.294422924518585">
<ele>116.39999999999998</ele>
<time>2023-05-17T13:00:21Z</time>
</trkpt>
<trkpt lat="49.15251796133816" lon="8.294359976425767">
<ele>116.39999999999998</ele>
<time>2023-05-17T13:00:22Z</time>
</trkpt>
<trkpt lat="49.15253195911646" lon="8.294292921200395">
<ele>116.39999999999998</ele>
<time>2023-05-17T13:00:23Z</time>
</trkpt>
<trkpt lat="49.152544951066375" lon="8.294227961450815">
<ele>116.39999999999998</ele>
<time>2023-05-17T13:00:24Z</time>
</trkpt>
<trkpt lat="49.15255794301629" lon="8.294164929538965">
<ele>116.39999999999998</ele>
<time>2023-05-17T13:00:25Z</time>
</trkpt>
<trkpt lat="49.15257194079459" lon="8.294101981446147">
<ele>116.39999999999998</ele>
<time>2023-05-17T13:00:26Z</time>
</trkpt>
<trkpt lat="49.152586944401264" lon="8.294037943705916">
<ele>116.39999999999998</ele>
<time>2023-05-17T13:00:27Z</time>
</trkpt>
<trkpt lat="49.15260295383632" lon="8.293972983956337">
<ele>116.39999999999998</ele>
<time>2023-05-17T13:00:28Z</time>
</trkpt>
<trkpt lat="49.15261493995786" lon="8.293907940387726">
<ele>116.39999999999998</ele>
<time>2023-05-17T13:00:29Z</time>
</trkpt>
<trkpt lat="49.152629943564534" lon="8.293839963153005">
<ele>116.39999999999998</ele>
<time>2023-05-17T13:00:30Z</time>
</trkpt>
<trkpt lat="49.15264796465635" lon="8.293776931241155">
<ele>116.39999999999998</ele>
<time>2023-05-17T13:00:31Z</time>
</trkpt>
<trkpt lat="49.15266699157655" lon="8.293712977319956">
<ele>116.39999999999998</ele>
<time>2023-05-17T13:00:32Z</time>
</trkpt>
<trkpt lat="49.1526869405061" lon="8.293651957064867">
<ele>116.60000000000002</ele>
<time>2023-05-17T13:00:33Z</time>
</trkpt>
<trkpt lat="49.15270496159792" lon="8.293591942638159">
<ele>116.60000000000002</ele>
<time>2023-05-17T13:00:34Z</time>
</trkpt>
<trkpt lat="49.15272298268974" lon="8.293532934039831">
<ele>116.60000000000002</ele>
<time>2023-05-17T13:00:35Z</time>
</trkpt>
<trkpt lat="49.152741925790906" lon="8.293472919613123">
<ele>116.79999999999995</ele>
<time>2023-05-17T13:00:36Z</time>
</trkpt>
<trkpt lat="49.15275692939758" lon="8.293416928499937">
<ele>116.79999999999995</ele>
<time>2023-05-17T13:00:37Z</time>
</trkpt>
<trkpt lat="49.15277193300426" lon="8.293361943215132">
<ele>116.79999999999995</ele>
<time>2023-05-17T13:00:38Z</time>
</trkpt>
<trkpt lat="49.152784924954176" lon="8.293307963758707">
<ele>116.79999999999995</ele>
<time>2023-05-17T13:00:39Z</time>
</trkpt>
<trkpt lat="49.15279699489474" lon="8.293259935453534">
<ele>116.79999999999995</ele>
<time>2023-05-17T13:00:40Z</time>
</trkpt>
<trkpt lat="49.15280696935952" lon="8.293211990967393">
<ele>116.79999999999995</ele>
<time>2023-05-17T13:00:41Z</time>
</trkpt>
<trkpt lat="49.15281694382429" lon="8.293166980147362">
<ele>116.79999999999995</ele>
<time>2023-05-17T13:00:42Z</time>
</trkpt>
<trkpt lat="49.15282993577421" lon="8.293122975155711">
<ele>116.79999999999995</ele>
<time>2023-05-17T13:00:43Z</time>
</trkpt>
<trkpt lat="49.15285198017955" lon="8.293082993477583">
<ele>116.79999999999995</ele>
<time>2023-05-17T13:00:44Z</time>
</trkpt>
<trkpt lat="49.152876958251" lon="8.293042927980423">
<ele>116.79999999999995</ele>
<time>2023-05-17T13:00:45Z</time>
</trkpt>
<trkpt lat="49.15289799682796" lon="8.292999928817153">
<ele>116.79999999999995</ele>
<time>2023-05-17T13:00:46Z</time>
</trkpt>
<trkpt lat="49.152912916615605" lon="8.292951984331012">
<ele>116.79999999999995</ele>
<time>2023-05-17T13:00:47Z</time>
</trkpt>
<trkpt lat="49.15291995741427" lon="8.292897921055555">
<ele>116.79999999999995</ele>
<time>2023-05-17T13:00:48Z</time>
</trkpt>
<trkpt lat="49.152912916615605" lon="8.292837990447879">
<ele>116.79999999999995</ele>
<time>2023-05-17T13:00:49Z</time>
</trkpt>
<trkpt lat="49.15290495380759" lon="8.292772946879268">
<ele>116.79999999999995</ele>
<time>2023-05-17T13:00:50Z</time>
</trkpt>
<trkpt lat="49.15289699099958" lon="8.292704969644547">
<ele>116.79999999999995</ele>
<time>2023-05-17T13:00:51Z</time>
</trkpt>
<trkpt lat="49.15289296768606" lon="8.292637998238206">
<ele>116.79999999999995</ele>
<time>2023-05-17T13:00:52Z</time>
</trkpt>
<trkpt lat="49.152887938544154" lon="8.292569937184453">
<ele>116.79999999999995</ele>
<time>2023-05-17T13:00:53Z</time>
</trkpt>
<trkpt lat="49.152887938544154" lon="8.292504977434874">
<ele>116.79999999999995</ele>
<time>2023-05-17T13:00:54Z</time>
</trkpt>
<trkpt lat="49.152889950200915" lon="8.29243691638112">
<ele>116.79999999999995</ele>
<time>2023-05-17T13:00:55Z</time>
</trkpt>
<trkpt lat="49.15289196185768" lon="8.292367933318019">
<ele>116.79999999999995</ele>
<time>2023-05-17T13:00:56Z</time>
</trkpt>
<trkpt lat="49.15289296768606" lon="8.292297944426537">
<ele>116.79999999999995</ele>
<time>2023-05-17T13:00:57Z</time>
</trkpt>
<trkpt lat="49.15289799682796" lon="8.292231978848577">
<ele>116.79999999999995</ele>
<time>2023-05-17T13:00:58Z</time>
</trkpt>
<trkpt lat="49.15290495380759" lon="8.292166935279965">
<ele>116.79999999999995</ele>
<time>2023-05-17T13:00:59Z</time>
</trkpt>
<trkpt lat="49.15291199460626" lon="8.292097952216864">
<ele>116.79999999999995</ele>
<time>2023-05-17T13:01:00Z</time>
</trkpt>
<trkpt lat="49.152912916615605" lon="8.292027963325381">
<ele>116.79999999999995</ele>
<time>2023-05-17T13:01:01Z</time>
</trkpt>
<trkpt lat="49.15291995741427" lon="8.29195998609066">
<ele>116.79999999999995</ele>
<time>2023-05-17T13:01:02Z</time>
</trkpt>
<trkpt lat="49.15292498655617" lon="8.291891925036907">
<ele>116.79999999999995</ele>
<time>2023-05-17T13:01:03Z</time>
</trkpt>
<trkpt lat="49.152932949364185" lon="8.291822941973805">
<ele>116.79999999999995</ele>
<time>2023-05-17T13:01:04Z</time>
</trkpt>
<trkpt lat="49.15293697267771" lon="8.291752953082323">
<ele>116.79999999999995</ele>
<time>2023-05-17T13:01:05Z</time>
</trkpt>
<trkpt lat="49.15293999016285" lon="8.29168195836246">
<ele>116.79999999999995</ele>
<time>2023-05-17T13:01:06Z</time>
</trkpt>
<trkpt lat="49.15294493548572" lon="8.291611969470978">
<ele>116.60000000000002</ele>
<time>2023-05-17T13:01:07Z</time>
</trkpt>
<trkpt lat="49.15294694714248" lon="8.291539968922734">
<ele>116.60000000000002</ele>
<time>2023-05-17T13:01:08Z</time>
</trkpt>
<trkpt lat="49.15294694714248" lon="8.29146796837449">
<ele>116.60000000000002</ele>
<time>2023-05-17T13:01:09Z</time>
</trkpt>
<trkpt lat="49.15294694714248" lon="8.291396973654628">
<ele>116.60000000000002</ele>
<time>2023-05-17T13:01:10Z</time>
</trkpt>
<trkpt lat="49.15294795297086" lon="8.291326984763145">
<ele>116.60000000000002</ele>
<time>2023-05-17T13:01:11Z</time>
</trkpt>
<trkpt lat="49.15294795297086" lon="8.291256995871663">
<ele>116.60000000000002</ele>
<time>2023-05-17T13:01:12Z</time>
</trkpt>
<trkpt lat="49.152951976284385" lon="8.291186923161149">
<ele>116.60000000000002</ele>
<time>2023-05-17T13:01:13Z</time>
</trkpt>
<trkpt lat="49.15295792743564" lon="8.291117940098047">
<ele>116.60000000000002</ele>
<time>2023-05-17T13:01:14Z</time>
</trkpt>
<trkpt lat="49.1529649682343" lon="8.291047951206565">
<ele>116.60000000000002</ele>
<time>2023-05-17T13:01:15Z</time>
</trkpt>
<trkpt lat="49.1529699973762" lon="8.290981985628605">
<ele>116.60000000000002</ele>
<time>2023-05-17T13:01:16Z</time>
</trkpt>
<trkpt lat="49.15297192521393" lon="8.290917947888374">
<ele>116.60000000000002</ele>
<time>2023-05-17T13:01:17Z</time>
</trkpt>
<trkpt lat="49.152972931042314" lon="8.290852988138795">
<ele>116.60000000000002</ele>
<time>2023-05-17T13:01:18Z</time>
</trkpt>
<trkpt lat="49.152974942699075" lon="8.290787944570184">
<ele>116.60000000000002</ele>
<time>2023-05-17T13:01:19Z</time>
</trkpt>
<trkpt lat="49.152974942699075" lon="8.290719967335463">
<ele>116.60000000000002</ele>
<time>2023-05-17T13:01:20Z</time>
</trkpt>
<trkpt lat="49.152972931042314" lon="8.290654923766851">
<ele>116.60000000000002</ele>
<time>2023-05-17T13:01:21Z</time>
</trkpt>
<trkpt lat="49.152972931042314" lon="8.290591975674033">
<ele>116.60000000000002</ele>
<time>2023-05-17T13:01:22Z</time>
</trkpt>
<trkpt lat="49.15297192521393" lon="8.290526932105422">
<ele>116.60000000000002</ele>
<time>2023-05-17T13:01:23Z</time>
</trkpt>
<trkpt lat="49.15297192521393" lon="8.290462978184223">
<ele>116.60000000000002</ele>
<time>2023-05-17T13:01:24Z</time>
</trkpt>
<trkpt lat="49.15297796018422" lon="8.290397934615612">
<ele>116.60000000000002</ele>
<time>2023-05-17T13:01:25Z</time>
</trkpt>
<trkpt lat="49.15298692882061" lon="8.290331969037652">
<ele>116.60000000000002</ele>
<time>2023-05-17T13:01:26Z</time>
</trkpt>
<trkpt lat="49.152996987104416" lon="8.290271954610944">
<ele>116.60000000000002</ele>
<time>2023-05-17T13:01:27Z</time>
</trkpt>
<trkpt lat="49.15300796739757" lon="8.290217975154519">
<ele>116.60000000000002</ele>
<time>2023-05-17T13:01:28Z</time>
</trkpt>
<trkpt lat="49.15301299653947" lon="8.290161984041333">
<ele>116.60000000000002</ele>
<time>2023-05-17T13:01:29Z</time>
</trkpt>
<trkpt lat="49.153016936033964" lon="8.290101969614625">
<ele>116.60000000000002</ele>
<time>2023-05-17T13:01:30Z</time>
</trkpt>
<trkpt lat="49.153016936033964" lon="8.290042961016297">
<ele>116.60000000000002</ele>
<time>2023-05-17T13:01:31Z</time>
</trkpt>
<trkpt lat="49.15301299653947" lon="8.289987975731492">
<ele>116.60000000000002</ele>
<time>2023-05-17T13:01:32Z</time>
</trkpt>
<trkpt lat="49.15301299653947" lon="8.289929972961545">
<ele>116.60000000000002</ele>
<time>2023-05-17T13:01:33Z</time>
</trkpt>
<trkpt lat="49.1530149243772" lon="8.289867946878076">
<ele>116.60000000000002</ele>
<time>2023-05-17T13:01:34Z</time>
</trkpt>
<trkpt lat="49.1530149243772" lon="8.289802987128496">
<ele>116.60000000000002</ele>
<time>2023-05-17T13:01:35Z</time>
</trkpt>
<trkpt lat="49.1530149243772" lon="8.28974498435855">
<ele>116.60000000000002</ele>
<time>2023-05-17T13:01:36Z</time>
</trkpt>
<trkpt lat="49.15302196517587" lon="8.289687987416983">
<ele>116.60000000000002</ele>
<time>2023-05-17T13:01:37Z</time>
</trkpt>
<trkpt lat="49.15303294546902" lon="8.289636941626668">
<ele>116.60000000000002</ele>
<time>2023-05-17T13:01:38Z</time>
</trkpt>
<trkpt lat="49.15305691771209" lon="8.289594948291779">
<ele>116.60000000000002</ele>
<time>2023-05-17T13:01:39Z</time>
</trkpt>
<trkpt lat="49.15309295989573" lon="8.289571981877089">
<ele>116.60000000000002</ele>
<time>2023-05-17T13:01:40Z</time>
</trkpt>
<trkpt lat="49.15313495323062" lon="8.28955496661365">
<ele>116.60000000000002</ele>
<time>2023-05-17T13:01:41Z</time>
</trkpt>
<trkpt lat="49.15318298153579" lon="8.289536945521832">
<ele>116.60000000000002</ele>
<time>2023-05-17T13:01:42Z</time>
</trkpt>
<trkpt lat="49.15322799235582" lon="8.289517918601632">
<ele>116.60000000000002</ele>
<time>2023-05-17T13:01:43Z</time>
</trkpt>
<trkpt lat="49.153271997347474" lon="8.289497969672084">
<ele>116.60000000000002</ele>
<time>2023-05-17T13:01:44Z</time>
</trkpt>
<trkpt lat="49.153314996510744" lon="8.289476931095123">
<ele>116.60000000000002</ele>
<time>2023-05-17T13:01:45Z</time>
</trkpt>
<trkpt lat="49.153357995674014" lon="8.289454970508814">
<ele>116.60000000000002</ele>
<time>2023-05-17T13:01:46Z</time>
</trkpt>
<trkpt lat="49.15340191684663" lon="8.289429992437363">
<ele>116.60000000000002</ele>
<time>2023-05-17T13:01:47Z</time>
</trkpt>
<trkpt lat="49.153446927666664" lon="8.289409959688783">
<ele>116.60000000000002</ele>
<time>2023-05-17T13:01:48Z</time>
</trkpt>
<trkpt lat="49.153491938486695" lon="8.289389926940203">
<ele>116.60000000000002</ele>
<time>2023-05-17T13:01:49Z</time>
</trkpt>
<trkpt lat="49.15353694930673" lon="8.289369978010654">
<ele>116.60000000000002</ele>
<time>2023-05-17T13:01:50Z</time>
</trkpt>
<trkpt lat="49.15358196012676" lon="8.289351956918836">
<ele>116.60000000000002</ele>
<time>2023-05-17T13:01:51Z</time>
</trkpt>
<trkpt lat="49.15362495929003" lon="8.289332929998636">
<ele>116.60000000000002</ele>
<time>2023-05-17T13:01:52Z</time>
</trkpt>
<trkpt lat="49.1536679584533" lon="8.28931499272585">
<ele>116.60000000000002</ele>
<time>2023-05-17T13:01:53Z</time>
</trkpt>
<trkpt lat="49.15371196344495" lon="8.289292948320508">
<ele>116.79999999999995</ele>
<time>2023-05-17T13:01:54Z</time>
</trkpt>
<trkpt lat="49.15375496260822" lon="8.289269981905818">
<ele>116.79999999999995</ele>
<time>2023-05-17T13:01:55Z</time>
</trkpt>
<trkpt lat="49.15379796177149" lon="8.289246931672096">
<ele>116.79999999999995</ele>
<time>2023-05-17T13:01:56Z</time>
</trkpt>
<trkpt lat="49.15384196676314" lon="8.289221953600645">
<ele>117</ele>
<time>2023-05-17T13:01:57Z</time>
</trkpt>
<trkpt lat="49.15388496592641" lon="8.289201920852065">
<ele>117</ele>
<time>2023-05-17T13:01:58Z</time>
</trkpt>
<trkpt lat="49.15392997674644" lon="8.289177948608994">
<ele>117</ele>
<time>2023-05-17T13:01:59Z</time>
</trkpt>
<trkpt lat="49.15397498756647" lon="8.289152970537543">
<ele>117</ele>
<time>2023-05-17T13:02:00Z</time>
</trkpt>
<trkpt lat="49.15401698090136" lon="8.289129920303822">
<ele>117</ele>
<time>2023-05-17T13:02:01Z</time>
</trkpt>
<trkpt lat="49.15405998006463" lon="8.289109971374273">
<ele>117</ele>
<time>2023-05-17T13:02:02Z</time>
</trkpt>
<trkpt lat="49.15410197339952" lon="8.289086921140552">
<ele>117</ele>
<time>2023-05-17T13:02:03Z</time>
</trkpt>
<trkpt lat="49.15414497256279" lon="8.289066972211003">
<ele>117</ele>
<time>2023-05-17T13:02:04Z</time>
</trkpt>
<trkpt lat="49.15418495424092" lon="8.289046939462423">
<ele>117</ele>
<time>2023-05-17T13:02:05Z</time>
</trkpt>
<trkpt lat="49.154221918433905" lon="8.289027996361256">
<ele>117</ele>
<time>2023-05-17T13:02:06Z</time>
</trkpt>
<trkpt lat="49.1542549431324" lon="8.289002934470773">
<ele>116.79999999999995</ele>
<time>2023-05-17T13:02:07Z</time>
</trkpt>
<trkpt lat="49.154287967830896" lon="8.288977956399322">
<ele>116.79999999999995</ele>
<time>2023-05-17T13:02:08Z</time>
</trkpt>
<trkpt lat="49.154309928417206" lon="8.288972927257419">
<ele>116.79999999999995</ele>
<time>2023-05-17T13:02:09Z</time>
</trkpt>
<trkpt lat="49.15433499030769" lon="8.288956917822361">
<ele>116.79999999999995</ele>
<time>2023-05-17T13:02:10Z</time>
</trkpt>
<trkpt lat="49.15437497198582" lon="8.288942920044065">
<ele>116.79999999999995</ele>
<time>2023-05-17T13:02:11Z</time>
</trkpt>
<trkpt lat="49.15440699085593" lon="8.288942920044065">
<ele>116.79999999999995</ele>
<time>2023-05-17T13:02:12Z</time>
</trkpt>
<trkpt lat="49.15444194339216" lon="8.28893193975091">
<ele>116.79999999999995</ele>
<time>2023-05-17T13:02:13Z</time>
</trkpt>
<trkpt lat="49.154476979747415" lon="8.288911990821362">
<ele>116.79999999999995</ele>
<time>2023-05-17T13:02:14Z</time>
</trkpt>
<trkpt lat="49.15450799278915" lon="8.288894975557923">
<ele>116.79999999999995</ele>
<time>2023-05-17T13:02:15Z</time>
</trkpt>
<trkpt lat="49.154541939496994" lon="8.288877960294485">
<ele>116.79999999999995</ele>
<time>2023-05-17T13:02:16Z</time>
</trkpt>
<trkpt lat="49.15457798168063" lon="8.288859939202666">
<ele>116.79999999999995</ele>
<time>2023-05-17T13:02:17Z</time>
</trkpt>
<trkpt lat="49.15461695753038" lon="8.288839990273118">
<ele>116.79999999999995</ele>
<time>2023-05-17T13:02:18Z</time>
</trkpt>
<trkpt lat="49.154649982228875" lon="8.288824986666441">
<ele>116.79999999999995</ele>
<time>2023-05-17T13:02:19Z</time>
</trkpt>
<trkpt lat="49.15467797778547" lon="8.288811994716525">
<ele>116.79999999999995</ele>
<time>2023-05-17T13:02:20Z</time>
</trkpt>
<trkpt lat="49.15470999665558" lon="8.288797996938229">
<ele>116.79999999999995</ele>
<time>2023-05-17T13:02:21Z</time>
</trkpt>
<trkpt lat="49.15474494919181" lon="8.28877997584641">
<ele>116.79999999999995</ele>
<time>2023-05-17T13:02:22Z</time>
</trkpt>
<trkpt lat="49.154776968061924" lon="8.288762960582972">
<ele>116.79999999999995</ele>
<time>2023-05-17T13:02:23Z</time>
</trkpt>
<trkpt lat="49.15481292642653" lon="8.288746951147914">
<ele>116.79999999999995</ele>
<time>2023-05-17T13:02:24Z</time>
</trkpt>
<trkpt lat="49.15484796278179" lon="8.288721973076463">
<ele>116.79999999999995</ele>
<time>2023-05-17T13:02:25Z</time>
</trkpt>
<trkpt lat="49.15488199330866" lon="8.288696995005012">
<ele>116.79999999999995</ele>
<time>2023-05-17T13:02:26Z</time>
</trkpt>
<trkpt lat="49.15491493418813" lon="8.28867495059967">
<ele>116.79999999999995</ele>
<time>2023-05-17T13:02:27Z</time>
</trkpt>
<trkpt lat="49.15494795888662" lon="8.28865198418498">
<ele>116.79999999999995</ele>
<time>2023-05-17T13:02:28Z</time>
</trkpt>
<trkpt lat="49.1549819894135" lon="8.28862993977964">
<ele>116.79999999999995</ele>
<time>2023-05-17T13:02:29Z</time>
</trkpt>
<trkpt lat="49.155017947778106" lon="8.288609990850091">
<ele>116.79999999999995</ele>
<time>2023-05-17T13:02:30Z</time>
</trkpt>
<trkpt lat="49.15504996664822" lon="8.28858794644475">
<ele>117</ele>
<time>2023-05-17T13:02:31Z</time>
</trkpt>
<trkpt lat="49.15508299134672" lon="8.28856498003006">
<ele>117</ele>
<time>2023-05-17T13:02:32Z</time>
</trkpt>
<trkpt lat="49.15511794388294" lon="8.288541929796338">
<ele>117</ele>
<time>2023-05-17T13:02:33Z</time>
</trkpt>
<trkpt lat="49.155147951096296" lon="8.28852198086679">
<ele>117</ele>
<time>2023-05-17T13:02:34Z</time>
</trkpt>
<trkpt lat="49.15517695248127" lon="8.28850194811821">
<ele>116.79999999999995</ele>
<time>2023-05-17T13:02:35Z</time>
</trkpt>
<trkpt lat="49.155206959694624" lon="8.288486944511533">
<ele>116.79999999999995</ele>
<time>2023-05-17T13:02:36Z</time>
</trkpt>
<trkpt lat="49.15524492971599" lon="8.288471940904856">
<ele>116.79999999999995</ele>
<time>2023-05-17T13:02:37Z</time>
</trkpt>
<trkpt lat="49.15527996607125" lon="8.288456937298179">
<ele>116.79999999999995</ele>
<time>2023-05-17T13:02:38Z</time>
</trkpt>
<trkpt lat="49.155317936092615" lon="8.28843497671187">
<ele>116.79999999999995</ele>
<time>2023-05-17T13:02:39Z</time>
</trkpt>
<trkpt lat="49.15535498410463" lon="8.288407986983657">
<ele>116.79999999999995</ele>
<time>2023-05-17T13:02:40Z</time>
</trkpt>
<trkpt lat="49.15539194829762" lon="8.288384936749935">
<ele>116.79999999999995</ele>
<time>2023-05-17T13:02:41Z</time>
</trkpt>
<trkpt lat="49.15542799048126" lon="8.288364987820387">
<ele>116.79999999999995</ele>
<time>2023-05-17T13:02:42Z</time>
</trkpt>
<trkpt lat="49.15546294301748" lon="8.288342943415046">
<ele>116.79999999999995</ele>
<time>2023-05-17T13:02:43Z</time>
</trkpt>
<trkpt lat="49.15549797937274" lon="8.288322994485497">
<ele>116.79999999999995</ele>
<time>2023-05-17T13:02:44Z</time>
</trkpt>
<trkpt lat="49.155534943565726" lon="8.288296926766634">
<ele>116.79999999999995</ele>
<time>2023-05-17T13:02:45Z</time>
</trkpt>
<trkpt lat="49.15556997992098" lon="8.288272954523563">
<ele>116.79999999999995</ele>
<time>2023-05-17T13:02:46Z</time>
</trkpt>
<trkpt lat="49.15560292080045" lon="8.288251999765635">
<ele>116.79999999999995</ele>
<time>2023-05-17T13:02:47Z</time>
</trkpt>
<trkpt lat="49.15563493967056" lon="8.288227943703532">
<ele>116.79999999999995</ele>
<time>2023-05-17T13:02:48Z</time>
</trkpt>
<trkpt lat="49.15566796436906" lon="8.288207994773984">
<ele>116.79999999999995</ele>
<time>2023-05-17T13:02:49Z</time>
</trkpt>
<trkpt lat="49.15569797158241" lon="8.288186956197023">
<ele>116.79999999999995</ele>
<time>2023-05-17T13:02:50Z</time>
</trkpt>
<trkpt lat="49.15572999045253" lon="8.288164995610714">
<ele>116.79999999999995</ele>
<time>2023-05-17T13:02:51Z</time>
</trkpt>
<trkpt lat="49.15575999766588" lon="8.288142951205373">
<ele>116.79999999999995</ele>
<time>2023-05-17T13:02:52Z</time>
</trkpt>
<trkpt lat="49.155787993222475" lon="8.288121996447444">
<ele>116.79999999999995</ele>
<time>2023-05-17T13:02:53Z</time>
</trkpt>
<trkpt lat="49.155811965465546" lon="8.288104981184006">
<ele>116.79999999999995</ele>
<time>2023-05-17T13:02:54Z</time>
</trkpt>
<trkpt lat="49.155832920223475" lon="8.288087965920568">
<ele>116.79999999999995</ele>
<time>2023-05-17T13:02:55Z</time>
</trkpt>
<trkpt lat="49.15585697628558" lon="8.288067933171988">
<ele>116.79999999999995</ele>
<time>2023-05-17T13:02:56Z</time>
</trkpt>
<trkpt lat="49.155872985720634" lon="8.288054941222072">
<ele>116.79999999999995</ele>
<time>2023-05-17T13:02:57Z</time>
</trkpt>
<trkpt lat="49.15589293465018" lon="8.288062987849116">
<ele>116.79999999999995</ele>
<time>2023-05-17T13:02:58Z</time>
</trkpt>
<trkpt lat="49.15590198710561" lon="8.288059970363975">
<ele>116.79999999999995</ele>
<time>2023-05-17T13:02:59Z</time>
</trkpt>
<trkpt lat="49.15590793825686" lon="8.2880499958992">
<ele>116.60000000000002</ele>
<time>2023-05-17T13:03:00Z</time>
</trkpt>
<trkpt lat="49.1559299826622" lon="8.288041949272156">
<ele>116.60000000000002</ele>
<time>2023-05-17T13:03:01Z</time>
</trkpt>
<trkpt lat="49.15593291632831" lon="8.28802795149386">
<ele>116.60000000000002</ele>
<time>2023-05-17T13:03:02Z</time>
</trkpt>
<trkpt lat="49.15592797100544" lon="8.287996938452125">
<ele>116.60000000000002</ele>
<time>2023-05-17T13:03:03Z</time>
</trkpt>
<trkpt lat="49.1559299826622" lon="8.287951927632093">
<ele>116.60000000000002</ele>
<time>2023-05-17T13:03:04Z</time>
</trkpt>
<trkpt lat="49.155921936035156" lon="8.287902977317572">
<ele>116.39999999999998</ele>
<time>2023-05-17T13:03:05Z</time>
</trkpt>
<trkpt lat="49.15590793825686" lon="8.28785696066916">
<ele>116.39999999999998</ele>
<time>2023-05-17T13:03:06Z</time>
</trkpt>
<trkpt lat="49.1558919288218" lon="8.287804992869496">
<ele>116.39999999999998</ele>
<time>2023-05-17T13:03:07Z</time>
</trkpt>
<trkpt lat="49.155874997377396" lon="8.28774699009955">
<ele>116.39999999999998</ele>
<time>2023-05-17T13:03:08Z</time>
</trkpt>
<trkpt lat="49.155851947143674" lon="8.287687981501222">
<ele>116.39999999999998</ele>
<time>2023-05-17T13:03:09Z</time>
</trkpt>
<trkpt lat="49.155832920223475" lon="8.287619920447469">
<ele>116.39999999999998</ele>
<time>2023-05-17T13:03:10Z</time>
</trkpt>
<trkpt lat="49.15581498295069" lon="8.287549931555986">
<ele>116.39999999999998</ele>
<time>2023-05-17T13:03:11Z</time>
</trkpt>
<trkpt lat="49.15579997934401" lon="8.287481954321265">
<ele>116.39999999999998</ele>
<time>2023-05-17T13:03:12Z</time>
</trkpt>
<trkpt lat="49.15578195825219" lon="8.287409953773022">
<ele>116.39999999999998</ele>
<time>2023-05-17T13:03:13Z</time>
</trkpt>
<trkpt lat="49.15576494298875" lon="8.287337953224778">
<ele>116.39999999999998</ele>
<time>2023-05-17T13:03:14Z</time>
</trkpt>
<trkpt lat="49.155746921896935" lon="8.287266958504915">
<ele>116.20000000000005</ele>
<time>2023-05-17T13:03:15Z</time>
</trkpt>
<trkpt lat="49.15572999045253" lon="8.287194957956672">
<ele>116.20000000000005</ele>
<time>2023-05-17T13:03:16Z</time>
</trkpt>
<trkpt lat="49.15571792051196" lon="8.28712496906519">
<ele>116.20000000000005</ele>
<time>2023-05-17T13:03:17Z</time>
</trkpt>
<trkpt lat="49.15570995770395" lon="8.287056991830468">
<ele>116.20000000000005</ele>
<time>2023-05-17T13:03:18Z</time>
</trkpt>
<trkpt lat="49.15570794604719" lon="8.286984991282225">
<ele>116.20000000000005</ele>
<time>2023-05-17T13:03:19Z</time>
</trkpt>
<trkpt lat="49.155701994895935" lon="8.286916930228472">
<ele>116</ele>
<time>2023-05-17T13:03:20Z</time>
</trkpt>
<trkpt lat="49.155702916905284" lon="8.286841996014118">
<ele>116</ele>
<time>2023-05-17T13:03:21Z</time>
</trkpt>
<trkpt lat="49.155702916905284" lon="8.286764966323972">
<ele>116</ele>
<time>2023-05-17T13:03:22Z</time>
</trkpt>
<trkpt lat="49.15570995770395" lon="8.286686930805445">
<ele>116</ele>
<time>2023-05-17T13:03:23Z</time>
</trkpt>
<trkpt lat="49.15570995770395" lon="8.286611996591091">
<ele>116</ele>
<time>2023-05-17T13:03:24Z</time>
</trkpt>
<trkpt lat="49.155706940218806" lon="8.286532955244184">
<ele>116.20000000000005</ele>
<time>2023-05-17T13:03:25Z</time>
</trkpt>
<trkpt lat="49.155704928562045" lon="8.286454919725657">
<ele>116.20000000000005</ele>
<time>2023-05-17T13:03:26Z</time>
</trkpt>
<trkpt lat="49.155702916905284" lon="8.2863749563694">
<ele>116</ele>
<time>2023-05-17T13:03:27Z</time>
</trkpt>
<trkpt lat="49.15569696575403" lon="8.286292981356382">
<ele>116</ele>
<time>2023-05-17T13:03:28Z</time>
</trkpt>
<trkpt lat="49.15569696575403" lon="8.286212934181094">
<ele>116</ele>
<time>2023-05-17T13:03:29Z</time>
</trkpt>
<trkpt lat="49.15569294244051" lon="8.286129953339696">
<ele>116</ele>
<time>2023-05-17T13:03:30Z</time>
</trkpt>
<trkpt lat="49.15568992495537" lon="8.286047978326678">
<ele>116</ele>
<time>2023-05-17T13:03:31Z</time>
</trkpt>
<trkpt lat="49.15568799711764" lon="8.285979917272925">
<ele>116</ele>
<time>2023-05-17T13:03:32Z</time>
</trkpt>
<trkpt lat="49.15569193661213" lon="8.285912945866585">
<ele>116</ele>
<time>2023-05-17T13:03:33Z</time>
</trkpt>
<trkpt lat="49.155706940218806" lon="8.28585796058178">
<ele>115.79999999999995</ele>
<time>2023-05-17T13:03:34Z</time>
</trkpt>
<trkpt lat="49.15573292411864" lon="8.285812949761748">
<ele>115.79999999999995</ele>
<time>2023-05-17T13:03:35Z</time>
</trkpt>
<trkpt lat="49.155767960473895" lon="8.28577296808362">
<ele>115.79999999999995</ele>
<time>2023-05-17T13:03:36Z</time>
</trkpt>
<trkpt lat="49.155809953808784" lon="8.285741955041885">
<ele>115.79999999999995</ele>
<time>2023-05-17T13:03:37Z</time>
</trkpt>
<trkpt lat="49.155851947143674" lon="8.285712953656912">
<ele>115.79999999999995</ele>
<time>2023-05-17T13:03:38Z</time>
</trkpt>
<trkpt lat="49.15589293465018" lon="8.285684958100319">
<ele>115.79999999999995</ele>
<time>2023-05-17T13:03:39Z</time>
</trkpt>
<trkpt lat="49.155939957126975" lon="8.28566794283688">
<ele>115.79999999999995</ele>
<time>2023-05-17T13:03:40Z</time>
</trkpt>
<trkpt lat="49.155982956290245" lon="8.285656962543726">
<ele>115.79999999999995</ele>
<time>2023-05-17T13:03:41Z</time>
</trkpt>
<trkpt lat="49.15603299625218" lon="8.285651933401823">
<ele>115.79999999999995</ele>
<time>2023-05-17T13:03:42Z</time>
</trkpt>
<trkpt lat="49.15608295239508" lon="8.285649921745062">
<ele>115.79999999999995</ele>
<time>2023-05-17T13:03:43Z</time>
</trkpt>
<trkpt lat="49.156131986528635" lon="8.285651933401823">
<ele>115.79999999999995</ele>
<time>2023-05-17T13:03:44Z</time>
</trkpt>
<trkpt lat="49.156177919358015" lon="8.285651933401823">
<ele>115.79999999999995</ele>
<time>2023-05-17T13:03:45Z</time>
</trkpt>
<trkpt lat="49.15622795931995" lon="8.285646988078952">
<ele>115.79999999999995</ele>
<time>2023-05-17T13:03:46Z</time>
</trkpt>
<trkpt lat="49.15627498179674" lon="8.285651933401823">
<ele>115.79999999999995</ele>
<time>2023-05-17T13:03:47Z</time>
</trkpt>
<trkpt lat="49.1563219204545" lon="8.28566299751401">
<ele>115.79999999999995</ele>
<time>2023-05-17T13:03:48Z</time>
</trkpt>
<trkpt lat="49.156369948759675" lon="8.285674983635545">
<ele>115.79999999999995</ele>
<time>2023-05-17T13:03:49Z</time>
</trkpt>
<trkpt lat="49.15641797706485" lon="8.285671966150403">
<ele>115.79999999999995</ele>
<time>2023-05-17T13:03:50Z</time>
</trkpt>
<trkpt lat="49.1564619820565" lon="8.28566299751401">
<ele>115.79999999999995</ele>
<time>2023-05-17T13:03:51Z</time>
</trkpt>
<trkpt lat="49.15650296956301" lon="8.285654950886965">
<ele>115.79999999999995</ele>
<time>2023-05-17T13:03:52Z</time>
</trkpt>
<trkpt lat="49.15654798038304" lon="8.285646988078952">
<ele>115.79999999999995</ele>
<time>2023-05-17T13:03:53Z</time>
</trkpt>
<trkpt lat="49.15659299120307" lon="8.285637935623527">
<ele>115.79999999999995</ele>
<time>2023-05-17T13:03:54Z</time>
</trkpt>
<trkpt lat="49.15664294734597" lon="8.285629972815514">
<ele>115.60000000000002</ele>
<time>2023-05-17T13:03:55Z</time>
</trkpt>
<trkpt lat="49.156691981479526" lon="8.285616980865598">
<ele>115.60000000000002</ele>
<time>2023-05-17T13:03:56Z</time>
</trkpt>
<trkpt lat="49.15674193762243" lon="8.285596948117018">
<ele>115.60000000000002</ele>
<time>2023-05-17T13:03:57Z</time>
</trkpt>
<trkpt lat="49.15679298341274" lon="8.285567946732044">
<ele>115.60000000000002</ele>
<time>2023-05-17T13:03:58Z</time>
</trkpt>
<trkpt lat="49.156841933727264" lon="8.285532994195819">
<ele>115.60000000000002</ele>
<time>2023-05-17T13:03:59Z</time>
</trkpt>
<trkpt lat="49.15688996203244" lon="8.285486977547407">
<ele>115.60000000000002</ele>
<time>2023-05-17T13:04:00Z</time>
</trkpt>
<trkpt lat="49.15693296119571" lon="8.285434925928712">
<ele>115.60000000000002</ele>
<time>2023-05-17T13:04:01Z</time>
</trkpt>
<trkpt lat="49.156971937045455" lon="8.285374995321035">
<ele>115.60000000000002</ele>
<time>2023-05-17T13:04:02Z</time>
</trkpt>
<trkpt lat="49.15700697340071" lon="8.285307940095663">
<ele>115.60000000000002</ele>
<time>2023-05-17T13:04:03Z</time>
</trkpt>
<trkpt lat="49.15703195147216" lon="8.2852369453758">
<ele>115.60000000000002</ele>
<time>2023-05-17T13:04:04Z</time>
</trkpt>
<trkpt lat="49.157052990049124" lon="8.285161927342415">
<ele>115.60000000000002</ele>
<time>2023-05-17T13:04:05Z</time>
</trkpt>
<trkpt lat="49.15707293897867" lon="8.285082969814539">
<ele>115.60000000000002</ele>
<time>2023-05-17T13:04:06Z</time>
</trkpt>
<trkpt lat="49.15708794258535" lon="8.285006945952773">
<ele>115.60000000000002</ele>
<time>2023-05-17T13:04:07Z</time>
</trkpt>
<trkpt lat="49.15710495784879" lon="8.284924970939755">
<ele>115.60000000000002</ele>
<time>2023-05-17T13:04:08Z</time>
</trkpt>
<trkpt lat="49.157119961455464" lon="8.284846935421228">
<ele>115.79999999999995</ele>
<time>2023-05-17T13:04:09Z</time>
</trkpt>
<trkpt lat="49.15713496506214" lon="8.284771917387843">
<ele>115.79999999999995</ele>
<time>2023-05-17T13:04:10Z</time>
</trkpt>
<trkpt lat="49.15714695118368" lon="8.28470192849636">
<ele>115.79999999999995</ele>
<time>2023-05-17T13:04:11Z</time>
</trkpt>
<trkpt lat="49.15715692564845" lon="8.284632945433259">
<ele>115.79999999999995</ele>
<time>2023-05-17T13:04:12Z</time>
</trkpt>
<trkpt lat="49.15716698393226" lon="8.284566979855299">
<ele>115.79999999999995</ele>
<time>2023-05-17T13:04:13Z</time>
</trkpt>
<trkpt lat="49.15717494674027" lon="8.28450696542859">
<ele>116</ele>
<time>2023-05-17T13:04:14Z</time>
</trkpt>
<trkpt lat="49.157186932861805" lon="8.284437982365489">
<ele>116</ele>
<time>2023-05-17T13:04:15Z</time>
</trkpt>
<trkpt lat="49.15719699114561" lon="8.284364975988865">
<ele>116</ele>
<time>2023-05-17T13:04:16Z</time>
</trkpt>
<trkpt lat="49.157204953953624" lon="8.28429196961224">
<ele>116</ele>
<time>2023-05-17T13:04:17Z</time>
</trkpt>
<trkpt lat="49.15721199475229" lon="8.284221980720758">
<ele>116</ele>
<time>2023-05-17T13:04:18Z</time>
</trkpt>
<trkpt lat="49.15721794590354" lon="8.284152997657657">
<ele>116</ele>
<time>2023-05-17T13:04:19Z</time>
</trkpt>
<trkpt lat="49.157229932025075" lon="8.284081919118762">
<ele>116</ele>
<time>2023-05-17T13:04:20Z</time>
</trkpt>
<trkpt lat="49.15723697282374" lon="8.284014947712421">
<ele>116.20000000000005</ele>
<time>2023-05-17T13:04:21Z</time>
</trkpt>
<trkpt lat="49.15724694728851" lon="8.283954933285713">
<ele>116.20000000000005</ele>
<time>2023-05-17T13:04:22Z</time>
</trkpt>
<trkpt lat="49.15725499391556" lon="8.283896930515766">
<ele>116.20000000000005</ele>
<time>2023-05-17T13:04:23Z</time>
</trkpt>
<trkpt lat="49.15726295672357" lon="8.283837921917439">
<ele>116.20000000000005</ele>
<time>2023-05-17T13:04:24Z</time>
</trkpt>
<trkpt lat="49.157267985865474" lon="8.283787965774536">
<ele>116.20000000000005</ele>
<time>2023-05-17T13:04:25Z</time>
</trkpt>
<trkpt lat="49.157274942845106" lon="8.283742954954505">
<ele>116.20000000000005</ele>
<time>2023-05-17T13:04:26Z</time>
</trkpt>
<trkpt lat="49.15728491730988" lon="8.283706996589899">
<ele>116.39999999999998</ele>
<time>2023-05-17T13:04:27Z</time>
</trkpt>
<trkpt lat="49.157292963936925" lon="8.283674977719784">
<ele>116.39999999999998</ele>
<time>2023-05-17T13:04:28Z</time>
</trkpt>
<trkpt lat="49.15730193257332" lon="8.283639941364527">
<ele>116.39999999999998</ele>
<time>2023-05-17T13:04:29Z</time>
</trkpt>
<trkpt lat="49.1573079675436" lon="8.28360691666603">
<ele>116.60000000000002</ele>
<time>2023-05-17T13:04:30Z</time>
</trkpt>
<trkpt lat="49.157314924523234" lon="8.283574981614947">
<ele>116.60000000000002</ele>
<time>2023-05-17T13:04:31Z</time>
</trkpt>
<trkpt lat="49.15732297115028" lon="8.283544974401593">
<ele>116.79999999999995</ele>
<time>2023-05-17T13:04:32Z</time>
</trkpt>
<trkpt lat="49.157334957271814" lon="8.283514967188239">
<ele>116.79999999999995</ele>
<time>2023-05-17T13:04:33Z</time>
</trkpt>
<trkpt lat="49.15735297836363" lon="8.283486971631646">
<ele>117</ele>
<time>2023-05-17T13:04:34Z</time>
</trkpt>
<trkpt lat="49.1573719214648" lon="8.283457970246673">
<ele>117.20000000000005</ele>
<time>2023-05-17T13:04:35Z</time>
</trkpt>
<trkpt lat="49.15739195421338" lon="8.283427963033319">
<ele>117.20000000000005</ele>
<time>2023-05-17T13:04:36Z</time>
</trkpt>
<trkpt lat="49.1574099753052" lon="8.283396949991584">
<ele>117.39999999999998</ele>
<time>2023-05-17T13:04:37Z</time>
</trkpt>
<trkpt lat="49.15742497891188" lon="8.28336794860661">
<ele>117.60000000000002</ele>
<time>2023-05-17T13:04:38Z</time>
</trkpt>
<trkpt lat="49.15743797086179" lon="8.283342970535159">
<ele>117.79999999999995</ele>
<time>2023-05-17T13:04:39Z</time>
</trkpt>
<trkpt lat="49.15745196864009" lon="8.283321931958199">
<ele>117.79999999999995</ele>
<time>2023-05-17T13:04:40Z</time>
</trkpt>
<trkpt lat="49.157464960590005" lon="8.283297959715128">
<ele>118</ele>
<time>2023-05-17T13:04:41Z</time>
</trkpt>
<trkpt lat="49.15747996419668" lon="8.283271975815296">
<ele>118</ele>
<time>2023-05-17T13:04:42Z</time>
</trkpt>
<trkpt lat="49.15749496780336" lon="8.283242974430323">
<ele>118.20000000000005</ele>
<time>2023-05-17T13:04:43Z</time>
</trkpt>
<trkpt lat="49.157509971410036" lon="8.283211961388588">
<ele>118.39999999999998</ele>
<time>2023-05-17T13:04:44Z</time>
</trkpt>
<trkpt lat="49.157526986673474" lon="8.283177930861712">
<ele>118.39999999999998</ele>
<time>2023-05-17T13:04:45Z</time>
</trkpt>
<trkpt lat="49.15754492394626" lon="8.283141972497106">
<ele>118.60000000000002</ele>
<time>2023-05-17T13:04:46Z</time>
</trkpt>
<trkpt lat="49.15756495669484" lon="8.283104924485087">
<ele>118.79999999999995</ele>
<time>2023-05-17T13:04:47Z</time>
</trkpt>
<trkpt lat="49.15758691728115" lon="8.28306695446372">
<ele>118.79999999999995</ele>
<time>2023-05-17T13:04:48Z</time>
</trkpt>
<trkpt lat="49.15760795585811" lon="8.283027978613973">
<ele>119</ele>
<time>2023-05-17T13:04:49Z</time>
</trkpt>
<trkpt lat="49.15763192810118" lon="8.282986991107464">
<ele>119</ele>
<time>2023-05-17T13:04:50Z</time>
</trkpt>
<trkpt lat="49.15765296667814" lon="8.282941980287433">
<ele>119</ele>
<time>2023-05-17T13:04:51Z</time>
</trkpt>
<trkpt lat="49.15767492726445" lon="8.28289495781064">
<ele>119</ele>
<time>2023-05-17T13:04:52Z</time>
</trkpt>
<trkpt lat="49.157697977498174" lon="8.282844917848706">
<ele>119</ele>
<time>2023-05-17T13:04:53Z</time>
</trkpt>
<trkpt lat="49.15771792642772" lon="8.282797979190946">
<ele>119</ele>
<time>2023-05-17T13:04:54Z</time>
</trkpt>
<trkpt lat="49.15773997083306" lon="8.282751962542534">
<ele>119</ele>
<time>2023-05-17T13:04:55Z</time>
</trkpt>
<trkpt lat="49.15775799192488" lon="8.282707957550883">
<ele>119</ele>
<time>2023-05-17T13:04:56Z</time>
</trkpt>
<trkpt lat="49.15777693502605" lon="8.282672921195626">
<ele>119</ele>
<time>2023-05-17T13:04:57Z</time>
</trkpt>
<trkpt lat="49.15779193863273" lon="8.282641991972923">
<ele>119</ele>
<time>2023-05-17T13:04:58Z</time>
</trkpt>
<trkpt lat="49.157806942239404" lon="8.28261299058795">
<ele>119</ele>
<time>2023-05-17T13:04:59Z</time>
</trkpt>
<trkpt lat="49.15781792253256" lon="8.282587928697467">
<ele>119</ele>
<time>2023-05-17T13:05:00Z</time>
</trkpt>
<trkpt lat="49.157834937796" lon="8.28256999142468">
<ele>119</ele>
<time>2023-05-17T13:05:01Z</time>
</trkpt>
<trkpt lat="49.1578449960798" lon="8.282552976161242">
<ele>118.79999999999995</ele>
<time>2023-05-17T13:05:02Z</time>
</trkpt>
<trkpt lat="49.15784792974591" lon="8.282539984211326">
<ele>118.79999999999995</ele>
<time>2023-05-17T13:05:03Z</time>
</trkpt>
<trkpt lat="49.157849941402674" lon="8.282537972554564">
<ele>118.79999999999995</ele>
<time>2023-05-17T13:05:04Z</time>
</trkpt>
<trkpt lat="49.15790299884975" lon="8.282472928985953">
<ele>118.60000000000002</ele>
<time>2023-05-17T13:05:05Z</time>
</trkpt>
<trkpt lat="49.157916996628046" lon="8.282466977834702">
<ele>118.60000000000002</ele>
<time>2023-05-17T13:05:06Z</time>
</trkpt>
<trkpt lat="49.15792998857796" lon="8.282461948692799">
<ele>118.60000000000002</ele>
<time>2023-05-17T13:05:07Z</time>
</trkpt>
<trkpt lat="49.15794792585075" lon="8.282459937036037">
<ele>118.79999999999995</ele>
<time>2023-05-17T13:05:08Z</time>
</trkpt>
<trkpt lat="49.15796695277095" lon="8.282451974228024">
<ele>118.79999999999995</ele>
<time>2023-05-17T13:05:09Z</time>
</trkpt>
<trkpt lat="49.15798991918564" lon="8.282434958964586">
<ele>118.79999999999995</ele>
<time>2023-05-17T13:05:10Z</time>
</trkpt>
<trkpt lat="49.15801296941936" lon="8.282414926216006">
<ele>118.79999999999995</ele>
<time>2023-05-17T13:05:11Z</time>
</trkpt>
<trkpt lat="49.15803794749081" lon="8.282392965629697">
<ele>118.79999999999995</ele>
<time>2023-05-17T13:05:12Z</time>
</trkpt>
<trkpt lat="49.158066948875785" lon="8.282372932881117">
<ele>118.79999999999995</ele>
<time>2023-05-17T13:05:13Z</time>
</trkpt>
<trkpt lat="49.15809796191752" lon="8.28235692344606">
<ele>118.79999999999995</ele>
<time>2023-05-17T13:05:14Z</time>
</trkpt>
<trkpt lat="49.158131992444396" lon="8.282337980344892">
<ele>118.79999999999995</ele>
<time>2023-05-17T13:05:15Z</time>
</trkpt>
<trkpt lat="49.15816694498062" lon="8.282321970909834">
<ele>118.79999999999995</ele>
<time>2023-05-17T13:05:16Z</time>
</trkpt>
<trkpt lat="49.15819996967912" lon="8.282301938161254">
<ele>119</ele>
<time>2023-05-17T13:05:17Z</time>
</trkpt>
<trkpt lat="49.158236933872104" lon="8.282281989231706">
<ele>119</ele>
<time>2023-05-17T13:05:18Z</time>
</trkpt>
<trkpt lat="49.15827297605574" lon="8.282259944826365">
<ele>119</ele>
<time>2023-05-17T13:05:19Z</time>
</trkpt>
<trkpt lat="49.15830994024873" lon="8.282237984240055">
<ele>119</ele>
<time>2023-05-17T13:05:20Z</time>
</trkpt>
<trkpt lat="49.158344976603985" lon="8.282214934006333">
<ele>119.20000000000005</ele>
<time>2023-05-17T13:05:21Z</time>
</trkpt>
<trkpt lat="49.15837791748345" lon="8.282192973420024">
<ele>119.20000000000005</ele>
<time>2023-05-17T13:05:22Z</time>
</trkpt>
<trkpt lat="49.158409936353564" lon="8.282176963984966">
<ele>119.20000000000005</ele>
<time>2023-05-17T13:05:23Z</time>
</trkpt>
<trkpt lat="49.15844296105206" lon="8.282157937064767">
<ele>119.20000000000005</ele>
<time>2023-05-17T13:05:24Z</time>
</trkpt>
<trkpt lat="49.158474979922175" lon="8.282136982306838">
<ele>119.39999999999998</ele>
<time>2023-05-17T13:05:25Z</time>
</trkpt>
<trkpt lat="49.15850699879229" lon="8.282114937901497">
<ele>119.39999999999998</ele>
<time>2023-05-17T13:05:26Z</time>
</trkpt>
<trkpt lat="49.158539939671755" lon="8.282094988971949">
<ele>119.39999999999998</ele>
<time>2023-05-17T13:05:27Z</time>
</trkpt>
<trkpt lat="49.15857296437025" lon="8.28207696788013">
<ele>119.60000000000002</ele>
<time>2023-05-17T13:05:28Z</time>
</trkpt>
<trkpt lat="49.15860699489713" lon="8.28205794095993">
<ele>119.60000000000002</ele>
<time>2023-05-17T13:05:29Z</time>
</trkpt>
<trkpt lat="49.15863993577659" lon="8.282041931524873">
<ele>119.79999999999995</ele>
<time>2023-05-17T13:05:30Z</time>
</trkpt>
<trkpt lat="49.15867195464671" lon="8.282022988423705">
<ele>120</ele>
<time>2023-05-17T13:05:31Z</time>
</trkpt>
<trkpt lat="49.15870196186006" lon="8.282002955675125">
<ele>120</ele>
<time>2023-05-17T13:05:32Z</time>
</trkpt>
<trkpt lat="49.158729957416654" lon="8.281981917098165">
<ele>120.20000000000005</ele>
<time>2023-05-17T13:05:33Z</time>
</trkpt>
<trkpt lat="49.158756947144866" lon="8.281961968168616">
<ele>120.39999999999998</ele>
<time>2023-05-17T13:05:34Z</time>
</trkpt>
<trkpt lat="49.1587879601866" lon="8.281941935420036">
<ele>120.60000000000002</ele>
<time>2023-05-17T13:05:35Z</time>
</trkpt>
<trkpt lat="49.158817967399955" lon="8.281917963176966">
<ele>120.60000000000002</ele>
<time>2023-05-17T13:05:36Z</time>
</trkpt>
<trkpt lat="49.15884797461331" lon="8.281894996762276">
<ele>120.79999999999995</ele>
<time>2023-05-17T13:05:37Z</time>
</trkpt>
<trkpt lat="49.15887697599828" lon="8.281869934871793">
<ele>121</ele>
<time>2023-05-17T13:05:38Z</time>
</trkpt>
<trkpt lat="49.15890698321164" lon="8.281849985942245">
<ele>121.20000000000005</ele>
<time>2023-05-17T13:05:39Z</time>
</trkpt>
<trkpt lat="49.15893196128309" lon="8.281834982335567">
<ele>121.39999999999998</ele>
<time>2023-05-17T13:05:40Z</time>
</trkpt>
<trkpt lat="49.15895299986005" lon="8.281821990385652">
<ele>121.60000000000002</ele>
<time>2023-05-17T13:05:41Z</time>
</trkpt>
<trkpt lat="49.1589729487896" lon="8.281806986778975">
<ele>121.79999999999995</ele>
<time>2023-05-17T13:05:42Z</time>
</trkpt>
<trkpt lat="49.15899499319494" lon="8.281791983172297">
<ele>122</ele>
<time>2023-05-17T13:05:43Z</time>
</trkpt>
<trkpt lat="49.15902298875153" lon="8.28177697956562">
<ele>122.20000000000005</ele>
<time>2023-05-17T13:05:44Z</time>
</trkpt>
<trkpt lat="49.15904796682298" lon="8.281759964302182">
<ele>122.39999999999998</ele>
<time>2023-05-17T13:05:45Z</time>
</trkpt>
<trkpt lat="49.159076968207955" lon="8.281736997887492">
<ele>122.60000000000002</ele>
<time>2023-05-17T13:05:46Z</time>
</trkpt>
<trkpt lat="49.15910496376455" lon="8.281722916290164">
<ele>122.79999999999995</ele>
<time>2023-05-17T13:05:47Z</time>
</trkpt>
<trkpt lat="49.159129941836" lon="8.281707996502519">
<ele>123</ele>
<time>2023-05-17T13:05:48Z</time>
</trkpt>
<trkpt lat="49.15915693156421" lon="8.281692992895842">
<ele>123.20000000000005</ele>
<time>2023-05-17T13:05:49Z</time>
</trkpt>
<trkpt lat="49.159179981797934" lon="8.281676983460784">
<ele>123.39999999999998</ele>
<time>2023-05-17T13:05:50Z</time>
</trkpt>
<trkpt lat="49.159204959869385" lon="8.281662985682487">
<ele>123.60000000000002</ele>
<time>2023-05-17T13:05:51Z</time>
</trkpt>
<trkpt lat="49.15923798456788" lon="8.281639935448766">
<ele>123.79999999999995</ele>
<time>2023-05-17T13:05:52Z</time>
</trkpt>
<trkpt lat="49.15926497429609" lon="8.281619986519217">
<ele>124</ele>
<time>2023-05-17T13:05:53Z</time>
</trkpt>
<trkpt lat="49.159291964024305" lon="8.281596936285496">
<ele>124.20000000000005</ele>
<time>2023-05-17T13:05:54Z</time>
</trkpt>
<trkpt lat="49.15931794792414" lon="8.281577993184328">
<ele>124.39999999999998</ele>
<time>2023-05-17T13:05:55Z</time>
</trkpt>
<trkpt lat="49.15934795513749" lon="8.28156198374927">
<ele>124.60000000000002</ele>
<time>2023-05-17T13:05:56Z</time>
</trkpt>
<trkpt lat="49.159376956522465" lon="8.281546980142593">
<ele>124.79999999999995</ele>
<time>2023-05-17T13:05:57Z</time>
</trkpt>
<trkpt lat="49.159401934593916" lon="8.281527953222394">
<ele>125</ele>
<time>2023-05-17T13:05:58Z</time>
</trkpt>
<trkpt lat="49.15942993015051" lon="8.281512949615717">
<ele>125.20000000000005</ele>
<time>2023-05-17T13:05:59Z</time>
</trkpt>
<trkpt lat="49.15945499204099" lon="8.281499957665801">
<ele>125.39999999999998</ele>
<time>2023-05-17T13:06:00Z</time>
</trkpt>
<trkpt lat="49.15947795845568" lon="8.281486965715885">
<ele>125.60000000000002</ele>
<time>2023-05-17T13:06:01Z</time>
</trkpt>
<trkpt lat="49.15950293652713" lon="8.281471962109208">
<ele>125.79999999999995</ele>
<time>2023-05-17T13:06:02Z</time>
</trkpt>
<trkpt lat="49.15953294374049" lon="8.281456958502531">
<ele>126.20000000000005</ele>
<time>2023-05-17T13:06:03Z</time>
</trkpt>
<trkpt lat="49.15956295095384" lon="8.281436925753951">
<ele>126.39999999999998</ele>
<time>2023-05-17T13:06:04Z</time>
</trkpt>
<trkpt lat="49.159592958167195" lon="8.28141295351088">
<ele>126.60000000000002</ele>
<time>2023-05-17T13:06:05Z</time>
</trkpt>
<trkpt lat="49.15962698869407" lon="8.281397949904203">
<ele>126.79999999999995</ele>
<time>2023-05-17T13:06:06Z</time>
</trkpt>
<trkpt lat="49.1596529725939" lon="8.281381940469146">
<ele>127</ele>
<time>2023-05-17T13:06:07Z</time>
</trkpt>
<trkpt lat="49.159679962322116" lon="8.281359979882836">
<ele>127.20000000000005</ele>
<time>2023-05-17T13:06:08Z</time>
</trkpt>
<trkpt lat="49.15970795787871" lon="8.281339947134256">
<ele>127.39999999999998</ele>
<time>2023-05-17T13:06:09Z</time>
</trkpt>
<trkpt lat="49.15973494760692" lon="8.281317986547947">
<ele>127.79999999999995</ele>
<time>2023-05-17T13:06:10Z</time>
</trkpt>
<trkpt lat="49.15975992567837" lon="8.281299965456128">
<ele>128</ele>
<time>2023-05-17T13:06:11Z</time>
</trkpt>
<trkpt lat="49.15978699922562" lon="8.281284961849451">
<ele>128.20000000000005</ele>
<time>2023-05-17T13:06:12Z</time>
</trkpt>
<trkpt lat="49.15981499478221" lon="8.281271969899535">
<ele>128.39999999999998</ele>
<time>2023-05-17T13:06:13Z</time>
</trkpt>
<trkpt lat="49.15984198451042" lon="8.281251937150955">
<ele>128.60000000000002</ele>
<time>2023-05-17T13:06:14Z</time>
</trkpt>
<trkpt lat="49.15986796841025" lon="8.281231988221407">
<ele>128.79999999999995</ele>
<time>2023-05-17T13:06:15Z</time>
</trkpt>
<trkpt lat="49.15989696979523" lon="8.281212961301208">
<ele>129</ele>
<time>2023-05-17T13:06:16Z</time>
</trkpt>
<trkpt lat="49.15992295369506" lon="8.28119695186615">
<ele>129.39999999999998</ele>
<time>2023-05-17T13:06:17Z</time>
</trkpt>
<trkpt lat="49.15995195508003" lon="8.281181948259473">
<ele>129.60000000000002</ele>
<time>2023-05-17T13:06:18Z</time>
</trkpt>
<trkpt lat="49.15997693315148" lon="8.281164932996035">
<ele>129.79999999999995</ele>
<time>2023-05-17T13:06:19Z</time>
</trkpt>
<trkpt lat="49.160002917051315" lon="8.281146995723248">
<ele>130</ele>
<time>2023-05-17T13:06:20Z</time>
</trkpt>
<trkpt lat="49.16002496145666" lon="8.281126962974668">
<ele>130.20000000000005</ele>
<time>2023-05-17T13:06:21Z</time>
</trkpt>
<trkpt lat="49.16004993952811" lon="8.281101984903216">
<ele>130.39999999999998</ele>
<time>2023-05-17T13:06:22Z</time>
</trkpt>
<trkpt lat="49.16007298976183" lon="8.281077928841114">
<ele>130.60000000000002</ele>
<time>2023-05-17T13:06:23Z</time>
</trkpt>
<trkpt lat="49.16009796783328" lon="8.281057979911566">
<ele>130.79999999999995</ele>
<time>2023-05-17T13:06:24Z</time>
</trkpt>
<trkpt lat="49.16012495756149" lon="8.281036941334605">
<ele>131.20000000000005</ele>
<time>2023-05-17T13:06:25Z</time>
</trkpt>
<trkpt lat="49.160152953118086" lon="8.281019926071167">
<ele>131.39999999999998</ele>
<time>2023-05-17T13:06:26Z</time>
</trkpt>
<trkpt lat="49.16018296033144" lon="8.280997965484858">
<ele>131.60000000000002</ele>
<time>2023-05-17T13:06:27Z</time>
</trkpt>
<trkpt lat="49.16021196171641" lon="8.280979944393039">
<ele>131.79999999999995</ele>
<time>2023-05-17T13:06:28Z</time>
</trkpt>
<trkpt lat="49.16024498641491" lon="8.28095999546349">
<ele>132</ele>
<time>2023-05-17T13:06:29Z</time>
</trkpt>
<trkpt lat="49.16027692146599" lon="8.28093996271491">
<ele>132.20000000000005</ele>
<time>2023-05-17T13:06:30Z</time>
</trkpt>
<trkpt lat="49.16031195782125" lon="8.280922947451472">
<ele>132.39999999999998</ele>
<time>2023-05-17T13:06:31Z</time>
</trkpt>
<trkpt lat="49.160342970862985" lon="8.280902998521924">
<ele>132.60000000000002</ele>
<time>2023-05-17T13:06:32Z</time>
</trkpt>
<trkpt lat="49.1603749897331" lon="8.280881959944963">
<ele>132.79999999999995</ele>
<time>2023-05-17T13:06:33Z</time>
</trkpt>
<trkpt lat="49.160409942269325" lon="8.280857987701893">
<ele>133</ele>
<time>2023-05-17T13:06:34Z</time>
</trkpt>
<trkpt lat="49.16044497862458" lon="8.280836949124932">
<ele>133.20000000000005</ele>
<time>2023-05-17T13:06:35Z</time>
</trkpt>
<trkpt lat="49.160474985837936" lon="8.280816916376352">
<ele>133.39999999999998</ele>
<time>2023-05-17T13:06:36Z</time>
</trkpt>
<trkpt lat="49.16050499305129" lon="8.280797973275185">
<ele>133.60000000000002</ele>
<time>2023-05-17T13:06:37Z</time>
</trkpt>
<trkpt lat="49.160536928102374" lon="8.280779952183366">
<ele>133.79999999999995</ele>
<time>2023-05-17T13:06:38Z</time>
</trkpt>
<trkpt lat="49.16056794114411" lon="8.280762936919928">
<ele>133.79999999999995</ele>
<time>2023-05-17T13:06:39Z</time>
</trkpt>
<trkpt lat="49.160599960014224" lon="8.28074793331325">
<ele>134</ele>
<time>2023-05-17T13:06:40Z</time>
</trkpt>
<trkpt lat="49.16063298471272" lon="8.280734941363335">
<ele>134.20000000000005</ele>
<time>2023-05-17T13:06:41Z</time>
</trkpt>
<trkpt lat="49.160669948905706" lon="8.280719937756658">
<ele>134.20000000000005</ele>
<time>2023-05-17T13:06:42Z</time>
</trkpt>
<trkpt lat="49.16070498526096" lon="8.280706945806742">
<ele>134.20000000000005</ele>
<time>2023-05-17T13:06:43Z</time>
</trkpt>
<trkpt lat="49.16074295528233" lon="8.280692948028445">
<ele>134.20000000000005</ele>
<time>2023-05-17T13:06:44Z</time>
</trkpt>
<trkpt lat="49.16078193113208" lon="8.280682973563671">
<ele>134.20000000000005</ele>
<time>2023-05-17T13:06:45Z</time>
</trkpt>
<trkpt lat="49.16082199662924" lon="8.280676938593388">
<ele>134.20000000000005</ele>
<time>2023-05-17T13:06:46Z</time>
</trkpt>
<trkpt lat="49.16086298413575" lon="8.280671993270516">
<ele>134.20000000000005</ele>
<time>2023-05-17T13:06:47Z</time>
</trkpt>
<trkpt lat="49.160902965813875" lon="8.280664952471852">
<ele>134</ele>
<time>2023-05-17T13:06:48Z</time>
</trkpt>
<trkpt lat="49.160942947492" lon="8.280654978007078">
<ele>134</ele>
<time>2023-05-17T13:06:49Z</time>
</trkpt>
<trkpt lat="49.16098494082689" lon="8.280644919723272">
<ele>134</ele>
<time>2023-05-17T13:06:50Z</time>
</trkpt>
<trkpt lat="49.16102693416178" lon="8.280632933601737">
<ele>134</ele>
<time>2023-05-17T13:06:51Z</time>
</trkpt>
<trkpt lat="49.16107194498181" lon="8.280622959136963">
<ele>133.79999999999995</ele>
<time>2023-05-17T13:06:52Z</time>
</trkpt>
<trkpt lat="49.161116955801845" lon="8.28061692416668">
<ele>133.79999999999995</ele>
<time>2023-05-17T13:06:53Z</time>
</trkpt>
<trkpt lat="49.161162972450256" lon="8.280609967187047">
<ele>133.79999999999995</ele>
<time>2023-05-17T13:06:54Z</time>
</trkpt>
<trkpt lat="49.16121292859316" lon="8.280601920560002">
<ele>133.79999999999995</ele>
<time>2023-05-17T13:06:55Z</time>
</trkpt>
<trkpt lat="49.16126296855509" lon="8.280589934438467">
<ele>133.60000000000002</ele>
<time>2023-05-17T13:06:56Z</time>
</trkpt>
<trkpt lat="49.16131694801152" lon="8.280581971630454">
<ele>133.60000000000002</ele>
<time>2023-05-17T13:06:57Z</time>
</trkpt>
<trkpt lat="49.1613729391247" lon="8.280576942488551">
<ele>133.60000000000002</ele>
<time>2023-05-17T13:06:58Z</time>
</trkpt>
<trkpt lat="49.16142792440951" lon="8.280566968023777">
<ele>133.39999999999998</ele>
<time>2023-05-17T13:06:59Z</time>
</trkpt>
<trkpt lat="49.161484921351075" lon="8.280554981902242">
<ele>133.20000000000005</ele>
<time>2023-05-17T13:07:00Z</time>
</trkpt>
<trkpt lat="49.16154191829264" lon="8.280542995780706">
<ele>133</ele>
<time>2023-05-17T13:07:01Z</time>
</trkpt>
<trkpt lat="49.16160193271935" lon="8.280529920011759">
<ele>133</ele>
<time>2023-05-17T13:07:02Z</time>
</trkpt>
<trkpt lat="49.16166194714606" lon="8.280516928061843">
<ele>132.79999999999995</ele>
<time>2023-05-17T13:07:03Z</time>
</trkpt>
<trkpt lat="49.16172296740115" lon="8.280502930283546">
<ele>132.60000000000002</ele>
<time>2023-05-17T13:07:04Z</time>
</trkpt>
<trkpt lat="49.161782981827855" lon="8.280486920848489">
<ele>132.39999999999998</ele>
<time>2023-05-17T13:07:05Z</time>
</trkpt>
<trkpt lat="49.16184299625456" lon="8.280471917241812">
<ele>132.39999999999998</ele>
<time>2023-05-17T13:07:06Z</time>
</trkpt>
<trkpt lat="49.16190192103386" lon="8.280459931120276">
<ele>132.20000000000005</ele>
<time>2023-05-17T13:07:07Z</time>
</trkpt>
<trkpt lat="49.16195799596608" lon="8.28044693917036">
<ele>132</ele>
<time>2023-05-17T13:07:08Z</time>
</trkpt>
<trkpt lat="49.16201692074537" lon="8.280434953048825">
<ele>131.79999999999995</ele>
<time>2023-05-17T13:07:09Z</time>
</trkpt>
<trkpt lat="49.16207299567759" lon="8.28042196109891">
<ele>131.79999999999995</ele>
<time>2023-05-17T13:07:10Z</time>
</trkpt>
<trkpt lat="49.16212999261916" lon="8.280406957492232">
<ele>131.60000000000002</ele>
<time>2023-05-17T13:07:11Z</time>
</trkpt>
<trkpt lat="49.1621829662472" lon="8.280387930572033">
<ele>131.39999999999998</ele>
<time>2023-05-17T13:07:12Z</time>
</trkpt>
<trkpt lat="49.162237951532006" lon="8.280372926965356">
<ele>131.39999999999998</ele>
<time>2023-05-17T13:07:13Z</time>
</trkpt>
<trkpt lat="49.16229193098843" lon="8.280364964157343">
<ele>131.20000000000005</ele>
<time>2023-05-17T13:07:14Z</time>
</trkpt>
<trkpt lat="49.162346916273236" lon="8.280356917530298">
<ele>131.20000000000005</ele>
<time>2023-05-17T13:07:15Z</time>
</trkpt>
<trkpt lat="49.162402991205454" lon="8.280346943065524">
<ele>131</ele>
<time>2023-05-17T13:07:16Z</time>
</trkpt>
<trkpt lat="49.16246199980378" lon="8.280331939458847">
<ele>131</ele>
<time>2023-05-17T13:07:17Z</time>
</trkpt>
<trkpt lat="49.1625199187547" lon="8.280319953337312">
<ele>130.79999999999995</ele>
<time>2023-05-17T13:07:18Z</time>
</trkpt>
<trkpt lat="49.162577921524644" lon="8.280306961387396">
<ele>130.79999999999995</ele>
<time>2023-05-17T13:07:19Z</time>
</trkpt>
<trkpt lat="49.16263299062848" lon="8.280289946123958">
<ele>130.79999999999995</ele>
<time>2023-05-17T13:07:20Z</time>
</trkpt>
<trkpt lat="49.162686970084906" lon="8.28027494251728">
<ele>130.60000000000002</ele>
<time>2023-05-17T13:07:21Z</time>
</trkpt>
<trkpt lat="49.16273994371295" lon="8.280261950567365">
<ele>130.60000000000002</ele>
<time>2023-05-17T13:07:22Z</time>
</trkpt>
<trkpt lat="49.162791995331645" lon="8.28024996444583">
<ele>130.60000000000002</ele>
<time>2023-05-17T13:07:23Z</time>
</trkpt>
<trkpt lat="49.16284496895969" lon="8.280239989981055">
<ele>130.60000000000002</ele>
<time>2023-05-17T13:07:24Z</time>
</trkpt>
<trkpt lat="49.16289693675935" lon="8.280227920040488">
<ele>130.60000000000002</ele>
<time>2023-05-17T13:07:25Z</time>
</trkpt>
<trkpt lat="49.16294697672129" lon="8.280217945575714">
<ele>130.60000000000002</ele>
<time>2023-05-17T13:07:26Z</time>
</trkpt>
<trkpt lat="49.16299793869257" lon="8.28020797111094">
<ele>130.60000000000002</ele>
<time>2023-05-17T13:07:27Z</time>
</trkpt>
<trkpt lat="49.163049990311265" lon="8.280197996646166">
<ele>130.60000000000002</ele>
<time>2023-05-17T13:07:28Z</time>
</trkpt>
<trkpt lat="49.16309994645417" lon="8.28018793836236">
<ele>130.60000000000002</ele>
<time>2023-05-17T13:07:29Z</time>
</trkpt>
<trkpt lat="49.1631499864161" lon="8.280174946412444">
<ele>130.60000000000002</ele>
<time>2023-05-17T13:07:30Z</time>
</trkpt>
<trkpt lat="49.163199942559004" lon="8.280159942805767">
<ele>130.60000000000002</ele>
<time>2023-05-17T13:07:31Z</time>
</trkpt>
<trkpt lat="49.1632519941777" lon="8.280146950855851">
<ele>130.60000000000002</ele>
<time>2023-05-17T13:07:32Z</time>
</trkpt>
<trkpt lat="49.16330295614898" lon="8.280134964734316">
<ele>130.60000000000002</ele>
<time>2023-05-17T13:07:33Z</time>
</trkpt>
<trkpt lat="49.16335794143379" lon="8.280126918107271">
<ele>130.60000000000002</ele>
<time>2023-05-17T13:07:34Z</time>
</trkpt>
<trkpt lat="49.16341192089021" lon="8.280114931985736">
<ele>130.60000000000002</ele>
<time>2023-05-17T13:07:35Z</time>
</trkpt>
<trkpt lat="49.16346296668053" lon="8.280106969177723">
<ele>130.79999999999995</ele>
<time>2023-05-17T13:07:36Z</time>
</trkpt>
<trkpt lat="49.16351694613695" lon="8.280094983056188">
<ele>130.79999999999995</ele>
<time>2023-05-17T13:07:37Z</time>
</trkpt>
<trkpt lat="49.163567991927266" lon="8.280084924772382">
<ele>130.79999999999995</ele>
<time>2023-05-17T13:07:38Z</time>
</trkpt>
<trkpt lat="49.16361794807017" lon="8.280071932822466">
<ele>131</ele>
<time>2023-05-17T13:07:39Z</time>
</trkpt>
<trkpt lat="49.163669999688864" lon="8.28005793504417">
<ele>131.20000000000005</ele>
<time>2023-05-17T13:07:40Z</time>
</trkpt>
<trkpt lat="49.16372196748853" lon="8.280046954751015">
<ele>131.20000000000005</ele>
<time>2023-05-17T13:07:41Z</time>
</trkpt>
<trkpt lat="49.16377494111657" lon="8.280032956972718">
<ele>131.39999999999998</ele>
<time>2023-05-17T13:07:42Z</time>
</trkpt>
<trkpt lat="49.163824981078506" lon="8.280019965022802">
<ele>131.60000000000002</ele>
<time>2023-05-17T13:07:43Z</time>
</trkpt>
<trkpt lat="49.16387493722141" lon="8.280007978901267">
<ele>131.79999999999995</ele>
<time>2023-05-17T13:07:44Z</time>
</trkpt>
<trkpt lat="49.16392296552658" lon="8.279997920617461">
<ele>131.79999999999995</ele>
<time>2023-05-17T13:07:45Z</time>
</trkpt>
<trkpt lat="49.163971999660134" lon="8.279987946152687">
<ele>132</ele>
<time>2023-05-17T13:07:46Z</time>
</trkpt>
<trkpt lat="49.164017932489514" lon="8.279977971687913">
<ele>132.20000000000005</ele>
<time>2023-05-17T13:07:47Z</time>
</trkpt>
<trkpt lat="49.16406495496631" lon="8.279969925060868">
<ele>132.20000000000005</ele>
<time>2023-05-17T13:07:48Z</time>
</trkpt>
<trkpt lat="49.1641119774431" lon="8.279962968081236">
<ele>132.39999999999998</ele>
<time>2023-05-17T13:07:49Z</time>
</trkpt>
<trkpt lat="49.16415799409151" lon="8.279951987788081">
<ele>132.60000000000002</ele>
<time>2023-05-17T13:07:50Z</time>
</trkpt>
<trkpt lat="49.16420292109251" lon="8.279941929504275">
<ele>132.60000000000002</ele>
<time>2023-05-17T13:07:51Z</time>
</trkpt>
<trkpt lat="49.16424692608416" lon="8.279932960867882">
<ele>132.79999999999995</ele>
<time>2023-05-17T13:07:52Z</time>
</trkpt>
<trkpt lat="49.1642879974097" lon="8.279922986403108">
<ele>132.79999999999995</ele>
<time>2023-05-17T13:07:53Z</time>
</trkpt>
<trkpt lat="49.16433191858232" lon="8.279909994453192">
<ele>133</ele>
<time>2023-05-17T13:07:54Z</time>
</trkpt>
<trkpt lat="49.16437491774559" lon="8.279897924512625">
<ele>133.20000000000005</ele>
<time>2023-05-17T13:07:55Z</time>
</trkpt>
<trkpt lat="49.16442194022238" lon="8.27988795004785">
<ele>133.20000000000005</ele>
<time>2023-05-17T13:07:56Z</time>
</trkpt>
<trkpt lat="49.164466951042414" lon="8.279877975583076">
<ele>133.20000000000005</ele>
<time>2023-05-17T13:07:57Z</time>
</trkpt>
<trkpt lat="49.164512967690825" lon="8.27986791729927">
<ele>133.20000000000005</ele>
<time>2023-05-17T13:07:58Z</time>
</trkpt>
<trkpt lat="49.16455797851086" lon="8.279857942834496">
<ele>133.20000000000005</ele>
<time>2023-05-17T13:07:59Z</time>
</trkpt>
<trkpt lat="49.16460198350251" lon="8.27984495088458">
<ele>133.20000000000005</ele>
<time>2023-05-17T13:08:00Z</time>
</trkpt>
<trkpt lat="49.16464498266578" lon="8.279831958934665">
<ele>133.20000000000005</ele>
<time>2023-05-17T13:08:01Z</time>
</trkpt>
<trkpt lat="49.16468999348581" lon="8.279822990298271">
<ele>133.20000000000005</ele>
<time>2023-05-17T13:08:02Z</time>
</trkpt>
<trkpt lat="49.16473299264908" lon="8.279814943671227">
<ele>133.20000000000005</ele>
<time>2023-05-17T13:08:03Z</time>
</trkpt>
<trkpt lat="49.16477993130684" lon="8.279807986691594">
<ele>133.20000000000005</ele>
<time>2023-05-17T13:08:04Z</time>
</trkpt>
<trkpt lat="49.16482695378363" lon="8.27980195172131">
<ele>133.20000000000005</ele>
<time>2023-05-17T13:08:05Z</time>
</trkpt>
<trkpt lat="49.164874982088804" lon="8.279791977256536">
<ele>133</ele>
<time>2023-05-17T13:08:06Z</time>
</trkpt>
<trkpt lat="49.16492493823171" lon="8.27978191897273">
<ele>133</ele>
<time>2023-05-17T13:08:07Z</time>
</trkpt>
<trkpt lat="49.1649769898504" lon="8.279767921194434">
<ele>133</ele>
<time>2023-05-17T13:08:08Z</time>
</trkpt>
<trkpt lat="49.165029963478446" lon="8.27975794672966">
<ele>132.79999999999995</ele>
<time>2023-05-17T13:08:09Z</time>
</trkpt>
<trkpt lat="49.16508494876325" lon="8.279746966436505">
<ele>132.79999999999995</ele>
<time>2023-05-17T13:08:10Z</time>
</trkpt>
<trkpt lat="49.16513993404806" lon="8.279732968658209">
<ele>132.60000000000002</ele>
<time>2023-05-17T13:08:11Z</time>
</trkpt>
<trkpt lat="49.16519491933286" lon="8.279719976708293">
<ele>132.60000000000002</ele>
<time>2023-05-17T13:08:12Z</time>
</trkpt>
<trkpt lat="49.16525191627443" lon="8.279704973101616">
<ele>132.39999999999998</ele>
<time>2023-05-17T13:08:13Z</time>
</trkpt>
<trkpt lat="49.16531193070114" lon="8.279689969494939">
<ele>132.20000000000005</ele>
<time>2023-05-17T13:08:14Z</time>
</trkpt>
<trkpt lat="49.165372950956225" lon="8.2796729542315">
<ele>132</ele>
<time>2023-05-17T13:08:15Z</time>
</trkpt>
<trkpt lat="49.165436988696456" lon="8.279657950624824">
<ele>131.79999999999995</ele>
<time>2023-05-17T13:08:16Z</time>
</trkpt>
<trkpt lat="49.165502954274416" lon="8.279641941189766">
<ele>131.60000000000002</ele>
<time>2023-05-17T13:08:17Z</time>
</trkpt>
<trkpt lat="49.1655729431659" lon="8.279622998088598">
<ele>131.39999999999998</ele>
<time>2023-05-17T13:08:18Z</time>
</trkpt>
<trkpt lat="49.1656469553709" lon="8.27960698865354">
<ele>131.20000000000005</ele>
<time>2023-05-17T13:08:19Z</time>
</trkpt>
<trkpt lat="49.16572297923267" lon="8.279589973390102">
<ele>131</ele>
<time>2023-05-17T13:08:20Z</time>
</trkpt>
<trkpt lat="49.165801936760545" lon="8.279572958126664">
<ele>130.60000000000002</ele>
<time>2023-05-17T13:08:21Z</time>
</trkpt>
<trkpt lat="49.165882989764214" lon="8.279554937034845">
<ele>130.20000000000005</ele>
<time>2023-05-17T13:08:22Z</time>
</trkpt>
<trkpt lat="49.16596798226237" lon="8.279536999762058">
<ele>129.79999999999995</ele>
<time>2023-05-17T13:08:23Z</time>
</trkpt>
<trkpt lat="49.16605196893215" lon="8.279517972841859">
<ele>129.39999999999998</ele>
<time>2023-05-17T13:08:24Z</time>
</trkpt>
<trkpt lat="49.16613696143031" lon="8.279497940093279">
<ele>129</ele>
<time>2023-05-17T13:08:25Z</time>
</trkpt>
<trkpt lat="49.16621994227171" lon="8.279481930658221">
<ele>128.60000000000002</ele>
<time>2023-05-17T13:08:26Z</time>
</trkpt>
<trkpt lat="49.16630191728473" lon="8.279462987557054">
<ele>128.20000000000005</ele>
<time>2023-05-17T13:08:27Z</time>
</trkpt>
<trkpt lat="49.166379952803254" lon="8.279444966465235">
<ele>127.79999999999995</ele>
<time>2023-05-17T13:08:28Z</time>
</trkpt>
<trkpt lat="49.1664569824934" lon="8.279426945373416">
<ele>127.60000000000002</ele>
<time>2023-05-17T13:08:29Z</time>
</trkpt>
<trkpt lat="49.166531916707754" lon="8.279409930109978">
<ele>127.39999999999998</ele>
<time>2023-05-17T13:08:30Z</time>
</trkpt>
<trkpt lat="49.16660299524665" lon="8.2793949265033">
<ele>127.20000000000005</ele>
<time>2023-05-17T13:08:31Z</time>
</trkpt>
<trkpt lat="49.16666996665299" lon="8.279386963695288">
<ele>127</ele>
<time>2023-05-17T13:08:32Z</time>
</trkpt>
<trkpt lat="49.16673299856484" lon="8.279381934553385">
<ele>127</ele>
<time>2023-05-17T13:08:33Z</time>
</trkpt>
<trkpt lat="49.166792929172516" lon="8.279374977573752">
<ele>126.79999999999995</ele>
<time>2023-05-17T13:08:34Z</time>
</trkpt>
<trkpt lat="49.16684992611408" lon="8.279364919289947">
<ele>126.79999999999995</ele>
<time>2023-05-17T13:08:35Z</time>
</trkpt>
<trkpt lat="49.16690499521792" lon="8.27934798784554">
<ele>127</ele>
<time>2023-05-17T13:08:36Z</time>
</trkpt>
<trkpt lat="49.16695696301758" lon="8.279329966753721">
<ele>127</ele>
<time>2023-05-17T13:08:37Z</time>
</trkpt>
<trkpt lat="49.167002979665995" lon="8.279311945661902">
<ele>127</ele>
<time>2023-05-17T13:08:38Z</time>
</trkpt>
<trkpt lat="49.167049918323755" lon="8.279297947883606">
<ele>127.20000000000005</ele>
<time>2023-05-17T13:08:39Z</time>
</trkpt>
<trkpt lat="49.16709694080055" lon="8.27928495593369">
<ele>127.20000000000005</ele>
<time>2023-05-17T13:08:40Z</time>
</trkpt>
<trkpt lat="49.16714295744896" lon="8.279269952327013">
<ele>127.20000000000005</ele>
<time>2023-05-17T13:08:41Z</time>
</trkpt>
<trkpt lat="49.16719299741089" lon="8.279254948720336">
<ele>127.39999999999998</ele>
<time>2023-05-17T13:08:42Z</time>
</trkpt>
<trkpt lat="49.1672479826957" lon="8.279244974255562">
<ele>127.39999999999998</ele>
<time>2023-05-17T13:08:43Z</time>
</trkpt>
<trkpt lat="49.167302967980504" lon="8.279234999790788">
<ele>127.60000000000002</ele>
<time>2023-05-17T13:08:44Z</time>
</trkpt>
<trkpt lat="49.167352924123406" lon="8.279226953163743">
<ele>127.79999999999995</ele>
<time>2023-05-17T13:08:45Z</time>
</trkpt>
<trkpt lat="49.16739793494344" lon="8.279216978698969">
<ele>128.20000000000005</ele>
<time>2023-05-17T13:08:46Z</time>
</trkpt>
<trkpt lat="49.16743992827833" lon="8.279207926243544">
<ele>128.60000000000002</ele>
<time>2023-05-17T13:08:47Z</time>
</trkpt>
<trkpt lat="49.167481921613216" lon="8.279201975092292">
<ele>129</ele>
<time>2023-05-17T13:08:48Z</time>
</trkpt>
<trkpt lat="49.16752299293876" lon="8.279196945950389">
<ele>129.39999999999998</ele>
<time>2023-05-17T13:08:49Z</time>
</trkpt>
<trkpt lat="49.167562974616885" lon="8.279186971485615">
<ele>130</ele>
<time>2023-05-17T13:08:50Z</time>
</trkpt>
<trkpt lat="49.16760295629501" lon="8.27917699702084">
<ele>130.39999999999998</ele>
<time>2023-05-17T13:08:51Z</time>
</trkpt>
<trkpt lat="49.16764293797314" lon="8.279164927080274">
<ele>130.79999999999995</ele>
<time>2023-05-17T13:08:52Z</time>
</trkpt>
<trkpt lat="49.16768199764192" lon="8.2791549526155">
<ele>131.20000000000005</ele>
<time>2023-05-17T13:08:53Z</time>
</trkpt>
<trkpt lat="49.16771996766329" lon="8.279142966493964">
<ele>131.60000000000002</ele>
<time>2023-05-17T13:08:54Z</time>
</trkpt>
<trkpt lat="49.167757937684655" lon="8.27913299202919">
<ele>132</ele>
<time>2023-05-17T13:08:55Z</time>
</trkpt>
<trkpt lat="49.16779791936278" lon="8.279122933745384">
<ele>132.39999999999998</ele>
<time>2023-05-17T13:08:56Z</time>
</trkpt>
<trkpt lat="49.167839996516705" lon="8.27911295928061">
<ele>132.79999999999995</ele>
<time>2023-05-17T13:08:57Z</time>
</trkpt>
<trkpt lat="49.16787997819483" lon="8.279102984815836">
<ele>133</ele>
<time>2023-05-17T13:08:58Z</time>
</trkpt>
<trkpt lat="49.16792197152972" lon="8.279094938188791">
<ele>133.20000000000005</ele>
<time>2023-05-17T13:08:59Z</time>
</trkpt>
<trkpt lat="49.16796295903623" lon="8.279087981209159">
<ele>133.60000000000002</ele>
<time>2023-05-17T13:09:00Z</time>
</trkpt>
<trkpt lat="49.16800495237112" lon="8.279079934582114">
<ele>133.79999999999995</ele>
<time>2023-05-17T13:09:01Z</time>
</trkpt>
<trkpt lat="49.16804694570601" lon="8.279071971774101">
<ele>134</ele>
<time>2023-05-17T13:09:02Z</time>
</trkpt>
<trkpt lat="49.16808994486928" lon="8.279062919318676">
<ele>134.20000000000005</ele>
<time>2023-05-17T13:09:03Z</time>
</trkpt>
<trkpt lat="49.16813294403255" lon="8.279054956510663">
<ele>134.39999999999998</ele>
<time>2023-05-17T13:09:04Z</time>
</trkpt>
<trkpt lat="49.1681769490242" lon="8.279042970389128">
<ele>134.60000000000002</ele>
<time>2023-05-17T13:09:05Z</time>
</trkpt>
<trkpt lat="49.16822195984423" lon="8.279032995924354">
<ele>134.79999999999995</ele>
<time>2023-05-17T13:09:06Z</time>
</trkpt>
<trkpt lat="49.16826697066426" lon="8.279024949297309">
<ele>135</ele>
<time>2023-05-17T13:09:07Z</time>
</trkpt>
<trkpt lat="49.168312987312675" lon="8.279014974832535">
<ele>135</ele>
<time>2023-05-17T13:09:08Z</time>
</trkpt>
<trkpt lat="49.168356992304325" lon="8.279004916548729">
<ele>135.20000000000005</ele>
<time>2023-05-17T13:09:09Z</time>
</trkpt>
<trkpt lat="49.168399991467595" lon="8.278994942083955">
<ele>135.20000000000005</ele>
<time>2023-05-17T13:09:10Z</time>
</trkpt>
<trkpt lat="49.168442990630865" lon="8.27898496761918">
<ele>135.39999999999998</ele>
<time>2023-05-17T13:09:11Z</time>
</trkpt>
<trkpt lat="49.168486995622516" lon="8.278974993154407">
<ele>135.39999999999998</ele>
<time>2023-05-17T13:09:12Z</time>
</trkpt>
<trkpt lat="49.168529994785786" lon="8.2789649348706">
<ele>135.60000000000002</ele>
<time>2023-05-17T13:09:13Z</time>
</trkpt>
<trkpt lat="49.168572993949056" lon="8.278954960405827">
<ele>135.60000000000002</ele>
<time>2023-05-17T13:09:14Z</time>
</trkpt>
<trkpt lat="49.168617920950055" lon="8.278944985941052">
<ele>135.79999999999995</ele>
<time>2023-05-17T13:09:15Z</time>
</trkpt>
<trkpt lat="49.16866494342685" lon="8.278932999819517">
<ele>135.79999999999995</ele>
<time>2023-05-17T13:09:16Z</time>
</trkpt>
<trkpt lat="49.16871196590364" lon="8.278922941535711">
<ele>135.79999999999995</ele>
<time>2023-05-17T13:09:17Z</time>
</trkpt>
<trkpt lat="49.16875798255205" lon="8.278914978727698">
<ele>135.79999999999995</ele>
<time>2023-05-17T13:09:18Z</time>
</trkpt>
<trkpt lat="49.16880492120981" lon="8.278906932100654">
<ele>135.79999999999995</ele>
<time>2023-05-17T13:09:19Z</time>
</trkpt>
<trkpt lat="49.16884792037308" lon="8.27889695763588">
<ele>135.79999999999995</ele>
<time>2023-05-17T13:09:20Z</time>
</trkpt>
<trkpt lat="49.16889293119311" lon="8.278884971514344">
<ele>135.79999999999995</ele>
<time>2023-05-17T13:09:21Z</time>
</trkpt>
<trkpt lat="49.168937942013144" lon="8.278872985392809">
<ele>135.79999999999995</ele>
<time>2023-05-17T13:09:22Z</time>
</trkpt>
<trkpt lat="49.168982952833176" lon="8.278862927109003">
<ele>135.79999999999995</ele>
<time>2023-05-17T13:09:23Z</time>
</trkpt>
<trkpt lat="49.169026957824826" lon="8.278852952644229">
<ele>135.79999999999995</ele>
<time>2023-05-17T13:09:24Z</time>
</trkpt>
<trkpt lat="49.169069956988096" lon="8.278841972351074">
<ele>135.79999999999995</ele>
<time>2023-05-17T13:09:25Z</time>
</trkpt>
<trkpt lat="49.169111950322986" lon="8.278829986229539">
<ele>135.79999999999995</ele>
<time>2023-05-17T13:09:26Z</time>
</trkpt>
<trkpt lat="49.169152937829494" lon="8.278821939602494">
<ele>135.60000000000002</ele>
<time>2023-05-17T13:09:27Z</time>
</trkpt>
<trkpt lat="49.169196942821145" lon="8.278814982622862">
<ele>135.60000000000002</ele>
<time>2023-05-17T13:09:28Z</time>
</trkpt>
<trkpt lat="49.169237930327654" lon="8.278807941824198">
<ele>135.60000000000002</ele>
<time>2023-05-17T13:09:29Z</time>
</trkpt>
<trkpt lat="49.16927992366254" lon="8.278799979016185">
<ele>135.60000000000002</ele>
<time>2023-05-17T13:09:30Z</time>
</trkpt>
<trkpt lat="49.16932191699743" lon="8.27879193238914">
<ele>135.60000000000002</ele>
<time>2023-05-17T13:09:31Z</time>
</trkpt>
<trkpt lat="49.16936198249459" lon="8.278782963752747">
<ele>135.60000000000002</ele>
<time>2023-05-17T13:09:32Z</time>
</trkpt>
<trkpt lat="49.16940498165786" lon="8.278774917125702">
<ele>135.39999999999998</ele>
<time>2023-05-17T13:09:33Z</time>
</trkpt>
<trkpt lat="49.16944697499275" lon="8.278766954317689">
<ele>135.39999999999998</ele>
<time>2023-05-17T13:09:34Z</time>
</trkpt>
<trkpt lat="49.16949198581278" lon="8.278757985681295">
<ele>135.39999999999998</ele>
<time>2023-05-17T13:09:35Z</time>
</trkpt>
<trkpt lat="49.169539930298924" lon="8.278752956539392">
<ele>135.39999999999998</ele>
<time>2023-05-17T13:09:36Z</time>
</trkpt>
<trkpt lat="49.16959198191762" lon="8.27874499373138">
<ele>135.39999999999998</ele>
<time>2023-05-17T13:09:37Z</time>
</trkpt>
<trkpt lat="49.16964193806052" lon="8.278732923790812">
<ele>135.39999999999998</ele>
<time>2023-05-17T13:09:38Z</time>
</trkpt>
<trkpt lat="49.16969298385084" lon="8.2787249609828">
<ele>135.39999999999998</ele>
<time>2023-05-17T13:09:39Z</time>
</trkpt>
<trkpt lat="49.16974696330726" lon="8.278717920184135">
<ele>135.39999999999998</ele>
<time>2023-05-17T13:09:40Z</time>
</trkpt>
<trkpt lat="49.169797925278544" lon="8.278709957376122">
<ele>135.39999999999998</ele>
<time>2023-05-17T13:09:41Z</time>
</trkpt>
<trkpt lat="49.16984796524048" lon="8.27870199456811">
<ele>135.39999999999998</ele>
<time>2023-05-17T13:09:42Z</time>
</trkpt>
<trkpt lat="49.16989993304014" lon="8.278692942112684">
<ele>135.39999999999998</ele>
<time>2023-05-17T13:09:43Z</time>
</trkpt>
<trkpt lat="49.169949973002076" lon="8.278684979304671">
<ele>135.39999999999998</ele>
<time>2023-05-17T13:09:44Z</time>
</trkpt>
<trkpt lat="49.16999791748822" lon="8.278671987354755">
<ele>135.39999999999998</ele>
<time>2023-05-17T13:09:45Z</time>
</trkpt>
<trkpt lat="49.17004695162177" lon="8.278657989576459">
<ele>135.39999999999998</ele>
<time>2023-05-17T13:09:46Z</time>
</trkpt>
<trkpt lat="49.170096991583705" lon="8.278647931292653">
<ele>135.39999999999998</ele>
<time>2023-05-17T13:09:47Z</time>
</trkpt>
<trkpt lat="49.17014795355499" lon="8.27863996848464">
<ele>135.39999999999998</ele>
<time>2023-05-17T13:09:48Z</time>
</trkpt>
<trkpt lat="49.17019799351692" lon="8.278627982363105">
<ele>135.39999999999998</ele>
<time>2023-05-17T13:09:49Z</time>
</trkpt>
<trkpt lat="49.170247949659824" lon="8.278616918250918">
<ele>135.39999999999998</ele>
<time>2023-05-17T13:09:50Z</time>
</trkpt>
<trkpt lat="49.17029798962176" lon="8.278602920472622">
<ele>135.39999999999998</ele>
<time>2023-05-17T13:09:51Z</time>
</trkpt>
<trkpt lat="49.17034794576466" lon="8.278592946007848">
<ele>135.20000000000005</ele>
<time>2023-05-17T13:09:52Z</time>
</trkpt>
<trkpt lat="49.170399997383356" lon="8.278581965714693">
<ele>135.20000000000005</ele>
<time>2023-05-17T13:09:53Z</time>
</trkpt>
<trkpt lat="49.1704529710114" lon="8.278567967936397">
<ele>135.20000000000005</ele>
<time>2023-05-17T13:09:54Z</time>
</trkpt>
<trkpt lat="49.170506950467825" lon="8.278556987643242">
<ele>135.20000000000005</ele>
<time>2023-05-17T13:09:55Z</time>
</trkpt>
<trkpt lat="49.17055992409587" lon="8.278544917702675">
<ele>135.20000000000005</ele>
<time>2023-05-17T13:09:56Z</time>
</trkpt>
<trkpt lat="49.170612981542945" lon="8.27853293158114">
<ele>135</ele>
<time>2023-05-17T13:09:57Z</time>
</trkpt>
<trkpt lat="49.17066293768585" lon="8.278522957116365">
<ele>135</ele>
<time>2023-05-17T13:09:58Z</time>
</trkpt>
<trkpt lat="49.17071498930454" lon="8.27850996516645">
<ele>135</ele>
<time>2023-05-17T13:09:59Z</time>
</trkpt>
<trkpt lat="49.170766957104206" lon="8.278494961559772">
<ele>135</ele>
<time>2023-05-17T13:10:00Z</time>
</trkpt>
<trkpt lat="49.17081993073225" lon="8.278477946296334">
<ele>135</ele>
<time>2023-05-17T13:10:01Z</time>
</trkpt>
<trkpt lat="49.170872988179326" lon="8.278462942689657">
<ele>135</ele>
<time>2023-05-17T13:10:02Z</time>
</trkpt>
<trkpt lat="49.17092696763575" lon="8.27844793908298">
<ele>135</ele>
<time>2023-05-17T13:10:03Z</time>
</trkpt>
<trkpt lat="49.170977929607034" lon="8.278432935476303">
<ele>135</ele>
<time>2023-05-17T13:10:04Z</time>
</trkpt>
<trkpt lat="49.17102796956897" lon="8.278417931869626">
<ele>135</ele>
<time>2023-05-17T13:10:05Z</time>
</trkpt>
<trkpt lat="49.17107993736863" lon="8.27840493991971">
<ele>135</ele>
<time>2023-05-17T13:10:06Z</time>
</trkpt>
<trkpt lat="49.17113299481571" lon="8.278392953798175">
<ele>135</ele>
<time>2023-05-17T13:10:07Z</time>
</trkpt>
<trkpt lat="49.17118798010051" lon="8.278379961848259">
<ele>135</ele>
<time>2023-05-17T13:10:08Z</time>
</trkpt>
<trkpt lat="49.17124296538532" lon="8.278366969898343">
<ele>135</ele>
<time>2023-05-17T13:10:09Z</time>
</trkpt>
<trkpt lat="49.17129694484174" lon="8.278352972120047">
<ele>135</ele>
<time>2023-05-17T13:10:10Z</time>
</trkpt>
<trkpt lat="49.17134991846979" lon="8.27833998017013">
<ele>135</ele>
<time>2023-05-17T13:10:11Z</time>
</trkpt>
<trkpt lat="49.17140197008848" lon="8.278326988220215">
<ele>135.20000000000005</ele>
<time>2023-05-17T13:10:12Z</time>
</trkpt>
<trkpt lat="49.171452932059765" lon="8.278312990441918">
<ele>135.20000000000005</ele>
<time>2023-05-17T13:10:13Z</time>
</trkpt>
<trkpt lat="49.17150699533522" lon="8.278299998492002">
<ele>135.20000000000005</ele>
<time>2023-05-17T13:10:14Z</time>
</trkpt>
<trkpt lat="49.171557957306504" lon="8.278287928551435">
<ele>135.20000000000005</ele>
<time>2023-05-17T13:10:15Z</time>
</trkpt>
<trkpt lat="49.17161193676293" lon="8.27827694825828">
<ele>135.20000000000005</ele>
<time>2023-05-17T13:10:16Z</time>
</trkpt>
<trkpt lat="49.171664994210005" lon="8.278264962136745">
<ele>135.39999999999998</ele>
<time>2023-05-17T13:10:17Z</time>
</trkpt>
<trkpt lat="49.17171495035291" lon="8.27825197018683">
<ele>135.39999999999998</ele>
<time>2023-05-17T13:10:18Z</time>
</trkpt>
<trkpt lat="49.17176691815257" lon="8.278234954923391">
<ele>135.39999999999998</ele>
<time>2023-05-17T13:10:19Z</time>
</trkpt>
<trkpt lat="49.17181997559965" lon="8.278219951316714">
<ele>135.39999999999998</ele>
<time>2023-05-17T13:10:20Z</time>
</trkpt>
<trkpt lat="49.17187496088445" lon="8.27820997685194">
<ele>135.39999999999998</ele>
<time>2023-05-17T13:10:21Z</time>
</trkpt>
<trkpt lat="49.17193195782602" lon="8.278204947710037">
<ele>135.39999999999998</ele>
<time>2023-05-17T13:10:22Z</time>
</trkpt>
<trkpt lat="49.171989960595965" lon="8.278202936053276">
<ele>135.39999999999998</ele>
<time>2023-05-17T13:10:23Z</time>
</trkpt>
<trkpt lat="49.17204695753753" lon="8.278199918568134">
<ele>135.39999999999998</ele>
<time>2023-05-17T13:10:24Z</time>
</trkpt>
<trkpt lat="49.17210294865072" lon="8.278191955760121">
<ele>135.39999999999998</ele>
<time>2023-05-17T13:10:25Z</time>
</trkpt>
<trkpt lat="49.172161957249045" lon="8.278182987123728">
<ele>135.39999999999998</ele>
<time>2023-05-17T13:10:26Z</time>
</trkpt>
<trkpt lat="49.17221996001899" lon="8.278172928839922">
<ele>135.39999999999998</ele>
<time>2023-05-17T13:10:27Z</time>
</trkpt>
<trkpt lat="49.17227796278894" lon="8.278161948546767">
<ele>135.39999999999998</ele>
<time>2023-05-17T13:10:28Z</time>
</trkpt>
<trkpt lat="49.17233697138727" lon="8.278149962425232">
<ele>135.39999999999998</ele>
<time>2023-05-17T13:10:29Z</time>
</trkpt>
<trkpt lat="49.172396985813975" lon="8.278136970475316">
<ele>135.20000000000005</ele>
<time>2023-05-17T13:10:30Z</time>
</trkpt>
<trkpt lat="49.17245691642165" lon="8.278121966868639">
<ele>135.20000000000005</ele>
<time>2023-05-17T13:10:31Z</time>
</trkpt>
<trkpt lat="49.1725149191916" lon="8.2781049516052">
<ele>135.20000000000005</ele>
<time>2023-05-17T13:10:32Z</time>
</trkpt>
<trkpt lat="49.172572921961546" lon="8.278087936341763">
<ele>135</ele>
<time>2023-05-17T13:10:33Z</time>
</trkpt>
<trkpt lat="49.172632936388254" lon="8.278071926906705">
<ele>135</ele>
<time>2023-05-17T13:10:34Z</time>
</trkpt>
<trkpt lat="49.17269295081496" lon="8.278056923300028">
<ele>134.79999999999995</ele>
<time>2023-05-17T13:10:35Z</time>
</trkpt>
<trkpt lat="49.17275296524167" lon="8.278044937178493">
<ele>134.79999999999995</ele>
<time>2023-05-17T13:10:36Z</time>
</trkpt>
<trkpt lat="49.17281297966838" lon="8.278029933571815">
<ele>134.60000000000002</ele>
<time>2023-05-17T13:10:37Z</time>
</trkpt>
<trkpt lat="49.17287492193282" lon="8.2780169416219">
<ele>134.60000000000002</ele>
<time>2023-05-17T13:10:38Z</time>
</trkpt>
<trkpt lat="49.172934936359525" lon="8.278004955500364">
<ele>134.60000000000002</ele>
<time>2023-05-17T13:10:39Z</time>
</trkpt>
<trkpt lat="49.17299495078623" lon="8.277996992692351">
<ele>134.60000000000002</ele>
<time>2023-05-17T13:10:40Z</time>
</trkpt>
<trkpt lat="49.1730569768697" lon="8.277987940236926">
<ele>134.60000000000002</ele>
<time>2023-05-17T13:10:41Z</time>
</trkpt>
<trkpt lat="49.17311799712479" lon="8.277977965772152">
<ele>134.60000000000002</ele>
<time>2023-05-17T13:10:42Z</time>
</trkpt>
<trkpt lat="49.17317792773247" lon="8.277966985478997">
<ele>134.39999999999998</ele>
<time>2023-05-17T13:10:43Z</time>
</trkpt>
<trkpt lat="49.173237942159176" lon="8.277956927195191">
<ele>134.39999999999998</ele>
<time>2023-05-17T13:10:44Z</time>
</trkpt>
<trkpt lat="49.173299968242645" lon="8.277946952730417">
<ele>134.39999999999998</ele>
<time>2023-05-17T13:10:45Z</time>
</trkpt>
<trkpt lat="49.17335998266935" lon="8.277937984094024">
<ele>134.39999999999998</ele>
<time>2023-05-17T13:10:46Z</time>
</trkpt>
<trkpt lat="49.1734179854393" lon="8.277929937466979">
<ele>134.39999999999998</ele>
<time>2023-05-17T13:10:47Z</time>
</trkpt>
<trkpt lat="49.17347799986601" lon="8.277916945517063">
<ele>134.20000000000005</ele>
<time>2023-05-17T13:10:48Z</time>
</trkpt>
<trkpt lat="49.173536924645305" lon="8.277901941910386">
<ele>134.20000000000005</ele>
<time>2023-05-17T13:10:49Z</time>
</trkpt>
<trkpt lat="49.17359199374914" lon="8.27788995578885">
<ele>134</ele>
<time>2023-05-17T13:10:50Z</time>
</trkpt>
<trkpt lat="49.17364697903395" lon="8.277874952182174">
<ele>134</ele>
<time>2023-05-17T13:10:51Z</time>
</trkpt>
<trkpt lat="49.17370196431875" lon="8.277859948575497">
<ele>133.79999999999995</ele>
<time>2023-05-17T13:10:52Z</time>
</trkpt>
<trkpt lat="49.173754937946796" lon="8.27784695662558">
<ele>133.79999999999995</ele>
<time>2023-05-17T13:10:53Z</time>
</trkpt>
<trkpt lat="49.17380698956549" lon="8.277839999645948">
<ele>133.79999999999995</ele>
<time>2023-05-17T13:10:54Z</time>
</trkpt>
<trkpt lat="49.17386298067868" lon="8.277829941362143">
<ele>133.79999999999995</ele>
<time>2023-05-17T13:10:55Z</time>
</trkpt>
<trkpt lat="49.173919977620244" lon="8.277819966897368">
<ele>133.79999999999995</ele>
<time>2023-05-17T13:10:56Z</time>
</trkpt>
<trkpt lat="49.17397798039019" lon="8.277811920270324">
<ele>133.79999999999995</ele>
<time>2023-05-17T13:10:57Z</time>
</trkpt>
<trkpt lat="49.17403698898852" lon="8.27780194580555">
<ele>133.79999999999995</ele>
<time>2023-05-17T13:10:58Z</time>
</trkpt>
<trkpt lat="49.174094991758466" lon="8.277789959684014">
<ele>133.60000000000002</ele>
<time>2023-05-17T13:10:59Z</time>
</trkpt>
<trkpt lat="49.17415299452841" lon="8.277781996876001">
<ele>133.60000000000002</ele>
<time>2023-05-17T13:11:00Z</time>
</trkpt>
<trkpt lat="49.17421292513609" lon="8.277771938592196">
<ele>133.39999999999998</ele>
<time>2023-05-17T13:11:01Z</time>
</trkpt>
<trkpt lat="49.1742729395628" lon="8.277762969955802">
<ele>133.20000000000005</ele>
<time>2023-05-17T13:11:02Z</time>
</trkpt>
<trkpt lat="49.174332953989506" lon="8.277756934985518">
<ele>133.20000000000005</ele>
<time>2023-05-17T13:11:03Z</time>
</trkpt>
<trkpt lat="49.17439196258783" lon="8.277747966349125">
<ele>133</ele>
<time>2023-05-17T13:11:04Z</time>
</trkpt>
<trkpt lat="49.17444996535778" lon="8.277731956914067">
<ele>132.79999999999995</ele>
<time>2023-05-17T13:11:05Z</time>
</trkpt>
<trkpt lat="49.17450997978449" lon="8.27771695330739">
<ele>132.79999999999995</ele>
<time>2023-05-17T13:11:06Z</time>
</trkpt>
<trkpt lat="49.1745699942112" lon="8.27769792638719">
<ele>132.60000000000002</ele>
<time>2023-05-17T13:11:07Z</time>
</trkpt>
<trkpt lat="49.17462992481887" lon="8.277681916952133">
<ele>132.39999999999998</ele>
<time>2023-05-17T13:11:08Z</time>
</trkpt>
<trkpt lat="49.17468993924558" lon="8.277666997164488">
<ele>132.39999999999998</ele>
<time>2023-05-17T13:11:09Z</time>
</trkpt>
<trkpt lat="49.17474794201553" lon="8.27764998190105">
<ele>132.20000000000005</ele>
<time>2023-05-17T13:11:10Z</time>
</trkpt>
<trkpt lat="49.174806950613856" lon="8.277632966637611">
<ele>132.20000000000005</ele>
<time>2023-05-17T13:11:11Z</time>
</trkpt>
<trkpt lat="49.17486294172704" lon="8.277621986344457">
<ele>132</ele>
<time>2023-05-17T13:11:12Z</time>
</trkpt>
<trkpt lat="49.17491993866861" lon="8.277612933889031">
<ele>132</ele>
<time>2023-05-17T13:11:13Z</time>
</trkpt>
<trkpt lat="49.17497995309532" lon="8.27760698273778">
<ele>131.79999999999995</ele>
<time>2023-05-17T13:11:14Z</time>
</trkpt>
<trkpt lat="49.17503493838012" lon="8.277594996616244">
<ele>131.79999999999995</ele>
<time>2023-05-17T13:11:15Z</time>
</trkpt>
<trkpt lat="49.17509495280683" lon="8.2775869499892">
<ele>131.79999999999995</ele>
<time>2023-05-17T13:11:16Z</time>
</trkpt>
<trkpt lat="49.17515496723354" lon="8.277574963867664">
<ele>131.79999999999995</ele>
<time>2023-05-17T13:11:17Z</time>
</trkpt>
<trkpt lat="49.1752069350332" lon="8.277562977746129">
<ele>131.79999999999995</ele>
<time>2023-05-17T13:11:18Z</time>
</trkpt>
<trkpt lat="49.17525798082352" lon="8.277554931119084">
<ele>131.79999999999995</ele>
<time>2023-05-17T13:11:19Z</time>
</trkpt>
<trkpt lat="49.17530994862318" lon="8.277541939169168">
<ele>132</ele>
<time>2023-05-17T13:11:20Z</time>
</trkpt>
<trkpt lat="49.17535797692835" lon="8.277531964704394">
<ele>132</ele>
<time>2023-05-17T13:11:21Z</time>
</trkpt>
<trkpt lat="49.17540994472802" lon="8.277517966926098">
<ele>132</ele>
<time>2023-05-17T13:11:22Z</time>
</trkpt>
<trkpt lat="49.17546199634671" lon="8.27750296331942">
<ele>132</ele>
<time>2023-05-17T13:11:23Z</time>
</trkpt>
<trkpt lat="49.175514969974756" lon="8.277491983026266">
<ele>132</ele>
<time>2023-05-17T13:11:24Z</time>
</trkpt>
<trkpt lat="49.1755679436028" lon="8.277484942227602">
<ele>132</ele>
<time>2023-05-17T13:11:25Z</time>
</trkpt>
<trkpt lat="49.175621923059225" lon="8.277476979419589">
<ele>132.20000000000005</ele>
<time>2023-05-17T13:11:26Z</time>
</trkpt>
<trkpt lat="49.17567799799144" lon="8.277464993298054">
<ele>132.20000000000005</ele>
<time>2023-05-17T13:11:27Z</time>
</trkpt>
<trkpt lat="49.17573298327625" lon="8.277452923357487">
<ele>132.20000000000005</ele>
<time>2023-05-17T13:11:28Z</time>
</trkpt>
<trkpt lat="49.17578796856105" lon="8.277442948892713">
<ele>132.20000000000005</ele>
<time>2023-05-17T13:11:29Z</time>
</trkpt>
<trkpt lat="49.17584295384586" lon="8.277429956942797">
<ele>132.39999999999998</ele>
<time>2023-05-17T13:11:30Z</time>
</trkpt>
<trkpt lat="49.175897939130664" lon="8.27741696499288">
<ele>132.39999999999998</ele>
<time>2023-05-17T13:11:31Z</time>
</trkpt>
<trkpt lat="49.17595292441547" lon="8.277406990528107">
<ele>132.39999999999998</ele>
<time>2023-05-17T13:11:32Z</time>
</trkpt>
<trkpt lat="49.176004976034164" lon="8.2773969322443">
<ele>132.39999999999998</ele>
<time>2023-05-17T13:11:33Z</time>
</trkpt>
<trkpt lat="49.17605794966221" lon="8.277386957779527">
<ele>132.39999999999998</ele>
<time>2023-05-17T13:11:34Z</time>
</trkpt>
<trkpt lat="49.17610798962414" lon="8.277381928637624">
<ele>132.60000000000002</ele>
<time>2023-05-17T13:11:35Z</time>
</trkpt>
<trkpt lat="49.176157945767045" lon="8.277376983314753">
<ele>132.60000000000002</ele>
<time>2023-05-17T13:11:36Z</time>
</trkpt>
<trkpt lat="49.176201950758696" lon="8.277369942516088">
<ele>132.60000000000002</ele>
<time>2023-05-17T13:11:37Z</time>
</trkpt>
<trkpt lat="49.176244949921966" lon="8.277359968051314">
<ele>132.60000000000002</ele>
<time>2023-05-17T13:11:38Z</time>
</trkpt>
<trkpt lat="49.17628291994333" lon="8.27734999358654">
<ele>132.60000000000002</ele>
<time>2023-05-17T13:11:39Z</time>
</trkpt>
<trkpt lat="49.17631996795535" lon="8.277341946959496">
<ele>132.79999999999995</ele>
<time>2023-05-17T13:11:40Z</time>
</trkpt>
<trkpt lat="49.17635994963348" lon="8.277334989979863">
<ele>132.79999999999995</ele>
<time>2023-05-17T13:11:41Z</time>
</trkpt>
<trkpt lat="49.17639993131161" lon="8.27732996083796">
<ele>132.79999999999995</ele>
<time>2023-05-17T13:11:42Z</time>
</trkpt>
<trkpt lat="49.17644494213164" lon="8.277322920039296">
<ele>133</ele>
<time>2023-05-17T13:11:43Z</time>
</trkpt>
<trkpt lat="49.17649196460843" lon="8.277316968888044">
<ele>133</ele>
<time>2023-05-17T13:11:44Z</time>
</trkpt>
<trkpt lat="49.176539992913604" lon="8.277307916432619">
<ele>133</ele>
<time>2023-05-17T13:11:45Z</time>
</trkpt>
<trkpt lat="49.176587937399745" lon="8.277297941967845">
<ele>133</ele>
<time>2023-05-17T13:11:46Z</time>
</trkpt>
<trkpt lat="49.17663998901844" lon="8.277289979159832">
<ele>133</ele>
<time>2023-05-17T13:11:47Z</time>
</trkpt>
<trkpt lat="49.176692962646484" lon="8.277281932532787">
<ele>133</ele>
<time>2023-05-17T13:11:48Z</time>
</trkpt>
<trkpt lat="49.17674995958805" lon="8.277271958068013">
<ele>133</ele>
<time>2023-05-17T13:11:49Z</time>
</trkpt>
<trkpt lat="49.17680695652962" lon="8.277259971946478">
<ele>133</ele>
<time>2023-05-17T13:11:50Z</time>
</trkpt>
<trkpt lat="49.1768629476428" lon="8.277246979996562">
<ele>132.79999999999995</ele>
<time>2023-05-17T13:11:51Z</time>
</trkpt>
<trkpt lat="49.17692195624113" lon="8.277236921712756">
<ele>132.79999999999995</ele>
<time>2023-05-17T13:11:52Z</time>
</trkpt>
<trkpt lat="49.17698197066784" lon="8.277226947247982">
<ele>132.79999999999995</ele>
<time>2023-05-17T13:11:53Z</time>
</trkpt>
<trkpt lat="49.17704198509455" lon="8.277212949469686">
<ele>132.79999999999995</ele>
<time>2023-05-17T13:11:54Z</time>
</trkpt>
<trkpt lat="49.177102921530604" lon="8.27719995751977">
<ele>132.79999999999995</ele>
<time>2023-05-17T13:11:55Z</time>
</trkpt>
<trkpt lat="49.177164947614074" lon="8.277184953913093">
<ele>132.60000000000002</ele>
<time>2023-05-17T13:11:56Z</time>
</trkpt>
<trkpt lat="49.17722697369754" lon="8.277171961963177">
<ele>132.60000000000002</ele>
<time>2023-05-17T13:11:57Z</time>
</trkpt>
<trkpt lat="49.17728992179036" lon="8.277159975841641">
<ele>132.39999999999998</ele>
<time>2023-05-17T13:11:58Z</time>
</trkpt>
<trkpt lat="49.17735295370221" lon="8.277151929214597">
<ele>132.20000000000005</ele>
<time>2023-05-17T13:11:59Z</time>
</trkpt>
<trkpt lat="49.17741799727082" lon="8.277144972234964">
<ele>132</ele>
<time>2023-05-17T13:12:00Z</time>
</trkpt>
<trkpt lat="49.1774829570204" lon="8.27713692560792">
<ele>131.79999999999995</ele>
<time>2023-05-17T13:12:01Z</time>
</trkpt>
<trkpt lat="49.17754699476063" lon="8.277124939486384">
<ele>131.60000000000002</ele>
<time>2023-05-17T13:12:02Z</time>
</trkpt>
<trkpt lat="49.17761195451021" lon="8.277109935879707">
<ele>131.20000000000005</ele>
<time>2023-05-17T13:12:03Z</time>
</trkpt>
<trkpt lat="49.17767498642206" lon="8.277096943929791">
<ele>131</ele>
<time>2023-05-17T13:12:04Z</time>
</trkpt>
<trkpt lat="49.1777369286865" lon="8.277084957808256">
<ele>131</ele>
<time>2023-05-17T13:12:05Z</time>
</trkpt>
<trkpt lat="49.17779694311321" lon="8.277076995000243">
<ele>130.79999999999995</ele>
<time>2023-05-17T13:12:06Z</time>
</trkpt>
<trkpt lat="49.177854945883155" lon="8.277067942544818">
<ele>130.60000000000002</ele>
<time>2023-05-17T13:12:07Z</time>
</trkpt>
<trkpt lat="49.17791194282472" lon="8.277057968080044">
<ele>130.60000000000002</ele>
<time>2023-05-17T13:12:08Z</time>
</trkpt>
<trkpt lat="49.17796793393791" lon="8.277046987786889">
<ele>130.39999999999998</ele>
<time>2023-05-17T13:12:09Z</time>
</trkpt>
<trkpt lat="49.178026942536235" lon="8.277032990008593">
<ele>130.39999999999998</ele>
<time>2023-05-17T13:12:10Z</time>
</trkpt>
<trkpt lat="49.17808695696294" lon="8.277021925896406">
<ele>130.20000000000005</ele>
<time>2023-05-17T13:12:11Z</time>
</trkpt>
<trkpt lat="49.17814697138965" lon="8.27700692228973">
<ele>130.20000000000005</ele>
<time>2023-05-17T13:12:12Z</time>
</trkpt>
<trkpt lat="49.17820698581636" lon="8.276992924511433">
<ele>130.20000000000005</ele>
<time>2023-05-17T13:12:13Z</time>
</trkpt>
<trkpt lat="49.178266916424036" lon="8.276979932561517">
<ele>130.20000000000005</ele>
<time>2023-05-17T13:12:14Z</time>
</trkpt>
<trkpt lat="49.178326930850744" lon="8.2769669406116">
<ele>130.20000000000005</ele>
<time>2023-05-17T13:12:15Z</time>
</trkpt>
<trkpt lat="49.17838694527745" lon="8.276949925348163">
<ele>130.20000000000005</ele>
<time>2023-05-17T13:12:16Z</time>
</trkpt>
<trkpt lat="49.17844293639064" lon="8.276934921741486">
<ele>130.20000000000005</ele>
<time>2023-05-17T13:12:17Z</time>
</trkpt>
<trkpt lat="49.17850295081735" lon="8.27692192979157">
<ele>130.20000000000005</ele>
<time>2023-05-17T13:12:18Z</time>
</trkpt>
<trkpt lat="49.178561959415674" lon="8.276909943670034">
<ele>130.20000000000005</ele>
<time>2023-05-17T13:12:19Z</time>
</trkpt>
<trkpt lat="49.17862197384238" lon="8.276896951720119">
<ele>130.20000000000005</ele>
<time>2023-05-17T13:12:20Z</time>
</trkpt>
<trkpt lat="49.17868198826909" lon="8.276884965598583">
<ele>130.20000000000005</ele>
<time>2023-05-17T13:12:21Z</time>
</trkpt>
<trkpt lat="49.17874191887677" lon="8.276874991133809">
<ele>130.20000000000005</ele>
<time>2023-05-17T13:12:22Z</time>
</trkpt>
<trkpt lat="49.178802939131856" lon="8.276862921193242">
<ele>130.20000000000005</ele>
<time>2023-05-17T13:12:23Z</time>
</trkpt>
<trkpt lat="49.178861947730184" lon="8.276851940900087">
<ele>130.20000000000005</ele>
<time>2023-05-17T13:12:24Z</time>
</trkpt>
<trkpt lat="49.17892296798527" lon="8.27683794312179">
<ele>130.20000000000005</ele>
<time>2023-05-17T13:12:25Z</time>
</trkpt>
<trkpt lat="49.17898298241198" lon="8.276822939515114">
<ele>130.20000000000005</ele>
<time>2023-05-17T13:12:26Z</time>
</trkpt>
<trkpt lat="49.17904299683869" lon="8.276809947565198">
<ele>130.20000000000005</ele>
<time>2023-05-17T13:12:27Z</time>
</trkpt>
<trkpt lat="49.179102927446365" lon="8.27679293230176">
<ele>130.20000000000005</ele>
<time>2023-05-17T13:12:28Z</time>
</trkpt>
<trkpt lat="49.17916193604469" lon="8.276781952008605">
<ele>130.20000000000005</ele>
<time>2023-05-17T13:12:29Z</time>
</trkpt>
<trkpt lat="49.1792219504714" lon="8.276772983372211">
<ele>130.20000000000005</ele>
<time>2023-05-17T13:12:30Z</time>
</trkpt>
<trkpt lat="49.17927794158459" lon="8.276764936745167">
<ele>130.20000000000005</ele>
<time>2023-05-17T13:12:31Z</time>
</trkpt>
<trkpt lat="49.179336950182915" lon="8.276752950623631">
<ele>130.20000000000005</ele>
<time>2023-05-17T13:12:32Z</time>
</trkpt>
<trkpt lat="49.17939495295286" lon="8.276739958673716">
<ele>130.20000000000005</ele>
<time>2023-05-17T13:12:33Z</time>
</trkpt>
<trkpt lat="49.17945496737957" lon="8.2767269667238">
<ele>130.20000000000005</ele>
<time>2023-05-17T13:12:34Z</time>
</trkpt>
<trkpt lat="49.17951196432114" lon="8.276712968945503">
<ele>130.20000000000005</ele>
<time>2023-05-17T13:12:35Z</time>
</trkpt>
<trkpt lat="49.17956996709108" lon="8.276701988652349">
<ele>130.20000000000005</ele>
<time>2023-05-17T13:12:36Z</time>
</trkpt>
<trkpt lat="49.17962495237589" lon="8.276691930368543">
<ele>130.20000000000005</ele>
<time>2023-05-17T13:12:37Z</time>
</trkpt>
<trkpt lat="49.17967792600393" lon="8.276681955903769">
<ele>130.20000000000005</ele>
<time>2023-05-17T13:12:38Z</time>
</trkpt>
<trkpt lat="49.17972997762263" lon="8.276674998924136">
<ele>130.20000000000005</ele>
<time>2023-05-17T13:12:39Z</time>
</trkpt>
<trkpt lat="49.17978194542229" lon="8.276669969782233">
<ele>130.20000000000005</ele>
<time>2023-05-17T13:12:40Z</time>
</trkpt>
<trkpt lat="49.179834919050336" lon="8.27666292898357">
<ele>130.20000000000005</ele>
<time>2023-05-17T13:12:41Z</time>
</trkpt>
<trkpt lat="49.17988797649741" lon="8.276654966175556">
<ele>130.20000000000005</ele>
<time>2023-05-17T13:12:42Z</time>
</trkpt>
<trkpt lat="49.17994296178222" lon="8.276644991710782">
<ele>130.20000000000005</ele>
<time>2023-05-17T13:12:43Z</time>
</trkpt>
<trkpt lat="49.17999794706702" lon="8.276632921770215">
<ele>130.20000000000005</ele>
<time>2023-05-17T13:12:44Z</time>
</trkpt>
<trkpt lat="49.18005293235183" lon="8.276624958962202">
<ele>130.20000000000005</ele>
<time>2023-05-17T13:12:45Z</time>
</trkpt>
<trkpt lat="49.18010791763663" lon="8.276616996154189">
<ele>130.20000000000005</ele>
<time>2023-05-17T13:12:46Z</time>
</trkpt>
<trkpt lat="49.18016198091209" lon="8.276607943698764">
<ele>130.20000000000005</ele>
<time>2023-05-17T13:12:47Z</time>
</trkpt>
<trkpt lat="49.18021495454013" lon="8.27659696340561">
<ele>130.20000000000005</ele>
<time>2023-05-17T13:12:48Z</time>
</trkpt>
<trkpt lat="49.1802669223398" lon="8.276586988940835">
<ele>130.20000000000005</ele>
<time>2023-05-17T13:12:49Z</time>
</trkpt>
<trkpt lat="49.18031495064497" lon="8.27657693065703">
<ele>130.20000000000005</ele>
<time>2023-05-17T13:12:50Z</time>
</trkpt>
<trkpt lat="49.180364990606904" lon="8.276564944535494">
<ele>130.20000000000005</ele>
<time>2023-05-17T13:12:51Z</time>
</trkpt>
<trkpt lat="49.18041695840657" lon="8.276551952585578">
<ele>130.20000000000005</ele>
<time>2023-05-17T13:12:52Z</time>
</trkpt>
<trkpt lat="49.18046993203461" lon="8.276537954807281">
<ele>130.20000000000005</ele>
<time>2023-05-17T13:12:53Z</time>
</trkpt>
<trkpt lat="49.18052491731942" lon="8.276524962857366">
<ele>130.20000000000005</ele>
<time>2023-05-17T13:12:54Z</time>
</trkpt>
<trkpt lat="49.180582920089364" lon="8.27651197090745">
<ele>130.20000000000005</ele>
<time>2023-05-17T13:12:55Z</time>
</trkpt>
<trkpt lat="49.18064494617283" lon="8.276497973129153">
<ele>130</ele>
<time>2023-05-17T13:12:56Z</time>
</trkpt>
<trkpt lat="49.18070797808468" lon="8.276482969522476">
<ele>130</ele>
<time>2023-05-17T13:12:57Z</time>
</trkpt>
<trkpt lat="49.18077193200588" lon="8.276466960087419">
<ele>129.79999999999995</ele>
<time>2023-05-17T13:12:58Z</time>
</trkpt>
<trkpt lat="49.18083697557449" lon="8.27644793316722">
<ele>129.60000000000002</ele>
<time>2023-05-17T13:12:59Z</time>
</trkpt>
<trkpt lat="49.180904952809215" lon="8.276429995894432">
<ele>129.39999999999998</ele>
<time>2023-05-17T13:13:00Z</time>
</trkpt>
<trkpt lat="49.180972930043936" lon="8.276414992287755">
<ele>129</ele>
<time>2023-05-17T13:13:01Z</time>
</trkpt>
<trkpt lat="49.18104291893542" lon="8.276401916518807">
<ele>128.79999999999995</ele>
<time>2023-05-17T13:13:02Z</time>
</trkpt>
<trkpt lat="49.18111491948366" lon="8.276387918740511">
<ele>128.39999999999998</ele>
<time>2023-05-17T13:13:03Z</time>
</trkpt>
<trkpt lat="49.181186920031905" lon="8.276374926790595">
<ele>128</ele>
<time>2023-05-17T13:13:04Z</time>
</trkpt>
<trkpt lat="49.1812579985708" lon="8.27636193484068">
<ele>127.60000000000002</ele>
<time>2023-05-17T13:13:05Z</time>
</trkpt>
<trkpt lat="49.18132798746228" lon="8.276346931234002">
<ele>127.20000000000005</ele>
<time>2023-05-17T13:13:06Z</time>
</trkpt>
<trkpt lat="49.181396970525384" lon="8.276336956769228">
<ele>127</ele>
<time>2023-05-17T13:13:07Z</time>
</trkpt>
<trkpt lat="49.181464947760105" lon="8.276327988132834">
<ele>126.79999999999995</ele>
<time>2023-05-17T13:13:08Z</time>
</trkpt>
<trkpt lat="49.181526973843575" lon="8.276316924020648">
<ele>126.60000000000002</ele>
<time>2023-05-17T13:13:09Z</time>
</trkpt>
<trkpt lat="49.18158497661352" lon="8.276304937899113">
<ele>126.60000000000002</ele>
<time>2023-05-17T13:13:10Z</time>
</trkpt>
<trkpt lat="49.18164197355509" lon="8.276292951777577">
<ele>126.60000000000002</ele>
<time>2023-05-17T13:13:11Z</time>
</trkpt>
<trkpt lat="49.18169695883989" lon="8.276287922635674">
<ele>126.60000000000002</ele>
<time>2023-05-17T13:13:12Z</time>
</trkpt>
<trkpt lat="49.1817519441247" lon="8.276281971484423">
<ele>126.60000000000002</ele>
<time>2023-05-17T13:13:13Z</time>
</trkpt>
<trkpt lat="49.18180491775274" lon="8.276274930685759">
<ele>126.60000000000002</ele>
<time>2023-05-17T13:13:14Z</time>
</trkpt>
<trkpt lat="49.18185998685658" lon="8.276266967877746">
<ele>126.60000000000002</ele>
<time>2023-05-17T13:13:15Z</time>
</trkpt>
<trkpt lat="49.181916983798146" lon="8.27625498175621">
<ele>126.60000000000002</ele>
<time>2023-05-17T13:13:16Z</time>
</trkpt>
<trkpt lat="49.18196995742619" lon="8.276246935129166">
<ele>126.60000000000002</ele>
<time>2023-05-17T13:13:17Z</time>
</trkpt>
<trkpt lat="49.18202695436776" lon="8.27623494900763">
<ele>126.60000000000002</ele>
<time>2023-05-17T13:13:18Z</time>
</trkpt>
<trkpt lat="49.18208193965256" lon="8.276226986199617">
<ele>126.60000000000002</ele>
<time>2023-05-17T13:13:19Z</time>
</trkpt>
<trkpt lat="49.18213692493737" lon="8.276217933744192">
<ele>126.60000000000002</ele>
<time>2023-05-17T13:13:20Z</time>
</trkpt>
<trkpt lat="49.182191994041204" lon="8.276207959279418">
<ele>126.60000000000002</ele>
<time>2023-05-17T13:13:21Z</time>
</trkpt>
<trkpt lat="49.18224295601249" lon="8.276194967329502">
<ele>126.60000000000002</ele>
<time>2023-05-17T13:13:22Z</time>
</trkpt>
<trkpt lat="49.18229693546891" lon="8.276179963722825">
<ele>126.60000000000002</ele>
<time>2023-05-17T13:13:23Z</time>
</trkpt>
<trkpt lat="49.18234798125923" lon="8.276164960116148">
<ele>126.60000000000002</ele>
<time>2023-05-17T13:13:24Z</time>
</trkpt>
<trkpt lat="49.18239793740213" lon="8.276152973994613">
<ele>126.60000000000002</ele>
<time>2023-05-17T13:13:25Z</time>
</trkpt>
<trkpt lat="49.182451916858554" lon="8.276139982044697">
<ele>126.60000000000002</ele>
<time>2023-05-17T13:13:26Z</time>
</trkpt>
<trkpt lat="49.18250296264887" lon="8.276127995923162">
<ele>126.60000000000002</ele>
<time>2023-05-17T13:13:27Z</time>
</trkpt>
<trkpt lat="49.18255694210529" lon="8.276116931810975">
<ele>126.60000000000002</ele>
<time>2023-05-17T13:13:28Z</time>
</trkpt>
<trkpt lat="49.18260999955237" lon="8.276107963174582">
<ele>126.60000000000002</ele>
<time>2023-05-17T13:13:29Z</time>
</trkpt>
<trkpt lat="49.18266297318041" lon="8.276101928204298">
<ele>126.60000000000002</ele>
<time>2023-05-17T13:13:30Z</time>
</trkpt>
<trkpt lat="49.18271494098008" lon="8.276091953739524">
<ele>126.60000000000002</ele>
<time>2023-05-17T13:13:31Z</time>
</trkpt>
<trkpt lat="49.18276699259877" lon="8.27608197927475">
<ele>126.60000000000002</ele>
<time>2023-05-17T13:13:32Z</time>
</trkpt>
<trkpt lat="49.182819966226816" lon="8.276069993153214">
<ele>126.60000000000002</ele>
<time>2023-05-17T13:13:33Z</time>
</trkpt>
<trkpt lat="49.18287495151162" lon="8.276057923212647">
<ele>126.60000000000002</ele>
<time>2023-05-17T13:13:34Z</time>
</trkpt>
<trkpt lat="49.182927925139666" lon="8.276044931262732">
<ele>126.60000000000002</ele>
<time>2023-05-17T13:13:35Z</time>
</trkpt>
<trkpt lat="49.18297997675836" lon="8.276031939312816">
<ele>126.60000000000002</ele>
<time>2023-05-17T13:13:36Z</time>
</trkpt>
<trkpt lat="49.183032950386405" lon="8.27601794153452">
<ele>126.60000000000002</ele>
<time>2023-05-17T13:13:37Z</time>
</trkpt>
<trkpt lat="49.18308692984283" lon="8.276007967069745">
<ele>126.60000000000002</ele>
<time>2023-05-17T13:13:38Z</time>
</trkpt>
<trkpt lat="49.183137975633144" lon="8.275997992604971">
<ele>126.60000000000002</ele>
<time>2023-05-17T13:13:39Z</time>
</trkpt>
<trkpt lat="49.18318994343281" lon="8.275989945977926">
<ele>126.60000000000002</ele>
<time>2023-05-17T13:13:40Z</time>
</trkpt>
<trkpt lat="49.18323998339474" lon="8.275981983169913">
<ele>126.60000000000002</ele>
<time>2023-05-17T13:13:41Z</time>
</trkpt>
<trkpt lat="49.183289939537644" lon="8.275969997048378">
<ele>126.60000000000002</ele>
<time>2023-05-17T13:13:42Z</time>
</trkpt>
<trkpt lat="49.18333696201444" lon="8.27595692127943">
<ele>126.60000000000002</ele>
<time>2023-05-17T13:13:43Z</time>
</trkpt>
<trkpt lat="49.18338297866285" lon="8.275942923501134">
<ele>126.60000000000002</ele>
<time>2023-05-17T13:13:44Z</time>
</trkpt>
<trkpt lat="49.18342991732061" lon="8.27593194320798">
<ele>126.79999999999995</ele>
<time>2023-05-17T13:13:45Z</time>
</trkpt>
<trkpt lat="49.1834769397974" lon="8.275917945429683">
<ele>126.79999999999995</ele>
<time>2023-05-17T13:13:46Z</time>
</trkpt>
<trkpt lat="49.18352195061743" lon="8.275911994278431">
<ele>126.79999999999995</ele>
<time>2023-05-17T13:13:47Z</time>
</trkpt>
<trkpt lat="49.183566961437464" lon="8.275906965136528">
<ele>127</ele>
<time>2023-05-17T13:13:48Z</time>
</trkpt>
<trkpt lat="49.183611972257495" lon="8.275902941823006">
<ele>127</ele>
<time>2023-05-17T13:13:49Z</time>
</trkpt>
<trkpt lat="49.183652959764004" lon="8.275897996500134">
<ele>127.20000000000005</ele>
<time>2023-05-17T13:13:50Z</time>
</trkpt>
<trkpt lat="49.18369294144213" lon="8.275886932387948">
<ele>127.39999999999998</ele>
<time>2023-05-17T13:13:51Z</time>
</trkpt>
<trkpt lat="49.18373191729188" lon="8.275872934609652">
<ele>127.39999999999998</ele>
<time>2023-05-17T13:13:52Z</time>
</trkpt>
<trkpt lat="49.18377198278904" lon="8.275861954316497">
<ele>127.60000000000002</ele>
<time>2023-05-17T13:13:53Z</time>
</trkpt>
<trkpt lat="49.18381297029555" lon="8.275851979851723">
<ele>127.79999999999995</ele>
<time>2023-05-17T13:13:54Z</time>
</trkpt>
<trkpt lat="49.18385295197368" lon="8.275842927396297">
<ele>128</ele>
<time>2023-05-17T13:13:55Z</time>
</trkpt>
<trkpt lat="49.183892933651805" lon="8.275832952931523">
<ele>128.20000000000005</ele>
<time>2023-05-17T13:13:56Z</time>
</trkpt>
<trkpt lat="49.183932999148965" lon="8.27582297846675">
<ele>128.20000000000005</ele>
<time>2023-05-17T13:13:57Z</time>
</trkpt>
<trkpt lat="49.18397197499871" lon="8.275814931839705">
<ele>128.39999999999998</ele>
<time>2023-05-17T13:13:58Z</time>
</trkpt>
<trkpt lat="49.18400994502008" lon="8.275809986516833">
<ele>128.60000000000002</ele>
<time>2023-05-17T13:13:59Z</time>
</trkpt>
<trkpt lat="49.18404799886048" lon="8.275806969031692">
<ele>128.79999999999995</ele>
<time>2023-05-17T13:14:00Z</time>
</trkpt>
<trkpt lat="49.18408798053861" lon="8.275801939889789">
<ele>129</ele>
<time>2023-05-17T13:14:01Z</time>
</trkpt>
<trkpt lat="49.184126956388354" lon="8.275794982910156">
<ele>129</ele>
<time>2023-05-17T13:14:02Z</time>
</trkpt>
<trkpt lat="49.18416492640972" lon="8.275787942111492">
<ele>129.20000000000005</ele>
<time>2023-05-17T13:14:03Z</time>
</trkpt>
<trkpt lat="49.18420197442174" lon="8.27577997930348">
<ele>129.39999999999998</ele>
<time>2023-05-17T13:14:04Z</time>
</trkpt>
<trkpt lat="49.18423994444311" lon="8.275767993181944">
<ele>129.60000000000002</ele>
<time>2023-05-17T13:14:05Z</time>
</trkpt>
<trkpt lat="49.184276992455125" lon="8.275757934898138">
<ele>129.79999999999995</ele>
<time>2023-05-17T13:14:06Z</time>
</trkpt>
<trkpt lat="49.18431295081973" lon="8.275749972090125">
<ele>129.79999999999995</ele>
<time>2023-05-17T13:14:07Z</time>
</trkpt>
<trkpt lat="49.18434798717499" lon="8.275742931291461">
<ele>130</ele>
<time>2023-05-17T13:14:08Z</time>
</trkpt>
<trkpt lat="49.18438293971121" lon="8.27573698014021">
<ele>130.20000000000005</ele>
<time>2023-05-17T13:14:09Z</time>
</trkpt>
<trkpt lat="49.18441797606647" lon="8.275729939341545">
<ele>130.39999999999998</ele>
<time>2023-05-17T13:14:10Z</time>
</trkpt>
<trkpt lat="49.18445494025946" lon="8.275724994018674">
<ele>130.60000000000002</ele>
<time>2023-05-17T13:14:11Z</time>
</trkpt>
<trkpt lat="49.184491988271475" lon="8.275719964876771">
<ele>130.79999999999995</ele>
<time>2023-05-17T13:14:12Z</time>
</trkpt>
<trkpt lat="49.1845269408077" lon="8.275711918249726">
<ele>130.79999999999995</ele>
<time>2023-05-17T13:14:13Z</time>
</trkpt>
<trkpt lat="49.18456197716296" lon="8.275706972926855">
<ele>131</ele>
<time>2023-05-17T13:14:14Z</time>
</trkpt>
<trkpt lat="49.18459491804242" lon="8.275701943784952">
<ele>131.20000000000005</ele>
<time>2023-05-17T13:14:15Z</time>
</trkpt>
<trkpt lat="49.18462794274092" lon="8.275692975148559">
<ele>131.39999999999998</ele>
<time>2023-05-17T13:14:16Z</time>
</trkpt>
<trkpt lat="49.184661973267794" lon="8.275686940178275">
<ele>131.60000000000002</ele>
<time>2023-05-17T13:14:17Z</time>
</trkpt>
<trkpt lat="49.18469692580402" lon="8.275679983198643">
<ele>131.79999999999995</ele>
<time>2023-05-17T13:14:18Z</time>
</trkpt>
<trkpt lat="49.184727938845754" lon="8.275676965713501">
<ele>131.79999999999995</ele>
<time>2023-05-17T13:14:19Z</time>
</trkpt>
<trkpt lat="49.18476196937263" lon="8.275672942399979">
<ele>132</ele>
<time>2023-05-17T13:14:20Z</time>
</trkpt>
<trkpt lat="49.184792982414365" lon="8.275669924914837">
<ele>132.20000000000005</ele>
<time>2023-05-17T13:14:21Z</time>
</trkpt>
<trkpt lat="49.18482491746545" lon="8.275664979591966">
<ele>132.39999999999998</ele>
<time>2023-05-17T13:14:22Z</time>
</trkpt>
<trkpt lat="49.1848549246788" lon="8.275657938793302">
<ele>132.60000000000002</ele>
<time>2023-05-17T13:14:23Z</time>
</trkpt>
<trkpt lat="49.184882920235395" lon="8.275649975985289">
<ele>132.60000000000002</ele>
<time>2023-05-17T13:14:24Z</time>
</trkpt>
<trkpt lat="49.18491192162037" lon="8.275646958500147">
<ele>132.79999999999995</ele>
<time>2023-05-17T13:14:25Z</time>
</trkpt>
<trkpt lat="49.18493497185409" lon="8.275642935186625">
<ele>133</ele>
<time>2023-05-17T13:14:26Z</time>
</trkpt>
<trkpt lat="49.1849569324404" lon="8.275642935186625">
<ele>133</ele>
<time>2023-05-17T13:14:27Z</time>
</trkpt>
<trkpt lat="49.18497696518898" lon="8.275641929358244">
<ele>133.20000000000005</ele>
<time>2023-05-17T13:14:28Z</time>
</trkpt>
<trkpt lat="49.1849949862808" lon="8.275641929358244">
<ele>133.20000000000005</ele>
<time>2023-05-17T13:14:29Z</time>
</trkpt>
<trkpt lat="49.18501493521035" lon="8.275639917701483">
<ele>133.39999999999998</ele>
<time>2023-05-17T13:14:30Z</time>
</trkpt>
<trkpt lat="49.18503697961569" lon="8.275637989863753">
<ele>133.39999999999998</ele>
<time>2023-05-17T13:14:31Z</time>
</trkpt>
<trkpt lat="49.18505793437362" lon="8.27563195489347">
<ele>133.39999999999998</ele>
<time>2023-05-17T13:14:32Z</time>
</trkpt>
<trkpt lat="49.18508199043572" lon="8.275626925751567">
<ele>133.60000000000002</ele>
<time>2023-05-17T13:14:33Z</time>
</trkpt>
<trkpt lat="49.18510294519365" lon="8.275621980428696">
<ele>133.60000000000002</ele>
<time>2023-05-17T13:14:34Z</time>
</trkpt>
<trkpt lat="49.18512498959899" lon="8.275617957115173">
<ele>133.60000000000002</ele>
<time>2023-05-17T13:14:35Z</time>
</trkpt>
<trkpt lat="49.1851469501853" lon="8.275616951286793">
<ele>133.79999999999995</ele>
<time>2023-05-17T13:14:36Z</time>
</trkpt>
<trkpt lat="49.18516991659999" lon="8.275614939630032">
<ele>133.79999999999995</ele>
<time>2023-05-17T13:14:37Z</time>
</trkpt>
<trkpt lat="49.18519296683371" lon="8.27560999430716">
<ele>133.79999999999995</ele>
<time>2023-05-17T13:14:38Z</time>
</trkpt>
<trkpt lat="49.18521794490516" lon="8.275604965165257">
<ele>133.79999999999995</ele>
<time>2023-05-17T13:14:39Z</time>
</trkpt>
<trkpt lat="49.18524292297661" lon="8.275596918538213">
<ele>133.79999999999995</ele>
<time>2023-05-17T13:14:40Z</time>
</trkpt>
<trkpt lat="49.18526999652386" lon="8.275586944073439">
<ele>133.79999999999995</ele>
<time>2023-05-17T13:14:41Z</time>
</trkpt>
<trkpt lat="49.18529799208045" lon="8.275576969608665">
<ele>133.79999999999995</ele>
<time>2023-05-17T13:14:42Z</time>
</trkpt>
<trkpt lat="49.185327999293804" lon="8.27556791715324">
<ele>133.60000000000002</ele>
<time>2023-05-17T13:14:43Z</time>
</trkpt>
<trkpt lat="49.18536194600165" lon="8.275561966001987">
<ele>133.60000000000002</ele>
<time>2023-05-17T13:14:44Z</time>
</trkpt>
<trkpt lat="49.185396982356906" lon="8.275556936860085">
<ele>133.60000000000002</ele>
<time>2023-05-17T13:14:45Z</time>
</trkpt>
<trkpt lat="49.18543495237827" lon="8.27554696239531">
<ele>133.60000000000002</ele>
<time>2023-05-17T13:14:46Z</time>
</trkpt>
<trkpt lat="49.18547795154154" lon="8.275532964617014">
<ele>133.60000000000002</ele>
<time>2023-05-17T13:14:47Z</time>
</trkpt>
<trkpt lat="49.185521956533194" lon="8.275517961010337">
<ele>133.39999999999998</ele>
<time>2023-05-17T13:14:48Z</time>
</trkpt>
<trkpt lat="49.185567973181605" lon="8.275506980717182">
<ele>133.39999999999998</ele>
<time>2023-05-17T13:14:49Z</time>
</trkpt>
<trkpt lat="49.1856149956584" lon="8.275496922433376">
<ele>133.20000000000005</ele>
<time>2023-05-17T13:14:50Z</time>
</trkpt>
<trkpt lat="49.18566294014454" lon="8.275487953796983">
<ele>133</ele>
<time>2023-05-17T13:14:51Z</time>
</trkpt>
<trkpt lat="49.18570996262133" lon="8.275477979332209">
<ele>132.79999999999995</ele>
<time>2023-05-17T13:14:52Z</time>
</trkpt>
<trkpt lat="49.18575698509812" lon="8.275466999039054">
<ele>132.60000000000002</ele>
<time>2023-05-17T13:14:53Z</time>
</trkpt>
<trkpt lat="49.185804929584265" lon="8.275454929098487">
<ele>132.39999999999998</ele>
<time>2023-05-17T13:14:54Z</time>
</trkpt>
<trkpt lat="49.1858549695462" lon="8.275447972118855">
<ele>132.20000000000005</ele>
<time>2023-05-17T13:14:55Z</time>
</trkpt>
<trkpt lat="49.1859049256891" lon="8.275441937148571">
<ele>131.79999999999995</ele>
<time>2023-05-17T13:14:56Z</time>
</trkpt>
<trkpt lat="49.18595798313618" lon="8.275431962683797">
<ele>131.60000000000002</ele>
<time>2023-05-17T13:14:57Z</time>
</trkpt>
<trkpt lat="49.1860119625926" lon="8.275421988219023">
<ele>131.20000000000005</ele>
<time>2023-05-17T13:14:58Z</time>
</trkpt>
<trkpt lat="49.18606795370579" lon="8.275409918278456">
<ele>131</ele>
<time>2023-05-17T13:14:59Z</time>
</trkpt>
<trkpt lat="49.186126962304115" lon="8.27539692632854">
<ele>130.60000000000002</ele>
<time>2023-05-17T13:15:00Z</time>
</trkpt>
<trkpt lat="49.18618496507406" lon="8.275384940207005">
<ele>130.20000000000005</ele>
<time>2023-05-17T13:15:01Z</time>
</trkpt>
<trkpt lat="49.18624296784401" lon="8.27537295408547">
<ele>130</ele>
<time>2023-05-17T13:15:02Z</time>
</trkpt>
<trkpt lat="49.186299964785576" lon="8.275362979620695">
<ele>129.60000000000002</ele>
<time>2023-05-17T13:15:03Z</time>
</trkpt>
<trkpt lat="49.18635293841362" lon="8.27535199932754">
<ele>129.39999999999998</ele>
<time>2023-05-17T13:15:04Z</time>
</trkpt>
<trkpt lat="49.186402978375554" lon="8.275341941043735">
<ele>129.20000000000005</ele>
<time>2023-05-17T13:15:05Z</time>
</trkpt>
<trkpt lat="49.186447989195585" lon="8.275332972407341">
<ele>129</ele>
<time>2023-05-17T13:15:06Z</time>
</trkpt>
<trkpt lat="49.186491994187236" lon="8.275322997942567">
<ele>128.79999999999995</ele>
<time>2023-05-17T13:15:07Z</time>
</trkpt>
<trkpt lat="49.186532981693745" lon="8.275314951315522">
<ele>128.60000000000002</ele>
<time>2023-05-17T13:15:08Z</time>
</trkpt>
<trkpt lat="49.186576986685395" lon="8.27530698850751">
<ele>128.39999999999998</ele>
<time>2023-05-17T13:15:09Z</time>
</trkpt>
<trkpt lat="49.18661696836352" lon="8.275296930223703">
<ele>128.20000000000005</ele>
<time>2023-05-17T13:15:10Z</time>
</trkpt>
<trkpt lat="49.18665493838489" lon="8.27528796158731">
<ele>128</ele>
<time>2023-05-17T13:15:11Z</time>
</trkpt>
<trkpt lat="49.18669299222529" lon="8.275281926617026">
<ele>127.79999999999995</ele>
<time>2023-05-17T13:15:12Z</time>
</trkpt>
<trkpt lat="49.186727944761515" lon="8.275276981294155">
<ele>127.60000000000002</ele>
<time>2023-05-17T13:15:13Z</time>
</trkpt>
<trkpt lat="49.18676197528839" lon="8.275269940495491">
<ele>127.39999999999998</ele>
<time>2023-05-17T13:15:14Z</time>
</trkpt>
<trkpt lat="49.18678795918822" lon="8.275259966030717">
<ele>127.20000000000005</ele>
<time>2023-05-17T13:15:15Z</time>
</trkpt>
<trkpt lat="49.1868029627949" lon="8.27524496242404">
<ele>127.20000000000005</ele>
<time>2023-05-17T13:15:16Z</time>
</trkpt>
<trkpt lat="49.1868029627949" lon="8.275234987959266">
<ele>127</ele>
<time>2023-05-17T13:15:17Z</time>
</trkpt>
<trkpt lat="49.1868029627949" lon="8.275232976302505">
<ele>127</ele>
<time>2023-05-17T13:15:18Z</time>
</trkpt>
<trkpt lat="49.18685493059456" lon="8.275269940495491">
<ele>127</ele>
<time>2023-05-17T13:15:19Z</time>
</trkpt>
<trkpt lat="49.18686792254448" lon="8.27528796158731">
<ele>127</ele>
<time>2023-05-17T13:15:20Z</time>
</trkpt>
<trkpt lat="49.186879992485046" lon="8.275312939658761">
<ele>127</ele>
<time>2023-05-17T13:15:21Z</time>
</trkpt>
<trkpt lat="49.18689499609172" lon="8.275344958528876">
<ele>127</ele>
<time>2023-05-17T13:15:22Z</time>
</trkpt>
<trkpt lat="49.18691192753613" lon="8.275377983227372">
<ele>127</ele>
<time>2023-05-17T13:15:23Z</time>
</trkpt>
<trkpt lat="49.18693196028471" lon="8.275412935763597">
<ele>127</ele>
<time>2023-05-17T13:15:24Z</time>
</trkpt>
<trkpt lat="49.1869549266994" lon="8.275446966290474">
<ele>127</ele>
<time>2023-05-17T13:15:25Z</time>
</trkpt>
<trkpt lat="49.18697797693312" lon="8.27547999098897">
<ele>127</ele>
<time>2023-05-17T13:15:26Z</time>
</trkpt>
<trkpt lat="49.18700295500457" lon="8.275514943525195">
<ele>127</ele>
<time>2023-05-17T13:15:27Z</time>
</trkpt>
<trkpt lat="49.187024999409914" lon="8.275551991537213">
<ele>127</ele>
<time>2023-05-17T13:15:28Z</time>
</trkpt>
<trkpt lat="49.18704695999622" lon="8.27558794990182">
<ele>127</ele>
<time>2023-05-17T13:15:29Z</time>
</trkpt>
<trkpt lat="49.18706498108804" lon="8.275622986257076">
<ele>127</ele>
<time>2023-05-17T13:15:30Z</time>
</trkpt>
<trkpt lat="49.18708493001759" lon="8.275661962106824">
<ele>127</ele>
<time>2023-05-17T13:15:31Z</time>
</trkpt>
<trkpt lat="49.18710295110941" lon="8.275699932128191">
<ele>127</ele>
<time>2023-05-17T13:15:32Z</time>
</trkpt>
<trkpt lat="49.18712499551475" lon="8.27574192546308">
<ele>127</ele>
<time>2023-05-17T13:15:33Z</time>
</trkpt>
<trkpt lat="49.18714695610106" lon="8.275777967646718">
<ele>127</ele>
<time>2023-05-17T13:15:34Z</time>
</trkpt>
<trkpt lat="49.18716296553612" lon="8.275816943496466">
<ele>127</ele>
<time>2023-05-17T13:15:35Z</time>
</trkpt>
<trkpt lat="49.187179980799556" lon="8.275852985680103">
<ele>127</ele>
<time>2023-05-17T13:15:36Z</time>
</trkpt>
<trkpt lat="49.18719791807234" lon="8.275886932387948">
<ele>127</ele>
<time>2023-05-17T13:15:37Z</time>
</trkpt>
<trkpt lat="49.18721694499254" lon="8.275916939601302">
<ele>127</ele>
<time>2023-05-17T13:15:38Z</time>
</trkpt>
<trkpt lat="49.18723496608436" lon="8.275946946814656">
<ele>127</ele>
<time>2023-05-17T13:15:39Z</time>
</trkpt>
<trkpt lat="49.18724996969104" lon="8.275977959856391">
<ele>127</ele>
<time>2023-05-17T13:15:40Z</time>
</trkpt>
<trkpt lat="49.187262961640954" lon="8.276009978726506">
<ele>127</ele>
<time>2023-05-17T13:15:41Z</time>
</trkpt>
<trkpt lat="49.18727494776249" lon="8.276044931262732">
<ele>127</ele>
<time>2023-05-17T13:15:42Z</time>
</trkpt>
<trkpt lat="49.187286933884025" lon="8.276079967617989">
<ele>127</ele>
<time>2023-05-17T13:15:43Z</time>
</trkpt>
<trkpt lat="49.18729992583394" lon="8.276116931810975">
<ele>127</ele>
<time>2023-05-17T13:15:44Z</time>
</trkpt>
<trkpt lat="49.18731794692576" lon="8.276149956509471">
<ele>127</ele>
<time>2023-05-17T13:15:45Z</time>
</trkpt>
<trkpt lat="49.18733797967434" lon="8.276184992864728">
<ele>127</ele>
<time>2023-05-17T13:15:46Z</time>
</trkpt>
<trkpt lat="49.18735792860389" lon="8.276221957057714">
<ele>127</ele>
<time>2023-05-17T13:15:47Z</time>
</trkpt>
<trkpt lat="49.18737997300923" lon="8.276259927079082">
<ele>127</ele>
<time>2023-05-17T13:15:48Z</time>
</trkpt>
<trkpt lat="49.18740193359554" lon="8.276301920413971">
<ele>127.20000000000005</ele>
<time>2023-05-17T13:15:49Z</time>
</trkpt>
<trkpt lat="49.1874229721725" lon="8.276346931234002">
<ele>127.20000000000005</ele>
<time>2023-05-17T13:15:50Z</time>
</trkpt>
<trkpt lat="49.18744493275881" lon="8.276392947882414">
<ele>127.20000000000005</ele>
<time>2023-05-17T13:15:51Z</time>
</trkpt>
<trkpt lat="49.18746798299253" lon="8.276437958702445">
<ele>127.20000000000005</ele>
<time>2023-05-17T13:15:52Z</time>
</trkpt>
<trkpt lat="49.18749296106398" lon="8.276482969522476">
<ele>127.20000000000005</ele>
<time>2023-05-17T13:15:53Z</time>
</trkpt>
<trkpt lat="49.18751693330705" lon="8.276526974514127">
<ele>127.20000000000005</ele>
<time>2023-05-17T13:15:54Z</time>
</trkpt>
<trkpt lat="49.187541995197535" lon="8.276571985334158">
<ele>127.39999999999998</ele>
<time>2023-05-17T13:15:55Z</time>
</trkpt>
<trkpt lat="49.187566973268986" lon="8.276614984497428">
<ele>127.39999999999998</ele>
<time>2023-05-17T13:15:56Z</time>
</trkpt>
<trkpt lat="49.18759195134044" lon="8.276657983660698">
<ele>127.39999999999998</ele>
<time>2023-05-17T13:15:57Z</time>
</trkpt>
<trkpt lat="49.18761793524027" lon="8.27670693397522">
<ele>127.39999999999998</ele>
<time>2023-05-17T13:15:58Z</time>
</trkpt>
<trkpt lat="49.18764693662524" lon="8.276756973937154">
<ele>127.39999999999998</ele>
<time>2023-05-17T13:15:59Z</time>
</trkpt>
<trkpt lat="49.187676943838596" lon="8.276809947565198">
<ele>127.39999999999998</ele>
<time>2023-05-17T13:16:00Z</time>
</trkpt>
<trkpt lat="49.18770695105195" lon="8.276864932850003">
<ele>127.39999999999998</ele>
<time>2023-05-17T13:16:01Z</time>
</trkpt>
<trkpt lat="49.187736958265305" lon="8.276919918134809">
<ele>127.39999999999998</ele>
<time>2023-05-17T13:16:02Z</time>
</trkpt>
<trkpt lat="49.18776696547866" lon="8.276974987238646">
<ele>127.39999999999998</ele>
<time>2023-05-17T13:16:03Z</time>
</trkpt>
<trkpt lat="49.18779797852039" lon="8.27702997252345">
<ele>127.39999999999998</ele>
<time>2023-05-17T13:16:04Z</time>
</trkpt>
<trkpt lat="49.18782999739051" lon="8.277086969465017">
<ele>127.39999999999998</ele>
<time>2023-05-17T13:16:05Z</time>
</trkpt>
<trkpt lat="49.18786193244159" lon="8.277144972234964">
<ele>127.39999999999998</ele>
<time>2023-05-17T13:16:06Z</time>
</trkpt>
<trkpt lat="49.18789495714009" lon="8.27720196917653">
<ele>127.39999999999998</ele>
<time>2023-05-17T13:16:07Z</time>
</trkpt>
<trkpt lat="49.187927981838584" lon="8.277257960289717">
<ele>127.39999999999998</ele>
<time>2023-05-17T13:16:08Z</time>
</trkpt>
<trkpt lat="49.18796192854643" lon="8.277316968888044">
<ele>127.39999999999998</ele>
<time>2023-05-17T13:16:09Z</time>
</trkpt>
<trkpt lat="49.18799193575978" lon="8.277376983314753">
<ele>127.39999999999998</ele>
<time>2023-05-17T13:16:10Z</time>
</trkpt>
<trkpt lat="49.18802294880152" lon="8.27743699774146">
<ele>127.39999999999998</ele>
<time>2023-05-17T13:16:11Z</time>
</trkpt>
<trkpt lat="49.18805496767163" lon="8.277494916692376">
<ele>127.60000000000002</ele>
<time>2023-05-17T13:16:12Z</time>
</trkpt>
<trkpt lat="49.18808698654175" lon="8.277552919462323">
<ele>127.60000000000002</ele>
<time>2023-05-17T13:16:13Z</time>
</trkpt>
<trkpt lat="49.18811799958348" lon="8.27760991640389">
<ele>127.60000000000002</ele>
<time>2023-05-17T13:16:14Z</time>
</trkpt>
<trkpt lat="49.188146917149425" lon="8.277666997164488">
<ele>127.60000000000002</ele>
<time>2023-05-17T13:16:15Z</time>
</trkpt>
<trkpt lat="49.18817692436278" lon="8.277719970792532">
<ele>127.60000000000002</ele>
<time>2023-05-17T13:16:16Z</time>
</trkpt>
<trkpt lat="49.18820491991937" lon="8.277771938592196">
<ele>127.60000000000002</ele>
<time>2023-05-17T13:16:17Z</time>
</trkpt>
<trkpt lat="49.188232999294996" lon="8.27782298438251">
<ele>127.60000000000002</ele>
<time>2023-05-17T13:16:18Z</time>
</trkpt>
<trkpt lat="49.18825998902321" lon="8.277871934697032">
<ele>127.79999999999995</ele>
<time>2023-05-17T13:16:19Z</time>
</trkpt>
<trkpt lat="49.18828697875142" lon="8.277919963002205">
<ele>127.79999999999995</ele>
<time>2023-05-17T13:16:20Z</time>
</trkpt>
<trkpt lat="49.18831195682287" lon="8.277969919145107">
<ele>127.79999999999995</ele>
<time>2023-05-17T13:16:21Z</time>
</trkpt>
<trkpt lat="49.18833492323756" lon="8.2780169416219">
<ele>128</ele>
<time>2023-05-17T13:16:22Z</time>
</trkpt>
<trkpt lat="49.188359985128045" lon="8.27806195244193">
<ele>128</ele>
<time>2023-05-17T13:16:23Z</time>
</trkpt>
<trkpt lat="49.188382951542735" lon="8.2781049516052">
<ele>128</ele>
<time>2023-05-17T13:16:24Z</time>
</trkpt>
<trkpt lat="49.188407929614186" lon="8.27814795076847">
<ele>128</ele>
<time>2023-05-17T13:16:25Z</time>
</trkpt>
<trkpt lat="49.18843198567629" lon="8.278187932446599">
<ele>128</ele>
<time>2023-05-17T13:16:26Z</time>
</trkpt>
<trkpt lat="49.18845294043422" lon="8.278226992115378">
<ele>128</ele>
<time>2023-05-17T13:16:27Z</time>
</trkpt>
<trkpt lat="49.1884729731828" lon="8.278262950479984">
<ele>128</ele>
<time>2023-05-17T13:16:28Z</time>
</trkpt>
<trkpt lat="49.188491916283965" lon="8.2782949693501">
<ele>128</ele>
<time>2023-05-17T13:16:29Z</time>
</trkpt>
<trkpt lat="49.188509937375784" lon="8.278324976563454">
<ele>128</ele>
<time>2023-05-17T13:16:30Z</time>
</trkpt>
<trkpt lat="49.18852695263922" lon="8.278352972120047">
<ele>128</ele>
<time>2023-05-17T13:16:31Z</time>
</trkpt>
<trkpt lat="49.18854296207428" lon="8.278379961848259">
<ele>128</ele>
<time>2023-05-17T13:16:32Z</time>
</trkpt>
<trkpt lat="49.18855997733772" lon="8.278407957404852">
<ele>128</ele>
<time>2023-05-17T13:16:33Z</time>
</trkpt>
<trkpt lat="49.18858193792403" lon="8.278429917991161">
<ele>128</ele>
<time>2023-05-17T13:16:34Z</time>
</trkpt>
<trkpt lat="49.18860297650099" lon="8.27844793908298">
<ele>128</ele>
<time>2023-05-17T13:16:35Z</time>
</trkpt>
<trkpt lat="49.188621919602156" lon="8.278464954346418">
<ele>127.79999999999995</ele>
<time>2023-05-17T13:16:36Z</time>
</trkpt>
<trkpt lat="49.18863692320883" lon="8.278477946296334">
<ele>127.79999999999995</ele>
<time>2023-05-17T13:16:37Z</time>
</trkpt>
<trkpt lat="49.18865192681551" lon="8.27848993241787">
<ele>127.79999999999995</ele>
<time>2023-05-17T13:16:38Z</time>
</trkpt>
<trkpt lat="49.188662990927696" lon="8.278504936024547">
<ele>127.79999999999995</ele>
<time>2023-05-17T13:16:39Z</time>
</trkpt>
<trkpt lat="49.18867195956409" lon="8.278524968773127">
<ele>127.79999999999995</ele>
<time>2023-05-17T13:16:40Z</time>
</trkpt>
<trkpt lat="49.18867296539247" lon="8.278542989864945">
<ele>127.60000000000002</ele>
<time>2023-05-17T13:16:41Z</time>
</trkpt>
<trkpt lat="49.18867497704923" lon="8.27855296432972">
<ele>127.60000000000002</ele>
<time>2023-05-17T13:16:42Z</time>
</trkpt>
<trkpt lat="49.18869794346392" lon="8.27859797514975">
<ele>127.20000000000005</ele>
<time>2023-05-17T13:16:43Z</time>
</trkpt>
<trkpt lat="49.18871495872736" lon="8.278604932129383">
<ele>127.20000000000005</ele>
<time>2023-05-17T13:16:44Z</time>
</trkpt>
<trkpt lat="49.1887319739908" lon="8.278606943786144">
<ele>127.20000000000005</ele>
<time>2023-05-17T13:16:45Z</time>
</trkpt>
<trkpt lat="49.18874999508262" lon="8.278601998463273">
<ele>127.20000000000005</ele>
<time>2023-05-17T13:16:46Z</time>
</trkpt>
<trkpt lat="49.18876298703253" lon="8.278594957664609">
<ele>127.20000000000005</ele>
<time>2023-05-17T13:16:47Z</time>
</trkpt>
<trkpt lat="49.188767932355404" lon="8.278591940179467">
<ele>127.20000000000005</ele>
<time>2023-05-17T13:16:48Z</time>
</trkpt>
<trkpt lat="49.188767932355404" lon="8.278592946007848">
<ele>127.20000000000005</ele>
<time>2023-05-17T13:16:50Z</time>
</trkpt>
<trkpt lat="49.18881797231734" lon="8.278644997626543">
<ele>126.60000000000002</ele>
<time>2023-05-17T13:16:52Z</time>
</trkpt>
<trkpt lat="49.18884194456041" lon="8.27866293489933">
<ele>126.60000000000002</ele>
<time>2023-05-17T13:16:53Z</time>
</trkpt>
<trkpt lat="49.18886792846024" lon="8.27868196181953">
<ele>126.60000000000002</ele>
<time>2023-05-17T13:16:54Z</time>
</trkpt>
<trkpt lat="49.188896929845214" lon="8.278696965426207">
<ele>126.60000000000002</ele>
<time>2023-05-17T13:16:55Z</time>
</trkpt>
<trkpt lat="49.18892794288695" lon="8.278711969032884">
<ele>126.60000000000002</ele>
<time>2023-05-17T13:16:56Z</time>
</trkpt>
<trkpt lat="49.188961973413825" lon="8.278721943497658">
<ele>126.60000000000002</ele>
<time>2023-05-17T13:16:57Z</time>
</trkpt>
<trkpt lat="49.18899499811232" lon="8.278736947104335">
<ele>126.60000000000002</ele>
<time>2023-05-17T13:16:58Z</time>
</trkpt>
<trkpt lat="49.189022993668914" lon="8.278751950711012">
<ele>126.60000000000002</ele>
<time>2023-05-17T13:16:59Z</time>
</trkpt>
<trkpt lat="49.18905199505389" lon="8.278764942660928">
<ele>126.60000000000002</ele>
<time>2023-05-17T13:17:00Z</time>
</trkpt>
<trkpt lat="49.18908292427659" lon="8.278779946267605">
<ele>126.60000000000002</ele>
<time>2023-05-17T13:17:01Z</time>
</trkpt>
<trkpt lat="49.18911695480347" lon="8.278799979016185">
<ele>126.60000000000002</ele>
<time>2023-05-17T13:17:02Z</time>
</trkpt>
<trkpt lat="49.18914997950196" lon="8.278819927945733">
<ele>126.60000000000002</ele>
<time>2023-05-17T13:17:03Z</time>
</trkpt>
<trkpt lat="49.18918694369495" lon="8.278839960694313">
<ele>126.39999999999998</ele>
<time>2023-05-17T13:17:04Z</time>
</trkpt>
<trkpt lat="49.18921493925154" lon="8.27885496430099">
<ele>126.39999999999998</ele>
<time>2023-05-17T13:17:05Z</time>
</trkpt>
<trkpt lat="49.18924796395004" lon="8.278869967907667">
<ele>126.20000000000005</ele>
<time>2023-05-17T13:17:06Z</time>
</trkpt>
<trkpt lat="49.189287945628166" lon="8.278884971514344">
<ele>126.20000000000005</ele>
<time>2023-05-17T13:17:07Z</time>
</trkpt>
<trkpt lat="49.18933496810496" lon="8.278899975121021">
<ele>126</ele>
<time>2023-05-17T13:17:08Z</time>
</trkpt>
<trkpt lat="49.18937696143985" lon="8.278912967070937">
<ele>125.79999999999995</ele>
<time>2023-05-17T13:17:09Z</time>
</trkpt>
<trkpt lat="49.18941996060312" lon="8.278929982334375">
<ele>125.60000000000002</ele>
<time>2023-05-17T13:17:10Z</time>
</trkpt>
<trkpt lat="49.18946497142315" lon="8.278944985941052">
<ele>125.39999999999998</ele>
<time>2023-05-17T13:17:11Z</time>
</trkpt>
<trkpt lat="49.18950696475804" lon="8.27895998954773">
<ele>125.20000000000005</ele>
<time>2023-05-17T13:17:12Z</time>
</trkpt>
<trkpt lat="49.18954795226455" lon="8.278979938477278">
<ele>125</ele>
<time>2023-05-17T13:17:13Z</time>
</trkpt>
<trkpt lat="49.189587933942676" lon="8.279001982882619">
<ele>125</ele>
<time>2023-05-17T13:17:14Z</time>
</trkpt>
<trkpt lat="49.189626993611455" lon="8.279019920155406">
<ele>124.79999999999995</ele>
<time>2023-05-17T13:17:15Z</time>
</trkpt>
<trkpt lat="49.18966295197606" lon="8.279037941247225">
<ele>124.60000000000002</ele>
<time>2023-05-17T13:17:16Z</time>
</trkpt>
<trkpt lat="49.18969798833132" lon="8.279062919318676">
<ele>124.39999999999998</ele>
<time>2023-05-17T13:17:17Z</time>
</trkpt>
<trkpt lat="49.189736964181066" lon="8.279087981209159">
<ele>124.39999999999998</ele>
<time>2023-05-17T13:17:18Z</time>
</trkpt>
<trkpt lat="49.189776945859194" lon="8.279107930138707">
<ele>124.39999999999998</ele>
<time>2023-05-17T13:17:19Z</time>
</trkpt>
<trkpt lat="49.18981692753732" lon="8.279127962887287">
<ele>124.20000000000005</ele>
<time>2023-05-17T13:17:20Z</time>
</trkpt>
<trkpt lat="49.18985699303448" lon="8.279146989807487">
<ele>124</ele>
<time>2023-05-17T13:17:21Z</time>
</trkpt>
<trkpt lat="49.18989798054099" lon="8.279161993414164">
<ele>124</ele>
<time>2023-05-17T13:17:22Z</time>
</trkpt>
<trkpt lat="49.18993997387588" lon="8.27917791903019">
<ele>124</ele>
<time>2023-05-17T13:17:23Z</time>
</trkpt>
<trkpt lat="49.18998196721077" lon="8.279192922636867">
<ele>123.79999999999995</ele>
<time>2023-05-17T13:17:24Z</time>
</trkpt>
<trkpt lat="49.1900269780308" lon="8.279209937900305">
<ele>123.79999999999995</ele>
<time>2023-05-17T13:17:25Z</time>
</trkpt>
<trkpt lat="49.19007198885083" lon="8.279229970648885">
<ele>123.79999999999995</ele>
<time>2023-05-17T13:17:26Z</time>
</trkpt>
<trkpt lat="49.190121944993734" lon="8.279251931235194">
<ele>123.79999999999995</ele>
<time>2023-05-17T13:17:27Z</time>
</trkpt>
<trkpt lat="49.19016997329891" lon="8.279269952327013">
<ele>123.79999999999995</ele>
<time>2023-05-17T13:17:28Z</time>
</trkpt>
<trkpt lat="49.19022194109857" lon="8.279287973418832">
<ele>123.60000000000002</ele>
<time>2023-05-17T13:17:29Z</time>
</trkpt>
<trkpt lat="49.19026795774698" lon="8.279301971197128">
<ele>123.60000000000002</ele>
<time>2023-05-17T13:17:30Z</time>
</trkpt>
<trkpt lat="49.190316991880536" lon="8.279312951490283">
<ele>123.60000000000002</ele>
<time>2023-05-17T13:17:31Z</time>
</trkpt>
<trkpt lat="49.19036493636668" lon="8.27932795509696">
<ele>123.60000000000002</ele>
<time>2023-05-17T13:17:32Z</time>
</trkpt>
<trkpt lat="49.19040793552995" lon="8.279341952875257">
<ele>123.39999999999998</ele>
<time>2023-05-17T13:17:33Z</time>
</trkpt>
<trkpt lat="49.19045797549188" lon="8.279359973967075">
<ele>123.39999999999998</ele>
<time>2023-05-17T13:17:34Z</time>
</trkpt>
<trkpt lat="49.1905069258064" lon="8.279377995058894">
<ele>123.20000000000005</ele>
<time>2023-05-17T13:17:35Z</time>
</trkpt>
<trkpt lat="49.190554954111576" lon="8.279392998665571">
<ele>123.20000000000005</ele>
<time>2023-05-17T13:17:36Z</time>
</trkpt>
<trkpt lat="49.19059996493161" lon="8.279409930109978">
<ele>123</ele>
<time>2023-05-17T13:17:37Z</time>
</trkpt>
<trkpt lat="49.1906469874084" lon="8.279424933716655">
<ele>123</ele>
<time>2023-05-17T13:17:38Z</time>
</trkpt>
<trkpt lat="49.19069493189454" lon="8.27943691983819">
<ele>122.79999999999995</ele>
<time>2023-05-17T13:17:39Z</time>
</trkpt>
<trkpt lat="49.19074195437133" lon="8.279442954808474">
<ele>122.79999999999995</ele>
<time>2023-05-17T13:17:40Z</time>
</trkpt>
<trkpt lat="49.190787971019745" lon="8.279451923444867">
<ele>122.79999999999995</ele>
<time>2023-05-17T13:17:41Z</time>
</trkpt>
<trkpt lat="49.19083692133427" lon="8.279464999213815">
<ele>122.79999999999995</ele>
<time>2023-05-17T13:17:42Z</time>
</trkpt>
<trkpt lat="49.1908819321543" lon="8.279486959800124">
<ele>122.79999999999995</ele>
<time>2023-05-17T13:17:43Z</time>
</trkpt>
<trkpt lat="49.190916968509555" lon="8.279504980891943">
<ele>122.79999999999995</ele>
<time>2023-05-17T13:17:44Z</time>
</trkpt>
<trkpt lat="49.19094496406615" lon="8.279521996155381">
<ele>122.60000000000002</ele>
<time>2023-05-17T13:17:45Z</time>
</trkpt>
<trkpt lat="49.19097195379436" lon="8.279539933428168">
<ele>122.60000000000002</ele>
<time>2023-05-17T13:17:46Z</time>
</trkpt>
<trkpt lat="49.19099198654294" lon="8.279556948691607">
<ele>122.79999999999995</ele>
<time>2023-05-17T13:17:47Z</time>
</trkpt>
<trkpt lat="49.19101495295763" lon="8.279569940641522">
<ele>122.79999999999995</ele>
<time>2023-05-17T13:17:48Z</time>
</trkpt>
<trkpt lat="49.19103791937232" lon="8.279587961733341">
<ele>122.79999999999995</ele>
<time>2023-05-17T13:17:49Z</time>
</trkpt>
<trkpt lat="49.1910579521209" lon="8.27960497699678">
<ele>122.79999999999995</ele>
<time>2023-05-17T13:17:50Z</time>
</trkpt>
<trkpt lat="49.1910769790411" lon="8.279617968946695">
<ele>122.79999999999995</ele>
<time>2023-05-17T13:17:51Z</time>
</trkpt>
<trkpt lat="49.19109298847616" lon="8.27962995506823">
<ele>122.79999999999995</ele>
<time>2023-05-17T13:17:52Z</time>
</trkpt>
<trkpt lat="49.191109919920564" lon="8.279632972553372">
<ele>122.79999999999995</ele>
<time>2023-05-17T13:17:53Z</time>
</trkpt>
<trkpt lat="49.19112299568951" lon="8.279632972553372">
<ele>122.79999999999995</ele>
<time>2023-05-17T13:17:54Z</time>
</trkpt>
<trkpt lat="49.19113699346781" lon="8.279626937583089">
<ele>122.79999999999995</ele>
<time>2023-05-17T13:17:55Z</time>
</trkpt>
<trkpt lat="49.19114797376096" lon="8.279621992260218">
<ele>122.79999999999995</ele>
<time>2023-05-17T13:17:56Z</time>
</trkpt>
<trkpt lat="49.19116197153926" lon="8.279616963118315">
<ele>122.79999999999995</ele>
<time>2023-05-17T13:17:57Z</time>
</trkpt>
<trkpt lat="49.19117798097432" lon="8.279607994481921">
<ele>122.79999999999995</ele>
<time>2023-05-17T13:17:58Z</time>
</trkpt>
<trkpt lat="49.191194996237755" lon="8.279597936198115">
<ele>122.79999999999995</ele>
<time>2023-05-17T13:17:59Z</time>
</trkpt>
<trkpt lat="49.19121293351054" lon="8.279581926763058">
<ele>122.79999999999995</ele>
<time>2023-05-17T13:18:00Z</time>
</trkpt>
<trkpt lat="49.19122693128884" lon="8.279564995318651">
<ele>122.79999999999995</ele>
<time>2023-05-17T13:18:01Z</time>
</trkpt>
<trkpt lat="49.191239923238754" lon="8.279544962570071">
<ele>122.79999999999995</ele>
<time>2023-05-17T13:18:02Z</time>
</trkpt>
<trkpt lat="49.19124696403742" lon="8.279531970620155">
<ele>122.79999999999995</ele>
<time>2023-05-17T13:18:03Z</time>
</trkpt>
<trkpt lat="49.1912529990077" lon="8.279514955356717">
<ele>122.79999999999995</ele>
<time>2023-05-17T13:18:04Z</time>
</trkpt>
<trkpt lat="49.19125492684543" lon="8.279511937871575">
<ele>122.79999999999995</ele>
<time>2023-05-17T13:18:05Z</time>
</trkpt>
<trkpt lat="49.191262973472476" lon="8.279496934264898">
<ele>122.79999999999995</ele>
<time>2023-05-17T13:18:06Z</time>
</trkpt>
<trkpt lat="49.19126993045211" lon="8.279474973678589">
<ele>122.79999999999995</ele>
<time>2023-05-17T13:18:07Z</time>
</trkpt>
<trkpt lat="49.191266996786" lon="8.279452929273248">
<ele>123</ele>
<time>2023-05-17T13:18:08Z</time>
</trkpt>
<trkpt lat="49.19127294793725" lon="8.2794329803437">
<ele>123</ele>
<time>2023-05-17T13:18:09Z</time>
</trkpt>
<trkpt lat="49.191282922402024" lon="8.279411941766739">
<ele>123</ele>
<time>2023-05-17T13:18:10Z</time>
</trkpt>
<trkpt lat="49.19128694571555" lon="8.279397943988442">
<ele>123</ele>
<time>2023-05-17T13:18:11Z</time>
</trkpt>
<trkpt lat="49.19128795154393" lon="8.279397943988442">
<ele>123</ele>
<time>2023-05-17T13:18:12Z</time>
</trkpt>
<trkpt lat="49.19128694571555" lon="8.279397943988442">
<ele>123</ele>
<time>2023-05-17T13:18:13Z</time>
</trkpt>
<trkpt lat="49.19128795154393" lon="8.279396938160062">
<ele>123</ele>
<time>2023-05-17T13:18:14Z</time>
</trkpt>
<trkpt lat="49.19135198928416" lon="8.279426945373416">
<ele>125</ele>
<time>2023-05-17T13:18:15Z</time>
</trkpt>
<trkpt lat="49.1913499776274" lon="8.27943499200046">
<ele>125</ele>
<time>2023-05-17T13:18:16Z</time>
</trkpt>
<trkpt lat="49.191347965970635" lon="8.279444966465235">
<ele>125</ele>
<time>2023-05-17T13:18:17Z</time>
</trkpt>
<trkpt lat="49.191346960142255" lon="8.279451923444867">
<ele>125</ele>
<time>2023-05-17T13:18:18Z</time>
</trkpt>
<trkpt lat="49.19134193100035" lon="8.279452929273248">
<ele>125</ele>
<time>2023-05-17T13:18:19Z</time>
</trkpt>
<trkpt lat="49.1913169529289" lon="8.27947698533535">
<ele>125</ele>
<time>2023-05-17T13:18:19Z</time>
</trkpt>
<trkpt lat="49.1912979260087" lon="8.27947991900146">
<ele>125</ele>
<time>2023-05-17T13:18:20Z</time>
</trkpt>
<trkpt lat="49.19128996320069" lon="8.279487965628505">
<ele>125</ele>
<time>2023-05-17T13:18:21Z</time>
</trkpt>
<trkpt lat="49.19128694571555" lon="8.279502969235182">
<ele>125</ele>
<time>2023-05-17T13:18:22Z</time>
</trkpt>
<trkpt lat="49.19128996320069" lon="8.279517972841859">
<ele>125</ele>
<time>2023-05-17T13:18:23Z</time>
</trkpt>
<trkpt lat="49.1912979260087" lon="8.279521996155381">
<ele>125</ele>
<time>2023-05-17T13:18:24Z</time>
</trkpt>
<trkpt lat="49.191301949322224" lon="8.279526941478252">
<ele>125</ele>
<time>2023-05-17T13:18:25Z</time>
</trkpt>
<trkpt lat="49.191301949322224" lon="8.279527947306633">
<ele>125</ele>
<time>2023-05-17T13:18:26Z</time>
</trkpt>
<trkpt lat="49.191301949322224" lon="8.279526941478252">
<ele>125</ele>
<time>2023-05-17T13:18:27Z</time>
</trkpt>
<trkpt lat="49.19127194210887" lon="8.279527947306633">
<ele>124.60000000000002</ele>
<time>2023-05-17T13:18:28Z</time>
</trkpt>
<trkpt lat="49.191266996786" lon="8.279551919549704">
<ele>124.60000000000002</ele>
<time>2023-05-17T13:18:29Z</time>
</trkpt>
<trkpt lat="49.19127194210887" lon="8.279572958126664">
<ele>124.60000000000002</ele>
<time>2023-05-17T13:18:30Z</time>
</trkpt>
<trkpt lat="49.191279988735914" lon="8.279597936198115">
<ele>124.60000000000002</ele>
<time>2023-05-17T13:18:31Z</time>
</trkpt>
<trkpt lat="49.19129298068583" lon="8.279619980603456">
<ele>124.60000000000002</ele>
<time>2023-05-17T13:18:32Z</time>
</trkpt>
<trkpt lat="49.191304966807365" lon="8.279634984210134">
<ele>124.60000000000002</ele>
<time>2023-05-17T13:18:33Z</time>
</trkpt>
<trkpt lat="49.19131997041404" lon="8.27964797616005">
<ele>124.60000000000002</ele>
<time>2023-05-17T13:18:34Z</time>
</trkpt>
<trkpt lat="49.191346960142255" lon="8.279661973938346">
<ele>124.60000000000002</ele>
<time>2023-05-17T13:18:35Z</time>
</trkpt>
<trkpt lat="49.191369926556945" lon="8.279667925089598">
<ele>124.60000000000002</ele>
<time>2023-05-17T13:18:36Z</time>
</trkpt>
<trkpt lat="49.19140194542706" lon="8.279679995030165">
<ele>124.60000000000002</ele>
<time>2023-05-17T13:18:37Z</time>
</trkpt>
<trkpt lat="49.19143698178232" lon="8.27969298698008">
<ele>124.60000000000002</ele>
<time>2023-05-17T13:18:38Z</time>
</trkpt>
<trkpt lat="49.19146195985377" lon="8.279701955616474">
<ele>124.60000000000002</ele>
<time>2023-05-17T13:18:39Z</time>
</trkpt>
<trkpt lat="49.191496996209025" lon="8.279707990586758">
<ele>124.60000000000002</ele>
<time>2023-05-17T13:18:40Z</time>
</trkpt>
<trkpt lat="49.19152993708849" lon="8.279716959223151">
<ele>124.60000000000002</ele>
<time>2023-05-17T13:18:41Z</time>
</trkpt>
<trkpt lat="49.191559944301844" lon="8.279724922031164">
<ele>124.60000000000002</ele>
<time>2023-05-17T13:18:42Z</time>
</trkpt>
<trkpt lat="49.19158793985844" lon="8.279729951173067">
<ele>124.60000000000002</ele>
<time>2023-05-17T13:18:43Z</time>
</trkpt>
<trkpt lat="49.19161995872855" lon="8.279732968658209">
<ele>124.60000000000002</ele>
<time>2023-05-17T13:18:44Z</time>
</trkpt>
<trkpt lat="49.19165197759867" lon="8.279739925637841">
<ele>124.60000000000002</ele>
<time>2023-05-17T13:18:45Z</time>
</trkpt>
<trkpt lat="49.19168693013489" lon="8.279749983921647">
<ele>124.60000000000002</ele>
<time>2023-05-17T13:18:46Z</time>
</trkpt>
<trkpt lat="49.19172196649015" lon="8.27975694090128">
<ele>124.60000000000002</ele>
<time>2023-05-17T13:18:47Z</time>
</trkpt>
<trkpt lat="49.191756919026375" lon="8.279774961993098">
<ele>124.60000000000002</ele>
<time>2023-05-17T13:18:48Z</time>
</trkpt>
<trkpt lat="49.19178692623973" lon="8.279787953943014">
<ele>124.60000000000002</ele>
<time>2023-05-17T13:18:49Z</time>
</trkpt>
<trkpt lat="49.19181693345308" lon="8.27979994006455">
<ele>124.60000000000002</ele>
<time>2023-05-17T13:18:50Z</time>
</trkpt>
<trkpt lat="49.19185498729348" lon="8.279812932014465">
<ele>124.39999999999998</ele>
<time>2023-05-17T13:18:51Z</time>
</trkpt>
<trkpt lat="49.19189295731485" lon="8.279822990298271">
<ele>124.39999999999998</ele>
<time>2023-05-17T13:18:52Z</time>
</trkpt>
<trkpt lat="49.191927993670106" lon="8.279831958934665">
<ele>124.20000000000005</ele>
<time>2023-05-17T13:18:53Z</time>
</trkpt>
<trkpt lat="49.191967975348234" lon="8.279837993904948">
<ele>124.20000000000005</ele>
<time>2023-05-17T13:18:54Z</time>
</trkpt>
<trkpt lat="49.19199798256159" lon="8.279846962541342">
<ele>124</ele>
<time>2023-05-17T13:18:55Z</time>
</trkpt>
<trkpt lat="49.19202991761267" lon="8.279854925349355">
<ele>124</ele>
<time>2023-05-17T13:18:56Z</time>
</trkpt>
<trkpt lat="49.192059924826026" lon="8.279861966148019">
<ele>123.79999999999995</ele>
<time>2023-05-17T13:18:57Z</time>
</trkpt>
<trkpt lat="49.19208993203938" lon="8.27986791729927">
<ele>123.79999999999995</ele>
<time>2023-05-17T13:18:58Z</time>
</trkpt>
<trkpt lat="49.192119939252734" lon="8.279876969754696">
<ele>123.79999999999995</ele>
<time>2023-05-17T13:18:59Z</time>
</trkpt>
<trkpt lat="49.19215296395123" lon="8.279889961704612">
<ele>123.60000000000002</ele>
<time>2023-05-17T13:19:00Z</time>
</trkpt>
<trkpt lat="49.192187916487455" lon="8.279901947826147">
<ele>123.60000000000002</ele>
<time>2023-05-17T13:19:01Z</time>
</trkpt>
<trkpt lat="49.19222194701433" lon="8.27990798279643">
<ele>123.60000000000002</ele>
<time>2023-05-17T13:19:02Z</time>
</trkpt>
<trkpt lat="49.19225497171283" lon="8.279911922290921">
<ele>123.60000000000002</ele>
<time>2023-05-17T13:19:03Z</time>
</trkpt>
<trkpt lat="49.19228799641132" lon="8.279914939776063">
<ele>123.60000000000002</ele>
<time>2023-05-17T13:19:04Z</time>
</trkpt>
<trkpt lat="49.19232194311917" lon="8.279916951432824">
<ele>123.60000000000002</ele>
<time>2023-05-17T13:19:05Z</time>
</trkpt>
<trkpt lat="49.192354967817664" lon="8.279916951432824">
<ele>123.39999999999998</ele>
<time>2023-05-17T13:19:06Z</time>
</trkpt>
<trkpt lat="49.19238799251616" lon="8.279912928119302">
<ele>123.39999999999998</ele>
<time>2023-05-17T13:19:07Z</time>
</trkpt>
<trkpt lat="49.19242495670915" lon="8.279902953654528">
<ele>123.39999999999998</ele>
<time>2023-05-17T13:19:08Z</time>
</trkpt>
<trkpt lat="49.19246192090213" lon="8.27988795004785">
<ele>123.39999999999998</ele>
<time>2023-05-17T13:19:09Z</time>
</trkpt>
<trkpt lat="49.19249796308577" lon="8.279871940612793">
<ele>123.39999999999998</ele>
<time>2023-05-17T13:19:10Z</time>
</trkpt>
<trkpt lat="49.19253492727876" lon="8.279854925349355">
<ele>123.39999999999998</ele>
<time>2023-05-17T13:19:11Z</time>
</trkpt>
<trkpt lat="49.192571975290775" lon="8.279837993904948">
<ele>123.39999999999998</ele>
<time>2023-05-17T13:19:12Z</time>
</trkpt>
<trkpt lat="49.19260793365538" lon="8.279814943671227">
<ele>123.39999999999998</ele>
<time>2023-05-17T13:19:13Z</time>
</trkpt>
<trkpt lat="49.192632995545864" lon="8.279772950336337">
<ele>123.39999999999998</ele>
<time>2023-05-17T13:19:14Z</time>
</trkpt>
<trkpt lat="49.19267197139561" lon="8.279744954779744">
<ele>123.39999999999998</ele>
<time>2023-05-17T13:19:15Z</time>
</trkpt>
<trkpt lat="49.19270994141698" lon="8.279721988365054">
<ele>123.20000000000005</ele>
<time>2023-05-17T13:19:16Z</time>
</trkpt>
<trkpt lat="49.192746989429" lon="8.279699943959713">
<ele>123.20000000000005</ele>
<time>2023-05-17T13:19:17Z</time>
</trkpt>
<trkpt lat="49.19277993030846" lon="8.279666919261217">
<ele>123.20000000000005</ele>
<time>2023-05-17T13:19:18Z</time>
</trkpt>
<trkpt lat="49.19281798414886" lon="8.279641941189766">
<ele>123.20000000000005</ele>
<time>2023-05-17T13:19:19Z</time>
</trkpt>
<trkpt lat="49.19285494834185" lon="8.279612939804792">
<ele>123.20000000000005</ele>
<time>2023-05-17T13:19:20Z</time>
</trkpt>
<trkpt lat="49.192894930019975" lon="8.279591985046864">
<ele>123.20000000000005</ele>
<time>2023-05-17T13:19:21Z</time>
</trkpt>
<trkpt lat="49.19293298386037" lon="8.279569940641522">
<ele>123.20000000000005</ele>
<time>2023-05-17T13:19:22Z</time>
</trkpt>
<trkpt lat="49.19297195971012" lon="8.279544962570071">
<ele>123.20000000000005</ele>
<time>2023-05-17T13:19:23Z</time>
</trkpt>
<trkpt lat="49.19301294721663" lon="8.279521996155381">
<ele>123.20000000000005</ele>
<time>2023-05-17T13:19:24Z</time>
</trkpt>
<trkpt lat="49.19305695220828" lon="8.27949995175004">
<ele>123.20000000000005</ele>
<time>2023-05-17T13:19:25Z</time>
</trkpt>
<trkpt lat="49.19310498051345" lon="8.279481930658221">
<ele>123.39999999999998</ele>
<time>2023-05-17T13:19:26Z</time>
</trkpt>
<trkpt lat="49.193154936656356" lon="8.279472962021828">
<ele>123.39999999999998</ele>
<time>2023-05-17T13:19:27Z</time>
</trkpt>
<trkpt lat="49.19320296496153" lon="8.279469944536686">
<ele>123.39999999999998</ele>
<time>2023-05-17T13:19:28Z</time>
</trkpt>
<trkpt lat="49.19325292110443" lon="8.279469944536686">
<ele>123.39999999999998</ele>
<time>2023-05-17T13:19:29Z</time>
</trkpt>
<trkpt lat="49.19329994358122" lon="8.279466927051544">
<ele>123.39999999999998</ele>
<time>2023-05-17T13:19:30Z</time>
</trkpt>
<trkpt lat="49.193346966058016" lon="8.279461981728673">
<ele>123.39999999999998</ele>
<time>2023-05-17T13:19:31Z</time>
</trkpt>
<trkpt lat="49.1933979280293" lon="8.279452929273248">
<ele>123.39999999999998</ele>
<time>2023-05-17T13:19:32Z</time>
</trkpt>
<trkpt lat="49.19344696216285" lon="8.279441948980093">
<ele>123.60000000000002</ele>
<time>2023-05-17T13:19:33Z</time>
</trkpt>
<trkpt lat="49.19348996132612" lon="8.279431974515319">
<ele>123.60000000000002</ele>
<time>2023-05-17T13:19:34Z</time>
</trkpt>
<trkpt lat="49.19353296048939" lon="8.279417976737022">
<ele>123.60000000000002</ele>
<time>2023-05-17T13:19:35Z</time>
</trkpt>
<trkpt lat="49.19357696548104" lon="8.279401967301965">
<ele>123.60000000000002</ele>
<time>2023-05-17T13:19:36Z</time>
</trkpt>
<trkpt lat="49.19363195076585" lon="8.279387969523668">
<ele>123.60000000000002</ele>
<time>2023-05-17T13:19:37Z</time>
</trkpt>
<trkpt lat="49.19368199072778" lon="8.279377995058894">
<ele>123.60000000000002</ele>
<time>2023-05-17T13:19:38Z</time>
</trkpt>
<trkpt lat="49.19372993521392" lon="8.27936994843185">
<ele>123.60000000000002</ele>
<time>2023-05-17T13:19:39Z</time>
</trkpt>
<trkpt lat="49.193774946033955" lon="8.279366930946708">
<ele>123.60000000000002</ele>
<time>2023-05-17T13:19:40Z</time>
</trkpt>
<trkpt lat="49.19382196851075" lon="8.279372965916991">
<ele>123.60000000000002</ele>
<time>2023-05-17T13:19:41Z</time>
</trkpt>
<trkpt lat="49.19387293048203" lon="8.279386963695288">
<ele>123.79999999999995</ele>
<time>2023-05-17T13:19:42Z</time>
</trkpt>
<trkpt lat="49.19391794130206" lon="8.279396938160062">
<ele>123.79999999999995</ele>
<time>2023-05-17T13:19:43Z</time>
</trkpt>
<trkpt lat="49.19395993463695" lon="8.279401967301965">
<ele>123.79999999999995</ele>
<time>2023-05-17T13:19:44Z</time>
</trkpt>
<trkpt lat="49.19400494545698" lon="8.279399955645204">
<ele>124</ele>
<time>2023-05-17T13:19:45Z</time>
</trkpt>
<trkpt lat="49.19404995627701" lon="8.2793949265033">
<ele>124</ele>
<time>2023-05-17T13:19:46Z</time>
</trkpt>
<trkpt lat="49.194096978753805" lon="8.2793949265033">
<ele>124.20000000000005</ele>
<time>2023-05-17T13:19:47Z</time>
</trkpt>
<trkpt lat="49.19413696043193" lon="8.2793949265033">
<ele>124.20000000000005</ele>
<time>2023-05-17T13:19:48Z</time>
</trkpt>
<trkpt lat="49.1941799595952" lon="8.27939199283719">
<ele>124.20000000000005</ele>
<time>2023-05-17T13:19:49Z</time>
</trkpt>
<trkpt lat="49.19421792961657" lon="8.279382940381765">
<ele>124.20000000000005</ele>
<time>2023-05-17T13:19:50Z</time>
</trkpt>
<trkpt lat="49.19425698928535" lon="8.279374977573752">
<ele>124.20000000000005</ele>
<time>2023-05-17T13:19:51Z</time>
</trkpt>
<trkpt lat="49.19429495930672" lon="8.279367936775088">
<ele>124.39999999999998</ele>
<time>2023-05-17T13:19:52Z</time>
</trkpt>
<trkpt lat="49.194334940984845" lon="8.279359973967075">
<ele>124.39999999999998</ele>
<time>2023-05-17T13:19:53Z</time>
</trkpt>
<trkpt lat="49.19437492266297" lon="8.27935192734003">
<ele>124.39999999999998</ele>
<time>2023-05-17T13:19:54Z</time>
</trkpt>
<trkpt lat="49.194419933483005" lon="8.279342958703637">
<ele>124.39999999999998</ele>
<time>2023-05-17T13:19:55Z</time>
</trkpt>
<trkpt lat="49.19446796178818" lon="8.279337929561734">
<ele>124.60000000000002</ele>
<time>2023-05-17T13:19:56Z</time>
</trkpt>
<trkpt lat="49.19451498426497" lon="8.27932795509696">
<ele>124.60000000000002</ele>
<time>2023-05-17T13:19:57Z</time>
</trkpt>
<trkpt lat="49.19455295428634" lon="8.279309934005141">
<ele>124.60000000000002</ele>
<time>2023-05-17T13:19:58Z</time>
</trkpt>
<trkpt lat="49.194594947621226" lon="8.279287973418832">
<ele>124.60000000000002</ele>
<time>2023-05-17T13:19:59Z</time>
</trkpt>
<trkpt lat="49.19463291764259" lon="8.279257966205478">
<ele>124.79999999999995</ele>
<time>2023-05-17T13:20:00Z</time>
</trkpt>
<trkpt lat="49.19466996565461" lon="8.27921999618411">
<ele>124.79999999999995</ele>
<time>2023-05-17T13:20:01Z</time>
</trkpt>
<trkpt lat="49.19470299035311" lon="8.279181942343712">
<ele>124.79999999999995</ele>
<time>2023-05-17T13:20:02Z</time>
</trkpt>
<trkpt lat="49.19473794288933" lon="8.279141960665584">
<ele>124.79999999999995</ele>
<time>2023-05-17T13:20:03Z</time>
</trkpt>
<trkpt lat="49.19477197341621" lon="8.279102984815836">
<ele>124.79999999999995</ele>
<time>2023-05-17T13:20:04Z</time>
</trkpt>
<trkpt lat="49.194806925952435" lon="8.279064930975437">
<ele>124.79999999999995</ele>
<time>2023-05-17T13:20:05Z</time>
</trkpt>
<trkpt lat="49.19484296813607" lon="8.279024949297309">
<ele>125</ele>
<time>2023-05-17T13:20:06Z</time>
</trkpt>
<trkpt lat="49.19488194398582" lon="8.27898496761918">
<ele>125</ele>
<time>2023-05-17T13:20:07Z</time>
</trkpt>
<trkpt lat="49.194912957027555" lon="8.27893995679915">
<ele>125</ele>
<time>2023-05-17T13:20:08Z</time>
</trkpt>
<trkpt lat="49.19494497589767" lon="8.278892934322357">
<ele>125</ele>
<time>2023-05-17T13:20:09Z</time>
</trkpt>
<trkpt lat="49.194974983111024" lon="8.278842978179455">
<ele>125</ele>
<time>2023-05-17T13:20:10Z</time>
</trkpt>
<trkpt lat="49.19500792399049" lon="8.278794949874282">
<ele>125.20000000000005</ele>
<time>2023-05-17T13:20:11Z</time>
</trkpt>
<trkpt lat="49.195041954517365" lon="8.27874499373138">
<ele>125.20000000000005</ele>
<time>2023-05-17T13:20:12Z</time>
</trkpt>
<trkpt lat="49.1950729675591" lon="8.278694953769445">
<ele>125.20000000000005</ele>
<time>2023-05-17T13:20:13Z</time>
</trkpt>
<trkpt lat="49.19510196894407" lon="8.278641980141401">
<ele>125.20000000000005</ele>
<time>2023-05-17T13:20:14Z</time>
</trkpt>
<trkpt lat="49.19513298198581" lon="8.278589928522706">
<ele>125.39999999999998</ele>
<time>2023-05-17T13:20:15Z</time>
</trkpt>
<trkpt lat="49.19516198337078" lon="8.278541984036565">
<ele>125.39999999999998</ele>
<time>2023-05-17T13:20:16Z</time>
</trkpt>
<trkpt lat="49.195192996412516" lon="8.278497979044914">
<ele>125.39999999999998</ele>
<time>2023-05-17T13:20:17Z</time>
</trkpt>
<trkpt lat="49.1952249314636" lon="8.278451962396502">
<ele>125.39999999999998</ele>
<time>2023-05-17T13:20:18Z</time>
</trkpt>
<trkpt lat="49.195257956162095" lon="8.27840493991971">
<ele>125.60000000000002</ele>
<time>2023-05-17T13:20:19Z</time>
</trkpt>
<trkpt lat="49.19528997503221" lon="8.278359929099679">
<ele>125.60000000000002</ele>
<time>2023-05-17T13:20:20Z</time>
</trkpt>
<trkpt lat="49.195322999730706" lon="8.278314918279648">
<ele>125.60000000000002</ele>
<time>2023-05-17T13:20:21Z</time>
</trkpt>
<trkpt lat="49.19535292312503" lon="8.278272924944758">
<ele>125.60000000000002</ele>
<time>2023-05-17T13:20:22Z</time>
</trkpt>
<trkpt lat="49.195387959480286" lon="8.278236966580153">
<ele>125.60000000000002</ele>
<time>2023-05-17T13:20:23Z</time>
</trkpt>
<trkpt lat="49.1954199783504" lon="8.278191955760121">
<ele>125.60000000000002</ele>
<time>2023-05-17T13:20:24Z</time>
</trkpt>
<trkpt lat="49.195451997220516" lon="8.27814694494009">
<ele>125.60000000000002</ele>
<time>2023-05-17T13:20:25Z</time>
</trkpt>
<trkpt lat="49.19548292644322" lon="8.278101934120059">
<ele>125.60000000000002</ele>
<time>2023-05-17T13:20:26Z</time>
</trkpt>
<trkpt lat="49.195517962798476" lon="8.278064969927073">
<ele>125.60000000000002</ele>
<time>2023-05-17T13:20:27Z</time>
</trkpt>
<trkpt lat="49.19554998166859" lon="8.278026999905705">
<ele>125.60000000000002</ele>
<time>2023-05-17T13:20:28Z</time>
</trkpt>
<trkpt lat="49.195579988881946" lon="8.277986934408545">
<ele>125.60000000000002</ele>
<time>2023-05-17T13:20:29Z</time>
</trkpt>
<trkpt lat="49.19561292976141" lon="8.277942929416895">
<ele>125.60000000000002</ele>
<time>2023-05-17T13:20:30Z</time>
</trkpt>
<trkpt lat="49.195644948631525" lon="8.277897918596864">
<ele>125.60000000000002</ele>
<time>2023-05-17T13:20:31Z</time>
</trkpt>
<trkpt lat="49.19567797333002" lon="8.277852991595864">
<ele>125.60000000000002</ele>
<time>2023-05-17T13:20:32Z</time>
</trkpt>
<trkpt lat="49.19571694917977" lon="8.277807980775833">
<ele>125.60000000000002</ele>
<time>2023-05-17T13:20:33Z</time>
</trkpt>
<trkpt lat="49.195751985535026" lon="8.277761964127421">
<ele>125.60000000000002</ele>
<time>2023-05-17T13:20:34Z</time>
</trkpt>
<trkpt lat="49.19578492641449" lon="8.277709996327758">
<ele>125.60000000000002</ele>
<time>2023-05-17T13:20:35Z</time>
</trkpt>
<trkpt lat="49.19582197442651" lon="8.277656938880682">
<ele>125.79999999999995</ele>
<time>2023-05-17T13:20:36Z</time>
</trkpt>
<trkpt lat="49.195857932791114" lon="8.277602959424257">
<ele>125.79999999999995</ele>
<time>2023-05-17T13:20:37Z</time>
</trkpt>
<trkpt lat="49.19589498080313" lon="8.277549985796213">
<ele>125.79999999999995</ele>
<time>2023-05-17T13:20:38Z</time>
</trkpt>
<trkpt lat="49.1959329508245" lon="8.277497934177518">
<ele>125.79999999999995</ele>
<time>2023-05-17T13:20:39Z</time>
</trkpt>
<trkpt lat="49.195967987179756" lon="8.277444960549474">
<ele>125.79999999999995</ele>
<time>2023-05-17T13:20:40Z</time>
</trkpt>
<trkpt lat="49.196007968857884" lon="8.27739299274981">
<ele>125.79999999999995</ele>
<time>2023-05-17T13:20:41Z</time>
</trkpt>
<trkpt lat="49.19604795053601" lon="8.277344964444637">
<ele>125.79999999999995</ele>
<time>2023-05-17T13:20:42Z</time>
</trkpt>
<trkpt lat="49.19608793221414" lon="8.277301965281367">
<ele>125.79999999999995</ele>
<time>2023-05-17T13:20:43Z</time>
</trkpt>
<trkpt lat="49.1961279977113" lon="8.277257960289717">
<ele>125.79999999999995</ele>
<time>2023-05-17T13:20:44Z</time>
</trkpt>
<trkpt lat="49.19616999104619" lon="8.277216972783208">
<ele>125.79999999999995</ele>
<time>2023-05-17T13:20:45Z</time>
</trkpt>
<trkpt lat="49.19621198438108" lon="8.27717699110508">
<ele>125.79999999999995</ele>
<time>2023-05-17T13:20:46Z</time>
</trkpt>
<trkpt lat="49.19625498354435" lon="8.277142960578203">
<ele>125.79999999999995</ele>
<time>2023-05-17T13:20:47Z</time>
</trkpt>
<trkpt lat="49.19629697687924" lon="8.277112953364849">
<ele>125.79999999999995</ele>
<time>2023-05-17T13:20:48Z</time>
</trkpt>
<trkpt lat="49.19633997604251" lon="8.277096943929791">
<ele>125.79999999999995</ele>
<time>2023-05-17T13:20:49Z</time>
</trkpt>
<trkpt lat="49.19638498686254" lon="8.27709493227303">
<ele>125.79999999999995</ele>
<time>2023-05-17T13:20:50Z</time>
</trkpt>
<trkpt lat="49.1964319255203" lon="8.277097949758172">
<ele>125.79999999999995</ele>
<time>2023-05-17T13:20:51Z</time>
</trkpt>
<trkpt lat="49.19647693634033" lon="8.277096943929791">
<ele>125.79999999999995</ele>
<time>2023-05-17T13:20:52Z</time>
</trkpt>
<trkpt lat="49.19652194716036" lon="8.277086969465017">
<ele>125.79999999999995</ele>
<time>2023-05-17T13:20:53Z</time>
</trkpt>
<trkpt lat="49.19656293466687" lon="8.277064925059676">
<ele>125.60000000000002</ele>
<time>2023-05-17T13:20:54Z</time>
</trkpt>
<trkpt lat="49.19660492800176" lon="8.277039946988225">
<ele>125.60000000000002</ele>
<time>2023-05-17T13:20:55Z</time>
</trkpt>
<trkpt lat="49.19664692133665" lon="8.277012957260013">
<ele>125.60000000000002</ele>
<time>2023-05-17T13:20:56Z</time>
</trkpt>
<trkpt lat="49.19668992049992" lon="8.276987979188561">
<ele>125.60000000000002</ele>
<time>2023-05-17T13:20:57Z</time>
</trkpt>
<trkpt lat="49.19673493131995" lon="8.2769669406116">
<ele>125.60000000000002</ele>
<time>2023-05-17T13:20:58Z</time>
</trkpt>
<trkpt lat="49.19677994213998" lon="8.276946991682053">
<ele>125.60000000000002</ele>
<time>2023-05-17T13:20:59Z</time>
</trkpt>
<trkpt lat="49.19681992381811" lon="8.276924947276711">
<ele>125.60000000000002</ele>
<time>2023-05-17T13:21:00Z</time>
</trkpt>
<trkpt lat="49.19685998931527" lon="8.276904998347163">
<ele>125.60000000000002</ele>
<time>2023-05-17T13:21:01Z</time>
</trkpt>
<trkpt lat="49.19690298847854" lon="8.276884965598583">
<ele>125.60000000000002</ele>
<time>2023-05-17T13:21:02Z</time>
</trkpt>
<trkpt lat="49.19694799929857" lon="8.276866944506764">
<ele>125.60000000000002</ele>
<time>2023-05-17T13:21:03Z</time>
</trkpt>
<trkpt lat="49.19699493795633" lon="8.276844983920455">
<ele>125.60000000000002</ele>
<time>2023-05-17T13:21:04Z</time>
</trkpt>
<trkpt lat="49.1970379371196" lon="8.276826962828636">
<ele>125.60000000000002</ele>
<time>2023-05-17T13:21:05Z</time>
</trkpt>
<trkpt lat="49.197082947939634" lon="8.27681195922196">
<ele>125.60000000000002</ele>
<time>2023-05-17T13:21:06Z</time>
</trkpt>
<trkpt lat="49.197127958759665" lon="8.276797961443663">
<ele>125.60000000000002</ele>
<time>2023-05-17T13:21:07Z</time>
</trkpt>
<trkpt lat="49.197167940437794" lon="8.276782957836986">
<ele>125.60000000000002</ele>
<time>2023-05-17T13:21:08Z</time>
</trkpt>
<trkpt lat="49.19720993377268" lon="8.276766948401928">
<ele>125.39999999999998</ele>
<time>2023-05-17T13:21:09Z</time>
</trkpt>
<trkpt lat="49.19725293293595" lon="8.276747921481729">
<ele>125.39999999999998</ele>
<time>2023-05-17T13:21:10Z</time>
</trkpt>
<trkpt lat="49.19729492627084" lon="8.276734929531813">
<ele>125.39999999999998</ele>
<time>2023-05-17T13:21:11Z</time>
</trkpt>
<trkpt lat="49.19733298011124" lon="8.276724955067039">
<ele>125.39999999999998</ele>
<time>2023-05-17T13:21:12Z</time>
</trkpt>
<trkpt lat="49.19736793264747" lon="8.276719925925136">
<ele>125.39999999999998</ele>
<time>2023-05-17T13:21:13Z</time>
</trkpt>
<trkpt lat="49.19739995151758" lon="8.276712968945503">
<ele>125.39999999999998</ele>
<time>2023-05-17T13:21:14Z</time>
</trkpt>
<trkpt lat="49.197427947074175" lon="8.276714980602264">
<ele>125.39999999999998</ele>
<time>2023-05-17T13:21:15Z</time>
</trkpt>
<trkpt lat="49.19745493680239" lon="8.276717998087406">
<ele>125.20000000000005</ele>
<time>2023-05-17T13:21:16Z</time>
</trkpt>
<trkpt lat="49.19747999869287" lon="8.276717998087406">
<ele>125.20000000000005</ele>
<time>2023-05-17T13:21:17Z</time>
</trkpt>
<trkpt lat="49.19750296510756" lon="8.276716992259026">
<ele>125.20000000000005</ele>
<time>2023-05-17T13:21:18Z</time>
</trkpt>
<trkpt lat="49.19752693735063" lon="8.276711963117123">
<ele>125.20000000000005</ele>
<time>2023-05-17T13:21:19Z</time>
</trkpt>
<trkpt lat="49.19755292125046" lon="8.276704922318459">
<ele>125.20000000000005</ele>
<time>2023-05-17T13:21:20Z</time>
</trkpt>
<trkpt lat="49.197577983140945" lon="8.276697965338826">
<ele>125.20000000000005</ele>
<time>2023-05-17T13:21:21Z</time>
</trkpt>
<trkpt lat="49.19759692624211" lon="8.276689918711782">
<ele>125.20000000000005</ele>
<time>2023-05-17T13:21:22Z</time>
</trkpt>
<trkpt lat="49.19761695899069" lon="8.276679944247007">
<ele>125.20000000000005</ele>
<time>2023-05-17T13:21:23Z</time>
</trkpt>
<trkpt lat="49.19763498008251" lon="8.276671981438994">
<ele>125.20000000000005</ele>
<time>2023-05-17T13:21:24Z</time>
</trkpt>
<trkpt lat="49.19764998368919" lon="8.276666952297091">
<ele>125.39999999999998</ele>
<time>2023-05-17T13:21:25Z</time>
</trkpt>
<trkpt lat="49.197661969810724" lon="8.276661923155189">
<ele>125.39999999999998</ele>
<time>2023-05-17T13:21:26Z</time>
</trkpt>
<trkpt lat="49.1976719442755" lon="8.276657983660698">
<ele>125.39999999999998</ele>
<time>2023-05-17T13:21:27Z</time>
</trkpt>
<trkpt lat="49.19767999090254" lon="8.276652954518795">
<ele>125.39999999999998</ele>
<time>2023-05-17T13:21:28Z</time>
</trkpt>
<trkpt lat="49.19769197702408" lon="8.276651948690414">
<ele>125.39999999999998</ele>
<time>2023-05-17T13:21:29Z</time>
</trkpt>
<trkpt lat="49.197704968973994" lon="8.276654966175556">
<ele>125.60000000000002</ele>
<time>2023-05-17T13:21:30Z</time>
</trkpt>
<trkpt lat="49.19771293178201" lon="8.276657983660698">
<ele>125.60000000000002</ele>
<time>2023-05-17T13:21:31Z</time>
</trkpt>
<trkpt lat="49.19772491790354" lon="8.27666292898357">
<ele>125.60000000000002</ele>
<time>2023-05-17T13:21:32Z</time>
</trkpt>
<trkpt lat="49.19773799367249" lon="8.276672987267375">
<ele>125.60000000000002</ele>
<time>2023-05-17T13:21:33Z</time>
</trkpt>
<trkpt lat="49.197747968137264" lon="8.27668497338891">
<ele>125.79999999999995</ele>
<time>2023-05-17T13:21:34Z</time>
</trkpt>
<trkpt lat="49.197766995057464" lon="8.276701988652349">
<ele>125.79999999999995</ele>
<time>2023-05-17T13:21:35Z</time>
</trkpt>
<trkpt lat="49.197791973128915" lon="8.276712968945503">
<ele>125.79999999999995</ele>
<time>2023-05-17T13:21:36Z</time>
</trkpt>
<trkpt lat="49.19781795702875" lon="8.276721937581897">
<ele>126</ele>
<time>2023-05-17T13:21:37Z</time>
</trkpt>
<trkpt lat="49.19784494675696" lon="8.276722943410277">
<ele>126</ele>
<time>2023-05-17T13:21:38Z</time>
</trkpt>
<trkpt lat="49.19787294231355" lon="8.276714980602264">
<ele>126</ele>
<time>2023-05-17T13:21:39Z</time>
</trkpt>
<trkpt lat="49.19790697284043" lon="8.27670693397522">
<ele>126</ele>
<time>2023-05-17T13:21:40Z</time>
</trkpt>
<trkpt lat="49.197939997538924" lon="8.276696959510446">
<ele>126</ele>
<time>2023-05-17T13:21:41Z</time>
</trkpt>
<trkpt lat="49.19797495007515" lon="8.276686985045671">
<ele>126</ele>
<time>2023-05-17T13:21:42Z</time>
</trkpt>
<trkpt lat="49.19800998643041" lon="8.276669969782233">
<ele>126</ele>
<time>2023-05-17T13:21:43Z</time>
</trkpt>
<trkpt lat="49.198047956451774" lon="8.276654966175556">
<ele>126</ele>
<time>2023-05-17T13:21:44Z</time>
</trkpt>
<trkpt lat="49.198092967271805" lon="8.276644991710782">
<ele>126.20000000000005</ele>
<time>2023-05-17T13:21:45Z</time>
</trkpt>
<trkpt lat="49.198136972263455" lon="8.276634933426976">
<ele>126.20000000000005</ele>
<time>2023-05-17T13:21:46Z</time>
</trkpt>
<trkpt lat="49.198179971426725" lon="8.276624958962202">
<ele>126.20000000000005</ele>
<time>2023-05-17T13:21:47Z</time>
</trkpt>
<trkpt lat="49.19822498224676" lon="8.276607943698764">
<ele>126.20000000000005</ele>
<time>2023-05-17T13:21:48Z</time>
</trkpt>
<trkpt lat="49.198264963924885" lon="8.27659696340561">
<ele>126.20000000000005</ele>
<time>2023-05-17T13:21:49Z</time>
</trkpt>
<trkpt lat="49.198307963088155" lon="8.276582965627313">
<ele>126.20000000000005</ele>
<time>2023-05-17T13:21:50Z</time>
</trkpt>
<trkpt lat="49.19835699722171" lon="8.276569973677397">
<ele>126.39999999999998</ele>
<time>2023-05-17T13:21:51Z</time>
</trkpt>
<trkpt lat="49.19840192422271" lon="8.276546923443675">
<ele>126.39999999999998</ele>
<time>2023-05-17T13:21:52Z</time>
</trkpt>
<trkpt lat="49.19844693504274" lon="8.276524962857366">
<ele>126.39999999999998</ele>
<time>2023-05-17T13:21:53Z</time>
</trkpt>
<trkpt lat="49.19849697500467" lon="8.276502918452024">
<ele>126.39999999999998</ele>
<time>2023-05-17T13:21:54Z</time>
</trkpt>
<trkpt lat="49.198542991653085" lon="8.276479952037334">
<ele>126.39999999999998</ele>
<time>2023-05-17T13:21:55Z</time>
</trkpt>
<trkpt lat="49.198589930310845" lon="8.276454973965883">
<ele>126.39999999999998</ele>
<time>2023-05-17T13:21:56Z</time>
</trkpt>
<trkpt lat="49.19863997027278" lon="8.27642697840929">
<ele>126.39999999999998</ele>
<time>2023-05-17T13:21:57Z</time>
</trkpt>
<trkpt lat="49.19868992641568" lon="8.276396971195936">
<ele>126.39999999999998</ele>
<time>2023-05-17T13:21:58Z</time>
</trkpt>
<trkpt lat="49.198736948892474" lon="8.276369981467724">
<ele>126.39999999999998</ele>
<time>2023-05-17T13:21:59Z</time>
</trkpt>
<trkpt lat="49.198782965540886" lon="8.276341985911131">
<ele>126.39999999999998</ele>
<time>2023-05-17T13:22:00Z</time>
</trkpt>
<trkpt lat="49.19883199967444" lon="8.276312984526157">
<ele>126.39999999999998</ele>
<time>2023-05-17T13:22:01Z</time>
</trkpt>
<trkpt lat="49.19887793250382" lon="8.276286916807294">
<ele>126.39999999999998</ele>
<time>2023-05-17T13:22:02Z</time>
</trkpt>
<trkpt lat="49.19892294332385" lon="8.276259927079082">
<ele>126.39999999999998</ele>
<time>2023-05-17T13:22:03Z</time>
</trkpt>
<trkpt lat="49.19896795414388" lon="8.276229919865727">
<ele>126.39999999999998</ele>
<time>2023-05-17T13:22:04Z</time>
</trkpt>
<trkpt lat="49.19900793582201" lon="8.276207959279418">
<ele>126.20000000000005</ele>
<time>2023-05-17T13:22:05Z</time>
</trkpt>
<trkpt lat="49.19904699549079" lon="8.276177952066064">
<ele>126.20000000000005</ele>
<time>2023-05-17T13:22:06Z</time>
</trkpt>
<trkpt lat="49.19908496551216" lon="8.276149956509471">
<ele>126.20000000000005</ele>
<time>2023-05-17T13:22:07Z</time>
</trkpt>
<trkpt lat="49.19912796467543" lon="8.276117937639356">
<ele>126.20000000000005</ele>
<time>2023-05-17T13:22:08Z</time>
</trkpt>
<trkpt lat="49.19917196966708" lon="8.27608298510313">
<ele>126.20000000000005</ele>
<time>2023-05-17T13:22:09Z</time>
</trkpt>
<trkpt lat="49.19921698048711" lon="8.276049960404634">
<ele>126.20000000000005</ele>
<time>2023-05-17T13:22:10Z</time>
</trkpt>
<trkpt lat="49.19925796799362" lon="8.276014924049377">
<ele>126.20000000000005</ele>
<time>2023-05-17T13:22:11Z</time>
</trkpt>
<trkpt lat="49.199297949671745" lon="8.275981983169913">
<ele>126.20000000000005</ele>
<time>2023-05-17T13:22:12Z</time>
</trkpt>
<trkpt lat="49.199339943006635" lon="8.275949964299798">
<ele>126.20000000000005</ele>
<time>2023-05-17T13:22:13Z</time>
</trkpt>
<trkpt lat="49.19937799684703" lon="8.27591291628778">
<ele>126.20000000000005</ele>
<time>2023-05-17T13:22:14Z</time>
</trkpt>
<trkpt lat="49.19941999018192" lon="8.275876957923174">
<ele>126.20000000000005</ele>
<time>2023-05-17T13:22:15Z</time>
</trkpt>
<trkpt lat="49.19946198351681" lon="8.275837982073426">
<ele>126.20000000000005</ele>
<time>2023-05-17T13:22:16Z</time>
</trkpt>
<trkpt lat="49.19949995353818" lon="8.275799928233027">
<ele>126.39999999999998</ele>
<time>2023-05-17T13:22:17Z</time>
</trkpt>
<trkpt lat="49.19953792355955" lon="8.275766987353563">
<ele>126.39999999999998</ele>
<time>2023-05-17T13:22:18Z</time>
</trkpt>
<trkpt lat="49.199574971571565" lon="8.275732956826687">
<ele>126.39999999999998</ele>
<time>2023-05-17T13:22:19Z</time>
</trkpt>
<trkpt lat="49.19960992410779" lon="8.27569792047143">
<ele>126.39999999999998</ele>
<time>2023-05-17T13:22:20Z</time>
</trkpt>
<trkpt lat="49.19964496046305" lon="8.275661962106824">
<ele>126.39999999999998</ele>
<time>2023-05-17T13:22:21Z</time>
</trkpt>
<trkpt lat="49.199679996818304" lon="8.275629943236709">
<ele>126.39999999999998</ele>
<time>2023-05-17T13:22:22Z</time>
</trkpt>
<trkpt lat="49.19971193186939" lon="8.275597924366593">
<ele>126.39999999999998</ele>
<time>2023-05-17T13:22:23Z</time>
</trkpt>
<trkpt lat="49.19974193908274" lon="8.27556992881">
<ele>126.39999999999998</ele>
<time>2023-05-17T13:22:24Z</time>
</trkpt>
<trkpt lat="49.199771946296096" lon="8.27554495073855">
<ele>126.39999999999998</ele>
<time>2023-05-17T13:22:25Z</time>
</trkpt>
<trkpt lat="49.19980195350945" lon="8.275514943525195">
<ele>126.39999999999998</ele>
<time>2023-05-17T13:22:26Z</time>
</trkpt>
<trkpt lat="49.19982793740928" lon="8.275486947968602">
<ele>126.39999999999998</ele>
<time>2023-05-17T13:22:27Z</time>
</trkpt>
<trkpt lat="49.199857944622636" lon="8.27545995824039">
<ele>126.39999999999998</ele>
<time>2023-05-17T13:22:28Z</time>
</trkpt>
<trkpt lat="49.19988795183599" lon="8.2754369918257">
<ele>126.39999999999998</ele>
<time>2023-05-17T13:22:29Z</time>
</trkpt>
<trkpt lat="49.199919970706105" lon="8.275411929935217">
<ele>126.39999999999998</ele>
<time>2023-05-17T13:22:30Z</time>
</trkpt>
<trkpt lat="49.19994696043432" lon="8.275381922721863">
<ele>126.39999999999998</ele>
<time>2023-05-17T13:22:31Z</time>
</trkpt>
<trkpt lat="49.19997294433415" lon="8.275347976014018">
<ele>126.39999999999998</ele>
<time>2023-05-17T13:22:32Z</time>
</trkpt>
<trkpt lat="49.20000194571912" lon="8.275297936052084">
<ele>126.39999999999998</ele>
<time>2023-05-17T13:22:33Z</time>
</trkpt>
<trkpt lat="49.20003195293248" lon="8.275249991565943">
<ele>126.39999999999998</ele>
<time>2023-05-17T13:22:34Z</time>
</trkpt>
<trkpt lat="49.20006196014583" lon="8.275197939947248">
<ele>126.39999999999998</ele>
<time>2023-05-17T13:22:35Z</time>
</trkpt>
<trkpt lat="49.20008794404566" lon="8.275147983804345">
<ele>126.39999999999998</ele>
<time>2023-05-17T13:22:36Z</time>
</trkpt>
<trkpt lat="49.200116945430636" lon="8.275099955499172">
<ele>126.39999999999998</ele>
<time>2023-05-17T13:22:37Z</time>
</trkpt>
<trkpt lat="49.20014695264399" lon="8.275051927194">
<ele>126.39999999999998</ele>
<time>2023-05-17T13:22:38Z</time>
</trkpt>
<trkpt lat="49.200177965685725" lon="8.275004988536239">
<ele>126.39999999999998</ele>
<time>2023-05-17T13:22:39Z</time>
</trkpt>
<trkpt lat="49.20021492987871" lon="8.274961989372969">
<ele>126.39999999999998</ele>
<time>2023-05-17T13:22:40Z</time>
</trkpt>
<trkpt lat="49.20025298371911" lon="8.274917984381318">
<ele>126.39999999999998</ele>
<time>2023-05-17T13:22:41Z</time>
</trkpt>
<trkpt lat="49.2002899479121" lon="8.274866938591003">
<ele>126.39999999999998</ele>
<time>2023-05-17T13:22:42Z</time>
</trkpt>
<trkpt lat="49.20033294707537" lon="8.274821927770972">
<ele>126.39999999999998</ele>
<time>2023-05-17T13:22:43Z</time>
</trkpt>
<trkpt lat="49.200371922925115" lon="8.274777922779322">
<ele>126.39999999999998</ele>
<time>2023-05-17T13:22:44Z</time>
</trkpt>
<trkpt lat="49.20040997676551" lon="8.274734923616052">
<ele>126.39999999999998</ele>
<time>2023-05-17T13:22:45Z</time>
</trkpt>
<trkpt lat="49.20044995844364" lon="8.27468496747315">
<ele>126.39999999999998</ele>
<time>2023-05-17T13:22:46Z</time>
</trkpt>
<trkpt lat="49.20049295760691" lon="8.274634927511215">
<ele>126.39999999999998</ele>
<time>2023-05-17T13:22:47Z</time>
</trkpt>
<trkpt lat="49.200541991740465" lon="8.274584971368313">
<ele>126.39999999999998</ele>
<time>2023-05-17T13:22:48Z</time>
</trkpt>
<trkpt lat="49.200584990903735" lon="8.274534931406379">
<ele>126.39999999999998</ele>
<time>2023-05-17T13:22:49Z</time>
</trkpt>
<trkpt lat="49.200626984238625" lon="8.274486986920238">
<ele>126.39999999999998</ele>
<time>2023-05-17T13:22:50Z</time>
</trkpt>
<trkpt lat="49.200671995058656" lon="8.274437952786684">
<ele>126.39999999999998</ele>
<time>2023-05-17T13:22:51Z</time>
</trkpt>
<trkpt lat="49.200716922059655" lon="8.274392941966653">
<ele>126.20000000000005</ele>
<time>2023-05-17T13:22:52Z</time>
</trkpt>
<trkpt lat="49.200756987556815" lon="8.274346925318241">
<ele>126.20000000000005</ele>
<time>2023-05-17T13:22:53Z</time>
</trkpt>
<trkpt lat="49.20079294592142" lon="8.274301998317242">
<ele>126.20000000000005</ele>
<time>2023-05-17T13:22:54Z</time>
</trkpt>
<trkpt lat="49.20083695091307" lon="8.27425698749721">
<ele>126.20000000000005</ele>
<time>2023-05-17T13:22:55Z</time>
</trkpt>
<trkpt lat="49.20087793841958" lon="8.27421692200005">
<ele>126.20000000000005</ele>
<time>2023-05-17T13:22:56Z</time>
</trkpt>
<trkpt lat="49.20091993175447" lon="8.274167971685529">
<ele>126.20000000000005</ele>
<time>2023-05-17T13:22:57Z</time>
</trkpt>
<trkpt lat="49.20096192508936" lon="8.274117931723595">
<ele>126.20000000000005</ele>
<time>2023-05-17T13:22:58Z</time>
</trkpt>
<trkpt lat="49.2010029964149" lon="8.274071998894215">
<ele>126.20000000000005</ele>
<time>2023-05-17T13:22:59Z</time>
</trkpt>
<trkpt lat="49.20104498974979" lon="8.274026988074183">
<ele>126.20000000000005</ele>
<time>2023-05-17T13:23:00Z</time>
</trkpt>
<trkpt lat="49.20108698308468" lon="8.273981977254152">
<ele>126.20000000000005</ele>
<time>2023-05-17T13:23:01Z</time>
</trkpt>
<trkpt lat="49.20112696476281" lon="8.273932943120599">
<ele>126.20000000000005</ele>
<time>2023-05-17T13:23:02Z</time>
</trkpt>
<trkpt lat="49.20116292312741" lon="8.273886926472187">
<ele>126.20000000000005</ele>
<time>2023-05-17T13:23:03Z</time>
</trkpt>
<trkpt lat="49.20120298862457" lon="8.273837976157665">
<ele>126.20000000000005</ele>
<time>2023-05-17T13:23:04Z</time>
</trkpt>
<trkpt lat="49.2012429703027" lon="8.273792965337634">
<ele>126.20000000000005</ele>
<time>2023-05-17T13:23:05Z</time>
</trkpt>
<trkpt lat="49.20128496363759" lon="8.273752983659506">
<ele>126.20000000000005</ele>
<time>2023-05-17T13:23:06Z</time>
</trkpt>
<trkpt lat="49.20132293365896" lon="8.273711996152997">
<ele>126.20000000000005</ele>
<time>2023-05-17T13:23:07Z</time>
</trkpt>
<trkpt lat="49.20136299915612" lon="8.273669918999076">
<ele>126.20000000000005</ele>
<time>2023-05-17T13:23:08Z</time>
</trkpt>
<trkpt lat="49.201406920328736" lon="8.273627925664186">
<ele>126.20000000000005</ele>
<time>2023-05-17T13:23:09Z</time>
</trkpt>
<trkpt lat="49.201449919492006" lon="8.273586938157678">
<ele>126.20000000000005</ele>
<time>2023-05-17T13:23:10Z</time>
</trkpt>
<trkpt lat="49.2014969419688" lon="8.273539999499917">
<ele>126.20000000000005</ele>
<time>2023-05-17T13:23:11Z</time>
</trkpt>
<trkpt lat="49.20153994113207" lon="8.273506974801421">
<ele>126.20000000000005</ele>
<time>2023-05-17T13:23:12Z</time>
</trkpt>
<trkpt lat="49.20157799497247" lon="8.273471938446164">
<ele>126.20000000000005</ele>
<time>2023-05-17T13:23:13Z</time>
</trkpt>
<trkpt lat="49.201616970822215" lon="8.273429945111275">
<ele>126.20000000000005</ele>
<time>2023-05-17T13:23:14Z</time>
</trkpt>
<trkpt lat="49.20165292918682" lon="8.273386945948005">
<ele>126.20000000000005</ele>
<time>2023-05-17T13:23:15Z</time>
</trkpt>
<trkpt lat="49.2016919888556" lon="8.273341935127974">
<ele>126.20000000000005</ele>
<time>2023-05-17T13:23:16Z</time>
</trkpt>
<trkpt lat="49.201726941391826" lon="8.273297930136323">
<ele>126.20000000000005</ele>
<time>2023-05-17T13:23:17Z</time>
</trkpt>
<trkpt lat="49.20176298357546" lon="8.273252919316292">
<ele>126.20000000000005</ele>
<time>2023-05-17T13:23:18Z</time>
</trkpt>
<trkpt lat="49.20179693028331" lon="8.273206986486912">
<ele>126.20000000000005</ele>
<time>2023-05-17T13:23:19Z</time>
</trkpt>
<trkpt lat="49.20183498412371" lon="8.27315996401012">
<ele>126.20000000000005</ele>
<time>2023-05-17T13:23:20Z</time>
</trkpt>
<trkpt lat="49.201874965801835" lon="8.273114953190088">
<ele>126.20000000000005</ele>
<time>2023-05-17T13:23:21Z</time>
</trkpt>
<trkpt lat="49.201917964965105" lon="8.273077988997102">
<ele>126.20000000000005</ele>
<time>2023-05-17T13:23:22Z</time>
</trkpt>
<trkpt lat="49.20195694081485" lon="8.273036917671561">
<ele>126.20000000000005</ele>
<time>2023-05-17T13:23:23Z</time>
</trkpt>
<trkpt lat="49.20199792832136" lon="8.27298796735704">
<ele>126.20000000000005</ele>
<time>2023-05-17T13:23:24Z</time>
</trkpt>
<trkpt lat="49.20203497633338" lon="8.27294496819377">
<ele>126.20000000000005</ele>
<time>2023-05-17T13:23:25Z</time>
</trkpt>
<trkpt lat="49.20207294635475" lon="8.27290297485888">
<ele>126.20000000000005</ele>
<time>2023-05-17T13:23:26Z</time>
</trkpt>
<trkpt lat="49.202107982710004" lon="8.272864921018481">
<ele>126.20000000000005</ele>
<time>2023-05-17T13:23:27Z</time>
</trkpt>
<trkpt lat="49.20214796438813" lon="8.272819994017482">
<ele>126.20000000000005</ele>
<time>2023-05-17T13:23:28Z</time>
</trkpt>
<trkpt lat="49.202197920531034" lon="8.27277297154069">
<ele>126.20000000000005</ele>
<time>2023-05-17T13:23:29Z</time>
</trkpt>
<trkpt lat="49.20223195105791" lon="8.272727960720658">
<ele>126.20000000000005</ele>
<time>2023-05-17T13:23:30Z</time>
</trkpt>
<trkpt lat="49.20226698741317" lon="8.272679932415485">
<ele>126.20000000000005</ele>
<time>2023-05-17T13:23:31Z</time>
</trkpt>
<trkpt lat="49.202302945777774" lon="8.272634921595454">
<ele>126.20000000000005</ele>
<time>2023-05-17T13:23:32Z</time>
</trkpt>
<trkpt lat="49.20234192162752" lon="8.272591922432184">
<ele>126.20000000000005</ele>
<time>2023-05-17T13:23:33Z</time>
</trkpt>
<trkpt lat="49.20238793827593" lon="8.272544983774424">
<ele>126.20000000000005</ele>
<time>2023-05-17T13:23:34Z</time>
</trkpt>
<trkpt lat="49.202431943267584" lon="8.272504918277264">
<ele>126.20000000000005</ele>
<time>2023-05-17T13:23:35Z</time>
</trkpt>
<trkpt lat="49.20247293077409" lon="8.272464936599135">
<ele>126.20000000000005</ele>
<time>2023-05-17T13:23:36Z</time>
</trkpt>
<trkpt lat="49.20251199044287" lon="8.272421937435865">
<ele>126.20000000000005</ele>
<time>2023-05-17T13:23:37Z</time>
</trkpt>
<trkpt lat="49.20254996046424" lon="8.272376926615834">
<ele>126.20000000000005</ele>
<time>2023-05-17T13:23:38Z</time>
</trkpt>
<trkpt lat="49.20259195379913" lon="8.272332921624184">
<ele>126.20000000000005</ele>
<time>2023-05-17T13:23:39Z</time>
</trkpt>
<trkpt lat="49.202629923820496" lon="8.272291934117675">
<ele>126.39999999999998</ele>
<time>2023-05-17T13:23:40Z</time>
</trkpt>
<trkpt lat="49.202666971832514" lon="8.272242983803153">
<ele>126.39999999999998</ele>
<time>2023-05-17T13:23:41Z</time>
</trkpt>
<trkpt lat="49.20270795933902" lon="8.272192943841219">
<ele>126.39999999999998</ele>
<time>2023-05-17T13:23:42Z</time>
</trkpt>
<trkpt lat="49.20274995267391" lon="8.272147933021188">
<ele>126.39999999999998</ele>
<time>2023-05-17T13:23:43Z</time>
</trkpt>
<trkpt lat="49.2027919460088" lon="8.272097976878285">
<ele>126.39999999999998</ele>
<time>2023-05-17T13:23:44Z</time>
</trkpt>
<trkpt lat="49.20283695682883" lon="8.272051960229874">
<ele>126.39999999999998</ele>
<time>2023-05-17T13:23:45Z</time>
</trkpt>
<trkpt lat="49.20287693850696" lon="8.272006949409842">
<ele>126.39999999999998</ele>
<time>2023-05-17T13:23:46Z</time>
</trkpt>
<trkpt lat="49.20291692018509" lon="8.27195699326694">
<ele>126.39999999999998</ele>
<time>2023-05-17T13:23:47Z</time>
</trkpt>
<trkpt lat="49.20295698568225" lon="8.271911982446909">
<ele>126.60000000000002</ele>
<time>2023-05-17T13:23:48Z</time>
</trkpt>
<trkpt lat="49.202994955703616" lon="8.271862948313355">
<ele>126.60000000000002</ele>
<time>2023-05-17T13:23:49Z</time>
</trkpt>
<trkpt lat="49.20302999205887" lon="8.271816931664944">
<ele>126.60000000000002</ele>
<time>2023-05-17T13:23:50Z</time>
</trkpt>
<trkpt lat="49.20306192710996" lon="8.271766975522041">
<ele>126.60000000000002</ele>
<time>2023-05-17T13:23:51Z</time>
</trkpt>
<trkpt lat="49.203096963465214" lon="8.271716935560107">
<ele>126.60000000000002</ele>
<time>2023-05-17T13:23:52Z</time>
</trkpt>
<trkpt lat="49.20312998816371" lon="8.271666979417205">
<ele>126.60000000000002</ele>
<time>2023-05-17T13:23:53Z</time>
</trkpt>
<trkpt lat="49.203162929043174" lon="8.271617945283651">
<ele>126.60000000000002</ele>
<time>2023-05-17T13:23:54Z</time>
</trkpt>
<trkpt lat="49.20319293625653" lon="8.27157293446362">
<ele>126.60000000000002</ele>
<time>2023-05-17T13:23:55Z</time>
</trkpt>
<trkpt lat="49.20322294346988" lon="8.271526917815208">
<ele>126.60000000000002</ele>
<time>2023-05-17T13:23:56Z</time>
</trkpt>
<trkpt lat="49.203251944854856" lon="8.271477967500687">
<ele>126.60000000000002</ele>
<time>2023-05-17T13:23:57Z</time>
</trkpt>
<trkpt lat="49.20328496955335" lon="8.271431950852275">
<ele>126.60000000000002</ele>
<time>2023-05-17T13:23:58Z</time>
</trkpt>
<trkpt lat="49.20331992208958" lon="8.27137797139585">
<ele>126.60000000000002</ele>
<time>2023-05-17T13:23:59Z</time>
</trkpt>
<trkpt lat="49.20335294678807" lon="8.271327931433916">
<ele>126.60000000000002</ele>
<time>2023-05-17T13:24:00Z</time>
</trkpt>
<trkpt lat="49.20338697731495" lon="8.271279986947775">
<ele>126.60000000000002</ele>
<time>2023-05-17T13:24:01Z</time>
</trkpt>
<trkpt lat="49.203422935679555" lon="8.271221984177828">
<ele>126.60000000000002</ele>
<time>2023-05-17T13:24:02Z</time>
</trkpt>
<trkpt lat="49.20346291735768" lon="8.271157946437597">
<ele>126.60000000000002</ele>
<time>2023-05-17T13:24:03Z</time>
</trkpt>
<trkpt lat="49.2034999653697" lon="8.271097932010889">
<ele>126.60000000000002</ele>
<time>2023-05-17T13:24:04Z</time>
</trkpt>
<trkpt lat="49.20353491790593" lon="8.271039929240942">
<ele>126.60000000000002</ele>
<time>2023-05-17T13:24:05Z</time>
</trkpt>
<trkpt lat="49.20356794260442" lon="8.270984943956137">
<ele>126.60000000000002</ele>
<time>2023-05-17T13:24:06Z</time>
</trkpt>
<trkpt lat="49.20360297895968" lon="8.27092694118619">
<ele>126.60000000000002</ele>
<time>2023-05-17T13:24:07Z</time>
</trkpt>
<trkpt lat="49.203634997829795" lon="8.270872961729765">
<ele>126.60000000000002</ele>
<time>2023-05-17T13:24:08Z</time>
</trkpt>
<trkpt lat="49.20366793870926" lon="8.27081797644496">
<ele>126.60000000000002</ele>
<time>2023-05-17T13:24:09Z</time>
</trkpt>
<trkpt lat="49.203702975064516" lon="8.270767936483026">
<ele>126.60000000000002</ele>
<time>2023-05-17T13:24:10Z</time>
</trkpt>
<trkpt lat="49.203741950914264" lon="8.270716974511743">
<ele>126.60000000000002</ele>
<time>2023-05-17T13:24:11Z</time>
</trkpt>
<trkpt lat="49.20377698726952" lon="8.270662995055318">
<ele>126.60000000000002</ele>
<time>2023-05-17T13:24:12Z</time>
</trkpt>
<trkpt lat="49.20382199808955" lon="8.27060499228537">
<ele>126.60000000000002</ele>
<time>2023-05-17T13:24:13Z</time>
</trkpt>
<trkpt lat="49.203854938969016" lon="8.270546989515424">
<ele>126.60000000000002</ele>
<time>2023-05-17T13:24:14Z</time>
</trkpt>
<trkpt lat="49.20388997532427" lon="8.270489992573857">
<ele>126.60000000000002</ele>
<time>2023-05-17T13:24:15Z</time>
</trkpt>
<trkpt lat="49.20392199419439" lon="8.270437940955162">
<ele>126.60000000000002</ele>
<time>2023-05-17T13:24:16Z</time>
</trkpt>
<trkpt lat="49.20395493507385" lon="8.270384967327118">
<ele>126.60000000000002</ele>
<time>2023-05-17T13:24:17Z</time>
</trkpt>
<trkpt lat="49.20398795977235" lon="8.270339956507087">
<ele>126.60000000000002</ele>
<time>2023-05-17T13:24:18Z</time>
</trkpt>
<trkpt lat="49.204026935622096" lon="8.270292934030294">
<ele>126.39999999999998</ele>
<time>2023-05-17T13:24:19Z</time>
</trkpt>
<trkpt lat="49.20405996032059" lon="8.270247923210263">
<ele>126.39999999999998</ele>
<time>2023-05-17T13:24:20Z</time>
</trkpt>
<trkpt lat="49.20409197919071" lon="8.270202996209264">
<ele>126.39999999999998</ele>
<time>2023-05-17T13:24:21Z</time>
</trkpt>
<trkpt lat="49.20412299223244" lon="8.270157985389233">
<ele>126.39999999999998</ele>
<time>2023-05-17T13:24:22Z</time>
</trkpt>
<trkpt lat="49.204151993617415" lon="8.27010995708406">
<ele>126.39999999999998</ele>
<time>2023-05-17T13:24:23Z</time>
</trkpt>
<trkpt lat="49.20418292284012" lon="8.270061928778887">
<ele>126.39999999999998</ele>
<time>2023-05-17T13:24:24Z</time>
</trkpt>
<trkpt lat="49.204216953366995" lon="8.270014990121126">
<ele>126.39999999999998</ele>
<time>2023-05-17T13:24:25Z</time>
</trkpt>
<trkpt lat="49.20425198972225" lon="8.269967967644334">
<ele>126.39999999999998</ele>
<time>2023-05-17T13:24:26Z</time>
</trkpt>
<trkpt lat="49.204284930601716" lon="8.269922956824303">
<ele>126.39999999999998</ele>
<time>2023-05-17T13:24:27Z</time>
</trkpt>
<trkpt lat="49.20431292615831" lon="8.26987199485302">
<ele>126.39999999999998</ele>
<time>2023-05-17T13:24:28Z</time>
</trkpt>
<trkpt lat="49.20434192754328" lon="8.269821954891086">
<ele>126.39999999999998</ele>
<time>2023-05-17T13:24:29Z</time>
</trkpt>
<trkpt lat="49.20437294058502" lon="8.269771998748183">
<ele>126.39999999999998</ele>
<time>2023-05-17T13:24:30Z</time>
</trkpt>
<trkpt lat="49.20440495945513" lon="8.269719947129488">
<ele>126.60000000000002</ele>
<time>2023-05-17T13:24:31Z</time>
</trkpt>
<trkpt lat="49.20443798415363" lon="8.269671918824315">
<ele>126.60000000000002</ele>
<time>2023-05-17T13:24:32Z</time>
</trkpt>
<trkpt lat="49.204474948346615" lon="8.269611988216639">
<ele>126.60000000000002</ele>
<time>2023-05-17T13:24:33Z</time>
</trkpt>
<trkpt lat="49.20450797304511" lon="8.269557924941182">
<ele>126.60000000000002</ele>
<time>2023-05-17T13:24:34Z</time>
</trkpt>
<trkpt lat="49.204541919752955" lon="8.269504951313138">
<ele>126.60000000000002</ele>
<time>2023-05-17T13:24:35Z</time>
</trkpt>
<trkpt lat="49.20456999912858" lon="8.269447954371572">
<ele>126.60000000000002</ele>
<time>2023-05-17T13:24:36Z</time>
</trkpt>
<trkpt lat="49.204601934179664" lon="8.269392969086766">
<ele>126.79999999999995</ele>
<time>2023-05-17T13:24:37Z</time>
</trkpt>
<trkpt lat="49.20463495887816" lon="8.26933697797358">
<ele>126.79999999999995</ele>
<time>2023-05-17T13:24:38Z</time>
</trkpt>
<trkpt lat="49.204667983576655" lon="8.269281992688775">
<ele>126.79999999999995</ele>
<time>2023-05-17T13:24:39Z</time>
</trkpt>
<trkpt lat="49.2047019302845" lon="8.269224995747209">
<ele>126.79999999999995</ele>
<time>2023-05-17T13:24:40Z</time>
</trkpt>
<trkpt lat="49.204732943326235" lon="8.269166992977262">
<ele>126.79999999999995</ele>
<time>2023-05-17T13:24:41Z</time>
</trkpt>
<trkpt lat="49.20476697385311" lon="8.269112929701805">
<ele>126.79999999999995</ele>
<time>2023-05-17T13:24:42Z</time>
</trkpt>
<trkpt lat="49.20479999855161" lon="8.26905693858862">
<ele>126.79999999999995</ele>
<time>2023-05-17T13:24:43Z</time>
</trkpt>
<trkpt lat="49.20483293943107" lon="8.269004970788956">
<ele>126.79999999999995</ele>
<time>2023-05-17T13:24:44Z</time>
</trkpt>
<trkpt lat="49.20486495830119" lon="8.26894998550415">
<ele>126.79999999999995</ele>
<time>2023-05-17T13:24:45Z</time>
</trkpt>
<trkpt lat="49.204899994656444" lon="8.268894916400313">
<ele>127</ele>
<time>2023-05-17T13:24:46Z</time>
</trkpt>
<trkpt lat="49.20493192970753" lon="8.26884294860065">
<ele>127</ele>
<time>2023-05-17T13:24:47Z</time>
</trkpt>
<trkpt lat="49.20495992526412" lon="8.268784945830703">
<ele>127</ele>
<time>2023-05-17T13:24:48Z</time>
</trkpt>
<trkpt lat="49.204989932477474" lon="8.26873297803104">
<ele>127</ele>
<time>2023-05-17T13:24:49Z</time>
</trkpt>
<trkpt lat="49.20502195134759" lon="8.268679920583963">
<ele>127</ele>
<time>2023-05-17T13:24:50Z</time>
</trkpt>
<trkpt lat="49.20505698770285" lon="8.268629964441061">
<ele>127</ele>
<time>2023-05-17T13:24:51Z</time>
</trkpt>
<trkpt lat="49.20508791692555" lon="8.268576990813017">
<ele>127</ele>
<time>2023-05-17T13:24:52Z</time>
</trkpt>
<trkpt lat="49.205121947452426" lon="8.26851999387145">
<ele>127</ele>
<time>2023-05-17T13:24:53Z</time>
</trkpt>
<trkpt lat="49.20515497215092" lon="8.2684569619596">
<ele>127</ele>
<time>2023-05-17T13:24:54Z</time>
</trkpt>
<trkpt lat="49.20519294217229" lon="8.268394935876131">
<ele>127</ele>
<time>2023-05-17T13:24:55Z</time>
</trkpt>
<trkpt lat="49.20522999018431" lon="8.268336933106184">
<ele>127</ele>
<time>2023-05-17T13:24:56Z</time>
</trkpt>
<trkpt lat="49.205267960205674" lon="8.268281947821379">
<ele>127</ele>
<time>2023-05-17T13:24:57Z</time>
</trkpt>
<trkpt lat="49.20530693605542" lon="8.268231991678476">
<ele>127</ele>
<time>2023-05-17T13:24:58Z</time>
</trkpt>
<trkpt lat="49.20534197241068" lon="8.268182957544923">
<ele>127</ele>
<time>2023-05-17T13:24:59Z</time>
</trkpt>
<trkpt lat="49.205376924946904" lon="8.268136940896511">
<ele>127</ele>
<time>2023-05-17T13:25:00Z</time>
</trkpt>
<trkpt lat="49.20541196130216" lon="8.268086984753609">
<ele>127</ele>
<time>2023-05-17T13:25:01Z</time>
</trkpt>
<trkpt lat="49.20544498600066" lon="8.268034933134913">
<ele>127</ele>
<time>2023-05-17T13:25:02Z</time>
</trkpt>
<trkpt lat="49.20547692105174" lon="8.26798195950687">
<ele>127</ele>
<time>2023-05-17T13:25:03Z</time>
</trkpt>
<trkpt lat="49.205511957407" lon="8.267929991707206">
<ele>127</ele>
<time>2023-05-17T13:25:04Z</time>
</trkpt>
<trkpt lat="49.20554498210549" lon="8.26787693426013">
<ele>127</ele>
<time>2023-05-17T13:25:05Z</time>
</trkpt>
<trkpt lat="49.20557297766209" lon="8.267822954803705">
<ele>127</ele>
<time>2023-05-17T13:25:06Z</time>
</trkpt>
<trkpt lat="49.2056049965322" lon="8.267762940376997">
<ele>127</ele>
<time>2023-05-17T13:25:07Z</time>
</trkpt>
<trkpt lat="49.205637937411666" lon="8.267706949263811">
<ele>127</ele>
<time>2023-05-17T13:25:08Z</time>
</trkpt>
<trkpt lat="49.20566693879664" lon="8.267649952322245">
<ele>127</ele>
<time>2023-05-17T13:25:09Z</time>
</trkpt>
<trkpt lat="49.205696946009994" lon="8.2675969786942">
<ele>127</ele>
<time>2023-05-17T13:25:10Z</time>
</trkpt>
<trkpt lat="49.20572695322335" lon="8.267544927075505">
<ele>127</ele>
<time>2023-05-17T13:25:11Z</time>
</trkpt>
<trkpt lat="49.20575494877994" lon="8.267491953447461">
<ele>127</ele>
<time>2023-05-17T13:25:12Z</time>
</trkpt>
<trkpt lat="49.205784955993295" lon="8.267436968162656">
<ele>127</ele>
<time>2023-05-17T13:25:13Z</time>
</trkpt>
<trkpt lat="49.20581798069179" lon="8.26738491654396">
<ele>127</ele>
<time>2023-05-17T13:25:14Z</time>
</trkpt>
<trkpt lat="49.205851927399635" lon="8.267327919602394">
<ele>127</ele>
<time>2023-05-17T13:25:15Z</time>
</trkpt>
<trkpt lat="49.20587992295623" lon="8.267267988994718">
<ele>127</ele>
<time>2023-05-17T13:25:16Z</time>
</trkpt>
<trkpt lat="49.205912947654724" lon="8.267206968739629">
<ele>127</ele>
<time>2023-05-17T13:25:17Z</time>
</trkpt>
<trkpt lat="49.20594496652484" lon="8.267151983454823">
<ele>127</ele>
<time>2023-05-17T13:25:18Z</time>
</trkpt>
<trkpt lat="49.20597497373819" lon="8.267097920179367">
<ele>127</ele>
<time>2023-05-17T13:25:19Z</time>
</trkpt>
<trkpt lat="49.20600498095155" lon="8.267047964036465">
<ele>127</ele>
<time>2023-05-17T13:25:20Z</time>
</trkpt>
<trkpt lat="49.20603297650814" lon="8.26699792407453">
<ele>127</ele>
<time>2023-05-17T13:25:21Z</time>
</trkpt>
<trkpt lat="49.206061977893114" lon="8.26695492491126">
<ele>127</ele>
<time>2023-05-17T13:25:22Z</time>
</trkpt>
<trkpt lat="49.20609198510647" lon="8.266914943233132">
<ele>127.20000000000005</ele>
<time>2023-05-17T13:25:23Z</time>
</trkpt>
<trkpt lat="49.20611696317792" lon="8.266874961555004">
<ele>127.20000000000005</ele>
<time>2023-05-17T13:25:24Z</time>
</trkpt>
<trkpt lat="49.20614697039127" lon="8.266834979876876">
<ele>127.20000000000005</ele>
<time>2023-05-17T13:25:25Z</time>
</trkpt>
<trkpt lat="49.20617798343301" lon="8.266794998198748">
<ele>127.20000000000005</ele>
<time>2023-05-17T13:25:26Z</time>
</trkpt>
<trkpt lat="49.20621193014085" lon="8.266754932701588">
<ele>127.20000000000005</ele>
<time>2023-05-17T13:25:27Z</time>
</trkpt>
<trkpt lat="49.20624193735421" lon="8.266709921881557">
<ele>127.20000000000005</ele>
<time>2023-05-17T13:25:28Z</time>
</trkpt>
<trkpt lat="49.2062699329108" lon="8.266662983223796">
<ele>127.20000000000005</ele>
<time>2023-05-17T13:25:29Z</time>
</trkpt>
<trkpt lat="49.206302957609296" lon="8.266619984060526">
<ele>127.20000000000005</ele>
<time>2023-05-17T13:25:30Z</time>
</trkpt>
<trkpt lat="49.20634193345904" lon="8.266582936048508">
<ele>127.20000000000005</ele>
<time>2023-05-17T13:25:31Z</time>
</trkpt>
<trkpt lat="49.20638292096555" lon="8.26654496602714">
<ele>127.20000000000005</ele>
<time>2023-05-17T13:25:32Z</time>
</trkpt>
<trkpt lat="49.20642499811947" lon="8.266507918015122">
<ele>127.20000000000005</ele>
<time>2023-05-17T13:25:33Z</time>
</trkpt>
<trkpt lat="49.20646296814084" lon="8.266469947993755">
<ele>127.20000000000005</ele>
<time>2023-05-17T13:25:34Z</time>
</trkpt>
<trkpt lat="49.20649993233383" lon="8.266432983800769">
<ele>127.20000000000005</ele>
<time>2023-05-17T13:25:35Z</time>
</trkpt>
<trkpt lat="49.20653295703232" lon="8.266396941617131">
<ele>127.20000000000005</ele>
<time>2023-05-17T13:25:36Z</time>
</trkpt>
<trkpt lat="49.20656799338758" lon="8.266356959939003">
<ele>127.39999999999998</ele>
<time>2023-05-17T13:25:37Z</time>
</trkpt>
<trkpt lat="49.20660696923733" lon="8.266319995746017">
<ele>127.39999999999998</ele>
<time>2023-05-17T13:25:38Z</time>
</trkpt>
<trkpt lat="49.20664292760193" lon="8.266279930248857">
<ele>127.39999999999998</ele>
<time>2023-05-17T13:25:39Z</time>
</trkpt>
<trkpt lat="49.20667997561395" lon="8.266239948570728">
<ele>127.39999999999998</ele>
<time>2023-05-17T13:25:40Z</time>
</trkpt>
<trkpt lat="49.206709982827306" lon="8.266201978549361">
<ele>127.39999999999998</ele>
<time>2023-05-17T13:25:41Z</time>
</trkpt>
<trkpt lat="49.20674795284867" lon="8.266166942194104">
<ele>127.39999999999998</ele>
<time>2023-05-17T13:25:42Z</time>
</trkpt>
<trkpt lat="49.20678994618356" lon="8.266134923323989">
<ele>127.39999999999998</ele>
<time>2023-05-17T13:25:43Z</time>
</trkpt>
<trkpt lat="49.20683193951845" lon="8.266102988272905">
<ele>127.39999999999998</ele>
<time>2023-05-17T13:25:44Z</time>
</trkpt>
<trkpt lat="49.20687695033848" lon="8.26606996357441">
<ele>127.39999999999998</ele>
<time>2023-05-17T13:25:45Z</time>
</trkpt>
<trkpt lat="49.206922966986895" lon="8.266037944704294">
<ele>127.39999999999998</ele>
<time>2023-05-17T13:25:46Z</time>
</trkpt>
<trkpt lat="49.206971917301416" lon="8.266014978289604">
<ele>127.39999999999998</ele>
<time>2023-05-17T13:25:47Z</time>
</trkpt>
<trkpt lat="49.20701994560659" lon="8.265987988561392">
<ele>127.39999999999998</ele>
<time>2023-05-17T13:25:48Z</time>
</trkpt>
<trkpt lat="49.207076942548156" lon="8.265962926670909">
<ele>127.39999999999998</ele>
<time>2023-05-17T13:25:49Z</time>
</trkpt>
<trkpt lat="49.20713192783296" lon="8.265936942771077">
<ele>127.39999999999998</ele>
<time>2023-05-17T13:25:50Z</time>
</trkpt>
<trkpt lat="49.207182973623276" lon="8.265906935557723">
<ele>127.39999999999998</ele>
<time>2023-05-17T13:25:51Z</time>
</trkpt>
<trkpt lat="49.20723292976618" lon="8.26587793417275">
<ele>127.39999999999998</ele>
<time>2023-05-17T13:25:52Z</time>
</trkpt>
<trkpt lat="49.20728498138487" lon="8.265851950272918">
<ele>127.39999999999998</ele>
<time>2023-05-17T13:25:53Z</time>
</trkpt>
<trkpt lat="49.207334937527776" lon="8.265826972201467">
<ele>127.39999999999998</ele>
<time>2023-05-17T13:25:54Z</time>
</trkpt>
<trkpt lat="49.20738497748971" lon="8.265804927796125">
<ele>127.39999999999998</ele>
<time>2023-05-17T13:25:55Z</time>
</trkpt>
<trkpt lat="49.20743493363261" lon="8.265786990523338">
<ele>127.39999999999998</ele>
<time>2023-05-17T13:25:56Z</time>
</trkpt>
<trkpt lat="49.20748698525131" lon="8.265767963603139">
<ele>127.39999999999998</ele>
<time>2023-05-17T13:25:57Z</time>
</trkpt>
<trkpt lat="49.20753694139421" lon="8.265752959996462">
<ele>127.39999999999998</ele>
<time>2023-05-17T13:25:58Z</time>
</trkpt>
<trkpt lat="49.20758496969938" lon="8.265737956389785">
<ele>127.20000000000005</ele>
<time>2023-05-17T13:25:59Z</time>
</trkpt>
<trkpt lat="49.207634925842285" lon="8.265722952783108">
<ele>127.20000000000005</ele>
<time>2023-05-17T13:26:00Z</time>
</trkpt>
<trkpt lat="49.20768295414746" lon="8.26570794917643">
<ele>127.20000000000005</ele>
<time>2023-05-17T13:26:01Z</time>
</trkpt>
<trkpt lat="49.20773198828101" lon="8.265694957226515">
<ele>127.20000000000005</ele>
<time>2023-05-17T13:26:02Z</time>
</trkpt>
<trkpt lat="49.207781944423914" lon="8.26568297110498">
<ele>127.20000000000005</ele>
<time>2023-05-17T13:26:03Z</time>
</trkpt>
<trkpt lat="49.20783299021423" lon="8.265679953619838">
<ele>127.20000000000005</ele>
<time>2023-05-17T13:26:04Z</time>
</trkpt>
<trkpt lat="49.20788294635713" lon="8.265676936134696">
<ele>127.20000000000005</ele>
<time>2023-05-17T13:26:05Z</time>
</trkpt>
<trkpt lat="49.207932986319065" lon="8.265667967498302">
<ele>127.20000000000005</ele>
<time>2023-05-17T13:26:06Z</time>
</trkpt>
<trkpt lat="49.207979924976826" lon="8.265659920871258">
<ele>127.20000000000005</ele>
<time>2023-05-17T13:26:07Z</time>
</trkpt>
<trkpt lat="49.20802996493876" lon="8.265649946406484">
<ele>127.20000000000005</ele>
<time>2023-05-17T13:26:08Z</time>
</trkpt>
<trkpt lat="49.208082938566804" lon="8.265642989426851">
<ele>127.20000000000005</ele>
<time>2023-05-17T13:26:09Z</time>
</trkpt>
<trkpt lat="49.20813691802323" lon="8.265637960284948">
<ele>127.20000000000005</ele>
<time>2023-05-17T13:26:10Z</time>
</trkpt>
<trkpt lat="49.208189975470304" lon="8.265634942799807">
<ele>127.20000000000005</ele>
<time>2023-05-17T13:26:11Z</time>
</trkpt>
<trkpt lat="49.20824194326997" lon="8.265629997476935">
<ele>127.20000000000005</ele>
<time>2023-05-17T13:26:12Z</time>
</trkpt>
<trkpt lat="49.2082919832319" lon="8.265627985820174">
<ele>127.20000000000005</ele>
<time>2023-05-17T13:26:13Z</time>
</trkpt>
<trkpt lat="49.20833992771804" lon="8.265631925314665">
<ele>127.20000000000005</ele>
<time>2023-05-17T13:26:14Z</time>
</trkpt>
<trkpt lat="49.208386950194836" lon="8.265634942799807">
<ele>127.20000000000005</ele>
<time>2023-05-17T13:26:15Z</time>
</trkpt>
<trkpt lat="49.20843196101487" lon="8.265637960284948">
<ele>127.20000000000005</ele>
<time>2023-05-17T13:26:16Z</time>
</trkpt>
<trkpt lat="49.20847496017814" lon="8.26563997194171">
<ele>127.20000000000005</ele>
<time>2023-05-17T13:26:17Z</time>
</trkpt>
<trkpt lat="49.20851795934141" lon="8.265646928921342">
<ele>127.20000000000005</ele>
<time>2023-05-17T13:26:18Z</time>
</trkpt>
<trkpt lat="49.20856196433306" lon="8.265654975548387">
<ele>127</ele>
<time>2023-05-17T13:26:19Z</time>
</trkpt>
<trkpt lat="49.20860496349633" lon="8.2656629383564">
<ele>127</ele>
<time>2023-05-17T13:26:20Z</time>
</trkpt>
<trkpt lat="49.2086479626596" lon="8.265669979155064">
<ele>127</ele>
<time>2023-05-17T13:26:21Z</time>
</trkpt>
<trkpt lat="49.20869297347963" lon="8.265676936134696">
<ele>127</ele>
<time>2023-05-17T13:26:22Z</time>
</trkpt>
<trkpt lat="49.20873798429966" lon="8.265686994418502">
<ele>127</ele>
<time>2023-05-17T13:26:23Z</time>
</trkpt>
<trkpt lat="49.20878198929131" lon="8.265692945569754">
<ele>127</ele>
<time>2023-05-17T13:26:24Z</time>
</trkpt>
<trkpt lat="49.20882498845458" lon="8.265701998025179">
<ele>127</ele>
<time>2023-05-17T13:26:25Z</time>
</trkpt>
<trkpt lat="49.20886698178947" lon="8.26570694334805">
<ele>127</ele>
<time>2023-05-17T13:26:26Z</time>
</trkpt>
<trkpt lat="49.20890796929598" lon="8.265712978318334">
<ele>127</ele>
<time>2023-05-17T13:26:27Z</time>
</trkpt>
<trkpt lat="49.20894795097411" lon="8.265721946954727">
<ele>127</ele>
<time>2023-05-17T13:26:28Z</time>
</trkpt>
<trkpt lat="49.208989944308996" lon="8.265729993581772">
<ele>127</ele>
<time>2023-05-17T13:26:29Z</time>
</trkpt>
<trkpt lat="49.209029925987124" lon="8.265736950561404">
<ele>127</ele>
<time>2023-05-17T13:26:30Z</time>
</trkpt>
<trkpt lat="49.20906697399914" lon="8.265741979703307">
<ele>127</ele>
<time>2023-05-17T13:26:31Z</time>
</trkpt>
<trkpt lat="49.20910494402051" lon="8.26574994251132">
<ele>127</ele>
<time>2023-05-17T13:26:32Z</time>
</trkpt>
<trkpt lat="49.2091469373554" lon="8.265757989138365">
<ele>127.20000000000005</ele>
<time>2023-05-17T13:26:33Z</time>
</trkpt>
<trkpt lat="49.20918792486191" lon="8.265767963603139">
<ele>127.20000000000005</ele>
<time>2023-05-17T13:26:34Z</time>
</trkpt>
<trkpt lat="49.20923192985356" lon="8.265779949724674">
<ele>127.20000000000005</ele>
<time>2023-05-17T13:26:35Z</time>
</trkpt>
<trkpt lat="49.20927492901683" lon="8.26579193584621">
<ele>127.20000000000005</ele>
<time>2023-05-17T13:26:36Z</time>
</trkpt>
<trkpt lat="49.20931993983686" lon="8.265804927796125">
<ele>127.20000000000005</ele>
<time>2023-05-17T13:26:37Z</time>
</trkpt>
<trkpt lat="49.20936293900013" lon="8.265816997736692">
<ele>127.20000000000005</ele>
<time>2023-05-17T13:26:38Z</time>
</trkpt>
<trkpt lat="49.20940794982016" lon="8.265824960544705">
<ele>127.20000000000005</ele>
<time>2023-05-17T13:26:39Z</time>
</trkpt>
<trkpt lat="49.20945195481181" lon="8.26583493500948">
<ele>127.20000000000005</ele>
<time>2023-05-17T13:26:40Z</time>
</trkpt>
<trkpt lat="49.20949294231832" lon="8.265842981636524">
<ele>127.20000000000005</ele>
<time>2023-05-17T13:26:41Z</time>
</trkpt>
<trkpt lat="49.20953996479511" lon="8.265849938616157">
<ele>127.20000000000005</ele>
<time>2023-05-17T13:26:42Z</time>
</trkpt>
<trkpt lat="49.209584975615144" lon="8.265859996899962">
<ele>127.20000000000005</ele>
<time>2023-05-17T13:26:43Z</time>
</trkpt>
<trkpt lat="49.209631998091936" lon="8.265867959707975">
<ele>127.20000000000005</ele>
<time>2023-05-17T13:26:44Z</time>
</trkpt>
<trkpt lat="49.209676925092936" lon="8.26587793417275">
<ele>127.20000000000005</ele>
<time>2023-05-17T13:26:45Z</time>
</trkpt>
<trkpt lat="49.20972294174135" lon="8.265886986628175">
<ele>127.20000000000005</ele>
<time>2023-05-17T13:26:46Z</time>
</trkpt>
<trkpt lat="49.20976996421814" lon="8.265896961092949">
<ele>127.20000000000005</ele>
<time>2023-05-17T13:26:47Z</time>
</trkpt>
<trkpt lat="49.20981799252331" lon="8.265906935557723">
<ele>127.20000000000005</ele>
<time>2023-05-17T13:26:48Z</time>
</trkpt>
<trkpt lat="49.209866942837834" lon="8.265914982184768">
<ele>127.20000000000005</ele>
<time>2023-05-17T13:26:49Z</time>
</trkpt>
<trkpt lat="49.20991497114301" lon="8.26592294499278">
<ele>127.20000000000005</ele>
<time>2023-05-17T13:26:50Z</time>
</trkpt>
<trkpt lat="49.20996299944818" lon="8.265931997448206">
<ele>127.20000000000005</ele>
<time>2023-05-17T13:26:51Z</time>
</trkpt>
<trkpt lat="49.21001295559108" lon="8.265939960256219">
<ele>127.20000000000005</ele>
<time>2023-05-17T13:26:52Z</time>
</trkpt>
<trkpt lat="49.210061989724636" lon="8.265947923064232">
<ele>127.20000000000005</ele>
<time>2023-05-17T13:26:53Z</time>
</trkpt>
<trkpt lat="49.21011194586754" lon="8.265956975519657">
<ele>127.20000000000005</ele>
<time>2023-05-17T13:26:54Z</time>
</trkpt>
<trkpt lat="49.21015997417271" lon="8.265959993004799">
<ele>127.20000000000005</ele>
<time>2023-05-17T13:26:55Z</time>
</trkpt>
<trkpt lat="49.210209930315614" lon="8.265959993004799">
<ele>127.20000000000005</ele>
<time>2023-05-17T13:26:56Z</time>
</trkpt>
<trkpt lat="49.21025997027755" lon="8.265959993004799">
<ele>127.20000000000005</ele>
<time>2023-05-17T13:26:57Z</time>
</trkpt>
<trkpt lat="49.21030992642045" lon="8.265959993004799">
<ele>127.20000000000005</ele>
<time>2023-05-17T13:26:58Z</time>
</trkpt>
<trkpt lat="49.21035493724048" lon="8.265957981348038">
<ele>127.39999999999998</ele>
<time>2023-05-17T13:26:59Z</time>
</trkpt>
<trkpt lat="49.21039693057537" lon="8.265951946377754">
<ele>127.39999999999998</ele>
<time>2023-05-17T13:27:00Z</time>
</trkpt>
<trkpt lat="49.21043791808188" lon="8.265939960256219">
<ele>127.39999999999998</ele>
<time>2023-05-17T13:27:01Z</time>
</trkpt>
<trkpt lat="49.21048192307353" lon="8.265929985791445">
<ele>127.39999999999998</ele>
<time>2023-05-17T13:27:02Z</time>
</trkpt>
<trkpt lat="49.21052299439907" lon="8.265929985791445">
<ele>127.39999999999998</ele>
<time>2023-05-17T13:27:03Z</time>
</trkpt>
<trkpt lat="49.21056792140007" lon="8.265936942771077">
<ele>127.39999999999998</ele>
<time>2023-05-17T13:27:04Z</time>
</trkpt>
<trkpt lat="49.21061494387686" lon="8.265946917235851">
<ele>127.39999999999998</ele>
<time>2023-05-17T13:27:05Z</time>
</trkpt>
<trkpt lat="49.210661966353655" lon="8.265954963862896">
<ele>127.60000000000002</ele>
<time>2023-05-17T13:27:06Z</time>
</trkpt>
<trkpt lat="49.21071192249656" lon="8.265961920842528">
<ele>127.60000000000002</ele>
<time>2023-05-17T13:27:07Z</time>
</trkpt>
<trkpt lat="49.21076296828687" lon="8.26596493832767">
<ele>127.60000000000002</ele>
<time>2023-05-17T13:27:08Z</time>
</trkpt>
<trkpt lat="49.210814936086535" lon="8.265962926670909">
<ele>127.60000000000002</ele>
<time>2023-05-17T13:27:09Z</time>
</trkpt>
<trkpt lat="49.21086799353361" lon="8.265961920842528">
<ele>127.60000000000002</ele>
<time>2023-05-17T13:27:10Z</time>
</trkpt>
<trkpt lat="49.210921972990036" lon="8.265957981348038">
<ele>127.60000000000002</ele>
<time>2023-05-17T13:27:11Z</time>
</trkpt>
<trkpt lat="49.21097695827484" lon="8.265952952206135">
<ele>127.60000000000002</ele>
<time>2023-05-17T13:27:12Z</time>
</trkpt>
<trkpt lat="49.21103194355965" lon="8.265946917235851">
<ele>127.60000000000002</ele>
<time>2023-05-17T13:27:13Z</time>
</trkpt>
<trkpt lat="49.21108692884445" lon="8.265934931114316">
<ele>127.60000000000002</ele>
<time>2023-05-17T13:27:14Z</time>
</trkpt>
<trkpt lat="49.21113998629153" lon="8.265924956649542">
<ele>127.60000000000002</ele>
<time>2023-05-17T13:27:15Z</time>
</trkpt>
<trkpt lat="49.21119195409119" lon="8.265909953042865">
<ele>127.60000000000002</ele>
<time>2023-05-17T13:27:16Z</time>
</trkpt>
<trkpt lat="49.211241994053125" lon="8.265892937779427">
<ele>127.39999999999998</ele>
<time>2023-05-17T13:27:17Z</time>
</trkpt>
<trkpt lat="49.21129195019603" lon="8.265876928344369">
<ele>127.39999999999998</ele>
<time>2023-05-17T13:27:18Z</time>
</trkpt>
<trkpt lat="49.21134299598634" lon="8.265861924737692">
<ele>127.39999999999998</ele>
<time>2023-05-17T13:27:19Z</time>
</trkpt>
<trkpt lat="49.211392952129245" lon="8.265847926959395">
<ele>127.39999999999998</ele>
<time>2023-05-17T13:27:20Z</time>
</trkpt>
<trkpt lat="49.21144793741405" lon="8.26583694666624">
<ele>127.39999999999998</ele>
<time>2023-05-17T13:27:21Z</time>
</trkpt>
<trkpt lat="49.211497977375984" lon="8.265824960544705">
<ele>127.39999999999998</ele>
<time>2023-05-17T13:27:22Z</time>
</trkpt>
<trkpt lat="49.211546927690506" lon="8.265809956938028">
<ele>127.39999999999998</ele>
<time>2023-05-17T13:27:23Z</time>
</trkpt>
<trkpt lat="49.21159294433892" lon="8.26579294167459">
<ele>127.39999999999998</ele>
<time>2023-05-17T13:27:24Z</time>
</trkpt>
<trkpt lat="49.21163996681571" lon="8.265774920582771">
<ele>127.20000000000005</ele>
<time>2023-05-17T13:27:25Z</time>
</trkpt>
<trkpt lat="49.21168497763574" lon="8.265757989138365">
<ele>127.20000000000005</ele>
<time>2023-05-17T13:27:26Z</time>
</trkpt>
<trkpt lat="49.21172998845577" lon="8.265739968046546">
<ele>127.20000000000005</ele>
<time>2023-05-17T13:27:27Z</time>
</trkpt>
<trkpt lat="49.21177298761904" lon="8.265719935297966">
<ele>127</ele>
<time>2023-05-17T13:27:28Z</time>
</trkpt>
<trkpt lat="49.21181498095393" lon="8.265699986368418">
<ele>127</ele>
<time>2023-05-17T13:27:29Z</time>
</trkpt>
<trkpt lat="49.2118579801172" lon="8.265679953619838">
<ele>127.20000000000005</ele>
<time>2023-05-17T13:27:30Z</time>
</trkpt>
<trkpt lat="49.211906930431724" lon="8.265656987205148">
<ele>127.20000000000005</ele>
<time>2023-05-17T13:27:31Z</time>
</trkpt>
<trkpt lat="49.211951941251755" lon="8.265634942799807">
<ele>127.20000000000005</ele>
<time>2023-05-17T13:27:32Z</time>
</trkpt>
<trkpt lat="49.211994940415025" lon="8.265606947243214">
<ele>127.20000000000005</ele>
<time>2023-05-17T13:27:33Z</time>
</trkpt>
<trkpt lat="49.212036933749914" lon="8.26557694002986">
<ele>127.20000000000005</ele>
<time>2023-05-17T13:27:34Z</time>
</trkpt>
<trkpt lat="49.212079932913184" lon="8.265547938644886">
<ele>127.20000000000005</ele>
<time>2023-05-17T13:27:35Z</time>
</trkpt>
<trkpt lat="49.212122932076454" lon="8.265516925603151">
<ele>127.20000000000005</ele>
<time>2023-05-17T13:27:36Z</time>
</trkpt>
<trkpt lat="49.21216995455325" lon="8.265482978895307">
<ele>127.20000000000005</ele>
<time>2023-05-17T13:27:37Z</time>
</trkpt>
<trkpt lat="49.21221798285842" lon="8.26544995419681">
<ele>127.20000000000005</ele>
<time>2023-05-17T13:27:38Z</time>
</trkpt>
<trkpt lat="49.21226995065808" lon="8.26542698778212">
<ele>127.20000000000005</ele>
<time>2023-05-17T13:27:39Z</time>
</trkpt>
<trkpt lat="49.21232191845775" lon="8.265397986397147">
<ele>127.39999999999998</ele>
<time>2023-05-17T13:27:40Z</time>
</trkpt>
<trkpt lat="49.21236994676292" lon="8.265369990840554">
<ele>127.39999999999998</ele>
<time>2023-05-17T13:27:41Z</time>
</trkpt>
<trkpt lat="49.21241194009781" lon="8.265341995283961">
<ele>127.39999999999998</ele>
<time>2023-05-17T13:27:42Z</time>
</trkpt>
<trkpt lat="49.212446976453066" lon="8.265311988070607">
<ele>127.60000000000002</ele>
<time>2023-05-17T13:27:43Z</time>
</trkpt>
<trkpt lat="49.21247991733253" lon="8.26527795754373">
<ele>127.60000000000002</ele>
<time>2023-05-17T13:27:44Z</time>
</trkpt>
<trkpt lat="49.21251998282969" lon="8.265244932845235">
<ele>127.60000000000002</ele>
<time>2023-05-17T13:27:45Z</time>
</trkpt>
<trkpt lat="49.21255795285106" lon="8.26521199196577">
<ele>127.79999999999995</ele>
<time>2023-05-17T13:27:46Z</time>
</trkpt>
<trkpt lat="49.212597934529185" lon="8.265176955610514">
<ele>127.79999999999995</ele>
<time>2023-05-17T13:27:47Z</time>
</trkpt>
<trkpt lat="49.21264495700598" lon="8.265139991417527">
<ele>127.79999999999995</ele>
<time>2023-05-17T13:27:48Z</time>
</trkpt>
<trkpt lat="49.21269298531115" lon="8.265107972547412">
<ele>127.79999999999995</ele>
<time>2023-05-17T13:27:49Z</time>
</trkpt>
<trkpt lat="49.21274193562567" lon="8.265072936192155">
<ele>127.79999999999995</ele>
<time>2023-05-17T13:27:50Z</time>
</trkpt>
<trkpt lat="49.212789963930845" lon="8.26503798365593">
<ele>127.79999999999995</ele>
<time>2023-05-17T13:27:51Z</time>
</trkpt>
<trkpt lat="49.21284494921565" lon="8.265004958957434">
<ele>127.79999999999995</ele>
<time>2023-05-17T13:27:52Z</time>
</trkpt>
<trkpt lat="49.212897922843695" lon="8.264969922602177">
<ele>127.79999999999995</ele>
<time>2023-05-17T13:27:53Z</time>
</trkpt>
<trkpt lat="49.21294494532049" lon="8.26493295840919">
<ele>127.79999999999995</ele>
<time>2023-05-17T13:27:54Z</time>
</trkpt>
<trkpt lat="49.21298794448376" lon="8.26488995924592">
<ele>127.79999999999995</ele>
<time>2023-05-17T13:27:55Z</time>
</trkpt>
<trkpt lat="49.213029937818646" lon="8.264844948425889">
<ele>127.79999999999995</ele>
<time>2023-05-17T13:27:56Z</time>
</trkpt>
<trkpt lat="49.21307696029544" lon="8.264806978404522">
<ele>127.60000000000002</ele>
<time>2023-05-17T13:27:57Z</time>
</trkpt>
<trkpt lat="49.21312691643834" lon="8.264764985069633">
<ele>127.60000000000002</ele>
<time>2023-05-17T13:27:58Z</time>
</trkpt>
<trkpt lat="49.21316999942064" lon="8.26471695676446">
<ele>127.60000000000002</ele>
<time>2023-05-17T13:27:59Z</time>
</trkpt>
<trkpt lat="49.21321199275553" lon="8.264666916802526">
<ele>127.60000000000002</ele>
<time>2023-05-17T13:28:00Z</time>
</trkpt>
<trkpt lat="49.21325298026204" lon="8.264616960659623">
<ele>127.60000000000002</ele>
<time>2023-05-17T13:28:01Z</time>
</trkpt>
<trkpt lat="49.21329799108207" lon="8.264566920697689">
<ele>127.60000000000002</ele>
<time>2023-05-17T13:28:02Z</time>
</trkpt>
<trkpt lat="49.21334199607372" lon="8.26452199369669">
<ele>127.60000000000002</ele>
<time>2023-05-17T13:28:03Z</time>
</trkpt>
<trkpt lat="49.21338298358023" lon="8.264474971219897">
<ele>127.60000000000002</ele>
<time>2023-05-17T13:28:04Z</time>
</trkpt>
<trkpt lat="49.21342698857188" lon="8.264426942914724">
<ele>127.60000000000002</ele>
<time>2023-05-17T13:28:05Z</time>
</trkpt>
<trkpt lat="49.21346495859325" lon="8.264379920437932">
<ele>127.60000000000002</ele>
<time>2023-05-17T13:28:06Z</time>
</trkpt>
<trkpt lat="49.21350494027138" lon="8.26433197595179">
<ele>127.60000000000002</ele>
<time>2023-05-17T13:28:07Z</time>
</trkpt>
<trkpt lat="49.213542994111776" lon="8.264281935989857">
<ele>127.60000000000002</ele>
<time>2023-05-17T13:28:08Z</time>
</trkpt>
<trkpt lat="49.213577946648" lon="8.264229968190193">
<ele>127.60000000000002</ele>
<time>2023-05-17T13:28:09Z</time>
</trkpt>
<trkpt lat="49.21361499466002" lon="8.264176994562149">
<ele>127.60000000000002</ele>
<time>2023-05-17T13:28:10Z</time>
</trkpt>
<trkpt lat="49.213647935539484" lon="8.26411698013544">
<ele>127.60000000000002</ele>
<time>2023-05-17T13:28:11Z</time>
</trkpt>
<trkpt lat="49.21368791721761" lon="8.264057971537113">
<ele>127.60000000000002</ele>
<time>2023-05-17T13:28:12Z</time>
</trkpt>
<trkpt lat="49.21372999437153" lon="8.263999968767166">
<ele>127.60000000000002</ele>
<time>2023-05-17T13:28:13Z</time>
</trkpt>
<trkpt lat="49.21377492137253" lon="8.2639429718256">
<ele>127.60000000000002</ele>
<time>2023-05-17T13:28:14Z</time>
</trkpt>
<trkpt lat="49.213819932192564" lon="8.263886980712414">
<ele>127.60000000000002</ele>
<time>2023-05-17T13:28:15Z</time>
</trkpt>
<trkpt lat="49.21386192552745" lon="8.263827972114086">
<ele>127.60000000000002</ele>
<time>2023-05-17T13:28:16Z</time>
</trkpt>
<trkpt lat="49.213902996852994" lon="8.263767957687378">
<ele>127.60000000000002</ele>
<time>2023-05-17T13:28:17Z</time>
</trkpt>
<trkpt lat="49.21394297853112" lon="8.26370995491743">
<ele>127.60000000000002</ele>
<time>2023-05-17T13:28:18Z</time>
</trkpt>
<trkpt lat="49.21398798935115" lon="8.263662932440639">
<ele>127.60000000000002</ele>
<time>2023-05-17T13:28:19Z</time>
</trkpt>
<trkpt lat="49.214031994342804" lon="8.263616999611259">
<ele>127.60000000000002</ele>
<time>2023-05-17T13:28:20Z</time>
</trkpt>
<trkpt lat="49.21407197602093" lon="8.263564947992563">
<ele>127.60000000000002</ele>
<time>2023-05-17T13:28:21Z</time>
</trkpt>
<trkpt lat="49.21411195769906" lon="8.263509962707758">
<ele>127.60000000000002</ele>
<time>2023-05-17T13:28:22Z</time>
</trkpt>
<trkpt lat="49.2141479998827" lon="8.263451959937811">
<ele>127.60000000000002</ele>
<time>2023-05-17T13:28:23Z</time>
</trkpt>
<trkpt lat="49.21418194659054" lon="8.263389933854342">
<ele>127.60000000000002</ele>
<time>2023-05-17T13:28:24Z</time>
</trkpt>
<trkpt lat="49.21421295963228" lon="8.263329919427633">
<ele>127.60000000000002</ele>
<time>2023-05-17T13:28:25Z</time>
</trkpt>
<trkpt lat="49.214249923825264" lon="8.263272922486067">
<ele>127.60000000000002</ele>
<time>2023-05-17T13:28:26Z</time>
</trkpt>
<trkpt lat="49.21428797766566" lon="8.263219948858023">
<ele>127.60000000000002</ele>
<time>2023-05-17T13:28:27Z</time>
</trkpt>
<trkpt lat="49.21432997100055" lon="8.263162951916456">
<ele>127.60000000000002</ele>
<time>2023-05-17T13:28:28Z</time>
</trkpt>
<trkpt lat="49.21437196433544" lon="8.263111989945173">
<ele>127.60000000000002</ele>
<time>2023-05-17T13:28:29Z</time>
</trkpt>
<trkpt lat="49.21441496349871" lon="8.263056920841336">
<ele>127.60000000000002</ele>
<time>2023-05-17T13:28:30Z</time>
</trkpt>
<trkpt lat="49.21445796266198" lon="8.263004953041673">
<ele>127.60000000000002</ele>
<time>2023-05-17T13:28:31Z</time>
</trkpt>
<trkpt lat="49.21449794434011" lon="8.26295298524201">
<ele>127.60000000000002</ele>
<time>2023-05-17T13:28:32Z</time>
</trkpt>
<trkpt lat="49.21453792601824" lon="8.262904956936836">
<ele>127.60000000000002</ele>
<time>2023-05-17T13:28:33Z</time>
</trkpt>
<trkpt lat="49.2145779915154" lon="8.262854916974902">
<ele>127.60000000000002</ele>
<time>2023-05-17T13:28:34Z</time>
</trkpt>
<trkpt lat="49.21461998485029" lon="8.262804960832">
<ele>127.60000000000002</ele>
<time>2023-05-17T13:28:35Z</time>
</trkpt>
<trkpt lat="49.21466499567032" lon="8.262747963890433">
<ele>127.60000000000002</ele>
<time>2023-05-17T13:28:36Z</time>
</trkpt>
<trkpt lat="49.21471193432808" lon="8.262692978605628">
<ele>127.60000000000002</ele>
<time>2023-05-17T13:28:37Z</time>
</trkpt>
<trkpt lat="49.21475292183459" lon="8.262636987492442">
<ele>127.60000000000002</ele>
<time>2023-05-17T13:28:38Z</time>
</trkpt>
<trkpt lat="49.21479198150337" lon="8.262582924216986">
<ele>127.60000000000002</ele>
<time>2023-05-17T13:28:39Z</time>
</trkpt>
<trkpt lat="49.214829951524734" lon="8.262531962245703">
<ele>127.79999999999995</ele>
<time>2023-05-17T13:28:40Z</time>
</trkpt>
<trkpt lat="49.2148679215461" lon="8.262477982789278">
<ele>127.79999999999995</ele>
<time>2023-05-17T13:28:41Z</time>
</trkpt>
<trkpt lat="49.21490798704326" lon="8.262424925342202">
<ele>127.79999999999995</ele>
<time>2023-05-17T13:28:42Z</time>
</trkpt>
<trkpt lat="49.21494495123625" lon="8.262371951714158">
<ele>127.79999999999995</ele>
<time>2023-05-17T13:28:43Z</time>
</trkpt>
<trkpt lat="49.214984932914376" lon="8.262317972257733">
<ele>127.79999999999995</ele>
<time>2023-05-17T13:28:44Z</time>
</trkpt>
<trkpt lat="49.215022986754775" lon="8.262262986972928">
<ele>127.79999999999995</ele>
<time>2023-05-17T13:28:45Z</time>
</trkpt>
<trkpt lat="49.21506196260452" lon="8.262207917869091">
<ele>128</ele>
<time>2023-05-17T13:28:46Z</time>
</trkpt>
<trkpt lat="49.21509699895978" lon="8.262152932584286">
<ele>128</ele>
<time>2023-05-17T13:28:47Z</time>
</trkpt>
<trkpt lat="49.215131951496005" lon="8.26209794729948">
<ele>128</ele>
<time>2023-05-17T13:28:48Z</time>
</trkpt>
<trkpt lat="49.21516992151737" lon="8.262037932872772">
<ele>128</ele>
<time>2023-05-17T13:28:49Z</time>
</trkpt>
<trkpt lat="49.21520797535777" lon="8.261976996436715">
<ele>128</ele>
<time>2023-05-17T13:28:50Z</time>
</trkpt>
<trkpt lat="49.21524695120752" lon="8.261922933161259">
<ele>128</ele>
<time>2023-05-17T13:28:51Z</time>
</trkpt>
<trkpt lat="49.215284921228886" lon="8.261869959533215">
<ele>128</ele>
<time>2023-05-17T13:28:52Z</time>
</trkpt>
<trkpt lat="49.215322975069284" lon="8.261809945106506">
<ele>128</ele>
<time>2023-05-17T13:28:53Z</time>
</trkpt>
<trkpt lat="49.21536195091903" lon="8.261749930679798">
<ele>128</ele>
<time>2023-05-17T13:28:54Z</time>
</trkpt>
<trkpt lat="49.21540293842554" lon="8.261694945394993">
<ele>128</ele>
<time>2023-05-17T13:28:55Z</time>
</trkpt>
<trkpt lat="49.21544694341719" lon="8.261641971766949">
<ele>128</ele>
<time>2023-05-17T13:28:56Z</time>
</trkpt>
<trkpt lat="49.2154929600656" lon="8.261589920148253">
<ele>128</ele>
<time>2023-05-17T13:28:57Z</time>
</trkpt>
<trkpt lat="49.215536965057254" lon="8.261532923206687">
<ele>128</ele>
<time>2023-05-17T13:28:58Z</time>
</trkpt>
<trkpt lat="49.215579964220524" lon="8.26147492043674">
<ele>128</ele>
<time>2023-05-17T13:28:59Z</time>
</trkpt>
<trkpt lat="49.215622963383794" lon="8.261419935151935">
<ele>128</ele>
<time>2023-05-17T13:29:00Z</time>
</trkpt>
<trkpt lat="49.215669985860586" lon="8.261362938210368">
<ele>128</ele>
<time>2023-05-17T13:29:01Z</time>
</trkpt>
<trkpt lat="49.215711979195476" lon="8.261307952925563">
<ele>128</ele>
<time>2023-05-17T13:29:02Z</time>
</trkpt>
<trkpt lat="49.215752966701984" lon="8.26125699095428">
<ele>128</ele>
<time>2023-05-17T13:29:03Z</time>
</trkpt>
<trkpt lat="49.215794960036874" lon="8.261204939335585">
<ele>128</ele>
<time>2023-05-17T13:29:04Z</time>
</trkpt>
<trkpt lat="49.21583293005824" lon="8.26115196570754">
<ele>128</ele>
<time>2023-05-17T13:29:05Z</time>
</trkpt>
<trkpt lat="49.21587693504989" lon="8.261101925745606">
<ele>128</ele>
<time>2023-05-17T13:29:06Z</time>
</trkpt>
<trkpt lat="49.21591993421316" lon="8.261051969602704">
<ele>128</ele>
<time>2023-05-17T13:29:07Z</time>
</trkpt>
<trkpt lat="49.21595698222518" lon="8.260991955175996">
<ele>128</ele>
<time>2023-05-17T13:29:08Z</time>
</trkpt>
<trkpt lat="49.21599696390331" lon="8.26093495823443">
<ele>128</ele>
<time>2023-05-17T13:29:09Z</time>
</trkpt>
<trkpt lat="49.21603795140982" lon="8.260877961292863">
<ele>128</ele>
<time>2023-05-17T13:29:10Z</time>
</trkpt>
<trkpt lat="49.21608195640147" lon="8.260822976008058">
<ele>128</ele>
<time>2023-05-17T13:29:11Z</time>
</trkpt>
<trkpt lat="49.21612495556474" lon="8.260771930217743">
<ele>128</ele>
<time>2023-05-17T13:29:12Z</time>
</trkpt>
<trkpt lat="49.216164937242866" lon="8.260714933276176">
<ele>128</ele>
<time>2023-05-17T13:29:13Z</time>
</trkpt>
<trkpt lat="49.21619997359812" lon="8.26065793633461">
<ele>128</ele>
<time>2023-05-17T13:29:14Z</time>
</trkpt>
<trkpt lat="49.21623794361949" lon="8.260606974363327">
<ele>128</ele>
<time>2023-05-17T13:29:15Z</time>
</trkpt>
<trkpt lat="49.21627499163151" lon="8.260554922744632">
<ele>128</ele>
<time>2023-05-17T13:29:16Z</time>
</trkpt>
<trkpt lat="49.21630793251097" lon="8.260499937459826">
<ele>128</ele>
<time>2023-05-17T13:29:17Z</time>
</trkpt>
<trkpt lat="49.21634498052299" lon="8.260447969660163">
<ele>128</ele>
<time>2023-05-17T13:29:18Z</time>
</trkpt>
<trkpt lat="49.21638295054436" lon="8.260396923869848">
<ele>128</ele>
<time>2023-05-17T13:29:19Z</time>
</trkpt>
<trkpt lat="49.216417986899614" lon="8.260346967726946">
<ele>128</ele>
<time>2023-05-17T13:29:20Z</time>
</trkpt>
<trkpt lat="49.21645696274936" lon="8.260294999927282">
<ele>128</ele>
<time>2023-05-17T13:29:21Z</time>
</trkpt>
<trkpt lat="49.21649493277073" lon="8.260241942480206">
<ele>128</ele>
<time>2023-05-17T13:29:22Z</time>
</trkpt>
<trkpt lat="49.21653198078275" lon="8.260191986337304">
<ele>128</ele>
<time>2023-05-17T13:29:23Z</time>
</trkpt>
<trkpt lat="49.216569950804114" lon="8.260139934718609">
<ele>128</ele>
<time>2023-05-17T13:29:24Z</time>
</trkpt>
<trkpt lat="49.21660699881613" lon="8.260082937777042">
<ele>128</ele>
<time>2023-05-17T13:29:25Z</time>
</trkpt>
<trkpt lat="49.21664698049426" lon="8.260026946663857">
<ele>128.20000000000005</ele>
<time>2023-05-17T13:29:26Z</time>
</trkpt>
<trkpt lat="49.216681933030486" lon="8.25996994972229">
<ele>128.20000000000005</ele>
<time>2023-05-17T13:29:27Z</time>
</trkpt>
<trkpt lat="49.21670992858708" lon="8.259917981922626">
<ele>128.20000000000005</ele>
<time>2023-05-17T13:29:28Z</time>
</trkpt>
<trkpt lat="49.2167469765991" lon="8.25986492447555">
<ele>128.20000000000005</ele>
<time>2023-05-17T13:29:29Z</time>
</trkpt>
<trkpt lat="49.216787964105606" lon="8.259807927533984">
<ele>128.20000000000005</ele>
<time>2023-05-17T13:29:30Z</time>
</trkpt>
<trkpt lat="49.216826939955354" lon="8.259749924764037">
<ele>128.20000000000005</ele>
<time>2023-05-17T13:29:31Z</time>
</trkpt>
<trkpt lat="49.21686298213899" lon="8.25969192199409">
<ele>128.20000000000005</ele>
<time>2023-05-17T13:29:32Z</time>
</trkpt>
<trkpt lat="49.21689793467522" lon="8.259637942537665">
<ele>128.20000000000005</ele>
<time>2023-05-17T13:29:33Z</time>
</trkpt>
<trkpt lat="49.21694193966687" lon="8.25958195142448">
<ele>128.39999999999998</ele>
<time>2023-05-17T13:29:34Z</time>
</trkpt>
<trkpt lat="49.216976976022124" lon="8.259526966139674">
<ele>128.39999999999998</ele>
<time>2023-05-17T13:29:35Z</time>
</trkpt>
<trkpt lat="49.21701695770025" lon="8.25947298668325">
<ele>128.39999999999998</ele>
<time>2023-05-17T13:29:36Z</time>
</trkpt>
<trkpt lat="49.217061968520284" lon="8.259417917579412">
<ele>128.39999999999998</ele>
<time>2023-05-17T13:29:37Z</time>
</trkpt>
<trkpt lat="49.21709993854165" lon="8.259369973093271">
<ele>128.39999999999998</ele>
<time>2023-05-17T13:29:38Z</time>
</trkpt>
<trkpt lat="49.21714293770492" lon="8.259319933131337">
<ele>128.39999999999998</ele>
<time>2023-05-17T13:29:39Z</time>
</trkpt>
<trkpt lat="49.21718694269657" lon="8.259266959503293">
<ele>128.39999999999998</ele>
<time>2023-05-17T13:29:40Z</time>
</trkpt>
<trkpt lat="49.21722994185984" lon="8.259209962561727">
<ele>128.39999999999998</ele>
<time>2023-05-17T13:29:41Z</time>
</trkpt>
<trkpt lat="49.21726799570024" lon="8.259154977276921">
<ele>128.39999999999998</ele>
<time>2023-05-17T13:29:42Z</time>
</trkpt>
<trkpt lat="49.21730998903513" lon="8.259096974506974">
<ele>128.39999999999998</ele>
<time>2023-05-17T13:29:43Z</time>
</trkpt>
<trkpt lat="49.21735499985516" lon="8.259039977565408">
<ele>128.39999999999998</ele>
<time>2023-05-17T13:29:44Z</time>
</trkpt>
<trkpt lat="49.21739799901843" lon="8.258986920118332">
<ele>128.39999999999998</ele>
<time>2023-05-17T13:29:45Z</time>
</trkpt>
<trkpt lat="49.21743798069656" lon="8.258939981460571">
<ele>128.39999999999998</ele>
<time>2023-05-17T13:29:46Z</time>
</trkpt>
<trkpt lat="49.21748299151659" lon="8.258891953155398">
<ele>128.39999999999998</ele>
<time>2023-05-17T13:29:47Z</time>
</trkpt>
<trkpt lat="49.21752699650824" lon="8.258837973698974">
<ele>128.39999999999998</ele>
<time>2023-05-17T13:29:48Z</time>
</trkpt>
<trkpt lat="49.21756697818637" lon="8.2587899453938">
<ele>128.39999999999998</ele>
<time>2023-05-17T13:29:49Z</time>
</trkpt>
<trkpt lat="49.2176069598645" lon="8.258737977594137">
<ele>128.39999999999998</ele>
<time>2023-05-17T13:29:50Z</time>
</trkpt>
<trkpt lat="49.21765197068453" lon="8.258681986480951">
<ele>128.39999999999998</ele>
<time>2023-05-17T13:29:51Z</time>
</trkpt>
<trkpt lat="49.21769295819104" lon="8.258627923205495">
<ele>128.39999999999998</ele>
<time>2023-05-17T13:29:52Z</time>
</trkpt>
<trkpt lat="49.217732939869165" lon="8.258569920435548">
<ele>128.39999999999998</ele>
<time>2023-05-17T13:29:53Z</time>
</trkpt>
<trkpt lat="49.217772921547294" lon="8.2585119176656">
<ele>128.39999999999998</ele>
<time>2023-05-17T13:29:54Z</time>
</trkpt>
<trkpt lat="49.217812987044454" lon="8.258454920724034">
<ele>128.39999999999998</ele>
<time>2023-05-17T13:29:55Z</time>
</trkpt>
<trkpt lat="49.217856992036104" lon="8.258399935439229">
<ele>128.39999999999998</ele>
<time>2023-05-17T13:29:56Z</time>
</trkpt>
<trkpt lat="49.217901919037104" lon="8.258347967639565">
<ele>128.39999999999998</ele>
<time>2023-05-17T13:29:57Z</time>
</trkpt>
<trkpt lat="49.217947935685515" lon="8.25829197652638">
<ele>128.39999999999998</ele>
<time>2023-05-17T13:29:58Z</time>
</trkpt>
<trkpt lat="49.217991940677166" lon="8.258232967928052">
<ele>128.39999999999998</ele>
<time>2023-05-17T13:29:59Z</time>
</trkpt>
<trkpt lat="49.218031922355294" lon="8.258177982643247">
<ele>128.39999999999998</ele>
<time>2023-05-17T13:30:00Z</time>
</trkpt>
<trkpt lat="49.218074921518564" lon="8.2581199798733">
<ele>128.39999999999998</ele>
<time>2023-05-17T13:30:01Z</time>
</trkpt>
<trkpt lat="49.218116998672485" lon="8.258061977103353">
<ele>128.60000000000002</ele>
<time>2023-05-17T13:30:02Z</time>
</trkpt>
<trkpt lat="49.218156980350614" lon="8.258004980161786">
<ele>128.60000000000002</ele>
<time>2023-05-17T13:30:03Z</time>
</trkpt>
<trkpt lat="49.218199979513884" lon="8.257946977391839">
<ele>128.60000000000002</ele>
<time>2023-05-17T13:30:04Z</time>
</trkpt>
<trkpt lat="49.218244990333915" lon="8.257889980450273">
<ele>128.60000000000002</ele>
<time>2023-05-17T13:30:05Z</time>
</trkpt>
<trkpt lat="49.218287989497185" lon="8.257831977680326">
<ele>128.60000000000002</ele>
<time>2023-05-17T13:30:06Z</time>
</trkpt>
<trkpt lat="49.218329982832074" lon="8.257774980738759">
<ele>128.60000000000002</ele>
<time>2023-05-17T13:30:07Z</time>
</trkpt>
<trkpt lat="49.21836795285344" lon="8.25771496631205">
<ele>128.60000000000002</ele>
<time>2023-05-17T13:30:08Z</time>
</trkpt>
<trkpt lat="49.21840692870319" lon="8.257656963542104">
<ele>128.60000000000002</ele>
<time>2023-05-17T13:30:09Z</time>
</trkpt>
<trkpt lat="49.21844699420035" lon="8.257597954943776">
<ele>128.60000000000002</ele>
<time>2023-05-17T13:30:10Z</time>
</trkpt>
<trkpt lat="49.21848697587848" lon="8.25754196383059">
<ele>128.60000000000002</ele>
<time>2023-05-17T13:30:11Z</time>
</trkpt>
<trkpt lat="49.21853198669851" lon="8.257482955232263">
<ele>128.60000000000002</ele>
<time>2023-05-17T13:30:12Z</time>
</trkpt>
<trkpt lat="49.21857699751854" lon="8.257422940805554">
<ele>128.60000000000002</ele>
<time>2023-05-17T13:30:13Z</time>
</trkpt>
<trkpt lat="49.21862293034792" lon="8.257362926378846">
<ele>128.79999999999995</ele>
<time>2023-05-17T13:30:14Z</time>
</trkpt>
<trkpt lat="49.21866995282471" lon="8.25730299577117">
<ele>128.79999999999995</ele>
<time>2023-05-17T13:30:15Z</time>
</trkpt>
<trkpt lat="49.218719992786646" lon="8.257242981344461">
<ele>128.79999999999995</ele>
<time>2023-05-17T13:30:16Z</time>
</trkpt>
<trkpt lat="49.218764919787645" lon="8.257184978574514">
<ele>128.79999999999995</ele>
<time>2023-05-17T13:30:17Z</time>
</trkpt>
<trkpt lat="49.21880993060768" lon="8.257127981632948">
<ele>128.79999999999995</ele>
<time>2023-05-17T13:30:18Z</time>
</trkpt>
<trkpt lat="49.21885292977095" lon="8.257069978863">
<ele>128.79999999999995</ele>
<time>2023-05-17T13:30:19Z</time>
</trkpt>
<trkpt lat="49.218894923105836" lon="8.257014993578196">
<ele>128.79999999999995</ele>
<time>2023-05-17T13:30:20Z</time>
</trkpt>
<trkpt lat="49.21893993392587" lon="8.256957996636629">
<ele>128.79999999999995</ele>
<time>2023-05-17T13:30:21Z</time>
</trkpt>
<trkpt lat="49.21898796223104" lon="8.256904939189553">
<ele>128.79999999999995</ele>
<time>2023-05-17T13:30:22Z</time>
</trkpt>
<trkpt lat="49.21903498470783" lon="8.25685196556151">
<ele>128.79999999999995</ele>
<time>2023-05-17T13:30:23Z</time>
</trkpt>
<trkpt lat="49.21907697804272" lon="8.256799997761846">
<ele>128.79999999999995</ele>
<time>2023-05-17T13:30:24Z</time>
</trkpt>
<trkpt lat="49.21911494806409" lon="8.25674794614315">
<ele>128.79999999999995</ele>
<time>2023-05-17T13:30:25Z</time>
</trkpt>
<trkpt lat="49.219152918085456" lon="8.256691955029964">
<ele>128.79999999999995</ele>
<time>2023-05-17T13:30:26Z</time>
</trkpt>
<trkpt lat="49.219189966097474" lon="8.256632946431637">
<ele>128.79999999999995</ele>
<time>2023-05-17T13:30:27Z</time>
</trkpt>
<trkpt lat="49.2192299477756" lon="8.256577961146832">
<ele>128.79999999999995</ele>
<time>2023-05-17T13:30:28Z</time>
</trkpt>
<trkpt lat="49.21926992945373" lon="8.256522975862026">
<ele>128.79999999999995</ele>
<time>2023-05-17T13:30:29Z</time>
</trkpt>
<trkpt lat="49.21930798329413" lon="8.256471930071712">
<ele>128.79999999999995</ele>
<time>2023-05-17T13:30:30Z</time>
</trkpt>
<trkpt lat="49.21934695914388" lon="8.256419962272048">
<ele>128.79999999999995</ele>
<time>2023-05-17T13:30:31Z</time>
</trkpt>
<trkpt lat="49.21938291750848" lon="8.256371933966875">
<ele>128.79999999999995</ele>
<time>2023-05-17T13:30:32Z</time>
</trkpt>
<trkpt lat="49.2194199655205" lon="8.256326923146844">
<ele>128.79999999999995</ele>
<time>2023-05-17T13:30:33Z</time>
</trkpt>
<trkpt lat="49.219451984390616" lon="8.256282918155193">
<ele>128.79999999999995</ele>
<time>2023-05-17T13:30:34Z</time>
</trkpt>
<trkpt lat="49.21948693692684" lon="8.256244948133826">
<ele>129</ele>
<time>2023-05-17T13:30:35Z</time>
</trkpt>
<trkpt lat="49.2195219732821" lon="8.256199937313795">
<ele>129</ele>
<time>2023-05-17T13:30:36Z</time>
</trkpt>
<trkpt lat="49.21955198049545" lon="8.256154926493764">
<ele>129</ele>
<time>2023-05-17T13:30:37Z</time>
</trkpt>
<trkpt lat="49.21958492137492" lon="8.25610195286572">
<ele>129.20000000000005</ele>
<time>2023-05-17T13:30:38Z</time>
</trkpt>
<trkpt lat="49.219621969386935" lon="8.256051996722817">
<ele>129.20000000000005</ele>
<time>2023-05-17T13:30:39Z</time>
</trkpt>
<trkpt lat="49.2196599394083" lon="8.256001956760883">
<ele>129.20000000000005</ele>
<time>2023-05-17T13:30:40Z</time>
</trkpt>
<trkpt lat="49.21970193274319" lon="8.25595292262733">
<ele>129.20000000000005</ele>
<time>2023-05-17T13:30:41Z</time>
</trkpt>
<trkpt lat="49.2197429202497" lon="8.255901960656047">
<ele>129.20000000000005</ele>
<time>2023-05-17T13:30:42Z</time>
</trkpt>
<trkpt lat="49.21978499740362" lon="8.255849992856383">
<ele>129.20000000000005</ele>
<time>2023-05-17T13:30:43Z</time>
</trkpt>
<trkpt lat="49.21982196159661" lon="8.255796935409307">
<ele>129.20000000000005</ele>
<time>2023-05-17T13:30:44Z</time>
</trkpt>
<trkpt lat="49.219854986295104" lon="8.255746979266405">
<ele>129.20000000000005</ele>
<time>2023-05-17T13:30:45Z</time>
</trkpt>
<trkpt lat="49.21988692134619" lon="8.255696939304471">
<ele>129.20000000000005</ele>
<time>2023-05-17T13:30:46Z</time>
</trkpt>
<trkpt lat="49.21991994604468" lon="8.255649916827679">
<ele>129.20000000000005</ele>
<time>2023-05-17T13:30:47Z</time>
</trkpt>
<trkpt lat="49.21995297074318" lon="8.255602978169918">
<ele>129.20000000000005</ele>
<time>2023-05-17T13:30:48Z</time>
</trkpt>
<trkpt lat="49.219986917451024" lon="8.255557967349887">
<ele>129.20000000000005</ele>
<time>2023-05-17T13:30:49Z</time>
</trkpt>
<trkpt lat="49.22002195380628" lon="8.255507927387953">
<ele>129.20000000000005</ele>
<time>2023-05-17T13:30:50Z</time>
</trkpt>
<trkpt lat="49.22005699016154" lon="8.255459982901812">
<ele>129.20000000000005</ele>
<time>2023-05-17T13:30:51Z</time>
</trkpt>
<trkpt lat="49.22008791938424" lon="8.255409942939878">
<ele>129.20000000000005</ele>
<time>2023-05-17T13:30:52Z</time>
</trkpt>
<trkpt lat="49.220116920769215" lon="8.255359986796975">
<ele>129.20000000000005</ele>
<time>2023-05-17T13:30:53Z</time>
</trkpt>
<trkpt lat="49.22014692798257" lon="8.25530793517828">
<ele>129.20000000000005</ele>
<time>2023-05-17T13:30:54Z</time>
</trkpt>
<trkpt lat="49.22017492353916" lon="8.255266947671771">
<ele>129.20000000000005</ele>
<time>2023-05-17T13:30:55Z</time>
</trkpt>
<trkpt lat="49.220202919095755" lon="8.25522294268012">
<ele>129.20000000000005</ele>
<time>2023-05-17T13:30:56Z</time>
</trkpt>
<trkpt lat="49.22023292630911" lon="8.25517793186009">
<ele>129.20000000000005</ele>
<time>2023-05-17T13:30:57Z</time>
</trkpt>
<trkpt lat="49.22026293352246" lon="8.255129987373948">
<ele>129.20000000000005</ele>
<time>2023-05-17T13:30:58Z</time>
</trkpt>
<trkpt lat="49.22029696404934" lon="8.255084976553917">
<ele>129.20000000000005</ele>
<time>2023-05-17T13:30:59Z</time>
</trkpt>
<trkpt lat="49.220331916585565" lon="8.255036948248744">
<ele>129.20000000000005</ele>
<time>2023-05-17T13:31:00Z</time>
</trkpt>
<trkpt lat="49.22036695294082" lon="8.254986992105842">
<ele>129.20000000000005</ele>
<time>2023-05-17T13:31:01Z</time>
</trkpt>
<trkpt lat="49.22040299512446" lon="8.254931923002005">
<ele>129.20000000000005</ele>
<time>2023-05-17T13:31:02Z</time>
</trkpt>
<trkpt lat="49.220439959317446" lon="8.254874926060438">
<ele>129.20000000000005</ele>
<time>2023-05-17T13:31:03Z</time>
</trkpt>
<trkpt lat="49.22047792933881" lon="8.254816923290491">
<ele>129.20000000000005</ele>
<time>2023-05-17T13:31:04Z</time>
</trkpt>
<trkpt lat="49.22051698900759" lon="8.254759926348925">
<ele>129.20000000000005</ele>
<time>2023-05-17T13:31:05Z</time>
</trkpt>
<trkpt lat="49.2205529473722" lon="8.254699995741248">
<ele>129.20000000000005</ele>
<time>2023-05-17T13:31:06Z</time>
</trkpt>
<trkpt lat="49.220587983727455" lon="8.25463998131454">
<ele>129.20000000000005</ele>
<time>2023-05-17T13:31:07Z</time>
</trkpt>
<trkpt lat="49.22062293626368" lon="8.254587929695845">
<ele>129.20000000000005</ele>
<time>2023-05-17T13:31:08Z</time>
</trkpt>
<trkpt lat="49.22065797261894" lon="8.2545349560678">
<ele>129.20000000000005</ele>
<time>2023-05-17T13:31:09Z</time>
</trkpt>
<trkpt lat="49.22069292515516" lon="8.254481982439756">
<ele>129.20000000000005</ele>
<time>2023-05-17T13:31:10Z</time>
</trkpt>
<trkpt lat="49.22072997316718" lon="8.254429930821061">
<ele>129.20000000000005</ele>
<time>2023-05-17T13:31:11Z</time>
</trkpt>
<trkpt lat="49.22076693736017" lon="8.25438198633492">
<ele>129.20000000000005</ele>
<time>2023-05-17T13:31:12Z</time>
</trkpt>
<trkpt lat="49.220802979543805" lon="8.254329934716225">
<ele>129.20000000000005</ele>
<time>2023-05-17T13:31:13Z</time>
</trkpt>
<trkpt lat="49.22083793208003" lon="8.254277966916561">
<ele>129.20000000000005</ele>
<time>2023-05-17T13:31:14Z</time>
</trkpt>
<trkpt lat="49.22087296843529" lon="8.254224993288517">
<ele>129.20000000000005</ele>
<time>2023-05-17T13:31:15Z</time>
</trkpt>
<trkpt lat="49.22090792097151" lon="8.254171935841441">
<ele>129.20000000000005</ele>
<time>2023-05-17T13:31:16Z</time>
</trkpt>
<trkpt lat="49.22094496898353" lon="8.254112927243114">
<ele>129.20000000000005</ele>
<time>2023-05-17T13:31:17Z</time>
</trkpt>
<trkpt lat="49.22098193317652" lon="8.254056936129928">
<ele>129.20000000000005</ele>
<time>2023-05-17T13:31:18Z</time>
</trkpt>
<trkpt lat="49.22102199867368" lon="8.254001950845122">
<ele>129.20000000000005</ele>
<time>2023-05-17T13:31:19Z</time>
</trkpt>
<trkpt lat="49.2210569512099" lon="8.253946965560317">
<ele>129.20000000000005</ele>
<time>2023-05-17T13:31:20Z</time>
</trkpt>
<trkpt lat="49.22109299339354" lon="8.25388996861875">
<ele>129.20000000000005</ele>
<time>2023-05-17T13:31:21Z</time>
</trkpt>
<trkpt lat="49.22112995758653" lon="8.253834983333945">
<ele>129.20000000000005</ele>
<time>2023-05-17T13:31:22Z</time>
</trkpt>
<trkpt lat="49.221164993941784" lon="8.253777986392379">
<ele>129.20000000000005</ele>
<time>2023-05-17T13:31:23Z</time>
</trkpt>
<trkpt lat="49.22119994647801" lon="8.253719983622432">
<ele>129.20000000000005</ele>
<time>2023-05-17T13:31:24Z</time>
</trkpt>
<trkpt lat="49.221234982833266" lon="8.253659969195724">
<ele>129.20000000000005</ele>
<time>2023-05-17T13:31:25Z</time>
</trkpt>
<trkpt lat="49.22127194702625" lon="8.253601966425776">
<ele>129.20000000000005</ele>
<time>2023-05-17T13:31:26Z</time>
</trkpt>
<trkpt lat="49.22130991704762" lon="8.253541951999068">
<ele>129.20000000000005</ele>
<time>2023-05-17T13:31:27Z</time>
</trkpt>
<trkpt lat="49.22134797088802" lon="8.25348294340074">
<ele>129.20000000000005</ele>
<time>2023-05-17T13:31:28Z</time>
</trkpt>
<trkpt lat="49.221386946737766" lon="8.253421923145652">
<ele>129.20000000000005</ele>
<time>2023-05-17T13:31:29Z</time>
</trkpt>
<trkpt lat="49.22142491675913" lon="8.253359980881214">
<ele>129.20000000000005</ele>
<time>2023-05-17T13:31:30Z</time>
</trkpt>
<trkpt lat="49.22146196477115" lon="8.253297954797745">
<ele>129.20000000000005</ele>
<time>2023-05-17T13:31:31Z</time>
</trkpt>
<trkpt lat="49.22149993479252" lon="8.253234922885895">
<ele>129.20000000000005</ele>
<time>2023-05-17T13:31:32Z</time>
</trkpt>
<trkpt lat="49.22153798863292" lon="8.253171974793077">
<ele>129.20000000000005</ele>
<time>2023-05-17T13:31:33Z</time>
</trkpt>
<trkpt lat="49.221574952825904" lon="8.253109948709607">
<ele>129.20000000000005</ele>
<time>2023-05-17T13:31:34Z</time>
</trkpt>
<trkpt lat="49.22161292284727" lon="8.253049934282899">
<ele>129.20000000000005</ele>
<time>2023-05-17T13:31:35Z</time>
</trkpt>
<trkpt lat="49.22165491618216" lon="8.252994948998094">
<ele>129.20000000000005</ele>
<time>2023-05-17T13:31:36Z</time>
</trkpt>
<trkpt lat="49.22169297002256" lon="8.252939963713288">
<ele>129.20000000000005</ele>
<time>2023-05-17T13:31:37Z</time>
</trkpt>
<trkpt lat="49.221729934215546" lon="8.252884978428483">
<ele>129.20000000000005</ele>
<time>2023-05-17T13:31:38Z</time>
</trkpt>
<trkpt lat="49.221766982227564" lon="8.252826975658536">
<ele>129.20000000000005</ele>
<time>2023-05-17T13:31:39Z</time>
</trkpt>
<trkpt lat="49.22180294059217" lon="8.252767967060208">
<ele>129.20000000000005</ele>
<time>2023-05-17T13:31:40Z</time>
</trkpt>
<trkpt lat="49.22183998860419" lon="8.252709964290261">
<ele>129.20000000000005</ele>
<time>2023-05-17T13:31:41Z</time>
</trkpt>
<trkpt lat="49.221876952797174" lon="8.252651961520314">
<ele>129.20000000000005</ele>
<time>2023-05-17T13:31:42Z</time>
</trkpt>
<trkpt lat="49.22191299498081" lon="8.252589935436845">
<ele>129.20000000000005</ele>
<time>2023-05-17T13:31:43Z</time>
</trkpt>
<trkpt lat="49.22195197083056" lon="8.252527993172407">
<ele>129.20000000000005</ele>
<time>2023-05-17T13:31:44Z</time>
</trkpt>
<trkpt lat="49.22199195250869" lon="8.252464961260557">
<ele>129.20000000000005</ele>
<time>2023-05-17T13:31:45Z</time>
</trkpt>
<trkpt lat="49.222031934186816" lon="8.252404946833849">
<ele>129.20000000000005</ele>
<time>2023-05-17T13:31:46Z</time>
</trkpt>
<trkpt lat="49.222069988027215" lon="8.25234493240714">
<ele>129.20000000000005</ele>
<time>2023-05-17T13:31:47Z</time>
</trkpt>
<trkpt lat="49.2221069522202" lon="8.252286929637194">
<ele>129.20000000000005</ele>
<time>2023-05-17T13:31:48Z</time>
</trkpt>
<trkpt lat="49.22214299440384" lon="8.252229932695627">
<ele>129.20000000000005</ele>
<time>2023-05-17T13:31:49Z</time>
</trkpt>
<trkpt lat="49.222176941111684" lon="8.252177964895964">
<ele>129.20000000000005</ele>
<time>2023-05-17T13:31:50Z</time>
</trkpt>
<trkpt lat="49.22220795415342" lon="8.25212792493403">
<ele>129.20000000000005</ele>
<time>2023-05-17T13:31:51Z</time>
</trkpt>
<trkpt lat="49.222239973023534" lon="8.252077968791127">
<ele>129.20000000000005</ele>
<time>2023-05-17T13:31:52Z</time>
</trkpt>
<trkpt lat="49.22226998023689" lon="8.252027928829193">
<ele>129.20000000000005</ele>
<time>2023-05-17T13:31:53Z</time>
</trkpt>
<trkpt lat="49.22229998745024" lon="8.25197696685791">
<ele>129.20000000000005</ele>
<time>2023-05-17T13:31:54Z</time>
</trkpt>
<trkpt lat="49.222332928329706" lon="8.251926926895976">
<ele>129.20000000000005</ele>
<time>2023-05-17T13:31:55Z</time>
</trkpt>
<trkpt lat="49.22236796468496" lon="8.251876970753074">
<ele>129.20000000000005</ele>
<time>2023-05-17T13:31:56Z</time>
</trkpt>
<trkpt lat="49.22240291722119" lon="8.251822991296649">
<ele>129.20000000000005</ele>
<time>2023-05-17T13:31:57Z</time>
</trkpt>
<trkpt lat="49.22243996523321" lon="8.251767922192812">
<ele>129.20000000000005</ele>
<time>2023-05-17T13:31:58Z</time>
</trkpt>
<trkpt lat="49.22247491776943" lon="8.251711931079626">
<ele>129.20000000000005</ele>
<time>2023-05-17T13:31:59Z</time>
</trkpt>
<trkpt lat="49.22250995412469" lon="8.251652922481298">
<ele>129.20000000000005</ele>
<time>2023-05-17T13:32:00Z</time>
</trkpt>
<trkpt lat="49.222544990479946" lon="8.251592991873622">
<ele>129.20000000000005</ele>
<time>2023-05-17T13:32:01Z</time>
</trkpt>
<trkpt lat="49.22258195467293" lon="8.251534989103675">
<ele>129.20000000000005</ele>
<time>2023-05-17T13:32:02Z</time>
</trkpt>
<trkpt lat="49.22261799685657" lon="8.251476986333728">
<ele>129.20000000000005</ele>
<time>2023-05-17T13:32:03Z</time>
</trkpt>
<trkpt lat="49.22265496104956" lon="8.251419989392161">
<ele>129.20000000000005</ele>
<time>2023-05-17T13:32:04Z</time>
</trkpt>
<trkpt lat="49.22269192524254" lon="8.251366931945086">
<ele>129.20000000000005</ele>
<time>2023-05-17T13:32:05Z</time>
</trkpt>
<trkpt lat="49.22272796742618" lon="8.25131194666028">
<ele>129.20000000000005</ele>
<time>2023-05-17T13:32:06Z</time>
</trkpt>
<trkpt lat="49.22276493161917" lon="8.251257967203856">
<ele>129.20000000000005</ele>
<time>2023-05-17T13:32:07Z</time>
</trkpt>
<trkpt lat="49.222802985459566" lon="8.25120197609067">
<ele>129.20000000000005</ele>
<time>2023-05-17T13:32:08Z</time>
</trkpt>
<trkpt lat="49.222842967137694" lon="8.251144979149103">
<ele>129.20000000000005</ele>
<time>2023-05-17T13:32:09Z</time>
</trkpt>
<trkpt lat="49.22288194298744" lon="8.251086976379156">
<ele>129.20000000000005</ele>
<time>2023-05-17T13:32:10Z</time>
</trkpt>
<trkpt lat="49.22292192466557" lon="8.251027967780828">
<ele>129.20000000000005</ele>
<time>2023-05-17T13:32:11Z</time>
</trkpt>
<trkpt lat="49.22295997850597" lon="8.250972982496023">
<ele>129.20000000000005</ele>
<time>2023-05-17T13:32:12Z</time>
</trkpt>
<trkpt lat="49.222997948527336" lon="8.250917997211218">
<ele>129.20000000000005</ele>
<time>2023-05-17T13:32:13Z</time>
</trkpt>
<trkpt lat="49.223034996539354" lon="8.250864939764142">
<ele>129.20000000000005</ele>
<time>2023-05-17T13:32:14Z</time>
</trkpt>
<trkpt lat="49.22307296656072" lon="8.250811966136098">
<ele>129.20000000000005</ele>
<time>2023-05-17T13:32:15Z</time>
</trkpt>
<trkpt lat="49.22310993075371" lon="8.250756980851293">
<ele>129.20000000000005</ele>
<time>2023-05-17T13:32:16Z</time>
</trkpt>
<trkpt lat="49.22314798459411" lon="8.250699983909726">
<ele>129.20000000000005</ele>
<time>2023-05-17T13:32:17Z</time>
</trkpt>
<trkpt lat="49.223186960443854" lon="8.25064499862492">
<ele>129.20000000000005</ele>
<time>2023-05-17T13:32:18Z</time>
</trkpt>
<trkpt lat="49.22322493046522" lon="8.250592947006226">
<ele>129.20000000000005</ele>
<time>2023-05-17T13:32:19Z</time>
</trkpt>
<trkpt lat="49.22326499596238" lon="8.250542990863323">
<ele>129.20000000000005</ele>
<time>2023-05-17T13:32:20Z</time>
</trkpt>
<trkpt lat="49.22330497764051" lon="8.250491945073009">
<ele>129.20000000000005</ele>
<time>2023-05-17T13:32:21Z</time>
</trkpt>
<trkpt lat="49.22334797680378" lon="8.250439977273345">
<ele>129.20000000000005</ele>
<time>2023-05-17T13:32:22Z</time>
</trkpt>
<trkpt lat="49.22338795848191" lon="8.25038792565465">
<ele>129.20000000000005</ele>
<time>2023-05-17T13:32:23Z</time>
</trkpt>
<trkpt lat="49.22343196347356" lon="8.250336963683367">
<ele>129.20000000000005</ele>
<time>2023-05-17T13:32:24Z</time>
</trkpt>
<trkpt lat="49.22347295098007" lon="8.250286923721433">
<ele>129.20000000000005</ele>
<time>2023-05-17T13:32:25Z</time>
</trkpt>
<trkpt lat="49.22351695597172" lon="8.25023696757853">
<ele>129.20000000000005</ele>
<time>2023-05-17T13:32:26Z</time>
</trkpt>
<trkpt lat="49.22356297262013" lon="8.2501919567585">
<ele>129.20000000000005</ele>
<time>2023-05-17T13:32:27Z</time>
</trkpt>
<trkpt lat="49.22360798344016" lon="8.250144934281707">
<ele>129.20000000000005</ele>
<time>2023-05-17T13:32:28Z</time>
</trkpt>
<trkpt lat="49.22365299426019" lon="8.250099923461676">
<ele>129.20000000000005</ele>
<time>2023-05-17T13:32:29Z</time>
</trkpt>
<trkpt lat="49.22369699925184" lon="8.250056924298406">
<ele>129.20000000000005</ele>
<time>2023-05-17T13:32:30Z</time>
</trkpt>
<trkpt lat="49.22373798675835" lon="8.250011997297406">
<ele>129.20000000000005</ele>
<time>2023-05-17T13:32:31Z</time>
</trkpt>
<trkpt lat="49.22377796843648" lon="8.249966986477375">
<ele>129.20000000000005</ele>
<time>2023-05-17T13:32:32Z</time>
</trkpt>
<trkpt lat="49.22381996177137" lon="8.249921975657344">
<ele>129.20000000000005</ele>
<time>2023-05-17T13:32:33Z</time>
</trkpt>
<trkpt lat="49.2238649725914" lon="8.249876964837313">
<ele>129.20000000000005</ele>
<time>2023-05-17T13:32:34Z</time>
</trkpt>
<trkpt lat="49.22390797175467" lon="8.24982994236052">
<ele>129.20000000000005</ele>
<time>2023-05-17T13:32:35Z</time>
</trkpt>
<trkpt lat="49.2239479534328" lon="8.249787949025631">
<ele>129.20000000000005</ele>
<time>2023-05-17T13:32:36Z</time>
</trkpt>
<trkpt lat="49.22398793511093" lon="8.249747967347503">
<ele>129.20000000000005</ele>
<time>2023-05-17T13:32:37Z</time>
</trkpt>
<trkpt lat="49.22403194010258" lon="8.249707985669374">
<ele>129.20000000000005</ele>
<time>2023-05-17T13:32:38Z</time>
</trkpt>
<trkpt lat="49.22407695092261" lon="8.249669931828976">
<ele>129.20000000000005</ele>
<time>2023-05-17T13:32:39Z</time>
</trkpt>
<trkpt lat="49.22411693260074" lon="8.249631961807609">
<ele>129.20000000000005</ele>
<time>2023-05-17T13:32:40Z</time>
</trkpt>
<trkpt lat="49.224152974784374" lon="8.249594997614622">
<ele>129.20000000000005</ele>
<time>2023-05-17T13:32:41Z</time>
</trkpt>
<trkpt lat="49.2241929564625" lon="8.249562978744507">
<ele>129.20000000000005</ele>
<time>2023-05-17T13:32:42Z</time>
</trkpt>
<trkpt lat="49.224237967282534" lon="8.249529954046011">
<ele>129.20000000000005</ele>
<time>2023-05-17T13:32:43Z</time>
</trkpt>
<trkpt lat="49.224286917597055" lon="8.249492989853024">
<ele>129.20000000000005</ele>
<time>2023-05-17T13:32:44Z</time>
</trkpt>
<trkpt lat="49.22433192841709" lon="8.249451918527484">
<ele>129.20000000000005</ele>
<time>2023-05-17T13:32:45Z</time>
</trkpt>
<trkpt lat="49.22437693923712" lon="8.249411936849356">
<ele>129.20000000000005</ele>
<time>2023-05-17T13:32:46Z</time>
</trkpt>
<trkpt lat="49.22442496754229" lon="8.24937497265637">
<ele>129.20000000000005</ele>
<time>2023-05-17T13:32:47Z</time>
</trkpt>
<trkpt lat="49.22447199001908" lon="8.249339936301112">
<ele>129.20000000000005</ele>
<time>2023-05-17T13:32:48Z</time>
</trkpt>
<trkpt lat="49.224522951990366" lon="8.249304983764887">
<ele>129.20000000000005</ele>
<time>2023-05-17T13:32:49Z</time>
</trkpt>
<trkpt lat="49.22457198612392" lon="8.249271959066391">
<ele>129.20000000000005</ele>
<time>2023-05-17T13:32:50Z</time>
</trkpt>
<trkpt lat="49.22461699694395" lon="8.249236922711134">
<ele>129.20000000000005</ele>
<time>2023-05-17T13:32:51Z</time>
</trkpt>
<trkpt lat="49.22466192394495" lon="8.249201970174909">
<ele>129.20000000000005</ele>
<time>2023-05-17T13:32:52Z</time>
</trkpt>
<trkpt lat="49.22470693476498" lon="8.249169951304793">
<ele>129.20000000000005</ele>
<time>2023-05-17T13:32:53Z</time>
</trkpt>
<trkpt lat="49.22475295141339" lon="8.249137932434678">
<ele>129.20000000000005</ele>
<time>2023-05-17T13:32:54Z</time>
</trkpt>
<trkpt lat="49.22479494474828" lon="8.249109936878085">
<ele>129.20000000000005</ele>
<time>2023-05-17T13:32:55Z</time>
</trkpt>
<trkpt lat="49.22483794391155" lon="8.249081941321492">
<ele>129.20000000000005</ele>
<time>2023-05-17T13:32:56Z</time>
</trkpt>
<trkpt lat="49.224884966388345" lon="8.249059980735183">
<ele>129.20000000000005</ele>
<time>2023-05-17T13:32:57Z</time>
</trkpt>
<trkpt lat="49.22493198886514" lon="8.249037936329842">
<ele>129.20000000000005</ele>
<time>2023-05-17T13:32:58Z</time>
</trkpt>
<trkpt lat="49.22497993335128" lon="8.249014969915152">
<ele>129.20000000000005</ele>
<time>2023-05-17T13:32:59Z</time>
</trkpt>
<trkpt lat="49.22502494417131" lon="8.2489899918437">
<ele>129.20000000000005</ele>
<time>2023-05-17T13:33:00Z</time>
</trkpt>
<trkpt lat="49.2250719666481" lon="8.24896794743836">
<ele>129.20000000000005</ele>
<time>2023-05-17T13:33:01Z</time>
</trkpt>
<trkpt lat="49.22511697746813" lon="8.24894699268043">
<ele>129.20000000000005</ele>
<time>2023-05-17T13:33:02Z</time>
</trkpt>
<trkpt lat="49.225164921954274" lon="8.24892494827509">
<ele>129.20000000000005</ele>
<time>2023-05-17T13:33:03Z</time>
</trkpt>
<trkpt lat="49.22521194443107" lon="8.2489019818604">
<ele>129.20000000000005</ele>
<time>2023-05-17T13:33:04Z</time>
</trkpt>
<trkpt lat="49.22525796107948" lon="8.248876919969916">
<ele>129.20000000000005</ele>
<time>2023-05-17T13:33:05Z</time>
</trkpt>
<trkpt lat="49.22530791722238" lon="8.248849930241704">
<ele>129.20000000000005</ele>
<time>2023-05-17T13:33:06Z</time>
</trkpt>
<trkpt lat="49.225357957184315" lon="8.248824952170253">
<ele>129.20000000000005</ele>
<time>2023-05-17T13:33:07Z</time>
</trkpt>
<trkpt lat="49.22540497966111" lon="8.248801985755563">
<ele>129.20000000000005</ele>
<time>2023-05-17T13:33:08Z</time>
</trkpt>
<trkpt lat="49.22544999048114" lon="8.248781953006983">
<ele>129.20000000000005</ele>
<time>2023-05-17T13:33:09Z</time>
</trkpt>
<trkpt lat="49.22549491748214" lon="8.248762926086783">
<ele>129.39999999999998</ele>
<time>2023-05-17T13:33:10Z</time>
</trkpt>
<trkpt lat="49.22554193995893" lon="8.248744988813996">
<ele>129.39999999999998</ele>
<time>2023-05-17T13:33:11Z</time>
</trkpt>
<trkpt lat="49.22558795660734" lon="8.248726967722178">
<ele>129.39999999999998</ele>
<time>2023-05-17T13:33:12Z</time>
</trkpt>
<trkpt lat="49.225637996569276" lon="8.24870995245874">
<ele>129.39999999999998</ele>
<time>2023-05-17T13:33:13Z</time>
</trkpt>
<trkpt lat="49.22568795271218" lon="8.24869193136692">
<ele>129.39999999999998</ele>
<time>2023-05-17T13:33:14Z</time>
</trkpt>
<trkpt lat="49.22573799267411" lon="8.248674999922514">
<ele>129.39999999999998</ele>
<time>2023-05-17T13:33:15Z</time>
</trkpt>
<trkpt lat="49.225786942988634" lon="8.248664941638708">
<ele>129.39999999999998</ele>
<time>2023-05-17T13:33:16Z</time>
</trkpt>
<trkpt lat="49.22583497129381" lon="8.248661924153566">
<ele>129.39999999999998</ele>
<time>2023-05-17T13:33:17Z</time>
</trkpt>
<trkpt lat="49.22588693909347" lon="8.248662929981947">
<ele>129.39999999999998</ele>
<time>2023-05-17T13:33:18Z</time>
</trkpt>
<trkpt lat="49.225939996540546" lon="8.248671982437372">
<ele>129.39999999999998</ele>
<time>2023-05-17T13:33:19Z</time>
</trkpt>
<trkpt lat="49.22598995268345" lon="8.24868698604405">
<ele>129.39999999999998</ele>
<time>2023-05-17T13:33:20Z</time>
</trkpt>
<trkpt lat="49.22603999264538" lon="8.248707940801978">
<ele>129.39999999999998</ele>
<time>2023-05-17T13:33:21Z</time>
</trkpt>
<trkpt lat="49.226087937131524" lon="8.24873199686408">
<ele>129.39999999999998</ele>
<time>2023-05-17T13:33:22Z</time>
</trkpt>
<trkpt lat="49.22613697126508" lon="8.248751945793629">
<ele>129.39999999999998</ele>
<time>2023-05-17T13:33:23Z</time>
</trkpt>
<trkpt lat="49.22618499957025" lon="8.24877298437059">
<ele>129.39999999999998</ele>
<time>2023-05-17T13:33:24Z</time>
</trkpt>
<trkpt lat="49.22623294405639" lon="8.248792933300138">
<ele>129.39999999999998</ele>
<time>2023-05-17T13:33:25Z</time>
</trkpt>
<trkpt lat="49.226281978189945" lon="8.248807936906815">
<ele>129.39999999999998</ele>
<time>2023-05-17T13:33:26Z</time>
</trkpt>
<trkpt lat="49.226329922676086" lon="8.248822940513492">
<ele>129.39999999999998</ele>
<time>2023-05-17T13:33:27Z</time>
</trkpt>
<trkpt lat="49.22637694515288" lon="8.248837944120169">
<ele>129.39999999999998</ele>
<time>2023-05-17T13:33:28Z</time>
</trkpt>
<trkpt lat="49.22642698511481" lon="8.248854959383607">
<ele>129.39999999999998</ele>
<time>2023-05-17T13:33:29Z</time>
</trkpt>
<trkpt lat="49.226476941257715" lon="8.248872980475426">
<ele>129.39999999999998</ele>
<time>2023-05-17T13:33:30Z</time>
</trkpt>
<trkpt lat="49.22652496956289" lon="8.248892929404974">
<ele>129.39999999999998</ele>
<time>2023-05-17T13:33:31Z</time>
</trkpt>
<trkpt lat="49.22657492570579" lon="8.248912962153554">
<ele>129.39999999999998</ele>
<time>2023-05-17T13:33:32Z</time>
</trkpt>
<trkpt lat="49.22662194818258" lon="8.248932994902134">
<ele>129.39999999999998</ele>
<time>2023-05-17T13:33:33Z</time>
</trkpt>
<trkpt lat="49.226666959002614" lon="8.248951938003302">
<ele>129.39999999999998</ele>
<time>2023-05-17T13:33:34Z</time>
</trkpt>
<trkpt lat="49.226709958165884" lon="8.248966941609979">
<ele>129.39999999999998</ele>
<time>2023-05-17T13:33:35Z</time>
</trkpt>
<trkpt lat="49.22675195150077" lon="8.248982951045036">
<ele>129.39999999999998</ele>
<time>2023-05-17T13:33:36Z</time>
</trkpt>
<trkpt lat="49.2267919331789" lon="8.248999966308475">
<ele>129.39999999999998</ele>
<time>2023-05-17T13:33:37Z</time>
</trkpt>
<trkpt lat="49.2268299870193" lon="8.249017987400293">
<ele>129.39999999999998</ele>
<time>2023-05-17T13:33:38Z</time>
</trkpt>
<trkpt lat="49.22686695121229" lon="8.249036930501461">
<ele>129.39999999999998</ele>
<time>2023-05-17T13:33:39Z</time>
</trkpt>
<trkpt lat="49.226904921233654" lon="8.249052939936519">
<ele>129.39999999999998</ele>
<time>2023-05-17T13:33:40Z</time>
</trkpt>
<trkpt lat="49.22694196924567" lon="8.249072972685099">
<ele>129.39999999999998</ele>
<time>2023-05-17T13:33:41Z</time>
</trkpt>
<trkpt lat="49.2269769217819" lon="8.249092921614647">
<ele>129.39999999999998</ele>
<time>2023-05-17T13:33:42Z</time>
</trkpt>
<trkpt lat="49.227011958137155" lon="8.249114966019988">
<ele>129.39999999999998</ele>
<time>2023-05-17T13:33:43Z</time>
</trkpt>
<trkpt lat="49.22704196535051" lon="8.24913994409144">
<ele>129.39999999999998</ele>
<time>2023-05-17T13:33:44Z</time>
</trkpt>
<trkpt lat="49.22707297839224" lon="8.24916198849678">
<ele>129.39999999999998</ele>
<time>2023-05-17T13:33:45Z</time>
</trkpt>
<trkpt lat="49.22710692510009" lon="8.249177997931838">
<ele>129.39999999999998</ele>
<time>2023-05-17T13:33:46Z</time>
</trkpt>
<trkpt lat="49.22713793814182" lon="8.249192917719483">
<ele>129.39999999999998</ele>
<time>2023-05-17T13:33:47Z</time>
</trkpt>
<trkpt lat="49.22716995701194" lon="8.249209932982922">
<ele>129.39999999999998</ele>
<time>2023-05-17T13:33:48Z</time>
</trkpt>
<trkpt lat="49.227202981710434" lon="8.249222924932837">
<ele>129.39999999999998</ele>
<time>2023-05-17T13:33:49Z</time>
</trkpt>
<trkpt lat="49.22723491676152" lon="8.249237928539515">
<ele>129.39999999999998</ele>
<time>2023-05-17T13:33:50Z</time>
</trkpt>
<trkpt lat="49.22726693563163" lon="8.24924798682332">
<ele>129.39999999999998</ele>
<time>2023-05-17T13:33:51Z</time>
</trkpt>
<trkpt lat="49.22729996033013" lon="8.249251926317811">
<ele>129.39999999999998</ele>
<time>2023-05-17T13:33:52Z</time>
</trkpt>
<trkpt lat="49.227334996685386" lon="8.24924798682332">
<ele>129.39999999999998</ele>
<time>2023-05-17T13:33:53Z</time>
</trkpt>
<trkpt lat="49.22736994922161" lon="8.249252932146192">
<ele>129.20000000000005</ele>
<time>2023-05-17T13:33:54Z</time>
</trkpt>
<trkpt lat="49.22740791924298" lon="8.24926994740963">
<ele>129.20000000000005</ele>
<time>2023-05-17T13:33:55Z</time>
</trkpt>
<trkpt lat="49.22744798474014" lon="8.24928998015821">
<ele>129.20000000000005</ele>
<time>2023-05-17T13:33:56Z</time>
</trkpt>
<trkpt lat="49.22749198973179" lon="8.249307917430997">
<ele>129.20000000000005</ele>
<time>2023-05-17T13:33:57Z</time>
</trkpt>
<trkpt lat="49.22753691673279" lon="8.249326944351196">
<ele>129.20000000000005</ele>
<time>2023-05-17T13:33:58Z</time>
</trkpt>
<trkpt lat="49.22757999971509" lon="8.249341947957873">
<ele>129.20000000000005</ele>
<time>2023-05-17T13:33:59Z</time>
</trkpt>
<trkpt lat="49.22762492671609" lon="8.249357957392931">
<ele>129.20000000000005</ele>
<time>2023-05-17T13:34:00Z</time>
</trkpt>
<trkpt lat="49.22766993753612" lon="8.249382935464382">
<ele>129.20000000000005</ele>
<time>2023-05-17T13:34:01Z</time>
</trkpt>
<trkpt lat="49.22771494835615" lon="8.249409925192595">
<ele>129.20000000000005</ele>
<time>2023-05-17T13:34:02Z</time>
</trkpt>
<trkpt lat="49.227761970832944" lon="8.249439932405949">
<ele>129.20000000000005</ele>
<time>2023-05-17T13:34:03Z</time>
</trkpt>
<trkpt lat="49.22781293280423" lon="8.249466922134161">
<ele>129.20000000000005</ele>
<time>2023-05-17T13:34:04Z</time>
</trkpt>
<trkpt lat="49.22786498442292" lon="8.249492989853024">
<ele>129.20000000000005</ele>
<time>2023-05-17T13:34:05Z</time>
</trkpt>
<trkpt lat="49.227917958050966" lon="8.249512938782573">
<ele>129.20000000000005</ele>
<time>2023-05-17T13:34:06Z</time>
</trkpt>
<trkpt lat="49.22797193750739" lon="8.24952794238925">
<ele>129.20000000000005</ele>
<time>2023-05-17T13:34:07Z</time>
</trkpt>
<trkpt lat="49.22802792862058" lon="8.249534983187914">
<ele>129.20000000000005</ele>
<time>2023-05-17T13:34:08Z</time>
</trkpt>
<trkpt lat="49.228082997724414" lon="8.249541940167546">
<ele>129.39999999999998</ele>
<time>2023-05-17T13:34:09Z</time>
</trkpt>
<trkpt lat="49.22813999466598" lon="8.249537916854024">
<ele>129.39999999999998</ele>
<time>2023-05-17T13:34:10Z</time>
</trkpt>
<trkpt lat="49.22819699160755" lon="8.249529954046011">
<ele>129.39999999999998</ele>
<time>2023-05-17T13:34:11Z</time>
</trkpt>
<trkpt lat="49.22825298272073" lon="8.249516962096095">
<ele>129.39999999999998</ele>
<time>2023-05-17T13:34:12Z</time>
</trkpt>
<trkpt lat="49.22830696217716" lon="8.24950497597456">
<ele>129.39999999999998</ele>
<time>2023-05-17T13:34:13Z</time>
</trkpt>
<trkpt lat="49.22835792414844" lon="8.249486954882741">
<ele>129.39999999999998</ele>
<time>2023-05-17T13:34:14Z</time>
</trkpt>
<trkpt lat="49.2284119874239" lon="8.24946298263967">
<ele>129.39999999999998</ele>
<time>2023-05-17T13:34:15Z</time>
</trkpt>
<trkpt lat="49.22845792025328" lon="8.249436998739839">
<ele>129.39999999999998</ele>
<time>2023-05-17T13:34:16Z</time>
</trkpt>
<trkpt lat="49.22850695438683" lon="8.249414954334497">
<ele>129.39999999999998</ele>
<time>2023-05-17T13:34:17Z</time>
</trkpt>
<trkpt lat="49.2285499535501" lon="8.249391987919807">
<ele>129.20000000000005</ele>
<time>2023-05-17T13:34:18Z</time>
</trkpt>
<trkpt lat="49.22858993522823" lon="8.249371955171227">
<ele>129.20000000000005</ele>
<time>2023-05-17T13:34:19Z</time>
</trkpt>
<trkpt lat="49.2286379635334" lon="8.24935493990779">
<ele>129.20000000000005</ele>
<time>2023-05-17T13:34:20Z</time>
</trkpt>
<trkpt lat="49.228686997666955" lon="8.24933691881597">
<ele>129.20000000000005</ele>
<time>2023-05-17T13:34:21Z</time>
</trkpt>
<trkpt lat="49.228732930496335" lon="8.249317975714803">
<ele>129.20000000000005</ele>
<time>2023-05-17T13:34:22Z</time>
</trkpt>
<trkpt lat="49.228777941316366" lon="8.249299954622984">
<ele>129.20000000000005</ele>
<time>2023-05-17T13:34:23Z</time>
</trkpt>
<trkpt lat="49.2288279812783" lon="8.249284951016307">
<ele>129.20000000000005</ele>
<time>2023-05-17T13:34:24Z</time>
</trkpt>
<trkpt lat="49.22887693159282" lon="8.249272964894772">
<ele>129.20000000000005</ele>
<time>2023-05-17T13:34:25Z</time>
</trkpt>
<trkpt lat="49.22892194241285" lon="8.249256955459714">
<ele>129.20000000000005</ele>
<time>2023-05-17T13:34:26Z</time>
</trkpt>
<trkpt lat="49.228966953232884" lon="8.249241951853037">
<ele>129.20000000000005</ele>
<time>2023-05-17T13:34:27Z</time>
</trkpt>
<trkpt lat="49.22901699319482" lon="8.24922795407474">
<ele>129.20000000000005</ele>
<time>2023-05-17T13:34:28Z</time>
</trkpt>
<trkpt lat="49.22906694933772" lon="8.249216973781586">
<ele>129.20000000000005</ele>
<time>2023-05-17T13:34:29Z</time>
</trkpt>
<trkpt lat="49.229116989299655" lon="8.24920792132616">
<ele>129.20000000000005</ele>
<time>2023-05-17T13:34:30Z</time>
</trkpt>
<trkpt lat="49.22916795127094" lon="8.249192917719483">
<ele>129.20000000000005</ele>
<time>2023-05-17T13:34:31Z</time>
</trkpt>
<trkpt lat="49.22921698540449" lon="8.249176992103457">
<ele>129.20000000000005</ele>
<time>2023-05-17T13:34:32Z</time>
</trkpt>
<trkpt lat="49.22925998456776" lon="8.249166933819652">
<ele>129.20000000000005</ele>
<time>2023-05-17T13:34:33Z</time>
</trkpt>
<trkpt lat="49.22930692322552" lon="8.249157965183258">
<ele>129.20000000000005</ele>
<time>2023-05-17T13:34:34Z</time>
</trkpt>
<trkpt lat="49.22935796901584" lon="8.249149918556213">
<ele>129.20000000000005</ele>
<time>2023-05-17T13:34:35Z</time>
</trkpt>
<trkpt lat="49.22941295430064" lon="8.249142961576581">
<ele>129.20000000000005</ele>
<time>2023-05-17T13:34:36Z</time>
</trkpt>
<trkpt lat="49.22946995124221" lon="8.249137932434678">
<ele>129.20000000000005</ele>
<time>2023-05-17T13:34:37Z</time>
</trkpt>
<trkpt lat="49.22952191904187" lon="8.249126952141523">
<ele>129.20000000000005</ele>
<time>2023-05-17T13:34:38Z</time>
</trkpt>
<trkpt lat="49.2295669298619" lon="8.249111948534846">
<ele>129.20000000000005</ele>
<time>2023-05-17T13:34:39Z</time>
</trkpt>
<trkpt lat="49.2296049837023" lon="8.249089987948537">
<ele>129.20000000000005</ele>
<time>2023-05-17T13:34:40Z</time>
</trkpt>
<trkpt lat="49.229657957330346" lon="8.249082947149873">
<ele>129.20000000000005</ele>
<time>2023-05-17T13:34:41Z</time>
</trkpt>
<trkpt lat="49.22970992513001" lon="8.249076995998621">
<ele>129.20000000000005</ele>
<time>2023-05-17T13:34:42Z</time>
</trkpt>
<trkpt lat="49.22975292429328" lon="8.249064926058054">
<ele>129.20000000000005</ele>
<time>2023-05-17T13:34:43Z</time>
</trkpt>
<trkpt lat="49.229802964255214" lon="8.24905495159328">
<ele>129.20000000000005</ele>
<time>2023-05-17T13:34:44Z</time>
</trkpt>
<trkpt lat="49.2298449575901" lon="8.249037936329842">
<ele>129.20000000000005</ele>
<time>2023-05-17T13:34:45Z</time>
</trkpt>
<trkpt lat="49.22988695092499" lon="8.249017987400293">
<ele>129.39999999999998</ele>
<time>2023-05-17T13:34:46Z</time>
</trkpt>
<trkpt lat="49.229931961745024" lon="8.249006923288107">
<ele>129.39999999999998</ele>
<time>2023-05-17T13:34:47Z</time>
</trkpt>
<trkpt lat="49.22997294925153" lon="8.248996948823333">
<ele>129.39999999999998</ele>
<time>2023-05-17T13:34:48Z</time>
</trkpt>
<trkpt lat="49.230017960071564" lon="8.24899292550981">
<ele>129.39999999999998</ele>
<time>2023-05-17T13:34:49Z</time>
</trkpt>
<trkpt lat="49.23006699420512" lon="8.248994937166572">
<ele>129.39999999999998</ele>
<time>2023-05-17T13:34:50Z</time>
</trkpt>
<trkpt lat="49.23011695034802" lon="8.24899191968143">
<ele>129.39999999999998</ele>
<time>2023-05-17T13:34:51Z</time>
</trkpt>
<trkpt lat="49.23016296699643" lon="8.248984962701797">
<ele>129.60000000000002</ele>
<time>2023-05-17T13:34:52Z</time>
</trkpt>
<trkpt lat="49.230209989473224" lon="8.248981945216656">
<ele>129.60000000000002</ele>
<time>2023-05-17T13:34:53Z</time>
</trkpt>
<trkpt lat="49.23025198280811" lon="8.248971970751882">
<ele>129.60000000000002</ele>
<time>2023-05-17T13:34:54Z</time>
</trkpt>
<trkpt lat="49.230296993628144" lon="8.248966941609979">
<ele>129.60000000000002</ele>
<time>2023-05-17T13:34:55Z</time>
</trkpt>
<trkpt lat="49.23033798113465" lon="8.248957972973585">
<ele>129.60000000000002</ele>
<time>2023-05-17T13:34:56Z</time>
</trkpt>
<trkpt lat="49.230382991954684" lon="8.248952943831682">
<ele>129.60000000000002</ele>
<time>2023-05-17T13:34:57Z</time>
</trkpt>
<trkpt lat="49.230431942269206" lon="8.248947998508811">
<ele>129.60000000000002</ele>
<time>2023-05-17T13:34:58Z</time>
</trkpt>
<trkpt lat="49.230472929775715" lon="8.248939951881766">
<ele>129.60000000000002</ele>
<time>2023-05-17T13:34:59Z</time>
</trkpt>
<trkpt lat="49.23050997778773" lon="8.248932994902134">
<ele>129.60000000000002</ele>
<time>2023-05-17T13:35:00Z</time>
</trkpt>
<trkpt lat="49.23054493032396" lon="8.248932994902134">
<ele>129.60000000000002</ele>
<time>2023-05-17T13:35:01Z</time>
</trkpt>
<trkpt lat="49.230576949194074" lon="8.248927965760231">
<ele>129.60000000000002</ele>
<time>2023-05-17T13:35:02Z</time>
</trkpt>
<trkpt lat="49.23061793670058" lon="8.248917991295457">
<ele>129.60000000000002</ele>
<time>2023-05-17T13:35:03Z</time>
</trkpt>
<trkpt lat="49.23065791837871" lon="8.24890692718327">
<ele>129.60000000000002</ele>
<time>2023-05-17T13:35:04Z</time>
</trkpt>
<trkpt lat="49.23069697804749" lon="8.248896952718496">
<ele>129.60000000000002</ele>
<time>2023-05-17T13:35:05Z</time>
</trkpt>
<trkpt lat="49.23074492253363" lon="8.248884966596961">
<ele>129.60000000000002</ele>
<time>2023-05-17T13:35:06Z</time>
</trkpt>
<trkpt lat="49.23079697415233" lon="8.248869962990284">
<ele>129.60000000000002</ele>
<time>2023-05-17T13:35:07Z</time>
</trkpt>
<trkpt lat="49.23084299080074" lon="8.248857976868749">
<ele>129.60000000000002</ele>
<time>2023-05-17T13:35:08Z</time>
</trkpt>
<trkpt lat="49.23089194111526" lon="8.248847918584943">
<ele>129.60000000000002</ele>
<time>2023-05-17T13:35:09Z</time>
</trkpt>
<trkpt lat="49.230941981077194" lon="8.248834926635027">
<ele>129.60000000000002</ele>
<time>2023-05-17T13:35:10Z</time>
</trkpt>
<trkpt lat="49.230989925563335" lon="8.24881799519062">
<ele>129.60000000000002</ele>
<time>2023-05-17T13:35:11Z</time>
</trkpt>
<trkpt lat="49.23103493638337" lon="8.248789999634027">
<ele>129.60000000000002</ele>
<time>2023-05-17T13:35:12Z</time>
</trkpt>
<trkpt lat="49.23107793554664" lon="8.248761920258403">
<ele>129.60000000000002</ele>
<time>2023-05-17T13:35:13Z</time>
</trkpt>
<trkpt lat="49.231114983558655" lon="8.248722944408655">
<ele>129.60000000000002</ele>
<time>2023-05-17T13:35:14Z</time>
</trkpt>
<trkpt lat="49.23115295358002" lon="8.24868799187243">
<ele>129.60000000000002</ele>
<time>2023-05-17T13:35:15Z</time>
</trkpt>
<trkpt lat="49.23117793165147" lon="8.248657984659076">
<ele>129.60000000000002</ele>
<time>2023-05-17T13:35:16Z</time>
</trkpt>
<trkpt lat="49.23122998327017" lon="8.248654967173934">
<ele>129.60000000000002</ele>
<time>2023-05-17T13:35:17Z</time>
</trkpt>
<trkpt lat="49.231284968554974" lon="8.248642981052399">
<ele>129.60000000000002</ele>
<time>2023-05-17T13:35:18Z</time>
</trkpt>
<trkpt lat="49.231331991031766" lon="8.248629989102483">
<ele>129.60000000000002</ele>
<time>2023-05-17T13:35:19Z</time>
</trkpt>
<trkpt lat="49.23136996105313" lon="8.248611968010664">
<ele>129.60000000000002</ele>
<time>2023-05-17T13:35:20Z</time>
</trkpt>
<trkpt lat="49.2314319871366" lon="8.248597970232368">
<ele>129.60000000000002</ele>
<time>2023-05-17T13:35:21Z</time>
</trkpt>
<trkpt lat="49.23148496076465" lon="8.248584978282452">
<ele>129.60000000000002</ele>
<time>2023-05-17T13:35:22Z</time>
</trkpt>
<trkpt lat="49.231526954099536" lon="8.248577937483788">
<ele>129.60000000000002</ele>
<time>2023-05-17T13:35:23Z</time>
</trkpt>
<trkpt lat="49.23157699406147" lon="8.248566957190633">
<ele>129.60000000000002</ele>
<time>2023-05-17T13:35:24Z</time>
</trkpt>
<trkpt lat="49.23162795603275" lon="8.248549941927195">
<ele>129.60000000000002</ele>
<time>2023-05-17T13:35:25Z</time>
</trkpt>
<trkpt lat="49.23168998211622" lon="8.248544996604323">
<ele>129.60000000000002</ele>
<time>2023-05-17T13:35:26Z</time>
</trkpt>
<trkpt lat="49.23173499293625" lon="8.248536949977279">
<ele>129.60000000000002</ele>
<time>2023-05-17T13:35:27Z</time>
</trkpt>
<trkpt lat="49.231782937422395" lon="8.248531920835376">
<ele>129.60000000000002</ele>
<time>2023-05-17T13:35:28Z</time>
</trkpt>
<trkpt lat="49.23183197155595" lon="8.248521946370602">
<ele>129.60000000000002</ele>
<time>2023-05-17T13:35:29Z</time>
</trkpt>
<trkpt lat="49.23187195323408" lon="8.248501997441053">
<ele>129.60000000000002</ele>
<time>2023-05-17T13:35:30Z</time>
</trkpt>
<trkpt lat="49.23190497793257" lon="8.248484982177615">
<ele>129.60000000000002</ele>
<time>2023-05-17T13:35:31Z</time>
</trkpt>
<trkpt lat="49.2319399304688" lon="8.248481964692473">
<ele>129.60000000000002</ele>
<time>2023-05-17T13:35:32Z</time>
</trkpt>
<trkpt lat="49.23198192380369" lon="8.24847299605608">
<ele>129.60000000000002</ele>
<time>2023-05-17T13:35:33Z</time>
</trkpt>
<trkpt lat="49.23202299512923" lon="8.248464949429035">
<ele>129.60000000000002</ele>
<time>2023-05-17T13:35:34Z</time>
</trkpt>
<trkpt lat="49.23207295127213" lon="8.248459920287132">
<ele>129.60000000000002</ele>
<time>2023-05-17T13:35:35Z</time>
</trkpt>
<trkpt lat="49.232127936556935" lon="8.248439971357584">
<ele>129.60000000000002</ele>
<time>2023-05-17T13:35:36Z</time>
</trkpt>
<trkpt lat="49.23217797651887" lon="8.24843192473054">
<ele>129.60000000000002</ele>
<time>2023-05-17T13:35:37Z</time>
</trkpt>
<trkpt lat="49.2322229873389" lon="8.248422956094146">
<ele>129.60000000000002</ele>
<time>2023-05-17T13:35:38Z</time>
</trkpt>
<trkpt lat="49.23226296901703" lon="8.248414993286133">
<ele>129.60000000000002</ele>
<time>2023-05-17T13:35:39Z</time>
</trkpt>
<trkpt lat="49.23230697400868" lon="8.248406946659088">
<ele>129.60000000000002</ele>
<time>2023-05-17T13:35:40Z</time>
</trkpt>
<trkpt lat="49.23235299065709" lon="8.248401917517185">
<ele>129.60000000000002</ele>
<time>2023-05-17T13:35:41Z</time>
</trkpt>
<trkpt lat="49.23239498399198" lon="8.248394960537553">
<ele>129.60000000000002</ele>
<time>2023-05-17T13:35:42Z</time>
</trkpt>
<trkpt lat="49.23244292847812" lon="8.248392948880792">
<ele>129.60000000000002</ele>
<time>2023-05-17T13:35:43Z</time>
</trkpt>
<trkpt lat="49.2324819881469" lon="8.24838699772954">
<ele>129.60000000000002</ele>
<time>2023-05-17T13:35:44Z</time>
</trkpt>
<trkpt lat="49.23251794651151" lon="8.248377945274115">
<ele>129.60000000000002</ele>
<time>2023-05-17T13:35:45Z</time>
</trkpt>
<trkpt lat="49.23256195150316" lon="8.248371994122863">
<ele>129.60000000000002</ele>
<time>2023-05-17T13:35:46Z</time>
</trkpt>
<trkpt lat="49.23261693678796" lon="8.24836696498096">
<ele>129.60000000000002</ele>
<time>2023-05-17T13:35:47Z</time>
</trkpt>
<trkpt lat="49.2326529789716" lon="8.248356990516186">
<ele>129.60000000000002</ele>
<time>2023-05-17T13:35:48Z</time>
</trkpt>
<trkpt lat="49.23268994316459" lon="8.24834693223238">
<ele>129.60000000000002</ele>
<time>2023-05-17T13:35:49Z</time>
</trkpt>
<trkpt lat="49.23273294232786" lon="8.248336957767606">
<ele>129.60000000000002</ele>
<time>2023-05-17T13:35:50Z</time>
</trkpt>
<trkpt lat="49.232774935662746" lon="8.248326983302832">
<ele>129.60000000000002</ele>
<time>2023-05-17T13:35:51Z</time>
</trkpt>
<trkpt lat="49.23280796036124" lon="8.248321954160929">
<ele>129.60000000000002</ele>
<time>2023-05-17T13:35:52Z</time>
</trkpt>
<trkpt lat="49.23284492455423" lon="8.248317930847406">
<ele>129.39999999999998</ele>
<time>2023-05-17T13:35:53Z</time>
</trkpt>
<trkpt lat="49.23288197256625" lon="8.248312985524535">
<ele>129.60000000000002</ele>
<time>2023-05-17T13:35:54Z</time>
</trkpt>
<trkpt lat="49.232921954244375" lon="8.248301921412349">
<ele>129.60000000000002</ele>
<time>2023-05-17T13:35:55Z</time>
</trkpt>
<trkpt lat="49.232966965064406" lon="8.248292952775955">
<ele>129.60000000000002</ele>
<time>2023-05-17T13:35:56Z</time>
</trkpt>
<trkpt lat="49.23301499336958" lon="8.248282978311181">
<ele>129.60000000000002</ele>
<time>2023-05-17T13:35:57Z</time>
</trkpt>
<trkpt lat="49.23306293785572" lon="8.248267974704504">
<ele>129.60000000000002</ele>
<time>2023-05-17T13:35:58Z</time>
</trkpt>
<trkpt lat="49.23310291953385" lon="8.24825992807746">
<ele>129.60000000000002</ele>
<time>2023-05-17T13:35:59Z</time>
</trkpt>
<trkpt lat="49.233137955889106" lon="8.248247941955924">
<ele>129.60000000000002</ele>
<time>2023-05-17T13:36:00Z</time>
</trkpt>
<trkpt lat="49.23317693173885" lon="8.248241990804672">
<ele>129.60000000000002</ele>
<time>2023-05-17T13:36:01Z</time>
</trkpt>
<trkpt lat="49.23321993090212" lon="8.24823696166277">
<ele>129.60000000000002</ele>
<time>2023-05-17T13:36:02Z</time>
</trkpt>
<trkpt lat="49.23325295560062" lon="8.248229920864105">
<ele>129.60000000000002</ele>
<time>2023-05-17T13:36:03Z</time>
</trkpt>
<trkpt lat="49.23329696059227" lon="8.248219946399331">
<ele>129.60000000000002</ele>
<time>2023-05-17T13:36:04Z</time>
</trkpt>
<trkpt lat="49.23333794809878" lon="8.248212989419699">
<ele>129.60000000000002</ele>
<time>2023-05-17T13:36:05Z</time>
</trkpt>
<trkpt lat="49.23336795531213" lon="8.248204942792654">
<ele>129.60000000000002</ele>
<time>2023-05-17T13:36:06Z</time>
</trkpt>
<trkpt lat="49.233392933383584" lon="8.248181976377964">
<ele>129.79999999999995</ele>
<time>2023-05-17T13:36:07Z</time>
</trkpt>
<trkpt lat="49.233414977788925" lon="8.248142916709185">
<ele>129.79999999999995</ele>
<time>2023-05-17T13:36:08Z</time>
</trkpt>
<trkpt lat="49.2334299813956" lon="8.24808994308114">
<ele>129.79999999999995</ele>
<time>2023-05-17T13:36:09Z</time>
</trkpt>
<trkpt lat="49.233437944203615" lon="8.248027916997671">
<ele>129.79999999999995</ele>
<time>2023-05-17T13:36:10Z</time>
</trkpt>
<trkpt lat="49.23344791866839" lon="8.247961951419711">
<ele>129.79999999999995</ele>
<time>2023-05-17T13:36:11Z</time>
</trkpt>
<trkpt lat="49.23345194198191" lon="8.247886933386326">
<ele>130</ele>
<time>2023-05-17T13:36:12Z</time>
</trkpt>
<trkpt lat="49.23345495946705" lon="8.247822979465127">
<ele>130</ele>
<time>2023-05-17T13:36:13Z</time>
</trkpt>
<trkpt lat="49.233456971123815" lon="8.247756930068135">
<ele>130</ele>
<time>2023-05-17T13:36:14Z</time>
</trkpt>
<trkpt lat="49.233457976952195" lon="8.247687947005033">
<ele>130</ele>
<time>2023-05-17T13:36:15Z</time>
</trkpt>
<trkpt lat="49.233461916446686" lon="8.247622987255454">
<ele>130</ele>
<time>2023-05-17T13:36:16Z</time>
</trkpt>
<trkpt lat="49.233459988608956" lon="8.247552998363972">
<ele>130</ele>
<time>2023-05-17T13:36:17Z</time>
</trkpt>
<trkpt lat="49.233456971123815" lon="8.247481919825077">
<ele>130</ele>
<time>2023-05-17T13:36:18Z</time>
</trkpt>
<trkpt lat="49.233457976952195" lon="8.247409919276834">
<ele>130</ele>
<time>2023-05-17T13:36:19Z</time>
</trkpt>
<trkpt lat="49.233457976952195" lon="8.247342947870493">
<ele>130</ele>
<time>2023-05-17T13:36:20Z</time>
</trkpt>
<trkpt lat="49.233462922275066" lon="8.247259967029095">
<ele>130</ele>
<time>2023-05-17T13:36:21Z</time>
</trkpt>
<trkpt lat="49.23346493393183" lon="8.247187966480851">
<ele>130</ele>
<time>2023-05-17T13:36:22Z</time>
</trkpt>
<trkpt lat="49.23346795141697" lon="8.247114960104227">
<ele>130</ele>
<time>2023-05-17T13:36:23Z</time>
</trkpt>
<trkpt lat="49.23347298055887" lon="8.247044971212745">
<ele>130</ele>
<time>2023-05-17T13:36:24Z</time>
</trkpt>
<trkpt lat="49.23347692005336" lon="8.246976993978024">
<ele>130</ele>
<time>2023-05-17T13:36:25Z</time>
</trkpt>
<trkpt lat="49.233479937538505" lon="8.24690692126751">
<ele>130.20000000000005</ele>
<time>2023-05-17T13:36:26Z</time>
</trkpt>
<trkpt lat="49.233482955023646" lon="8.246829975396395">
<ele>130.20000000000005</ele>
<time>2023-05-17T13:36:27Z</time>
</trkpt>
<trkpt lat="49.23348697833717" lon="8.246759986504912">
<ele>130.20000000000005</ele>
<time>2023-05-17T13:36:28Z</time>
</trkpt>
<trkpt lat="49.23348999582231" lon="8.246686980128288">
<ele>130.20000000000005</ele>
<time>2023-05-17T13:36:29Z</time>
</trkpt>
<trkpt lat="49.23349695280194" lon="8.246612967923284">
<ele>130.20000000000005</ele>
<time>2023-05-17T13:36:30Z</time>
</trkpt>
<trkpt lat="49.23350499942899" lon="8.24653996154666">
<ele>130.20000000000005</ele>
<time>2023-05-17T13:36:31Z</time>
</trkpt>
<trkpt lat="49.23351698555052" lon="8.246471984311938">
<ele>130.20000000000005</ele>
<time>2023-05-17T13:36:32Z</time>
</trkpt>
<trkpt lat="49.2335269600153" lon="8.24641196988523">
<ele>130.20000000000005</ele>
<time>2023-05-17T13:36:33Z</time>
</trkpt>
<trkpt lat="49.23353693448007" lon="8.246354972943664">
<ele>130.20000000000005</ele>
<time>2023-05-17T13:36:34Z</time>
</trkpt>
<trkpt lat="49.233541963621974" lon="8.246302921324968">
<ele>130.20000000000005</ele>
<time>2023-05-17T13:36:35Z</time>
</trkpt>
<trkpt lat="49.23354699276388" lon="8.246254976838827">
<ele>130.20000000000005</ele>
<time>2023-05-17T13:36:36Z</time>
</trkpt>
<trkpt lat="49.23355696722865" lon="8.246209966018796">
<ele>130.20000000000005</ele>
<time>2023-05-17T13:36:37Z</time>
</trkpt>
<trkpt lat="49.233561996370554" lon="8.246162943542004">
<ele>130.20000000000005</ele>
<time>2023-05-17T13:36:38Z</time>
</trkpt>
<trkpt lat="49.23357297666371" lon="8.246126985177398">
<ele>130.20000000000005</ele>
<time>2023-05-17T13:36:39Z</time>
</trkpt>
<trkpt lat="49.233586974442005" lon="8.24609194882214">
<ele>130.20000000000005</ele>
<time>2023-05-17T13:36:40Z</time>
</trkpt>
<trkpt lat="49.23360298387706" lon="8.246062947437167">
<ele>130.20000000000005</ele>
<time>2023-05-17T13:36:41Z</time>
</trkpt>
<trkpt lat="49.23361698165536" lon="8.246036963537335">
<ele>130.20000000000005</ele>
<time>2023-05-17T13:36:42Z</time>
</trkpt>
<trkpt lat="49.233627961948514" lon="8.246007962152362">
<ele>130.20000000000005</ele>
<time>2023-05-17T13:36:43Z</time>
</trkpt>
<trkpt lat="49.23364195972681" lon="8.245971919968724">
<ele>130.20000000000005</ele>
<time>2023-05-17T13:36:44Z</time>
</trkpt>
<trkpt lat="49.233654951676726" lon="8.245931938290596">
<ele>130.20000000000005</ele>
<time>2023-05-17T13:36:45Z</time>
</trkpt>
<trkpt lat="49.2336649261415" lon="8.245887933298945">
<ele>130.20000000000005</ele>
<time>2023-05-17T13:36:46Z</time>
</trkpt>
<trkpt lat="49.233674984425306" lon="8.245839988812804">
<ele>130.20000000000005</ele>
<time>2023-05-17T13:36:47Z</time>
</trkpt>
<trkpt lat="49.23368294723332" lon="8.245784919708967">
<ele>130.20000000000005</ele>
<time>2023-05-17T13:36:48Z</time>
</trkpt>
<trkpt lat="49.233691999688745" lon="8.24572691693902">
<ele>130.20000000000005</ele>
<time>2023-05-17T13:36:49Z</time>
</trkpt>
<trkpt lat="49.23370499163866" lon="8.245666986331344">
<ele>130.20000000000005</ele>
<time>2023-05-17T13:36:50Z</time>
</trkpt>
<trkpt lat="49.23371295444667" lon="8.245601942762733">
<ele>130.20000000000005</ele>
<time>2023-05-17T13:36:51Z</time>
</trkpt>
<trkpt lat="49.23372494056821" lon="8.245534971356392">
<ele>130.20000000000005</ele>
<time>2023-05-17T13:36:52Z</time>
</trkpt>
<trkpt lat="49.23373298719525" lon="8.245461964979768">
<ele>130.20000000000005</ele>
<time>2023-05-17T13:36:53Z</time>
</trkpt>
<trkpt lat="49.23374991863966" lon="8.245389964431524">
<ele>130.20000000000005</ele>
<time>2023-05-17T13:36:54Z</time>
</trkpt>
<trkpt lat="49.233771963045" lon="8.245319975540042">
<ele>130.20000000000005</ele>
<time>2023-05-17T13:36:55Z</time>
</trkpt>
<trkpt lat="49.23378998413682" lon="8.245244957506657">
<ele>130.20000000000005</ele>
<time>2023-05-17T13:36:56Z</time>
</trkpt>
<trkpt lat="49.23380792140961" lon="8.245169939473271">
<ele>130.20000000000005</ele>
<time>2023-05-17T13:36:57Z</time>
</trkpt>
<trkpt lat="49.233822925016284" lon="8.245092993602157">
<ele>130.20000000000005</ele>
<time>2023-05-17T13:36:58Z</time>
</trkpt>
<trkpt lat="49.23383499495685" lon="8.24501696974039">
<ele>130.20000000000005</ele>
<time>2023-05-17T13:36:59Z</time>
</trkpt>
<trkpt lat="49.23384798690677" lon="8.244941951707006">
<ele>130.20000000000005</ele>
<time>2023-05-17T13:37:00Z</time>
</trkpt>
<trkpt lat="49.23386198468506" lon="8.244867939502">
<ele>130.20000000000005</ele>
<time>2023-05-17T13:37:01Z</time>
</trkpt>
<trkpt lat="49.23387497663498" lon="8.244792921468616">
<ele>130.20000000000005</ele>
<time>2023-05-17T13:37:02Z</time>
</trkpt>
<trkpt lat="49.233886962756515" lon="8.24471496976912">
<ele>130.20000000000005</ele>
<time>2023-05-17T13:37:03Z</time>
</trkpt>
<trkpt lat="49.23389995470643" lon="8.244637940078974">
<ele>130.20000000000005</ele>
<time>2023-05-17T13:37:04Z</time>
</trkpt>
<trkpt lat="49.233912946656346" lon="8.244559988379478">
<ele>130.20000000000005</ele>
<time>2023-05-17T13:37:05Z</time>
</trkpt>
<trkpt lat="49.23392795026302" lon="8.244481952860951">
<ele>130.20000000000005</ele>
<time>2023-05-17T13:37:06Z</time>
</trkpt>
<trkpt lat="49.23394496552646" lon="8.244406934827566">
<ele>130.20000000000005</ele>
<time>2023-05-17T13:37:07Z</time>
</trkpt>
<trkpt lat="49.23396692611277" lon="8.244336945936084">
<ele>130.20000000000005</ele>
<time>2023-05-17T13:37:08Z</time>
</trkpt>
<trkpt lat="49.23398293554783" lon="8.24426494538784">
<ele>130.20000000000005</ele>
<time>2023-05-17T13:37:09Z</time>
</trkpt>
<trkpt lat="49.23399995081127" lon="8.244191939011216">
<ele>130.20000000000005</ele>
<time>2023-05-17T13:37:10Z</time>
</trkpt>
<trkpt lat="49.234014954417944" lon="8.24411692097783">
<ele>130.20000000000005</ele>
<time>2023-05-17T13:37:11Z</time>
</trkpt>
<trkpt lat="49.23402995802462" lon="8.244044920429587">
<ele>130.20000000000005</ele>
<time>2023-05-17T13:37:12Z</time>
</trkpt>
<trkpt lat="49.23404294997454" lon="8.243972919881344">
<ele>130.20000000000005</ele>
<time>2023-05-17T13:37:13Z</time>
</trkpt>
<trkpt lat="49.23405694775283" lon="8.243901925161481">
<ele>130.20000000000005</ele>
<time>2023-05-17T13:37:14Z</time>
</trkpt>
<trkpt lat="49.23406993970275" lon="8.24383294209838">
<ele>130.20000000000005</ele>
<time>2023-05-17T13:37:15Z</time>
</trkpt>
<trkpt lat="49.234081925824285" lon="8.24376697652042">
<ele>130.20000000000005</ele>
<time>2023-05-17T13:37:16Z</time>
</trkpt>
<trkpt lat="49.2340949177742" lon="8.243701932951808">
<ele>130.20000000000005</ele>
<time>2023-05-17T13:37:17Z</time>
</trkpt>
<trkpt lat="49.23411193303764" lon="8.243634961545467">
<ele>130.20000000000005</ele>
<time>2023-05-17T13:37:18Z</time>
</trkpt>
<trkpt lat="49.234126936644316" lon="8.243567990139127">
<ele>130.20000000000005</ele>
<time>2023-05-17T13:37:19Z</time>
</trkpt>
<trkpt lat="49.23414294607937" lon="8.243501940742135">
<ele>130.20000000000005</ele>
<time>2023-05-17T13:37:20Z</time>
</trkpt>
<trkpt lat="49.23415493220091" lon="8.243432957679033">
<ele>130.39999999999998</ele>
<time>2023-05-17T13:37:21Z</time>
</trkpt>
<trkpt lat="49.23417194746435" lon="8.243369925767183">
<ele>130.39999999999998</ele>
<time>2023-05-17T13:37:22Z</time>
</trkpt>
<trkpt lat="49.234186951071024" lon="8.243304966017604">
<ele>130.39999999999998</ele>
<time>2023-05-17T13:37:23Z</time>
</trkpt>
<trkpt lat="49.23420296050608" lon="8.243239922448993">
<ele>130.39999999999998</ele>
<time>2023-05-17T13:37:24Z</time>
</trkpt>
<trkpt lat="49.23421997576952" lon="8.243176974356174">
<ele>130.39999999999998</ele>
<time>2023-05-17T13:37:25Z</time>
</trkpt>
<trkpt lat="49.23423992469907" lon="8.243117965757847">
<ele>130.39999999999998</ele>
<time>2023-05-17T13:37:26Z</time>
</trkpt>
<trkpt lat="49.23425995744765" lon="8.243057951331139">
<ele>130.39999999999998</ele>
<time>2023-05-17T13:37:27Z</time>
</trkpt>
<trkpt lat="49.2342849355191" lon="8.24299793690443">
<ele>130.39999999999998</ele>
<time>2023-05-17T13:37:28Z</time>
</trkpt>
<trkpt lat="49.23430999740958" lon="8.242937922477722">
<ele>130.39999999999998</ele>
<time>2023-05-17T13:37:29Z</time>
</trkpt>
<trkpt lat="49.234336987137794" lon="8.242884948849678">
<ele>130.39999999999998</ele>
<time>2023-05-17T13:37:30Z</time>
</trkpt>
<trkpt lat="49.23436699435115" lon="8.242842955514789">
<ele>130.39999999999998</ele>
<time>2023-05-17T13:37:31Z</time>
</trkpt>
<trkpt lat="49.234401946887374" lon="8.242794927209616">
<ele>130.39999999999998</ele>
<time>2023-05-17T13:37:32Z</time>
</trkpt>
<trkpt lat="49.23443698324263" lon="8.24273994192481">
<ele>130.39999999999998</ele>
<time>2023-05-17T13:37:33Z</time>
</trkpt>
<trkpt lat="49.234471935778856" lon="8.242676993831992">
<ele>130.39999999999998</ele>
<time>2023-05-17T13:37:34Z</time>
</trkpt>
<trkpt lat="49.23449993133545" lon="8.242617985233665">
<ele>130.39999999999998</ele>
<time>2023-05-17T13:37:35Z</time>
</trkpt>
<trkpt lat="49.23452692106366" lon="8.242564927786589">
<ele>130.39999999999998</ele>
<time>2023-05-17T13:37:36Z</time>
</trkpt>
<trkpt lat="49.234551982954144" lon="8.242514971643686">
<ele>130.39999999999998</ele>
<time>2023-05-17T13:37:37Z</time>
</trkpt>
<trkpt lat="49.23457997851074" lon="8.242467949166894">
<ele>130.39999999999998</ele>
<time>2023-05-17T13:37:38Z</time>
</trkpt>
<trkpt lat="49.23460696823895" lon="8.242422938346863">
<ele>130.60000000000002</ele>
<time>2023-05-17T13:37:39Z</time>
</trkpt>
<trkpt lat="49.23462297767401" lon="8.242377927526832">
<ele>130.60000000000002</ele>
<time>2023-05-17T13:37:40Z</time>
</trkpt>
<trkpt lat="49.23463295213878" lon="8.242326965555549">
<ele>130.79999999999995</ele>
<time>2023-05-17T13:37:41Z</time>
</trkpt>
<trkpt lat="49.23464493826032" lon="8.242274997755885">
<ele>130.79999999999995</ele>
<time>2023-05-17T13:37:42Z</time>
</trkpt>
<trkpt lat="49.23465793021023" lon="8.242227975279093">
<ele>130.79999999999995</ele>
<time>2023-05-17T13:37:43Z</time>
</trkpt>
<trkpt lat="49.23467192798853" lon="8.242191933095455">
<ele>130.79999999999995</ele>
<time>2023-05-17T13:37:44Z</time>
</trkpt>
<trkpt lat="49.234681986272335" lon="8.242159998044372">
<ele>130.79999999999995</ele>
<time>2023-05-17T13:37:45Z</time>
</trkpt>
<trkpt lat="49.23468793742359" lon="8.242131918668747">
<ele>130.79999999999995</ele>
<time>2023-05-17T13:37:46Z</time>
</trkpt>
<trkpt lat="49.23469698987901" lon="8.242104928940535">
<ele>130.79999999999995</ele>
<time>2023-05-17T13:37:47Z</time>
</trkpt>
<trkpt lat="49.234706964343786" lon="8.242077939212322">
<ele>130.79999999999995</ele>
<time>2023-05-17T13:37:48Z</time>
</trkpt>
<trkpt lat="49.23471794463694" lon="8.24204994365573">
<ele>130.79999999999995</ele>
<time>2023-05-17T13:37:49Z</time>
</trkpt>
<trkpt lat="49.23473495990038" lon="8.242011973634362">
<ele>130.79999999999995</ele>
<time>2023-05-17T13:37:50Z</time>
</trkpt>
<trkpt lat="49.23475499264896" lon="8.241966962814331">
<ele>130.79999999999995</ele>
<time>2023-05-17T13:37:51Z</time>
</trkpt>
<trkpt lat="49.23477695323527" lon="8.241917928680778">
<ele>130.79999999999995</ele>
<time>2023-05-17T13:37:52Z</time>
</trkpt>
<trkpt lat="49.23479497432709" lon="8.241867972537875">
<ele>130.79999999999995</ele>
<time>2023-05-17T13:37:53Z</time>
</trkpt>
<trkpt lat="49.234809977933764" lon="8.241814998909831">
<ele>131</ele>
<time>2023-05-17T13:37:54Z</time>
</trkpt>
<trkpt lat="49.23482498154044" lon="8.241757918149233">
<ele>131</ele>
<time>2023-05-17T13:37:55Z</time>
</trkpt>
<trkpt lat="49.23483998514712" lon="8.241697987541556">
<ele>131</ele>
<time>2023-05-17T13:37:56Z</time>
</trkpt>
<trkpt lat="49.234856916591525" lon="8.24164199642837">
<ele>131</ele>
<time>2023-05-17T13:37:57Z</time>
</trkpt>
<trkpt lat="49.234874937683344" lon="8.241584999486804">
<ele>131</ele>
<time>2023-05-17T13:37:58Z</time>
</trkpt>
<trkpt lat="49.23488499596715" lon="8.241527918726206">
<ele>131</ele>
<time>2023-05-17T13:37:59Z</time>
</trkpt>
<trkpt lat="49.23488792963326" lon="8.24146798811853">
<ele>131</ele>
<time>2023-05-17T13:38:00Z</time>
</trkpt>
<trkpt lat="49.23489295877516" lon="8.24140696786344">
<ele>131</ele>
<time>2023-05-17T13:38:01Z</time>
</trkpt>
<trkpt lat="49.23490293323994" lon="8.24134192429483">
<ele>131</ele>
<time>2023-05-17T13:38:02Z</time>
</trkpt>
<trkpt lat="49.23491693101823" lon="8.241274952888489">
<ele>131</ele>
<time>2023-05-17T13:38:03Z</time>
</trkpt>
<trkpt lat="49.23493495211005" lon="8.241206975653768">
<ele>131</ele>
<time>2023-05-17T13:38:04Z</time>
</trkpt>
<trkpt lat="49.23495791852474" lon="8.241139920428395">
<ele>131</ele>
<time>2023-05-17T13:38:05Z</time>
</trkpt>
<trkpt lat="49.234981974586844" lon="8.241074960678816">
<ele>131</ele>
<time>2023-05-17T13:38:06Z</time>
</trkpt>
<trkpt lat="49.23500192351639" lon="8.241007989272475">
<ele>131</ele>
<time>2023-05-17T13:38:07Z</time>
</trkpt>
<trkpt lat="49.23501994460821" lon="8.240942945703864">
<ele>131</ele>
<time>2023-05-17T13:38:08Z</time>
</trkpt>
<trkpt lat="49.23503796570003" lon="8.240879997611046">
<ele>131</ele>
<time>2023-05-17T13:38:09Z</time>
</trkpt>
<trkpt lat="49.23505296930671" lon="8.240816965699196">
<ele>131</ele>
<time>2023-05-17T13:38:10Z</time>
</trkpt>
<trkpt lat="49.235069984570146" lon="8.240752927958965">
<ele>131</ele>
<time>2023-05-17T13:38:11Z</time>
</trkpt>
<trkpt lat="49.23508792184293" lon="8.240691991522908">
<ele>131</ele>
<time>2023-05-17T13:38:12Z</time>
</trkpt>
<trkpt lat="49.23510795459151" lon="8.240627953782678">
<ele>131</ele>
<time>2023-05-17T13:38:13Z</time>
</trkpt>
<trkpt lat="49.23512798734009" lon="8.240564921870828">
<ele>131</ele>
<time>2023-05-17T13:38:14Z</time>
</trkpt>
<trkpt lat="49.23514793626964" lon="8.240499962121248">
<ele>131</ele>
<time>2023-05-17T13:38:15Z</time>
</trkpt>
<trkpt lat="49.23516998067498" lon="8.240434918552637">
<ele>131</ele>
<time>2023-05-17T13:38:16Z</time>
</trkpt>
<trkpt lat="49.23519294708967" lon="8.240367947146297">
<ele>131</ele>
<time>2023-05-17T13:38:17Z</time>
</trkpt>
<trkpt lat="49.23521792516112" lon="8.240306926891208">
<ele>131.20000000000005</ele>
<time>2023-05-17T13:38:18Z</time>
</trkpt>
<trkpt lat="49.23524499870837" lon="8.240246996283531">
<ele>131.20000000000005</ele>
<time>2023-05-17T13:38:19Z</time>
</trkpt>
<trkpt lat="49.23527198843658" lon="8.240186981856823">
<ele>131.20000000000005</ele>
<time>2023-05-17T13:38:20Z</time>
</trkpt>
<trkpt lat="49.235301995649934" lon="8.240126967430115">
<ele>131.20000000000005</ele>
<time>2023-05-17T13:38:21Z</time>
</trkpt>
<trkpt lat="49.23533292487264" lon="8.24007298797369">
<ele>131.20000000000005</ele>
<time>2023-05-17T13:38:22Z</time>
</trkpt>
<trkpt lat="49.23536695539951" lon="8.240026971325278">
<ele>131.20000000000005</ele>
<time>2023-05-17T13:38:23Z</time>
</trkpt>
<trkpt lat="49.23540492542088" lon="8.239982966333628">
<ele>131.20000000000005</ele>
<time>2023-05-17T13:38:24Z</time>
</trkpt>
<trkpt lat="49.23544691875577" lon="8.239939967170358">
<ele>131.20000000000005</ele>
<time>2023-05-17T13:38:25Z</time>
</trkpt>
<trkpt lat="49.23548799008131" lon="8.239894956350327">
<ele>131.20000000000005</ele>
<time>2023-05-17T13:38:26Z</time>
</trkpt>
<trkpt lat="49.2355299834162" lon="8.239847933873534">
<ele>131.20000000000005</ele>
<time>2023-05-17T13:38:27Z</time>
</trkpt>
<trkpt lat="49.23557298257947" lon="8.239802923053503">
<ele>131.20000000000005</ele>
<time>2023-05-17T13:38:28Z</time>
</trkpt>
<trkpt lat="49.23561698757112" lon="8.239756990224123">
<ele>131.20000000000005</ele>
<time>2023-05-17T13:38:29Z</time>
</trkpt>
<trkpt lat="49.23566199839115" lon="8.23970795609057">
<ele>131.20000000000005</ele>
<time>2023-05-17T13:38:30Z</time>
</trkpt>
<trkpt lat="49.23570499755442" lon="8.239657999947667">
<ele>131.20000000000005</ele>
<time>2023-05-17T13:38:31Z</time>
</trkpt>
<trkpt lat="49.23574799671769" lon="8.239607959985733">
<ele>131.20000000000005</ele>
<time>2023-05-17T13:38:32Z</time>
</trkpt>
<trkpt lat="49.23578797839582" lon="8.239554986357689">
<ele>131.20000000000005</ele>
<time>2023-05-17T13:38:33Z</time>
</trkpt>
<trkpt lat="49.235824942588806" lon="8.239497989416122">
<ele>131.20000000000005</ele>
<time>2023-05-17T13:38:34Z</time>
</trkpt>
<trkpt lat="49.23585997894406" lon="8.239436969161034">
<ele>131.20000000000005</ele>
<time>2023-05-17T13:38:35Z</time>
</trkpt>
<trkpt lat="49.23589291982353" lon="8.239369997754693">
<ele>131.20000000000005</ele>
<time>2023-05-17T13:38:36Z</time>
</trkpt>
<trkpt lat="49.23592493869364" lon="8.239299925044179">
<ele>131.20000000000005</ele>
<time>2023-05-17T13:38:37Z</time>
</trkpt>
<trkpt lat="49.235954945907" lon="8.239226918667555">
<ele>131.20000000000005</ele>
<time>2023-05-17T13:38:38Z</time>
</trkpt>
<trkpt lat="49.23598294146359" lon="8.239152990281582">
<ele>131.20000000000005</ele>
<time>2023-05-17T13:38:39Z</time>
</trkpt>
<trkpt lat="49.2360099311918" lon="8.239076966419816">
<ele>131.20000000000005</ele>
<time>2023-05-17T13:38:40Z</time>
</trkpt>
<trkpt lat="49.236032981425524" lon="8.23900194838643">
<ele>131.20000000000005</ele>
<time>2023-05-17T13:38:41Z</time>
</trkpt>
<trkpt lat="49.236056953668594" lon="8.238927936181426">
<ele>131.20000000000005</ele>
<time>2023-05-17T13:38:42Z</time>
</trkpt>
<trkpt lat="49.236077992245555" lon="8.238856941461563">
<ele>131.20000000000005</ele>
<time>2023-05-17T13:38:43Z</time>
</trkpt>
<trkpt lat="49.2360979411751" lon="8.238781923428178">
<ele>131.20000000000005</ele>
<time>2023-05-17T13:38:44Z</time>
</trkpt>
<trkpt lat="49.2361169680953" lon="8.238704977557063">
<ele>131.20000000000005</ele>
<time>2023-05-17T13:38:45Z</time>
</trkpt>
<trkpt lat="49.23613691702485" lon="8.238627947866917">
<ele>131.20000000000005</ele>
<time>2023-05-17T13:38:46Z</time>
</trkpt>
<trkpt lat="49.23615694977343" lon="8.23854697868228">
<ele>131.20000000000005</ele>
<time>2023-05-17T13:38:47Z</time>
</trkpt>
<trkpt lat="49.23617698252201" lon="8.23846491985023">
<ele>131.20000000000005</ele>
<time>2023-05-17T13:38:48Z</time>
</trkpt>
<trkpt lat="49.2361949197948" lon="8.238381939008832">
<ele>131.20000000000005</ele>
<time>2023-05-17T13:38:49Z</time>
</trkpt>
<trkpt lat="49.23621294088662" lon="8.238301975652575">
<ele>131.20000000000005</ele>
<time>2023-05-17T13:38:50Z</time>
</trkpt>
<trkpt lat="49.23622693866491" lon="8.238221928477287">
<ele>131.39999999999998</ele>
<time>2023-05-17T13:38:51Z</time>
</trkpt>
<trkpt lat="49.23623791895807" lon="8.238142970949411">
<ele>131.39999999999998</ele>
<time>2023-05-17T13:38:52Z</time>
</trkpt>
<trkpt lat="49.236247977241874" lon="8.238069964572787">
<ele>131.39999999999998</ele>
<time>2023-05-17T13:38:53Z</time>
</trkpt>
<trkpt lat="49.23625795170665" lon="8.237997964024544">
<ele>131.39999999999998</ele>
<time>2023-05-17T13:38:54Z</time>
</trkpt>
<trkpt lat="49.23626499250531" lon="8.23792696930468">
<ele>131.39999999999998</ele>
<time>2023-05-17T13:38:55Z</time>
</trkpt>
<trkpt lat="49.236271949484944" lon="8.23785999789834">
<ele>131.39999999999998</ele>
<time>2023-05-17T13:38:56Z</time>
</trkpt>
<trkpt lat="49.236274966970086" lon="8.23779696598649">
<ele>131.39999999999998</ele>
<time>2023-05-17T13:38:57Z</time>
</trkpt>
<trkpt lat="49.23627798445523" lon="8.23773493990302">
<ele>131.39999999999998</ele>
<time>2023-05-17T13:38:58Z</time>
</trkpt>
<trkpt lat="49.23627999611199" lon="8.237671991810203">
<ele>131.60000000000002</ele>
<time>2023-05-17T13:38:59Z</time>
</trkpt>
<trkpt lat="49.23628192394972" lon="8.237606948241591">
<ele>131.60000000000002</ele>
<time>2023-05-17T13:39:00Z</time>
</trkpt>
<trkpt lat="49.2362829297781" lon="8.23753796517849">
<ele>131.60000000000002</ele>
<time>2023-05-17T13:39:01Z</time>
</trkpt>
<trkpt lat="49.23628192394972" lon="8.237467976287007">
<ele>131.79999999999995</ele>
<time>2023-05-17T13:39:02Z</time>
</trkpt>
<trkpt lat="49.23627999611199" lon="8.237394969910383">
<ele>131.79999999999995</ele>
<time>2023-05-17T13:39:03Z</time>
</trkpt>
<trkpt lat="49.23627999611199" lon="8.237319951876998">
<ele>132</ele>
<time>2023-05-17T13:39:04Z</time>
</trkpt>
<trkpt lat="49.23627798445523" lon="8.237242922186852">
<ele>132</ele>
<time>2023-05-17T13:39:05Z</time>
</trkpt>
<trkpt lat="49.23627999611199" lon="8.237162958830595">
<ele>132</ele>
<time>2023-05-17T13:39:06Z</time>
</trkpt>
<trkpt lat="49.23628192394972" lon="8.237084923312068">
<ele>132.20000000000005</ele>
<time>2023-05-17T13:39:07Z</time>
</trkpt>
<trkpt lat="49.23628192394972" lon="8.237004959955812">
<ele>132.20000000000005</ele>
<time>2023-05-17T13:39:08Z</time>
</trkpt>
<trkpt lat="49.2362829297781" lon="8.236921979114413">
<ele>132.39999999999998</ele>
<time>2023-05-17T13:39:09Z</time>
</trkpt>
<trkpt lat="49.23628494143486" lon="8.236836986616254">
<ele>132.39999999999998</ele>
<time>2023-05-17T13:39:10Z</time>
</trkpt>
<trkpt lat="49.23628494143486" lon="8.236751994118094">
<ele>132.39999999999998</ele>
<time>2023-05-17T13:39:11Z</time>
</trkpt>
<trkpt lat="49.23628695309162" lon="8.236666917800903">
<ele>132.60000000000002</ele>
<time>2023-05-17T13:39:12Z</time>
</trkpt>
<trkpt lat="49.23628997057676" lon="8.236584942787886">
<ele>132.60000000000002</ele>
<time>2023-05-17T13:39:13Z</time>
</trkpt>
<trkpt lat="49.236292988061905" lon="8.236499950289726">
<ele>132.60000000000002</ele>
<time>2023-05-17T13:39:14Z</time>
</trkpt>
<trkpt lat="49.236294999718666" lon="8.236414957791567">
<ele>132.79999999999995</ele>
<time>2023-05-17T13:39:15Z</time>
</trkpt>
<trkpt lat="49.236297933384776" lon="8.236329965293407">
<ele>132.79999999999995</ele>
<time>2023-05-17T13:39:16Z</time>
</trkpt>
<trkpt lat="49.23629994504154" lon="8.236244972795248">
<ele>133</ele>
<time>2023-05-17T13:39:17Z</time>
</trkpt>
<trkpt lat="49.2363019566983" lon="8.23616199195385">
<ele>133</ele>
<time>2023-05-17T13:39:18Z</time>
</trkpt>
<trkpt lat="49.2363019566983" lon="8.2360799331218">
<ele>133</ele>
<time>2023-05-17T13:39:19Z</time>
</trkpt>
<trkpt lat="49.2363019566983" lon="8.235999969765544">
<ele>133.20000000000005</ele>
<time>2023-05-17T13:39:20Z</time>
</trkpt>
<trkpt lat="49.2363019566983" lon="8.235919922590256">
<ele>133.20000000000005</ele>
<time>2023-05-17T13:39:21Z</time>
</trkpt>
<trkpt lat="49.23630497418344" lon="8.235839959234">
<ele>133.39999999999998</ele>
<time>2023-05-17T13:39:22Z</time>
</trkpt>
<trkpt lat="49.23630799166858" lon="8.235761923715472">
<ele>133.39999999999998</ele>
<time>2023-05-17T13:39:23Z</time>
</trkpt>
<trkpt lat="49.23630991950631" lon="8.235684977844357">
<ele>133.39999999999998</ele>
<time>2023-05-17T13:39:24Z</time>
</trkpt>
<trkpt lat="49.23631193116307" lon="8.23560694232583">
<ele>133.60000000000002</ele>
<time>2023-05-17T13:39:25Z</time>
</trkpt>
<trkpt lat="49.23631293699145" lon="8.235527984797955">
<ele>133.60000000000002</ele>
<time>2023-05-17T13:39:26Z</time>
</trkpt>
<trkpt lat="49.23631293699145" lon="8.235451960936189">
<ele>133.60000000000002</ele>
<time>2023-05-17T13:39:27Z</time>
</trkpt>
<trkpt lat="49.23631293699145" lon="8.235374931246042">
<ele>133.79999999999995</ele>
<time>2023-05-17T13:39:28Z</time>
</trkpt>
<trkpt lat="49.236314948648214" lon="8.235299997031689">
<ele>133.79999999999995</ele>
<time>2023-05-17T13:39:29Z</time>
</trkpt>
<trkpt lat="49.236316960304976" lon="8.235222967341542">
<ele>133.79999999999995</ele>
<time>2023-05-17T13:39:30Z</time>
</trkpt>
<trkpt lat="49.236317966133356" lon="8.235146943479776">
<ele>133.79999999999995</ele>
<time>2023-05-17T13:39:31Z</time>
</trkpt>
<trkpt lat="49.23631997779012" lon="8.235069997608662">
<ele>133.79999999999995</ele>
<time>2023-05-17T13:39:32Z</time>
</trkpt>
<trkpt lat="49.23632198944688" lon="8.234991962090135">
<ele>134</ele>
<time>2023-05-17T13:39:33Z</time>
</trkpt>
<trkpt lat="49.23632299527526" lon="8.234912920743227">
<ele>134</ele>
<time>2023-05-17T13:39:34Z</time>
</trkpt>
<trkpt lat="49.23632299527526" lon="8.23483295738697">
<ele>134</ele>
<time>2023-05-17T13:39:35Z</time>
</trkpt>
<trkpt lat="49.23632299527526" lon="8.234754921868443">
<ele>134</ele>
<time>2023-05-17T13:39:36Z</time>
</trkpt>
<trkpt lat="49.23632299527526" lon="8.234677975997329">
<ele>134</ele>
<time>2023-05-17T13:39:37Z</time>
</trkpt>
<trkpt lat="49.23632693476975" lon="8.234601952135563">
<ele>134.20000000000005</ele>
<time>2023-05-17T13:39:38Z</time>
</trkpt>
<trkpt lat="49.23632995225489" lon="8.234524922445416">
<ele>134.20000000000005</ele>
<time>2023-05-17T13:39:39Z</time>
</trkpt>
<trkpt lat="49.236334981396794" lon="8.234447976574302">
<ele>134.20000000000005</ele>
<time>2023-05-17T13:39:40Z</time>
</trkpt>
<trkpt lat="49.236337998881936" lon="8.234372958540916">
<ele>134.39999999999998</ele>
<time>2023-05-17T13:39:41Z</time>
</trkpt>
<trkpt lat="49.23634193837643" lon="8.234302969649434">
<ele>134.39999999999998</ele>
<time>2023-05-17T13:39:42Z</time>
</trkpt>
<trkpt lat="49.23634495586157" lon="8.234234992414713">
<ele>134.39999999999998</ele>
<time>2023-05-17T13:39:43Z</time>
</trkpt>
<trkpt lat="49.23634797334671" lon="8.234171960502863">
<ele>134.39999999999998</ele>
<time>2023-05-17T13:39:44Z</time>
</trkpt>
<trkpt lat="49.23635199666023" lon="8.234106916934252">
<ele>134.60000000000002</ele>
<time>2023-05-17T13:39:45Z</time>
</trkpt>
<trkpt lat="49.236356941983104" lon="8.234042963013053">
<ele>134.60000000000002</ele>
<time>2023-05-17T13:39:46Z</time>
</trkpt>
<trkpt lat="49.23636297695339" lon="8.233977919444442">
<ele>134.79999999999995</ele>
<time>2023-05-17T13:39:47Z</time>
</trkpt>
<trkpt lat="49.23636993393302" lon="8.233912959694862">
<ele>134.79999999999995</ele>
<time>2023-05-17T13:39:48Z</time>
</trkpt>
<trkpt lat="49.23637496307492" lon="8.233847999945283">
<ele>135</ele>
<time>2023-05-17T13:39:49Z</time>
</trkpt>
<trkpt lat="49.236381920054555" lon="8.233782956376672">
<ele>135</ele>
<time>2023-05-17T13:39:50Z</time>
</trkpt>
<trkpt lat="49.23638694919646" lon="8.23371497914195">
<ele>135</ele>
<time>2023-05-17T13:39:51Z</time>
</trkpt>
<trkpt lat="49.23639197833836" lon="8.233646918088198">
<ele>135.20000000000005</ele>
<time>2023-05-17T13:39:52Z</time>
</trkpt>
<trkpt lat="49.23639792948961" lon="8.233579946681857">
<ele>135.20000000000005</ele>
<time>2023-05-17T13:39:53Z</time>
</trkpt>
<trkpt lat="49.23640497028828" lon="8.233512975275517">
<ele>135.39999999999998</ele>
<time>2023-05-17T13:39:54Z</time>
</trkpt>
<trkpt lat="49.23641192726791" lon="8.233449943363667">
<ele>135.39999999999998</ele>
<time>2023-05-17T13:39:55Z</time>
</trkpt>
<trkpt lat="49.23641796223819" lon="8.233389928936958">
<ele>135.60000000000002</ele>
<time>2023-05-17T13:39:56Z</time>
</trkpt>
<trkpt lat="49.236422991380095" lon="8.233329998329282">
<ele>135.60000000000002</ele>
<time>2023-05-17T13:39:57Z</time>
</trkpt>
<trkpt lat="49.23642793670297" lon="8.233272917568684">
<ele>135.60000000000002</ele>
<time>2023-05-17T13:39:58Z</time>
</trkpt>
<trkpt lat="49.23643296584487" lon="8.233217932283878">
<ele>135.60000000000002</ele>
<time>2023-05-17T13:39:59Z</time>
</trkpt>
<trkpt lat="49.23643799498677" lon="8.233161941170692">
<ele>135.79999999999995</ele>
<time>2023-05-17T13:40:00Z</time>
</trkpt>
<trkpt lat="49.236444951966405" lon="8.233104944229126">
<ele>135.79999999999995</ele>
<time>2023-05-17T13:40:01Z</time>
</trkpt>
<trkpt lat="49.23645199276507" lon="8.23304794728756">
<ele>135.79999999999995</ele>
<time>2023-05-17T13:40:02Z</time>
</trkpt>
<trkpt lat="49.23645693808794" lon="8.232992962002754">
<ele>136</ele>
<time>2023-05-17T13:40:03Z</time>
</trkpt>
<trkpt lat="49.23646196722984" lon="8.232937976717949">
<ele>136</ele>
<time>2023-05-17T13:40:04Z</time>
</trkpt>
<trkpt lat="49.236466996371746" lon="8.232882991433144">
<ele>136</ele>
<time>2023-05-17T13:40:05Z</time>
</trkpt>
<trkpt lat="49.23647194169462" lon="8.232829933986068">
<ele>136</ele>
<time>2023-05-17T13:40:06Z</time>
</trkpt>
<trkpt lat="49.2364779766649" lon="8.23277193121612">
<ele>136.20000000000005</ele>
<time>2023-05-17T13:40:07Z</time>
</trkpt>
<trkpt lat="49.23648493364453" lon="8.232712922617793">
<ele>136.20000000000005</ele>
<time>2023-05-17T13:40:08Z</time>
</trkpt>
<trkpt lat="49.23649298027158" lon="8.232652992010117">
<ele>136.20000000000005</ele>
<time>2023-05-17T13:40:09Z</time>
</trkpt>
<trkpt lat="49.23649993725121" lon="8.232589960098267">
<ele>136.39999999999998</ele>
<time>2023-05-17T13:40:10Z</time>
</trkpt>
<trkpt lat="49.23650496639311" lon="8.232526928186417">
<ele>136.39999999999998</ele>
<time>2023-05-17T13:40:11Z</time>
</trkpt>
<trkpt lat="49.236512929201126" lon="8.232462974265218">
<ele>136.39999999999998</ele>
<time>2023-05-17T13:40:12Z</time>
</trkpt>
<trkpt lat="49.23651795834303" lon="8.232401954010129">
<ele>136.60000000000002</ele>
<time>2023-05-17T13:40:13Z</time>
</trkpt>
<trkpt lat="49.23652298748493" lon="8.232344957068563">
<ele>136.60000000000002</ele>
<time>2023-05-17T13:40:14Z</time>
</trkpt>
<trkpt lat="49.236529944464564" lon="8.232289971783757">
<ele>136.60000000000002</ele>
<time>2023-05-17T13:40:15Z</time>
</trkpt>
<trkpt lat="49.23653497360647" lon="8.23223196901381">
<ele>136.79999999999995</ele>
<time>2023-05-17T13:40:16Z</time>
</trkpt>
<trkpt lat="49.23653991892934" lon="8.23216994293034">
<ele>136.79999999999995</ele>
<time>2023-05-17T13:40:17Z</time>
</trkpt>
<trkpt lat="49.23654494807124" lon="8.232107916846871">
<ele>137</ele>
<time>2023-05-17T13:40:18Z</time>
</trkpt>
<trkpt lat="49.236552994698286" lon="8.232044968754053">
<ele>137</ele>
<time>2023-05-17T13:40:19Z</time>
</trkpt>
<trkpt lat="49.23655794002116" lon="8.231981936842203">
<ele>137.20000000000005</ele>
<time>2023-05-17T13:40:20Z</time>
</trkpt>
<trkpt lat="49.23656296916306" lon="8.231916977092624">
<ele>137.20000000000005</ele>
<time>2023-05-17T13:40:21Z</time>
</trkpt>
<trkpt lat="49.23656992614269" lon="8.231849921867251">
<ele>137.39999999999998</ele>
<time>2023-05-17T13:40:22Z</time>
</trkpt>
<trkpt lat="49.236574955284595" lon="8.23178194463253">
<ele>137.39999999999998</ele>
<time>2023-05-17T13:40:23Z</time>
</trkpt>
<trkpt lat="49.23657797276974" lon="8.231712961569428">
<ele>137.39999999999998</ele>
<time>2023-05-17T13:40:24Z</time>
</trkpt>
<trkpt lat="49.23658291809261" lon="8.231641966849566">
<ele>137.60000000000002</ele>
<time>2023-05-17T13:40:25Z</time>
</trkpt>
<trkpt lat="49.23658995889127" lon="8.231571977958083">
<ele>137.60000000000002</ele>
<time>2023-05-17T13:40:26Z</time>
</trkpt>
<trkpt lat="49.23659699968994" lon="8.2315019890666">
<ele>137.79999999999995</ele>
<time>2023-05-17T13:40:27Z</time>
</trkpt>
<trkpt lat="49.23660697415471" lon="8.231434933841228">
<ele>138</ele>
<time>2023-05-17T13:40:28Z</time>
</trkpt>
<trkpt lat="49.23662499524653" lon="8.23137198574841">
<ele>138</ele>
<time>2023-05-17T13:40:29Z</time>
</trkpt>
<trkpt lat="49.23665198497474" lon="8.231322951614857">
<ele>138.20000000000005</ele>
<time>2023-05-17T13:40:30Z</time>
</trkpt>
<trkpt lat="49.23668794333935" lon="8.23128699325025">
<ele>138.20000000000005</ele>
<time>2023-05-17T13:40:31Z</time>
</trkpt>
<trkpt lat="49.236722979694605" lon="8.231249945238233">
<ele>138.39999999999998</ele>
<time>2023-05-17T13:40:32Z</time>
</trkpt>
<trkpt lat="49.23675793223083" lon="8.231207951903343">
<ele>138.39999999999998</ele>
<time>2023-05-17T13:40:33Z</time>
</trkpt>
<trkpt lat="49.23679196275771" lon="8.23115799576044">
<ele>138.60000000000002</ele>
<time>2023-05-17T13:40:34Z</time>
</trkpt>
<trkpt lat="49.23682196997106" lon="8.231102926656604">
<ele>138.60000000000002</ele>
<time>2023-05-17T13:40:35Z</time>
</trkpt>
<trkpt lat="49.23684694804251" lon="8.231042996048927">
<ele>138.79999999999995</ele>
<time>2023-05-17T13:40:36Z</time>
</trkpt>
<trkpt lat="49.236869998276234" lon="8.230981975793839">
<ele>138.79999999999995</ele>
<time>2023-05-17T13:40:37Z</time>
</trkpt>
<trkpt lat="49.23689195886254" lon="8.23092196136713">
<ele>139</ele>
<time>2023-05-17T13:40:38Z</time>
</trkpt>
<trkpt lat="49.23690997995436" lon="8.230864964425564">
<ele>139</ele>
<time>2023-05-17T13:40:39Z</time>
</trkpt>
<trkpt lat="49.23692992888391" lon="8.230809979140759">
<ele>139.20000000000005</ele>
<time>2023-05-17T13:40:40Z</time>
</trkpt>
<trkpt lat="49.23694794997573" lon="8.230756921693683">
<ele>139.39999999999998</ele>
<time>2023-05-17T13:40:41Z</time>
</trkpt>
<trkpt lat="49.23696999438107" lon="8.230702942237258">
<ele>139.39999999999998</ele>
<time>2023-05-17T13:40:42Z</time>
</trkpt>
<trkpt lat="49.23698994331062" lon="8.230649968609214">
<ele>139.60000000000002</ele>
<time>2023-05-17T13:40:43Z</time>
</trkpt>
<trkpt lat="49.2370099760592" lon="8.23059699498117">
<ele>139.79999999999995</ele>
<time>2023-05-17T13:40:44Z</time>
</trkpt>
<trkpt lat="49.23703193664551" lon="8.230541925877333">
<ele>139.79999999999995</ele>
<time>2023-05-17T13:40:45Z</time>
</trkpt>
<trkpt lat="49.23705196939409" lon="8.230484928935766">
<ele>140</ele>
<time>2023-05-17T13:40:46Z</time>
</trkpt>
<trkpt lat="49.237071918323636" lon="8.230429943650961">
<ele>140.20000000000005</ele>
<time>2023-05-17T13:40:47Z</time>
</trkpt>
<trkpt lat="49.237091951072216" lon="8.230372946709394">
<ele>140.20000000000005</ele>
<time>2023-05-17T13:40:48Z</time>
</trkpt>
<trkpt lat="49.23711298964918" lon="8.230314943939447">
<ele>140.39999999999998</ele>
<time>2023-05-17T13:40:49Z</time>
</trkpt>
<trkpt lat="49.237134950235486" lon="8.2302569411695">
<ele>140.60000000000002</ele>
<time>2023-05-17T13:40:50Z</time>
</trkpt>
<trkpt lat="49.237154982984066" lon="8.230197932571173">
<ele>140.79999999999995</ele>
<time>2023-05-17T13:40:51Z</time>
</trkpt>
<trkpt lat="49.237174931913614" lon="8.230136996135116">
<ele>141</ele>
<time>2023-05-17T13:40:52Z</time>
</trkpt>
<trkpt lat="49.237196976318955" lon="8.230076981708407">
<ele>141</ele>
<time>2023-05-17T13:40:53Z</time>
</trkpt>
<trkpt lat="49.237216925248504" lon="8.23001797311008">
<ele>141.20000000000005</ele>
<time>2023-05-17T13:40:54Z</time>
</trkpt>
<trkpt lat="49.237236957997084" lon="8.229959970340133">
<ele>141.20000000000005</ele>
<time>2023-05-17T13:40:55Z</time>
</trkpt>
<trkpt lat="49.237256990745664" lon="8.229906996712089">
<ele>141.39999999999998</ele>
<time>2023-05-17T13:40:56Z</time>
</trkpt>
<trkpt lat="49.23727693967521" lon="8.229854945093393">
<ele>141.39999999999998</ele>
<time>2023-05-17T13:40:57Z</time>
</trkpt>
<trkpt lat="49.23729697242379" lon="8.22980197146535">
<ele>141.60000000000002</ele>
<time>2023-05-17T13:40:58Z</time>
</trkpt>
<trkpt lat="49.23731692135334" lon="8.229749919846654">
<ele>141.60000000000002</ele>
<time>2023-05-17T13:40:59Z</time>
</trkpt>
<trkpt lat="49.23733695410192" lon="8.22969795204699">
<ele>141.60000000000002</ele>
<time>2023-05-17T13:41:00Z</time>
</trkpt>
<trkpt lat="49.23735497519374" lon="8.229644978418946">
<ele>141.79999999999995</ele>
<time>2023-05-17T13:41:01Z</time>
</trkpt>
<trkpt lat="49.23737299628556" lon="8.229592926800251">
<ele>141.79999999999995</ele>
<time>2023-05-17T13:41:02Z</time>
</trkpt>
<trkpt lat="49.237392945215106" lon="8.229542970657349">
<ele>142</ele>
<time>2023-05-17T13:41:03Z</time>
</trkpt>
<trkpt lat="49.237412977963686" lon="8.229491924867034">
<ele>142</ele>
<time>2023-05-17T13:41:04Z</time>
</trkpt>
<trkpt lat="49.237434938549995" lon="8.229436939582229">
<ele>142.20000000000005</ele>
<time>2023-05-17T13:41:05Z</time>
</trkpt>
<trkpt lat="49.237452959641814" lon="8.229382960125804">
<ele>142.20000000000005</ele>
<time>2023-05-17T13:41:06Z</time>
</trkpt>
<trkpt lat="49.237472992390394" lon="8.229326969012618">
<ele>142.39999999999998</ele>
<time>2023-05-17T13:41:07Z</time>
</trkpt>
<trkpt lat="49.237494952976704" lon="8.229271983727813">
<ele>142.39999999999998</ele>
<time>2023-05-17T13:41:08Z</time>
</trkpt>
<trkpt lat="49.237516997382045" lon="8.229216998443007">
<ele>142.39999999999998</ele>
<time>2023-05-17T13:41:09Z</time>
</trkpt>
<trkpt lat="49.237537952139974" lon="8.22916192933917">
<ele>142.60000000000002</ele>
<time>2023-05-17T13:41:10Z</time>
</trkpt>
<trkpt lat="49.237559996545315" lon="8.229104932397604">
<ele>142.60000000000002</ele>
<time>2023-05-17T13:41:11Z</time>
</trkpt>
<trkpt lat="49.237581957131624" lon="8.229047935456038">
<ele>142.79999999999995</ele>
<time>2023-05-17T13:41:12Z</time>
</trkpt>
<trkpt lat="49.237601989880204" lon="8.228991944342852">
<ele>142.79999999999995</ele>
<time>2023-05-17T13:41:13Z</time>
</trkpt>
<trkpt lat="49.23762193880975" lon="8.228934947401285">
<ele>142.79999999999995</ele>
<time>2023-05-17T13:41:14Z</time>
</trkpt>
<trkpt lat="49.23764197155833" lon="8.22887996211648">
<ele>143</ele>
<time>2023-05-17T13:41:15Z</time>
</trkpt>
<trkpt lat="49.23766192048788" lon="8.228824976831675">
<ele>143</ele>
<time>2023-05-17T13:41:16Z</time>
</trkpt>
<trkpt lat="49.23768195323646" lon="8.22876999154687">
<ele>143.20000000000005</ele>
<time>2023-05-17T13:41:17Z</time>
</trkpt>
<trkpt lat="49.23770198598504" lon="8.228712994605303">
<ele>143.20000000000005</ele>
<time>2023-05-17T13:41:18Z</time>
</trkpt>
<trkpt lat="49.23772193491459" lon="8.228656919673085">
<ele>143.39999999999998</ele>
<time>2023-05-17T13:41:19Z</time>
</trkpt>
<trkpt lat="49.23774196766317" lon="8.22859799489379">
<ele>143.39999999999998</ele>
<time>2023-05-17T13:41:20Z</time>
</trkpt>
<trkpt lat="49.2377629224211" lon="8.228537980467081">
<ele>143.60000000000002</ele>
<time>2023-05-17T13:41:21Z</time>
</trkpt>
<trkpt lat="49.23778496682644" lon="8.228477966040373">
<ele>143.60000000000002</ele>
<time>2023-05-17T13:41:22Z</time>
</trkpt>
<trkpt lat="49.23780793324113" lon="8.228417951613665">
<ele>143.79999999999995</ele>
<time>2023-05-17T13:41:23Z</time>
</trkpt>
<trkpt lat="49.23783198930323" lon="8.228359948843718">
<ele>143.79999999999995</ele>
<time>2023-05-17T13:41:24Z</time>
</trkpt>
<trkpt lat="49.23785495571792" lon="8.22829993441701">
<ele>144</ele>
<time>2023-05-17T13:41:25Z</time>
</trkpt>
<trkpt lat="49.23787792213261" lon="8.228237992152572">
<ele>144</ele>
<time>2023-05-17T13:41:26Z</time>
</trkpt>
<trkpt lat="49.237901978194714" lon="8.228174960240722">
<ele>144.20000000000005</ele>
<time>2023-05-17T13:41:27Z</time>
</trkpt>
<trkpt lat="49.23792192712426" lon="8.228112934157252">
<ele>144.39999999999998</ele>
<time>2023-05-17T13:41:28Z</time>
</trkpt>
<trkpt lat="49.237944977357984" lon="8.228052919730544">
<ele>144.39999999999998</ele>
<time>2023-05-17T13:41:29Z</time>
</trkpt>
<trkpt lat="49.23796693794429" lon="8.227992989122868">
<ele>144.60000000000002</ele>
<time>2023-05-17T13:41:30Z</time>
</trkpt>
<trkpt lat="49.237987976521254" lon="8.22793498635292">
<ele>144.60000000000002</ele>
<time>2023-05-17T13:41:31Z</time>
</trkpt>
<trkpt lat="49.23800993710756" lon="8.227876983582973">
<ele>144.79999999999995</ele>
<time>2023-05-17T13:41:32Z</time>
</trkpt>
<trkpt lat="49.23802996985614" lon="8.227819986641407">
<ele>145</ele>
<time>2023-05-17T13:41:33Z</time>
</trkpt>
<trkpt lat="49.23804991878569" lon="8.22776198387146">
<ele>145.20000000000005</ele>
<time>2023-05-17T13:41:34Z</time>
</trkpt>
<trkpt lat="49.23806995153427" lon="8.227706998586655">
<ele>145.39999999999998</ele>
<time>2023-05-17T13:41:35Z</time>
</trkpt>
<trkpt lat="49.23808998428285" lon="8.227651929482818">
<ele>145.39999999999998</ele>
<time>2023-05-17T13:41:36Z</time>
</trkpt>
<trkpt lat="49.2381099332124" lon="8.227594932541251">
<ele>145.60000000000002</ele>
<time>2023-05-17T13:41:37Z</time>
</trkpt>
<trkpt lat="49.23812795430422" lon="8.227537935599685">
<ele>145.79999999999995</ele>
<time>2023-05-17T13:41:38Z</time>
</trkpt>
<trkpt lat="49.23814496956766" lon="8.227481944486499">
<ele>145.79999999999995</ele>
<time>2023-05-17T13:41:39Z</time>
</trkpt>
<trkpt lat="49.238162990659475" lon="8.227427965030074">
<ele>145.79999999999995</ele>
<time>2023-05-17T13:41:40Z</time>
</trkpt>
<trkpt lat="49.23818193376064" lon="8.22737499140203">
<ele>146</ele>
<time>2023-05-17T13:41:41Z</time>
</trkpt>
<trkpt lat="49.23819995485246" lon="8.227317994460464">
<ele>146</ele>
<time>2023-05-17T13:41:42Z</time>
</trkpt>
<trkpt lat="49.23821998760104" lon="8.227259991690516">
<ele>146</ele>
<time>2023-05-17T13:41:43Z</time>
</trkpt>
<trkpt lat="49.23823691904545" lon="8.227199977263808">
<ele>146.20000000000005</ele>
<time>2023-05-17T13:41:44Z</time>
</trkpt>
<trkpt lat="49.238251922652125" lon="8.227141974493861">
<ele>146.20000000000005</ele>
<time>2023-05-17T13:41:45Z</time>
</trkpt>
<trkpt lat="49.23826793208718" lon="8.227084977552295">
<ele>146.20000000000005</ele>
<time>2023-05-17T13:41:46Z</time>
</trkpt>
<trkpt lat="49.23828192986548" lon="8.227027980610728">
<ele>146.20000000000005</ele>
<time>2023-05-17T13:41:47Z</time>
</trkpt>
<trkpt lat="49.23828796483576" lon="8.226969977840781">
<ele>146.20000000000005</ele>
<time>2023-05-17T13:41:48Z</time>
</trkpt>
<trkpt lat="49.238291988149285" lon="8.226911975070834">
<ele>146.20000000000005</ele>
<time>2023-05-17T13:41:49Z</time>
</trkpt>
<trkpt lat="49.23829693347216" lon="8.226851960644126">
<ele>146.20000000000005</ele>
<time>2023-05-17T13:41:50Z</time>
</trkpt>
<trkpt lat="49.2383049800992" lon="8.226792952045798">
<ele>146.20000000000005</ele>
<time>2023-05-17T13:41:51Z</time>
</trkpt>
<trkpt lat="49.23831797204912" lon="8.22673293761909">
<ele>146.39999999999998</ele>
<time>2023-05-17T13:41:52Z</time>
</trkpt>
<trkpt lat="49.23834194429219" lon="8.226676946505904">
<ele>146.39999999999998</ele>
<time>2023-05-17T13:41:53Z</time>
</trkpt>
<trkpt lat="49.23836792819202" lon="8.22662497870624">
<ele>146.39999999999998</ele>
<time>2023-05-17T13:41:54Z</time>
</trkpt>
<trkpt lat="49.238399947062135" lon="8.226574938744307">
<ele>146.39999999999998</ele>
<time>2023-05-17T13:41:55Z</time>
</trkpt>
<trkpt lat="49.23842794261873" lon="8.226524982601404">
<ele>146.39999999999998</ele>
<time>2023-05-17T13:41:56Z</time>
</trkpt>
<trkpt lat="49.23845199868083" lon="8.226467985659838">
<ele>146.39999999999998</ele>
<time>2023-05-17T13:41:57Z</time>
</trkpt>
<trkpt lat="49.23846993595362" lon="8.226406965404749">
<ele>146.60000000000002</ele>
<time>2023-05-17T13:41:58Z</time>
</trkpt>
<trkpt lat="49.2384899687022" lon="8.226342927664518">
<ele>146.60000000000002</ele>
<time>2023-05-17T13:41:59Z</time>
</trkpt>
<trkpt lat="49.238507989794016" lon="8.2262799795717">
<ele>146.60000000000002</ele>
<time>2023-05-17T13:42:00Z</time>
</trkpt>
<trkpt lat="49.238527938723564" lon="8.22621694765985">
<ele>146.60000000000002</ele>
<time>2023-05-17T13:42:01Z</time>
</trkpt>
<trkpt lat="49.238547971472144" lon="8.226152993738651">
<ele>146.60000000000002</ele>
<time>2023-05-17T13:42:02Z</time>
</trkpt>
<trkpt lat="49.23856792040169" lon="8.226091973483562">
<ele>146.60000000000002</ele>
<time>2023-05-17T13:42:03Z</time>
</trkpt>
<trkpt lat="49.23858694732189" lon="8.226031959056854">
<ele>146.60000000000002</ele>
<time>2023-05-17T13:42:04Z</time>
</trkpt>
<trkpt lat="49.23860496841371" lon="8.225971944630146">
<ele>146.60000000000002</ele>
<time>2023-05-17T13:42:05Z</time>
</trkpt>
<trkpt lat="49.23862198367715" lon="8.225912936031818">
<ele>146.60000000000002</ele>
<time>2023-05-17T13:42:06Z</time>
</trkpt>
<trkpt lat="49.238636987283826" lon="8.225856944918633">
<ele>146.60000000000002</ele>
<time>2023-05-17T13:42:07Z</time>
</trkpt>
<trkpt lat="49.23865492455661" lon="8.225796930491924">
<ele>146.60000000000002</ele>
<time>2023-05-17T13:42:08Z</time>
</trkpt>
<trkpt lat="49.23867193982005" lon="8.225736999884248">
<ele>146.60000000000002</ele>
<time>2023-05-17T13:42:09Z</time>
</trkpt>
<trkpt lat="49.23868996091187" lon="8.225674973800778">
<ele>146.60000000000002</ele>
<time>2023-05-17T13:42:10Z</time>
</trkpt>
<trkpt lat="49.23870697617531" lon="8.225611941888928">
<ele>146.60000000000002</ele>
<time>2023-05-17T13:42:11Z</time>
</trkpt>
<trkpt lat="49.238722985610366" lon="8.225546982139349">
<ele>146.60000000000002</ele>
<time>2023-05-17T13:42:12Z</time>
</trkpt>
<trkpt lat="49.23873991705477" lon="8.22548495605588">
<ele>146.60000000000002</ele>
<time>2023-05-17T13:42:13Z</time>
</trkpt>
<trkpt lat="49.23875693231821" lon="8.225426953285933">
<ele>146.60000000000002</ele>
<time>2023-05-17T13:42:14Z</time>
</trkpt>
<trkpt lat="49.23877193592489" lon="8.225364927202463">
<ele>146.60000000000002</ele>
<time>2023-05-17T13:42:15Z</time>
</trkpt>
<trkpt lat="49.238787945359945" lon="8.225302984938025">
<ele>146.60000000000002</ele>
<time>2023-05-17T13:42:16Z</time>
</trkpt>
<trkpt lat="49.23880194313824" lon="8.225241964682937">
<ele>146.60000000000002</ele>
<time>2023-05-17T13:42:17Z</time>
</trkpt>
<trkpt lat="49.23881493508816" lon="8.225179938599467">
<ele>146.60000000000002</ele>
<time>2023-05-17T13:42:18Z</time>
</trkpt>
<trkpt lat="49.23882499337196" lon="8.22511799633503">
<ele>146.60000000000002</ele>
<time>2023-05-17T13:42:19Z</time>
</trkpt>
<trkpt lat="49.23883295617998" lon="8.225057981908321">
<ele>146.60000000000002</ele>
<time>2023-05-17T13:42:20Z</time>
</trkpt>
<trkpt lat="49.23883798532188" lon="8.224999979138374">
<ele>146.60000000000002</ele>
<time>2023-05-17T13:42:21Z</time>
</trkpt>
<trkpt lat="49.23884293064475" lon="8.224941976368427">
<ele>146.60000000000002</ele>
<time>2023-05-17T13:42:22Z</time>
</trkpt>
<trkpt lat="49.23884695395827" lon="8.224886991083622">
<ele>146.60000000000002</ele>
<time>2023-05-17T13:42:23Z</time>
</trkpt>
<trkpt lat="49.23884795978665" lon="8.224837956950068">
<ele>146.60000000000002</ele>
<time>2023-05-17T13:42:24Z</time>
</trkpt>
<trkpt lat="49.238854916766286" lon="8.224792946130037">
<ele>146.60000000000002</ele>
<time>2023-05-17T13:42:25Z</time>
</trkpt>
<trkpt lat="49.23886195756495" lon="8.224749946966767">
<ele>146.60000000000002</ele>
<time>2023-05-17T13:42:26Z</time>
</trkpt>
<trkpt lat="49.238872937858105" lon="8.2247119769454">
<ele>146.60000000000002</ele>
<time>2023-05-17T13:42:27Z</time>
</trkpt>
<trkpt lat="49.23888995312154" lon="8.224676940590143">
<ele>146.60000000000002</ele>
<time>2023-05-17T13:42:28Z</time>
</trkpt>
<trkpt lat="49.23890696838498" lon="8.224637964740396">
<ele>146.60000000000002</ele>
<time>2023-05-17T13:42:29Z</time>
</trkpt>
<trkpt lat="49.23892691731453" lon="8.224596977233887">
<ele>146.60000000000002</ele>
<time>2023-05-17T13:42:30Z</time>
</trkpt>
<trkpt lat="49.23894695006311" lon="8.224551966413856">
<ele>146.60000000000002</ele>
<time>2023-05-17T13:42:31Z</time>
</trkpt>
<trkpt lat="49.23896497115493" lon="8.22449798695743">
<ele>146.60000000000002</ele>
<time>2023-05-17T13:42:32Z</time>
</trkpt>
<trkpt lat="49.238981986418366" lon="8.224441995844245">
<ele>146.60000000000002</ele>
<time>2023-05-17T13:42:33Z</time>
</trkpt>
<trkpt lat="49.239002941176295" lon="8.224382987245917">
<ele>146.60000000000002</ele>
<time>2023-05-17T13:42:34Z</time>
</trkpt>
<trkpt lat="49.239024985581636" lon="8.224322972819209">
<ele>146.60000000000002</ele>
<time>2023-05-17T13:42:35Z</time>
</trkpt>
<trkpt lat="49.239046946167946" lon="8.22426195256412">
<ele>146.60000000000002</ele>
<time>2023-05-17T13:42:36Z</time>
</trkpt>
<trkpt lat="49.239064967259765" lon="8.224201938137412">
<ele>146.60000000000002</ele>
<time>2023-05-17T13:42:37Z</time>
</trkpt>
<trkpt lat="49.23908491618931" lon="8.224144941195846">
<ele>146.39999999999998</ele>
<time>2023-05-17T13:42:38Z</time>
</trkpt>
<trkpt lat="49.23910494893789" lon="8.22408794425428">
<ele>146.39999999999998</ele>
<time>2023-05-17T13:42:39Z</time>
</trkpt>
<trkpt lat="49.23912297002971" lon="8.224032958969474">
<ele>146.39999999999998</ele>
<time>2023-05-17T13:42:40Z</time>
</trkpt>
<trkpt lat="49.23914199694991" lon="8.22398199699819">
<ele>146.39999999999998</ele>
<time>2023-05-17T13:42:41Z</time>
</trkpt>
<trkpt lat="49.2391599342227" lon="8.223929945379496">
<ele>146.20000000000005</ele>
<time>2023-05-17T13:42:42Z</time>
</trkpt>
<trkpt lat="49.23917795531452" lon="8.223879989236593">
<ele>146.20000000000005</ele>
<time>2023-05-17T13:42:43Z</time>
</trkpt>
<trkpt lat="49.239194970577955" lon="8.22382994927466">
<ele>146.20000000000005</ele>
<time>2023-05-17T13:42:44Z</time>
</trkpt>
<trkpt lat="49.23920997418463" lon="8.223782926797867">
<ele>146.20000000000005</ele>
<time>2023-05-17T13:42:45Z</time>
</trkpt>
<trkpt lat="49.23922497779131" lon="8.223736993968487">
<ele>146.20000000000005</ele>
<time>2023-05-17T13:42:46Z</time>
</trkpt>
<trkpt lat="49.23924199305475" lon="8.223694916814566">
<ele>146.20000000000005</ele>
<time>2023-05-17T13:42:47Z</time>
</trkpt>
<trkpt lat="49.239256996661425" lon="8.223654935136437">
<ele>146.20000000000005</ele>
<time>2023-05-17T13:42:48Z</time>
</trkpt>
<trkpt lat="49.23927191644907" lon="8.22361696511507">
<ele>146.20000000000005</ele>
<time>2023-05-17T13:42:49Z</time>
</trkpt>
<trkpt lat="49.239282980561256" lon="8.223576983436942">
<ele>146.20000000000005</ele>
<time>2023-05-17T13:42:50Z</time>
</trkpt>
<trkpt lat="49.23929194919765" lon="8.223534990102053">
<ele>146.20000000000005</ele>
<time>2023-05-17T13:42:51Z</time>
</trkpt>
<trkpt lat="49.239301923662424" lon="8.223497942090034">
<ele>146.20000000000005</ele>
<time>2023-05-17T13:42:52Z</time>
</trkpt>
<trkpt lat="49.23931198194623" lon="8.223461983725429">
<ele>146.20000000000005</ele>
<time>2023-05-17T13:42:53Z</time>
</trkpt>
<trkpt lat="49.239321956411004" lon="8.223427953198552">
<ele>146.20000000000005</ele>
<time>2023-05-17T13:42:54Z</time>
</trkpt>
<trkpt lat="49.23933193087578" lon="8.223394928500056">
<ele>146.20000000000005</ele>
<time>2023-05-17T13:42:55Z</time>
</trkpt>
<trkpt lat="49.239342994987965" lon="8.223361987620592">
<ele>146.20000000000005</ele>
<time>2023-05-17T13:42:56Z</time>
</trkpt>
<trkpt lat="49.23935799859464" lon="8.223329968750477">
<ele>146.20000000000005</ele>
<time>2023-05-17T13:42:57Z</time>
</trkpt>
<trkpt lat="49.23938197083771" lon="8.223306918516755">
<ele>146.20000000000005</ele>
<time>2023-05-17T13:42:58Z</time>
</trkpt>
<trkpt lat="49.23940694890916" lon="8.223302979022264">
<ele>146.20000000000005</ele>
<time>2023-05-17T13:42:59Z</time>
</trkpt>
<trkpt lat="49.239431926980615" lon="8.223309936001897">
<ele>146.20000000000005</ele>
<time>2023-05-17T13:43:00Z</time>
</trkpt>
<trkpt lat="49.23945799469948" lon="8.223319994285703">
<ele>146.20000000000005</ele>
<time>2023-05-17T13:43:01Z</time>
</trkpt>
<trkpt lat="49.23948498442769" lon="8.223331980407238">
<ele>146.20000000000005</ele>
<time>2023-05-17T13:43:02Z</time>
</trkpt>
<trkpt lat="49.2395119741559" lon="8.223342960700393">
<ele>146.20000000000005</ele>
<time>2023-05-17T13:43:03Z</time>
</trkpt>
<trkpt lat="49.23953292891383" lon="8.223351929336786">
<ele>146.20000000000005</ele>
<time>2023-05-17T13:43:04Z</time>
</trkpt>
<trkpt lat="49.239556984975934" lon="8.223362993448973">
<ele>146.20000000000005</ele>
<time>2023-05-17T13:43:05Z</time>
</trkpt>
<trkpt lat="49.23957492224872" lon="8.223389983177185">
<ele>146.20000000000005</ele>
<time>2023-05-17T13:43:06Z</time>
</trkpt>
<trkpt lat="49.23958799801767" lon="8.223432982340455">
<ele>146.20000000000005</ele>
<time>2023-05-17T13:43:07Z</time>
</trkpt>
<trkpt lat="49.2395949549973" lon="8.223481932654977">
<ele>146.20000000000005</ele>
<time>2023-05-17T13:43:08Z</time>
</trkpt>
<trkpt lat="49.239604929462075" lon="8.223527949303389">
<ele>146.20000000000005</ele>
<time>2023-05-17T13:43:09Z</time>
</trkpt>
<trkpt lat="49.23961699940264" lon="8.223574971780181">
<ele>146.39999999999998</ele>
<time>2023-05-17T13:43:10Z</time>
</trkpt>
<trkpt lat="49.23962999135256" lon="8.223617970943451">
<ele>146.39999999999998</ele>
<time>2023-05-17T13:43:11Z</time>
</trkpt>
<trkpt lat="49.239642983302474" lon="8.223667927086353">
<ele>146.39999999999998</ele>
<time>2023-05-17T13:43:12Z</time>
</trkpt>
<trkpt lat="49.23966192640364" lon="8.22372199036181">
<ele>146.39999999999998</ele>
<time>2023-05-17T13:43:13Z</time>
</trkpt>
<trkpt lat="49.23968195915222" lon="8.223771946504712">
<ele>146.39999999999998</ele>
<time>2023-05-17T13:43:14Z</time>
</trkpt>
<trkpt lat="49.23970794305205" lon="8.223816957324743">
<ele>146.39999999999998</ele>
<time>2023-05-17T13:43:15Z</time>
</trkpt>
<trkpt lat="49.23973996192217" lon="8.22385492734611">
<ele>146.39999999999998</ele>
<time>2023-05-17T13:43:16Z</time>
</trkpt>
<trkpt lat="49.239771980792284" lon="8.223889963701367">
<ele>146.39999999999998</ele>
<time>2023-05-17T13:43:17Z</time>
</trkpt>
<trkpt lat="49.23980492167175" lon="8.22391695342958">
<ele>146.39999999999998</ele>
<time>2023-05-17T13:43:18Z</time>
</trkpt>
<trkpt lat="49.23983694054186" lon="8.223934974521399">
<ele>146.39999999999998</ele>
<time>2023-05-17T13:43:19Z</time>
</trkpt>
<trkpt lat="49.239864936098456" lon="8.223941931501031">
<ele>146.39999999999998</ele>
<time>2023-05-17T13:43:20Z</time>
</trkpt>
<trkpt lat="49.23988798633218" lon="8.22393799200654">
<ele>146.39999999999998</ele>
<time>2023-05-17T13:43:21Z</time>
</trkpt>
<trkpt lat="49.239904917776585" lon="8.223934974521399">
<ele>146.39999999999998</ele>
<time>2023-05-17T13:43:22Z</time>
</trkpt>
<trkpt lat="49.23991799354553" lon="8.223931957036257">
<ele>146.39999999999998</ele>
<time>2023-05-17T13:43:23Z</time>
</trkpt>
<trkpt lat="49.23993199132383" lon="8.223929945379496">
<ele>146.39999999999998</ele>
<time>2023-05-17T13:43:24Z</time>
</trkpt>
<trkpt lat="49.23993794247508" lon="8.223926927894354">
<ele>146.20000000000005</ele>
<time>2023-05-17T13:43:25Z</time>
</trkpt>
<trkpt lat="49.239947916939855" lon="8.223922988399863">
<ele>146.20000000000005</ele>
<time>2023-05-17T13:43:26Z</time>
</trkpt>
<trkpt lat="49.23995797522366" lon="8.22391795925796">
<ele>146.20000000000005</ele>
<time>2023-05-17T13:43:27Z</time>
</trkpt>
<trkpt lat="49.23997197300196" lon="8.223909996449947">
<ele>146.20000000000005</ele>
<time>2023-05-17T13:43:28Z</time>
</trkpt>
<trkpt lat="49.23998496495187" lon="8.223901949822903">
<ele>146.20000000000005</ele>
<time>2023-05-17T13:43:29Z</time>
</trkpt>
<trkpt lat="49.24000298604369" lon="8.223887952044606">
<ele>146.20000000000005</ele>
<time>2023-05-17T13:43:30Z</time>
</trkpt>
<trkpt lat="49.24002192914486" lon="8.223871942609549">
<ele>146.20000000000005</ele>
<time>2023-05-17T13:43:31Z</time>
</trkpt>
<trkpt lat="49.24003995023668" lon="8.223852999508381">
<ele>146.20000000000005</ele>
<time>2023-05-17T13:43:32Z</time>
</trkpt>
<trkpt lat="49.240056965500116" lon="8.223836990073323">
<ele>146.20000000000005</ele>
<time>2023-05-17T13:43:33Z</time>
</trkpt>
<trkpt lat="49.240074986591935" lon="8.223819974809885">
<ele>146.20000000000005</ele>
<time>2023-05-17T13:43:34Z</time>
</trkpt>
<trkpt lat="49.24009292386472" lon="8.223802959546447">
<ele>146</ele>
<time>2023-05-17T13:43:35Z</time>
</trkpt>
<trkpt lat="49.2401079274714" lon="8.223784938454628">
<ele>146</ele>
<time>2023-05-17T13:43:36Z</time>
</trkpt>
<trkpt lat="49.240122931078076" lon="8.22376498952508">
<ele>146</ele>
<time>2023-05-17T13:43:37Z</time>
</trkpt>
<trkpt lat="49.24013692885637" lon="8.223741939291358">
<ele>146</ele>
<time>2023-05-17T13:43:38Z</time>
</trkpt>
<trkpt lat="49.24014992080629" lon="8.223711932078004">
<ele>146</ele>
<time>2023-05-17T13:43:39Z</time>
</trkpt>
<trkpt lat="49.240162996575236" lon="8.22367798537016">
<ele>146</ele>
<time>2023-05-17T13:43:40Z</time>
</trkpt>
<trkpt lat="49.24017699435353" lon="8.22363993152976">
<ele>146</ele>
<time>2023-05-17T13:43:41Z</time>
</trkpt>
<trkpt lat="49.240182945504785" lon="8.223599949851632">
<ele>146</ele>
<time>2023-05-17T13:43:42Z</time>
</trkpt>
<trkpt lat="49.240182945504785" lon="8.223557956516743">
<ele>146</ele>
<time>2023-05-17T13:43:43Z</time>
</trkpt>
<trkpt lat="49.240181939676404" lon="8.223516969010234">
<ele>146</ele>
<time>2023-05-17T13:43:44Z</time>
</trkpt>
<trkpt lat="49.24017992801964" lon="8.223474975675344">
<ele>146</ele>
<time>2023-05-17T13:43:45Z</time>
</trkpt>
<trkpt lat="49.24017791636288" lon="8.223432982340455">
<ele>146</ele>
<time>2023-05-17T13:43:46Z</time>
</trkpt>
<trkpt lat="49.24017498269677" lon="8.223391994833946">
<ele>146</ele>
<time>2023-05-17T13:43:47Z</time>
</trkpt>
<trkpt lat="49.24017297104001" lon="8.223352935165167">
<ele>146</ele>
<time>2023-05-17T13:43:48Z</time>
</trkpt>
<trkpt lat="49.24016995355487" lon="8.2233149651438">
<ele>146.20000000000005</ele>
<time>2023-05-17T13:43:49Z</time>
</trkpt>
<trkpt lat="49.24016693606973" lon="8.223277917131782">
<ele>146.20000000000005</ele>
<time>2023-05-17T13:43:50Z</time>
</trkpt>
<trkpt lat="49.240162996575236" lon="8.223242964595556">
<ele>146.20000000000005</ele>
<time>2023-05-17T13:43:51Z</time>
</trkpt>
<trkpt lat="49.24015696160495" lon="8.2232079282403">
<ele>146.20000000000005</ele>
<time>2023-05-17T13:43:52Z</time>
</trkpt>
<trkpt lat="49.24015293829143" lon="8.223176999017596">
<ele>146.20000000000005</ele>
<time>2023-05-17T13:43:53Z</time>
</trkpt>
<trkpt lat="49.24014698714018" lon="8.223147997632623">
<ele>146.20000000000005</ele>
<time>2023-05-17T13:43:54Z</time>
</trkpt>
<trkpt lat="49.24013793468475" lon="8.22312293574214">
<ele>146.20000000000005</ele>
<time>2023-05-17T13:43:55Z</time>
</trkpt>
<trkpt lat="49.24012997187674" lon="8.223097957670689">
<ele>146.20000000000005</ele>
<time>2023-05-17T13:43:56Z</time>
</trkpt>
<trkpt lat="49.2401269543916" lon="8.223072979599237">
<ele>146.20000000000005</ele>
<time>2023-05-17T13:43:57Z</time>
</trkpt>
<trkpt lat="49.2401269543916" lon="8.223049929365516">
<ele>146.20000000000005</ele>
<time>2023-05-17T13:43:58Z</time>
</trkpt>
<trkpt lat="49.24013298936188" lon="8.223022939637303">
<ele>146.20000000000005</ele>
<time>2023-05-17T13:43:59Z</time>
</trkpt>
<trkpt lat="49.240141957998276" lon="8.222999973222613">
<ele>146.20000000000005</ele>
<time>2023-05-17T13:44:00Z</time>
</trkpt>
<trkpt lat="49.24014799296856" lon="8.222974995151162">
<ele>146.20000000000005</ele>
<time>2023-05-17T13:44:01Z</time>
</trkpt>
<trkpt lat="49.24014698714018" lon="8.222942976281047">
<ele>146.20000000000005</ele>
<time>2023-05-17T13:44:02Z</time>
</trkpt>
<trkpt lat="49.240139946341515" lon="8.222909951582551">
<ele>146.20000000000005</ele>
<time>2023-05-17T13:44:03Z</time>
</trkpt>
<trkpt lat="49.24012796021998" lon="8.222876926884055">
<ele>146.20000000000005</ele>
<time>2023-05-17T13:44:04Z</time>
</trkpt>
<trkpt lat="49.240117985755205" lon="8.222844991832972">
<ele>146.20000000000005</ele>
<time>2023-05-17T13:44:05Z</time>
</trkpt>
<trkpt lat="49.24011195078492" lon="8.222811967134476">
<ele>146.20000000000005</ele>
<time>2023-05-17T13:44:06Z</time>
</trkpt>
<trkpt lat="49.24010692164302" lon="8.222781959921122">
<ele>146.20000000000005</ele>
<time>2023-05-17T13:44:07Z</time>
</trkpt>
<trkpt lat="49.240099964663386" lon="8.222752958536148">
<ele>146.20000000000005</ele>
<time>2023-05-17T13:44:08Z</time>
</trkpt>
<trkpt lat="49.24008999019861" lon="8.222721945494413">
<ele>146.20000000000005</ele>
<time>2023-05-17T13:44:09Z</time>
</trkpt>
<trkpt lat="49.24008294939995" lon="8.222687998786569">
<ele>146.20000000000005</ele>
<time>2023-05-17T13:44:10Z</time>
</trkpt>
<trkpt lat="49.24008294939995" lon="8.222654974088073">
<ele>146.20000000000005</ele>
<time>2023-05-17T13:44:11Z</time>
</trkpt>
<trkpt lat="49.24008194357157" lon="8.222624966874719">
<ele>146.20000000000005</ele>
<time>2023-05-17T13:44:12Z</time>
</trkpt>
<trkpt lat="49.24008194357157" lon="8.222601916640997">
<ele>146.20000000000005</ele>
<time>2023-05-17T13:44:13Z</time>
</trkpt>
<trkpt lat="49.24008194357157" lon="8.22258297353983">
<ele>146</ele>
<time>2023-05-17T13:44:14Z</time>
</trkpt>
<trkpt lat="49.240076998248696" lon="8.222566964104772">
<ele>146</ele>
<time>2023-05-17T13:44:15Z</time>
</trkpt>
<trkpt lat="49.24006492830813" lon="8.222547937184572">
<ele>146</ele>
<time>2023-05-17T13:44:16Z</time>
</trkpt>
<trkpt lat="49.24004799686372" lon="8.222534945234656">
<ele>146</ele>
<time>2023-05-17T13:44:17Z</time>
</trkpt>
<trkpt lat="49.240031987428665" lon="8.222526982426643">
<ele>146</ele>
<time>2023-05-17T13:44:18Z</time>
</trkpt>
<trkpt lat="49.240011954680085" lon="8.22251994162798">
<ele>146</ele>
<time>2023-05-17T13:44:19Z</time>
</trkpt>
<trkpt lat="49.239991921931505" lon="8.222511978819966">
<ele>146</ele>
<time>2023-05-17T13:44:20Z</time>
</trkpt>
<trkpt lat="49.23997197300196" lon="8.222502926364541">
<ele>146</ele>
<time>2023-05-17T13:44:21Z</time>
</trkpt>
<trkpt lat="49.239949928596616" lon="8.222484989091754">
<ele>146</ele>
<time>2023-05-17T13:44:22Z</time>
</trkpt>
<trkpt lat="49.239924950525165" lon="8.222459927201271">
<ele>146</ele>
<time>2023-05-17T13:44:23Z</time>
</trkpt>
<trkpt lat="49.23989997245371" lon="8.222426986321807">
<ele>146</ele>
<time>2023-05-17T13:44:24Z</time>
</trkpt>
<trkpt lat="49.23987499438226" lon="8.222389938309789">
<ele>146</ele>
<time>2023-05-17T13:44:25Z</time>
</trkpt>
<trkpt lat="49.23985194414854" lon="8.2223479449749">
<ele>146</ele>
<time>2023-05-17T13:44:26Z</time>
</trkpt>
<trkpt lat="49.23982998356223" lon="8.222299916669726">
<ele>146</ele>
<time>2023-05-17T13:44:27Z</time>
</trkpt>
<trkpt lat="49.23981196247041" lon="8.22224291972816">
<ele>146</ele>
<time>2023-05-17T13:44:28Z</time>
</trkpt>
<trkpt lat="49.239794947206974" lon="8.222182989120483">
<ele>146</ele>
<time>2023-05-17T13:44:29Z</time>
</trkpt>
<trkpt lat="49.239774998277426" lon="8.222117945551872">
<ele>146</ele>
<time>2023-05-17T13:44:30Z</time>
</trkpt>
<trkpt lat="49.239754965528846" lon="8.222051979973912">
<ele>146</ele>
<time>2023-05-17T13:44:31Z</time>
</trkpt>
<trkpt lat="49.239734932780266" lon="8.22198492474854">
<ele>146.20000000000005</ele>
<time>2023-05-17T13:44:32Z</time>
</trkpt>
<trkpt lat="49.23971498385072" lon="8.221914935857058">
<ele>146.20000000000005</ele>
<time>2023-05-17T13:44:33Z</time>
</trkpt>
<trkpt lat="49.239692939445376" lon="8.221844946965575">
<ele>146.20000000000005</ele>
<time>2023-05-17T13:44:34Z</time>
</trkpt>
<trkpt lat="49.23967198468745" lon="8.221771940588951">
<ele>146.20000000000005</ele>
<time>2023-05-17T13:44:35Z</time>
</trkpt>
<trkpt lat="49.239649940282106" lon="8.221697928383946">
<ele>146.20000000000005</ele>
<time>2023-05-17T13:44:36Z</time>
</trkpt>
<trkpt lat="49.23962999135256" lon="8.221622994169593">
<ele>146.20000000000005</ele>
<time>2023-05-17T13:44:37Z</time>
</trkpt>
<trkpt lat="49.23960995860398" lon="8.22155199944973">
<ele>146.20000000000005</ele>
<time>2023-05-17T13:44:38Z</time>
</trkpt>
<trkpt lat="49.23959193751216" lon="8.221481926739216">
<ele>146.39999999999998</ele>
<time>2023-05-17T13:44:39Z</time>
</trkpt>
<trkpt lat="49.23957198858261" lon="8.221411937847733">
<ele>146.39999999999998</ele>
<time>2023-05-17T13:44:40Z</time>
</trkpt>
<trkpt lat="49.23954994417727" lon="8.221344966441393">
<ele>146.39999999999998</ele>
<time>2023-05-17T13:44:41Z</time>
</trkpt>
<trkpt lat="49.23953192308545" lon="8.221277995035052">
<ele>146.39999999999998</ele>
<time>2023-05-17T13:44:42Z</time>
</trkpt>
<trkpt lat="49.23951297998428" lon="8.221214963123202">
<ele>146.39999999999998</ele>
<time>2023-05-17T13:44:43Z</time>
</trkpt>
<trkpt lat="49.239497976377606" lon="8.221154948696494">
<ele>146.39999999999998</ele>
<time>2023-05-17T13:44:44Z</time>
</trkpt>
<trkpt lat="49.23948498442769" lon="8.221097951754928">
<ele>146.39999999999998</ele>
<time>2023-05-17T13:44:45Z</time>
</trkpt>
<trkpt lat="49.239474926143885" lon="8.221047995612025">
<ele>146.39999999999998</ele>
<time>2023-05-17T13:44:46Z</time>
</trkpt>
<trkpt lat="49.23946998082101" lon="8.220997955650091">
<ele>146.39999999999998</ele>
<time>2023-05-17T13:44:47Z</time>
</trkpt>
<trkpt lat="49.23946796916425" lon="8.220946993678808">
<ele>146.39999999999998</ele>
<time>2023-05-17T13:44:48Z</time>
</trkpt>
<trkpt lat="49.23946998082101" lon="8.220896953716874">
<ele>146.39999999999998</ele>
<time>2023-05-17T13:44:49Z</time>
</trkpt>
<trkpt lat="49.239472998306155" lon="8.220846997573972">
<ele>146.39999999999998</ele>
<time>2023-05-17T13:44:50Z</time>
</trkpt>
<trkpt lat="49.239474926143885" lon="8.220797963440418">
<ele>146.39999999999998</ele>
<time>2023-05-17T13:44:51Z</time>
</trkpt>
<trkpt lat="49.239472998306155" lon="8.220752952620387">
<ele>146.39999999999998</ele>
<time>2023-05-17T13:44:52Z</time>
</trkpt>
<trkpt lat="49.23946796916425" lon="8.220709953457117">
<ele>146.39999999999998</ele>
<time>2023-05-17T13:44:53Z</time>
</trkpt>
<trkpt lat="49.23946294002235" lon="8.220669971778989">
<ele>146.39999999999998</ele>
<time>2023-05-17T13:44:54Z</time>
</trkpt>
<trkpt lat="49.23945799469948" lon="8.220636947080493">
<ele>146.39999999999998</ele>
<time>2023-05-17T13:44:55Z</time>
</trkpt>
<trkpt lat="49.239451959729195" lon="8.220604928210378">
<ele>146.39999999999998</ele>
<time>2023-05-17T13:44:56Z</time>
</trkpt>
<trkpt lat="49.23944198526442" lon="8.220572993159294">
<ele>146.39999999999998</ele>
<time>2023-05-17T13:44:57Z</time>
</trkpt>
<trkpt lat="49.239431926980615" lon="8.22054198011756">
<ele>146.39999999999998</ele>
<time>2023-05-17T13:44:58Z</time>
</trkpt>
<trkpt lat="49.23941692337394" lon="8.220501998439431">
<ele>146.39999999999998</ele>
<time>2023-05-17T13:44:59Z</time>
</trkpt>
<trkpt lat="49.23940191976726" lon="8.220454975962639">
<ele>146.39999999999998</ele>
<time>2023-05-17T13:45:00Z</time>
</trkpt>
<trkpt lat="49.239386999979615" lon="8.220402924343944">
<ele>146.39999999999998</ele>
<time>2023-05-17T13:45:01Z</time>
</trkpt>
<trkpt lat="49.23937199637294" lon="8.2203499507159">
<ele>146.39999999999998</ele>
<time>2023-05-17T13:45:02Z</time>
</trkpt>
<trkpt lat="49.23935799859464" lon="8.220296977087855">
<ele>146.20000000000005</ele>
<time>2023-05-17T13:45:03Z</time>
</trkpt>
<trkpt lat="49.239344922825694" lon="8.22024492546916">
<ele>146.20000000000005</ele>
<time>2023-05-17T13:45:04Z</time>
</trkpt>
<trkpt lat="49.23932799138129" lon="8.220196980983019">
<ele>146.20000000000005</ele>
<time>2023-05-17T13:45:05Z</time>
</trkpt>
<trkpt lat="49.23931198194623" lon="8.220144929364324">
<ele>146.20000000000005</ele>
<time>2023-05-17T13:45:06Z</time>
</trkpt>
<trkpt lat="49.23929798416793" lon="8.22009296156466">
<ele>146.20000000000005</ele>
<time>2023-05-17T13:45:07Z</time>
</trkpt>
<trkpt lat="49.23928692005575" lon="8.220042921602726">
<ele>146.20000000000005</ele>
<time>2023-05-17T13:45:08Z</time>
</trkpt>
<trkpt lat="49.23926998861134" lon="8.219984918832779">
<ele>146.20000000000005</ele>
<time>2023-05-17T13:45:09Z</time>
</trkpt>
<trkpt lat="49.23925791867077" lon="8.219932951033115">
<ele>146</ele>
<time>2023-05-17T13:45:10Z</time>
</trkpt>
<trkpt lat="49.239247944206" lon="8.219874948263168">
<ele>146</ele>
<time>2023-05-17T13:45:11Z</time>
</trkpt>
<trkpt lat="49.23923294059932" lon="8.21981493383646">
<ele>146</ele>
<time>2023-05-17T13:45:12Z</time>
</trkpt>
<trkpt lat="49.239216931164265" lon="8.219756931066513">
<ele>146</ele>
<time>2023-05-17T13:45:13Z</time>
</trkpt>
<trkpt lat="49.239196982234716" lon="8.219692977145314">
<ele>146</ele>
<time>2023-05-17T13:45:14Z</time>
</trkpt>
<trkpt lat="49.23917795531452" lon="8.219629945233464">
<ele>146</ele>
<time>2023-05-17T13:45:15Z</time>
</trkpt>
<trkpt lat="49.23915792256594" lon="8.219564985483885">
<ele>146</ele>
<time>2023-05-17T13:45:16Z</time>
</trkpt>
<trkpt lat="49.23913797363639" lon="8.219497930258512">
<ele>146</ele>
<time>2023-05-17T13:45:17Z</time>
</trkpt>
<trkpt lat="49.23911995254457" lon="8.219432970508933">
<ele>146</ele>
<time>2023-05-17T13:45:18Z</time>
</trkpt>
<trkpt lat="49.23910193145275" lon="8.219366921111941">
<ele>146</ele>
<time>2023-05-17T13:45:19Z</time>
</trkpt>
<trkpt lat="49.239086927846074" lon="8.21929793804884">
<ele>145.79999999999995</ele>
<time>2023-05-17T13:45:20Z</time>
</trkpt>
<trkpt lat="49.239067984744906" lon="8.219227949157357">
<ele>145.79999999999995</ele>
<time>2023-05-17T13:45:21Z</time>
</trkpt>
<trkpt lat="49.23904996365309" lon="8.219159971922636">
<ele>145.79999999999995</ele>
<time>2023-05-17T13:45:22Z</time>
</trkpt>
<trkpt lat="49.2390269972384" lon="8.219089983031154">
<ele>145.79999999999995</ele>
<time>2023-05-17T13:45:23Z</time>
</trkpt>
<trkpt lat="49.239002941176295" lon="8.21901798248291">
<ele>145.79999999999995</ele>
<time>2023-05-17T13:45:24Z</time>
</trkpt>
<trkpt lat="49.23898492008448" lon="8.218946987763047">
<ele>145.79999999999995</ele>
<time>2023-05-17T13:45:25Z</time>
</trkpt>
<trkpt lat="49.23896698281169" lon="8.218872975558043">
<ele>145.79999999999995</ele>
<time>2023-05-17T13:45:26Z</time>
</trkpt>
<trkpt lat="49.23894795589149" lon="8.218797957524657">
<ele>145.79999999999995</ele>
<time>2023-05-17T13:45:27Z</time>
</trkpt>
<trkpt lat="49.23893194645643" lon="8.218726962804794">
<ele>145.79999999999995</ele>
<time>2023-05-17T13:45:28Z</time>
</trkpt>
<trkpt lat="49.23891291953623" lon="8.218656973913312">
<ele>145.60000000000002</ele>
<time>2023-05-17T13:45:29Z</time>
</trkpt>
<trkpt lat="49.238894982263446" lon="8.21858991868794">
<ele>145.60000000000002</ele>
<time>2023-05-17T13:45:30Z</time>
</trkpt>
<trkpt lat="49.23887796700001" lon="8.218522947281599">
<ele>145.60000000000002</ele>
<time>2023-05-17T13:45:31Z</time>
</trkpt>
<trkpt lat="49.23886195756495" lon="8.218454970046878">
<ele>145.60000000000002</ele>
<time>2023-05-17T13:45:32Z</time>
</trkpt>
<trkpt lat="49.23884293064475" lon="8.218384981155396">
<ele>145.60000000000002</ele>
<time>2023-05-17T13:45:33Z</time>
</trkpt>
<trkpt lat="49.23882499337196" lon="8.218314992263913">
<ele>145.79999999999995</ele>
<time>2023-05-17T13:45:34Z</time>
</trkpt>
<trkpt lat="49.23880496062338" lon="8.21824299171567">
<ele>145.79999999999995</ele>
<time>2023-05-17T13:45:35Z</time>
</trkpt>
<trkpt lat="49.2387849278748" lon="8.218167973682284">
<ele>145.79999999999995</ele>
<time>2023-05-17T13:45:36Z</time>
</trkpt>
<trkpt lat="49.238764978945255" lon="8.218092955648899">
<ele>145.79999999999995</ele>
<time>2023-05-17T13:45:37Z</time>
</trkpt>
<trkpt lat="49.23874997533858" lon="8.218014920130372">
<ele>145.79999999999995</ele>
<time>2023-05-17T13:45:38Z</time>
</trkpt>
<trkpt lat="49.2387349717319" lon="8.217936968430877">
<ele>145.79999999999995</ele>
<time>2023-05-17T13:45:39Z</time>
</trkpt>
<trkpt lat="49.238719968125224" lon="8.217862956225872">
<ele>145.79999999999995</ele>
<time>2023-05-17T13:45:40Z</time>
</trkpt>
<trkpt lat="49.238701947033405" lon="8.217791961506009">
<ele>145.79999999999995</ele>
<time>2023-05-17T13:45:41Z</time>
</trkpt>
<trkpt lat="49.23868493176997" lon="8.217721972614527">
<ele>145.79999999999995</ele>
<time>2023-05-17T13:45:42Z</time>
</trkpt>
<trkpt lat="49.23866791650653" lon="8.217649972066283">
<ele>145.79999999999995</ele>
<time>2023-05-17T13:45:43Z</time>
</trkpt>
<trkpt lat="49.23865299671888" lon="8.217582916840911">
<ele>145.79999999999995</ele>
<time>2023-05-17T13:45:44Z</time>
</trkpt>
<trkpt lat="49.238636987283826" lon="8.217511922121048">
<ele>145.79999999999995</ele>
<time>2023-05-17T13:45:45Z</time>
</trkpt>
<trkpt lat="49.23862298950553" lon="8.217441933229566">
<ele>145.79999999999995</ele>
<time>2023-05-17T13:45:46Z</time>
</trkpt>
<trkpt lat="49.23860698007047" lon="8.217372950166464">
<ele>145.79999999999995</ele>
<time>2023-05-17T13:45:47Z</time>
</trkpt>
<trkpt lat="49.23858996480703" lon="8.217302961274981">
<ele>146</ele>
<time>2023-05-17T13:45:48Z</time>
</trkpt>
<trkpt lat="49.238572949543595" lon="8.2172329723835">
<ele>146</ele>
<time>2023-05-17T13:45:49Z</time>
</trkpt>
<trkpt lat="49.23855694010854" lon="8.217167928814888">
<ele>146</ele>
<time>2023-05-17T13:45:50Z</time>
</trkpt>
<trkpt lat="49.2385399248451" lon="8.217106992378831">
<ele>146</ele>
<time>2023-05-17T13:45:51Z</time>
</trkpt>
<trkpt lat="49.23852492123842" lon="8.217046977952123">
<ele>146</ele>
<time>2023-05-17T13:45:52Z</time>
</trkpt>
<trkpt lat="49.238509917631745" lon="8.216987969353795">
<ele>146</ele>
<time>2023-05-17T13:45:53Z</time>
</trkpt>
<trkpt lat="49.2384949978441" lon="8.216929966583848">
<ele>146</ele>
<time>2023-05-17T13:45:54Z</time>
</trkpt>
<trkpt lat="49.23847999423742" lon="8.216871963813901">
<ele>146</ele>
<time>2023-05-17T13:45:55Z</time>
</trkpt>
<trkpt lat="49.238464990630746" lon="8.216812955215573">
<ele>146</ele>
<time>2023-05-17T13:45:56Z</time>
</trkpt>
<trkpt lat="49.23845199868083" lon="8.21675998158753">
<ele>146</ele>
<time>2023-05-17T13:45:57Z</time>
</trkpt>
<trkpt lat="49.23843699507415" lon="8.216702984645963">
<ele>146</ele>
<time>2023-05-17T13:45:58Z</time>
</trkpt>
<trkpt lat="49.238424925133586" lon="8.216649927198887">
<ele>146</ele>
<time>2023-05-17T13:45:59Z</time>
</trkpt>
<trkpt lat="49.23841696232557" lon="8.216594941914082">
<ele>146</ele>
<time>2023-05-17T13:46:00Z</time>
</trkpt>
<trkpt lat="49.2384069878608" lon="8.216541968286037">
<ele>146</ele>
<time>2023-05-17T13:46:01Z</time>
</trkpt>
<trkpt lat="49.238401958718896" lon="8.216492934152484">
<ele>146</ele>
<time>2023-05-17T13:46:02Z</time>
</trkpt>
<trkpt lat="49.238401958718896" lon="8.216449934989214">
<ele>146</ele>
<time>2023-05-17T13:46:03Z</time>
</trkpt>
<trkpt lat="49.23840992152691" lon="8.216411964967847">
<ele>146</ele>
<time>2023-05-17T13:46:04Z</time>
</trkpt>
<trkpt lat="49.23842794261873" lon="8.21637692861259">
<ele>146</ele>
<time>2023-05-17T13:46:05Z</time>
</trkpt>
<trkpt lat="49.2384569440037" lon="8.216346921399236">
<ele>146</ele>
<time>2023-05-17T13:46:06Z</time>
</trkpt>
<trkpt lat="49.23849198035896" lon="8.216326972469687">
<ele>146</ele>
<time>2023-05-17T13:46:07Z</time>
</trkpt>
<trkpt lat="49.238529950380325" lon="8.216304928064346">
<ele>146</ele>
<time>2023-05-17T13:46:08Z</time>
</trkpt>
<trkpt lat="49.238571943715215" lon="8.216282967478037">
<ele>146</ele>
<time>2023-05-17T13:46:09Z</time>
</trkpt>
<trkpt lat="49.23861192539334" lon="8.216257989406586">
<ele>146</ele>
<time>2023-05-17T13:46:10Z</time>
</trkpt>
<trkpt lat="49.23865299671888" lon="8.216236950829625">
<ele>146</ele>
<time>2023-05-17T13:46:11Z</time>
</trkpt>
<trkpt lat="49.238699935376644" lon="8.216214990243316">
<ele>146</ele>
<time>2023-05-17T13:46:12Z</time>
</trkpt>
<trkpt lat="49.23874695785344" lon="8.216191940009594">
<ele>146</ele>
<time>2023-05-17T13:46:13Z</time>
</trkpt>
<trkpt lat="49.23879498615861" lon="8.216167967766523">
<ele>145.79999999999995</ele>
<time>2023-05-17T13:46:14Z</time>
</trkpt>
<trkpt lat="49.23884494230151" lon="8.216144917532802">
<ele>145.79999999999995</ele>
<time>2023-05-17T13:46:15Z</time>
</trkpt>
<trkpt lat="49.238891964778304" lon="8.216126980260015">
<ele>145.79999999999995</ele>
<time>2023-05-17T13:46:16Z</time>
</trkpt>
<trkpt lat="49.238934963941574" lon="8.216102924197912">
<ele>145.79999999999995</ele>
<time>2023-05-17T13:46:17Z</time>
</trkpt>
<trkpt lat="49.238979974761605" lon="8.216079957783222">
<ele>145.60000000000002</ele>
<time>2023-05-17T13:46:18Z</time>
</trkpt>
<trkpt lat="49.239022973924875" lon="8.21605296805501">
<ele>145.60000000000002</ele>
<time>2023-05-17T13:46:19Z</time>
</trkpt>
<trkpt lat="49.23906999640167" lon="8.216024972498417">
<ele>145.39999999999998</ele>
<time>2023-05-17T13:46:20Z</time>
</trkpt>
<trkpt lat="49.239109978079796" lon="8.215994965285063">
<ele>145.39999999999998</ele>
<time>2023-05-17T13:46:21Z</time>
</trkpt>
<trkpt lat="49.239149959757924" lon="8.215981973335147">
<ele>145.20000000000005</ele>
<time>2023-05-17T13:46:22Z</time>
</trkpt>
<trkpt lat="49.23919195309281" lon="8.215962946414948">
<ele>145.20000000000005</ele>
<time>2023-05-17T13:46:23Z</time>
</trkpt>
<trkpt lat="49.23923294059932" lon="8.215939980000257">
<ele>145</ele>
<time>2023-05-17T13:46:24Z</time>
</trkpt>
<trkpt lat="49.23927694559097" lon="8.215912990272045">
<ele>145</ele>
<time>2023-05-17T13:46:25Z</time>
</trkpt>
<trkpt lat="49.2393169272691" lon="8.215884994715452">
<ele>144.79999999999995</ele>
<time>2023-05-17T13:46:26Z</time>
</trkpt>
<trkpt lat="49.239346934482455" lon="8.215841995552182">
<ele>144.79999999999995</ele>
<time>2023-05-17T13:46:27Z</time>
</trkpt>
<trkpt lat="49.23935296945274" lon="8.215787932276726">
<ele>144.60000000000002</ele>
<time>2023-05-17T13:46:28Z</time>
</trkpt>
<trkpt lat="49.239342994987965" lon="8.21573294699192">
<ele>144.60000000000002</ele>
<time>2023-05-17T13:46:29Z</time>
</trkpt>
<trkpt lat="49.239324973896146" lon="8.215674944221973">
<ele>144.60000000000002</ele>
<time>2023-05-17T13:46:30Z</time>
</trkpt>
<trkpt lat="49.23930795863271" lon="8.215614929795265">
<ele>144.60000000000002</ele>
<time>2023-05-17T13:46:31Z</time>
</trkpt>
<trkpt lat="49.23929194919765" lon="8.215551981702447">
<ele>144.60000000000002</ele>
<time>2023-05-17T13:46:32Z</time>
</trkpt>
<trkpt lat="49.23927493393421" lon="8.215489955618978">
<ele>144.60000000000002</ele>
<time>2023-05-17T13:46:33Z</time>
</trkpt>
<trkpt lat="49.23925791867077" lon="8.215424995869398">
<ele>144.60000000000002</ele>
<time>2023-05-17T13:46:34Z</time>
</trkpt>
<trkpt lat="49.239239981397986" lon="8.215357940644026">
<ele>144.60000000000002</ele>
<time>2023-05-17T13:46:35Z</time>
</trkpt>
<trkpt lat="49.23922196030617" lon="8.215292980894446">
<ele>144.60000000000002</ele>
<time>2023-05-17T13:46:36Z</time>
</trkpt>
<trkpt lat="49.23920997418463" lon="8.215221986174583">
<ele>144.60000000000002</ele>
<time>2023-05-17T13:46:37Z</time>
</trkpt>
<trkpt lat="49.239196982234716" lon="8.215146968141198">
<ele>144.60000000000002</ele>
<time>2023-05-17T13:46:38Z</time>
</trkpt>
<trkpt lat="49.23917996697128" lon="8.215076979249716">
<ele>144.60000000000002</ele>
<time>2023-05-17T13:46:39Z</time>
</trkpt>
<trkpt lat="49.23916194587946" lon="8.215004978701472">
<ele>144.79999999999995</ele>
<time>2023-05-17T13:46:40Z</time>
</trkpt>
<trkpt lat="49.23914493061602" lon="8.21493691764772">
<ele>144.79999999999995</ele>
<time>2023-05-17T13:46:41Z</time>
</trkpt>
<trkpt lat="49.239127999171615" lon="8.214862989261746">
<ele>144.79999999999995</ele>
<time>2023-05-17T13:46:42Z</time>
</trkpt>
<trkpt lat="49.23911299556494" lon="8.214789982885122">
<ele>145</ele>
<time>2023-05-17T13:46:43Z</time>
</trkpt>
<trkpt lat="49.23909698612988" lon="8.214714964851737">
<ele>145</ele>
<time>2023-05-17T13:46:44Z</time>
</trkpt>
<trkpt lat="49.23907997086644" lon="8.214639946818352">
<ele>145.20000000000005</ele>
<time>2023-05-17T13:46:45Z</time>
</trkpt>
<trkpt lat="49.239062955603" lon="8.214567946270108">
<ele>145.20000000000005</ele>
<time>2023-05-17T13:46:46Z</time>
</trkpt>
<trkpt lat="49.23904996365309" lon="8.214496951550245">
<ele>145.39999999999998</ele>
<time>2023-05-17T13:46:47Z</time>
</trkpt>
<trkpt lat="49.23903294838965" lon="8.214427968487144">
<ele>145.60000000000002</ele>
<time>2023-05-17T13:46:48Z</time>
</trkpt>
<trkpt lat="49.23901693895459" lon="8.214357979595661">
<ele>145.60000000000002</ele>
<time>2023-05-17T13:46:49Z</time>
</trkpt>
<trkpt lat="49.23900998197496" lon="8.214281955733895">
<ele>145.79999999999995</ele>
<time>2023-05-17T13:46:50Z</time>
</trkpt>
<trkpt lat="49.23899992369115" lon="8.21420693770051">
<ele>145.79999999999995</ele>
<time>2023-05-17T13:46:51Z</time>
</trkpt>
<trkpt lat="49.23898693174124" lon="8.214132925495505">
<ele>145.79999999999995</ele>
<time>2023-05-17T13:46:52Z</time>
</trkpt>
<trkpt lat="49.2389749456197" lon="8.214059919118881">
<ele>146</ele>
<time>2023-05-17T13:46:53Z</time>
</trkpt>
<trkpt lat="49.238959942013025" lon="8.213982973247766">
<ele>146</ele>
<time>2023-05-17T13:46:54Z</time>
</trkpt>
<trkpt lat="49.23894493840635" lon="8.213909966871142">
<ele>146</ele>
<time>2023-05-17T13:46:55Z</time>
</trkpt>
<trkpt lat="49.23892792314291" lon="8.213837966322899">
<ele>146</ele>
<time>2023-05-17T13:46:56Z</time>
</trkpt>
<trkpt lat="49.238916942849755" lon="8.213772922754288">
<ele>146</ele>
<time>2023-05-17T13:46:57Z</time>
</trkpt>
<trkpt lat="49.23889992758632" lon="8.213702933862805">
<ele>146.20000000000005</ele>
<time>2023-05-17T13:46:58Z</time>
</trkpt>
<trkpt lat="49.23888794146478" lon="8.213627999648452">
<ele>146.20000000000005</ele>
<time>2023-05-17T13:46:59Z</time>
</trkpt>
<trkpt lat="49.238872937858105" lon="8.213567985221744">
<ele>146.20000000000005</ele>
<time>2023-05-17T13:47:00Z</time>
</trkpt>
<trkpt lat="49.23885692842305" lon="8.213512999936938">
<ele>146.39999999999998</ele>
<time>2023-05-17T13:47:01Z</time>
</trkpt>
<trkpt lat="49.23884192481637" lon="8.213441921398044">
<ele>146.39999999999998</ele>
<time>2023-05-17T13:47:02Z</time>
</trkpt>
<trkpt lat="49.23882792703807" lon="8.21336698718369">
<ele>146.39999999999998</ele>
<time>2023-05-17T13:47:03Z</time>
</trkpt>
<trkpt lat="49.238811917603016" lon="8.213294986635447">
<ele>146.39999999999998</ele>
<time>2023-05-17T13:47:04Z</time>
</trkpt>
<trkpt lat="49.23879699781537" lon="8.213226925581694">
<ele>146.39999999999998</ele>
<time>2023-05-17T13:47:05Z</time>
</trkpt>
<trkpt lat="49.23878291621804" lon="8.213156936690211">
<ele>146.39999999999998</ele>
<time>2023-05-17T13:47:06Z</time>
</trkpt>
<trkpt lat="49.23876699060202" lon="8.21308996528387">
<ele>146.39999999999998</ele>
<time>2023-05-17T13:47:07Z</time>
</trkpt>
<trkpt lat="49.23875198699534" lon="8.213016958907247">
<ele>146.60000000000002</ele>
<time>2023-05-17T13:47:08Z</time>
</trkpt>
<trkpt lat="49.23873698338866" lon="8.212947975844145">
<ele>146.60000000000002</ele>
<time>2023-05-17T13:47:09Z</time>
</trkpt>
<trkpt lat="49.23871795646846" lon="8.212886955589056">
<ele>146.60000000000002</ele>
<time>2023-05-17T13:47:10Z</time>
</trkpt>
<trkpt lat="49.23870697617531" lon="8.212819984182715">
<ele>146.60000000000002</ele>
<time>2023-05-17T13:47:11Z</time>
</trkpt>
<trkpt lat="49.23869792371988" lon="8.212751923128963">
<ele>146.60000000000002</ele>
<time>2023-05-17T13:47:12Z</time>
</trkpt>
<trkpt lat="49.23868694342673" lon="8.21267799474299">
<ele>146.79999999999995</ele>
<time>2023-05-17T13:47:13Z</time>
</trkpt>
<trkpt lat="49.23867495730519" lon="8.212604988366365">
<ele>146.79999999999995</ele>
<time>2023-05-17T13:47:14Z</time>
</trkpt>
<trkpt lat="49.23866297118366" lon="8.212537933140993">
<ele>146.79999999999995</ele>
<time>2023-05-17T13:47:15Z</time>
</trkpt>
<trkpt lat="49.23864997923374" lon="8.212469955906272">
<ele>146.79999999999995</ele>
<time>2023-05-17T13:47:16Z</time>
</trkpt>
<trkpt lat="49.23863799311221" lon="8.21240197867155">
<ele>146.79999999999995</ele>
<time>2023-05-17T13:47:17Z</time>
</trkpt>
<trkpt lat="49.23862298950553" lon="8.212334923446178">
<ele>146.79999999999995</ele>
<time>2023-05-17T13:47:18Z</time>
</trkpt>
<trkpt lat="49.23860698007047" lon="8.212266946211457">
<ele>146.79999999999995</ele>
<time>2023-05-17T13:47:19Z</time>
</trkpt>
<trkpt lat="49.23858795315027" lon="8.212196957319975">
<ele>146.60000000000002</ele>
<time>2023-05-17T13:47:20Z</time>
</trkpt>
<trkpt lat="49.238571943715215" lon="8.212127974256873">
<ele>146.60000000000002</ele>
<time>2023-05-17T13:47:21Z</time>
</trkpt>
<trkpt lat="49.23856196925044" lon="8.21205798536539">
<ele>146.60000000000002</ele>
<time>2023-05-17T13:47:22Z</time>
</trkpt>
<trkpt lat="49.23854696564376" lon="8.211987996473908">
<ele>146.60000000000002</ele>
<time>2023-05-17T13:47:23Z</time>
</trkpt>
<trkpt lat="49.238529950380325" lon="8.211919935420156">
<ele>146.60000000000002</ele>
<time>2023-05-17T13:47:24Z</time>
</trkpt>
<trkpt lat="49.23851293511689" lon="8.211846929043531">
<ele>146.60000000000002</ele>
<time>2023-05-17T13:47:25Z</time>
</trkpt>
<trkpt lat="49.23849692568183" lon="8.21177794598043">
<ele>146.60000000000002</ele>
<time>2023-05-17T13:47:26Z</time>
</trkpt>
<trkpt lat="49.23847999423742" lon="8.211709968745708">
<ele>146.60000000000002</ele>
<time>2023-05-17T13:47:27Z</time>
</trkpt>
<trkpt lat="49.238464990630746" lon="8.211636962369084">
<ele>146.60000000000002</ele>
<time>2023-05-17T13:47:28Z</time>
</trkpt>
<trkpt lat="49.23844998702407" lon="8.21156496182084">
<ele>146.60000000000002</ele>
<time>2023-05-17T13:47:29Z</time>
</trkpt>
<trkpt lat="49.23843498341739" lon="8.211491955444217">
<ele>146.60000000000002</ele>
<time>2023-05-17T13:47:30Z</time>
</trkpt>
<trkpt lat="49.23841696232557" lon="8.211422972381115">
<ele>146.60000000000002</ele>
<time>2023-05-17T13:47:31Z</time>
</trkpt>
<trkpt lat="49.238401958718896" lon="8.211352983489633">
<ele>146.60000000000002</ele>
<time>2023-05-17T13:47:32Z</time>
</trkpt>
<trkpt lat="49.23838695511222" lon="8.21128198876977">
<ele>146.60000000000002</ele>
<time>2023-05-17T13:47:33Z</time>
</trkpt>
<trkpt lat="49.23836692236364" lon="8.211209988221526">
<ele>146.60000000000002</ele>
<time>2023-05-17T13:47:34Z</time>
</trkpt>
<trkpt lat="49.23834999091923" lon="8.211137987673283">
<ele>146.60000000000002</ele>
<time>2023-05-17T13:47:35Z</time>
</trkpt>
<trkpt lat="49.23833699896932" lon="8.211062969639897">
<ele>146.60000000000002</ele>
<time>2023-05-17T13:47:36Z</time>
</trkpt>
<trkpt lat="49.23832291737199" lon="8.210991974920034">
<ele>146.60000000000002</ele>
<time>2023-05-17T13:47:37Z</time>
</trkpt>
<trkpt lat="49.238311937078834" lon="8.21091695688665">
<ele>146.60000000000002</ele>
<time>2023-05-17T13:47:38Z</time>
</trkpt>
<trkpt lat="49.2382999509573" lon="8.210842944681644">
<ele>146.60000000000002</ele>
<time>2023-05-17T13:47:39Z</time>
</trkpt>
<trkpt lat="49.23828796483576" lon="8.210771949961782">
<ele>146.60000000000002</ele>
<time>2023-05-17T13:47:40Z</time>
</trkpt>
<trkpt lat="49.23827698454261" lon="8.210696931928396">
<ele>146.79999999999995</ele>
<time>2023-05-17T13:47:41Z</time>
</trkpt>
<trkpt lat="49.23825996927917" lon="8.210622919723392">
<ele>146.79999999999995</ele>
<time>2023-05-17T13:47:42Z</time>
</trkpt>
<trkpt lat="49.23824496567249" lon="8.210551925003529">
<ele>146.79999999999995</ele>
<time>2023-05-17T13:47:43Z</time>
</trkpt>
<trkpt lat="49.238227950409055" lon="8.210482941940427">
<ele>146.79999999999995</ele>
<time>2023-05-17T13:47:44Z</time>
</trkpt>
<trkpt lat="49.238211940974" lon="8.210416976362467">
<ele>146.79999999999995</ele>
<time>2023-05-17T13:47:45Z</time>
</trkpt>
<trkpt lat="49.23819995485246" lon="8.210354950278997">
<ele>146.79999999999995</ele>
<time>2023-05-17T13:47:46Z</time>
</trkpt>
<trkpt lat="49.238182939589024" lon="8.210291918367147">
<ele>146.79999999999995</ele>
<time>2023-05-17T13:47:47Z</time>
</trkpt>
<trkpt lat="49.23816793598235" lon="8.210222935304046">
<ele>146.79999999999995</ele>
<time>2023-05-17T13:47:48Z</time>
</trkpt>
<trkpt lat="49.23815695568919" lon="8.210161998867989">
<ele>146.79999999999995</ele>
<time>2023-05-17T13:47:49Z</time>
</trkpt>
<trkpt lat="49.238142957910895" lon="8.210097961127758">
<ele>146.79999999999995</ele>
<time>2023-05-17T13:47:50Z</time>
</trkpt>
<trkpt lat="49.23812996596098" lon="8.21003794670105">
<ele>146.79999999999995</ele>
<time>2023-05-17T13:47:51Z</time>
</trkpt>
<trkpt lat="49.23811295069754" lon="8.209981955587864">
<ele>146.79999999999995</ele>
<time>2023-05-17T13:47:52Z</time>
</trkpt>
<trkpt lat="49.23810197040439" lon="8.209926970303059">
<ele>146.79999999999995</ele>
<time>2023-05-17T13:47:53Z</time>
</trkpt>
<trkpt lat="49.23810197040439" lon="8.209872990846634">
<ele>146.79999999999995</ele>
<time>2023-05-17T13:47:54Z</time>
</trkpt>
<trkpt lat="49.23811295069754" lon="8.209832925349474">
<ele>146.79999999999995</ele>
<time>2023-05-17T13:47:55Z</time>
</trkpt>
<trkpt lat="49.23813792876899" lon="8.209806941449642">
<ele>146.79999999999995</ele>
<time>2023-05-17T13:47:56Z</time>
</trkpt>
<trkpt lat="49.238166930153966" lon="8.209789926186204">
<ele>146.79999999999995</ele>
<time>2023-05-17T13:47:57Z</time>
</trkpt>
<trkpt lat="49.23820196650922" lon="8.209774922579527">
<ele>147</ele>
<time>2023-05-17T13:47:58Z</time>
</trkpt>
<trkpt lat="49.23824194818735" lon="8.209754973649979">
<ele>147</ele>
<time>2023-05-17T13:47:59Z</time>
</trkpt>
<trkpt lat="49.23828192986548" lon="8.209739970043302">
<ele>147</ele>
<time>2023-05-17T13:48:00Z</time>
</trkpt>
<trkpt lat="49.23831998370588" lon="8.209724966436625">
<ele>147</ele>
<time>2023-05-17T13:48:01Z</time>
</trkpt>
<trkpt lat="49.23835191875696" lon="8.209711974486709">
<ele>147</ele>
<time>2023-05-17T13:48:02Z</time>
</trkpt>
<trkpt lat="49.238377986475825" lon="8.20969294756651">
<ele>147</ele>
<time>2023-05-17T13:48:03Z</time>
</trkpt>
<trkpt lat="49.23840992152691" lon="8.20966998115182">
<ele>147</ele>
<time>2023-05-17T13:48:04Z</time>
</trkpt>
<trkpt lat="49.238441940397024" lon="8.20964994840324">
<ele>147</ele>
<time>2023-05-17T13:48:05Z</time>
</trkpt>
<trkpt lat="49.23847496509552" lon="8.209632933139801">
<ele>147</ele>
<time>2023-05-17T13:48:06Z</time>
</trkpt>
<trkpt lat="49.238509917631745" lon="8.209617929533124">
<ele>147</ele>
<time>2023-05-17T13:48:07Z</time>
</trkpt>
<trkpt lat="49.23854696564376" lon="8.209596974775195">
<ele>147</ele>
<time>2023-05-17T13:48:08Z</time>
</trkpt>
<trkpt lat="49.23858694732189" lon="8.209576942026615">
<ele>147</ele>
<time>2023-05-17T13:48:09Z</time>
</trkpt>
<trkpt lat="49.2386279348284" lon="8.209556993097067">
<ele>147</ele>
<time>2023-05-17T13:48:10Z</time>
</trkpt>
<trkpt lat="49.23866699449718" lon="8.209539977833629">
<ele>147</ele>
<time>2023-05-17T13:48:11Z</time>
</trkpt>
<trkpt lat="49.23870496451855" lon="8.209519945085049">
<ele>147</ele>
<time>2023-05-17T13:48:12Z</time>
</trkpt>
<trkpt lat="49.238742934539914" lon="8.209504941478372">
<ele>147</ele>
<time>2023-05-17T13:48:13Z</time>
</trkpt>
<trkpt lat="49.23878199420869" lon="8.209492955356836">
<ele>147</ele>
<time>2023-05-17T13:48:14Z</time>
</trkpt>
<trkpt lat="49.2388179525733" lon="8.209481975063682">
<ele>147</ele>
<time>2023-05-17T13:48:15Z</time>
</trkpt>
<trkpt lat="49.23885793425143" lon="8.209472922608256">
<ele>146.79999999999995</ele>
<time>2023-05-17T13:48:16Z</time>
</trkpt>
<trkpt lat="49.238892970606685" lon="8.209452973678708">
<ele>146.79999999999995</ele>
<time>2023-05-17T13:48:17Z</time>
</trkpt>
<trkpt lat="49.238916942849755" lon="8.20941299200058">
<ele>146.79999999999995</ele>
<time>2023-05-17T13:48:18Z</time>
</trkpt>
<trkpt lat="49.23892691731453" lon="8.209366975352168">
<ele>146.79999999999995</ele>
<time>2023-05-17T13:48:19Z</time>
</trkpt>
<trkpt lat="49.23892197199166" lon="8.209314923733473">
<ele>146.60000000000002</ele>
<time>2023-05-17T13:48:20Z</time>
</trkpt>
<trkpt lat="49.23890797421336" lon="8.20926295593381">
<ele>146.60000000000002</ele>
<time>2023-05-17T13:48:21Z</time>
</trkpt>
<trkpt lat="49.238894982263446" lon="8.209209982305765">
<ele>146.60000000000002</ele>
<time>2023-05-17T13:48:22Z</time>
</trkpt>
<trkpt lat="49.23888299614191" lon="8.209152985364199">
<ele>146.39999999999998</ele>
<time>2023-05-17T13:48:23Z</time>
</trkpt>
<trkpt lat="49.238872937858105" lon="8.20909196510911">
<ele>146.39999999999998</ele>
<time>2023-05-17T13:48:24Z</time>
</trkpt>
<trkpt lat="49.23885994590819" lon="8.209034968167543">
<ele>146.39999999999998</ele>
<time>2023-05-17T13:48:25Z</time>
</trkpt>
<trkpt lat="49.23884695395827" lon="8.2089819945395">
<ele>146.39999999999998</ele>
<time>2023-05-17T13:48:26Z</time>
</trkpt>
<trkpt lat="49.23883496783674" lon="8.208926925435662">
<ele>146.39999999999998</ele>
<time>2023-05-17T13:48:27Z</time>
</trkpt>
<trkpt lat="49.23882197588682" lon="8.208872945979238">
<ele>146.39999999999998</ele>
<time>2023-05-17T13:48:28Z</time>
</trkpt>
<trkpt lat="49.238806972280145" lon="8.208819972351193">
<ele>146.39999999999998</ele>
<time>2023-05-17T13:48:29Z</time>
</trkpt>
<trkpt lat="49.23879699781537" lon="8.20876993238926">
<ele>146.39999999999998</ele>
<time>2023-05-17T13:48:30Z</time>
</trkpt>
<trkpt lat="49.238786939531565" lon="8.208721987903118">
<ele>146.39999999999998</ele>
<time>2023-05-17T13:48:31Z</time>
</trkpt>
<trkpt lat="49.23877797089517" lon="8.208677982911468">
<ele>146.39999999999998</ele>
<time>2023-05-17T13:48:32Z</time>
</trkpt>
<trkpt lat="49.23877193592489" lon="8.208637917414308">
<ele>146.39999999999998</ele>
<time>2023-05-17T13:48:33Z</time>
</trkpt>
<trkpt lat="49.238762967288494" lon="8.208596929907799">
<ele>146.39999999999998</ele>
<time>2023-05-17T13:48:34Z</time>
</trkpt>
<trkpt lat="49.23875793814659" lon="8.20855694822967">
<ele>146.39999999999998</ele>
<time>2023-05-17T13:48:35Z</time>
</trkpt>
<trkpt lat="49.23875793814659" lon="8.208514954894781">
<ele>146.39999999999998</ele>
<time>2023-05-17T13:48:36Z</time>
</trkpt>
<trkpt lat="49.23876992426813" lon="8.208476984873414">
<ele>146.39999999999998</ele>
<time>2023-05-17T13:48:37Z</time>
</trkpt>
<trkpt lat="49.238786939531565" lon="8.208442954346538">
<ele>146.39999999999998</ele>
<time>2023-05-17T13:48:38Z</time>
</trkpt>
<trkpt lat="49.2388129234314" lon="8.208424933254719">
<ele>146.39999999999998</ele>
<time>2023-05-17T13:48:39Z</time>
</trkpt>
<trkpt lat="49.23884695395827" lon="8.208409929648042">
<ele>146.39999999999998</ele>
<time>2023-05-17T13:48:40Z</time>
</trkpt>
<trkpt lat="49.23888492397964" lon="8.208392998203635">
<ele>146.20000000000005</ele>
<time>2023-05-17T13:48:41Z</time>
</trkpt>
<trkpt lat="49.23892993479967" lon="8.208376988768578">
<ele>146.20000000000005</ele>
<time>2023-05-17T13:48:42Z</time>
</trkpt>
<trkpt lat="49.23897293396294" lon="8.208357961848378">
<ele>146.20000000000005</ele>
<time>2023-05-17T13:48:43Z</time>
</trkpt>
<trkpt lat="49.23901794478297" lon="8.20833994075656">
<ele>146</ele>
<time>2023-05-17T13:48:44Z</time>
</trkpt>
<trkpt lat="49.239062955603" lon="8.20831798017025">
<ele>146</ele>
<time>2023-05-17T13:48:45Z</time>
</trkpt>
<trkpt lat="49.239109978079796" lon="8.20829694159329">
<ele>145.79999999999995</ele>
<time>2023-05-17T13:48:46Z</time>
</trkpt>
<trkpt lat="49.23915691673756" lon="8.208272969350219">
<ele>145.79999999999995</ele>
<time>2023-05-17T13:48:47Z</time>
</trkpt>
<trkpt lat="49.23920293338597" lon="8.208249919116497">
<ele>145.60000000000002</ele>
<time>2023-05-17T13:48:48Z</time>
</trkpt>
<trkpt lat="49.23925196751952" lon="8.20823298767209">
<ele>145.39999999999998</ele>
<time>2023-05-17T13:48:49Z</time>
</trkpt>
<trkpt lat="49.239299995824695" lon="8.208214966580272">
<ele>145.39999999999998</ele>
<time>2023-05-17T13:48:50Z</time>
</trkpt>
<trkpt lat="49.239344922825694" lon="8.208194933831692">
<ele>145.20000000000005</ele>
<time>2023-05-17T13:48:51Z</time>
</trkpt>
<trkpt lat="49.239386999979615" lon="8.208172973245382">
<ele>145</ele>
<time>2023-05-17T13:48:52Z</time>
</trkpt>
<trkpt lat="49.239427987486124" lon="8.208151934668422">
<ele>145</ele>
<time>2023-05-17T13:48:53Z</time>
</trkpt>
<trkpt lat="49.239472998306155" lon="8.208134919404984">
<ele>144.79999999999995</ele>
<time>2023-05-17T13:48:54Z</time>
</trkpt>
<trkpt lat="49.239514991641045" lon="8.208119999617338">
<ele>144.60000000000002</ele>
<time>2023-05-17T13:48:55Z</time>
</trkpt>
<trkpt lat="49.2395449988544" lon="8.208109941333532">
<ele>144.39999999999998</ele>
<time>2023-05-17T13:48:56Z</time>
</trkpt>
<trkpt lat="49.23956796526909" lon="8.208097955211997">
<ele>144.20000000000005</ele>
<time>2023-05-17T13:48:57Z</time>
</trkpt>
<trkpt lat="49.23958799801767" lon="8.208084963262081">
<ele>144.20000000000005</ele>
<time>2023-05-17T13:48:58Z</time>
</trkpt>
<trkpt lat="49.23961197026074" lon="8.208074988797307">
<ele>144</ele>
<time>2023-05-17T13:48:59Z</time>
</trkpt>
<trkpt lat="49.23963191919029" lon="8.208064930513501">
<ele>143.79999999999995</ele>
<time>2023-05-17T13:49:00Z</time>
</trkpt>
<trkpt lat="49.23965295776725" lon="8.208054956048727">
<ele>143.79999999999995</ele>
<time>2023-05-17T13:49:01Z</time>
</trkpt>
<trkpt lat="49.23967491835356" lon="8.208046993240714">
<ele>143.60000000000002</ele>
<time>2023-05-17T13:49:02Z</time>
</trkpt>
<trkpt lat="49.239691933616996" lon="8.208037940785289">
<ele>143.60000000000002</ele>
<time>2023-05-17T13:49:03Z</time>
</trkpt>
<trkpt lat="49.23970492556691" lon="8.208034923300147">
<ele>143.39999999999998</ele>
<time>2023-05-17T13:49:04Z</time>
</trkpt>
<trkpt lat="49.23971791751683" lon="8.208029977977276">
<ele>143.39999999999998</ele>
<time>2023-05-17T13:49:05Z</time>
</trkpt>
<trkpt lat="49.23972797580063" lon="8.208011956885457">
<ele>143.39999999999998</ele>
<time>2023-05-17T13:49:06Z</time>
</trkpt>
<trkpt lat="49.23973795026541" lon="8.207987984642386">
<ele>143.39999999999998</ele>
<time>2023-05-17T13:49:07Z</time>
</trkpt>
<trkpt lat="49.23974499106407" lon="8.20795495994389">
<ele>143.39999999999998</ele>
<time>2023-05-17T13:49:08Z</time>
</trkpt>
<trkpt lat="49.239751948043704" lon="8.207916989922523">
<ele>143.39999999999998</ele>
<time>2023-05-17T13:49:09Z</time>
</trkpt>
<trkpt lat="49.239751948043704" lon="8.207872984930873">
<ele>143.20000000000005</ele>
<time>2023-05-17T13:49:10Z</time>
</trkpt>
<trkpt lat="49.2397469189018" lon="8.207821939140558">
<ele>143.20000000000005</ele>
<time>2023-05-17T13:49:11Z</time>
</trkpt>
<trkpt lat="49.23974499106407" lon="8.207767959684134">
<ele>143.20000000000005</ele>
<time>2023-05-17T13:49:12Z</time>
</trkpt>
<trkpt lat="49.23974499106407" lon="8.20771498605609">
<ele>143.20000000000005</ele>
<time>2023-05-17T13:49:13Z</time>
</trkpt>
<trkpt lat="49.23974297940731" lon="8.207656983286142">
<ele>143.20000000000005</ele>
<time>2023-05-17T13:49:14Z</time>
</trkpt>
<trkpt lat="49.23974499106407" lon="8.207599986344576">
<ele>143</ele>
<time>2023-05-17T13:49:15Z</time>
</trkpt>
<trkpt lat="49.23974499106407" lon="8.207537960261106">
<ele>143</ele>
<time>2023-05-17T13:49:16Z</time>
</trkpt>
<trkpt lat="49.23974197357893" lon="8.207477945834398">
<ele>143</ele>
<time>2023-05-17T13:49:17Z</time>
</trkpt>
<trkpt lat="49.23973996192217" lon="8.20741499774158">
<ele>143</ele>
<time>2023-05-17T13:49:18Z</time>
</trkpt>
<trkpt lat="49.23973694443703" lon="8.20735196582973">
<ele>143</ele>
<time>2023-05-17T13:49:19Z</time>
</trkpt>
<trkpt lat="49.23973694443703" lon="8.207282982766628">
<ele>142.79999999999995</ele>
<time>2023-05-17T13:49:20Z</time>
</trkpt>
<trkpt lat="49.23973795026541" lon="8.207216933369637">
<ele>142.79999999999995</ele>
<time>2023-05-17T13:49:21Z</time>
</trkpt>
<trkpt lat="49.239734932780266" lon="8.207144932821393">
<ele>142.79999999999995</ele>
<time>2023-05-17T13:49:22Z</time>
</trkpt>
<trkpt lat="49.239729987457395" lon="8.20707293227315">
<ele>142.79999999999995</ele>
<time>2023-05-17T13:49:23Z</time>
</trkpt>
<trkpt lat="49.23972797580063" lon="8.207002943381667">
<ele>142.60000000000002</ele>
<time>2023-05-17T13:49:24Z</time>
</trkpt>
<trkpt lat="49.23972194083035" lon="8.206929937005043">
<ele>142.60000000000002</ele>
<time>2023-05-17T13:49:25Z</time>
</trkpt>
<trkpt lat="49.23971992917359" lon="8.20685994811356">
<ele>142.60000000000002</ele>
<time>2023-05-17T13:49:26Z</time>
</trkpt>
<trkpt lat="49.23971992917359" lon="8.20679297670722">
<ele>142.60000000000002</ele>
<time>2023-05-17T13:49:27Z</time>
</trkpt>
<trkpt lat="49.23971791751683" lon="8.206722987815738">
<ele>142.60000000000002</ele>
<time>2023-05-17T13:49:28Z</time>
</trkpt>
<trkpt lat="49.239712972193956" lon="8.206652998924255">
<ele>142.60000000000002</ele>
<time>2023-05-17T13:49:29Z</time>
</trkpt>
<trkpt lat="49.239709954708815" lon="8.206579992547631">
<ele>142.60000000000002</ele>
<time>2023-05-17T13:49:30Z</time>
</trkpt>
<trkpt lat="49.23970794305205" lon="8.206511931493878">
<ele>142.60000000000002</ele>
<time>2023-05-17T13:49:31Z</time>
</trkpt>
<trkpt lat="49.23969998024404" lon="8.206437919288874">
<ele>142.60000000000002</ele>
<time>2023-05-17T13:49:32Z</time>
</trkpt>
<trkpt lat="49.239687994122505" lon="8.206367930397391">
<ele>142.39999999999998</ele>
<time>2023-05-17T13:49:33Z</time>
</trkpt>
<trkpt lat="49.23967299051583" lon="8.206302970647812">
<ele>142.39999999999998</ele>
<time>2023-05-17T13:49:34Z</time>
</trkpt>
<trkpt lat="49.239649940282106" lon="8.206247985363007">
<ele>142.39999999999998</ele>
<time>2023-05-17T13:49:35Z</time>
</trkpt>
<trkpt lat="49.23961699940264" lon="8.206196939572692">
<ele>142.39999999999998</ele>
<time>2023-05-17T13:49:36Z</time>
</trkpt>
<trkpt lat="49.23957299441099" lon="8.20615192875266">
<ele>142.39999999999998</ele>
<time>2023-05-17T13:49:37Z</time>
</trkpt>
<trkpt lat="49.23952999524772" lon="8.206109935417771">
<ele>142.60000000000002</ele>
<time>2023-05-17T13:49:38Z</time>
</trkpt>
<trkpt lat="49.23948196694255" lon="8.206076994538307">
<ele>142.60000000000002</ele>
<time>2023-05-17T13:49:39Z</time>
</trkpt>
<trkpt lat="49.239431926980615" lon="8.20604195818305">
<ele>142.60000000000002</ele>
<time>2023-05-17T13:49:40Z</time>
</trkpt>
<trkpt lat="49.23938197083771" lon="8.206002982333302">
<ele>142.60000000000002</ele>
<time>2023-05-17T13:49:41Z</time>
</trkpt>
<trkpt lat="49.23933494836092" lon="8.20595696568489">
<ele>142.79999999999995</ele>
<time>2023-05-17T13:49:42Z</time>
</trkpt>
<trkpt lat="49.23928792588413" lon="8.205906925722957">
<ele>142.79999999999995</ele>
<time>2023-05-17T13:49:43Z</time>
</trkpt>
<trkpt lat="49.23925196751952" lon="8.205851940438151">
<ele>142.79999999999995</ele>
<time>2023-05-17T13:49:44Z</time>
</trkpt>
<trkpt lat="49.23922698944807" lon="8.205786980688572">
<ele>143</ele>
<time>2023-05-17T13:49:45Z</time>
</trkpt>
<trkpt lat="49.23920695669949" lon="8.20571799762547">
<ele>143</ele>
<time>2023-05-17T13:49:46Z</time>
</trkpt>
<trkpt lat="49.23919195309281" lon="8.205639962106943">
<ele>143.20000000000005</ele>
<time>2023-05-17T13:49:47Z</time>
</trkpt>
<trkpt lat="49.239172926172614" lon="8.205572990700603">
<ele>143.20000000000005</ele>
<time>2023-05-17T13:49:48Z</time>
</trkpt>
<trkpt lat="49.23915792256594" lon="8.20550199598074">
<ele>143.39999999999998</ele>
<time>2023-05-17T13:49:49Z</time>
</trkpt>
<trkpt lat="49.23914794810116" lon="8.205431923270226">
<ele>143.60000000000002</ele>
<time>2023-05-17T13:49:50Z</time>
</trkpt>
<trkpt lat="49.23913696780801" lon="8.205364951863885">
<ele>143.60000000000002</ele>
<time>2023-05-17T13:49:51Z</time>
</trkpt>
<trkpt lat="49.23911995254457" lon="8.20530996657908">
<ele>143.79999999999995</ele>
<time>2023-05-17T13:49:52Z</time>
</trkpt>
<trkpt lat="49.239109978079796" lon="8.20524794049561">
<ele>143.79999999999995</ele>
<time>2023-05-17T13:49:53Z</time>
</trkpt>
<trkpt lat="49.23909698612988" lon="8.205187926068902">
<ele>143.79999999999995</ele>
<time>2023-05-17T13:49:54Z</time>
</trkpt>
<trkpt lat="49.23908298835158" lon="8.205126989632845">
<ele>144</ele>
<time>2023-05-17T13:49:55Z</time>
</trkpt>
<trkpt lat="49.23906999640167" lon="8.205057922750711">
<ele>144</ele>
<time>2023-05-17T13:49:56Z</time>
</trkpt>
<trkpt lat="49.23905993811786" lon="8.20498994551599">
<ele>144</ele>
<time>2023-05-17T13:49:57Z</time>
</trkpt>
<trkpt lat="49.23905298113823" lon="8.204917944967747">
<ele>144</ele>
<time>2023-05-17T13:49:58Z</time>
</trkpt>
<trkpt lat="49.239044934511185" lon="8.204849967733026">
<ele>144</ele>
<time>2023-05-17T13:49:59Z</time>
</trkpt>
<trkpt lat="49.23903797753155" lon="8.204781990498304">
<ele>144</ele>
<time>2023-05-17T13:50:00Z</time>
</trkpt>
<trkpt lat="49.23903294838965" lon="8.20471292361617">
<ele>144</ele>
<time>2023-05-17T13:50:01Z</time>
</trkpt>
<trkpt lat="49.2390269972384" lon="8.20464494638145">
<ele>144</ele>
<time>2023-05-17T13:50:02Z</time>
</trkpt>
<trkpt lat="49.23901693895459" lon="8.204572945833206">
<ele>144</ele>
<time>2023-05-17T13:50:03Z</time>
</trkpt>
<trkpt lat="49.2390129994601" lon="8.204501951113343">
<ele>144</ele>
<time>2023-05-17T13:50:04Z</time>
</trkpt>
<trkpt lat="49.239002941176295" lon="8.204422993585467">
<ele>144</ele>
<time>2023-05-17T13:50:05Z</time>
</trkpt>
<trkpt lat="49.23900495283306" lon="8.204354932531714">
<ele>144</ele>
<time>2023-05-17T13:50:06Z</time>
</trkpt>
<trkpt lat="49.23900696448982" lon="8.204284943640232">
<ele>144</ele>
<time>2023-05-17T13:50:07Z</time>
</trkpt>
<trkpt lat="49.23900495283306" lon="8.20421495474875">
<ele>144</ele>
<time>2023-05-17T13:50:08Z</time>
</trkpt>
<trkpt lat="49.239001935347915" lon="8.204144965857267">
<ele>144</ele>
<time>2023-05-17T13:50:09Z</time>
</trkpt>
<trkpt lat="49.238997995853424" lon="8.204074976965785">
<ele>144</ele>
<time>2023-05-17T13:50:10Z</time>
</trkpt>
<trkpt lat="49.23898793756962" lon="8.203997947275639">
<ele>144</ele>
<time>2023-05-17T13:50:11Z</time>
</trkpt>
<trkpt lat="49.238981986418366" lon="8.203919995576143">
<ele>143.79999999999995</ele>
<time>2023-05-17T13:50:12Z</time>
</trkpt>
<trkpt lat="49.23897695727646" lon="8.203841960057616">
<ele>143.79999999999995</ele>
<time>2023-05-17T13:50:13Z</time>
</trkpt>
<trkpt lat="49.2389699164778" lon="8.203759985044599">
<ele>143.79999999999995</ele>
<time>2023-05-17T13:50:14Z</time>
</trkpt>
<trkpt lat="49.2389699164778" lon="8.203686978667974">
<ele>143.79999999999995</ele>
<time>2023-05-17T13:50:15Z</time>
</trkpt>
<trkpt lat="49.23896698281169" lon="8.203609948977828">
<ele>143.79999999999995</ele>
<time>2023-05-17T13:50:16Z</time>
</trkpt>
<trkpt lat="49.23896497115493" lon="8.203536942601204">
<ele>143.79999999999995</ele>
<time>2023-05-17T13:50:17Z</time>
</trkpt>
<trkpt lat="49.238959942013025" lon="8.203461924567819">
<ele>143.79999999999995</ele>
<time>2023-05-17T13:50:18Z</time>
</trkpt>
<trkpt lat="49.23895692452788" lon="8.203386990353465">
<ele>143.79999999999995</ele>
<time>2023-05-17T13:50:19Z</time>
</trkpt>
<trkpt lat="49.23895298503339" lon="8.20331297814846">
<ele>143.79999999999995</ele>
<time>2023-05-17T13:50:20Z</time>
</trkpt>
<trkpt lat="49.23894996754825" lon="8.203242989256978">
<ele>143.79999999999995</ele>
<time>2023-05-17T13:50:21Z</time>
</trkpt>
<trkpt lat="49.23894493840635" lon="8.203172916546464">
<ele>143.79999999999995</ele>
<time>2023-05-17T13:50:22Z</time>
</trkpt>
<trkpt lat="49.23893999308348" lon="8.203104939311743">
<ele>143.79999999999995</ele>
<time>2023-05-17T13:50:23Z</time>
</trkpt>
<trkpt lat="49.23893295228481" lon="8.2030329387635">
<ele>143.60000000000002</ele>
<time>2023-05-17T13:50:24Z</time>
</trkpt>
<trkpt lat="49.23892993479967" lon="8.20296797901392">
<ele>143.60000000000002</ele>
<time>2023-05-17T13:50:25Z</time>
</trkpt>
<trkpt lat="49.23892297782004" lon="8.202907964587212">
<ele>143.60000000000002</ele>
<time>2023-05-17T13:50:26Z</time>
</trkpt>
<trkpt lat="49.238911997526884" lon="8.202847950160503">
<ele>143.60000000000002</ele>
<time>2023-05-17T13:50:27Z</time>
</trkpt>
<trkpt lat="49.23889799974859" lon="8.202789947390556">
<ele>143.60000000000002</ele>
<time>2023-05-17T13:50:28Z</time>
</trkpt>
<trkpt lat="49.23888492397964" lon="8.202727921307087">
<ele>143.60000000000002</ele>
<time>2023-05-17T13:50:29Z</time>
</trkpt>
<trkpt lat="49.23886992037296" lon="8.20266698487103">
<ele>143.60000000000002</ele>
<time>2023-05-17T13:50:30Z</time>
</trkpt>
<trkpt lat="49.238852988928556" lon="8.202606970444322">
<ele>143.60000000000002</ele>
<time>2023-05-17T13:50:31Z</time>
</trkpt>
<trkpt lat="49.238831950351596" lon="8.202552990987897">
<ele>143.60000000000002</ele>
<time>2023-05-17T13:50:32Z</time>
</trkpt>
<trkpt lat="49.23881694674492" lon="8.202491970732808">
<ele>143.39999999999998</ele>
<time>2023-05-17T13:50:33Z</time>
</trkpt>
<trkpt lat="49.23880294896662" lon="8.202429944649339">
<ele>143.39999999999998</ele>
<time>2023-05-17T13:50:34Z</time>
</trkpt>
<trkpt lat="49.23878995701671" lon="8.20236791856587">
<ele>143.39999999999998</ele>
<time>2023-05-17T13:50:35Z</time>
</trkpt>
<trkpt lat="49.23878199420869" lon="8.20230195298791">
<ele>143.39999999999998</ele>
<time>2023-05-17T13:50:36Z</time>
</trkpt>
<trkpt lat="49.23878199420869" lon="8.202244956046343">
<ele>143.39999999999998</ele>
<time>2023-05-17T13:50:37Z</time>
</trkpt>
<trkpt lat="49.23879699781537" lon="8.202182929962873">
<ele>143.20000000000005</ele>
<time>2023-05-17T13:50:38Z</time>
</trkpt>
<trkpt lat="49.2388229817152" lon="8.202126938849688">
<ele>143.20000000000005</ele>
<time>2023-05-17T13:50:39Z</time>
</trkpt>
<trkpt lat="49.23885994590819" lon="8.202074971050024">
<ele>143</ele>
<time>2023-05-17T13:50:40Z</time>
</trkpt>
<trkpt lat="49.23890193924308" lon="8.202029960229993">
<ele>142.79999999999995</ele>
<time>2023-05-17T13:50:41Z</time>
</trkpt>
<trkpt lat="49.23894695006311" lon="8.201997941359878">
<ele>142.60000000000002</ele>
<time>2023-05-17T13:50:42Z</time>
</trkpt>
<trkpt lat="49.23899497836828" lon="8.201971957460046">
<ele>142.39999999999998</ele>
<time>2023-05-17T13:50:43Z</time>
</trkpt>
<trkpt lat="49.239044934511185" lon="8.201941950246692">
<ele>142.20000000000005</ele>
<time>2023-05-17T13:50:44Z</time>
</trkpt>
<trkpt lat="49.23909799195826" lon="8.201912948861718">
<ele>142.20000000000005</ele>
<time>2023-05-17T13:50:45Z</time>
</trkpt>
<trkpt lat="49.23914794810116" lon="8.20189199410379">
<ele>142.20000000000005</ele>
<time>2023-05-17T13:50:46Z</time>
</trkpt>
<trkpt lat="49.2391979880631" lon="8.20187196135521">
<ele>142.20000000000005</ele>
<time>2023-05-17T13:50:47Z</time>
</trkpt>
<trkpt lat="49.2392529733479" lon="8.20185293443501">
<ele>142.39999999999998</ele>
<time>2023-05-17T13:50:48Z</time>
</trkpt>
<trkpt lat="49.239304941147566" lon="8.201831979677081">
<ele>142.39999999999998</ele>
<time>2023-05-17T13:50:49Z</time>
</trkpt>
<trkpt lat="49.2393549811095" lon="8.201806917786598">
<ele>142.39999999999998</ele>
<time>2023-05-17T13:50:50Z</time>
</trkpt>
<trkpt lat="49.2394049372524" lon="8.201782945543528">
<ele>142.39999999999998</ele>
<time>2023-05-17T13:50:51Z</time>
</trkpt>
<trkpt lat="49.239452965557575" lon="8.20176299661398">
<ele>142.39999999999998</ele>
<time>2023-05-17T13:50:52Z</time>
</trkpt>
<trkpt lat="49.239506945014" lon="8.201746987178922">
<ele>142.20000000000005</ele>
<time>2023-05-17T13:50:53Z</time>
</trkpt>
<trkpt lat="49.239557990804315" lon="8.201727960258722">
<ele>142.20000000000005</ele>
<time>2023-05-17T13:50:54Z</time>
</trkpt>
<trkpt lat="49.23960995860398" lon="8.201707927510142">
<ele>142.20000000000005</ele>
<time>2023-05-17T13:50:55Z</time>
</trkpt>
<trkpt lat="49.23966192640364" lon="8.201686972752213">
<ele>142.20000000000005</ele>
<time>2023-05-17T13:50:56Z</time>
</trkpt>
<trkpt lat="49.239709954708815" lon="8.201667945832014">
<ele>142.20000000000005</ele>
<time>2023-05-17T13:50:57Z</time>
</trkpt>
<trkpt lat="49.23975798301399" lon="8.201649924740195">
<ele>142.20000000000005</ele>
<time>2023-05-17T13:50:58Z</time>
</trkpt>
<trkpt lat="49.23980793915689" lon="8.20163793861866">
<ele>142.20000000000005</ele>
<time>2023-05-17T13:50:59Z</time>
</trkpt>
<trkpt lat="49.239859990775585" lon="8.201627964153886">
<ele>142.20000000000005</ele>
<time>2023-05-17T13:51:00Z</time>
</trkpt>
<trkpt lat="49.239907935261726" lon="8.201617989689112">
<ele>142.20000000000005</ele>
<time>2023-05-17T13:51:01Z</time>
</trkpt>
<trkpt lat="49.23995294608176" lon="8.201602986082435">
<ele>142.20000000000005</ele>
<time>2023-05-17T13:51:02Z</time>
</trkpt>
<trkpt lat="49.23999493941665" lon="8.201581947505474">
<ele>142.20000000000005</ele>
<time>2023-05-17T13:51:03Z</time>
</trkpt>
<trkpt lat="49.240036932751536" lon="8.201556969434023">
<ele>142.20000000000005</ele>
<time>2023-05-17T13:51:04Z</time>
</trkpt>
<trkpt lat="49.24008294939995" lon="8.201536936685443">
<ele>142.20000000000005</ele>
<time>2023-05-17T13:51:05Z</time>
</trkpt>
<trkpt lat="49.2401269543916" lon="8.201514976099133">
<ele>142.20000000000005</ele>
<time>2023-05-17T13:51:06Z</time>
</trkpt>
<trkpt lat="49.24016995355487" lon="8.201496955007315">
<ele>142.20000000000005</ele>
<time>2023-05-17T13:51:07Z</time>
</trkpt>
<trkpt lat="49.24021295271814" lon="8.201477928087115">
<ele>142.20000000000005</ele>
<time>2023-05-17T13:51:08Z</time>
</trkpt>
<trkpt lat="49.24025796353817" lon="8.201459990814328">
<ele>142.20000000000005</ele>
<time>2023-05-17T13:51:09Z</time>
</trkpt>
<trkpt lat="49.24030196852982" lon="8.20144196972251">
<ele>142.20000000000005</ele>
<time>2023-05-17T13:51:10Z</time>
</trkpt>
<trkpt lat="49.24034295603633" lon="8.20142294280231">
<ele>142.39999999999998</ele>
<time>2023-05-17T13:51:11Z</time>
</trkpt>
<trkpt lat="49.24038193188608" lon="8.201404921710491">
<ele>142.39999999999998</ele>
<time>2023-05-17T13:51:12Z</time>
</trkpt>
<trkpt lat="49.240419985726476" lon="8.201386984437704">
<ele>142.39999999999998</ele>
<time>2023-05-17T13:51:13Z</time>
</trkpt>
<trkpt lat="49.240459967404604" lon="8.201366951689124">
<ele>142.60000000000002</ele>
<time>2023-05-17T13:51:14Z</time>
</trkpt>
<trkpt lat="49.24049693159759" lon="8.201344991102815">
<ele>142.79999999999995</ele>
<time>2023-05-17T13:51:15Z</time>
</trkpt>
<trkpt lat="49.24053699709475" lon="8.201326970010996">
<ele>143</ele>
<time>2023-05-17T13:51:16Z</time>
</trkpt>
<trkpt lat="49.24057496711612" lon="8.201309954747558">
<ele>143</ele>
<time>2023-05-17T13:51:17Z</time>
</trkpt>
<trkpt lat="49.24060991965234" lon="8.201291933655739">
<ele>143.20000000000005</ele>
<time>2023-05-17T13:51:18Z</time>
</trkpt>
<trkpt lat="49.24064797349274" lon="8.201272990554571">
<ele>143.20000000000005</ele>
<time>2023-05-17T13:51:19Z</time>
</trkpt>
<trkpt lat="49.24068694934249" lon="8.20125195197761">
<ele>143.39999999999998</ele>
<time>2023-05-17T13:51:20Z</time>
</trkpt>
<trkpt lat="49.240721985697746" lon="8.20122797973454">
<ele>143.60000000000002</ele>
<time>2023-05-17T13:51:21Z</time>
</trkpt>
<trkpt lat="49.24075794406235" lon="8.201202917844057">
<ele>143.60000000000002</ele>
<time>2023-05-17T13:51:22Z</time>
</trkpt>
<trkpt lat="49.2407969199121" lon="8.201181963086128">
<ele>143.79999999999995</ele>
<time>2023-05-17T13:51:23Z</time>
</trkpt>
<trkpt lat="49.240827932953835" lon="8.20116494782269">
<ele>144</ele>
<time>2023-05-17T13:51:24Z</time>
</trkpt>
<trkpt lat="49.24085995182395" lon="8.201154973357916">
<ele>144</ele>
<time>2023-05-17T13:51:25Z</time>
</trkpt>
<trkpt lat="49.24089792184532" lon="8.201152961701155">
<ele>144.20000000000005</ele>
<time>2023-05-17T13:51:26Z</time>
</trkpt>
<trkpt lat="49.24094192683697" lon="8.201147932559252">
<ele>144.39999999999998</ele>
<time>2023-05-17T13:51:27Z</time>
</trkpt>
<trkpt lat="49.2409729398787" lon="8.201144998893142">
<ele>144.60000000000002</ele>
<time>2023-05-17T13:51:28Z</time>
</trkpt>
<trkpt lat="49.240999929606915" lon="8.20114298723638">
<ele>144.60000000000002</ele>
<time>2023-05-17T13:51:29Z</time>
</trkpt>
<trkpt lat="49.241039995104074" lon="8.201139969751239">
<ele>144.79999999999995</ele>
<time>2023-05-17T13:51:30Z</time>
</trkpt>
<trkpt lat="49.2410749476403" lon="8.201131923124194">
<ele>145</ele>
<time>2023-05-17T13:51:31Z</time>
</trkpt>
<trkpt lat="49.24111199565232" lon="8.20112194865942">
<ele>145.20000000000005</ele>
<time>2023-05-17T13:51:32Z</time>
</trkpt>
<trkpt lat="49.241149965673685" lon="8.201114991679788">
<ele>145.39999999999998</ele>
<time>2023-05-17T13:51:33Z</time>
</trkpt>
<trkpt lat="49.241192964836955" lon="8.201107950881124">
<ele>145.60000000000002</ele>
<time>2023-05-17T13:51:34Z</time>
</trkpt>
<trkpt lat="49.241236969828606" lon="8.201109962537885">
<ele>145.79999999999995</ele>
<time>2023-05-17T13:51:35Z</time>
</trkpt>
<trkpt lat="49.241276951506734" lon="8.201104933395982">
<ele>146</ele>
<time>2023-05-17T13:51:36Z</time>
</trkpt>
<trkpt lat="49.241319950670004" lon="8.20110292173922">
<ele>146</ele>
<time>2023-05-17T13:51:37Z</time>
</trkpt>
<trkpt lat="49.24135792069137" lon="8.201101999729872">
<ele>146.20000000000005</ele>
<time>2023-05-17T13:51:38Z</time>
</trkpt>
<trkpt lat="49.24140192568302" lon="8.201104933395982">
<ele>146.39999999999998</ele>
<time>2023-05-17T13:51:39Z</time>
</trkpt>
<trkpt lat="49.241451965644956" lon="8.20110292173922">
<ele>146.60000000000002</ele>
<time>2023-05-17T13:51:40Z</time>
</trkpt>
<trkpt lat="49.241494964808226" lon="8.20110292173922">
<ele>147</ele>
<time>2023-05-17T13:51:41Z</time>
</trkpt>
<trkpt lat="49.241536958143115" lon="8.20109998807311">
<ele>147.20000000000005</ele>
<time>2023-05-17T13:51:42Z</time>
</trkpt>
<trkpt lat="49.241581968963146" lon="8.201091941446066">
<ele>147.39999999999998</ele>
<time>2023-05-17T13:51:43Z</time>
</trkpt>
<trkpt lat="49.241621950641274" lon="8.201082972809672">
<ele>147.60000000000002</ele>
<time>2023-05-17T13:51:44Z</time>
</trkpt>
<trkpt lat="49.24165698699653" lon="8.201076937839389">
<ele>147.79999999999995</ele>
<time>2023-05-17T13:51:45Z</time>
</trkpt>
<trkpt lat="49.241689927875996" lon="8.201069980859756">
<ele>148</ele>
<time>2023-05-17T13:51:46Z</time>
</trkpt>
<trkpt lat="49.24172496423125" lon="8.201064951717854">
<ele>148.20000000000005</ele>
<time>2023-05-17T13:51:47Z</time>
</trkpt>
<trkpt lat="49.24175798892975" lon="8.20105992257595">
<ele>148.39999999999998</ele>
<time>2023-05-17T13:51:48Z</time>
</trkpt>
<trkpt lat="49.24179193563759" lon="8.201052965596318">
<ele>148.79999999999995</ele>
<time>2023-05-17T13:51:49Z</time>
</trkpt>
<trkpt lat="49.24182697199285" lon="8.201039973646402">
<ele>149</ele>
<time>2023-05-17T13:51:50Z</time>
</trkpt>
<trkpt lat="49.241859996691346" lon="8.201027987524867">
<ele>149.20000000000005</ele>
<time>2023-05-17T13:51:51Z</time>
</trkpt>
<trkpt lat="49.24189293757081" lon="8.20101692341268">
<ele>149.39999999999998</ele>
<time>2023-05-17T13:51:52Z</time>
</trkpt>
<trkpt lat="49.241921938955784" lon="8.201007954776287">
<ele>149.60000000000002</ele>
<time>2023-05-17T13:51:53Z</time>
</trkpt>
<trkpt lat="49.24195295199752" lon="8.201002925634384">
<ele>149.79999999999995</ele>
<time>2023-05-17T13:51:54Z</time>
</trkpt>
<trkpt lat="49.241984970867634" lon="8.200999991968274">
<ele>150</ele>
<time>2023-05-17T13:51:55Z</time>
</trkpt>
<trkpt lat="49.242022940889" lon="8.200989933684468">
<ele>150.20000000000005</ele>
<time>2023-05-17T13:51:56Z</time>
</trkpt>
<trkpt lat="49.24206996336579" lon="8.200966967269778">
<ele>150.39999999999998</ele>
<time>2023-05-17T13:51:57Z</time>
</trkpt>
<trkpt lat="49.242116985842586" lon="8.200941989198327">
<ele>150.79999999999995</ele>
<time>2023-05-17T13:51:58Z</time>
</trkpt>
<trkpt lat="49.242159985005856" lon="8.200916927307844">
<ele>151</ele>
<time>2023-05-17T13:51:59Z</time>
</trkpt>
<trkpt lat="49.242199966683984" lon="8.200889937579632">
<ele>151.20000000000005</ele>
<time>2023-05-17T13:52:00Z</time>
</trkpt>
<trkpt lat="49.24224196001887" lon="8.200866971164942">
<ele>151.39999999999998</ele>
<time>2023-05-17T13:52:01Z</time>
</trkpt>
<trkpt lat="49.24228495918214" lon="8.20084199309349">
<ele>151.79999999999995</ele>
<time>2023-05-17T13:52:02Z</time>
</trkpt>
<trkpt lat="49.24232494086027" lon="8.200817937031388">
<ele>152</ele>
<time>2023-05-17T13:52:03Z</time>
</trkpt>
<trkpt lat="49.24235796555877" lon="8.200789941474795">
<ele>152.20000000000005</ele>
<time>2023-05-17T13:52:04Z</time>
</trkpt>
<trkpt lat="49.24238797277212" lon="8.200764963403344">
<ele>152.39999999999998</ele>
<time>2023-05-17T13:52:05Z</time>
</trkpt>
<trkpt lat="49.24241194501519" lon="8.200746942311525">
<ele>152.60000000000002</ele>
<time>2023-05-17T13:52:06Z</time>
</trkpt>
<trkpt lat="49.24242795445025" lon="8.200732944533229">
<ele>152.79999999999995</ele>
<time>2023-05-17T13:52:07Z</time>
</trkpt>
<trkpt lat="49.242437928915024" lon="8.200724981725216">
<ele>152.79999999999995</ele>
<time>2023-05-17T13:52:08Z</time>
</trkpt>
<trkpt lat="49.242437928915024" lon="8.200722970068455">
<ele>153</ele>
<time>2023-05-17T13:52:09Z</time>
</trkpt>
<trkpt lat="49.242439940571785" lon="8.200722970068455">
<ele>153.20000000000005</ele>
<time>2023-05-17T13:52:10Z</time>
</trkpt>
<trkpt lat="49.24244295805693" lon="8.200721964240074">
<ele>154</ele>
<time>2023-05-17T13:52:10Z</time>
</trkpt>
<trkpt lat="49.24244698137045" lon="8.200722970068455">
<ele>154</ele>
<time>2023-05-17T13:52:11Z</time>
</trkpt>
<trkpt lat="49.24244798719883" lon="8.200724981725216">
<ele>154</ele>
<time>2023-05-17T13:52:12Z</time>
</trkpt>
<trkpt lat="49.242459973320365" lon="8.200727999210358">
<ele>154</ele>
<time>2023-05-17T13:52:13Z</time>
</trkpt>
<trkpt lat="49.24247296527028" lon="8.200729927048087">
<ele>154</ele>
<time>2023-05-17T13:52:14Z</time>
</trkpt>
<trkpt lat="49.24248796887696" lon="8.200726993381977">
<ele>154</ele>
<time>2023-05-17T13:52:15Z</time>
</trkpt>
<trkpt lat="49.24250699579716" lon="8.200721964240074">
<ele>154</ele>
<time>2023-05-17T13:52:16Z</time>
</trkpt>
<trkpt lat="49.24252996221185" lon="8.200709978118539">
<ele>154</ele>
<time>2023-05-17T13:52:17Z</time>
</trkpt>
<trkpt lat="49.2425549402833" lon="8.200696986168623">
<ele>154</ele>
<time>2023-05-17T13:52:18Z</time>
</trkpt>
<trkpt lat="49.24258494749665" lon="8.200686927884817">
<ele>154</ele>
<time>2023-05-17T13:52:19Z</time>
</trkpt>
<trkpt lat="49.24261797219515" lon="8.20067293010652">
<ele>154</ele>
<time>2023-05-17T13:52:20Z</time>
</trkpt>
<trkpt lat="49.24265795387328" lon="8.200659938156605">
<ele>154.20000000000005</ele>
<time>2023-05-17T13:52:21Z</time>
</trkpt>
<trkpt lat="49.24270195886493" lon="8.200644934549928">
<ele>154.20000000000005</ele>
<time>2023-05-17T13:52:22Z</time>
</trkpt>
<trkpt lat="49.2427499871701" lon="8.20062699727714">
<ele>154.20000000000005</ele>
<time>2023-05-17T13:52:23Z</time>
</trkpt>
<trkpt lat="49.242801954969764" lon="8.200609982013702">
<ele>154.39999999999998</ele>
<time>2023-05-17T13:52:24Z</time>
</trkpt>
<trkpt lat="49.2428519949317" lon="8.200589949265122">
<ele>154.39999999999998</ele>
<time>2023-05-17T13:52:25Z</time>
</trkpt>
<trkpt lat="49.24290496855974" lon="8.200571928173304">
<ele>154.39999999999998</ele>
<time>2023-05-17T13:52:26Z</time>
</trkpt>
<trkpt lat="49.24295995384455" lon="8.200549967586994">
<ele>154.60000000000002</ele>
<time>2023-05-17T13:52:27Z</time>
</trkpt>
<trkpt lat="49.243016950786114" lon="8.200524989515543">
<ele>154.60000000000002</ele>
<time>2023-05-17T13:52:28Z</time>
</trkpt>
<trkpt lat="49.2430729418993" lon="8.20049799978733">
<ele>154.79999999999995</ele>
<time>2023-05-17T13:52:29Z</time>
</trkpt>
<trkpt lat="49.24313195049763" lon="8.200471932068467">
<ele>154.79999999999995</ele>
<time>2023-05-17T13:52:30Z</time>
</trkpt>
<trkpt lat="49.243191964924335" lon="8.200441924855113">
<ele>154.79999999999995</ele>
<time>2023-05-17T13:52:31Z</time>
</trkpt>
<trkpt lat="49.24324996769428" lon="8.20040998980403">
<ele>154.79999999999995</ele>
<time>2023-05-17T13:52:32Z</time>
</trkpt>
<trkpt lat="49.24330998212099" lon="8.200374953448772">
<ele>155</ele>
<time>2023-05-17T13:52:33Z</time>
</trkpt>
<trkpt lat="49.24337192438543" lon="8.200341928750277">
<ele>155</ele>
<time>2023-05-17T13:52:34Z</time>
</trkpt>
<trkpt lat="49.24343294464052" lon="8.200306976214051">
<ele>155</ele>
<time>2023-05-17T13:52:35Z</time>
</trkpt>
<trkpt lat="49.24349698238075" lon="8.200272945687175">
<ele>155</ele>
<time>2023-05-17T13:52:36Z</time>
</trkpt>
<trkpt lat="49.243559930473566" lon="8.200236987322569">
<ele>155</ele>
<time>2023-05-17T13:52:37Z</time>
</trkpt>
<trkpt lat="49.24362497404218" lon="8.200201950967312">
<ele>155</ele>
<time>2023-05-17T13:52:38Z</time>
</trkpt>
<trkpt lat="49.24368993379176" lon="8.200164986774325">
<ele>155</ele>
<time>2023-05-17T13:52:39Z</time>
</trkpt>
<trkpt lat="49.24375698901713" lon="8.200127938762307">
<ele>154.79999999999995</ele>
<time>2023-05-17T13:52:40Z</time>
</trkpt>
<trkpt lat="49.24382496625185" lon="8.200092986226082">
<ele>154.79999999999995</ele>
<time>2023-05-17T13:52:41Z</time>
</trkpt>
<trkpt lat="49.24389495514333" lon="8.200059961527586">
<ele>154.79999999999995</ele>
<time>2023-05-17T13:52:42Z</time>
</trkpt>
<trkpt lat="49.243964944034815" lon="8.20002693682909">
<ele>154.79999999999995</ele>
<time>2023-05-17T13:52:43Z</time>
</trkpt>
<trkpt lat="49.24403694458306" lon="8.199994917958975">
<ele>154.79999999999995</ele>
<time>2023-05-17T13:52:44Z</time>
</trkpt>
<trkpt lat="49.24410793930292" lon="8.199962982907891">
<ele>154.79999999999995</ele>
<time>2023-05-17T13:52:45Z</time>
</trkpt>
<trkpt lat="49.244179939851165" lon="8.199932975694537">
<ele>154.79999999999995</ele>
<time>2023-05-17T13:52:46Z</time>
</trkpt>
<trkpt lat="49.24425194039941" lon="8.199902968481183">
<ele>154.60000000000002</ele>
<time>2023-05-17T13:52:47Z</time>
</trkpt>
<trkpt lat="49.244326958432794" lon="8.199872961267829">
<ele>154.39999999999998</ele>
<time>2023-05-17T13:52:48Z</time>
</trkpt>
<trkpt lat="49.24440298229456" lon="8.199846977367997">
<ele>154.20000000000005</ele>
<time>2023-05-17T13:52:49Z</time>
</trkpt>
<trkpt lat="49.244481939822435" lon="8.199819987639785">
<ele>154</ele>
<time>2023-05-17T13:52:50Z</time>
</trkpt>
<trkpt lat="49.244562992826104" lon="8.199784951284528">
<ele>153.60000000000002</ele>
<time>2023-05-17T13:52:51Z</time>
</trkpt>
<trkpt lat="49.244649996981025" lon="8.199749998748302">
<ele>153.20000000000005</ele>
<time>2023-05-17T13:52:52Z</time>
</trkpt>
<trkpt lat="49.24475493840873" lon="8.199711944907904">
<ele>152.60000000000002</ele>
<time>2023-05-17T13:52:53Z</time>
</trkpt>
<trkpt lat="49.2448499891907" lon="8.199677998200059">
<ele>152.20000000000005</ele>
<time>2023-05-17T13:52:54Z</time>
</trkpt>
<trkpt lat="49.24493992701173" lon="8.199649918824434">
<ele>151.60000000000002</ele>
<time>2023-05-17T13:52:55Z</time>
</trkpt>
<trkpt lat="49.245041934773326" lon="8.199614966288209">
<ele>151.20000000000005</ele>
<time>2023-05-17T13:52:56Z</time>
</trkpt>
<trkpt lat="49.24511695280671" lon="8.199571967124939">
<ele>150.79999999999995</ele>
<time>2023-05-17T13:52:57Z</time>
</trkpt>
<trkpt lat="49.24519498832524" lon="8.199537936598063">
<ele>150.60000000000002</ele>
<time>2023-05-17T13:52:58Z</time>
</trkpt>
<trkpt lat="49.245276963338256" lon="8.199507929384708">
<ele>150.20000000000005</ele>
<time>2023-05-17T13:52:59Z</time>
</trkpt>
<trkpt lat="49.24535298720002" lon="8.199476916342974">
<ele>150</ele>
<time>2023-05-17T13:53:00Z</time>
</trkpt>
<trkpt lat="49.245426999405026" lon="8.199446992948651">
<ele>149.79999999999995</ele>
<time>2023-05-17T13:53:01Z</time>
</trkpt>
<trkpt lat="49.24549497663975" lon="8.199416985735297">
<ele>149.79999999999995</ele>
<time>2023-05-17T13:53:02Z</time>
</trkpt>
<trkpt lat="49.24556194804609" lon="8.199389996007085">
<ele>149.60000000000002</ele>
<time>2023-05-17T13:53:03Z</time>
</trkpt>
<trkpt lat="49.24562497995794" lon="8.19936292245984">
<ele>149.60000000000002</ele>
<time>2023-05-17T13:53:04Z</time>
</trkpt>
<trkpt lat="49.24568792805076" lon="8.199336938560009">
<ele>149.60000000000002</ele>
<time>2023-05-17T13:53:05Z</time>
</trkpt>
<trkpt lat="49.245749954134226" lon="8.199307937175035">
<ele>149.60000000000002</ele>
<time>2023-05-17T13:53:06Z</time>
</trkpt>
<trkpt lat="49.245809968560934" lon="8.199282959103584">
<ele>149.60000000000002</ele>
<time>2023-05-17T13:53:07Z</time>
</trkpt>
<trkpt lat="49.24586797133088" lon="8.199257981032133">
<ele>149.79999999999995</ele>
<time>2023-05-17T13:53:08Z</time>
</trkpt>
<trkpt lat="49.24592697992921" lon="8.199234930798411">
<ele>149.79999999999995</ele>
<time>2023-05-17T13:53:09Z</time>
</trkpt>
<trkpt lat="49.24597995355725" lon="8.199212970212102">
<ele>149.79999999999995</ele>
<time>2023-05-17T13:53:10Z</time>
</trkpt>
<trkpt lat="49.246031921356916" lon="8.19918991997838">
<ele>149.79999999999995</ele>
<time>2023-05-17T13:53:11Z</time>
</trkpt>
<trkpt lat="49.24608296714723" lon="8.199169971048832">
<ele>149.79999999999995</ele>
<time>2023-05-17T13:53:12Z</time>
</trkpt>
<trkpt lat="49.246134934946895" lon="8.199151949957013">
<ele>150</ele>
<time>2023-05-17T13:53:13Z</time>
</trkpt>
<trkpt lat="49.24618698656559" lon="8.199131917208433">
<ele>150.20000000000005</ele>
<time>2023-05-17T13:53:14Z</time>
</trkpt>
<trkpt lat="49.24623493105173" lon="8.199112974107265">
<ele>150.20000000000005</ele>
<time>2023-05-17T13:53:15Z</time>
</trkpt>
<trkpt lat="49.246284971013665" lon="8.199091935530305">
<ele>150.39999999999998</ele>
<time>2023-05-17T13:53:16Z</time>
</trkpt>
<trkpt lat="49.24633693881333" lon="8.199069974943995">
<ele>150.60000000000002</ele>
<time>2023-05-17T13:53:17Z</time>
</trkpt>
<trkpt lat="49.24638697877526" lon="8.199051953852177">
<ele>150.79999999999995</ele>
<time>2023-05-17T13:53:18Z</time>
</trkpt>
<trkpt lat="49.246437940746546" lon="8.199031921103597">
<ele>151</ele>
<time>2023-05-17T13:53:19Z</time>
</trkpt>
<trkpt lat="49.24649192020297" lon="8.199011972174048">
<ele>151.20000000000005</ele>
<time>2023-05-17T13:53:20Z</time>
</trkpt>
<trkpt lat="49.24654698930681" lon="8.198992945253849">
<ele>151.39999999999998</ele>
<time>2023-05-17T13:53:21Z</time>
</trkpt>
<trkpt lat="49.24660298041999" lon="8.19897492416203">
<ele>151.79999999999995</ele>
<time>2023-05-17T13:53:22Z</time>
</trkpt>
<trkpt lat="49.24665997736156" lon="8.198954975232482">
<ele>151.79999999999995</ele>
<time>2023-05-17T13:53:23Z</time>
</trkpt>
<trkpt lat="49.246714962646365" lon="8.19893192499876">
<ele>152</ele>
<time>2023-05-17T13:53:24Z</time>
</trkpt>
<trkpt lat="49.24677195958793" lon="8.19890795275569">
<ele>152.20000000000005</ele>
<time>2023-05-17T13:53:25Z</time>
</trkpt>
<trkpt lat="49.24682795070112" lon="8.198884986341">
<ele>152.39999999999998</ele>
<time>2023-05-17T13:53:26Z</time>
</trkpt>
<trkpt lat="49.246884947642684" lon="8.198861936107278">
<ele>152.39999999999998</ele>
<time>2023-05-17T13:53:27Z</time>
</trkpt>
<trkpt lat="49.24694295041263" lon="8.19884198717773">
<ele>152.60000000000002</ele>
<time>2023-05-17T13:53:28Z</time>
</trkpt>
<trkpt lat="49.2469999473542" lon="8.19882296025753">
<ele>152.79999999999995</ele>
<time>2023-05-17T13:53:29Z</time>
</trkpt>
<trkpt lat="49.247059961780906" lon="8.198806950822473">
<ele>153</ele>
<time>2023-05-17T13:53:30Z</time>
</trkpt>
<trkpt lat="49.24711796455085" lon="8.198791947215796">
<ele>153.20000000000005</ele>
<time>2023-05-17T13:53:31Z</time>
</trkpt>
<trkpt lat="49.24717496149242" lon="8.198772920295596">
<ele>153.39999999999998</ele>
<time>2023-05-17T13:53:32Z</time>
</trkpt>
<trkpt lat="49.247229946777225" lon="8.198754983022809">
<ele>153.60000000000002</ele>
<time>2023-05-17T13:53:33Z</time>
</trkpt>
<trkpt lat="49.24728199839592" lon="8.19873696193099">
<ele>153.79999999999995</ele>
<time>2023-05-17T13:53:34Z</time>
</trkpt>
<trkpt lat="49.2473279312253" lon="8.19871793501079">
<ele>154</ele>
<time>2023-05-17T13:53:35Z</time>
</trkpt>
<trkpt lat="49.24736992456019" lon="8.198701925575733">
<ele>154.39999999999998</ele>
<time>2023-05-17T13:53:36Z</time>
</trkpt>
<trkpt lat="49.24740697257221" lon="8.198691951110959">
<ele>154.60000000000002</ele>
<time>2023-05-17T13:53:37Z</time>
</trkpt>
<trkpt lat="49.2474399972707" lon="8.198679964989424">
<ele>154.79999999999995</ele>
<time>2023-05-17T13:53:38Z</time>
</trkpt>
<trkpt lat="49.24747494980693" lon="8.198666973039508">
<ele>155.20000000000005</ele>
<time>2023-05-17T13:53:39Z</time>
</trkpt>
<trkpt lat="49.24751199781895" lon="8.198647946119308">
<ele>155.39999999999998</ele>
<time>2023-05-17T13:53:40Z</time>
</trkpt>
<trkpt lat="49.24754695035517" lon="8.19862992502749">
<ele>155.60000000000002</ele>
<time>2023-05-17T13:53:41Z</time>
</trkpt>
<trkpt lat="49.24758492037654" lon="8.198612993583083">
<ele>155.79999999999995</ele>
<time>2023-05-17T13:53:42Z</time>
</trkpt>
<trkpt lat="49.24762297421694" lon="8.198597989976406">
<ele>156</ele>
<time>2023-05-17T13:53:43Z</time>
</trkpt>
<trkpt lat="49.24765792675316" lon="8.19858499802649">
<ele>156.20000000000005</ele>
<time>2023-05-17T13:53:44Z</time>
</trkpt>
<trkpt lat="49.24769296310842" lon="8.198571922257543">
<ele>156.39999999999998</ele>
<time>2023-05-17T13:53:45Z</time>
</trkpt>
<trkpt lat="49.2477269936353" lon="8.198556918650866">
<ele>156.39999999999998</ele>
<time>2023-05-17T13:53:46Z</time>
</trkpt>
<trkpt lat="49.247757922858" lon="8.198542920872569">
<ele>156.60000000000002</ele>
<time>2023-05-17T13:53:47Z</time>
</trkpt>
<trkpt lat="49.247789941728115" lon="8.198529928922653">
<ele>156.79999999999995</ele>
<time>2023-05-17T13:53:48Z</time>
</trkpt>
<trkpt lat="49.24782196059823" lon="8.198517942801118">
<ele>156.79999999999995</ele>
<time>2023-05-17T13:53:49Z</time>
</trkpt>
<trkpt lat="49.24784995615482" lon="8.198506962507963">
<ele>156.79999999999995</ele>
<time>2023-05-17T13:53:50Z</time>
</trkpt>
<trkpt lat="49.247877951711416" lon="8.198496988043189">
<ele>157</ele>
<time>2023-05-17T13:53:51Z</time>
</trkpt>
<trkpt lat="49.24790292978287" lon="8.198487935587764">
<ele>157</ele>
<time>2023-05-17T13:53:52Z</time>
</trkpt>
<trkpt lat="49.24792698584497" lon="8.19847997277975">
<ele>157.20000000000005</ele>
<time>2023-05-17T13:53:53Z</time>
</trkpt>
<trkpt lat="49.24794995225966" lon="8.198472931981087">
<ele>157.20000000000005</ele>
<time>2023-05-17T13:53:54Z</time>
</trkpt>
<trkpt lat="49.247971996665" lon="8.198467986658216">
<ele>157.20000000000005</ele>
<time>2023-05-17T13:53:55Z</time>
</trkpt>
<trkpt lat="49.24798993393779" lon="8.198462957516313">
<ele>157.39999999999998</ele>
<time>2023-05-17T13:53:56Z</time>
</trkpt>
<trkpt lat="49.248002925887704" lon="8.19845792837441">
<ele>157.39999999999998</ele>
<time>2023-05-17T13:53:57Z</time>
</trkpt>
<trkpt lat="49.24801298417151" lon="8.198452983051538">
<ele>157.39999999999998</ele>
<time>2023-05-17T13:53:58Z</time>
</trkpt>
<trkpt lat="49.24801994115114" lon="8.198449965566397">
<ele>157.39999999999998</ele>
<time>2023-05-17T13:53:59Z</time>
</trkpt>
<trkpt lat="49.24801792949438" lon="8.198451977223158">
<ele>157.60000000000002</ele>
<time>2023-05-17T13:54:01Z</time>
</trkpt>
<trkpt lat="49.24801792949438" lon="8.198449965566397">
<ele>157.60000000000002</ele>
<time>2023-05-17T13:54:02Z</time>
</trkpt>
<trkpt lat="49.24807995557785" lon="8.198422975838184">
<ele>157.60000000000002</ele>
<time>2023-05-17T13:54:02Z</time>
</trkpt>
<trkpt lat="49.24810292199254" lon="8.198409983888268">
<ele>157.79999999999995</ele>
<time>2023-05-17T13:54:03Z</time>
</trkpt>
<trkpt lat="49.248131923377514" lon="8.198394980281591">
<ele>157.79999999999995</ele>
<time>2023-05-17T13:54:04Z</time>
</trkpt>
<trkpt lat="49.24816293641925" lon="8.198379976674914">
<ele>157.79999999999995</ele>
<time>2023-05-17T13:54:05Z</time>
</trkpt>
<trkpt lat="49.248197972774506" lon="8.198362961411476">
<ele>157.79999999999995</ele>
<time>2023-05-17T13:54:06Z</time>
</trkpt>
<trkpt lat="49.24823694862425" lon="8.198346951976418">
<ele>157.79999999999995</ele>
<time>2023-05-17T13:54:07Z</time>
</trkpt>
<trkpt lat="49.24827491864562" lon="8.198326919227839">
<ele>157.79999999999995</ele>
<time>2023-05-17T13:54:08Z</time>
</trkpt>
<trkpt lat="49.24831498414278" lon="8.198304958641529">
<ele>157.79999999999995</ele>
<time>2023-05-17T13:54:09Z</time>
</trkpt>
<trkpt lat="49.24835496582091" lon="8.19828693754971">
<ele>157.79999999999995</ele>
<time>2023-05-17T13:54:10Z</time>
</trkpt>
<trkpt lat="49.24839494749904" lon="8.198266988620162">
<ele>157.79999999999995</ele>
<time>2023-05-17T13:54:11Z</time>
</trkpt>
<trkpt lat="49.248432917520404" lon="8.198247961699963">
<ele>157.79999999999995</ele>
<time>2023-05-17T13:54:12Z</time>
</trkpt>
<trkpt lat="49.248472983017564" lon="8.198231952264905">
<ele>157.79999999999995</ele>
<time>2023-05-17T13:54:13Z</time>
</trkpt>
<trkpt lat="49.24851497635245" lon="8.198211919516325">
<ele>157.79999999999995</ele>
<time>2023-05-17T13:54:14Z</time>
</trkpt>
<trkpt lat="49.24855696968734" lon="8.198191970586777">
<ele>158</ele>
<time>2023-05-17T13:54:15Z</time>
</trkpt>
<trkpt lat="49.24859795719385" lon="8.198171937838197">
<ele>158</ele>
<time>2023-05-17T13:54:16Z</time>
</trkpt>
<trkpt lat="49.2486419621855" lon="8.198149977251887">
<ele>158</ele>
<time>2023-05-17T13:54:17Z</time>
</trkpt>
<trkpt lat="49.24868194386363" lon="8.198131956160069">
<ele>158</ele>
<time>2023-05-17T13:54:18Z</time>
</trkpt>
<trkpt lat="49.24871999770403" lon="8.198111923411489">
<ele>158</ele>
<time>2023-05-17T13:54:19Z</time>
</trkpt>
<trkpt lat="49.24875997938216" lon="8.19809298031032">
<ele>158</ele>
<time>2023-05-17T13:54:20Z</time>
</trkpt>
<trkpt lat="49.248797949403524" lon="8.198074959218502">
<ele>158</ele>
<time>2023-05-17T13:54:21Z</time>
</trkpt>
<trkpt lat="49.24883692525327" lon="8.198054926469922">
<ele>158</ele>
<time>2023-05-17T13:54:22Z</time>
</trkpt>
<trkpt lat="49.24887497909367" lon="8.198036989197135">
<ele>158</ele>
<time>2023-05-17T13:54:23Z</time>
</trkpt>
<trkpt lat="49.24891294911504" lon="8.198017962276936">
<ele>158</ele>
<time>2023-05-17T13:54:24Z</time>
</trkpt>
<trkpt lat="49.248952930793166" lon="8.197999941185117">
<ele>158</ele>
<time>2023-05-17T13:54:25Z</time>
</trkpt>
<trkpt lat="49.24899693578482" lon="8.197979992255569">
<ele>158</ele>
<time>2023-05-17T13:54:26Z</time>
</trkpt>
<trkpt lat="49.24903993494809" lon="8.197957947850227">
<ele>158</ele>
<time>2023-05-17T13:54:27Z</time>
</trkpt>
<trkpt lat="49.24908293411136" lon="8.197932969778776">
<ele>158</ele>
<time>2023-05-17T13:54:28Z</time>
</trkpt>
<trkpt lat="49.24912794493139" lon="8.197907991707325">
<ele>158</ele>
<time>2023-05-17T13:54:29Z</time>
</trkpt>
<trkpt lat="49.24917496740818" lon="8.197884941473603">
<ele>158</ele>
<time>2023-05-17T13:54:30Z</time>
</trkpt>
<trkpt lat="49.24921796657145" lon="8.197866920381784">
<ele>157.79999999999995</ele>
<time>2023-05-17T13:54:31Z</time>
</trkpt>
<trkpt lat="49.2492619715631" lon="8.197844959795475">
<ele>157.79999999999995</ele>
<time>2023-05-17T13:54:32Z</time>
</trkpt>
<trkpt lat="49.24930295906961" lon="8.197821993380785">
<ele>157.79999999999995</ele>
<time>2023-05-17T13:54:33Z</time>
</trkpt>
<trkpt lat="49.2493449524045" lon="8.197801960632205">
<ele>157.79999999999995</ele>
<time>2023-05-17T13:54:34Z</time>
</trkpt>
<trkpt lat="49.24938795156777" lon="8.197787962853909">
<ele>157.79999999999995</ele>
<time>2023-05-17T13:54:35Z</time>
</trkpt>
<trkpt lat="49.24943497404456" lon="8.197777988389134">
<ele>157.60000000000002</ele>
<time>2023-05-17T13:54:36Z</time>
</trkpt>
<trkpt lat="49.249484930187464" lon="8.197782933712006">
<ele>157.60000000000002</ele>
<time>2023-05-17T13:54:37Z</time>
</trkpt>
<trkpt lat="49.24953295849264" lon="8.197804978117347">
<ele>157.60000000000002</ele>
<time>2023-05-17T13:54:38Z</time>
</trkpt>
<trkpt lat="49.24957796931267" lon="8.197836996987462">
<ele>157.60000000000002</ele>
<time>2023-05-17T13:54:39Z</time>
</trkpt>
<trkpt lat="49.24962197430432" lon="8.197867926210165">
<ele>157.39999999999998</ele>
<time>2023-05-17T13:54:40Z</time>
</trkpt>
<trkpt lat="49.24966799095273" lon="8.197894999757409">
<ele>157.39999999999998</ele>
<time>2023-05-17T13:54:41Z</time>
</trkpt>
<trkpt lat="49.24971492961049" lon="8.197906985878944">
<ele>157.39999999999998</ele>
<time>2023-05-17T13:54:42Z</time>
</trkpt>
<trkpt lat="49.249762957915664" lon="8.197904974222183">
<ele>157.20000000000005</ele>
<time>2023-05-17T13:54:43Z</time>
</trkpt>
<trkpt lat="49.24981492571533" lon="8.197892988100648">
<ele>157</ele>
<time>2023-05-17T13:54:44Z</time>
</trkpt>
<trkpt lat="49.2498679831624" lon="8.19787496700883">
<ele>156.79999999999995</ele>
<time>2023-05-17T13:54:45Z</time>
</trkpt>
<trkpt lat="49.24992296844721" lon="8.197851916775107">
<ele>156.79999999999995</ele>
<time>2023-05-17T13:54:46Z</time>
</trkpt>
<trkpt lat="49.249981977045536" lon="8.197824927046895">
<ele>156.60000000000002</ele>
<time>2023-05-17T13:54:47Z</time>
</trkpt>
<trkpt lat="49.25003796815872" lon="8.197796931490302">
<ele>156.39999999999998</ele>
<time>2023-05-17T13:54:48Z</time>
</trkpt>
<trkpt lat="49.25009798258543" lon="8.197767930105329">
<ele>156.20000000000005</ele>
<time>2023-05-17T13:54:49Z</time>
</trkpt>
<trkpt lat="49.25015992484987" lon="8.197737922891974">
<ele>156</ele>
<time>2023-05-17T13:54:50Z</time>
</trkpt>
<trkpt lat="49.25022195093334" lon="8.197707999497652">
<ele>155.79999999999995</ele>
<time>2023-05-17T13:54:51Z</time>
</trkpt>
<trkpt lat="49.25028699450195" lon="8.197677992284298">
<ele>155.39999999999998</ele>
<time>2023-05-17T13:54:52Z</time>
</trkpt>
<trkpt lat="49.25034994259477" lon="8.197647985070944">
<ele>155.20000000000005</ele>
<time>2023-05-17T13:54:53Z</time>
</trkpt>
<trkpt lat="49.25041297450662" lon="8.19761797785759">
<ele>155</ele>
<time>2023-05-17T13:54:54Z</time>
</trkpt>
<trkpt lat="49.250476928427815" lon="8.197587970644236">
<ele>154.79999999999995</ele>
<time>2023-05-17T13:54:55Z</time>
</trkpt>
<trkpt lat="49.250536942854524" lon="8.197559975087643">
<ele>154.39999999999998</ele>
<time>2023-05-17T13:54:56Z</time>
</trkpt>
<trkpt lat="49.25059695728123" lon="8.19753197953105">
<ele>154.20000000000005</ele>
<time>2023-05-17T13:54:57Z</time>
</trkpt>
<trkpt lat="49.25065998919308" lon="8.197502978146076">
<ele>153.79999999999995</ele>
<time>2023-05-17T13:54:58Z</time>
</trkpt>
<trkpt lat="49.25072494894266" lon="8.197472970932722">
<ele>153.60000000000002</ele>
<time>2023-05-17T13:54:59Z</time>
</trkpt>
<trkpt lat="49.250797955319285" lon="8.197442963719368">
<ele>153.20000000000005</ele>
<time>2023-05-17T13:55:00Z</time>
</trkpt>
<trkpt lat="49.25087498500943" lon="8.197412956506014">
<ele>152.60000000000002</ele>
<time>2023-05-17T13:55:01Z</time>
</trkpt>
<trkpt lat="49.25095796585083" lon="8.197377920150757">
<ele>152.20000000000005</ele>
<time>2023-05-17T13:55:02Z</time>
</trkpt>
<trkpt lat="49.25104798749089" lon="8.197341961786151">
<ele>151.60000000000002</ele>
<time>2023-05-17T13:55:03Z</time>
</trkpt>
<trkpt lat="49.25114798359573" lon="8.19729695096612">
<ele>150.79999999999995</ele>
<time>2023-05-17T13:55:04Z</time>
</trkpt>
<trkpt lat="49.25124295055866" lon="8.19725495763123">
<ele>150</ele>
<time>2023-05-17T13:55:05Z</time>
</trkpt>
<trkpt lat="49.25133992917836" lon="8.197206929326057">
<ele>149.39999999999998</ele>
<time>2023-05-17T13:55:06Z</time>
</trkpt>
<trkpt lat="49.25144797191024" lon="8.197154961526394">
<ele>148.60000000000002</ele>
<time>2023-05-17T13:55:07Z</time>
</trkpt>
<trkpt lat="49.25154495052993" lon="8.197116991505027">
<ele>147.79999999999995</ele>
<time>2023-05-17T13:55:08Z</time>
</trkpt>
<trkpt lat="49.25164192914963" lon="8.197074998170137">
<ele>147</ele>
<time>2023-05-17T13:55:09Z</time>
</trkpt>
<trkpt lat="49.25174997188151" lon="8.197029987350106">
<ele>146.39999999999998</ele>
<time>2023-05-17T13:55:10Z</time>
</trkpt>
<trkpt lat="49.25184292718768" lon="8.196984976530075">
<ele>146</ele>
<time>2023-05-17T13:55:11Z</time>
</trkpt>
<trkpt lat="49.25192297436297" lon="8.196949940174818">
<ele>145.60000000000002</ele>
<time>2023-05-17T13:55:12Z</time>
</trkpt>
<trkpt lat="49.251996986567974" lon="8.196922950446606">
<ele>145.20000000000005</ele>
<time>2023-05-17T13:55:13Z</time>
</trkpt>
<trkpt lat="49.25205993466079" lon="8.196894954890013">
<ele>145.20000000000005</ele>
<time>2023-05-17T13:55:14Z</time>
</trkpt>
<trkpt lat="49.25211299210787" lon="8.196871988475323">
<ele>145.20000000000005</ele>
<time>2023-05-17T13:55:15Z</time>
</trkpt>
<trkpt lat="49.25216194242239" lon="8.196849944069982">
<ele>145.39999999999998</ele>
<time>2023-05-17T13:55:16Z</time>
</trkpt>
<trkpt lat="49.25220997072756" lon="8.196831922978163">
<ele>145.60000000000002</ele>
<time>2023-05-17T13:55:17Z</time>
</trkpt>
<trkpt lat="49.252254981547594" lon="8.196809962391853">
<ele>145.79999999999995</ele>
<time>2023-05-17T13:55:18Z</time>
</trkpt>
<trkpt lat="49.252301920205355" lon="8.196787917986512">
<ele>146</ele>
<time>2023-05-17T13:55:19Z</time>
</trkpt>
<trkpt lat="49.252347936853766" lon="8.196766963228583">
<ele>146</ele>
<time>2023-05-17T13:55:20Z</time>
</trkpt>
<trkpt lat="49.25239998847246" lon="8.196744918823242">
<ele>146.20000000000005</ele>
<time>2023-05-17T13:55:21Z</time>
</trkpt>
<trkpt lat="49.252452962100506" lon="8.196721952408552">
<ele>146.39999999999998</ele>
<time>2023-05-17T13:55:22Z</time>
</trkpt>
<trkpt lat="49.25250794738531" lon="8.196696974337101">
<ele>146.60000000000002</ele>
<time>2023-05-17T13:55:23Z</time>
</trkpt>
<trkpt lat="49.25256494432688" lon="8.196672918274999">
<ele>146.79999999999995</ele>
<time>2023-05-17T13:55:24Z</time>
</trkpt>
<trkpt lat="49.252621941268444" lon="8.19665196351707">
<ele>147.20000000000005</ele>
<time>2023-05-17T13:55:25Z</time>
</trkpt>
<trkpt lat="49.25267793238163" lon="8.196629919111729">
<ele>147.60000000000002</ele>
<time>2023-05-17T13:55:26Z</time>
</trkpt>
<trkpt lat="49.252734929323196" lon="8.19660997018218">
<ele>148</ele>
<time>2023-05-17T13:55:27Z</time>
</trkpt>
<trkpt lat="49.25278999842703" lon="8.196591949090362">
<ele>148.39999999999998</ele>
<time>2023-05-17T13:55:28Z</time>
</trkpt>
<trkpt lat="49.25284297205508" lon="8.196567976847291">
<ele>148.79999999999995</ele>
<time>2023-05-17T13:55:29Z</time>
</trkpt>
<trkpt lat="49.252899968996644" lon="8.19654693827033">
<ele>149.20000000000005</ele>
<time>2023-05-17T13:55:30Z</time>
</trkpt>
<trkpt lat="49.25295696593821" lon="8.19652296602726">
<ele>149.39999999999998</ele>
<time>2023-05-17T13:55:31Z</time>
</trkpt>
<trkpt lat="49.25301496870816" lon="8.196497987955809">
<ele>149.60000000000002</ele>
<time>2023-05-17T13:55:32Z</time>
</trkpt>
<trkpt lat="49.253074983134866" lon="8.196476949378848">
<ele>149.79999999999995</ele>
<time>2023-05-17T13:55:33Z</time>
</trkpt>
<trkpt lat="49.253134997561574" lon="8.196456916630268">
<ele>149.79999999999995</ele>
<time>2023-05-17T13:55:34Z</time>
</trkpt>
<trkpt lat="49.25319693982601" lon="8.19643696770072">
<ele>150</ele>
<time>2023-05-17T13:55:35Z</time>
</trkpt>
<trkpt lat="49.25325695425272" lon="8.196414923295379">
<ele>150.20000000000005</ele>
<time>2023-05-17T13:55:36Z</time>
</trkpt>
<trkpt lat="49.25331797450781" lon="8.19639296270907">
<ele>150.20000000000005</ele>
<time>2023-05-17T13:55:37Z</time>
</trkpt>
<trkpt lat="49.25337798893452" lon="8.19636999629438">
<ele>150.20000000000005</ele>
<time>2023-05-17T13:55:38Z</time>
</trkpt>
<trkpt lat="49.253439931198955" lon="8.196344934403896">
<ele>150.39999999999998</ele>
<time>2023-05-17T13:55:39Z</time>
</trkpt>
<trkpt lat="49.253501957282424" lon="8.196321967989206">
<ele>150.39999999999998</ele>
<time>2023-05-17T13:55:40Z</time>
</trkpt>
<trkpt lat="49.25356197170913" lon="8.196297995746136">
<ele>150.39999999999998</ele>
<time>2023-05-17T13:55:41Z</time>
</trkpt>
<trkpt lat="49.25362491980195" lon="8.196272933855653">
<ele>150.39999999999998</ele>
<time>2023-05-17T13:55:42Z</time>
</trkpt>
<trkpt lat="49.25368493422866" lon="8.196252984926105">
<ele>150.39999999999998</ele>
<time>2023-05-17T13:55:43Z</time>
</trkpt>
<trkpt lat="49.25374696031213" lon="8.196229934692383">
<ele>150.39999999999998</ele>
<time>2023-05-17T13:55:44Z</time>
</trkpt>
<trkpt lat="49.253806974738836" lon="8.196207974106073">
<ele>150.39999999999998</ele>
<time>2023-05-17T13:55:45Z</time>
</trkpt>
<trkpt lat="49.25386296585202" lon="8.196184923872352">
<ele>150.39999999999998</ele>
<time>2023-05-17T13:55:46Z</time>
</trkpt>
<trkpt lat="49.25391996279359" lon="8.196162963286042">
<ele>150.39999999999998</ele>
<time>2023-05-17T13:55:47Z</time>
</trkpt>
<trkpt lat="49.253977965563536" lon="8.196141924709082">
<ele>150.39999999999998</ele>
<time>2023-05-17T13:55:48Z</time>
</trkpt>
<trkpt lat="49.254037979990244" lon="8.196119964122772">
<ele>150.20000000000005</ele>
<time>2023-05-17T13:55:49Z</time>
</trkpt>
<trkpt lat="49.25409992225468" lon="8.196096997708082">
<ele>150.20000000000005</ele>
<time>2023-05-17T13:55:50Z</time>
</trkpt>
<trkpt lat="49.25416194833815" lon="8.1960719358176">
<ele>150.20000000000005</ele>
<time>2023-05-17T13:55:51Z</time>
</trkpt>
<trkpt lat="49.25422296859324" lon="8.196044946089387">
<ele>150.20000000000005</ele>
<time>2023-05-17T13:55:52Z</time>
</trkpt>
<trkpt lat="49.25428298301995" lon="8.196017956361175">
<ele>150</ele>
<time>2023-05-17T13:55:53Z</time>
</trkpt>
<trkpt lat="49.254342997446656" lon="8.195997923612595">
<ele>149.79999999999995</ele>
<time>2023-05-17T13:55:54Z</time>
</trkpt>
<trkpt lat="49.25439999438822" lon="8.195977974683046">
<ele>149.60000000000002</ele>
<time>2023-05-17T13:55:55Z</time>
</trkpt>
<trkpt lat="49.254449950531125" lon="8.195956936106086">
<ele>149.39999999999998</ele>
<time>2023-05-17T13:55:56Z</time>
</trkpt>
<trkpt lat="49.2544979788363" lon="8.195931958034635">
<ele>149.20000000000005</ele>
<time>2023-05-17T13:55:57Z</time>
</trkpt>
<trkpt lat="49.25453293137252" lon="8.195897927507758">
<ele>149</ele>
<time>2023-05-17T13:55:58Z</time>
</trkpt>
<trkpt lat="49.254554975777864" lon="8.195844953879714">
<ele>148.60000000000002</ele>
<time>2023-05-17T13:55:59Z</time>
</trkpt>
<trkpt lat="49.25456293858588" lon="8.195784939453006">
<ele>148.60000000000002</ele>
<time>2023-05-17T13:56:00Z</time>
</trkpt>
<trkpt lat="49.25456495024264" lon="8.195726936683059">
<ele>148.39999999999998</ele>
<time>2023-05-17T13:56:01Z</time>
</trkpt>
<trkpt lat="49.2545619327575" lon="8.195669939741492">
<ele>148.39999999999998</ele>
<time>2023-05-17T13:56:02Z</time>
</trkpt>
<trkpt lat="49.2545619327575" lon="8.195614954456687">
<ele>148.20000000000005</ele>
<time>2023-05-17T13:56:03Z</time>
</trkpt>
<trkpt lat="49.2545619327575" lon="8.195564998313785">
<ele>148.20000000000005</ele>
<time>2023-05-17T13:56:04Z</time>
</trkpt>
<trkpt lat="49.2545669618994" lon="8.19551495835185">
<ele>148.20000000000005</ele>
<time>2023-05-17T13:56:05Z</time>
</trkpt>
<trkpt lat="49.25456796772778" lon="8.195466930046678">
<ele>148.20000000000005</ele>
<time>2023-05-17T13:56:06Z</time>
</trkpt>
<trkpt lat="49.2545719910413" lon="8.195421919226646">
<ele>148.20000000000005</ele>
<time>2023-05-17T13:56:07Z</time>
</trkpt>
<trkpt lat="49.25457299686968" lon="8.195376992225647">
<ele>148.20000000000005</ele>
<time>2023-05-17T13:56:08Z</time>
</trkpt>
<trkpt lat="49.254577942192554" lon="8.195339944213629">
<ele>148.20000000000005</ele>
<time>2023-05-17T13:56:09Z</time>
</trkpt>
<trkpt lat="49.25458498299122" lon="8.195309937000275">
<ele>148.20000000000005</ele>
<time>2023-05-17T13:56:10Z</time>
</trkpt>
<trkpt lat="49.25458791665733" lon="8.195291999727488">
<ele>148.20000000000005</ele>
<time>2023-05-17T13:56:11Z</time>
</trkpt>
<trkpt lat="49.25458699464798" lon="8.195282947272062">
<ele>148.20000000000005</ele>
<time>2023-05-17T13:56:12Z</time>
</trkpt>
<trkpt lat="49.25458699464798" lon="8.195284958928823">
<ele>148.20000000000005</ele>
<time>2023-05-17T13:56:14Z</time>
</trkpt>
<trkpt lat="49.254602920264006" lon="8.19523198530078">
<ele>148.20000000000005</ele>
<time>2023-05-17T13:56:15Z</time>
</trkpt>
<trkpt lat="49.25460794940591" lon="8.195202983915806">
<ele>148.20000000000005</ele>
<time>2023-05-17T13:56:16Z</time>
</trkpt>
<trkpt lat="49.25461297854781" lon="8.19516995921731">
<ele>148.20000000000005</ele>
<time>2023-05-17T13:56:17Z</time>
</trkpt>
<trkpt lat="49.254619935527444" lon="8.195134922862053">
<ele>148.20000000000005</ele>
<time>2023-05-17T13:56:18Z</time>
</trkpt>
<trkpt lat="49.25462798215449" lon="8.195097958669066">
<ele>148.20000000000005</ele>
<time>2023-05-17T13:56:19Z</time>
</trkpt>
<trkpt lat="49.25463493913412" lon="8.19506292231381">
<ele>148.20000000000005</ele>
<time>2023-05-17T13:56:20Z</time>
</trkpt>
<trkpt lat="49.254641979932785" lon="8.195026963949203">
<ele>148.20000000000005</ele>
<time>2023-05-17T13:56:21Z</time>
</trkpt>
<trkpt lat="49.25464793108404" lon="8.194986982271075">
<ele>148.20000000000005</ele>
<time>2023-05-17T13:56:22Z</time>
</trkpt>
<trkpt lat="49.25465698353946" lon="8.194944988936186">
<ele>148.20000000000005</ele>
<time>2023-05-17T13:56:23Z</time>
</trkpt>
<trkpt lat="49.25465991720557" lon="8.194897966459394">
<ele>148.20000000000005</ele>
<time>2023-05-17T13:56:24Z</time>
</trkpt>
<trkpt lat="49.25465798936784" lon="8.19484993815422">
<ele>148.20000000000005</ele>
<time>2023-05-17T13:56:25Z</time>
</trkpt>
<trkpt lat="49.25465296022594" lon="8.194797970354557">
<ele>148.20000000000005</ele>
<time>2023-05-17T13:56:26Z</time>
</trkpt>
<trkpt lat="49.25464499741793" lon="8.194742985069752">
<ele>148.39999999999998</ele>
<time>2023-05-17T13:56:27Z</time>
</trkpt>
<trkpt lat="49.25463695079088" lon="8.194687999784946">
<ele>148.39999999999998</ele>
<time>2023-05-17T13:56:28Z</time>
</trkpt>
<trkpt lat="49.25462798215449" lon="8.194626979529858">
<ele>148.39999999999998</ele>
<time>2023-05-17T13:56:29Z</time>
</trkpt>
<trkpt lat="49.25461792387068" lon="8.194562941789627">
<ele>148.39999999999998</ele>
<time>2023-05-17T13:56:30Z</time>
</trkpt>
<trkpt lat="49.25460794940591" lon="8.194499993696809">
<ele>148.39999999999998</ele>
<time>2023-05-17T13:56:31Z</time>
</trkpt>
<trkpt lat="49.254596969112754" lon="8.194434950128198">
<ele>148.60000000000002</ele>
<time>2023-05-17T13:56:32Z</time>
</trkpt>
<trkpt lat="49.25458699464798" lon="8.194367978721857">
<ele>148.60000000000002</ele>
<time>2023-05-17T13:56:33Z</time>
</trkpt>
<trkpt lat="49.25457492470741" lon="8.194301929324865">
<ele>148.60000000000002</ele>
<time>2023-05-17T13:56:34Z</time>
</trkpt>
<trkpt lat="49.25456293858588" lon="8.194234957918525">
<ele>148.79999999999995</ele>
<time>2023-05-17T13:56:35Z</time>
</trkpt>
<trkpt lat="49.2545529641211" lon="8.194166980683804">
<ele>148.79999999999995</ele>
<time>2023-05-17T13:56:36Z</time>
</trkpt>
<trkpt lat="49.25454298965633" lon="8.194099925458431">
<ele>148.79999999999995</ele>
<time>2023-05-17T13:56:37Z</time>
</trkpt>
<trkpt lat="49.25453192554414" lon="8.19403295405209">
<ele>148.79999999999995</ele>
<time>2023-05-17T13:56:38Z</time>
</trkpt>
<trkpt lat="49.25452195107937" lon="8.19396497681737">
<ele>149</ele>
<time>2023-05-17T13:56:39Z</time>
</trkpt>
<trkpt lat="49.254511976614594" lon="8.193896999582648">
<ele>149</ele>
<time>2023-05-17T13:56:40Z</time>
</trkpt>
<trkpt lat="49.25449999049306" lon="8.193827932700515">
<ele>149.20000000000005</ele>
<time>2023-05-17T13:56:41Z</time>
</trkpt>
<trkpt lat="49.25448792055249" lon="8.193757943809032">
<ele>149.20000000000005</ele>
<time>2023-05-17T13:56:42Z</time>
</trkpt>
<trkpt lat="49.25447794608772" lon="8.193691978231072">
<ele>149.39999999999998</ele>
<time>2023-05-17T13:56:43Z</time>
</trkpt>
<trkpt lat="49.254469983279705" lon="8.19362299516797">
<ele>149.39999999999998</ele>
<time>2023-05-17T13:56:44Z</time>
</trkpt>
<trkpt lat="49.2544599249959" lon="8.193556945770979">
<ele>149.60000000000002</ele>
<time>2023-05-17T13:56:45Z</time>
</trkpt>
<trkpt lat="49.254447938874364" lon="8.1934919860214">
<ele>149.60000000000002</ele>
<time>2023-05-17T13:56:46Z</time>
</trkpt>
<trkpt lat="49.25443997606635" lon="8.193426942452788">
<ele>149.79999999999995</ele>
<time>2023-05-17T13:56:47Z</time>
</trkpt>
<trkpt lat="49.254431929439306" lon="8.19336298853159">
<ele>149.79999999999995</ele>
<time>2023-05-17T13:56:48Z</time>
</trkpt>
<trkpt lat="49.25442296080291" lon="8.1933019682765">
<ele>150</ele>
<time>2023-05-17T13:56:49Z</time>
</trkpt>
<trkpt lat="49.25441298633814" lon="8.193241953849792">
<ele>150</ele>
<time>2023-05-17T13:56:50Z</time>
</trkpt>
<trkpt lat="49.25440292805433" lon="8.193182945251465">
<ele>150.20000000000005</ele>
<time>2023-05-17T13:56:51Z</time>
</trkpt>
<trkpt lat="49.25439194776118" lon="8.193121924996376">
<ele>150.20000000000005</ele>
<time>2023-05-17T13:56:52Z</time>
</trkpt>
<trkpt lat="49.254381973296404" lon="8.193059982731938">
<ele>150.39999999999998</ele>
<time>2023-05-17T13:56:53Z</time>
</trkpt>
<trkpt lat="49.25437199883163" lon="8.192997956648469">
<ele>150.39999999999998</ele>
<time>2023-05-17T13:56:54Z</time>
</trkpt>
<trkpt lat="49.254362946376204" lon="8.192939953878522">
<ele>150.60000000000002</ele>
<time>2023-05-17T13:56:55Z</time>
</trkpt>
<trkpt lat="49.25435297191143" lon="8.192879939451814">
<ele>150.60000000000002</ele>
<time>2023-05-17T13:56:56Z</time>
</trkpt>
<trkpt lat="49.254342997446656" lon="8.192819925025105">
<ele>150.79999999999995</ele>
<time>2023-05-17T13:56:57Z</time>
</trkpt>
<trkpt lat="49.25433495081961" lon="8.192761922255158">
<ele>150.79999999999995</ele>
<time>2023-05-17T13:56:58Z</time>
</trkpt>
<trkpt lat="49.254322964698076" lon="8.192701991647482">
<ele>151</ele>
<time>2023-05-17T13:56:59Z</time>
</trkpt>
<trkpt lat="49.25431198440492" lon="8.192641977220774">
<ele>151</ele>
<time>2023-05-17T13:57:00Z</time>
</trkpt>
<trkpt lat="49.254301926121116" lon="8.192579951137304">
<ele>151.20000000000005</ele>
<time>2023-05-17T13:57:01Z</time>
</trkpt>
<trkpt lat="49.25429195165634" lon="8.192517925053835">
<ele>151.20000000000005</ele>
<time>2023-05-17T13:57:02Z</time>
</trkpt>
<trkpt lat="49.25428298301995" lon="8.192456988617778">
<ele>151.39999999999998</ele>
<time>2023-05-17T13:57:03Z</time>
</trkpt>
<trkpt lat="49.2542749363929" lon="8.192394962534308">
<ele>151.39999999999998</ele>
<time>2023-05-17T13:57:04Z</time>
</trkpt>
<trkpt lat="49.25426797941327" lon="8.1923349481076">
<ele>151.39999999999998</ele>
<time>2023-05-17T13:57:05Z</time>
</trkpt>
<trkpt lat="49.254259932786226" lon="8.19227292202413">
<ele>151.60000000000002</ele>
<time>2023-05-17T13:57:06Z</time>
</trkpt>
<trkpt lat="49.25425196997821" lon="8.192212991416454">
<ele>151.60000000000002</ele>
<time>2023-05-17T13:57:07Z</time>
</trkpt>
<trkpt lat="49.25423998385668" lon="8.192152976989746">
<ele>151.79999999999995</ele>
<time>2023-05-17T13:57:08Z</time>
</trkpt>
<trkpt lat="49.25422992557287" lon="8.192091956734657">
<ele>152</ele>
<time>2023-05-17T13:57:09Z</time>
</trkpt>
<trkpt lat="49.2542199511081" lon="8.192027918994427">
<ele>152</ele>
<time>2023-05-17T13:57:10Z</time>
</trkpt>
<trkpt lat="49.254211988300085" lon="8.19196698255837">
<ele>152.20000000000005</ele>
<time>2023-05-17T13:57:11Z</time>
</trkpt>
<trkpt lat="49.25420293584466" lon="8.191902944818139">
<ele>152.20000000000005</ele>
<time>2023-05-17T13:57:12Z</time>
</trkpt>
<trkpt lat="49.254192961379886" lon="8.191844942048192">
<ele>152.39999999999998</ele>
<time>2023-05-17T13:57:13Z</time>
</trkpt>
<trkpt lat="49.25418499857187" lon="8.191786939278245">
<ele>152.39999999999998</ele>
<time>2023-05-17T13:57:14Z</time>
</trkpt>
<trkpt lat="49.25417494028807" lon="8.191729942336679">
<ele>152.60000000000002</ele>
<time>2023-05-17T13:57:15Z</time>
</trkpt>
<trkpt lat="49.25416496582329" lon="8.191674957051873">
<ele>152.60000000000002</ele>
<time>2023-05-17T13:57:16Z</time>
</trkpt>
<trkpt lat="49.25415499135852" lon="8.19162298925221">
<ele>152.79999999999995</ele>
<time>2023-05-17T13:57:17Z</time>
</trkpt>
<trkpt lat="49.25415197387338" lon="8.191574960947037">
<ele>152.79999999999995</ele>
<time>2023-05-17T13:57:18Z</time>
</trkpt>
<trkpt lat="49.25415691919625" lon="8.191529950127006">
<ele>153</ele>
<time>2023-05-17T13:57:19Z</time>
</trkpt>
<trkpt lat="49.254169994965196" lon="8.19149499759078">
<ele>153</ele>
<time>2023-05-17T13:57:20Z</time>
</trkpt>
<trkpt lat="49.254192961379886" lon="8.191467924043536">
<ele>153.20000000000005</ele>
<time>2023-05-17T13:57:21Z</time>
</trkpt>
<trkpt lat="49.25422196276486" lon="8.191449986770749">
<ele>153.20000000000005</ele>
<time>2023-05-17T13:57:22Z</time>
</trkpt>
<trkpt lat="49.254252975806594" lon="8.191441940143704">
<ele>153.39999999999998</ele>
<time>2023-05-17T13:57:23Z</time>
</trkpt>
<trkpt lat="49.25428692251444" lon="8.191437916830182">
<ele>153.39999999999998</ele>
<time>2023-05-17T13:57:24Z</time>
</trkpt>
<trkpt lat="49.254321958869696" lon="8.19143196567893">
<ele>153.39999999999998</ele>
<time>2023-05-17T13:57:25Z</time>
</trkpt>
<trkpt lat="49.25435498356819" lon="8.191416962072253">
<ele>153.39999999999998</ele>
<time>2023-05-17T13:57:26Z</time>
</trkpt>
<trkpt lat="49.25439295358956" lon="8.191399946808815">
<ele>153.39999999999998</ele>
<time>2023-05-17T13:57:27Z</time>
</trkpt>
<trkpt lat="49.25443494692445" lon="8.191384943202138">
<ele>153.39999999999998</ele>
<time>2023-05-17T13:57:28Z</time>
</trkpt>
<trkpt lat="49.25447995774448" lon="8.191369939595461">
<ele>153.20000000000005</ele>
<time>2023-05-17T13:57:29Z</time>
</trkpt>
<trkpt lat="49.25452798604965" lon="8.191352924332023">
<ele>153.20000000000005</ele>
<time>2023-05-17T13:57:30Z</time>
</trkpt>
<trkpt lat="49.254577942192554" lon="8.191337920725346">
<ele>153</ele>
<time>2023-05-17T13:57:31Z</time>
</trkpt>
<trkpt lat="49.25462999381125" lon="8.191322917118669">
<ele>153</ele>
<time>2023-05-17T13:57:32Z</time>
</trkpt>
<trkpt lat="49.254684979096055" lon="8.191306991502643">
<ele>153</ele>
<time>2023-05-17T13:57:33Z</time>
</trkpt>
<trkpt lat="49.2547379527241" lon="8.191287964582443">
<ele>152.79999999999995</ele>
<time>2023-05-17T13:57:34Z</time>
</trkpt>
<trkpt lat="49.25479696132243" lon="8.191269943490624">
<ele>152.79999999999995</ele>
<time>2023-05-17T13:57:35Z</time>
</trkpt>
<trkpt lat="49.254856975749135" lon="8.191249994561076">
<ele>152.60000000000002</ele>
<time>2023-05-17T13:57:36Z</time>
</trkpt>
<trkpt lat="49.25491992384195" lon="8.191227950155735">
<ele>152.39999999999998</ele>
<time>2023-05-17T13:57:37Z</time>
</trkpt>
<trkpt lat="49.254986979067326" lon="8.191204983741045">
<ele>152</ele>
<time>2023-05-17T13:57:38Z</time>
</trkpt>
<trkpt lat="49.25505495630205" lon="8.191179921850562">
<ele>151.79999999999995</ele>
<time>2023-05-17T13:57:39Z</time>
</trkpt>
<trkpt lat="49.25512494519353" lon="8.191154943779111">
<ele>151.39999999999998</ele>
<time>2023-05-17T13:57:40Z</time>
</trkpt>
<trkpt lat="49.25519292242825" lon="8.19112996570766">
<ele>151.20000000000005</ele>
<time>2023-05-17T13:57:41Z</time>
</trkpt>
<trkpt lat="49.255264922976494" lon="8.191107921302319">
<ele>150.79999999999995</ele>
<time>2023-05-17T13:57:42Z</time>
</trkpt>
<trkpt lat="49.25533792935312" lon="8.191082943230867">
<ele>150.39999999999998</ele>
<time>2023-05-17T13:57:43Z</time>
</trkpt>
<trkpt lat="49.25541194155812" lon="8.191056959331036">
<ele>150.20000000000005</ele>
<time>2023-05-17T13:57:44Z</time>
</trkpt>
<trkpt lat="49.255479918792844" lon="8.191029969602823">
<ele>149.79999999999995</ele>
<time>2023-05-17T13:57:45Z</time>
</trkpt>
<trkpt lat="49.25555292516947" lon="8.191002979874611">
<ele>149.39999999999998</ele>
<time>2023-05-17T13:57:46Z</time>
</trkpt>
<trkpt lat="49.25562299787998" lon="8.190977917984128">
<ele>149.20000000000005</ele>
<time>2023-05-17T13:57:47Z</time>
</trkpt>
<trkpt lat="49.255691980943084" lon="8.190952939912677">
<ele>148.79999999999995</ele>
<time>2023-05-17T13:57:48Z</time>
</trkpt>
<trkpt lat="49.255759958177805" lon="8.190932990983129">
<ele>148.39999999999998</ele>
<time>2023-05-17T13:57:49Z</time>
</trkpt>
<trkpt lat="49.255821984261274" lon="8.190906923264265">
<ele>148</ele>
<time>2023-05-17T13:57:50Z</time>
</trkpt>
<trkpt lat="49.255886944010854" lon="8.190879933536053">
<ele>147.60000000000002</ele>
<time>2023-05-17T13:57:51Z</time>
</trkpt>
<trkpt lat="49.255954921245575" lon="8.19085193797946">
<ele>147.20000000000005</ele>
<time>2023-05-17T13:57:52Z</time>
</trkpt>
<trkpt lat="49.25602499395609" lon="8.190821930766106">
<ele>146.79999999999995</ele>
<time>2023-05-17T13:57:53Z</time>
</trkpt>
<trkpt lat="49.25609196536243" lon="8.190796952694654">
<ele>146.39999999999998</ele>
<time>2023-05-17T13:57:54Z</time>
</trkpt>
<trkpt lat="49.25615197978914" lon="8.190771974623203">
<ele>146</ele>
<time>2023-05-17T13:57:55Z</time>
</trkpt>
<trkpt lat="49.256211994215846" lon="8.19074297323823">
<ele>145.60000000000002</ele>
<time>2023-05-17T13:57:56Z</time>
</trkpt>
<trkpt lat="49.25626999698579" lon="8.19072193466127">
<ele>145.20000000000005</ele>
<time>2023-05-17T13:57:57Z</time>
</trkpt>
<trkpt lat="49.25632992759347" lon="8.19069997407496">
<ele>144.79999999999995</ele>
<time>2023-05-17T13:57:58Z</time>
</trkpt>
<trkpt lat="49.25638994202018" lon="8.190681952983141">
<ele>144.39999999999998</ele>
<time>2023-05-17T13:57:59Z</time>
</trkpt>
<trkpt lat="49.256446938961744" lon="8.190661920234561">
<ele>144</ele>
<time>2023-05-17T13:58:00Z</time>
</trkpt>
<trkpt lat="49.25649999640882" lon="8.190642977133393">
<ele>143.60000000000002</ele>
<time>2023-05-17T13:58:01Z</time>
</trkpt>
<trkpt lat="49.25654492340982" lon="8.190627973526716">
<ele>143.20000000000005</ele>
<time>2023-05-17T13:58:02Z</time>
</trkpt>
<trkpt lat="49.25658792257309" lon="8.190609952434897">
<ele>143</ele>
<time>2023-05-17T13:58:03Z</time>
</trkpt>
<trkpt lat="49.25662798807025" lon="8.190584974363446">
<ele>142.60000000000002</ele>
<time>2023-05-17T13:58:04Z</time>
</trkpt>
<trkpt lat="49.256661934778094" lon="8.190541975200176">
<ele>142.39999999999998</ele>
<time>2023-05-17T13:58:05Z</time>
</trkpt>
<trkpt lat="49.256681967526674" lon="8.19048497825861">
<ele>142</ele>
<time>2023-05-17T13:58:06Z</time>
</trkpt>
<trkpt lat="49.25668993033469" lon="8.19042194634676">
<ele>141.79999999999995</ele>
<time>2023-05-17T13:58:07Z</time>
</trkpt>
<trkpt lat="49.25668699666858" lon="8.190352963283658">
<ele>141.39999999999998</ele>
<time>2023-05-17T13:58:08Z</time>
</trkpt>
<trkpt lat="49.25667492672801" lon="8.190282974392176">
<ele>141.20000000000005</ele>
<time>2023-05-17T13:58:09Z</time>
</trkpt>
<trkpt lat="49.25665992312133" lon="8.190211979672313">
<ele>141</ele>
<time>2023-05-17T13:58:10Z</time>
</trkpt>
<trkpt lat="49.256644919514656" lon="8.19013997912407">
<ele>140.79999999999995</ele>
<time>2023-05-17T13:58:11Z</time>
</trkpt>
<trkpt lat="49.25663293339312" lon="8.190066972747445">
<ele>140.60000000000002</ele>
<time>2023-05-17T13:58:12Z</time>
</trkpt>
<trkpt lat="49.256621953099966" lon="8.18999296054244">
<ele>140.60000000000002</ele>
<time>2023-05-17T13:58:13Z</time>
</trkpt>
<trkpt lat="49.25661197863519" lon="8.189922971650958">
<ele>140.39999999999998</ele>
<time>2023-05-17T13:58:14Z</time>
</trkpt>
<trkpt lat="49.25659999251366" lon="8.189854994416237">
<ele>140.39999999999998</ele>
<time>2023-05-17T13:58:15Z</time>
</trkpt>
<trkpt lat="49.25658792257309" lon="8.189786933362484">
<ele>140.20000000000005</ele>
<time>2023-05-17T13:58:16Z</time>
</trkpt>
<trkpt lat="49.256577948108315" lon="8.189717950299382">
<ele>140.20000000000005</ele>
<time>2023-05-17T13:58:17Z</time>
</trkpt>
<trkpt lat="49.2565699853003" lon="8.189652990549803">
<ele>140.20000000000005</ele>
<time>2023-05-17T13:58:18Z</time>
</trkpt>
<trkpt lat="49.25656193867326" lon="8.189591970294714">
<ele>140</ele>
<time>2023-05-17T13:58:19Z</time>
</trkpt>
<trkpt lat="49.25655699335039" lon="8.189532961696386">
<ele>140</ele>
<time>2023-05-17T13:58:20Z</time>
</trkpt>
<trkpt lat="49.256554981693625" lon="8.18947495892644">
<ele>140</ele>
<time>2023-05-17T13:58:21Z</time>
</trkpt>
<trkpt lat="49.25656294450164" lon="8.189414944499731">
<ele>139.79999999999995</ele>
<time>2023-05-17T13:58:22Z</time>
</trkpt>
<trkpt lat="49.25658498890698" lon="8.189356941729784">
<ele>139.79999999999995</ele>
<time>2023-05-17T13:58:23Z</time>
</trkpt>
<trkpt lat="49.256617929786444" lon="8.189309919252992">
<ele>139.60000000000002</ele>
<time>2023-05-17T13:58:24Z</time>
</trkpt>
<trkpt lat="49.256661934778094" lon="8.18928494118154">
<ele>139.60000000000002</ele>
<time>2023-05-17T13:58:25Z</time>
</trkpt>
<trkpt lat="49.256707951426506" lon="8.189271949231625">
<ele>139.60000000000002</ele>
<time>2023-05-17T13:58:26Z</time>
</trkpt>
<trkpt lat="49.2567549739033" lon="8.189257951453328">
<ele>139.39999999999998</ele>
<time>2023-05-17T13:58:27Z</time>
</trkpt>
<trkpt lat="49.25680291838944" lon="8.18924194201827">
<ele>139.39999999999998</ele>
<time>2023-05-17T13:58:28Z</time>
</trkpt>
<trkpt lat="49.256856981664896" lon="8.189221993088722">
<ele>139.20000000000005</ele>
<time>2023-05-17T13:58:29Z</time>
</trkpt>
<trkpt lat="49.25690794363618" lon="8.189202966168523">
<ele>139.20000000000005</ele>
<time>2023-05-17T13:58:30Z</time>
</trkpt>
<trkpt lat="49.25695798359811" lon="8.189184945076704">
<ele>139.20000000000005</ele>
<time>2023-05-17T13:58:31Z</time>
</trkpt>
<trkpt lat="49.25700995139778" lon="8.189164996147156">
<ele>139.20000000000005</ele>
<time>2023-05-17T13:58:32Z</time>
</trkpt>
<trkpt lat="49.25705797970295" lon="8.189147980883718">
<ele>139</ele>
<time>2023-05-17T13:58:33Z</time>
</trkpt>
<trkpt lat="49.25710994750261" lon="8.189129959791899">
<ele>139</ele>
<time>2023-05-17T13:58:34Z</time>
</trkpt>
<trkpt lat="49.25716292113066" lon="8.189109927043319">
<ele>139</ele>
<time>2023-05-17T13:58:35Z</time>
</trkpt>
<trkpt lat="49.25721497274935" lon="8.18908997811377">
<ele>139</ele>
<time>2023-05-17T13:58:36Z</time>
</trkpt>
<trkpt lat="49.2572679463774" lon="8.18906994536519">
<ele>139</ele>
<time>2023-05-17T13:58:37Z</time>
</trkpt>
<trkpt lat="49.25731999799609" lon="8.189051924273372">
<ele>138.79999999999995</ele>
<time>2023-05-17T13:58:38Z</time>
</trkpt>
<trkpt lat="49.257371965795755" lon="8.189032981172204">
<ele>138.79999999999995</ele>
<time>2023-05-17T13:58:39Z</time>
</trkpt>
<trkpt lat="49.25742192193866" lon="8.189014960080385">
<ele>138.79999999999995</ele>
<time>2023-05-17T13:58:40Z</time>
</trkpt>
<trkpt lat="49.25746995024383" lon="8.188996938988566">
<ele>138.79999999999995</ele>
<time>2023-05-17T13:58:41Z</time>
</trkpt>
<trkpt lat="49.257517978549004" lon="8.188977995887399">
<ele>138.79999999999995</ele>
<time>2023-05-17T13:58:42Z</time>
</trkpt>
<trkpt lat="49.257564917206764" lon="8.188961986452341">
<ele>138.79999999999995</ele>
<time>2023-05-17T13:58:43Z</time>
</trkpt>
<trkpt lat="49.25761193968356" lon="8.188944971188903">
<ele>138.79999999999995</ele>
<time>2023-05-17T13:58:44Z</time>
</trkpt>
<trkpt lat="49.25765695050359" lon="8.188926950097084">
<ele>138.60000000000002</ele>
<time>2023-05-17T13:58:45Z</time>
</trkpt>
<trkpt lat="49.2576979380101" lon="8.188902977854013">
<ele>138.60000000000002</ele>
<time>2023-05-17T13:58:46Z</time>
</trkpt>
<trkpt lat="49.25773196853697" lon="8.188862996175885">
<ele>138.60000000000002</ele>
<time>2023-05-17T13:58:47Z</time>
</trkpt>
<trkpt lat="49.25774797797203" lon="8.188801975920796">
<ele>138.60000000000002</ele>
<time>2023-05-17T13:58:48Z</time>
</trkpt>
<trkpt lat="49.25774998962879" lon="8.18872494623065">
<ele>138.60000000000002</ele>
<time>2023-05-17T13:58:49Z</time>
</trkpt>
<trkpt lat="49.25775191746652" lon="8.188647916540504">
<ele>138.60000000000002</ele>
<time>2023-05-17T13:58:50Z</time>
</trkpt>
<trkpt lat="49.257756946608424" lon="8.188569964841008">
<ele>138.60000000000002</ele>
<time>2023-05-17T13:58:51Z</time>
</trkpt>
<trkpt lat="49.2577719502151" lon="8.188496958464384">
<ele>138.60000000000002</ele>
<time>2023-05-17T13:58:52Z</time>
</trkpt>
<trkpt lat="49.257801957428455" lon="8.188436944037676">
<ele>138.60000000000002</ele>
<time>2023-05-17T13:58:53Z</time>
</trkpt>
<trkpt lat="49.25783699378371" lon="8.188386987894773">
<ele>138.60000000000002</ele>
<time>2023-05-17T13:58:54Z</time>
</trkpt>
<trkpt lat="49.25787194631994" lon="8.18833694793284">
<ele>138.60000000000002</ele>
<time>2023-05-17T13:58:55Z</time>
</trkpt>
<trkpt lat="49.257907988503575" lon="8.188284980133176">
<ele>138.60000000000002</ele>
<time>2023-05-17T13:58:56Z</time>
</trkpt>
<trkpt lat="49.25794495269656" lon="8.18823292851448">
<ele>138.60000000000002</ele>
<time>2023-05-17T13:58:57Z</time>
</trkpt>
<trkpt lat="49.25797998905182" lon="8.18818498402834">
<ele>138.60000000000002</ele>
<time>2023-05-17T13:58:58Z</time>
</trkpt>
<trkpt lat="49.25801292993128" lon="8.188137961551547">
<ele>138.60000000000002</ele>
<time>2023-05-17T13:58:59Z</time>
</trkpt>
<trkpt lat="49.2580499779433" lon="8.188089933246374">
<ele>138.60000000000002</ele>
<time>2023-05-17T13:59:00Z</time>
</trkpt>
<trkpt lat="49.25808694213629" lon="8.188039977103472">
<ele>138.60000000000002</ele>
<time>2023-05-17T13:59:01Z</time>
</trkpt>
<trkpt lat="49.258121978491545" lon="8.18799295462668">
<ele>138.60000000000002</ele>
<time>2023-05-17T13:59:02Z</time>
</trkpt>
<trkpt lat="49.25815299153328" lon="8.187944926321507">
<ele>138.39999999999998</ele>
<time>2023-05-17T13:59:03Z</time>
</trkpt>
<trkpt lat="49.258187944069505" lon="8.187896981835365">
<ele>138.39999999999998</ele>
<time>2023-05-17T13:59:04Z</time>
</trkpt>
<trkpt lat="49.25822499208152" lon="8.187847947701812">
<ele>138.39999999999998</ele>
<time>2023-05-17T13:59:05Z</time>
</trkpt>
<trkpt lat="49.25826195627451" lon="8.187796985730529">
<ele>138.39999999999998</ele>
<time>2023-05-17T13:59:06Z</time>
</trkpt>
<trkpt lat="49.258294980973005" lon="8.187744934111834">
<ele>138.39999999999998</ele>
<time>2023-05-17T13:59:07Z</time>
</trkpt>
<trkpt lat="49.25832993350923" lon="8.187694977968931">
<ele>138.39999999999998</ele>
<time>2023-05-17T13:59:08Z</time>
</trkpt>
<trkpt lat="49.25836698152125" lon="8.187646949663758">
<ele>138.39999999999998</ele>
<time>2023-05-17T13:59:09Z</time>
</trkpt>
<trkpt lat="49.258402939885855" lon="8.187602944672108">
<ele>138.39999999999998</ele>
<time>2023-05-17T13:59:10Z</time>
</trkpt>
<trkpt lat="49.25843998789787" lon="8.187554916366935">
<ele>138.39999999999998</ele>
<time>2023-05-17T13:59:11Z</time>
</trkpt>
<trkpt lat="49.25847795791924" lon="8.187507977709174">
<ele>138.39999999999998</ele>
<time>2023-05-17T13:59:12Z</time>
</trkpt>
<trkpt lat="49.25851492211223" lon="8.187461961060762">
<ele>138.39999999999998</ele>
<time>2023-05-17T13:59:13Z</time>
</trkpt>
<trkpt lat="49.258551970124245" lon="8.187411921098828">
<ele>138.39999999999998</ele>
<time>2023-05-17T13:59:14Z</time>
</trkpt>
<trkpt lat="49.25858792848885" lon="8.187359953299165">
<ele>138.39999999999998</ele>
<time>2023-05-17T13:59:15Z</time>
</trkpt>
<trkpt lat="49.25862497650087" lon="8.18730697967112">
<ele>138.39999999999998</ele>
<time>2023-05-17T13:59:16Z</time>
</trkpt>
<trkpt lat="49.258661940693855" lon="8.187251994386315">
<ele>138.60000000000002</ele>
<time>2023-05-17T13:59:17Z</time>
</trkpt>
<trkpt lat="49.25870192237198" lon="8.187196925282478">
<ele>138.60000000000002</ele>
<time>2023-05-17T13:59:18Z</time>
</trkpt>
<trkpt lat="49.25873997621238" lon="8.187142945826054">
<ele>138.60000000000002</ele>
<time>2023-05-17T13:59:19Z</time>
</trkpt>
<trkpt lat="49.25877995789051" lon="8.187087960541248">
<ele>138.60000000000002</ele>
<time>2023-05-17T13:59:20Z</time>
</trkpt>
<trkpt lat="49.25881792791188" lon="8.187034986913204">
<ele>138.60000000000002</ele>
<time>2023-05-17T13:59:21Z</time>
</trkpt>
<trkpt lat="49.25885799340904" lon="8.18698494695127">
<ele>138.60000000000002</ele>
<time>2023-05-17T13:59:22Z</time>
</trkpt>
<trkpt lat="49.258896969258785" lon="8.186937924474478">
<ele>138.60000000000002</ele>
<time>2023-05-17T13:59:23Z</time>
</trkpt>
<trkpt lat="49.258937956765294" lon="8.186894925311208">
<ele>138.60000000000002</ele>
<time>2023-05-17T13:59:24Z</time>
</trkpt>
<trkpt lat="49.25897995010018" lon="8.186851926147938">
<ele>138.60000000000002</ele>
<time>2023-05-17T13:59:25Z</time>
</trkpt>
<trkpt lat="49.25902294926345" lon="8.18681194446981">
<ele>138.60000000000002</ele>
<time>2023-05-17T13:59:26Z</time>
</trkpt>
<trkpt lat="49.259067960083485" lon="8.186777997761965">
<ele>138.60000000000002</ele>
<time>2023-05-17T13:59:27Z</time>
</trkpt>
<trkpt lat="49.25911498256028" lon="8.18674799054861">
<ele>138.60000000000002</ele>
<time>2023-05-17T13:59:28Z</time>
</trkpt>
<trkpt lat="49.25916192121804" lon="8.186724940314889">
<ele>138.60000000000002</ele>
<time>2023-05-17T13:59:29Z</time>
</trkpt>
<trkpt lat="49.25920492038131" lon="8.186697950586677">
<ele>138.60000000000002</ele>
<time>2023-05-17T13:59:30Z</time>
</trkpt>
<trkpt lat="49.25924791954458" lon="8.186671966686845">
<ele>138.60000000000002</ele>
<time>2023-05-17T13:59:31Z</time>
</trkpt>
<trkpt lat="49.25929293036461" lon="8.186651933938265">
<ele>138.60000000000002</ele>
<time>2023-05-17T13:59:32Z</time>
</trkpt>
<trkpt lat="49.25933794118464" lon="8.186632990837097">
<ele>138.60000000000002</ele>
<time>2023-05-17T13:59:33Z</time>
</trkpt>
<trkpt lat="49.25938194617629" lon="8.186612958088517">
<ele>138.60000000000002</ele>
<time>2023-05-17T13:59:34Z</time>
</trkpt>
<trkpt lat="49.25941991619766" lon="8.186586974188685">
<ele>138.60000000000002</ele>
<time>2023-05-17T13:59:35Z</time>
</trkpt>
<trkpt lat="49.259457970038056" lon="8.186561996117234">
<ele>138.60000000000002</ele>
<time>2023-05-17T13:59:36Z</time>
</trkpt>
<trkpt lat="49.25949493423104" lon="8.186541963368654">
<ele>138.39999999999998</ele>
<time>2023-05-17T13:59:37Z</time>
</trkpt>
<trkpt lat="49.25953298807144" lon="8.186524948105216">
<ele>138.39999999999998</ele>
<time>2023-05-17T13:59:38Z</time>
</trkpt>
<trkpt lat="49.25957498140633" lon="8.186506927013397">
<ele>138.39999999999998</ele>
<time>2023-05-17T13:59:39Z</time>
</trkpt>
<trkpt lat="49.25961697474122" lon="8.18648798391223">
<ele>138.39999999999998</ele>
<time>2023-05-17T13:59:40Z</time>
</trkpt>
<trkpt lat="49.25966198556125" lon="8.18646795116365">
<ele>138.39999999999998</ele>
<time>2023-05-17T13:59:41Z</time>
</trkpt>
<trkpt lat="49.25970791839063" lon="8.18644993007183">
<ele>138.39999999999998</ele>
<time>2023-05-17T13:59:42Z</time>
</trkpt>
<trkpt lat="49.259757958352566" lon="8.186436938121915">
<ele>138.39999999999998</ele>
<time>2023-05-17T13:59:43Z</time>
</trkpt>
<trkpt lat="49.25980699248612" lon="8.186422940343618">
<ele>138.39999999999998</ele>
<time>2023-05-17T13:59:44Z</time>
</trkpt>
<trkpt lat="49.25985694862902" lon="8.186417995020747">
<ele>138.39999999999998</ele>
<time>2023-05-17T13:59:45Z</time>
</trkpt>
<trkpt lat="49.259909922257066" lon="8.186419922858477">
<ele>138.39999999999998</ele>
<time>2023-05-17T13:59:46Z</time>
</trkpt>
<trkpt lat="49.25996197387576" lon="8.186422940343618">
<ele>138.39999999999998</ele>
<time>2023-05-17T13:59:47Z</time>
</trkpt>
<trkpt lat="49.260012935847044" lon="8.18642495200038">
<ele>138.39999999999998</ele>
<time>2023-05-17T13:59:48Z</time>
</trkpt>
<trkpt lat="49.2600669991225" lon="8.18642495200038">
<ele>138.39999999999998</ele>
<time>2023-05-17T13:59:49Z</time>
</trkpt>
<trkpt lat="49.26011796109378" lon="8.186422940343618">
<ele>138.39999999999998</ele>
<time>2023-05-17T13:59:50Z</time>
</trkpt>
<trkpt lat="49.26016992889345" lon="8.186417995020747">
<ele>138.39999999999998</ele>
<time>2023-05-17T13:59:51Z</time>
</trkpt>
<trkpt lat="49.26022198051214" lon="8.186411960050464">
<ele>138.60000000000002</ele>
<time>2023-05-17T13:59:52Z</time>
</trkpt>
<trkpt lat="49.260272942483425" lon="8.18640299141407">
<ele>138.60000000000002</ele>
<time>2023-05-17T13:59:53Z</time>
</trkpt>
<trkpt lat="49.26032499410212" lon="8.186392933130264">
<ele>138.60000000000002</ele>
<time>2023-05-17T13:59:54Z</time>
</trkpt>
<trkpt lat="49.26037293858826" lon="8.186379941180348">
<ele>138.60000000000002</ele>
<time>2023-05-17T13:59:55Z</time>
</trkpt>
<trkpt lat="49.260422978550196" lon="8.186366949230433">
<ele>138.60000000000002</ele>
<time>2023-05-17T13:59:56Z</time>
</trkpt>
<trkpt lat="49.26047192886472" lon="8.186351945623755">
<ele>138.60000000000002</ele>
<time>2023-05-17T13:59:57Z</time>
</trkpt>
<trkpt lat="49.26051995716989" lon="8.186334930360317">
<ele>138.60000000000002</ele>
<time>2023-05-17T13:59:58Z</time>
</trkpt>
<trkpt lat="49.26056798547506" lon="8.18631699308753">
<ele>138.60000000000002</ele>
<time>2023-05-17T13:59:59Z</time>
</trkpt>
<trkpt lat="49.260614924132824" lon="8.186299977824092">
<ele>138.60000000000002</ele>
<time>2023-05-17T14:00:00Z</time>
</trkpt>
<trkpt lat="49.260662952438" lon="8.186281956732273">
<ele>138.60000000000002</ele>
<time>2023-05-17T14:00:01Z</time>
</trkpt>
<trkpt lat="49.26070997491479" lon="8.186262929812074">
<ele>138.79999999999995</ele>
<time>2023-05-17T14:00:02Z</time>
</trkpt>
<trkpt lat="49.26075498573482" lon="8.186242980882525">
<ele>138.79999999999995</ele>
<time>2023-05-17T14:00:03Z</time>
</trkpt>
<trkpt lat="49.26079999655485" lon="8.186222948133945">
<ele>138.79999999999995</ele>
<time>2023-05-17T14:00:04Z</time>
</trkpt>
<trkpt lat="49.26084492355585" lon="8.186201993376017">
<ele>139</ele>
<time>2023-05-17T14:00:05Z</time>
</trkpt>
<trkpt lat="49.26088993437588" lon="8.186179948970675">
<ele>139</ele>
<time>2023-05-17T14:00:06Z</time>
</trkpt>
<trkpt lat="49.26093293353915" lon="8.186156982555985">
<ele>139</ele>
<time>2023-05-17T14:00:07Z</time>
</trkpt>
<trkpt lat="49.2609769385308" lon="8.186131920665503">
<ele>139</ele>
<time>2023-05-17T14:00:08Z</time>
</trkpt>
<trkpt lat="49.261021949350834" lon="8.186106942594051">
<ele>139</ele>
<time>2023-05-17T14:00:09Z</time>
</trkpt>
<trkpt lat="49.261064948514104" lon="8.186077941209078">
<ele>139</ele>
<time>2023-05-17T14:00:10Z</time>
</trkpt>
<trkpt lat="49.261109959334135" lon="8.186046928167343">
<ele>139.20000000000005</ele>
<time>2023-05-17T14:00:11Z</time>
</trkpt>
<trkpt lat="49.261151952669024" lon="8.186012981459498">
<ele>139.20000000000005</ele>
<time>2023-05-17T14:00:12Z</time>
</trkpt>
<trkpt lat="49.26119294017553" lon="8.185979956761003">
<ele>139.20000000000005</ele>
<time>2023-05-17T14:00:13Z</time>
</trkpt>
<trkpt lat="49.26122998818755" lon="8.185942992568016">
<ele>139.20000000000005</ele>
<time>2023-05-17T14:00:14Z</time>
</trkpt>
<trkpt lat="49.26126695238054" lon="8.185904938727617">
<ele>139.20000000000005</ele>
<time>2023-05-17T14:00:15Z</time>
</trkpt>
<trkpt lat="49.261299977079034" lon="8.185862945392728">
<ele>139.20000000000005</ele>
<time>2023-05-17T14:00:16Z</time>
</trkpt>
<trkpt lat="49.26133492961526" lon="8.1858229637146">
<ele>139.39999999999998</ele>
<time>2023-05-17T14:00:17Z</time>
</trkpt>
<trkpt lat="49.26137298345566" lon="8.185782982036471">
<ele>139.39999999999998</ele>
<time>2023-05-17T14:00:18Z</time>
</trkpt>
<trkpt lat="49.261412965133786" lon="8.185741994529963">
<ele>139.39999999999998</ele>
<time>2023-05-17T14:00:19Z</time>
</trkpt>
<trkpt lat="49.261451940983534" lon="8.185707964003086">
<ele>139.39999999999998</ele>
<time>2023-05-17T14:00:20Z</time>
</trkpt>
<trkpt lat="49.26149192266166" lon="8.185676950961351">
<ele>139.60000000000002</ele>
<time>2023-05-17T14:00:21Z</time>
</trkpt>
<trkpt lat="49.26152997650206" lon="8.185646943747997">
<ele>139.60000000000002</ele>
<time>2023-05-17T14:00:22Z</time>
</trkpt>
<trkpt lat="49.26157196983695" lon="8.185617942363024">
<ele>139.60000000000002</ele>
<time>2023-05-17T14:00:23Z</time>
</trkpt>
<trkpt lat="49.26161496900022" lon="8.185594975948334">
<ele>139.60000000000002</ele>
<time>2023-05-17T14:00:24Z</time>
</trkpt>
<trkpt lat="49.26165796816349" lon="8.185572931542993">
<ele>139.60000000000002</ele>
<time>2023-05-17T14:00:25Z</time>
</trkpt>
<trkpt lat="49.26170499064028" lon="8.185559939593077">
<ele>139.60000000000002</ele>
<time>2023-05-17T14:00:26Z</time>
</trkpt>
<trkpt lat="49.261752935126424" lon="8.185551976785064">
<ele>139.60000000000002</ele>
<time>2023-05-17T14:00:27Z</time>
</trkpt>
<trkpt lat="49.261799957603216" lon="8.185541918501258">
<ele>139.79999999999995</ele>
<time>2023-05-17T14:00:28Z</time>
</trkpt>
<trkpt lat="49.261842956766486" lon="8.185527920722961">
<ele>139.79999999999995</ele>
<time>2023-05-17T14:00:29Z</time>
</trkpt>
<trkpt lat="49.26188796758652" lon="8.185511995106936">
<ele>139.79999999999995</ele>
<time>2023-05-17T14:00:30Z</time>
</trkpt>
<trkpt lat="49.26193499006331" lon="8.185492968186736">
<ele>139.79999999999995</ele>
<time>2023-05-17T14:00:31Z</time>
</trkpt>
<trkpt lat="49.26198192872107" lon="8.185476958751678">
<ele>139.60000000000002</ele>
<time>2023-05-17T14:00:32Z</time>
</trkpt>
<trkpt lat="49.2620269395411" lon="8.185457931831479">
<ele>139.60000000000002</ele>
<time>2023-05-17T14:00:33Z</time>
</trkpt>
<trkpt lat="49.26207195036113" lon="8.185434965416789">
<ele>139.60000000000002</ele>
<time>2023-05-17T14:00:34Z</time>
</trkpt>
<trkpt lat="49.26211193203926" lon="8.185409987345338">
<ele>139.60000000000002</ele>
<time>2023-05-17T14:00:35Z</time>
</trkpt>
<trkpt lat="49.2621479742229" lon="8.185381991788745">
<ele>139.60000000000002</ele>
<time>2023-05-17T14:00:36Z</time>
</trkpt>
<trkpt lat="49.262182926759124" lon="8.18535198457539">
<ele>139.60000000000002</ele>
<time>2023-05-17T14:00:37Z</time>
</trkpt>
<trkpt lat="49.26221796311438" lon="8.185317954048514">
<ele>139.60000000000002</ele>
<time>2023-05-17T14:00:38Z</time>
</trkpt>
<trkpt lat="49.26225492730737" lon="8.18528794683516">
<ele>139.60000000000002</ele>
<time>2023-05-17T14:00:39Z</time>
</trkpt>
<trkpt lat="49.26229499280453" lon="8.185261962935328">
<ele>139.60000000000002</ele>
<time>2023-05-17T14:00:40Z</time>
</trkpt>
<trkpt lat="49.262334974482656" lon="8.185239918529987">
<ele>139.60000000000002</ele>
<time>2023-05-17T14:00:41Z</time>
</trkpt>
<trkpt lat="49.26237998530269" lon="8.185226926580071">
<ele>139.60000000000002</ele>
<time>2023-05-17T14:00:42Z</time>
</trkpt>
<trkpt lat="49.26242499612272" lon="8.1852219812572">
<ele>139.60000000000002</ele>
<time>2023-05-17T14:00:43Z</time>
</trkpt>
<trkpt lat="49.26246799528599" lon="8.1852219812572">
<ele>139.60000000000002</ele>
<time>2023-05-17T14:00:44Z</time>
</trkpt>
<trkpt lat="49.262507976964116" lon="8.185227932408452">
<ele>139.60000000000002</ele>
<time>2023-05-17T14:00:45Z</time>
</trkpt>
<trkpt lat="49.262549970299006" lon="8.185237990692258">
<ele>139.60000000000002</ele>
<time>2023-05-17T14:00:46Z</time>
</trkpt>
<trkpt lat="49.26258693449199" lon="8.185256933793426">
<ele>139.60000000000002</ele>
<time>2023-05-17T14:00:47Z</time>
</trkpt>
<trkpt lat="49.262616941705346" lon="8.185276966542006">
<ele>139.60000000000002</ele>
<time>2023-05-17T14:00:48Z</time>
</trkpt>
<trkpt lat="49.26264292560518" lon="8.185297921299934">
<ele>139.60000000000002</ele>
<time>2023-05-17T14:00:49Z</time>
</trkpt>
<trkpt lat="49.26266295835376" lon="8.185319965705276">
<ele>139.60000000000002</ele>
<time>2023-05-17T14:00:50Z</time>
</trkpt>
<trkpt lat="49.262679973617196" lon="8.185337986797094">
<ele>139.60000000000002</ele>
<time>2023-05-17T14:00:51Z</time>
</trkpt>
<trkpt lat="49.26269296556711" lon="8.185352990403771">
<ele>139.79999999999995</ele>
<time>2023-05-17T14:00:52Z</time>
</trkpt>
<trkpt lat="49.26270495168865" lon="8.185366988182068">
<ele>139.79999999999995</ele>
<time>2023-05-17T14:00:53Z</time>
</trkpt>
<trkpt lat="49.262719955295324" lon="8.185376962646842">
<ele>139.79999999999995</ele>
<time>2023-05-17T14:00:54Z</time>
</trkpt>
<trkpt lat="49.26273194141686" lon="8.185384925454855">
<ele>140</ele>
<time>2023-05-17T14:00:55Z</time>
</trkpt>
<trkpt lat="49.262739988043904" lon="8.18539498373866">
<ele>140</ele>
<time>2023-05-17T14:00:56Z</time>
</trkpt>
<trkpt lat="49.26274795085192" lon="8.185399929061532">
<ele>140</ele>
<time>2023-05-17T14:00:57Z</time>
</trkpt>
<trkpt lat="49.26275691948831" lon="8.185404958203435">
<ele>140</ele>
<time>2023-05-17T14:00:58Z</time>
</trkpt>
<trkpt lat="49.262761948630214" lon="8.185406969860196">
<ele>140.20000000000005</ele>
<time>2023-05-17T14:00:59Z</time>
</trkpt>
<trkpt lat="49.26276697777212" lon="8.185407975688577">
<ele>140.20000000000005</ele>
<time>2023-05-17T14:01:00Z</time>
</trkpt>
<trkpt lat="49.26277192309499" lon="8.185407975688577">
<ele>140.20000000000005</ele>
<time>2023-05-17T14:01:01Z</time>
</trkpt>
<trkpt lat="49.26277996972203" lon="8.185409987345338">
<ele>140.20000000000005</ele>
<time>2023-05-17T14:01:02Z</time>
</trkpt>
<trkpt lat="49.26278994418681" lon="8.185406969860196">
<ele>140.20000000000005</ele>
<time>2023-05-17T14:01:03Z</time>
</trkpt>
<trkpt lat="49.262804947793484" lon="8.185404958203435">
<ele>140.20000000000005</ele>
<time>2023-05-17T14:01:04Z</time>
</trkpt>
<trkpt lat="49.262826992198825" lon="8.185402946546674">
<ele>140.20000000000005</ele>
<time>2023-05-17T14:01:05Z</time>
</trkpt>
<trkpt lat="49.262847946956754" lon="8.18539498373866">
<ele>140.39999999999998</ele>
<time>2023-05-17T14:01:06Z</time>
</trkpt>
<trkpt lat="49.26287694834173" lon="8.185382997617126">
<ele>140.39999999999998</ele>
<time>2023-05-17T14:01:07Z</time>
</trkpt>
<trkpt lat="49.26290293224156" lon="8.185376962646842">
<ele>140.39999999999998</ele>
<time>2023-05-17T14:01:08Z</time>
</trkpt>
<trkpt lat="49.262934951111674" lon="8.185369921848178">
<ele>140.39999999999998</ele>
<time>2023-05-17T14:01:09Z</time>
</trkpt>
<trkpt lat="49.26296797581017" lon="8.185361959040165">
<ele>140.60000000000002</ele>
<time>2023-05-17T14:01:10Z</time>
</trkpt>
<trkpt lat="49.263002928346395" lon="8.1853549182415">
<ele>140.60000000000002</ele>
<time>2023-05-17T14:01:11Z</time>
</trkpt>
<trkpt lat="49.263041988015175" lon="8.185352990403771">
<ele>140.60000000000002</ele>
<time>2023-05-17T14:01:12Z</time>
</trkpt>
<trkpt lat="49.2630769405514" lon="8.1853549182415">
<ele>140.60000000000002</ele>
<time>2023-05-17T14:01:13Z</time>
</trkpt>
<trkpt lat="49.26311197690666" lon="8.185356929898262">
<ele>140.79999999999995</ele>
<time>2023-05-17T14:01:14Z</time>
</trkpt>
<trkpt lat="49.26314692944288" lon="8.185361959040165">
<ele>140.79999999999995</ele>
<time>2023-05-17T14:01:15Z</time>
</trkpt>
<trkpt lat="49.26317995414138" lon="8.185362964868546">
<ele>140.79999999999995</ele>
<time>2023-05-17T14:01:16Z</time>
</trkpt>
<trkpt lat="49.263211973011494" lon="8.185359947383404">
<ele>141</ele>
<time>2023-05-17T14:01:17Z</time>
</trkpt>
<trkpt lat="49.26324994303286" lon="8.185356929898262">
<ele>141</ele>
<time>2023-05-17T14:01:18Z</time>
</trkpt>
<trkpt lat="49.26328799687326" lon="8.185352990403771">
<ele>141.20000000000005</ele>
<time>2023-05-17T14:01:19Z</time>
</trkpt>
<trkpt lat="49.263322949409485" lon="8.185357935726643">
<ele>141.20000000000005</ele>
<time>2023-05-17T14:01:20Z</time>
</trkpt>
<trkpt lat="49.26335798576474" lon="8.185357935726643">
<ele>141.20000000000005</ele>
<time>2023-05-17T14:01:21Z</time>
</trkpt>
<trkpt lat="49.26339494995773" lon="8.185347961261868">
<ele>141.39999999999998</ele>
<time>2023-05-17T14:01:22Z</time>
</trkpt>
<trkpt lat="49.263426968827844" lon="8.18533195182681">
<ele>141.39999999999998</ele>
<time>2023-05-17T14:01:23Z</time>
</trkpt>
<trkpt lat="49.263472985476255" lon="8.185327928513288">
<ele>141.60000000000002</ele>
<time>2023-05-17T14:01:24Z</time>
</trkpt>
<trkpt lat="49.263516990467906" lon="8.185334969311953">
<ele>141.60000000000002</ele>
<time>2023-05-17T14:01:25Z</time>
</trkpt>
<trkpt lat="49.263556972146034" lon="8.185334969311953">
<ele>141.79999999999995</ele>
<time>2023-05-17T14:01:26Z</time>
</trkpt>
<trkpt lat="49.263599971309304" lon="8.185332957655191">
<ele>142</ele>
<time>2023-05-17T14:01:27Z</time>
</trkpt>
<trkpt lat="49.26363794133067" lon="8.185324994847178">
<ele>142.20000000000005</ele>
<time>2023-05-17T14:01:28Z</time>
</trkpt>
<trkpt lat="49.26367498934269" lon="8.185324994847178">
<ele>142.20000000000005</ele>
<time>2023-05-17T14:01:29Z</time>
</trkpt>
<trkpt lat="49.26370692439377" lon="8.185319965705276">
<ele>142.39999999999998</ele>
<time>2023-05-17T14:01:30Z</time>
</trkpt>
<trkpt lat="49.26373299211264" lon="8.185296999290586">
<ele>142.39999999999998</ele>
<time>2023-05-17T14:01:31Z</time>
</trkpt>
<trkpt lat="49.26375998184085" lon="8.185257939621806">
<ele>142.60000000000002</ele>
<time>2023-05-17T14:01:32Z</time>
</trkpt>
<trkpt lat="49.26378294825554" lon="8.185202954337">
<ele>142.60000000000002</ele>
<time>2023-05-17T14:01:33Z</time>
</trkpt>
<trkpt lat="49.26380197517574" lon="8.185147969052196">
<ele>142.60000000000002</ele>
<time>2023-05-17T14:01:34Z</time>
</trkpt>
<trkpt lat="49.263816978782415" lon="8.185089966282248">
<ele>142.60000000000002</ele>
<time>2023-05-17T14:01:35Z</time>
</trkpt>
<trkpt lat="49.26382997073233" lon="8.185026934370399">
<ele>142.60000000000002</ele>
<time>2023-05-17T14:01:36Z</time>
</trkpt>
<trkpt lat="49.26384195685387" lon="8.1849629804492">
<ele>142.60000000000002</ele>
<time>2023-05-17T14:01:37Z</time>
</trkpt>
<trkpt lat="49.26385494880378" lon="8.184896931052208">
<ele>142.60000000000002</ele>
<time>2023-05-17T14:01:38Z</time>
</trkpt>
<trkpt lat="49.26386693492532" lon="8.184827947989106">
<ele>142.60000000000002</ele>
<time>2023-05-17T14:01:39Z</time>
</trkpt>
<trkpt lat="49.263877999037504" lon="8.184757959097624">
<ele>142.60000000000002</ele>
<time>2023-05-17T14:01:40Z</time>
</trkpt>
<trkpt lat="49.2638919968158" lon="8.184687970206141">
<ele>142.79999999999995</ele>
<time>2023-05-17T14:01:41Z</time>
</trkpt>
<trkpt lat="49.26390498876572" lon="8.18462192080915">
<ele>142.79999999999995</ele>
<time>2023-05-17T14:01:42Z</time>
</trkpt>
<trkpt lat="49.26391295157373" lon="8.184549920260906">
<ele>142.79999999999995</ele>
<time>2023-05-17T14:01:43Z</time>
</trkpt>
<trkpt lat="49.263922926038504" lon="8.184482948854566">
<ele>143</ele>
<time>2023-05-17T14:01:44Z</time>
</trkpt>
<trkpt lat="49.26393499597907" lon="8.184419916942716">
<ele>143</ele>
<time>2023-05-17T14:01:45Z</time>
</trkpt>
<trkpt lat="49.263946982100606" lon="8.1843619979918">
<ele>143</ele>
<time>2023-05-17T14:01:46Z</time>
</trkpt>
<trkpt lat="49.26395695656538" lon="8.184306928887963">
<ele>143.20000000000005</ele>
<time>2023-05-17T14:01:47Z</time>
</trkpt>
<trkpt lat="49.263966931030154" lon="8.1842549610883">
<ele>143.20000000000005</ele>
<time>2023-05-17T14:01:48Z</time>
</trkpt>
<trkpt lat="49.26397196017206" lon="8.184204921126366">
<ele>143.20000000000005</ele>
<time>2023-05-17T14:01:49Z</time>
</trkpt>
<trkpt lat="49.26398294046521" lon="8.184166951104999">
<ele>143.39999999999998</ele>
<time>2023-05-17T14:01:50Z</time>
</trkpt>
<trkpt lat="49.26400297321379" lon="8.184134932234883">
<ele>143.39999999999998</ele>
<time>2023-05-17T14:01:51Z</time>
</trkpt>
<trkpt lat="49.26402694545686" lon="8.18410199135542">
<ele>143.39999999999998</ele>
<time>2023-05-17T14:01:52Z</time>
</trkpt>
<trkpt lat="49.26404697820544" lon="8.18405999802053">
<ele>143.39999999999998</ele>
<time>2023-05-17T14:01:53Z</time>
</trkpt>
<trkpt lat="49.26406499929726" lon="8.184009958058596">
<ele>143.39999999999998</ele>
<time>2023-05-17T14:01:54Z</time>
</trkpt>
<trkpt lat="49.26408193074167" lon="8.18395296111703">
<ele>143.39999999999998</ele>
<time>2023-05-17T14:01:55Z</time>
</trkpt>
<trkpt lat="49.264092994853854" lon="8.183894958347082">
<ele>143.60000000000002</ele>
<time>2023-05-17T14:01:56Z</time>
</trkpt>
<trkpt lat="49.26410498097539" lon="8.183837961405516">
<ele>143.60000000000002</ele>
<time>2023-05-17T14:01:57Z</time>
</trkpt>
<trkpt lat="49.264117972925305" lon="8.183786999434233">
<ele>143.79999999999995</ele>
<time>2023-05-17T14:01:58Z</time>
</trkpt>
<trkpt lat="49.2641269415617" lon="8.183732936158776">
<ele>143.79999999999995</ele>
<time>2023-05-17T14:01:59Z</time>
</trkpt>
<trkpt lat="49.264136999845505" lon="8.183679962530732">
<ele>143.79999999999995</ele>
<time>2023-05-17T14:02:00Z</time>
</trkpt>
<trkpt lat="49.26414697431028" lon="8.183622965589166">
<ele>144</ele>
<time>2023-05-17T14:02:01Z</time>
</trkpt>
<trkpt lat="49.264157954603434" lon="8.18356697447598">
<ele>144</ele>
<time>2023-05-17T14:02:02Z</time>
</trkpt>
<trkpt lat="49.26416994072497" lon="8.183512995019555">
<ele>144</ele>
<time>2023-05-17T14:02:03Z</time>
</trkpt>
<trkpt lat="49.264184944331646" lon="8.183466978371143">
<ele>144.20000000000005</ele>
<time>2023-05-17T14:02:04Z</time>
</trkpt>
<trkpt lat="49.264204977080226" lon="8.183422973379493">
<ele>144.20000000000005</ele>
<time>2023-05-17T14:02:05Z</time>
</trkpt>
<trkpt lat="49.26423297263682" lon="8.183397995308042">
<ele>144.39999999999998</ele>
<time>2023-05-17T14:02:06Z</time>
</trkpt>
<trkpt lat="49.264269936829805" lon="8.183391960337758">
<ele>144.39999999999998</ele>
<time>2023-05-17T14:02:07Z</time>
</trkpt>
<trkpt lat="49.264311930164695" lon="8.183389948680997">
<ele>144.39999999999998</ele>
<time>2023-05-17T14:02:08Z</time>
</trkpt>
<trkpt lat="49.264354929327965" lon="8.183387937024236">
<ele>144.60000000000002</ele>
<time>2023-05-17T14:02:09Z</time>
</trkpt>
<trkpt lat="49.264397928491235" lon="8.183381985872984">
<ele>144.60000000000002</ele>
<time>2023-05-17T14:02:10Z</time>
</trkpt>
<trkpt lat="49.26444495096803" lon="8.183376956731081">
<ele>144.60000000000002</ele>
<time>2023-05-17T14:02:11Z</time>
</trkpt>
<trkpt lat="49.26449197344482" lon="8.18337494507432">
<ele>144.79999999999995</ele>
<time>2023-05-17T14:02:12Z</time>
</trkpt>
<trkpt lat="49.26453799009323" lon="8.183372933417559">
<ele>144.79999999999995</ele>
<time>2023-05-17T14:02:13Z</time>
</trkpt>
<trkpt lat="49.26458492875099" lon="8.183371927589178">
<ele>144.79999999999995</ele>
<time>2023-05-17T14:02:14Z</time>
</trkpt>
<trkpt lat="49.264632957056165" lon="8.183371927589178">
<ele>144.79999999999995</ele>
<time>2023-05-17T14:02:15Z</time>
</trkpt>
<trkpt lat="49.26468199118972" lon="8.183371927589178">
<ele>144.79999999999995</ele>
<time>2023-05-17T14:02:16Z</time>
</trkpt>
<trkpt lat="49.26472993567586" lon="8.183371927589178">
<ele>144.79999999999995</ele>
<time>2023-05-17T14:02:17Z</time>
</trkpt>
<trkpt lat="49.26477695815265" lon="8.183371927589178">
<ele>144.79999999999995</ele>
<time>2023-05-17T14:02:18Z</time>
</trkpt>
<trkpt lat="49.26482297480106" lon="8.183371927589178">
<ele>144.79999999999995</ele>
<time>2023-05-17T14:02:19Z</time>
</trkpt>
<trkpt lat="49.264869997277856" lon="8.183369999751449">
<ele>144.79999999999995</ele>
<time>2023-05-17T14:02:20Z</time>
</trkpt>
<trkpt lat="49.264914924278855" lon="8.183364970609546">
<ele>144.79999999999995</ele>
<time>2023-05-17T14:02:21Z</time>
</trkpt>
<trkpt lat="49.26496295258403" lon="8.183357929810882">
<ele>144.79999999999995</ele>
<time>2023-05-17T14:02:22Z</time>
</trkpt>
<trkpt lat="49.26501198671758" lon="8.18335197865963">
<ele>144.79999999999995</ele>
<time>2023-05-17T14:02:23Z</time>
</trkpt>
<trkpt lat="49.26505993120372" lon="8.183344937860966">
<ele>144.79999999999995</ele>
<time>2023-05-17T14:02:24Z</time>
</trkpt>
<trkpt lat="49.26511198282242" lon="8.183336975052953">
<ele>144.79999999999995</ele>
<time>2023-05-17T14:02:25Z</time>
</trkpt>
<trkpt lat="49.2651629447937" lon="8.18333194591105">
<ele>144.79999999999995</ele>
<time>2023-05-17T14:02:26Z</time>
</trkpt>
<trkpt lat="49.265214996412396" lon="8.183327922597528">
<ele>144.60000000000002</ele>
<time>2023-05-17T14:02:27Z</time>
</trkpt>
<trkpt lat="49.26526696421206" lon="8.183326916769147">
<ele>144.60000000000002</ele>
<time>2023-05-17T14:02:28Z</time>
</trkpt>
<trkpt lat="49.26531792618334" lon="8.183322977274656">
<ele>144.60000000000002</ele>
<time>2023-05-17T14:02:29Z</time>
</trkpt>
<trkpt lat="49.26536997780204" lon="8.183317948132753">
<ele>144.60000000000002</ele>
<time>2023-05-17T14:02:30Z</time>
</trkpt>
<trkpt lat="49.26542295143008" lon="8.183314930647612">
<ele>144.60000000000002</ele>
<time>2023-05-17T14:02:31Z</time>
</trkpt>
<trkpt lat="49.265474919229746" lon="8.18330998532474">
<ele>144.60000000000002</ele>
<time>2023-05-17T14:02:32Z</time>
</trkpt>
<trkpt lat="49.26552697084844" lon="8.183304956182837">
<ele>144.39999999999998</ele>
<time>2023-05-17T14:02:33Z</time>
</trkpt>
<trkpt lat="49.26557692699134" lon="8.183299927040935">
<ele>144.39999999999998</ele>
<time>2023-05-17T14:02:34Z</time>
</trkpt>
<trkpt lat="49.26562797278166" lon="8.183292970061302">
<ele>144.39999999999998</ele>
<time>2023-05-17T14:02:35Z</time>
</trkpt>
<trkpt lat="49.26567792892456" lon="8.18328995257616">
<ele>144.39999999999998</ele>
<time>2023-05-17T14:02:36Z</time>
</trkpt>
<trkpt lat="49.26573199220002" lon="8.183286935091019">
<ele>144.39999999999998</ele>
<time>2023-05-17T14:02:37Z</time>
</trkpt>
<trkpt lat="49.26578496582806" lon="8.183284923434258">
<ele>144.20000000000005</ele>
<time>2023-05-17T14:02:38Z</time>
</trkpt>
<trkpt lat="49.265837939456105" lon="8.183286935091019">
<ele>144.20000000000005</ele>
<time>2023-05-17T14:02:39Z</time>
</trkpt>
<trkpt lat="49.2658899910748" lon="8.183284923434258">
<ele>144.20000000000005</ele>
<time>2023-05-17T14:02:40Z</time>
</trkpt>
<trkpt lat="49.265941958874464" lon="8.183284923434258">
<ele>144</ele>
<time>2023-05-17T14:02:41Z</time>
</trkpt>
<trkpt lat="49.26599292084575" lon="8.183281989768147">
<ele>144</ele>
<time>2023-05-17T14:02:42Z</time>
</trkpt>
<trkpt lat="49.2660469841212" lon="8.183276960626245">
<ele>144</ele>
<time>2023-05-17T14:02:43Z</time>
</trkpt>
<trkpt lat="49.26609995774925" lon="8.183272937312722">
<ele>144</ele>
<time>2023-05-17T14:02:44Z</time>
</trkpt>
<trkpt lat="49.26615293137729" lon="8.183267991989851">
<ele>144</ele>
<time>2023-05-17T14:02:45Z</time>
</trkpt>
<trkpt lat="49.26620699465275" lon="8.18326698616147">
<ele>144</ele>
<time>2023-05-17T14:02:46Z</time>
</trkpt>
<trkpt lat="49.26625996828079" lon="8.18326497450471">
<ele>144</ele>
<time>2023-05-17T14:02:47Z</time>
</trkpt>
<trkpt lat="49.266311936080456" lon="8.183259945362806">
<ele>144</ele>
<time>2023-05-17T14:02:48Z</time>
</trkpt>
<trkpt lat="49.26636692136526" lon="8.183256927877665">
<ele>144</ele>
<time>2023-05-17T14:02:49Z</time>
</trkpt>
<trkpt lat="49.26641997881234" lon="8.183252988383174">
<ele>143.79999999999995</ele>
<time>2023-05-17T14:02:50Z</time>
</trkpt>
<trkpt lat="49.26647496409714" lon="8.183251982554793">
<ele>143.79999999999995</ele>
<time>2023-05-17T14:02:51Z</time>
</trkpt>
<trkpt lat="49.266527937725186" lon="8.183247959241271">
<ele>143.79999999999995</ele>
<time>2023-05-17T14:02:52Z</time>
</trkpt>
<trkpt lat="49.26658191718161" lon="8.18324494175613">
<ele>143.79999999999995</ele>
<time>2023-05-17T14:02:53Z</time>
</trkpt>
<trkpt lat="49.266632962971926" lon="8.183241924270988">
<ele>143.79999999999995</ele>
<time>2023-05-17T14:02:54Z</time>
</trkpt>
<trkpt lat="49.26668493077159" lon="8.183237984776497">
<ele>143.79999999999995</ele>
<time>2023-05-17T14:02:55Z</time>
</trkpt>
<trkpt lat="49.26673497073352" lon="8.183236978948116">
<ele>143.60000000000002</ele>
<time>2023-05-17T14:02:56Z</time>
</trkpt>
<trkpt lat="49.26678693853319" lon="8.183236978948116">
<ele>143.60000000000002</ele>
<time>2023-05-17T14:02:57Z</time>
</trkpt>
<trkpt lat="49.26683697849512" lon="8.183237984776497">
<ele>143.60000000000002</ele>
<time>2023-05-17T14:02:58Z</time>
</trkpt>
<trkpt lat="49.26688693463802" lon="8.183234967291355">
<ele>143.60000000000002</ele>
<time>2023-05-17T14:02:59Z</time>
</trkpt>
<trkpt lat="49.26693798042834" lon="8.183234967291355">
<ele>143.60000000000002</ele>
<time>2023-05-17T14:03:00Z</time>
</trkpt>
<trkpt lat="49.26698793657124" lon="8.183232955634594">
<ele>143.60000000000002</ele>
<time>2023-05-17T14:03:01Z</time>
</trkpt>
<trkpt lat="49.267037976533175" lon="8.183229938149452">
<ele>143.60000000000002</ele>
<time>2023-05-17T14:03:02Z</time>
</trkpt>
<trkpt lat="49.26708499900997" lon="8.183224992826581">
<ele>143.60000000000002</ele>
<time>2023-05-17T14:03:03Z</time>
</trkpt>
<trkpt lat="49.267126992344856" lon="8.183209989219904">
<ele>143.60000000000002</ele>
<time>2023-05-17T14:03:04Z</time>
</trkpt>
<trkpt lat="49.26715792156756" lon="8.183174952864647">
<ele>143.39999999999998</ele>
<time>2023-05-17T14:03:05Z</time>
</trkpt>
<trkpt lat="49.26717694848776" lon="8.183121979236603">
<ele>143.39999999999998</ele>
<time>2023-05-17T14:03:06Z</time>
</trkpt>
<trkpt lat="49.26717694848776" lon="8.183057941496372">
<ele>143.39999999999998</ele>
<time>2023-05-17T14:03:07Z</time>
</trkpt>
<trkpt lat="49.267167979851365" lon="8.18298795260489">
<ele>143.39999999999998</ele>
<time>2023-05-17T14:03:08Z</time>
</trkpt>
<trkpt lat="49.26715792156756" lon="8.182909917086363">
<ele>143.39999999999998</ele>
<time>2023-05-17T14:03:09Z</time>
</trkpt>
<trkpt lat="49.267146941274405" lon="8.182827942073345">
<ele>143.39999999999998</ele>
<time>2023-05-17T14:03:10Z</time>
</trkpt>
<trkpt lat="49.26713696680963" lon="8.182744961231947">
<ele>143.39999999999998</ele>
<time>2023-05-17T14:03:11Z</time>
</trkpt>
<trkpt lat="49.267126992344856" lon="8.182659968733788">
<ele>143.39999999999998</ele>
<time>2023-05-17T14:03:12Z</time>
</trkpt>
<trkpt lat="49.26711793988943" lon="8.18257698789239">
<ele>143.39999999999998</ele>
<time>2023-05-17T14:03:13Z</time>
</trkpt>
<trkpt lat="49.26710997708142" lon="8.18249492906034">
<ele>143.39999999999998</ele>
<time>2023-05-17T14:03:14Z</time>
</trkpt>
<trkpt lat="49.26710193045437" lon="8.182412954047322">
<ele>143.39999999999998</ele>
<time>2023-05-17T14:03:15Z</time>
</trkpt>
<trkpt lat="49.26709296181798" lon="8.182331984862685">
<ele>143.39999999999998</ele>
<time>2023-05-17T14:03:16Z</time>
</trkpt>
<trkpt lat="49.267086926847696" lon="8.182247998192906">
<ele>143.39999999999998</ele>
<time>2023-05-17T14:03:17Z</time>
</trkpt>
<trkpt lat="49.267081981524825" lon="8.182164933532476">
<ele>143.39999999999998</ele>
<time>2023-05-17T14:03:18Z</time>
</trkpt>
<trkpt lat="49.2670779582113" lon="8.182081952691078">
<ele>143.39999999999998</ele>
<time>2023-05-17T14:03:19Z</time>
</trkpt>
<trkpt lat="49.26707494072616" lon="8.181996960192919">
<ele>143.39999999999998</ele>
<time>2023-05-17T14:03:20Z</time>
</trkpt>
<trkpt lat="49.2670729290694" lon="8.18191297352314">
<ele>143.39999999999998</ele>
<time>2023-05-17T14:03:21Z</time>
</trkpt>
<trkpt lat="49.2670729290694" lon="8.181831920519471">
<ele>143.39999999999998</ele>
<time>2023-05-17T14:03:22Z</time>
</trkpt>
<trkpt lat="49.2670729290694" lon="8.181751957163215">
<ele>143.39999999999998</ele>
<time>2023-05-17T14:03:23Z</time>
</trkpt>
<trkpt lat="49.26707695238292" lon="8.181671993806958">
<ele>143.39999999999998</ele>
<time>2023-05-17T14:03:24Z</time>
</trkpt>
<trkpt lat="49.267079969868064" lon="8.18159194663167">
<ele>143.39999999999998</ele>
<time>2023-05-17T14:03:25Z</time>
</trkpt>
<trkpt lat="49.267086926847696" lon="8.181509971618652">
<ele>143.39999999999998</ele>
<time>2023-05-17T14:03:26Z</time>
</trkpt>
<trkpt lat="49.26709296181798" lon="8.181431936100125">
<ele>143.39999999999998</ele>
<time>2023-05-17T14:03:27Z</time>
</trkpt>
<trkpt lat="49.26709799095988" lon="8.181349961087108">
<ele>143.39999999999998</ele>
<time>2023-05-17T14:03:28Z</time>
</trkpt>
<trkpt lat="49.267102936282754" lon="8.18127192556858">
<ele>143.39999999999998</ele>
<time>2023-05-17T14:03:29Z</time>
</trkpt>
<trkpt lat="49.26710997708142" lon="8.181189950555563">
<ele>143.39999999999998</ele>
<time>2023-05-17T14:03:30Z</time>
</trkpt>
<trkpt lat="49.26711299456656" lon="8.181107975542545">
<ele>143.39999999999998</ele>
<time>2023-05-17T14:03:31Z</time>
</trkpt>
<trkpt lat="49.26711492240429" lon="8.181026922538877">
<ele>143.39999999999998</ele>
<time>2023-05-17T14:03:32Z</time>
</trkpt>
<trkpt lat="49.26711693406105" lon="8.180944947525859">
<ele>143.39999999999998</ele>
<time>2023-05-17T14:03:33Z</time>
</trkpt>
<trkpt lat="49.26711995154619" lon="8.1808599550277">
<ele>143.39999999999998</ele>
<time>2023-05-17T14:03:34Z</time>
</trkpt>
<trkpt lat="49.26712196320295" lon="8.180776974186301">
<ele>143.60000000000002</ele>
<time>2023-05-17T14:03:35Z</time>
</trkpt>
<trkpt lat="49.267122969031334" lon="8.180692987516522">
<ele>143.60000000000002</ele>
<time>2023-05-17T14:03:36Z</time>
</trkpt>
<trkpt lat="49.267124980688095" lon="8.180609922856092">
<ele>143.60000000000002</ele>
<time>2023-05-17T14:03:37Z</time>
</trkpt>
<trkpt lat="49.267126992344856" lon="8.180524930357933">
<ele>143.60000000000002</ele>
<time>2023-05-17T14:03:38Z</time>
</trkpt>
<trkpt lat="49.267126992344856" lon="8.180442955344915">
<ele>143.60000000000002</ele>
<time>2023-05-17T14:03:39Z</time>
</trkpt>
<trkpt lat="49.26712799817324" lon="8.180359974503517">
<ele>143.79999999999995</ele>
<time>2023-05-17T14:03:40Z</time>
</trkpt>
<trkpt lat="49.26712799817324" lon="8.1802779994905">
<ele>143.79999999999995</ele>
<time>2023-05-17T14:03:41Z</time>
</trkpt>
<trkpt lat="49.26712799817324" lon="8.18019694648683">
<ele>143.79999999999995</ele>
<time>2023-05-17T14:03:42Z</time>
</trkpt>
<trkpt lat="49.267129926010966" lon="8.180116983130574">
<ele>143.79999999999995</ele>
<time>2023-05-17T14:03:43Z</time>
</trkpt>
<trkpt lat="49.267129926010966" lon="8.180037941783667">
<ele>144</ele>
<time>2023-05-17T14:03:44Z</time>
</trkpt>
<trkpt lat="49.26712799817324" lon="8.179959990084171">
<ele>144</ele>
<time>2023-05-17T14:03:45Z</time>
</trkpt>
<trkpt lat="49.26712799817324" lon="8.179879942908883">
<ele>144</ele>
<time>2023-05-17T14:03:46Z</time>
</trkpt>
<trkpt lat="49.26712799817324" lon="8.179797967895865">
<ele>144</ele>
<time>2023-05-17T14:03:47Z</time>
</trkpt>
<trkpt lat="49.26712799817324" lon="8.179712975397706">
<ele>144</ele>
<time>2023-05-17T14:03:48Z</time>
</trkpt>
<trkpt lat="49.267129926010966" lon="8.179629994556308">
<ele>144</ele>
<time>2023-05-17T14:03:49Z</time>
</trkpt>
<trkpt lat="49.267129926010966" lon="8.179546929895878">
<ele>144</ele>
<time>2023-05-17T14:03:50Z</time>
</trkpt>
<trkpt lat="49.267129926010966" lon="8.17946495488286">
<ele>144.20000000000005</ele>
<time>2023-05-17T14:03:51Z</time>
</trkpt>
<trkpt lat="49.26713193766773" lon="8.179382979869843">
<ele>144.20000000000005</ele>
<time>2023-05-17T14:03:52Z</time>
</trkpt>
<trkpt lat="49.26713294349611" lon="8.179304944351315">
<ele>144.20000000000005</ele>
<time>2023-05-17T14:03:53Z</time>
</trkpt>
<trkpt lat="49.26713495515287" lon="8.17922699265182">
<ele>144.20000000000005</ele>
<time>2023-05-17T14:03:54Z</time>
</trkpt>
<trkpt lat="49.26713495515287" lon="8.179149962961674">
<ele>144.20000000000005</ele>
<time>2023-05-17T14:03:55Z</time>
</trkpt>
<trkpt lat="49.26713294349611" lon="8.17907695658505">
<ele>144.20000000000005</ele>
<time>2023-05-17T14:03:56Z</time>
</trkpt>
<trkpt lat="49.26713294349611" lon="8.179001938551664">
<ele>144.20000000000005</ele>
<time>2023-05-17T14:03:57Z</time>
</trkpt>
<trkpt lat="49.26713294349611" lon="8.178926920518279">
<ele>144.20000000000005</ele>
<time>2023-05-17T14:03:58Z</time>
</trkpt>
<trkpt lat="49.26713495515287" lon="8.178847962990403">
<ele>144.20000000000005</ele>
<time>2023-05-17T14:03:59Z</time>
</trkpt>
<trkpt lat="49.26713495515287" lon="8.178769927471876">
<ele>144.20000000000005</ele>
<time>2023-05-17T14:04:00Z</time>
</trkpt>
<trkpt lat="49.26713495515287" lon="8.178694993257523">
<ele>144.20000000000005</ele>
<time>2023-05-17T14:04:01Z</time>
</trkpt>
<trkpt lat="49.26713495515287" lon="8.178619975224137">
<ele>144.20000000000005</ele>
<time>2023-05-17T14:04:02Z</time>
</trkpt>
<trkpt lat="49.26713495515287" lon="8.178547974675894">
<ele>144.39999999999998</ele>
<time>2023-05-17T14:04:03Z</time>
</trkpt>
<trkpt lat="49.26713495515287" lon="8.178477985784411">
<ele>144.39999999999998</ele>
<time>2023-05-17T14:04:04Z</time>
</trkpt>
<trkpt lat="49.26713696680963" lon="8.178404979407787">
<ele>144.39999999999998</ele>
<time>2023-05-17T14:04:05Z</time>
</trkpt>
<trkpt lat="49.26713696680963" lon="8.178331973031163">
<ele>144.60000000000002</ele>
<time>2023-05-17T14:04:06Z</time>
</trkpt>
<trkpt lat="49.26713797263801" lon="8.178254943341017">
<ele>144.60000000000002</ele>
<time>2023-05-17T14:04:07Z</time>
</trkpt>
<trkpt lat="49.26713797263801" lon="8.178179925307631">
<ele>144.79999999999995</ele>
<time>2023-05-17T14:04:08Z</time>
</trkpt>
<trkpt lat="49.26713998429477" lon="8.178106918931007">
<ele>144.79999999999995</ele>
<time>2023-05-17T14:04:09Z</time>
</trkpt>
<trkpt lat="49.26714291796088" lon="8.178037935867906">
<ele>144.79999999999995</ele>
<time>2023-05-17T14:04:10Z</time>
</trkpt>
<trkpt lat="49.26714492961764" lon="8.177969958633184">
<ele>144.79999999999995</ele>
<time>2023-05-17T14:04:11Z</time>
</trkpt>
<trkpt lat="49.26714492961764" lon="8.177907932549715">
<ele>144.79999999999995</ele>
<time>2023-05-17T14:04:12Z</time>
</trkpt>
<trkpt lat="49.26714492961764" lon="8.177854958921671">
<ele>144.79999999999995</ele>
<time>2023-05-17T14:04:13Z</time>
</trkpt>
<trkpt lat="49.26714199595153" lon="8.177814977243543">
<ele>144.79999999999995</ele>
<time>2023-05-17T14:04:14Z</time>
</trkpt>
<trkpt lat="49.26713998429477" lon="8.177779940888286">
<ele>144.79999999999995</ele>
<time>2023-05-17T14:04:15Z</time>
</trkpt>
<trkpt lat="49.26713797263801" lon="8.177751945331693">
<ele>144.79999999999995</ele>
<time>2023-05-17T14:04:16Z</time>
</trkpt>
<trkpt lat="49.26713797263801" lon="8.177732918411493">
<ele>144.79999999999995</ele>
<time>2023-05-17T14:04:17Z</time>
</trkpt>
<trkpt lat="49.26713797263801" lon="8.177726967260242">
<ele>144.79999999999995</ele>
<time>2023-05-17T14:04:18Z</time>
</trkpt>
<trkpt lat="49.26713998429477" lon="8.177726967260242">
<ele>144.79999999999995</ele>
<time>2023-05-17T14:04:19Z</time>
</trkpt>
<trkpt lat="49.26713998429477" lon="8.177727973088622">
<ele>144.79999999999995</ele>
<time>2023-05-17T14:04:20Z</time>
</trkpt>
<trkpt lat="49.267167979851365" lon="8.177689919248223">
<ele>144.79999999999995</ele>
<time>2023-05-17T14:04:21Z</time>
</trkpt>
<trkpt lat="49.2671799659729" lon="8.17768195644021">
<ele>144.79999999999995</ele>
<time>2023-05-17T14:04:22Z</time>
</trkpt>
<trkpt lat="49.267192957922816" lon="8.177669970318675">
<ele>144.79999999999995</ele>
<time>2023-05-17T14:04:23Z</time>
</trkpt>
<trkpt lat="49.26720796152949" lon="8.177667958661914">
<ele>144.79999999999995</ele>
<time>2023-05-17T14:04:24Z</time>
</trkpt>
<trkpt lat="49.26722296513617" lon="8.177671981975436">
<ele>144.79999999999995</ele>
<time>2023-05-17T14:04:25Z</time>
</trkpt>
<trkpt lat="49.26724199205637" lon="8.177677933126688">
<ele>144.79999999999995</ele>
<time>2023-05-17T14:04:26Z</time>
</trkpt>
<trkpt lat="49.26726697012782" lon="8.17767994478345">
<ele>144.79999999999995</ele>
<time>2023-05-17T14:04:27Z</time>
</trkpt>
<trkpt lat="49.26729295402765" lon="8.177677933126688">
<ele>144.79999999999995</ele>
<time>2023-05-17T14:04:28Z</time>
</trkpt>
<trkpt lat="49.267321955412626" lon="8.177677933126688">
<ele>144.79999999999995</ele>
<time>2023-05-17T14:04:29Z</time>
</trkpt>
<trkpt lat="49.26735498011112" lon="8.177676927298307">
<ele>144.79999999999995</ele>
<time>2023-05-17T14:04:30Z</time>
</trkpt>
<trkpt lat="49.26739194430411" lon="8.177669970318675">
<ele>144.79999999999995</ele>
<time>2023-05-17T14:04:31Z</time>
</trkpt>
<trkpt lat="49.267427986487746" lon="8.17766192369163">
<ele>144.79999999999995</ele>
<time>2023-05-17T14:04:32Z</time>
</trkpt>
<trkpt lat="49.267466962337494" lon="8.177654966711998">
<ele>144.79999999999995</ele>
<time>2023-05-17T14:04:33Z</time>
</trkpt>
<trkpt lat="49.26750694401562" lon="8.177651949226856">
<ele>144.79999999999995</ele>
<time>2023-05-17T14:04:34Z</time>
</trkpt>
<trkpt lat="49.26754692569375" lon="8.177649937570095">
<ele>144.79999999999995</ele>
<time>2023-05-17T14:04:35Z</time>
</trkpt>
<trkpt lat="49.26758992485702" lon="8.177649937570095">
<ele>144.79999999999995</ele>
<time>2023-05-17T14:04:36Z</time>
</trkpt>
<trkpt lat="49.26763191819191" lon="8.177644992247224">
<ele>144.60000000000002</ele>
<time>2023-05-17T14:04:37Z</time>
</trkpt>
<trkpt lat="49.26767298951745" lon="8.177641974762082">
<ele>144.60000000000002</ele>
<time>2023-05-17T14:04:38Z</time>
</trkpt>
<trkpt lat="49.26771498285234" lon="8.17763795144856">
<ele>144.60000000000002</ele>
<time>2023-05-17T14:04:39Z</time>
</trkpt>
<trkpt lat="49.26775295287371" lon="8.17763694562018">
<ele>144.39999999999998</ele>
<time>2023-05-17T14:04:40Z</time>
</trkpt>
<trkpt lat="49.267792934551835" lon="8.177632922306657">
<ele>144.39999999999998</ele>
<time>2023-05-17T14:04:41Z</time>
</trkpt>
<trkpt lat="49.26783291622996" lon="8.177632922306657">
<ele>144.39999999999998</ele>
<time>2023-05-17T14:04:42Z</time>
</trkpt>
<trkpt lat="49.267877927049994" lon="8.177634933963418">
<ele>144.39999999999998</ele>
<time>2023-05-17T14:04:43Z</time>
</trkpt>
<trkpt lat="49.267922937870026" lon="8.17763795144856">
<ele>144.39999999999998</ele>
<time>2023-05-17T14:04:44Z</time>
</trkpt>
<trkpt lat="49.26797197200358" lon="8.17763694562018">
<ele>144.39999999999998</ele>
<time>2023-05-17T14:04:45Z</time>
</trkpt>
<trkpt lat="49.26802192814648" lon="8.17763694562018">
<ele>144.39999999999998</ele>
<time>2023-05-17T14:04:46Z</time>
</trkpt>
<trkpt lat="49.268069956451654" lon="8.17763795144856">
<ele>144.39999999999998</ele>
<time>2023-05-17T14:04:47Z</time>
</trkpt>
<trkpt lat="49.26812192425132" lon="8.177639963105321">
<ele>144.39999999999998</ele>
<time>2023-05-17T14:04:48Z</time>
</trkpt>
<trkpt lat="49.26816995255649" lon="8.17763795144856">
<ele>144.39999999999998</ele>
<time>2023-05-17T14:04:49Z</time>
</trkpt>
<trkpt lat="49.26821697503328" lon="8.17763795144856">
<ele>144.20000000000005</ele>
<time>2023-05-17T14:04:50Z</time>
</trkpt>
<trkpt lat="49.268264919519424" lon="8.17763694562018">
<ele>144.20000000000005</ele>
<time>2023-05-17T14:04:51Z</time>
</trkpt>
<trkpt lat="49.2683129478246" lon="8.17763694562018">
<ele>144</ele>
<time>2023-05-17T14:04:52Z</time>
</trkpt>
<trkpt lat="49.26835997030139" lon="8.177632922306657">
<ele>144</ele>
<time>2023-05-17T14:04:53Z</time>
</trkpt>
<trkpt lat="49.26840799860656" lon="8.177627976983786">
<ele>143.79999999999995</ele>
<time>2023-05-17T14:04:54Z</time>
</trkpt>
<trkpt lat="49.268456948921084" lon="8.177627976983786">
<ele>143.79999999999995</ele>
<time>2023-05-17T14:04:55Z</time>
</trkpt>
<trkpt lat="49.26850497722626" lon="8.177631916478276">
<ele>143.79999999999995</ele>
<time>2023-05-17T14:04:56Z</time>
</trkpt>
<trkpt lat="49.2685529217124" lon="8.17763694562018">
<ele>143.60000000000002</ele>
<time>2023-05-17T14:04:57Z</time>
</trkpt>
<trkpt lat="49.26860296167433" lon="8.177639963105321">
<ele>143.60000000000002</ele>
<time>2023-05-17T14:04:58Z</time>
</trkpt>
<trkpt lat="49.268651995807886" lon="8.17763795144856">
<ele>143.39999999999998</ele>
<time>2023-05-17T14:04:59Z</time>
</trkpt>
<trkpt lat="49.26869994029403" lon="8.17763795144856">
<ele>143.39999999999998</ele>
<time>2023-05-17T14:05:00Z</time>
</trkpt>
<trkpt lat="49.26874998025596" lon="8.177639963105321">
<ele>143.20000000000005</ele>
<time>2023-05-17T14:05:01Z</time>
</trkpt>
<trkpt lat="49.268802953884006" lon="8.177644992247224">
<ele>143.20000000000005</ele>
<time>2023-05-17T14:05:02Z</time>
</trkpt>
<trkpt lat="49.26885693334043" lon="8.177651949226856">
<ele>143</ele>
<time>2023-05-17T14:05:03Z</time>
</trkpt>
<trkpt lat="49.268911918625236" lon="8.17765798419714">
<ele>142.79999999999995</ele>
<time>2023-05-17T14:05:04Z</time>
</trkpt>
<trkpt lat="49.26896497607231" lon="8.17766192369163">
<ele>142.60000000000002</ele>
<time>2023-05-17T14:05:05Z</time>
</trkpt>
<trkpt lat="49.26902197301388" lon="8.17765798419714">
<ele>142.39999999999998</ele>
<time>2023-05-17T14:05:06Z</time>
</trkpt>
<trkpt lat="49.26908299326897" lon="8.177654966711998">
<ele>142.39999999999998</ele>
<time>2023-05-17T14:05:07Z</time>
</trkpt>
<trkpt lat="49.26913797855377" lon="8.177652955055237">
<ele>142.20000000000005</ele>
<time>2023-05-17T14:05:08Z</time>
</trkpt>
<trkpt lat="49.2691919580102" lon="8.177649937570095">
<ele>142.20000000000005</ele>
<time>2023-05-17T14:05:09Z</time>
</trkpt>
<trkpt lat="49.26924493163824" lon="8.177642980590463">
<ele>142</ele>
<time>2023-05-17T14:05:10Z</time>
</trkpt>
<trkpt lat="49.269294971600175" lon="8.17763795144856">
<ele>142</ele>
<time>2023-05-17T14:05:11Z</time>
</trkpt>
<trkpt lat="49.269339982420206" lon="8.177634933963418">
<ele>141.79999999999995</ele>
<time>2023-05-17T14:05:12Z</time>
</trkpt>
<trkpt lat="49.26937694661319" lon="8.177631916478276">
<ele>141.79999999999995</ele>
<time>2023-05-17T14:05:13Z</time>
</trkpt>
<trkpt lat="49.26941198296845" lon="8.177627976983786">
<ele>141.60000000000002</ele>
<time>2023-05-17T14:05:14Z</time>
</trkpt>
<trkpt lat="49.269442996010184" lon="8.177619930356741">
<ele>141.60000000000002</ele>
<time>2023-05-17T14:05:15Z</time>
</trkpt>
<trkpt lat="49.26947291940451" lon="8.177606938406825">
<ele>141.39999999999998</ele>
<time>2023-05-17T14:05:16Z</time>
</trkpt>
<trkpt lat="49.26949798129499" lon="8.177591934800148">
<ele>141.39999999999998</ele>
<time>2023-05-17T14:05:17Z</time>
</trkpt>
<trkpt lat="49.26951793022454" lon="8.177561927586794">
<ele>141.20000000000005</ele>
<time>2023-05-17T14:05:18Z</time>
</trkpt>
<trkpt lat="49.26952991634607" lon="8.177517922595143">
<ele>141.20000000000005</ele>
<time>2023-05-17T14:05:19Z</time>
</trkpt>
<trkpt lat="49.269532933831215" lon="8.1774649489671">
<ele>141.20000000000005</ele>
<time>2023-05-17T14:05:20Z</time>
</trkpt>
<trkpt lat="49.269534945487976" lon="8.177409963682294">
<ele>141</ele>
<time>2023-05-17T14:05:21Z</time>
</trkpt>
<trkpt lat="49.26953997462988" lon="8.177349949255586">
<ele>141</ele>
<time>2023-05-17T14:05:22Z</time>
</trkpt>
<trkpt lat="49.26954299211502" lon="8.177284989506006">
<ele>140.79999999999995</ele>
<time>2023-05-17T14:05:23Z</time>
</trkpt>
<trkpt lat="49.26954693160951" lon="8.177219945937395">
<ele>140.79999999999995</ele>
<time>2023-05-17T14:05:24Z</time>
</trkpt>
<trkpt lat="49.26954299211502" lon="8.177156997844577">
<ele>140.79999999999995</ele>
<time>2023-05-17T14:05:25Z</time>
</trkpt>
<trkpt lat="49.26954299211502" lon="8.177092960104346">
<ele>140.79999999999995</ele>
<time>2023-05-17T14:05:26Z</time>
</trkpt>
<trkpt lat="49.26954299211502" lon="8.177026994526386">
<ele>140.79999999999995</ele>
<time>2023-05-17T14:05:27Z</time>
</trkpt>
<trkpt lat="49.26954693160951" lon="8.176966980099678">
<ele>140.79999999999995</ele>
<time>2023-05-17T14:05:28Z</time>
</trkpt>
<trkpt lat="49.26954491995275" lon="8.176904954016209">
<ele>140.60000000000002</ele>
<time>2023-05-17T14:05:29Z</time>
</trkpt>
<trkpt lat="49.26954299211502" lon="8.17684292793274">
<ele>140.60000000000002</ele>
<time>2023-05-17T14:05:30Z</time>
</trkpt>
<trkpt lat="49.26953796297312" lon="8.176781991496682">
<ele>140.60000000000002</ele>
<time>2023-05-17T14:05:31Z</time>
</trkpt>
<trkpt lat="49.269534945487976" lon="8.176717953756452">
<ele>140.60000000000002</ele>
<time>2023-05-17T14:05:32Z</time>
</trkpt>
<trkpt lat="49.269531928002834" lon="8.176654921844602">
<ele>140.60000000000002</ele>
<time>2023-05-17T14:05:33Z</time>
</trkpt>
<trkpt lat="49.2695249710232" lon="8.176591973751783">
<ele>140.60000000000002</ele>
<time>2023-05-17T14:05:34Z</time>
</trkpt>
<trkpt lat="49.26952295936644" lon="8.176527936011553">
<ele>140.60000000000002</ele>
<time>2023-05-17T14:05:35Z</time>
</trkpt>
<trkpt lat="49.2695249710232" lon="8.176466999575496">
<ele>140.60000000000002</ele>
<time>2023-05-17T14:05:36Z</time>
</trkpt>
<trkpt lat="49.26952991634607" lon="8.176407990977168">
<ele>140.79999999999995</ele>
<time>2023-05-17T14:05:37Z</time>
</trkpt>
<trkpt lat="49.26954198628664" lon="8.176357951015234">
<ele>140.79999999999995</ele>
<time>2023-05-17T14:05:38Z</time>
</trkpt>
<trkpt lat="49.2695579957217" lon="8.176316963508725">
<ele>140.79999999999995</ele>
<time>2023-05-17T14:05:39Z</time>
</trkpt>
<trkpt lat="49.26958196796477" lon="8.176282932981849">
<ele>140.79999999999995</ele>
<time>2023-05-17T14:05:40Z</time>
</trkpt>
<trkpt lat="49.26960493437946" lon="8.176257954910398">
<ele>140.79999999999995</ele>
<time>2023-05-17T14:05:41Z</time>
</trkpt>
<trkpt lat="49.26962496712804" lon="8.176224930211902">
<ele>140.79999999999995</ele>
<time>2023-05-17T14:05:42Z</time>
</trkpt>
<trkpt lat="49.26964994519949" lon="8.176194922998548">
<ele>140.79999999999995</ele>
<time>2023-05-17T14:05:43Z</time>
</trkpt>
<trkpt lat="49.26968799903989" lon="8.17617698572576">
<ele>140.79999999999995</ele>
<time>2023-05-17T14:05:44Z</time>
</trkpt>
<trkpt lat="49.26972798071802" lon="8.176162987947464">
<ele>141</ele>
<time>2023-05-17T14:05:45Z</time>
</trkpt>
<trkpt lat="49.26977299153805" lon="8.176151923835278">
<ele>141</ele>
<time>2023-05-17T14:05:46Z</time>
</trkpt>
<trkpt lat="49.26981791853905" lon="8.1761369202286">
<ele>141</ele>
<time>2023-05-17T14:05:47Z</time>
</trkpt>
<trkpt lat="49.26986292935908" lon="8.176119988784194">
<ele>141</ele>
<time>2023-05-17T14:05:48Z</time>
</trkpt>
<trkpt lat="49.26991196349263" lon="8.176101967692375">
<ele>141</ele>
<time>2023-05-17T14:05:49Z</time>
</trkpt>
<trkpt lat="49.269959991797805" lon="8.176091993227601">
<ele>141</ele>
<time>2023-05-17T14:05:50Z</time>
</trkpt>
<trkpt lat="49.270007936283946" lon="8.17608998157084">
<ele>141</ele>
<time>2023-05-17T14:05:51Z</time>
</trkpt>
<trkpt lat="49.2700569704175" lon="8.17608998157084">
<ele>141</ele>
<time>2023-05-17T14:05:52Z</time>
</trkpt>
<trkpt lat="49.27010298706591" lon="8.176084952428937">
<ele>141</ele>
<time>2023-05-17T14:05:53Z</time>
</trkpt>
<trkpt lat="49.27014799788594" lon="8.176074977964163">
<ele>141</ele>
<time>2023-05-17T14:05:54Z</time>
</trkpt>
<trkpt lat="49.2701949365437" lon="8.176064919680357">
<ele>141</ele>
<time>2023-05-17T14:05:55Z</time>
</trkpt>
<trkpt lat="49.270239947363734" lon="8.176054945215583">
<ele>141</ele>
<time>2023-05-17T14:05:56Z</time>
</trkpt>
<trkpt lat="49.270282946527004" lon="8.17604798823595">
<ele>141</ele>
<time>2023-05-17T14:05:57Z</time>
</trkpt>
<trkpt lat="49.27031798288226" lon="8.17602795548737">
<ele>141</ele>
<time>2023-05-17T14:05:58Z</time>
</trkpt>
<trkpt lat="49.27036198787391" lon="8.176017981022596">
<ele>141</ele>
<time>2023-05-17T14:05:59Z</time>
</trkpt>
<trkpt lat="49.27040196955204" lon="8.175999959930778">
<ele>141</ele>
<time>2023-05-17T14:06:00Z</time>
</trkpt>
<trkpt lat="49.27044698037207" lon="8.17598294466734">
<ele>141</ele>
<time>2023-05-17T14:06:01Z</time>
</trkpt>
<trkpt lat="49.2704919911921" lon="8.175967941060662">
<ele>141</ele>
<time>2023-05-17T14:06:02Z</time>
</trkpt>
<trkpt lat="49.27053499035537" lon="8.175952937453985">
<ele>141</ele>
<time>2023-05-17T14:06:03Z</time>
</trkpt>
<trkpt lat="49.27058192901313" lon="8.175937933847308">
<ele>141</ele>
<time>2023-05-17T14:06:04Z</time>
</trkpt>
<trkpt lat="49.27063297480345" lon="8.175932988524437">
<ele>141</ele>
<time>2023-05-17T14:06:05Z</time>
</trkpt>
<trkpt lat="49.27068695425987" lon="8.175927959382534">
<ele>141</ele>
<time>2023-05-17T14:06:06Z</time>
</trkpt>
<trkpt lat="49.27074294537306" lon="8.175924941897392">
<ele>140.79999999999995</ele>
<time>2023-05-17T14:06:07Z</time>
</trkpt>
<trkpt lat="49.270797930657864" lon="8.175912955775857">
<ele>140.79999999999995</ele>
<time>2023-05-17T14:06:08Z</time>
</trkpt>
<trkpt lat="49.27084696479142" lon="8.175902981311083">
<ele>140.60000000000002</ele>
<time>2023-05-17T14:06:09Z</time>
</trkpt>
<trkpt lat="49.2708979267627" lon="8.175906920805573">
<ele>140.60000000000002</ele>
<time>2023-05-17T14:06:10Z</time>
</trkpt>
<trkpt lat="49.27094494923949" lon="8.175922930240631">
<ele>140.39999999999998</ele>
<time>2023-05-17T14:06:11Z</time>
</trkpt>
<trkpt lat="49.270992977544665" lon="8.175936928018928">
<ele>140.39999999999998</ele>
<time>2023-05-17T14:06:12Z</time>
</trkpt>
<trkpt lat="49.271036982536316" lon="8.175931982696056">
<ele>140.39999999999998</ele>
<time>2023-05-17T14:06:13Z</time>
</trkpt>
<trkpt lat="49.271079981699586" lon="8.175919996574521">
<ele>140.39999999999998</ele>
<time>2023-05-17T14:06:14Z</time>
</trkpt>
<trkpt lat="49.27112499251962" lon="8.175906920805573">
<ele>140.39999999999998</ele>
<time>2023-05-17T14:06:15Z</time>
</trkpt>
<trkpt lat="49.27117293700576" lon="8.175894934684038">
<ele>140.39999999999998</ele>
<time>2023-05-17T14:06:16Z</time>
</trkpt>
<trkpt lat="49.27121995948255" lon="8.175881942734122">
<ele>140.39999999999998</ele>
<time>2023-05-17T14:06:17Z</time>
</trkpt>
<trkpt lat="49.27126698195934" lon="8.175864927470684">
<ele>140.39999999999998</ele>
<time>2023-05-17T14:06:18Z</time>
</trkpt>
<trkpt lat="49.271312998607755" lon="8.175847996026278">
<ele>140.39999999999998</ele>
<time>2023-05-17T14:06:19Z</time>
</trkpt>
<trkpt lat="49.27136194892228" lon="8.175827963277698">
<ele>140.39999999999998</ele>
<time>2023-05-17T14:06:20Z</time>
</trkpt>
<trkpt lat="49.27140997722745" lon="8.175806924700737">
<ele>140.39999999999998</ele>
<time>2023-05-17T14:06:21Z</time>
</trkpt>
<trkpt lat="49.27146194502711" lon="8.175786975771189">
<ele>140.39999999999998</ele>
<time>2023-05-17T14:06:22Z</time>
</trkpt>
<trkpt lat="49.27151491865516" lon="8.17576996050775">
<ele>140.39999999999998</ele>
<time>2023-05-17T14:06:23Z</time>
</trkpt>
<trkpt lat="49.27156697027385" lon="8.175754956901073">
<ele>140.39999999999998</ele>
<time>2023-05-17T14:06:24Z</time>
</trkpt>
<trkpt lat="49.2716199439019" lon="8.175736935809255">
<ele>140.39999999999998</ele>
<time>2023-05-17T14:06:25Z</time>
</trkpt>
<trkpt lat="49.27167291752994" lon="8.175721932202578">
<ele>140.39999999999998</ele>
<time>2023-05-17T14:06:26Z</time>
</trkpt>
<trkpt lat="49.2717269808054" lon="8.17570198327303">
<ele>140.39999999999998</ele>
<time>2023-05-17T14:06:27Z</time>
</trkpt>
<trkpt lat="49.27177794277668" lon="8.17568195052445">
<ele>140.39999999999998</ele>
<time>2023-05-17T14:06:28Z</time>
</trkpt>
<trkpt lat="49.271829994395375" lon="8.17565998993814">
<ele>140.39999999999998</ele>
<time>2023-05-17T14:06:29Z</time>
</trkpt>
<trkpt lat="49.27188196219504" lon="8.175636939704418">
<ele>140.39999999999998</ele>
<time>2023-05-17T14:06:30Z</time>
</trkpt>
<trkpt lat="49.271936947479844" lon="8.175614979118109">
<ele>140.39999999999998</ele>
<time>2023-05-17T14:06:31Z</time>
</trkpt>
<trkpt lat="49.27198992110789" lon="8.175594946369529">
<ele>140.39999999999998</ele>
<time>2023-05-17T14:06:32Z</time>
</trkpt>
<trkpt lat="49.27204197272658" lon="8.17557298578322">
<ele>140.39999999999998</ele>
<time>2023-05-17T14:06:33Z</time>
</trkpt>
<trkpt lat="49.272092934697866" lon="8.175546918064356">
<ele>140.39999999999998</ele>
<time>2023-05-17T14:06:34Z</time>
</trkpt>
<trkpt lat="49.2721429746598" lon="8.175512971356511">
<ele>140.39999999999998</ele>
<time>2023-05-17T14:06:35Z</time>
</trkpt>
<trkpt lat="49.2721929308027" lon="8.175476929172873">
<ele>140.39999999999998</ele>
<time>2023-05-17T14:06:36Z</time>
</trkpt>
<trkpt lat="49.272241964936256" lon="8.175434935837984">
<ele>140.39999999999998</ele>
<time>2023-05-17T14:06:37Z</time>
</trkpt>
<trkpt lat="49.27228999324143" lon="8.175392942503095">
<ele>140.39999999999998</ele>
<time>2023-05-17T14:06:38Z</time>
</trkpt>
<trkpt lat="49.27234196104109" lon="8.175354972481728">
<ele>140.39999999999998</ele>
<time>2023-05-17T14:06:39Z</time>
</trkpt>
<trkpt lat="49.272392923012376" lon="8.175316918641329">
<ele>140.39999999999998</ele>
<time>2023-05-17T14:06:40Z</time>
</trkpt>
<trkpt lat="49.27244497463107" lon="8.1752769369632">
<ele>140.39999999999998</ele>
<time>2023-05-17T14:06:41Z</time>
</trkpt>
<trkpt lat="49.272497948259115" lon="8.175236955285072">
<ele>140.39999999999998</ele>
<time>2023-05-17T14:06:42Z</time>
</trkpt>
<trkpt lat="49.27255192771554" lon="8.175194961950183">
<ele>140.39999999999998</ele>
<time>2023-05-17T14:06:43Z</time>
</trkpt>
<trkpt lat="49.27259995602071" lon="8.175151962786913">
<ele>140.39999999999998</ele>
<time>2023-05-17T14:06:44Z</time>
</trkpt>
<trkpt lat="49.272647984325886" lon="8.175107957795262">
<ele>140.39999999999998</ele>
<time>2023-05-17T14:06:45Z</time>
</trkpt>
<trkpt lat="49.27269299514592" lon="8.175064958631992">
<ele>140.39999999999998</ele>
<time>2023-05-17T14:06:46Z</time>
</trkpt>
<trkpt lat="49.272737922146916" lon="8.175019947811961">
<ele>140.39999999999998</ele>
<time>2023-05-17T14:06:47Z</time>
</trkpt>
<trkpt lat="49.27278293296695" lon="8.174976948648691">
<ele>140.39999999999998</ele>
<time>2023-05-17T14:06:48Z</time>
</trkpt>
<trkpt lat="49.27282794378698" lon="8.17493193782866">
<ele>140.39999999999998</ele>
<time>2023-05-17T14:06:49Z</time>
</trkpt>
<trkpt lat="49.27287295460701" lon="8.174882987514138">
<ele>140.39999999999998</ele>
<time>2023-05-17T14:06:50Z</time>
</trkpt>
<trkpt lat="49.27291796542704" lon="8.174837976694107">
<ele>140.39999999999998</ele>
<time>2023-05-17T14:06:51Z</time>
</trkpt>
<trkpt lat="49.27296297624707" lon="8.174791960045695">
<ele>140.39999999999998</ele>
<time>2023-05-17T14:06:52Z</time>
</trkpt>
<trkpt lat="49.27300698123872" lon="8.174747955054045">
<ele>140.39999999999998</ele>
<time>2023-05-17T14:06:53Z</time>
</trkpt>
<trkpt lat="49.27304998040199" lon="8.174704955890775">
<ele>140.39999999999998</ele>
<time>2023-05-17T14:06:54Z</time>
</trkpt>
<trkpt lat="49.27309197373688" lon="8.174661956727505">
<ele>140.39999999999998</ele>
<time>2023-05-17T14:06:55Z</time>
</trkpt>
<trkpt lat="49.27313497290015" lon="8.174617951735854">
<ele>140.39999999999998</ele>
<time>2023-05-17T14:06:56Z</time>
</trkpt>
<trkpt lat="49.27317797206342" lon="8.174572940915823">
<ele>140.39999999999998</ele>
<time>2023-05-17T14:06:57Z</time>
</trkpt>
<trkpt lat="49.27322197705507" lon="8.174529941752553">
<ele>140.39999999999998</ele>
<time>2023-05-17T14:06:58Z</time>
</trkpt>
<trkpt lat="49.27326497621834" lon="8.174484930932522">
<ele>140.39999999999998</ele>
<time>2023-05-17T14:06:59Z</time>
</trkpt>
<trkpt lat="49.273309987038374" lon="8.17443992011249">
<ele>140.39999999999998</ele>
<time>2023-05-17T14:07:00Z</time>
</trkpt>
<trkpt lat="49.273352986201644" lon="8.17439692094922">
<ele>140.39999999999998</ele>
<time>2023-05-17T14:07:01Z</time>
</trkpt>
<trkpt lat="49.273396991193295" lon="8.174351993948221">
<ele>140.39999999999998</ele>
<time>2023-05-17T14:07:02Z</time>
</trkpt>
<trkpt lat="49.273441918194294" lon="8.17430698312819">
<ele>140.39999999999998</ele>
<time>2023-05-17T14:07:03Z</time>
</trkpt>
<trkpt lat="49.273486929014325" lon="8.1742649897933">
<ele>140.39999999999998</ele>
<time>2023-05-17T14:07:04Z</time>
</trkpt>
<trkpt lat="49.273531939834356" lon="8.17422492429614">
<ele>140.39999999999998</ele>
<time>2023-05-17T14:07:05Z</time>
</trkpt>
<trkpt lat="49.27357695065439" lon="8.174184942618012">
<ele>140.39999999999998</ele>
<time>2023-05-17T14:07:06Z</time>
</trkpt>
<trkpt lat="49.27361994981766" lon="8.174147978425026">
<ele>140.39999999999998</ele>
<time>2023-05-17T14:07:07Z</time>
</trkpt>
<trkpt lat="49.27366294898093" lon="8.174107996746898">
<ele>140.39999999999998</ele>
<time>2023-05-17T14:07:08Z</time>
</trkpt>
<trkpt lat="49.27370795980096" lon="8.174069942906499">
<ele>140.60000000000002</ele>
<time>2023-05-17T14:07:09Z</time>
</trkpt>
<trkpt lat="49.27375297062099" lon="8.174031972885132">
<ele>140.60000000000002</ele>
<time>2023-05-17T14:07:10Z</time>
</trkpt>
<trkpt lat="49.27379999309778" lon="8.173996936529875">
<ele>140.60000000000002</ele>
<time>2023-05-17T14:07:11Z</time>
</trkpt>
<trkpt lat="49.27384492009878" lon="8.173959972336888">
<ele>140.60000000000002</ele>
<time>2023-05-17T14:07:12Z</time>
</trkpt>
<trkpt lat="49.273891942575574" lon="8.173926947638392">
<ele>140.60000000000002</ele>
<time>2023-05-17T14:07:13Z</time>
</trkpt>
<trkpt lat="49.273937959223986" lon="8.173894928768277">
<ele>140.60000000000002</ele>
<time>2023-05-17T14:07:14Z</time>
</trkpt>
<trkpt lat="49.27398498170078" lon="8.173864921554923">
<ele>140.60000000000002</ele>
<time>2023-05-17T14:07:15Z</time>
</trkpt>
<trkpt lat="49.27403292618692" lon="8.17383692599833">
<ele>140.60000000000002</ele>
<time>2023-05-17T14:07:16Z</time>
</trkpt>
<trkpt lat="49.27407994866371" lon="8.173807924613357">
<ele>140.60000000000002</ele>
<time>2023-05-17T14:07:17Z</time>
</trkpt>
<trkpt lat="49.274129988625646" lon="8.173781940713525">
<ele>140.60000000000002</ele>
<time>2023-05-17T14:07:18Z</time>
</trkpt>
<trkpt lat="49.27417793311179" lon="8.173757968470454">
<ele>140.60000000000002</ele>
<time>2023-05-17T14:07:19Z</time>
</trkpt>
<trkpt lat="49.27422696724534" lon="8.173732990399003">
<ele>140.60000000000002</ele>
<time>2023-05-17T14:07:20Z</time>
</trkpt>
<trkpt lat="49.27427692338824" lon="8.17370792850852">
<ele>140.60000000000002</ele>
<time>2023-05-17T14:07:21Z</time>
</trkpt>
<trkpt lat="49.274324951693416" lon="8.173687979578972">
<ele>140.60000000000002</ele>
<time>2023-05-17T14:07:22Z</time>
</trkpt>
<trkpt lat="49.27437297999859" lon="8.173666941002011">
<ele>140.60000000000002</ele>
<time>2023-05-17T14:07:23Z</time>
</trkpt>
<trkpt lat="49.27441991865635" lon="8.173646992072463">
<ele>140.60000000000002</ele>
<time>2023-05-17T14:07:24Z</time>
</trkpt>
<trkpt lat="49.27446794696152" lon="8.173624947667122">
<ele>140.60000000000002</ele>
<time>2023-05-17T14:07:25Z</time>
</trkpt>
<trkpt lat="49.274516981095076" lon="8.173604998737574">
<ele>140.79999999999995</ele>
<time>2023-05-17T14:07:26Z</time>
</trkpt>
<trkpt lat="49.27456492558122" lon="8.173586977645755">
<ele>140.79999999999995</ele>
<time>2023-05-17T14:07:27Z</time>
</trkpt>
<trkpt lat="49.27461295388639" lon="8.173571974039078">
<ele>140.79999999999995</ele>
<time>2023-05-17T14:07:28Z</time>
</trkpt>
<trkpt lat="49.27466198801994" lon="8.17355495877564">
<ele>140.79999999999995</ele>
<time>2023-05-17T14:07:29Z</time>
</trkpt>
<trkpt lat="49.27470792084932" lon="8.173542972654104">
<ele>140.79999999999995</ele>
<time>2023-05-17T14:07:30Z</time>
</trkpt>
<trkpt lat="49.274754943326116" lon="8.173529980704188">
<ele>140.79999999999995</ele>
<time>2023-05-17T14:07:31Z</time>
</trkpt>
<trkpt lat="49.274797942489386" lon="8.173514977097511">
<ele>141</ele>
<time>2023-05-17T14:07:32Z</time>
</trkpt>
<trkpt lat="49.274837924167514" lon="8.173501985147595">
<ele>141</ele>
<time>2023-05-17T14:07:33Z</time>
</trkpt>
<trkpt lat="49.27487195469439" lon="8.17349192686379">
<ele>141</ele>
<time>2023-05-17T14:07:34Z</time>
</trkpt>
<trkpt lat="49.27489995025098" lon="8.173484969884157">
<ele>141.20000000000005</ele>
<time>2023-05-17T14:07:35Z</time>
</trkpt>
<trkpt lat="49.274924928322434" lon="8.173477929085493">
<ele>141.20000000000005</ele>
<time>2023-05-17T14:07:36Z</time>
</trkpt>
<trkpt lat="49.274946972727776" lon="8.173471977934241">
<ele>141.20000000000005</ele>
<time>2023-05-17T14:07:37Z</time>
</trkpt>
<trkpt lat="49.27497195079923" lon="8.173467954620719">
<ele>141.39999999999998</ele>
<time>2023-05-17T14:07:38Z</time>
</trkpt>
<trkpt lat="49.27499994635582" lon="8.173461919650435">
<ele>141.39999999999998</ele>
<time>2023-05-17T14:07:39Z</time>
</trkpt>
<trkpt lat="49.27503699436784" lon="8.173454962670803">
<ele>141.39999999999998</ele>
<time>2023-05-17T14:07:40Z</time>
</trkpt>
<trkpt lat="49.27508192136884" lon="8.173444988206029">
<ele>141.20000000000005</ele>
<time>2023-05-17T14:07:41Z</time>
</trkpt>
<trkpt lat="49.27513196133077" lon="8.173432918265462">
<ele>141.20000000000005</ele>
<time>2023-05-17T14:07:42Z</time>
</trkpt>
<trkpt lat="49.275184934958816" lon="8.17342797294259">
<ele>141.20000000000005</ele>
<time>2023-05-17T14:07:43Z</time>
</trkpt>
<trkpt lat="49.27523698657751" lon="8.17342696711421">
<ele>141.20000000000005</ele>
<time>2023-05-17T14:07:44Z</time>
</trkpt>
<trkpt lat="49.27528694272041" lon="8.173421937972307">
<ele>141.20000000000005</ele>
<time>2023-05-17T14:07:45Z</time>
</trkpt>
<trkpt lat="49.275331953540444" lon="8.173414980992675">
<ele>141.20000000000005</ele>
<time>2023-05-17T14:07:46Z</time>
</trkpt>
<trkpt lat="49.275374952703714" lon="8.173409951850772">
<ele>141.20000000000005</ele>
<time>2023-05-17T14:07:47Z</time>
</trkpt>
<trkpt lat="49.27542298100889" lon="8.17340299487114">
<ele>141</ele>
<time>2023-05-17T14:07:48Z</time>
</trkpt>
<trkpt lat="49.27546991966665" lon="8.173397965729237">
<ele>141</ele>
<time>2023-05-17T14:07:49Z</time>
</trkpt>
<trkpt lat="49.27551694214344" lon="8.173391930758953">
<ele>141</ele>
<time>2023-05-17T14:07:50Z</time>
</trkpt>
<trkpt lat="49.27556497044861" lon="8.173386985436082">
<ele>141</ele>
<time>2023-05-17T14:07:51Z</time>
</trkpt>
<trkpt lat="49.2756069637835" lon="8.173381956294179">
<ele>141</ele>
<time>2023-05-17T14:07:52Z</time>
</trkpt>
<trkpt lat="49.27564996294677" lon="8.173369970172644">
<ele>141</ele>
<time>2023-05-17T14:07:53Z</time>
</trkpt>
<trkpt lat="49.275696985423565" lon="8.17335999570787">
<ele>141</ele>
<time>2023-05-17T14:07:54Z</time>
</trkpt>
<trkpt lat="49.27574694156647" lon="8.173352954909205">
<ele>141</ele>
<time>2023-05-17T14:07:55Z</time>
</trkpt>
<trkpt lat="49.27579496987164" lon="8.173342980444431">
<ele>141</ele>
<time>2023-05-17T14:07:56Z</time>
</trkpt>
<trkpt lat="49.27584199234843" lon="8.17333996295929">
<ele>141</ele>
<time>2023-05-17T14:07:57Z</time>
</trkpt>
<trkpt lat="49.275889936834574" lon="8.173337951302528">
<ele>141</ele>
<time>2023-05-17T14:07:58Z</time>
</trkpt>
<trkpt lat="49.27593997679651" lon="8.173334933817387">
<ele>141</ele>
<time>2023-05-17T14:07:59Z</time>
</trkpt>
<trkpt lat="49.27599295042455" lon="8.173326971009374">
<ele>141</ele>
<time>2023-05-17T14:08:00Z</time>
</trkpt>
<trkpt lat="49.27604793570936" lon="8.17331993021071">
<ele>141</ele>
<time>2023-05-17T14:08:01Z</time>
</trkpt>
<trkpt lat="49.27609998732805" lon="8.1733169965446">
<ele>141.20000000000005</ele>
<time>2023-05-17T14:08:02Z</time>
</trkpt>
<trkpt lat="49.27614692598581" lon="8.173309955745935">
<ele>141.20000000000005</ele>
<time>2023-05-17T14:08:03Z</time>
</trkpt>
<trkpt lat="49.276192942634225" lon="8.173302998766303">
<ele>141.20000000000005</ele>
<time>2023-05-17T14:08:04Z</time>
</trkpt>
<trkpt lat="49.276236947625875" lon="8.173292940482497">
<ele>141.39999999999998</ele>
<time>2023-05-17T14:08:05Z</time>
</trkpt>
<trkpt lat="49.27628698758781" lon="8.173281960189342">
<ele>141.39999999999998</ele>
<time>2023-05-17T14:08:06Z</time>
</trkpt>
<trkpt lat="49.276339961215854" lon="8.173272991552949">
<ele>141.60000000000002</ele>
<time>2023-05-17T14:08:07Z</time>
</trkpt>
<trkpt lat="49.276389917358756" lon="8.173266956582665">
<ele>141.60000000000002</ele>
<time>2023-05-17T14:08:08Z</time>
</trkpt>
<trkpt lat="49.27643995732069" lon="8.173259999603033">
<ele>141.79999999999995</ele>
<time>2023-05-17T14:08:09Z</time>
</trkpt>
<trkpt lat="49.27648798562586" lon="8.173252958804369">
<ele>142</ele>
<time>2023-05-17T14:08:10Z</time>
</trkpt>
<trkpt lat="49.27654196508229" lon="8.173247929662466">
<ele>142</ele>
<time>2023-05-17T14:08:11Z</time>
</trkpt>
<trkpt lat="49.276597956195474" lon="8.173242984339595">
<ele>142.20000000000005</ele>
<time>2023-05-17T14:08:12Z</time>
</trkpt>
<trkpt lat="49.27664992399514" lon="8.173237955197692">
<ele>142.20000000000005</ele>
<time>2023-05-17T14:08:13Z</time>
</trkpt>
<trkpt lat="49.276704993098974" lon="8.17323493771255">
<ele>142.39999999999998</ele>
<time>2023-05-17T14:08:14Z</time>
</trkpt>
<trkpt lat="49.27676199004054" lon="8.173229992389679">
<ele>142.60000000000002</ele>
<time>2023-05-17T14:08:15Z</time>
</trkpt>
<trkpt lat="49.276814963668585" lon="8.173222951591015">
<ele>142.60000000000002</ele>
<time>2023-05-17T14:08:16Z</time>
</trkpt>
<trkpt lat="49.27686693146825" lon="8.173216916620731">
<ele>142.79999999999995</ele>
<time>2023-05-17T14:08:17Z</time>
</trkpt>
<trkpt lat="49.27691495977342" lon="8.173209959641099">
<ele>142.79999999999995</ele>
<time>2023-05-17T14:08:18Z</time>
</trkpt>
<trkpt lat="49.27695997059345" lon="8.173201996833086">
<ele>142.79999999999995</ele>
<time>2023-05-17T14:08:19Z</time>
</trkpt>
<trkpt lat="49.277006993070245" lon="8.173197973519564">
<ele>142.79999999999995</ele>
<time>2023-05-17T14:08:20Z</time>
</trkpt>
<trkpt lat="49.277047980576754" lon="8.173194956034422">
<ele>142.79999999999995</ele>
<time>2023-05-17T14:08:21Z</time>
</trkpt>
<trkpt lat="49.27708494476974" lon="8.17319193854928">
<ele>142.79999999999995</ele>
<time>2023-05-17T14:08:22Z</time>
</trkpt>
<trkpt lat="49.27712299861014" lon="8.173182969912887">
<ele>142.79999999999995</ele>
<time>2023-05-17T14:08:23Z</time>
</trkpt>
<trkpt lat="49.277157951146364" lon="8.173176934942603">
<ele>142.60000000000002</ele>
<time>2023-05-17T14:08:24Z</time>
</trkpt>
<trkpt lat="49.27719198167324" lon="8.17316997796297">
<ele>142.60000000000002</ele>
<time>2023-05-17T14:08:25Z</time>
</trkpt>
<trkpt lat="49.27721796557307" lon="8.173166960477829">
<ele>142.60000000000002</ele>
<time>2023-05-17T14:08:26Z</time>
</trkpt>
<trkpt lat="49.27723799832165" lon="8.173161931335926">
<ele>142.60000000000002</ele>
<time>2023-05-17T14:08:27Z</time>
</trkpt>
<trkpt lat="49.27725995890796" lon="8.173156986013055">
<ele>142.60000000000002</ele>
<time>2023-05-17T14:08:28Z</time>
</trkpt>
<trkpt lat="49.2772769741714" lon="8.17314793355763">
<ele>142.60000000000002</ele>
<time>2023-05-17T14:08:29Z</time>
</trkpt>
<trkpt lat="49.27729792892933" lon="8.173141982406378">
<ele>142.60000000000002</ele>
<time>2023-05-17T14:08:30Z</time>
</trkpt>
<trkpt lat="49.27731997333467" lon="8.173137959092855">
<ele>142.60000000000002</ele>
<time>2023-05-17T14:08:31Z</time>
</trkpt>
<trkpt lat="49.27734193392098" lon="8.173139970749617">
<ele>142.60000000000002</ele>
<time>2023-05-17T14:08:32Z</time>
</trkpt>
<trkpt lat="49.2773649841547" lon="8.173141982406378">
<ele>142.60000000000002</ele>
<time>2023-05-17T14:08:33Z</time>
</trkpt>
<trkpt lat="49.27738996222615" lon="8.173142988234758">
<ele>142.60000000000002</ele>
<time>2023-05-17T14:08:34Z</time>
</trkpt>
<trkpt lat="49.27740999497473" lon="8.173142988234758">
<ele>142.60000000000002</ele>
<time>2023-05-17T14:08:35Z</time>
</trkpt>
<trkpt lat="49.27742692641914" lon="8.173139970749617">
<ele>142.39999999999998</ele>
<time>2023-05-17T14:08:36Z</time>
</trkpt>
<trkpt lat="49.277434973046184" lon="8.173134941607714">
<ele>142.39999999999998</ele>
<time>2023-05-17T14:08:37Z</time>
</trkpt>
<trkpt lat="49.277436984702945" lon="8.173134941607714">
<ele>142.39999999999998</ele>
<time>2023-05-17T14:08:39Z</time>
</trkpt>
<trkpt lat="49.277437990531325" lon="8.173136953264475">
<ele>142.20000000000005</ele>
<time>2023-05-17T14:08:40Z</time>
</trkpt>
<trkpt lat="49.277497921139" lon="8.17314499989152">
<ele>142</ele>
<time>2023-05-17T14:08:40Z</time>
</trkpt>
<trkpt lat="49.277527928352356" lon="8.173139970749617">
<ele>142</ele>
<time>2023-05-17T14:08:41Z</time>
</trkpt>
<trkpt lat="49.27756195887923" lon="8.173134941607714">
<ele>142</ele>
<time>2023-05-17T14:08:42Z</time>
</trkpt>
<trkpt lat="49.27759498357773" lon="8.173131924122572">
<ele>142</ele>
<time>2023-05-17T14:08:43Z</time>
</trkpt>
<trkpt lat="49.277631947770715" lon="8.173127984628081">
<ele>142</ele>
<time>2023-05-17T14:08:44Z</time>
</trkpt>
<trkpt lat="49.27766497246921" lon="8.17312496714294">
<ele>142</ele>
<time>2023-05-17T14:08:45Z</time>
</trkpt>
<trkpt lat="49.27769799716771" lon="8.17312496714294">
<ele>142</ele>
<time>2023-05-17T14:08:46Z</time>
</trkpt>
<trkpt lat="49.27773194387555" lon="8.17312496714294">
<ele>142</ele>
<time>2023-05-17T14:08:47Z</time>
</trkpt>
<trkpt lat="49.277762956917286" lon="8.173119938001037">
<ele>142</ele>
<time>2023-05-17T14:08:48Z</time>
</trkpt>
<trkpt lat="49.27779296413064" lon="8.173119938001037">
<ele>142</ele>
<time>2023-05-17T14:08:49Z</time>
</trkpt>
<trkpt lat="49.27782699465752" lon="8.173122955486178">
<ele>142</ele>
<time>2023-05-17T14:08:50Z</time>
</trkpt>
<trkpt lat="49.27785792388022" lon="8.173127984628081">
<ele>142</ele>
<time>2023-05-17T14:08:51Z</time>
</trkpt>
<trkpt lat="49.277887931093574" lon="8.173132929950953">
<ele>142</ele>
<time>2023-05-17T14:08:52Z</time>
</trkpt>
<trkpt lat="49.27791994996369" lon="8.173141982406378">
<ele>142</ele>
<time>2023-05-17T14:08:53Z</time>
</trkpt>
<trkpt lat="49.27794995717704" lon="8.17314793355763">
<ele>142</ele>
<time>2023-05-17T14:08:54Z</time>
</trkpt>
<trkpt lat="49.27798692137003" lon="8.173157991841435">
<ele>142</ele>
<time>2023-05-17T14:08:55Z</time>
</trkpt>
<trkpt lat="49.27802296355367" lon="8.17316796630621">
<ele>141.79999999999995</ele>
<time>2023-05-17T14:08:56Z</time>
</trkpt>
<trkpt lat="49.27806696854532" lon="8.173176934942603">
<ele>141.79999999999995</ele>
<time>2023-05-17T14:08:57Z</time>
</trkpt>
<trkpt lat="49.27811298519373" lon="8.173189926892519">
<ele>141.79999999999995</ele>
<time>2023-05-17T14:08:58Z</time>
</trkpt>
<trkpt lat="49.27816193550825" lon="8.17321197129786">
<ele>141.79999999999995</ele>
<time>2023-05-17T14:08:59Z</time>
</trkpt>
<trkpt lat="49.27820795215666" lon="8.173236949369311">
<ele>141.79999999999995</ele>
<time>2023-05-17T14:09:00Z</time>
</trkpt>
<trkpt lat="49.278254974633455" lon="8.17325497046113">
<ele>141.60000000000002</ele>
<time>2023-05-17T14:09:01Z</time>
</trkpt>
<trkpt lat="49.278297973796725" lon="8.17327693104744">
<ele>141.60000000000002</ele>
<time>2023-05-17T14:09:02Z</time>
</trkpt>
<trkpt lat="49.27834499627352" lon="8.173294952139258">
<ele>141.60000000000002</ele>
<time>2023-05-17T14:09:03Z</time>
</trkpt>
<trkpt lat="49.27838799543679" lon="8.1733169965446">
<ele>141.60000000000002</ele>
<time>2023-05-17T14:09:04Z</time>
</trkpt>
<trkpt lat="49.27843292243779" lon="8.173336945474148">
<ele>141.60000000000002</ele>
<time>2023-05-17T14:09:05Z</time>
</trkpt>
<trkpt lat="49.27848195657134" lon="8.17335999570787">
<ele>141.60000000000002</ele>
<time>2023-05-17T14:09:06Z</time>
</trkpt>
<trkpt lat="49.27852797321975" lon="8.173392936587334">
<ele>141.60000000000002</ele>
<time>2023-05-17T14:09:07Z</time>
</trkpt>
<trkpt lat="49.278574995696545" lon="8.173429984599352">
<ele>141.60000000000002</ele>
<time>2023-05-17T14:09:08Z</time>
</trkpt>
<trkpt lat="49.278617994859815" lon="8.173464937135577">
<ele>141.60000000000002</ele>
<time>2023-05-17T14:09:09Z</time>
</trkpt>
<trkpt lat="49.278662921860814" lon="8.173497961834073">
<ele>141.60000000000002</ele>
<time>2023-05-17T14:09:10Z</time>
</trkpt>
<trkpt lat="49.278709944337606" lon="8.173529980704188">
<ele>141.60000000000002</ele>
<time>2023-05-17T14:09:11Z</time>
</trkpt>
<trkpt lat="49.2787569668144" lon="8.173557976260781">
<ele>141.60000000000002</ele>
<time>2023-05-17T14:09:12Z</time>
</trkpt>
<trkpt lat="49.27880197763443" lon="8.173584965988994">
<ele>141.60000000000002</ele>
<time>2023-05-17T14:09:13Z</time>
</trkpt>
<trkpt lat="49.27884799428284" lon="8.173609944060445">
<ele>141.60000000000002</ele>
<time>2023-05-17T14:09:14Z</time>
</trkpt>
<trkpt lat="49.27889292128384" lon="8.173631988465786">
<ele>141.60000000000002</ele>
<time>2023-05-17T14:09:15Z</time>
</trkpt>
<trkpt lat="49.27893793210387" lon="8.173651937395334">
<ele>141.60000000000002</ele>
<time>2023-05-17T14:09:16Z</time>
</trkpt>
<trkpt lat="49.278984954580665" lon="8.173671970143914">
<ele>141.60000000000002</ele>
<time>2023-05-17T14:09:17Z</time>
</trkpt>
<trkpt lat="49.279029965400696" lon="8.173687979578972">
<ele>141.60000000000002</ele>
<time>2023-05-17T14:09:18Z</time>
</trkpt>
<trkpt lat="49.27907497622073" lon="8.173702983185649">
<ele>141.60000000000002</ele>
<time>2023-05-17T14:09:19Z</time>
</trkpt>
<trkpt lat="49.279117975384" lon="8.173712957650423">
<ele>141.60000000000002</ele>
<time>2023-05-17T14:09:20Z</time>
</trkpt>
<trkpt lat="49.279159968718886" lon="8.173721926286817">
<ele>141.60000000000002</ele>
<time>2023-05-17T14:09:21Z</time>
</trkpt>
<trkpt lat="49.27920699119568" lon="8.173729972913861">
<ele>141.60000000000002</ele>
<time>2023-05-17T14:09:22Z</time>
</trkpt>
<trkpt lat="49.27925694733858" lon="8.173739947378635">
<ele>141.39999999999998</ele>
<time>2023-05-17T14:09:23Z</time>
</trkpt>
<trkpt lat="49.279307993128896" lon="8.173752939328551">
<ele>141.39999999999998</ele>
<time>2023-05-17T14:09:24Z</time>
</trkpt>
<trkpt lat="49.27935996092856" lon="8.173764925450087">
<ele>141.39999999999998</ele>
<time>2023-05-17T14:09:25Z</time>
</trkpt>
<trkpt lat="49.27941192872822" lon="8.173774983733892">
<ele>141.39999999999998</ele>
<time>2023-05-17T14:09:26Z</time>
</trkpt>
<trkpt lat="49.27946297451854" lon="8.173784958198667">
<ele>141.39999999999998</ele>
<time>2023-05-17T14:09:27Z</time>
</trkpt>
<trkpt lat="49.27950798533857" lon="8.17379292100668">
<ele>141.20000000000005</ele>
<time>2023-05-17T14:09:28Z</time>
</trkpt>
<trkpt lat="49.27955199033022" lon="8.173797950148582">
<ele>141.20000000000005</ele>
<time>2023-05-17T14:09:29Z</time>
</trkpt>
<trkpt lat="49.27959197200835" lon="8.173799961805344">
<ele>141.20000000000005</ele>
<time>2023-05-17T14:09:30Z</time>
</trkpt>
<trkpt lat="49.279631953686476" lon="8.17379199899733">
<ele>141.20000000000005</ele>
<time>2023-05-17T14:09:31Z</time>
</trkpt>
<trkpt lat="49.279671935364604" lon="8.173776995390654">
<ele>141.20000000000005</ele>
<time>2023-05-17T14:09:32Z</time>
</trkpt>
<trkpt lat="49.27971191704273" lon="8.173766937106848">
<ele>141.20000000000005</ele>
<time>2023-05-17T14:09:33Z</time>
</trkpt>
<trkpt lat="49.27975198253989" lon="8.173757968470454">
<ele>141.20000000000005</ele>
<time>2023-05-17T14:09:34Z</time>
</trkpt>
<trkpt lat="49.27979196421802" lon="8.173756962642074">
<ele>141.20000000000005</ele>
<time>2023-05-17T14:09:35Z</time>
</trkpt>
<trkpt lat="49.27983496338129" lon="8.173756962642074">
<ele>141.20000000000005</ele>
<time>2023-05-17T14:09:36Z</time>
</trkpt>
<trkpt lat="49.27987695671618" lon="8.173761991783977">
<ele>141.20000000000005</ele>
<time>2023-05-17T14:09:37Z</time>
</trkpt>
<trkpt lat="49.27991995587945" lon="8.173767942935228">
<ele>141.20000000000005</ele>
<time>2023-05-17T14:09:38Z</time>
</trkpt>
<trkpt lat="49.27996194921434" lon="8.17377196624875">
<ele>141.20000000000005</ele>
<time>2023-05-17T14:09:39Z</time>
</trkpt>
<trkpt lat="49.28000193089247" lon="8.173776995390654">
<ele>141.20000000000005</ele>
<time>2023-05-17T14:09:40Z</time>
</trkpt>
<trkpt lat="49.280039984732866" lon="8.173782946541905">
<ele>141.20000000000005</ele>
<time>2023-05-17T14:09:41Z</time>
</trkpt>
<trkpt lat="49.28007493726909" lon="8.17378998734057">
<ele>141.20000000000005</ele>
<time>2023-05-17T14:09:42Z</time>
</trkpt>
<trkpt lat="49.28010796196759" lon="8.173799961805344">
<ele>141.20000000000005</ele>
<time>2023-05-17T14:09:43Z</time>
</trkpt>
<trkpt lat="49.280141992494464" lon="8.173802979290485">
<ele>141.20000000000005</ele>
<time>2023-05-17T14:09:44Z</time>
</trkpt>
<trkpt lat="49.28017493337393" lon="8.173804990947247">
<ele>141.20000000000005</ele>
<time>2023-05-17T14:09:45Z</time>
</trkpt>
<trkpt lat="49.280207958072424" lon="8.173807924613357">
<ele>141.20000000000005</ele>
<time>2023-05-17T14:09:46Z</time>
</trkpt>
<trkpt lat="49.28023997694254" lon="8.173817982897162">
<ele>141.20000000000005</ele>
<time>2023-05-17T14:09:47Z</time>
</trkpt>
<trkpt lat="49.280271995812654" lon="8.17383298650384">
<ele>141.20000000000005</ele>
<time>2023-05-17T14:09:48Z</time>
</trkpt>
<trkpt lat="49.28030694834888" lon="8.173851929605007">
<ele>141.20000000000005</ele>
<time>2023-05-17T14:09:49Z</time>
</trkpt>
<trkpt lat="49.28034198470414" lon="8.173859976232052">
<ele>141.20000000000005</ele>
<time>2023-05-17T14:09:50Z</time>
</trkpt>
<trkpt lat="49.28037693724036" lon="8.173864921554923">
<ele>141.20000000000005</ele>
<time>2023-05-17T14:09:51Z</time>
</trkpt>
<trkpt lat="49.2804079502821" lon="8.173864921554923">
<ele>141.20000000000005</ele>
<time>2023-05-17T14:09:52Z</time>
</trkpt>
<trkpt lat="49.28044198080897" lon="8.173864921554923">
<ele>141.20000000000005</ele>
<time>2023-05-17T14:09:53Z</time>
</trkpt>
<trkpt lat="49.28047793917358" lon="8.173867939040065">
<ele>141.20000000000005</ele>
<time>2023-05-17T14:09:54Z</time>
</trkpt>
<trkpt lat="49.280512975528836" lon="8.173872968181968">
<ele>141.20000000000005</ele>
<time>2023-05-17T14:09:55Z</time>
</trkpt>
<trkpt lat="49.28054993972182" lon="8.173874979838729">
<ele>141.20000000000005</ele>
<time>2023-05-17T14:09:56Z</time>
</trkpt>
<trkpt lat="49.28058698773384" lon="8.17387699149549">
<ele>141.20000000000005</ele>
<time>2023-05-17T14:09:57Z</time>
</trkpt>
<trkpt lat="49.28062495775521" lon="8.17387699149549">
<ele>141.20000000000005</ele>
<time>2023-05-17T14:09:58Z</time>
</trkpt>
<trkpt lat="49.2806669510901" lon="8.1738799251616">
<ele>141.20000000000005</ele>
<time>2023-05-17T14:09:59Z</time>
</trkpt>
<trkpt lat="49.280702993273735" lon="8.1738799251616">
<ele>141.20000000000005</ele>
<time>2023-05-17T14:10:00Z</time>
</trkpt>
<trkpt lat="49.28073693998158" lon="8.173872968181968">
<ele>141.20000000000005</ele>
<time>2023-05-17T14:10:01Z</time>
</trkpt>
<trkpt lat="49.280769964680076" lon="8.173871962353587">
<ele>141.39999999999998</ele>
<time>2023-05-17T14:10:02Z</time>
</trkpt>
<trkpt lat="49.2808049172163" lon="8.173869950696826">
<ele>141.39999999999998</ele>
<time>2023-05-17T14:10:03Z</time>
</trkpt>
<trkpt lat="49.28084196522832" lon="8.173869950696826">
<ele>141.39999999999998</ele>
<time>2023-05-17T14:10:04Z</time>
</trkpt>
<trkpt lat="49.28088194690645" lon="8.173867939040065">
<ele>141.39999999999998</ele>
<time>2023-05-17T14:10:05Z</time>
</trkpt>
<trkpt lat="49.280921928584576" lon="8.173864921554923">
<ele>141.60000000000002</ele>
<time>2023-05-17T14:10:06Z</time>
</trkpt>
<trkpt lat="49.280964927747846" lon="8.173867939040065">
<ele>141.60000000000002</ele>
<time>2023-05-17T14:10:07Z</time>
</trkpt>
<trkpt lat="49.281006921082735" lon="8.173869950696826">
<ele>141.60000000000002</ele>
<time>2023-05-17T14:10:08Z</time>
</trkpt>
<trkpt lat="49.28104296326637" lon="8.173864921554923">
<ele>141.79999999999995</ele>
<time>2023-05-17T14:10:09Z</time>
</trkpt>
<trkpt lat="49.28107297047973" lon="8.17385695874691">
<ele>141.79999999999995</ele>
<time>2023-05-17T14:10:10Z</time>
</trkpt>
<trkpt lat="49.28110297769308" lon="8.173849917948246">
<ele>141.79999999999995</ele>
<time>2023-05-17T14:10:11Z</time>
</trkpt>
<trkpt lat="49.281131979078054" lon="8.173841955140233">
<ele>142</ele>
<time>2023-05-17T14:10:12Z</time>
</trkpt>
<trkpt lat="49.28116491995752" lon="8.173827957361937">
<ele>142</ele>
<time>2023-05-17T14:10:13Z</time>
</trkpt>
<trkpt lat="49.28119492717087" lon="8.173819994553924">
<ele>142</ele>
<time>2023-05-17T14:10:14Z</time>
</trkpt>
<trkpt lat="49.28122996352613" lon="8.173811947926879">
<ele>142.20000000000005</ele>
<time>2023-05-17T14:10:15Z</time>
</trkpt>
<trkpt lat="49.2812679335475" lon="8.173804990947247">
<ele>142.20000000000005</ele>
<time>2023-05-17T14:10:16Z</time>
</trkpt>
<trkpt lat="49.281302969902754" lon="8.17379493266344">
<ele>142.39999999999998</ele>
<time>2023-05-17T14:10:17Z</time>
</trkpt>
<trkpt lat="49.2813369166106" lon="8.173782946541905">
<ele>142.39999999999998</ele>
<time>2023-05-17T14:10:18Z</time>
</trkpt>
<trkpt lat="49.28136499598622" lon="8.17376995459199">
<ele>142.60000000000002</ele>
<time>2023-05-17T14:10:19Z</time>
</trkpt>
<trkpt lat="49.28140196017921" lon="8.173767942935228">
<ele>142.60000000000002</ele>
<time>2023-05-17T14:10:20Z</time>
</trkpt>
<trkpt lat="49.281431967392564" lon="8.173767942935228">
<ele>142.79999999999995</ele>
<time>2023-05-17T14:10:21Z</time>
</trkpt>
<trkpt lat="49.28146691992879" lon="8.173761991783977">
<ele>143</ele>
<time>2023-05-17T14:10:22Z</time>
</trkpt>
<trkpt lat="49.28150497376919" lon="8.173754950985312">
<ele>143.20000000000005</ele>
<time>2023-05-17T14:10:23Z</time>
</trkpt>
<trkpt lat="49.281541937962174" lon="8.17375193350017">
<ele>143.20000000000005</ele>
<time>2023-05-17T14:10:24Z</time>
</trkpt>
<trkpt lat="49.28157295100391" lon="8.173754950985312">
<ele>143.20000000000005</ele>
<time>2023-05-17T14:10:25Z</time>
</trkpt>
<trkpt lat="49.28160295821726" lon="8.173754950985312">
<ele>143.20000000000005</ele>
<time>2023-05-17T14:10:26Z</time>
</trkpt>
<trkpt lat="49.28163296543062" lon="8.17375193350017">
<ele>143.20000000000005</ele>
<time>2023-05-17T14:10:27Z</time>
</trkpt>
<trkpt lat="49.28166196681559" lon="8.173737935721874">
<ele>143.20000000000005</ele>
<time>2023-05-17T14:10:28Z</time>
</trkpt>
<trkpt lat="49.28168694488704" lon="8.173729972913861">
<ele>143.20000000000005</ele>
<time>2023-05-17T14:10:29Z</time>
</trkpt>
<trkpt lat="49.28171192295849" lon="8.173721926286817">
<ele>143.20000000000005</ele>
<time>2023-05-17T14:10:30Z</time>
</trkpt>
<trkpt lat="49.281736984848976" lon="8.173716980963945">
<ele>143.39999999999998</ele>
<time>2023-05-17T14:10:31Z</time>
</trkpt>
<trkpt lat="49.28176196292043" lon="8.173712957650423">
<ele>143.39999999999998</ele>
<time>2023-05-17T14:10:32Z</time>
</trkpt>
<trkpt lat="49.28179197013378" lon="8.173712957650423">
<ele>143.39999999999998</ele>
<time>2023-05-17T14:10:33Z</time>
</trkpt>
<trkpt lat="49.281819965690374" lon="8.173722932115197">
<ele>143.39999999999998</ele>
<time>2023-05-17T14:10:34Z</time>
</trkpt>
<trkpt lat="49.281842932105064" lon="8.173724943771958">
<ele>143.39999999999998</ele>
<time>2023-05-17T14:10:35Z</time>
</trkpt>
<trkpt lat="49.281864976510406" lon="8.173724943771958">
<ele>143.60000000000002</ele>
<time>2023-05-17T14:10:36Z</time>
</trkpt>
<trkpt lat="49.28189196623862" lon="8.173719998449087">
<ele>143.60000000000002</ele>
<time>2023-05-17T14:10:37Z</time>
</trkpt>
<trkpt lat="49.281907975673676" lon="8.173714969307184">
<ele>143.60000000000002</ele>
<time>2023-05-17T14:10:38Z</time>
</trkpt>
<trkpt lat="49.281929936259985" lon="8.173711951822042">
<ele>143.60000000000002</ele>
<time>2023-05-17T14:10:39Z</time>
</trkpt>
<trkpt lat="49.281947957351804" lon="8.17370792850852">
<ele>143.60000000000002</ele>
<time>2023-05-17T14:10:40Z</time>
</trkpt>
<trkpt lat="49.2819619551301" lon="8.173709940165281">
<ele>143.60000000000002</ele>
<time>2023-05-17T14:10:41Z</time>
</trkpt>
<trkpt lat="49.281972935423255" lon="8.17370792850852">
<ele>143.60000000000002</ele>
<time>2023-05-17T14:10:42Z</time>
</trkpt>
<trkpt lat="49.28197695873678" lon="8.17370692268014">
<ele>143.60000000000002</ele>
<time>2023-05-17T14:10:43Z</time>
</trkpt>
<trkpt lat="49.28197796456516" lon="8.17370499484241">
<ele>143.60000000000002</ele>
<time>2023-05-17T14:10:44Z</time>
</trkpt>
<trkpt lat="49.28197997622192" lon="8.17370499484241">
<ele>143.60000000000002</ele>
<time>2023-05-17T14:10:45Z</time>
</trkpt>
<trkpt lat="49.282011995092034" lon="8.173694936558604">
<ele>143.79999999999995</ele>
<time>2023-05-17T14:10:46Z</time>
</trkpt>
<trkpt lat="49.28203194402158" lon="8.173689991235733">
<ele>143.79999999999995</ele>
<time>2023-05-17T14:10:47Z</time>
</trkpt>
<trkpt lat="49.28205298259854" lon="8.173686973750591">
<ele>143.79999999999995</ele>
<time>2023-05-17T14:10:48Z</time>
</trkpt>
<trkpt lat="49.282076954841614" lon="8.17368496209383">
<ele>143.79999999999995</ele>
<time>2023-05-17T14:10:49Z</time>
</trkpt>
<trkpt lat="49.28210696205497" lon="8.173681944608688">
<ele>143.79999999999995</ele>
<time>2023-05-17T14:10:50Z</time>
</trkpt>
<trkpt lat="49.28213495761156" lon="8.173681944608688">
<ele>143.79999999999995</ele>
<time>2023-05-17T14:10:51Z</time>
</trkpt>
<trkpt lat="49.282164964824915" lon="8.173677921295166">
<ele>143.79999999999995</ele>
<time>2023-05-17T14:10:52Z</time>
</trkpt>
<trkpt lat="49.2822019290179" lon="8.173672975972295">
<ele>143.79999999999995</ele>
<time>2023-05-17T14:10:53Z</time>
</trkpt>
<trkpt lat="49.2822399828583" lon="8.173667946830392">
<ele>143.79999999999995</ele>
<time>2023-05-17T14:10:54Z</time>
</trkpt>
<trkpt lat="49.28228197619319" lon="8.173666941002011">
<ele>144</ele>
<time>2023-05-17T14:10:55Z</time>
</trkpt>
<trkpt lat="49.28231994621456" lon="8.173666941002011">
<ele>144</ele>
<time>2023-05-17T14:10:56Z</time>
</trkpt>
<trkpt lat="49.28236294537783" lon="8.173669958487153">
<ele>144</ele>
<time>2023-05-17T14:10:57Z</time>
</trkpt>
<trkpt lat="49.28240795619786" lon="8.173666941002011">
<ele>144.20000000000005</ele>
<time>2023-05-17T14:10:58Z</time>
</trkpt>
<trkpt lat="49.28245296701789" lon="8.173666941002011">
<ele>144.20000000000005</ele>
<time>2023-05-17T14:10:59Z</time>
</trkpt>
<trkpt lat="49.28249797783792" lon="8.173667946830392">
<ele>144.20000000000005</ele>
<time>2023-05-17T14:11:00Z</time>
</trkpt>
<trkpt lat="49.28254198282957" lon="8.173667946830392">
<ele>144.39999999999998</ele>
<time>2023-05-17T14:11:01Z</time>
</trkpt>
<trkpt lat="49.28258992731571" lon="8.173671970143914">
<ele>144.39999999999998</ele>
<time>2023-05-17T14:11:02Z</time>
</trkpt>
<trkpt lat="49.282636949792504" lon="8.173679932951927">
<ele>144.60000000000002</ele>
<time>2023-05-17T14:11:03Z</time>
</trkpt>
<trkpt lat="49.282679948955774" lon="8.173682950437069">
<ele>144.60000000000002</ele>
<time>2023-05-17T14:11:04Z</time>
</trkpt>
<trkpt lat="49.282724959775805" lon="8.173682950437069">
<ele>144.60000000000002</ele>
<time>2023-05-17T14:11:05Z</time>
</trkpt>
<trkpt lat="49.282764941453934" lon="8.173681944608688">
<ele>144.79999999999995</ele>
<time>2023-05-17T14:11:06Z</time>
</trkpt>
<trkpt lat="49.28280299529433" lon="8.173677921295166">
<ele>144.79999999999995</ele>
<time>2023-05-17T14:11:07Z</time>
</trkpt>
<trkpt lat="49.28284691646695" lon="8.173676999285817">
<ele>144.79999999999995</ele>
<time>2023-05-17T14:11:08Z</time>
</trkpt>
<trkpt lat="49.28289293311536" lon="8.173679932951927">
<ele>145</ele>
<time>2023-05-17T14:11:09Z</time>
</trkpt>
<trkpt lat="49.282937943935394" lon="8.173682950437069">
<ele>145</ele>
<time>2023-05-17T14:11:10Z</time>
</trkpt>
<trkpt lat="49.28297792561352" lon="8.173681944608688">
<ele>145</ele>
<time>2023-05-17T14:11:11Z</time>
</trkpt>
<trkpt lat="49.28301991894841" lon="8.173679932951927">
<ele>145.20000000000005</ele>
<time>2023-05-17T14:11:12Z</time>
</trkpt>
<trkpt lat="49.28305797278881" lon="8.173674987629056">
<ele>145.20000000000005</ele>
<time>2023-05-17T14:11:13Z</time>
</trkpt>
<trkpt lat="49.2830949369818" lon="8.173672975972295">
<ele>145.20000000000005</ele>
<time>2023-05-17T14:11:14Z</time>
</trkpt>
<trkpt lat="49.28313693031669" lon="8.173676999285817">
<ele>145.39999999999998</ele>
<time>2023-05-17T14:11:15Z</time>
</trkpt>
<trkpt lat="49.283177917823195" lon="8.173667946830392">
<ele>145.39999999999998</ele>
<time>2023-05-17T14:11:16Z</time>
</trkpt>
<trkpt lat="49.283214965835214" lon="8.17366199567914">
<ele>145.60000000000002</ele>
<time>2023-05-17T14:11:17Z</time>
</trkpt>
<trkpt lat="49.28324991837144" lon="8.173666941002011">
<ele>145.60000000000002</ele>
<time>2023-05-17T14:11:18Z</time>
</trkpt>
<trkpt lat="49.283284954726696" lon="8.173669958487153">
<ele>145.60000000000002</ele>
<time>2023-05-17T14:11:19Z</time>
</trkpt>
<trkpt lat="49.28331194445491" lon="8.173679932951927">
<ele>145.79999999999995</ele>
<time>2023-05-17T14:11:20Z</time>
</trkpt>
<trkpt lat="49.2833399400115" lon="8.173712957650423">
<ele>145.79999999999995</ele>
<time>2023-05-17T14:11:21Z</time>
</trkpt>
<trkpt lat="49.283369947224855" lon="8.173754950985312">
<ele>145.79999999999995</ele>
<time>2023-05-17T14:11:22Z</time>
</trkpt>
<trkpt lat="49.28341797553003" lon="8.173797950148582">
<ele>146</ele>
<time>2023-05-17T14:11:23Z</time>
</trkpt>
<trkpt lat="49.28345996886492" lon="8.173824939876795">
<ele>146</ele>
<time>2023-05-17T14:11:24Z</time>
</trkpt>
<trkpt lat="49.28350196219981" lon="8.17383298650384">
<ele>146.20000000000005</ele>
<time>2023-05-17T14:11:25Z</time>
</trkpt>
<trkpt lat="49.2835349868983" lon="8.173819994553924">
<ele>146.20000000000005</ele>
<time>2023-05-17T14:11:26Z</time>
</trkpt>
<trkpt lat="49.283561976626515" lon="8.17379199899733">
<ele>146.39999999999998</ele>
<time>2023-05-17T14:11:27Z</time>
</trkpt>
<trkpt lat="49.28357798606157" lon="8.17375193350017">
<ele>146.39999999999998</ele>
<time>2023-05-17T14:11:28Z</time>
</trkpt>
<trkpt lat="49.28358695469797" lon="8.17370692268014">
<ele>146.39999999999998</ele>
<time>2023-05-17T14:11:29Z</time>
</trkpt>
<trkpt lat="49.283584943041205" lon="8.17366492934525">
<ele>146.60000000000002</ele>
<time>2023-05-17T14:11:30Z</time>
</trkpt>
<trkpt lat="49.283581925556064" lon="8.173619918525219">
<ele>146.60000000000002</ele>
<time>2023-05-17T14:11:31Z</time>
</trkpt>
<trkpt lat="49.28357295691967" lon="8.173571974039078">
<ele>146.60000000000002</ele>
<time>2023-05-17T14:11:32Z</time>
</trkpt>
<trkpt lat="49.28356993943453" lon="8.173517994582653">
<ele>146.60000000000002</ele>
<time>2023-05-17T14:11:33Z</time>
</trkpt>
<trkpt lat="49.28357295691967" lon="8.173461919650435">
<ele>146.79999999999995</ele>
<time>2023-05-17T14:11:34Z</time>
</trkpt>
<trkpt lat="49.283581925556064" lon="8.17340299487114">
<ele>146.79999999999995</ele>
<time>2023-05-17T14:11:35Z</time>
</trkpt>
<trkpt lat="49.28359198383987" lon="8.173342980444431">
<ele>146.79999999999995</ele>
<time>2023-05-17T14:11:36Z</time>
</trkpt>
<trkpt lat="49.283601958304644" lon="8.173284977674484">
<ele>146.79999999999995</ele>
<time>2023-05-17T14:11:37Z</time>
</trkpt>
<trkpt lat="49.28361193276942" lon="8.173227980732918">
<ele>147</ele>
<time>2023-05-17T14:11:38Z</time>
</trkpt>
<trkpt lat="49.283622996881604" lon="8.17316796630621">
<ele>147</ele>
<time>2023-05-17T14:11:39Z</time>
</trkpt>
<trkpt lat="49.28363297134638" lon="8.173107951879501">
<ele>147</ele>
<time>2023-05-17T14:11:40Z</time>
</trkpt>
<trkpt lat="49.28364294581115" lon="8.173047937452793">
<ele>147</ele>
<time>2023-05-17T14:11:41Z</time>
</trkpt>
<trkpt lat="49.28365199826658" lon="8.172987923026085">
<ele>147</ele>
<time>2023-05-17T14:11:42Z</time>
</trkpt>
<trkpt lat="49.28366197273135" lon="8.172929920256138">
<ele>147.20000000000005</ele>
<time>2023-05-17T14:11:43Z</time>
</trkpt>
<trkpt lat="49.283667923882604" lon="8.17287191748619">
<ele>147.20000000000005</ele>
<time>2023-05-17T14:11:44Z</time>
</trkpt>
<trkpt lat="49.28367496468127" lon="8.172809975221753">
<ele>147.20000000000005</ele>
<time>2023-05-17T14:11:45Z</time>
</trkpt>
<trkpt lat="49.28368292748928" lon="8.172747949138284">
<ele>147.20000000000005</ele>
<time>2023-05-17T14:11:46Z</time>
</trkpt>
<trkpt lat="49.283689968287945" lon="8.172686928883195">
<ele>147.20000000000005</ele>
<time>2023-05-17T14:11:47Z</time>
</trkpt>
<trkpt lat="49.28369793109596" lon="8.172626998275518">
<ele>147.20000000000005</ele>
<time>2023-05-17T14:11:48Z</time>
</trkpt>
<trkpt lat="49.28370698355138" lon="8.172564972192049">
<ele>147.20000000000005</ele>
<time>2023-05-17T14:11:49Z</time>
</trkpt>
<trkpt lat="49.28371796384454" lon="8.17250294610858">
<ele>147.39999999999998</ele>
<time>2023-05-17T14:11:50Z</time>
</trkpt>
<trkpt lat="49.28372693248093" lon="8.172439998015761">
<ele>147.39999999999998</ele>
<time>2023-05-17T14:11:51Z</time>
</trkpt>
<trkpt lat="49.283732967451215" lon="8.172377971932292">
<ele>147.39999999999998</ele>
<time>2023-05-17T14:11:52Z</time>
</trkpt>
<trkpt lat="49.28374294191599" lon="8.172316951677203">
<ele>147.39999999999998</ele>
<time>2023-05-17T14:11:53Z</time>
</trkpt>
<trkpt lat="49.283751994371414" lon="8.172257943078876">
<ele>147.39999999999998</ele>
<time>2023-05-17T14:11:54Z</time>
</trkpt>
<trkpt lat="49.283757945522666" lon="8.172196922823787">
<ele>147.60000000000002</ele>
<time>2023-05-17T14:11:55Z</time>
</trkpt>
<trkpt lat="49.28376498632133" lon="8.172141937538981">
<ele>147.60000000000002</ele>
<time>2023-05-17T14:11:56Z</time>
</trkpt>
<trkpt lat="49.28377998992801" lon="8.17209692671895">
<ele>147.60000000000002</ele>
<time>2023-05-17T14:11:57Z</time>
</trkpt>
<trkpt lat="49.28380195051432" lon="8.172062980011106">
<ele>147.60000000000002</ele>
<time>2023-05-17T14:11:58Z</time>
</trkpt>
<trkpt lat="49.2838219832629" lon="8.172039929777384">
<ele>147.60000000000002</ele>
<time>2023-05-17T14:11:59Z</time>
</trkpt>
<trkpt lat="49.283836986869574" lon="8.172021992504597">
<ele>147.60000000000002</ele>
<time>2023-05-17T14:12:00Z</time>
</trkpt>
<trkpt lat="49.28384696133435" lon="8.172004977241158">
<ele>147.60000000000002</ele>
<time>2023-05-17T14:12:01Z</time>
</trkpt>
<trkpt lat="49.28384796716273" lon="8.172001959756017">
<ele>147.60000000000002</ele>
<time>2023-05-17T14:12:02Z</time>
</trkpt>
<trkpt lat="49.28384696133435" lon="8.172001959756017">
<ele>147.79999999999995</ele>
<time>2023-05-17T14:12:03Z</time>
</trkpt>
<trkpt lat="49.28385199047625" lon="8.172004977241158">
<ele>147.79999999999995</ele>
<time>2023-05-17T14:12:06Z</time>
</trkpt>
<trkpt lat="49.28385693579912" lon="8.1720079947263">
<ele>147.79999999999995</ele>
<time>2023-05-17T14:12:07Z</time>
</trkpt>
<trkpt lat="49.283862970769405" lon="8.172012940049171">
<ele>147.79999999999995</ele>
<time>2023-05-17T14:12:08Z</time>
</trkpt>
<trkpt lat="49.2838719394058" lon="8.172016963362694">
<ele>148</ele>
<time>2023-05-17T14:12:09Z</time>
</trkpt>
<trkpt lat="49.28387797437608" lon="8.172022998332977">
<ele>148</ele>
<time>2023-05-17T14:12:10Z</time>
</trkpt>
<trkpt lat="49.283881997689605" lon="8.172022998332977">
<ele>148</ele>
<time>2023-05-17T14:12:11Z</time>
</trkpt>
<trkpt lat="49.28388794884086" lon="8.172024926170707">
<ele>148</ele>
<time>2023-05-17T14:12:12Z</time>
</trkpt>
<trkpt lat="49.28388794884086" lon="8.172021992504597">
<ele>148</ele>
<time>2023-05-17T14:12:13Z</time>
</trkpt>
<trkpt lat="49.28388996049762" lon="8.17202995531261">
<ele>148</ele>
<time>2023-05-17T14:12:13Z</time>
</trkpt>
<trkpt lat="49.28389197215438" lon="8.17203196696937">
<ele>148</ele>
<time>2023-05-17T14:12:14Z</time>
</trkpt>
<trkpt lat="49.28389498963952" lon="8.172032972797751">
<ele>148</ele>
<time>2023-05-17T14:12:15Z</time>
</trkpt>
<trkpt lat="49.28389691747725" lon="8.172042947262526">
<ele>148</ele>
<time>2023-05-17T14:12:16Z</time>
</trkpt>
<trkpt lat="49.28389792330563" lon="8.17204998806119">
<ele>148</ele>
<time>2023-05-17T14:12:17Z</time>
</trkpt>
<trkpt lat="49.283969923853874" lon="8.172047976404428">
<ele>148</ele>
<time>2023-05-17T14:12:17Z</time>
</trkpt>
<trkpt lat="49.283969923853874" lon="8.172042947262526">
<ele>148</ele>
<time>2023-05-17T14:12:18Z</time>
</trkpt>
<trkpt lat="49.283969923853874" lon="8.172032972797751">
<ele>148</ele>
<time>2023-05-17T14:12:19Z</time>
</trkpt>
<trkpt lat="49.283969923853874" lon="8.172024926170707">
<ele>148</ele>
<time>2023-05-17T14:12:20Z</time>
</trkpt>
<trkpt lat="49.283966990187764" lon="8.172017969191074">
<ele>148</ele>
<time>2023-05-17T14:12:21Z</time>
</trkpt>
<trkpt lat="49.283971935510635" lon="8.17201193422079">
<ele>148</ele>
<time>2023-05-17T14:12:22Z</time>
</trkpt>
<trkpt lat="49.283964978531" lon="8.171994918957353">
<ele>148</ele>
<time>2023-05-17T14:12:23Z</time>
</trkpt>
<trkpt lat="49.28395198658109" lon="8.171982932835817">
<ele>148</ele>
<time>2023-05-17T14:12:24Z</time>
</trkpt>
<trkpt lat="49.28392197936773" lon="8.17198796197772">
<ele>148</ele>
<time>2023-05-17T14:12:25Z</time>
</trkpt>
<trkpt lat="49.28389197215438" lon="8.17198796197772">
<ele>148</ele>
<time>2023-05-17T14:12:26Z</time>
</trkpt>
<trkpt lat="49.28387797437608" lon="8.171999948099256">
<ele>148</ele>
<time>2023-05-17T14:12:27Z</time>
</trkpt>
<trkpt lat="49.28386699408293" lon="8.17201193422079">
<ele>148</ele>
<time>2023-05-17T14:12:28Z</time>
</trkpt>
<trkpt lat="49.28386699408293" lon="8.172014951705933">
<ele>148</ele>
<time>2023-05-17T14:12:29Z</time>
</trkpt>
<trkpt lat="49.283879986032844" lon="8.172016963362694">
<ele>148</ele>
<time>2023-05-17T14:12:30Z</time>
</trkpt>
<trkpt lat="49.28389297798276" lon="8.172014951705933">
<ele>148</ele>
<time>2023-05-17T14:12:31Z</time>
</trkpt>
<trkpt lat="49.28389297798276" lon="8.172019980847836">
<ele>148</ele>
<time>2023-05-17T14:12:32Z</time>
</trkpt>
<trkpt lat="49.283904964104295" lon="8.17202995531261">
<ele>148</ele>
<time>2023-05-17T14:12:33Z</time>
</trkpt>
<trkpt lat="49.28395793773234" lon="8.172042947262526">
<ele>148</ele>
<time>2023-05-17T14:12:34Z</time>
</trkpt>
<trkpt lat="49.28397998213768" lon="8.172046970576048">
<ele>148.20000000000005</ele>
<time>2023-05-17T14:12:35Z</time>
</trkpt>
<trkpt lat="49.28399791941047" lon="8.172062980011106">
<ele>148.20000000000005</ele>
<time>2023-05-17T14:12:36Z</time>
</trkpt>
<trkpt lat="49.28398199379444" lon="8.172046970576048">
<ele>148.20000000000005</ele>
<time>2023-05-17T14:12:37Z</time>
</trkpt>
<trkpt lat="49.28398299962282" lon="8.172047976404428">
<ele>148.20000000000005</ele>
<time>2023-05-17T14:12:38Z</time>
</trkpt>
<trkpt lat="49.28397696465254" lon="8.17205493338406">
<ele>148.20000000000005</ele>
<time>2023-05-17T14:12:39Z</time>
</trkpt>
<trkpt lat="49.283972941339016" lon="8.172061974182725">
<ele>148.20000000000005</ele>
<time>2023-05-17T14:12:40Z</time>
</trkpt>
<trkpt lat="49.28396296687424" lon="8.172056945040822">
<ele>148.20000000000005</ele>
<time>2023-05-17T14:12:41Z</time>
</trkpt>
<trkpt lat="49.28395793773234" lon="8.17205199971795">
<ele>148.20000000000005</ele>
<time>2023-05-17T14:12:42Z</time>
</trkpt>
<trkpt lat="49.28395299240947" lon="8.17204998806119">
<ele>148.20000000000005</ele>
<time>2023-05-17T14:12:43Z</time>
</trkpt>
<trkpt lat="49.2839549202472" lon="8.1720529217273">
<ele>148.20000000000005</ele>
<time>2023-05-17T14:12:44Z</time>
</trkpt>
<trkpt lat="49.28395299240947" lon="8.17204998806119">
<ele>148.20000000000005</ele>
<time>2023-05-17T14:12:45Z</time>
</trkpt>
<trkpt lat="49.28395198658109" lon="8.172047976404428">
<ele>148.20000000000005</ele>
<time>2023-05-17T14:12:47Z</time>
</trkpt>
<trkpt lat="49.28395693190396" lon="8.172129951417446">
<ele>148.39999999999998</ele>
<time>2023-05-17T14:12:47Z</time>
</trkpt>
<trkpt lat="49.28396296687424" lon="8.172129951417446">
<ele>148.39999999999998</ele>
<time>2023-05-17T14:12:48Z</time>
</trkpt>
<trkpt lat="49.283969923853874" lon="8.172129951417446">
<ele>148.39999999999998</ele>
<time>2023-05-17T14:12:49Z</time>
</trkpt>
<trkpt lat="49.28397998213768" lon="8.172132968902588">
<ele>148.39999999999998</ele>
<time>2023-05-17T14:12:50Z</time>
</trkpt>
<trkpt lat="49.28398794494569" lon="8.172134980559349">
<ele>148.39999999999998</ele>
<time>2023-05-17T14:12:51Z</time>
</trkpt>
<trkpt lat="49.28399699740112" lon="8.172129951417446">
<ele>148.39999999999998</ele>
<time>2023-05-17T14:12:52Z</time>
</trkpt>
<trkpt lat="49.28400194272399" lon="8.172121988609433">
<ele>148.39999999999998</ele>
<time>2023-05-17T14:12:53Z</time>
</trkpt>
<trkpt lat="49.284009989351034" lon="8.172114947810769">
<ele>148.39999999999998</ele>
<time>2023-05-17T14:12:54Z</time>
</trkpt>
<trkpt lat="49.28401694633067" lon="8.172111930325627">
<ele>148.39999999999998</ele>
<time>2023-05-17T14:12:55Z</time>
</trkpt>
<trkpt lat="49.28401694633067" lon="8.172109918668866">
<ele>148.39999999999998</ele>
<time>2023-05-17T14:12:56Z</time>
</trkpt>
<trkpt lat="49.28401694633067" lon="8.172107990831137">
<ele>148.39999999999998</ele>
<time>2023-05-17T14:12:57Z</time>
</trkpt>
<trkpt lat="49.284012923017144" lon="8.172104973345995">
<ele>148.39999999999998</ele>
<time>2023-05-17T14:12:58Z</time>
</trkpt>
<trkpt lat="49.28400797769427" lon="8.172104973345995">
<ele>148.39999999999998</ele>
<time>2023-05-17T14:12:59Z</time>
</trkpt>
<trkpt lat="49.28400496020913" lon="8.172104973345995">
<ele>148.39999999999998</ele>
<time>2023-05-17T14:13:01Z</time>
</trkpt>
<trkpt lat="49.28400294855237" lon="8.172104973345995">
<ele>148.39999999999998</ele>
<time>2023-05-17T14:13:02Z</time>
</trkpt>
<trkpt lat="49.284012923017144" lon="8.172091981396079">
<ele>148.20000000000005</ele>
<time>2023-05-17T14:13:02Z</time>
</trkpt>
<trkpt lat="49.28401996381581" lon="8.17209298722446">
<ele>148.20000000000005</ele>
<time>2023-05-17T14:13:03Z</time>
</trkpt>
<trkpt lat="49.28402499295771" lon="8.17209298722446">
<ele>148.20000000000005</ele>
<time>2023-05-17T14:13:04Z</time>
</trkpt>
<trkpt lat="49.28402993828058" lon="8.172091981396079">
<ele>148.20000000000005</ele>
<time>2023-05-17T14:13:05Z</time>
</trkpt>
<trkpt lat="49.284031949937344" lon="8.172089969739318">
<ele>148.20000000000005</ele>
<time>2023-05-17T14:13:06Z</time>
</trkpt>
<trkpt lat="49.284032955765724" lon="8.172089969739318">
<ele>148.20000000000005</ele>
<time>2023-05-17T14:13:07Z</time>
</trkpt>
<trkpt lat="49.28389297798276" lon="8.172091981396079">
<ele>148.39999999999998</ele>
<time>2023-05-17T14:13:07Z</time>
</trkpt>
<trkpt lat="49.283881997689605" lon="8.17209692671895">
<ele>148.39999999999998</ele>
<time>2023-05-17T14:13:11Z</time>
</trkpt>
<trkpt lat="49.28386699408293" lon="8.17209499888122">
<ele>148.39999999999998</ele>
<time>2023-05-17T14:13:12Z</time>
</trkpt>
<trkpt lat="49.28384796716273" lon="8.172087958082557">
<ele>148.39999999999998</ele>
<time>2023-05-17T14:13:13Z</time>
</trkpt>
<trkpt lat="49.28383195772767" lon="8.172071948647499">
<ele>148.39999999999998</ele>
<time>2023-05-17T14:13:14Z</time>
</trkpt>
<trkpt lat="49.283817959949374" lon="8.17204998806119">
<ele>148.39999999999998</ele>
<time>2023-05-17T14:13:15Z</time>
</trkpt>
<trkpt lat="49.28381293080747" lon="8.172022998332977">
<ele>148.39999999999998</ele>
<time>2023-05-17T14:13:16Z</time>
</trkpt>
<trkpt lat="49.28381293080747" lon="8.171991985291243">
<ele>148.39999999999998</ele>
<time>2023-05-17T14:13:17Z</time>
</trkpt>
<trkpt lat="49.28381293080747" lon="8.171957954764366">
<ele>148.39999999999998</ele>
<time>2023-05-17T14:13:18Z</time>
</trkpt>
<trkpt lat="49.283816954120994" lon="8.17192291840911">
<ele>148.39999999999998</ele>
<time>2023-05-17T14:13:19Z</time>
</trkpt>
<trkpt lat="49.2838219832629" lon="8.17187991924584">
<ele>148.39999999999998</ele>
<time>2023-05-17T14:13:20Z</time>
</trkpt>
<trkpt lat="49.28382491692901" lon="8.171832980588078">
<ele>148.39999999999998</ele>
<time>2023-05-17T14:13:21Z</time>
</trkpt>
<trkpt lat="49.28382793441415" lon="8.171786963939667">
<ele>148.39999999999998</ele>
<time>2023-05-17T14:13:22Z</time>
</trkpt>
<trkpt lat="49.28383195772767" lon="8.171732984483242">
<ele>148.39999999999998</ele>
<time>2023-05-17T14:13:23Z</time>
</trkpt>
<trkpt lat="49.28383497521281" lon="8.171677999198437">
<ele>148.39999999999998</ele>
<time>2023-05-17T14:13:24Z</time>
</trkpt>
<trkpt lat="49.283836986869574" lon="8.17162192426622">
<ele>148.39999999999998</ele>
<time>2023-05-17T14:13:25Z</time>
</trkpt>
<trkpt lat="49.283839920535684" lon="8.171564927324653">
<ele>148.39999999999998</ele>
<time>2023-05-17T14:13:26Z</time>
</trkpt>
<trkpt lat="49.28384494967759" lon="8.171507930383086">
<ele>148.39999999999998</ele>
<time>2023-05-17T14:13:27Z</time>
</trkpt>
<trkpt lat="49.28384997881949" lon="8.17144992761314">
<ele>148.39999999999998</ele>
<time>2023-05-17T14:13:28Z</time>
</trkpt>
<trkpt lat="49.28385492414236" lon="8.171391924843192">
<ele>148.39999999999998</ele>
<time>2023-05-17T14:13:29Z</time>
</trkpt>
<trkpt lat="49.2838579416275" lon="8.171334927901626">
<ele>148.39999999999998</ele>
<time>2023-05-17T14:13:30Z</time>
</trkpt>
<trkpt lat="49.283862970769405" lon="8.171281954273582">
<ele>148.60000000000002</ele>
<time>2023-05-17T14:13:31Z</time>
</trkpt>
<trkpt lat="49.28386699408293" lon="8.171226968988776">
<ele>148.60000000000002</ele>
<time>2023-05-17T14:13:32Z</time>
</trkpt>
<trkpt lat="49.28386992774904" lon="8.171171983703971">
<ele>148.60000000000002</ele>
<time>2023-05-17T14:13:33Z</time>
</trkpt>
<trkpt lat="49.2838719394058" lon="8.171122949570417">
<ele>148.60000000000002</ele>
<time>2023-05-17T14:13:34Z</time>
</trkpt>
<trkpt lat="49.28387797437608" lon="8.171074921265244">
<ele>148.79999999999995</ele>
<time>2023-05-17T14:13:35Z</time>
</trkpt>
<trkpt lat="49.28389297798276" lon="8.171029994264245">
<ele>148.79999999999995</ele>
<time>2023-05-17T14:13:36Z</time>
</trkpt>
<trkpt lat="49.2839099932462" lon="8.170991940423846">
<ele>148.79999999999995</ele>
<time>2023-05-17T14:13:37Z</time>
</trkpt>
<trkpt lat="49.28391996771097" lon="8.170947935432196">
<ele>148.79999999999995</ele>
<time>2023-05-17T14:13:38Z</time>
</trkpt>
<trkpt lat="49.283927930518985" lon="8.170899990946054">
<ele>148.79999999999995</ele>
<time>2023-05-17T14:13:39Z</time>
</trkpt>
<trkpt lat="49.28393497131765" lon="8.17084793932736">
<ele>148.79999999999995</ele>
<time>2023-05-17T14:13:40Z</time>
</trkpt>
<trkpt lat="49.28394192829728" lon="8.170796977356076">
<ele>148.79999999999995</ele>
<time>2023-05-17T14:13:41Z</time>
</trkpt>
<trkpt lat="49.283946957439184" lon="8.170744925737381">
<ele>148.79999999999995</ele>
<time>2023-05-17T14:13:42Z</time>
</trkpt>
<trkpt lat="49.283949974924326" lon="8.170692957937717">
<ele>148.79999999999995</ele>
<time>2023-05-17T14:13:43Z</time>
</trkpt>
<trkpt lat="49.2839549202472" lon="8.170636966824532">
<ele>149</ele>
<time>2023-05-17T14:13:44Z</time>
</trkpt>
<trkpt lat="49.28395793773234" lon="8.170577958226204">
<ele>149</ele>
<time>2023-05-17T14:13:45Z</time>
</trkpt>
<trkpt lat="49.28396296687424" lon="8.170521967113018">
<ele>149</ele>
<time>2023-05-17T14:13:46Z</time>
</trkpt>
<trkpt lat="49.283969923853874" lon="8.170459941029549">
<ele>149</ele>
<time>2023-05-17T14:13:47Z</time>
</trkpt>
<trkpt lat="49.28397495299578" lon="8.170397998765111">
<ele>149.20000000000005</ele>
<time>2023-05-17T14:13:48Z</time>
</trkpt>
<trkpt lat="49.28397998213768" lon="8.170336978510022">
<ele>149.20000000000005</ele>
<time>2023-05-17T14:13:49Z</time>
</trkpt>
<trkpt lat="49.28398299962282" lon="8.170274952426553">
<ele>149.20000000000005</ele>
<time>2023-05-17T14:13:50Z</time>
</trkpt>
<trkpt lat="49.28398693911731" lon="8.170214937999845">
<ele>149.20000000000005</ele>
<time>2023-05-17T14:13:51Z</time>
</trkpt>
<trkpt lat="49.283989956602454" lon="8.170152995735407">
<ele>149.20000000000005</ele>
<time>2023-05-17T14:13:52Z</time>
</trkpt>
<trkpt lat="49.283992974087596" lon="8.170089963823557">
<ele>149.39999999999998</ele>
<time>2023-05-17T14:13:53Z</time>
</trkpt>
<trkpt lat="49.28399699740112" lon="8.170026931911707">
<ele>149.39999999999998</ele>
<time>2023-05-17T14:13:54Z</time>
</trkpt>
<trkpt lat="49.28399993106723" lon="8.16996498964727">
<ele>149.39999999999998</ele>
<time>2023-05-17T14:13:55Z</time>
</trkpt>
<trkpt lat="49.28400294855237" lon="8.1699029635638">
<ele>149.39999999999998</ele>
<time>2023-05-17T14:13:56Z</time>
</trkpt>
<trkpt lat="49.28400496020913" lon="8.169841943308711">
<ele>149.39999999999998</ele>
<time>2023-05-17T14:13:57Z</time>
</trkpt>
<trkpt lat="49.28400797769427" lon="8.169779917225242">
<ele>149.39999999999998</ele>
<time>2023-05-17T14:13:58Z</time>
</trkpt>
<trkpt lat="49.284012923017144" lon="8.169712945818901">
<ele>149.39999999999998</ele>
<time>2023-05-17T14:13:59Z</time>
</trkpt>
<trkpt lat="49.28401795215905" lon="8.169651925563812">
<ele>149.39999999999998</ele>
<time>2023-05-17T14:14:00Z</time>
</trkpt>
<trkpt lat="49.28402197547257" lon="8.169589983299375">
<ele>149.39999999999998</ele>
<time>2023-05-17T14:14:01Z</time>
</trkpt>
<trkpt lat="49.28402298130095" lon="8.169529968872666">
<ele>149.39999999999998</ele>
<time>2023-05-17T14:14:02Z</time>
</trkpt>
<trkpt lat="49.28402499295771" lon="8.169467942789197">
<ele>149.60000000000002</ele>
<time>2023-05-17T14:14:03Z</time>
</trkpt>
<trkpt lat="49.28402993828058" lon="8.169402983039618">
<ele>149.60000000000002</ele>
<time>2023-05-17T14:14:04Z</time>
</trkpt>
<trkpt lat="49.284032955765724" lon="8.169339951127768">
<ele>149.60000000000002</ele>
<time>2023-05-17T14:14:05Z</time>
</trkpt>
<trkpt lat="49.28403697907925" lon="8.169277925044298">
<ele>149.60000000000002</ele>
<time>2023-05-17T14:14:06Z</time>
</trkpt>
<trkpt lat="49.28403999656439" lon="8.169217994436622">
<ele>149.79999999999995</ele>
<time>2023-05-17T14:14:07Z</time>
</trkpt>
<trkpt lat="49.28403999656439" lon="8.169161919504404">
<ele>149.79999999999995</ele>
<time>2023-05-17T14:14:08Z</time>
</trkpt>
<trkpt lat="49.28403999656439" lon="8.169101988896728">
<ele>149.79999999999995</ele>
<time>2023-05-17T14:14:09Z</time>
</trkpt>
<trkpt lat="49.28404192440212" lon="8.1690429802984">
<ele>149.79999999999995</ele>
<time>2023-05-17T14:14:10Z</time>
</trkpt>
<trkpt lat="49.28404494188726" lon="8.168986989185214">
<ele>149.79999999999995</ele>
<time>2023-05-17T14:14:11Z</time>
</trkpt>
<trkpt lat="49.28404695354402" lon="8.168932925909758">
<ele>149.79999999999995</ele>
<time>2023-05-17T14:14:12Z</time>
</trkpt>
<trkpt lat="49.28404695354402" lon="8.168879952281713">
<ele>150</ele>
<time>2023-05-17T14:14:13Z</time>
</trkpt>
<trkpt lat="49.2840479593724" lon="8.168829996138811">
<ele>150</ele>
<time>2023-05-17T14:14:14Z</time>
</trkpt>
<trkpt lat="49.2840479593724" lon="8.168777944520116">
<ele>150</ele>
<time>2023-05-17T14:14:15Z</time>
</trkpt>
<trkpt lat="49.2840479593724" lon="8.168729916214943">
<ele>150</ele>
<time>2023-05-17T14:14:16Z</time>
</trkpt>
<trkpt lat="49.284051982685924" lon="8.168682977557182">
<ele>150</ele>
<time>2023-05-17T14:14:17Z</time>
</trkpt>
<trkpt lat="49.284054916352034" lon="8.16863696090877">
<ele>150.20000000000005</ele>
<time>2023-05-17T14:14:18Z</time>
</trkpt>
<trkpt lat="49.28405994549394" lon="8.168587926775217">
<ele>150.20000000000005</ele>
<time>2023-05-17T14:14:19Z</time>
</trkpt>
<trkpt lat="49.28406296297908" lon="8.168531935662031">
<ele>150.20000000000005</ele>
<time>2023-05-17T14:14:20Z</time>
</trkpt>
<trkpt lat="49.28406799212098" lon="8.168476950377226">
<ele>150.39999999999998</ele>
<time>2023-05-17T14:14:21Z</time>
</trkpt>
<trkpt lat="49.28407193161547" lon="8.168422970920801">
<ele>150.39999999999998</ele>
<time>2023-05-17T14:14:22Z</time>
</trkpt>
<trkpt lat="49.284076960757375" lon="8.168371925130486">
<ele>150.39999999999998</ele>
<time>2023-05-17T14:14:23Z</time>
</trkpt>
<trkpt lat="49.28408198989928" lon="8.168316939845681">
<ele>150.39999999999998</ele>
<time>2023-05-17T14:14:24Z</time>
</trkpt>
<trkpt lat="49.28408693522215" lon="8.168261954560876">
<ele>150.39999999999998</ele>
<time>2023-05-17T14:14:25Z</time>
</trkpt>
<trkpt lat="49.28408995270729" lon="8.168201940134168">
<ele>150.20000000000005</ele>
<time>2023-05-17T14:14:26Z</time>
</trkpt>
<trkpt lat="49.28409297019243" lon="8.16814293153584">
<ele>150.20000000000005</ele>
<time>2023-05-17T14:14:27Z</time>
</trkpt>
<trkpt lat="49.284096993505955" lon="8.168081995099783">
<ele>150.20000000000005</ele>
<time>2023-05-17T14:14:28Z</time>
</trkpt>
<trkpt lat="49.284099927172065" lon="8.168021980673075">
<ele>150.20000000000005</ele>
<time>2023-05-17T14:14:29Z</time>
</trkpt>
<trkpt lat="49.28410294465721" lon="8.167959954589605">
<ele>150.20000000000005</ele>
<time>2023-05-17T14:14:30Z</time>
</trkpt>
<trkpt lat="49.28410696797073" lon="8.167897928506136">
<ele>150.20000000000005</ele>
<time>2023-05-17T14:14:31Z</time>
</trkpt>
<trkpt lat="49.28410797379911" lon="8.167836992070079">
<ele>150.20000000000005</ele>
<time>2023-05-17T14:14:32Z</time>
</trkpt>
<trkpt lat="49.28410998545587" lon="8.167772954329848">
<ele>150.39999999999998</ele>
<time>2023-05-17T14:14:33Z</time>
</trkpt>
<trkpt lat="49.28411291912198" lon="8.167707994580269">
<ele>150.39999999999998</ele>
<time>2023-05-17T14:14:34Z</time>
</trkpt>
<trkpt lat="49.28411493077874" lon="8.167644962668419">
<ele>150.39999999999998</ele>
<time>2023-05-17T14:14:35Z</time>
</trkpt>
<trkpt lat="49.284117948263884" lon="8.16758293658495">
<ele>150.39999999999998</ele>
<time>2023-05-17T14:14:36Z</time>
</trkpt>
<trkpt lat="49.284121971577406" lon="8.167522922158241">
<ele>150.60000000000002</ele>
<time>2023-05-17T14:14:37Z</time>
</trkpt>
<trkpt lat="49.28412498906255" lon="8.167467936873436">
<ele>150.60000000000002</ele>
<time>2023-05-17T14:14:38Z</time>
</trkpt>
<trkpt lat="49.28412792272866" lon="8.167414963245392">
<ele>150.60000000000002</ele>
<time>2023-05-17T14:14:39Z</time>
</trkpt>
<trkpt lat="49.28413194604218" lon="8.167364923283458">
<ele>150.60000000000002</ele>
<time>2023-05-17T14:14:40Z</time>
</trkpt>
<trkpt lat="49.28413697518408" lon="8.167316978797317">
<ele>150.60000000000002</ele>
<time>2023-05-17T14:14:41Z</time>
</trkpt>
<trkpt lat="49.284141920506954" lon="8.167266938835382">
<ele>150.60000000000002</ele>
<time>2023-05-17T14:14:42Z</time>
</trkpt>
<trkpt lat="49.284142926335335" lon="8.16721698269248">
<ele>150.60000000000002</ele>
<time>2023-05-17T14:14:43Z</time>
</trkpt>
<trkpt lat="49.284144937992096" lon="8.167166942730546">
<ele>150.60000000000002</ele>
<time>2023-05-17T14:14:44Z</time>
</trkpt>
<trkpt lat="49.28414694964886" lon="8.167114974930882">
<ele>150.60000000000002</ele>
<time>2023-05-17T14:14:45Z</time>
</trkpt>
<trkpt lat="49.284149967134" lon="8.167057977989316">
<ele>150.60000000000002</ele>
<time>2023-05-17T14:14:46Z</time>
</trkpt>
<trkpt lat="49.28415298461914" lon="8.166999975219369">
<ele>150.60000000000002</ele>
<time>2023-05-17T14:14:47Z</time>
</trkpt>
<trkpt lat="49.28415792994201" lon="8.166941972449422">
<ele>150.60000000000002</ele>
<time>2023-05-17T14:14:48Z</time>
</trkpt>
<trkpt lat="49.284164970740676" lon="8.166881958022714">
<ele>150.60000000000002</ele>
<time>2023-05-17T14:14:49Z</time>
</trkpt>
<trkpt lat="49.28416999988258" lon="8.166814986616373">
<ele>150.60000000000002</ele>
<time>2023-05-17T14:14:50Z</time>
</trkpt>
<trkpt lat="49.28417494520545" lon="8.16674499772489">
<ele>150.60000000000002</ele>
<time>2023-05-17T14:14:51Z</time>
</trkpt>
<trkpt lat="49.28417997434735" lon="8.166671991348267">
<ele>150.79999999999995</ele>
<time>2023-05-17T14:14:52Z</time>
</trkpt>
<trkpt lat="49.284186931326985" lon="8.166596973314881">
<ele>150.79999999999995</ele>
<time>2023-05-17T14:14:53Z</time>
</trkpt>
<trkpt lat="49.28419296629727" lon="8.166522961109877">
<ele>150.79999999999995</ele>
<time>2023-05-17T14:14:54Z</time>
</trkpt>
<trkpt lat="49.2841999232769" lon="8.166452972218394">
<ele>151</ele>
<time>2023-05-17T14:14:55Z</time>
</trkpt>
<trkpt lat="49.284206964075565" lon="8.166384994983673">
<ele>151</ele>
<time>2023-05-17T14:14:56Z</time>
</trkpt>
<trkpt lat="49.28421199321747" lon="8.166319951415062">
<ele>151</ele>
<time>2023-05-17T14:14:57Z</time>
</trkpt>
<trkpt lat="49.28421995602548" lon="8.166256919503212">
<ele>151.20000000000005</ele>
<time>2023-05-17T14:14:58Z</time>
</trkpt>
<trkpt lat="49.284226996824145" lon="8.166196988895535">
<ele>151.20000000000005</ele>
<time>2023-05-17T14:14:59Z</time>
</trkpt>
<trkpt lat="49.28423495963216" lon="8.166134962812066">
<ele>151.39999999999998</ele>
<time>2023-05-17T14:15:00Z</time>
</trkpt>
<trkpt lat="49.28424292244017" lon="8.166072936728597">
<ele>151.39999999999998</ele>
<time>2023-05-17T14:15:01Z</time>
</trkpt>
<trkpt lat="49.2842519748956" lon="8.166009988635778">
<ele>151.39999999999998</ele>
<time>2023-05-17T14:15:02Z</time>
</trkpt>
<trkpt lat="49.28426194936037" lon="8.165946956723928">
<ele>151.39999999999998</ele>
<time>2023-05-17T14:15:03Z</time>
</trkpt>
<trkpt lat="49.284271923825145" lon="8.165881996974349">
<ele>151.60000000000002</ele>
<time>2023-05-17T14:15:04Z</time>
</trkpt>
<trkpt lat="49.28427997045219" lon="8.165814941748977">
<ele>151.60000000000002</ele>
<time>2023-05-17T14:15:05Z</time>
</trkpt>
<trkpt lat="49.2842879332602" lon="8.165747970342636">
<ele>151.60000000000002</ele>
<time>2023-05-17T14:15:06Z</time>
</trkpt>
<trkpt lat="49.28429698571563" lon="8.165679993107915">
<ele>151.60000000000002</ele>
<time>2023-05-17T14:15:07Z</time>
</trkpt>
<trkpt lat="49.2843069601804" lon="8.165607992559671">
<ele>151.60000000000002</ele>
<time>2023-05-17T14:15:08Z</time>
</trkpt>
<trkpt lat="49.28431794047356" lon="8.165537919849157">
<ele>151.60000000000002</ele>
<time>2023-05-17T14:15:09Z</time>
</trkpt>
<trkpt lat="49.28432799875736" lon="8.165469942614436">
<ele>151.60000000000002</ele>
<time>2023-05-17T14:15:10Z</time>
</trkpt>
<trkpt lat="49.2843399848789" lon="8.165401965379715">
<ele>151.60000000000002</ele>
<time>2023-05-17T14:15:11Z</time>
</trkpt>
<trkpt lat="49.28434794768691" lon="8.165332982316613">
<ele>151.60000000000002</ele>
<time>2023-05-17T14:15:12Z</time>
</trkpt>
<trkpt lat="49.284356916323304" lon="8.16526492126286">
<ele>151.79999999999995</ele>
<time>2023-05-17T14:15:13Z</time>
</trkpt>
<trkpt lat="49.28436697460711" lon="8.16519794985652">
<ele>151.79999999999995</ele>
<time>2023-05-17T14:15:14Z</time>
</trkpt>
<trkpt lat="49.284376949071884" lon="8.16513491794467">
<ele>152</ele>
<time>2023-05-17T14:15:15Z</time>
</trkpt>
<trkpt lat="49.28438792936504" lon="8.165072975680232">
<ele>152</ele>
<time>2023-05-17T14:15:16Z</time>
</trkpt>
<trkpt lat="49.284397987648845" lon="8.165012961253524">
<ele>152.20000000000005</ele>
<time>2023-05-17T14:15:17Z</time>
</trkpt>
<trkpt lat="49.28440997377038" lon="8.164951940998435">
<ele>152.20000000000005</ele>
<time>2023-05-17T14:15:18Z</time>
</trkpt>
<trkpt lat="49.28441793657839" lon="8.164884969592094">
<ele>152.20000000000005</ele>
<time>2023-05-17T14:15:19Z</time>
</trkpt>
<trkpt lat="49.28442698903382" lon="8.164817998185754">
<ele>152.39999999999998</ele>
<time>2023-05-17T14:15:20Z</time>
</trkpt>
<trkpt lat="49.28443696349859" lon="8.164752954617143">
<ele>152.39999999999998</ele>
<time>2023-05-17T14:15:21Z</time>
</trkpt>
<trkpt lat="49.28444794379175" lon="8.164686989039183">
<ele>152.60000000000002</ele>
<time>2023-05-17T14:15:22Z</time>
</trkpt>
<trkpt lat="49.28445992991328" lon="8.16461993381381">
<ele>152.79999999999995</ele>
<time>2023-05-17T14:15:23Z</time>
</trkpt>
<trkpt lat="49.28446998819709" lon="8.16455195657909">
<ele>152.79999999999995</ele>
<time>2023-05-17T14:15:24Z</time>
</trkpt>
<trkpt lat="49.2844779510051" lon="8.164476938545704">
<ele>152.79999999999995</ele>
<time>2023-05-17T14:15:25Z</time>
</trkpt>
<trkpt lat="49.284486919641495" lon="8.164396975189447">
<ele>153</ele>
<time>2023-05-17T14:15:26Z</time>
</trkpt>
<trkpt lat="49.2844969779253" lon="8.164309971034527">
<ele>153</ele>
<time>2023-05-17T14:15:27Z</time>
</trkpt>
<trkpt lat="49.284506952390075" lon="8.164222966879606">
<ele>153</ele>
<time>2023-05-17T14:15:28Z</time>
</trkpt>
<trkpt lat="49.28451994433999" lon="8.164134956896305">
<ele>153</ele>
<time>2023-05-17T14:15:29Z</time>
</trkpt>
<trkpt lat="49.284531930461526" lon="8.164046946913004">
<ele>153</ele>
<time>2023-05-17T14:15:30Z</time>
</trkpt>
<trkpt lat="49.28454492241144" lon="8.163959942758083">
<ele>153.20000000000005</ele>
<time>2023-05-17T14:15:31Z</time>
</trkpt>
<trkpt lat="49.28455699235201" lon="8.163871932774782">
<ele>153.20000000000005</ele>
<time>2023-05-17T14:15:32Z</time>
</trkpt>
<trkpt lat="49.284569984301925" lon="8.163786940276623">
<ele>153.39999999999998</ele>
<time>2023-05-17T14:15:33Z</time>
</trkpt>
<trkpt lat="49.28458297625184" lon="8.163701947778463">
<ele>153.39999999999998</ele>
<time>2023-05-17T14:15:34Z</time>
</trkpt>
<trkpt lat="49.284594962373376" lon="8.163617961108685">
<ele>153.39999999999998</ele>
<time>2023-05-17T14:15:35Z</time>
</trkpt>
<trkpt lat="49.28460795432329" lon="8.163534980267286">
<ele>153.60000000000002</ele>
<time>2023-05-17T14:15:36Z</time>
</trkpt>
<trkpt lat="49.28461994044483" lon="8.163451999425888">
<ele>153.60000000000002</ele>
<time>2023-05-17T14:15:37Z</time>
</trkpt>
<trkpt lat="49.28463293239474" lon="8.163369940593839">
<ele>153.60000000000002</ele>
<time>2023-05-17T14:15:38Z</time>
</trkpt>
<trkpt lat="49.28464693017304" lon="8.163287965580821">
<ele>153.79999999999995</ele>
<time>2023-05-17T14:15:39Z</time>
</trkpt>
<trkpt lat="49.284659922122955" lon="8.163211941719055">
<ele>153.79999999999995</ele>
<time>2023-05-17T14:15:40Z</time>
</trkpt>
<trkpt lat="49.28467199206352" lon="8.16313692368567">
<ele>154</ele>
<time>2023-05-17T14:15:41Z</time>
</trkpt>
<trkpt lat="49.28468498401344" lon="8.163061989471316">
<ele>154.20000000000005</ele>
<time>2023-05-17T14:15:42Z</time>
</trkpt>
<trkpt lat="49.28469697013497" lon="8.162987977266312">
<ele>154.20000000000005</ele>
<time>2023-05-17T14:15:43Z</time>
</trkpt>
<trkpt lat="49.28470795042813" lon="8.162911953404546">
<ele>154.20000000000005</ele>
<time>2023-05-17T14:15:44Z</time>
</trkpt>
<trkpt lat="49.284721948206425" lon="8.1628349237144">
<ele>154.39999999999998</ele>
<time>2023-05-17T14:15:45Z</time>
</trkpt>
<trkpt lat="49.28473292849958" lon="8.162752948701382">
<ele>154.39999999999998</ele>
<time>2023-05-17T14:15:46Z</time>
</trkpt>
<trkpt lat="49.284746926277876" lon="8.162671979516745">
<ele>154.39999999999998</ele>
<time>2023-05-17T14:15:47Z</time>
</trkpt>
<trkpt lat="49.28475991822779" lon="8.162591932341456">
<ele>154.39999999999998</ele>
<time>2023-05-17T14:15:48Z</time>
</trkpt>
<trkpt lat="49.28477492183447" lon="8.162509957328439">
<ele>154.39999999999998</ele>
<time>2023-05-17T14:15:49Z</time>
</trkpt>
<trkpt lat="49.284787997603416" lon="8.162427982315421">
<ele>154.20000000000005</ele>
<time>2023-05-17T14:15:50Z</time>
</trkpt>
<trkpt lat="49.28479998372495" lon="8.162344917654991">
<ele>154.20000000000005</ele>
<time>2023-05-17T14:15:51Z</time>
</trkpt>
<trkpt lat="49.28481196984649" lon="8.162264954298735">
<ele>154.20000000000005</ele>
<time>2023-05-17T14:15:52Z</time>
</trkpt>
<trkpt lat="49.28482295013964" lon="8.162187924608588">
<ele>154.20000000000005</ele>
<time>2023-05-17T14:15:53Z</time>
</trkpt>
<trkpt lat="49.284832924604416" lon="8.162111984565854">
<ele>154.20000000000005</ele>
<time>2023-05-17T14:15:54Z</time>
</trkpt>
<trkpt lat="49.28484499454498" lon="8.162034954875708">
<ele>154.20000000000005</ele>
<time>2023-05-17T14:15:55Z</time>
</trkpt>
<trkpt lat="49.28485698066652" lon="8.161957925185561">
<ele>154.20000000000005</ele>
<time>2023-05-17T14:15:56Z</time>
</trkpt>
<trkpt lat="49.28486695513129" lon="8.161881985142827">
<ele>154.20000000000005</ele>
<time>2023-05-17T14:15:57Z</time>
</trkpt>
<trkpt lat="49.28487692959607" lon="8.161801937967539">
<ele>154.20000000000005</ele>
<time>2023-05-17T14:15:58Z</time>
</trkpt>
<trkpt lat="49.28488799370825" lon="8.161722980439663">
<ele>154.20000000000005</ele>
<time>2023-05-17T14:15:59Z</time>
</trkpt>
<trkpt lat="49.28489997982979" lon="8.161642933264375">
<ele>154.20000000000005</ele>
<time>2023-05-17T14:16:00Z</time>
</trkpt>
<trkpt lat="49.28491196595132" lon="8.161562969908118">
<ele>154.39999999999998</ele>
<time>2023-05-17T14:16:01Z</time>
</trkpt>
<trkpt lat="49.284926969558" lon="8.161487951874733">
<ele>154.39999999999998</ele>
<time>2023-05-17T14:16:02Z</time>
</trkpt>
<trkpt lat="49.28494197316468" lon="8.161411928012967">
<ele>154.39999999999998</ele>
<time>2023-05-17T14:16:03Z</time>
</trkpt>
<trkpt lat="49.284956976771355" lon="8.161332970485091">
<ele>154.39999999999998</ele>
<time>2023-05-17T14:16:04Z</time>
</trkpt>
<trkpt lat="49.28497198037803" lon="8.161254934966564">
<ele>154.39999999999998</ele>
<time>2023-05-17T14:16:05Z</time>
</trkpt>
<trkpt lat="49.28498798981309" lon="8.16117798909545">
<ele>154.60000000000002</ele>
<time>2023-05-17T14:16:06Z</time>
</trkpt>
<trkpt lat="49.285004921257496" lon="8.161099953576922">
<ele>154.60000000000002</ele>
<time>2023-05-17T14:16:07Z</time>
</trkpt>
<trkpt lat="49.28501992486417" lon="8.161022923886776">
<ele>154.60000000000002</ele>
<time>2023-05-17T14:16:08Z</time>
</trkpt>
<trkpt lat="49.28503694012761" lon="8.160949917510152">
<ele>154.79999999999995</ele>
<time>2023-05-17T14:16:09Z</time>
</trkpt>
<trkpt lat="49.28505496121943" lon="8.160874983295798">
<ele>154.79999999999995</ele>
<time>2023-05-17T14:16:10Z</time>
</trkpt>
<trkpt lat="49.28507499396801" lon="8.160801976919174">
<ele>155</ele>
<time>2023-05-17T14:16:11Z</time>
</trkpt>
<trkpt lat="49.2850929312408" lon="8.160724947229028">
<ele>155</ele>
<time>2023-05-17T14:16:12Z</time>
</trkpt>
<trkpt lat="49.28511296398938" lon="8.160649929195642">
<ele>155</ele>
<time>2023-05-17T14:16:13Z</time>
</trkpt>
<trkpt lat="49.28513299673796" lon="8.160574994981289">
<ele>155</ele>
<time>2023-05-17T14:16:14Z</time>
</trkpt>
<trkpt lat="49.285154957324266" lon="8.160496959462762">
<ele>155</ele>
<time>2023-05-17T14:16:15Z</time>
</trkpt>
<trkpt lat="49.285176917910576" lon="8.160417918115854">
<ele>155</ele>
<time>2023-05-17T14:16:16Z</time>
</trkpt>
<trkpt lat="49.2851999681443" lon="8.160344995558262">
<ele>155</ele>
<time>2023-05-17T14:16:17Z</time>
</trkpt>
<trkpt lat="49.28522695787251" lon="8.160271989181638">
<ele>155.20000000000005</ele>
<time>2023-05-17T14:16:18Z</time>
</trkpt>
<trkpt lat="49.28525193594396" lon="8.160197976976633">
<ele>155.20000000000005</ele>
<time>2023-05-17T14:16:19Z</time>
</trkpt>
<trkpt lat="49.285276997834444" lon="8.16012698225677">
<ele>155.20000000000005</ele>
<time>2023-05-17T14:16:20Z</time>
</trkpt>
<trkpt lat="49.285301975905895" lon="8.160051964223385">
<ele>155.20000000000005</ele>
<time>2023-05-17T14:16:21Z</time>
</trkpt>
<trkpt lat="49.28532795980573" lon="8.15997694619">
<ele>155.20000000000005</ele>
<time>2023-05-17T14:16:22Z</time>
</trkpt>
<trkpt lat="49.2853569611907" lon="8.159906957298517">
<ele>155.20000000000005</ele>
<time>2023-05-17T14:16:23Z</time>
</trkpt>
<trkpt lat="49.28538294509053" lon="8.159834956750274">
<ele>155.20000000000005</ele>
<time>2023-05-17T14:16:24Z</time>
</trkpt>
<trkpt lat="49.28540792316198" lon="8.15976295620203">
<ele>155.20000000000005</ele>
<time>2023-05-17T14:16:25Z</time>
</trkpt>
<trkpt lat="49.285432985052466" lon="8.159691961482167">
<ele>155.20000000000005</ele>
<time>2023-05-17T14:16:26Z</time>
</trkpt>
<trkpt lat="49.28545796312392" lon="8.159617949277163">
<ele>155.20000000000005</ele>
<time>2023-05-17T14:16:27Z</time>
</trkpt>
<trkpt lat="49.28548294119537" lon="8.159544942900538">
<ele>155.20000000000005</ele>
<time>2023-05-17T14:16:28Z</time>
</trkpt>
<trkpt lat="49.28551194258034" lon="8.159472942352295">
<ele>155.20000000000005</ele>
<time>2023-05-17T14:16:29Z</time>
</trkpt>
<trkpt lat="49.285539938136935" lon="8.159401947632432">
<ele>155.20000000000005</ele>
<time>2023-05-17T14:16:30Z</time>
</trkpt>
<trkpt lat="49.28556793369353" lon="8.159329947084188">
<ele>155.20000000000005</ele>
<time>2023-05-17T14:16:31Z</time>
</trkpt>
<trkpt lat="49.28559794090688" lon="8.159256940707564">
<ele>155.20000000000005</ele>
<time>2023-05-17T14:16:32Z</time>
</trkpt>
<trkpt lat="49.285624930635095" lon="8.159181922674179">
<ele>155.20000000000005</ele>
<time>2023-05-17T14:16:33Z</time>
</trkpt>
<trkpt lat="49.28565292619169" lon="8.159107994288206">
<ele>155.20000000000005</ele>
<time>2023-05-17T14:16:34Z</time>
</trkpt>
<trkpt lat="49.28567999973893" lon="8.15903297625482">
<ele>155.20000000000005</ele>
<time>2023-05-17T14:16:35Z</time>
</trkpt>
<trkpt lat="49.285709923133254" lon="8.158954940736294">
<ele>155.20000000000005</ele>
<time>2023-05-17T14:16:36Z</time>
</trkpt>
<trkpt lat="49.28573791868985" lon="8.158877994865179">
<ele>155.20000000000005</ele>
<time>2023-05-17T14:16:37Z</time>
</trkpt>
<trkpt lat="49.28576499223709" lon="8.158804988488555">
<ele>155.20000000000005</ele>
<time>2023-05-17T14:16:38Z</time>
</trkpt>
<trkpt lat="49.285792987793684" lon="8.15873198211193">
<ele>155.20000000000005</ele>
<time>2023-05-17T14:16:39Z</time>
</trkpt>
<trkpt lat="49.28582198917866" lon="8.158654952421784">
<ele>155.20000000000005</ele>
<time>2023-05-17T14:16:40Z</time>
</trkpt>
<trkpt lat="49.28584998473525" lon="8.15858194604516">
<ele>155.20000000000005</ele>
<time>2023-05-17T14:16:41Z</time>
</trkpt>
<trkpt lat="49.28587697446346" lon="8.158504916355014">
<ele>155.20000000000005</ele>
<time>2023-05-17T14:16:42Z</time>
</trkpt>
<trkpt lat="49.285904970020056" lon="8.1584279704839">
<ele>155</ele>
<time>2023-05-17T14:16:43Z</time>
</trkpt>
<trkpt lat="49.28593296557665" lon="8.158352952450514">
<ele>155</ele>
<time>2023-05-17T14:16:44Z</time>
</trkpt>
<trkpt lat="49.28596196696162" lon="8.158274916931987">
<ele>155</ele>
<time>2023-05-17T14:16:45Z</time>
</trkpt>
<trkpt lat="49.285987950861454" lon="8.158201994374394">
<ele>154.79999999999995</ele>
<time>2023-05-17T14:16:46Z</time>
</trkpt>
<trkpt lat="49.28601695224643" lon="8.15812697634101">
<ele>154.79999999999995</ele>
<time>2023-05-17T14:16:47Z</time>
</trkpt>
<trkpt lat="49.28604193031788" lon="8.158049946650863">
<ele>154.79999999999995</ele>
<time>2023-05-17T14:16:48Z</time>
</trkpt>
<trkpt lat="49.28606699220836" lon="8.157974928617477">
<ele>154.79999999999995</ele>
<time>2023-05-17T14:16:49Z</time>
</trkpt>
<trkpt lat="49.286094987764955" lon="8.157902928069234">
<ele>154.79999999999995</ele>
<time>2023-05-17T14:16:50Z</time>
</trkpt>
<trkpt lat="49.28612298332155" lon="8.15782992169261">
<ele>154.79999999999995</ele>
<time>2023-05-17T14:16:51Z</time>
</trkpt>
<trkpt lat="49.28615198470652" lon="8.157752975821495">
<ele>154.79999999999995</ele>
<time>2023-05-17T14:16:52Z</time>
</trkpt>
<trkpt lat="49.286179980263114" lon="8.15767795778811">
<ele>154.79999999999995</ele>
<time>2023-05-17T14:16:53Z</time>
</trkpt>
<trkpt lat="49.286206969991326" lon="8.157602939754725">
<ele>154.60000000000002</ele>
<time>2023-05-17T14:16:54Z</time>
</trkpt>
<trkpt lat="49.28623697720468" lon="8.157532950863242">
<ele>154.60000000000002</ele>
<time>2023-05-17T14:16:55Z</time>
</trkpt>
<trkpt lat="49.28626497276127" lon="8.157459944486618">
<ele>154.60000000000002</ele>
<time>2023-05-17T14:16:56Z</time>
</trkpt>
<trkpt lat="49.286292968317866" lon="8.157389955595136">
<ele>154.60000000000002</ele>
<time>2023-05-17T14:16:57Z</time>
</trkpt>
<trkpt lat="49.28631794638932" lon="8.157316949218512">
<ele>154.39999999999998</ele>
<time>2023-05-17T14:16:58Z</time>
</trkpt>
<trkpt lat="49.28634493611753" lon="8.157242937013507">
<ele>154.39999999999998</ele>
<time>2023-05-17T14:16:59Z</time>
</trkpt>
<trkpt lat="49.28637293167412" lon="8.157164985314012">
<ele>154.39999999999998</ele>
<time>2023-05-17T14:17:00Z</time>
</trkpt>
<trkpt lat="49.286399921402335" lon="8.157089967280626">
<ele>154.39999999999998</ele>
<time>2023-05-17T14:17:01Z</time>
</trkpt>
<trkpt lat="49.28642791695893" lon="8.1570119317621">
<ele>154.20000000000005</ele>
<time>2023-05-17T14:17:02Z</time>
</trkpt>
<trkpt lat="49.2864569183439" lon="8.156934985890985">
<ele>154.20000000000005</ele>
<time>2023-05-17T14:17:03Z</time>
</trkpt>
<trkpt lat="49.286484997719526" lon="8.15686197951436">
<ele>154</ele>
<time>2023-05-17T14:17:04Z</time>
</trkpt>
<trkpt lat="49.28651198744774" lon="8.156786961480975">
<ele>154</ele>
<time>2023-05-17T14:17:05Z</time>
</trkpt>
<trkpt lat="49.28653998300433" lon="8.15671294927597">
<ele>154</ele>
<time>2023-05-17T14:17:06Z</time>
</trkpt>
<trkpt lat="49.286567978560925" lon="8.156636925414205">
<ele>153.79999999999995</ele>
<time>2023-05-17T14:17:07Z</time>
</trkpt>
<trkpt lat="49.2865969799459" lon="8.156561991199851">
<ele>153.79999999999995</ele>
<time>2023-05-17T14:17:08Z</time>
</trkpt>
<trkpt lat="49.28662296384573" lon="8.156486973166466">
<ele>153.60000000000002</ele>
<time>2023-05-17T14:17:09Z</time>
</trkpt>
<trkpt lat="49.28664794191718" lon="8.15640994347632">
<ele>153.60000000000002</ele>
<time>2023-05-17T14:17:10Z</time>
</trkpt>
<trkpt lat="49.28667291998863" lon="8.156334925442934">
<ele>153.39999999999998</ele>
<time>2023-05-17T14:17:11Z</time>
</trkpt>
<trkpt lat="49.28669496439397" lon="8.15625999122858">
<ele>153.20000000000005</ele>
<time>2023-05-17T14:17:12Z</time>
</trkpt>
<trkpt lat="49.28671793080866" lon="8.156184973195195">
<ele>153.20000000000005</ele>
<time>2023-05-17T14:17:13Z</time>
</trkpt>
<trkpt lat="49.286739975214005" lon="8.156106937676668">
<ele>153</ele>
<time>2023-05-17T14:17:14Z</time>
</trkpt>
<trkpt lat="49.286761935800314" lon="8.156029991805553">
<ele>153</ele>
<time>2023-05-17T14:17:15Z</time>
</trkpt>
<trkpt lat="49.286782974377275" lon="8.155952962115407">
<ele>152.79999999999995</ele>
<time>2023-05-17T14:17:16Z</time>
</trkpt>
<trkpt lat="49.28680292330682" lon="8.155876938253641">
<ele>152.79999999999995</ele>
<time>2023-05-17T14:17:17Z</time>
</trkpt>
<trkpt lat="49.286826979368925" lon="8.155797980725765">
<ele>152.60000000000002</ele>
<time>2023-05-17T14:17:18Z</time>
</trkpt>
<trkpt lat="49.286849945783615" lon="8.155714999884367">
<ele>152.60000000000002</ele>
<time>2023-05-17T14:17:19Z</time>
</trkpt>
<trkpt lat="49.286874923855066" lon="8.155629923567176">
<ele>152.60000000000002</ele>
<time>2023-05-17T14:17:20Z</time>
</trkpt>
<trkpt lat="49.28689998574555" lon="8.155547948554158">
<ele>152.60000000000002</ele>
<time>2023-05-17T14:17:21Z</time>
</trkpt>
<trkpt lat="49.28692194633186" lon="8.155469996854663">
<ele>152.60000000000002</ele>
<time>2023-05-17T14:17:22Z</time>
</trkpt>
<trkpt lat="49.286936949938536" lon="8.155394978821278">
<ele>152.39999999999998</ele>
<time>2023-05-17T14:17:23Z</time>
</trkpt>
<trkpt lat="49.28694499656558" lon="8.155312919989228">
<ele>152.39999999999998</ele>
<time>2023-05-17T14:17:24Z</time>
</trkpt>
<trkpt lat="49.28694994188845" lon="8.155232956632972">
<ele>152.39999999999998</ele>
<time>2023-05-17T14:17:25Z</time>
</trkpt>
<trkpt lat="49.286954971030354" lon="8.155147964134812">
<ele>152.39999999999998</ele>
<time>2023-05-17T14:17:26Z</time>
</trkpt>
<trkpt lat="49.28696192800999" lon="8.155064983293414">
<ele>152.39999999999998</ele>
<time>2023-05-17T14:17:27Z</time>
</trkpt>
<trkpt lat="49.28696997463703" lon="8.154982924461365">
<ele>152.60000000000002</ele>
<time>2023-05-17T14:17:28Z</time>
</trkpt>
<trkpt lat="49.286979949101806" lon="8.15490698441863">
<ele>152.60000000000002</ele>
<time>2023-05-17T14:17:29Z</time>
</trkpt>
<trkpt lat="49.28698992356658" lon="8.154829954728484">
<ele>152.60000000000002</ele>
<time>2023-05-17T14:17:30Z</time>
</trkpt>
<trkpt lat="49.28699294105172" lon="8.154754936695099">
<ele>152.60000000000002</ele>
<time>2023-05-17T14:17:31Z</time>
</trkpt>
<trkpt lat="49.28700199350715" lon="8.154677990823984">
<ele>152.60000000000002</ele>
<time>2023-05-17T14:17:32Z</time>
</trkpt>
<trkpt lat="49.28701196797192" lon="8.154601966962218">
<ele>152.79999999999995</ele>
<time>2023-05-17T14:17:33Z</time>
</trkpt>
<trkpt lat="49.28701791912317" lon="8.154529966413975">
<ele>152.79999999999995</ele>
<time>2023-05-17T14:17:34Z</time>
</trkpt>
<trkpt lat="49.2870269715786" lon="8.154452936723828">
<ele>153</ele>
<time>2023-05-17T14:17:35Z</time>
</trkpt>
<trkpt lat="49.28703493438661" lon="8.154376996681094">
<ele>153.20000000000005</ele>
<time>2023-05-17T14:17:36Z</time>
</trkpt>
<trkpt lat="49.287041975185275" lon="8.154297955334187">
<ele>153.39999999999998</ele>
<time>2023-05-17T14:17:37Z</time>
</trkpt>
<trkpt lat="49.28704792633653" lon="8.15421799197793">
<ele>153.60000000000002</ele>
<time>2023-05-17T14:17:38Z</time>
</trkpt>
<trkpt lat="49.28705295547843" lon="8.154139956459403">
<ele>153.79999999999995</ele>
<time>2023-05-17T14:17:39Z</time>
</trkpt>
<trkpt lat="49.28705697879195" lon="8.154059993103147">
<ele>154</ele>
<time>2023-05-17T14:17:40Z</time>
</trkpt>
<trkpt lat="49.28706192411482" lon="8.15398195758462">
<ele>154.20000000000005</ele>
<time>2023-05-17T14:17:41Z</time>
</trkpt>
<trkpt lat="49.287066953256726" lon="8.153904927894473">
<ele>154.60000000000002</ele>
<time>2023-05-17T14:17:42Z</time>
</trkpt>
<trkpt lat="49.28707298822701" lon="8.153827982023358">
<ele>154.79999999999995</ele>
<time>2023-05-17T14:17:43Z</time>
</trkpt>
<trkpt lat="49.28707994520664" lon="8.153749946504831">
<ele>155</ele>
<time>2023-05-17T14:17:44Z</time>
</trkpt>
<trkpt lat="49.287082962691784" lon="8.153674928471446">
<ele>155.20000000000005</ele>
<time>2023-05-17T14:17:45Z</time>
</trkpt>
<trkpt lat="49.287082962691784" lon="8.153604939579964">
<ele>155.39999999999998</ele>
<time>2023-05-17T14:17:46Z</time>
</trkpt>
<trkpt lat="49.287084974348545" lon="8.153527993708849">
<ele>155.60000000000002</ele>
<time>2023-05-17T14:17:47Z</time>
</trkpt>
<trkpt lat="49.287086986005306" lon="8.153451969847083">
<ele>156</ele>
<time>2023-05-17T14:17:48Z</time>
</trkpt>
<trkpt lat="49.28709193132818" lon="8.153374940156937">
<ele>156.20000000000005</ele>
<time>2023-05-17T14:17:49Z</time>
</trkpt>
<trkpt lat="49.28709494881332" lon="8.153297994285822">
<ele>156.39999999999998</ele>
<time>2023-05-17T14:17:50Z</time>
</trkpt>
<trkpt lat="49.28709796629846" lon="8.153222976252437">
<ele>156.60000000000002</ele>
<time>2023-05-17T14:17:51Z</time>
</trkpt>
<trkpt lat="49.287106934934855" lon="8.153151981532574">
<ele>156.79999999999995</ele>
<time>2023-05-17T14:17:52Z</time>
</trkpt>
<trkpt lat="49.28711296990514" lon="8.153084926307201">
<ele>157</ele>
<time>2023-05-17T14:17:53Z</time>
</trkpt>
<trkpt lat="49.28711799904704" lon="8.153007980436087">
<ele>157.20000000000005</ele>
<time>2023-05-17T14:17:54Z</time>
</trkpt>
<trkpt lat="49.28712294436991" lon="8.15293195657432">
<ele>157.20000000000005</ele>
<time>2023-05-17T14:17:55Z</time>
</trkpt>
<trkpt lat="49.287127973511815" lon="8.152849981561303">
<ele>157.39999999999998</ele>
<time>2023-05-17T14:17:56Z</time>
</trkpt>
<trkpt lat="49.28713493049145" lon="8.152772951871157">
<ele>157.60000000000002</ele>
<time>2023-05-17T14:17:57Z</time>
</trkpt>
<trkpt lat="49.28714197129011" lon="8.15269692800939">
<ele>157.79999999999995</ele>
<time>2023-05-17T14:17:58Z</time>
</trkpt>
<trkpt lat="49.287149934098125" lon="8.152624927461147">
<ele>158</ele>
<time>2023-05-17T14:17:59Z</time>
</trkpt>
<trkpt lat="49.28715697489679" lon="8.152554938569665">
<ele>158</ele>
<time>2023-05-17T14:18:00Z</time>
</trkpt>
<trkpt lat="49.28716192021966" lon="8.152484949678183">
<ele>158</ele>
<time>2023-05-17T14:18:01Z</time>
</trkpt>
<trkpt lat="49.2871649377048" lon="8.1524149607867">
<ele>158</ele>
<time>2023-05-17T14:18:02Z</time>
</trkpt>
<trkpt lat="49.287169966846704" lon="8.152349917218089">
<ele>158</ele>
<time>2023-05-17T14:18:03Z</time>
</trkpt>
<trkpt lat="49.287172984331846" lon="8.15228495746851">
<ele>158</ele>
<time>2023-05-17T14:18:04Z</time>
</trkpt>
<trkpt lat="49.28717792965472" lon="8.15222293138504">
<ele>158</ele>
<time>2023-05-17T14:18:05Z</time>
</trkpt>
<trkpt lat="49.28718798793852" lon="8.152167946100235">
<ele>157.79999999999995</ele>
<time>2023-05-17T14:18:06Z</time>
</trkpt>
<trkpt lat="49.28720793686807" lon="8.152119917795062">
<ele>157.79999999999995</ele>
<time>2023-05-17T14:18:07Z</time>
</trkpt>
<trkpt lat="49.287234926596284" lon="8.152086976915598">
<ele>157.79999999999995</ele>
<time>2023-05-17T14:18:08Z</time>
</trkpt>
<trkpt lat="49.2872669454664" lon="8.152064932510257">
<ele>157.79999999999995</ele>
<time>2023-05-17T14:18:09Z</time>
</trkpt>
<trkpt lat="49.287299970164895" lon="8.152052946388721">
<ele>157.79999999999995</ele>
<time>2023-05-17T14:18:10Z</time>
</trkpt>
<trkpt lat="49.28733693435788" lon="8.152052946388721">
<ele>157.60000000000002</ele>
<time>2023-05-17T14:18:11Z</time>
</trkpt>
<trkpt lat="49.28737498819828" lon="8.152056969702244">
<ele>157.60000000000002</ele>
<time>2023-05-17T14:18:12Z</time>
</trkpt>
<trkpt lat="49.28741496987641" lon="8.152059987187386">
<ele>157.60000000000002</ele>
<time>2023-05-17T14:18:13Z</time>
</trkpt>
<trkpt lat="49.28745495155454" lon="8.152066944167018">
<ele>157.39999999999998</ele>
<time>2023-05-17T14:18:14Z</time>
</trkpt>
<trkpt lat="49.287494933232665" lon="8.152072979137301">
<ele>157.39999999999998</ele>
<time>2023-05-17T14:18:15Z</time>
</trkpt>
<trkpt lat="49.287532987073064" lon="8.152084965258837">
<ele>157.20000000000005</ele>
<time>2023-05-17T14:18:16Z</time>
</trkpt>
<trkpt lat="49.28757196292281" lon="8.15209493972361">
<ele>157</ele>
<time>2023-05-17T14:18:17Z</time>
</trkpt>
<trkpt lat="49.28761295042932" lon="8.152104998007417">
<ele>157</ele>
<time>2023-05-17T14:18:18Z</time>
</trkpt>
<trkpt lat="49.28765494376421" lon="8.152116984128952">
<ele>156.79999999999995</ele>
<time>2023-05-17T14:18:19Z</time>
</trkpt>
<trkpt lat="49.28769995458424" lon="8.152126958593726">
<ele>156.79999999999995</ele>
<time>2023-05-17T14:18:20Z</time>
</trkpt>
<trkpt lat="49.28774697706103" lon="8.1521369330585">
<ele>156.60000000000002</ele>
<time>2023-05-17T14:18:21Z</time>
</trkpt>
<trkpt lat="49.287791987881064" lon="8.152144979685545">
<ele>156.60000000000002</ele>
<time>2023-05-17T14:18:22Z</time>
</trkpt>
<trkpt lat="49.28783297538757" lon="8.152151936665177">
<ele>156.39999999999998</ele>
<time>2023-05-17T14:18:23Z</time>
</trkpt>
<trkpt lat="49.28787496872246" lon="8.15215696580708">
<ele>156.39999999999998</ele>
<time>2023-05-17T14:18:24Z</time>
</trkpt>
<trkpt lat="49.28791293874383" lon="8.152174986898899">
<ele>156.20000000000005</ele>
<time>2023-05-17T14:18:25Z</time>
</trkpt>
<trkpt lat="49.28793791681528" lon="8.152206921949983">
<ele>156.20000000000005</ele>
<time>2023-05-17T14:18:26Z</time>
</trkpt>
<trkpt lat="49.287944957613945" lon="8.152252938598394">
<ele>156</ele>
<time>2023-05-17T14:18:27Z</time>
</trkpt>
<trkpt lat="49.28793297149241" lon="8.152306918054819">
<ele>156</ele>
<time>2023-05-17T14:18:28Z</time>
</trkpt>
<trkpt lat="49.28790992125869" lon="8.152346983551979">
<ele>155.79999999999995</ele>
<time>2023-05-17T14:18:29Z</time>
</trkpt>
<trkpt lat="49.28786993958056" lon="8.152366932481527">
<ele>155.79999999999995</ele>
<time>2023-05-17T14:18:30Z</time>
</trkpt>
<trkpt lat="49.28782492876053" lon="8.152376990765333">
<ele>155.60000000000002</ele>
<time>2023-05-17T14:18:31Z</time>
</trkpt>
<trkpt lat="49.287771955132484" lon="8.152382941916585">
<ele>155.39999999999998</ele>
<time>2023-05-17T14:18:32Z</time>
</trkpt>
<trkpt lat="49.28771495819092" lon="8.15239199437201">
<ele>155.39999999999998</ele>
<time>2023-05-17T14:18:33Z</time>
</trkpt>
<trkpt lat="49.28765695542097" lon="8.152406997978687">
<ele>155.20000000000005</ele>
<time>2023-05-17T14:18:34Z</time>
</trkpt>
<trkpt lat="49.28759694099426" lon="8.152421917766333">
<ele>155</ele>
<time>2023-05-17T14:18:35Z</time>
</trkpt>
<trkpt lat="49.287534998729825" lon="8.15243499353528">
<ele>154.79999999999995</ele>
<time>2023-05-17T14:18:36Z</time>
</trkpt>
<trkpt lat="49.28747498430312" lon="8.152446979656816">
<ele>154.60000000000002</ele>
<time>2023-05-17T14:18:37Z</time>
</trkpt>
<trkpt lat="49.28741195239127" lon="8.15245795994997">
<ele>154.39999999999998</ele>
<time>2023-05-17T14:18:38Z</time>
</trkpt>
<trkpt lat="49.287342969328165" lon="8.152471957728267">
<ele>154.20000000000005</ele>
<time>2023-05-17T14:18:39Z</time>
</trkpt>
<trkpt lat="49.287279937416315" lon="8.152486961334944">
<ele>154</ele>
<time>2023-05-17T14:18:40Z</time>
</trkpt>
<trkpt lat="49.28721799515188" lon="8.152502970770001">
<ele>153.79999999999995</ele>
<time>2023-05-17T14:18:41Z</time>
</trkpt>
<trkpt lat="49.28716192021966" lon="8.152517974376678">
<ele>153.60000000000002</ele>
<time>2023-05-17T14:18:42Z</time>
</trkpt>
<trkpt lat="49.287109952419996" lon="8.152527948841453">
<ele>153.39999999999998</ele>
<time>2023-05-17T14:18:43Z</time>
</trkpt>
<trkpt lat="49.287059996277094" lon="8.152537923306227">
<ele>153.20000000000005</ele>
<time>2023-05-17T14:18:44Z</time>
</trkpt>
<trkpt lat="49.28701196797192" lon="8.152547981590033">
<ele>153.20000000000005</ele>
<time>2023-05-17T14:18:45Z</time>
</trkpt>
<trkpt lat="49.28696695715189" lon="8.152556950226426">
<ele>152.79999999999995</ele>
<time>2023-05-17T14:18:46Z</time>
</trkpt>
<trkpt lat="49.28693292662501" lon="8.152546975761652">
<ele>152.60000000000002</ele>
<time>2023-05-17T14:18:47Z</time>
</trkpt>
<trkpt lat="49.28690493106842" lon="8.152514956891537">
<ele>152.39999999999998</ele>
<time>2023-05-17T14:18:48Z</time>
</trkpt>
<trkpt lat="49.28687995299697" lon="8.152461983263493">
<ele>152.20000000000005</ele>
<time>2023-05-17T14:18:49Z</time>
</trkpt>
<trkpt lat="49.28686696104705" lon="8.152397945523262">
<ele>152</ele>
<time>2023-05-17T14:18:50Z</time>
</trkpt>
<trkpt lat="49.28686193190515" lon="8.15232795663178">
<ele>151.79999999999995</ele>
<time>2023-05-17T14:18:51Z</time>
</trkpt>
<trkpt lat="49.28686193190515" lon="8.15226199105382">
<ele>151.79999999999995</ele>
<time>2023-05-17T14:18:52Z</time>
</trkpt>
<trkpt lat="49.28685992024839" lon="8.152197953313589">
<ele>151.60000000000002</ele>
<time>2023-05-17T14:18:53Z</time>
</trkpt>
<trkpt lat="49.28685698658228" lon="8.15213793888688">
<ele>151.60000000000002</ele>
<time>2023-05-17T14:18:54Z</time>
</trkpt>
<trkpt lat="49.286849945783615" lon="8.152077924460173">
<ele>151.39999999999998</ele>
<time>2023-05-17T14:18:55Z</time>
</trkpt>
<trkpt lat="49.28684491664171" lon="8.152019921690226">
<ele>151.39999999999998</ele>
<time>2023-05-17T14:18:56Z</time>
</trkpt>
<trkpt lat="49.286894956603646" lon="8.15196292474866">
<ele>151.39999999999998</ele>
<time>2023-05-17T14:18:57Z</time>
</trkpt>
<trkpt lat="49.28687299601734" lon="8.151894947513938">
<ele>151.20000000000005</ele>
<time>2023-05-17T14:18:58Z</time>
</trkpt>
<trkpt lat="49.28685799241066" lon="8.151829987764359">
<ele>151.20000000000005</ele>
<time>2023-05-17T14:18:59Z</time>
</trkpt>
<trkpt lat="49.286871990188956" lon="8.151802998036146">
<ele>151.20000000000005</ele>
<time>2023-05-17T14:19:00Z</time>
</trkpt>
<trkpt lat="49.28690291941166" lon="8.151772990822792">
<ele>151.20000000000005</ele>
<time>2023-05-17T14:19:01Z</time>
</trkpt>
<trkpt lat="49.28693192079663" lon="8.151742983609438">
<ele>151.20000000000005</ele>
<time>2023-05-17T14:19:02Z</time>
</trkpt>
<trkpt lat="49.286959916353226" lon="8.15170492976904">
<ele>151.20000000000005</ele>
<time>2023-05-17T14:19:03Z</time>
</trkpt>
<trkpt lat="49.286977937445045" lon="8.151659918949008">
<ele>151.20000000000005</ele>
<time>2023-05-17T14:19:04Z</time>
</trkpt>
<trkpt lat="49.28698992356658" lon="8.151612980291247">
<ele>151.20000000000005</ele>
<time>2023-05-17T14:19:05Z</time>
</trkpt>
<trkpt lat="49.28699294105172" lon="8.15157693810761">
<ele>151</ele>
<time>2023-05-17T14:19:06Z</time>
</trkpt>
<trkpt lat="49.28699294105172" lon="8.151557995006442">
<ele>151</ele>
<time>2023-05-17T14:19:07Z</time>
</trkpt>
<trkpt lat="49.28699193522334" lon="8.151557995006442">
<ele>151</ele>
<time>2023-05-17T14:19:08Z</time>
</trkpt>
<trkpt lat="49.28698992356658" lon="8.151559922844172">
<ele>151</ele>
<time>2023-05-17T14:19:09Z</time>
</trkpt>
<trkpt lat="49.28698992356658" lon="8.151466967538">
<ele>150.79999999999995</ele>
<time>2023-05-17T14:19:10Z</time>
</trkpt>
<trkpt lat="49.28699294105172" lon="8.151426985859871">
<ele>150.79999999999995</ele>
<time>2023-05-17T14:19:10Z</time>
</trkpt>
<trkpt lat="49.286997970193624" lon="8.151376945897937">
<ele>150.79999999999995</ele>
<time>2023-05-17T14:19:11Z</time>
</trkpt>
<trkpt lat="49.28700492717326" lon="8.151326989755034">
<ele>150.79999999999995</ele>
<time>2023-05-17T14:19:12Z</time>
</trkpt>
<trkpt lat="49.28701196797192" lon="8.151271920651197">
<ele>150.79999999999995</ele>
<time>2023-05-17T14:19:13Z</time>
</trkpt>
<trkpt lat="49.287016997113824" lon="8.151212995871902">
<ele>150.79999999999995</ele>
<time>2023-05-17T14:19:14Z</time>
</trkpt>
<trkpt lat="49.287022948265076" lon="8.151149963960052">
<ele>150.79999999999995</ele>
<time>2023-05-17T14:19:15Z</time>
</trkpt>
<trkpt lat="49.28702797740698" lon="8.151086932048202">
<ele>150.79999999999995</ele>
<time>2023-05-17T14:19:16Z</time>
</trkpt>
<trkpt lat="49.28703292272985" lon="8.151021972298622">
<ele>150.79999999999995</ele>
<time>2023-05-17T14:19:17Z</time>
</trkpt>
<trkpt lat="49.28703795187175" lon="8.150956928730011">
<ele>150.79999999999995</ele>
<time>2023-05-17T14:19:18Z</time>
</trkpt>
<trkpt lat="49.287046920508146" lon="8.150891968980432">
<ele>150.79999999999995</ele>
<time>2023-05-17T14:19:19Z</time>
</trkpt>
<trkpt lat="49.28705295547843" lon="8.150827931240201">
<ele>150.79999999999995</ele>
<time>2023-05-17T14:19:20Z</time>
</trkpt>
<trkpt lat="49.28706192411482" lon="8.150756936520338">
<ele>150.79999999999995</ele>
<time>2023-05-17T14:19:21Z</time>
</trkpt>
<trkpt lat="49.28707198239863" lon="8.150689965113997">
<ele>150.79999999999995</ele>
<time>2023-05-17T14:19:22Z</time>
</trkpt>
<trkpt lat="49.287082962691784" lon="8.150627939030528">
<ele>150.79999999999995</ele>
<time>2023-05-17T14:19:23Z</time>
</trkpt>
<trkpt lat="49.28708799183369" lon="8.15056792460382">
<ele>150.79999999999995</ele>
<time>2023-05-17T14:19:24Z</time>
</trkpt>
<trkpt lat="49.28709494881332" lon="8.150511933490634">
<ele>150.79999999999995</ele>
<time>2023-05-17T14:19:25Z</time>
</trkpt>
<trkpt lat="49.28709696047008" lon="8.150447979569435">
<ele>150.79999999999995</ele>
<time>2023-05-17T14:19:26Z</time>
</trkpt>
<trkpt lat="49.28709796629846" lon="8.150386959314346">
<ele>150.79999999999995</ele>
<time>2023-05-17T14:19:27Z</time>
</trkpt>
<trkpt lat="49.287102995440364" lon="8.150326944887638">
<ele>150.79999999999995</ele>
<time>2023-05-17T14:19:28Z</time>
</trkpt>
<trkpt lat="49.287109952419996" lon="8.15026693046093">
<ele>150.79999999999995</ele>
<time>2023-05-17T14:19:29Z</time>
</trkpt>
<trkpt lat="49.2871149815619" lon="8.150206999853253">
<ele>150.79999999999995</ele>
<time>2023-05-17T14:19:30Z</time>
</trkpt>
<trkpt lat="49.28712495602667" lon="8.150147991254926">
<ele>150.79999999999995</ele>
<time>2023-05-17T14:19:31Z</time>
</trkpt>
<trkpt lat="49.287132918834686" lon="8.150086970999837">
<ele>150.79999999999995</ele>
<time>2023-05-17T14:19:32Z</time>
</trkpt>
<trkpt lat="49.28714197129011" lon="8.150024944916368">
<ele>150.79999999999995</ele>
<time>2023-05-17T14:19:33Z</time>
</trkpt>
<trkpt lat="49.287151945754886" lon="8.14996199682355">
<ele>150.79999999999995</ele>
<time>2023-05-17T14:19:34Z</time>
</trkpt>
<trkpt lat="49.28715798072517" lon="8.149896953254938">
<ele>150.79999999999995</ele>
<time>2023-05-17T14:19:35Z</time>
</trkpt>
<trkpt lat="49.2871649377048" lon="8.149831993505359">
<ele>150.79999999999995</ele>
<time>2023-05-17T14:19:36Z</time>
</trkpt>
<trkpt lat="49.287172984331846" lon="8.149764938279986">
<ele>151</ele>
<time>2023-05-17T14:19:37Z</time>
</trkpt>
<trkpt lat="49.28718195296824" lon="8.149697966873646">
<ele>151</ele>
<time>2023-05-17T14:19:38Z</time>
</trkpt>
<trkpt lat="49.287191927433014" lon="8.149631917476654">
<ele>151</ele>
<time>2023-05-17T14:19:39Z</time>
</trkpt>
<trkpt lat="49.28719997406006" lon="8.149564946070313">
<ele>151.20000000000005</ele>
<time>2023-05-17T14:19:40Z</time>
</trkpt>
<trkpt lat="49.28720693103969" lon="8.149497974663973">
<ele>151.20000000000005</ele>
<time>2023-05-17T14:19:41Z</time>
</trkpt>
<trkpt lat="49.287212966009974" lon="8.149431925266981">
<ele>151.39999999999998</ele>
<time>2023-05-17T14:19:42Z</time>
</trkpt>
<trkpt lat="49.28721992298961" lon="8.14936495386064">
<ele>151.39999999999998</ele>
<time>2023-05-17T14:19:43Z</time>
</trkpt>
<trkpt lat="49.28722696378827" lon="8.14929697662592">
<ele>151.60000000000002</ele>
<time>2023-05-17T14:19:44Z</time>
</trkpt>
<trkpt lat="49.287232998758554" lon="8.149226987734437">
<ele>151.60000000000002</ele>
<time>2023-05-17T14:19:45Z</time>
</trkpt>
<trkpt lat="49.28724196739495" lon="8.149154987186193">
<ele>151.79999999999995</ele>
<time>2023-05-17T14:19:46Z</time>
</trkpt>
<trkpt lat="49.2872479185462" lon="8.149084998294711">
<ele>151.79999999999995</ele>
<time>2023-05-17T14:19:47Z</time>
</trkpt>
<trkpt lat="49.287254959344864" lon="8.149011991918087">
<ele>151.79999999999995</ele>
<time>2023-05-17T14:19:48Z</time>
</trkpt>
<trkpt lat="49.28725998848677" lon="8.148941919207573">
<ele>152</ele>
<time>2023-05-17T14:19:49Z</time>
</trkpt>
<trkpt lat="49.28726493380964" lon="8.148872936144471">
<ele>152</ele>
<time>2023-05-17T14:19:50Z</time>
</trkpt>
<trkpt lat="49.28726795129478" lon="8.148802947252989">
<ele>152</ele>
<time>2023-05-17T14:19:51Z</time>
</trkpt>
<trkpt lat="49.28727298043668" lon="8.148732958361506">
<ele>152.20000000000005</ele>
<time>2023-05-17T14:19:52Z</time>
</trkpt>
<trkpt lat="49.287277925759554" lon="8.148664981126785">
<ele>152.20000000000005</ele>
<time>2023-05-17T14:19:53Z</time>
</trkpt>
<trkpt lat="49.28728496655822" lon="8.148594992235303">
<ele>152.20000000000005</ele>
<time>2023-05-17T14:19:54Z</time>
</trkpt>
<trkpt lat="49.28728999570012" lon="8.148524919524789">
<ele>152.39999999999998</ele>
<time>2023-05-17T14:19:55Z</time>
</trkpt>
<trkpt lat="49.28729494102299" lon="8.148456942290068">
<ele>152.39999999999998</ele>
<time>2023-05-17T14:19:56Z</time>
</trkpt>
<trkpt lat="49.287301981821656" lon="8.148387959226966">
<ele>152.39999999999998</ele>
<time>2023-05-17T14:19:57Z</time>
</trkpt>
<trkpt lat="49.28730994462967" lon="8.148317970335484">
<ele>152.39999999999998</ele>
<time>2023-05-17T14:19:58Z</time>
</trkpt>
<trkpt lat="49.287317991256714" lon="8.148249993100762">
<ele>152.39999999999998</ele>
<time>2023-05-17T14:19:59Z</time>
</trkpt>
<trkpt lat="49.28732997737825" lon="8.14818193204701">
<ele>152.39999999999998</ele>
<time>2023-05-17T14:20:00Z</time>
</trkpt>
<trkpt lat="49.287341963499784" lon="8.148112948983908">
<ele>152.60000000000002</ele>
<time>2023-05-17T14:20:01Z</time>
</trkpt>
<trkpt lat="49.2873499263078" lon="8.148044971749187">
<ele>152.60000000000002</ele>
<time>2023-05-17T14:20:02Z</time>
</trkpt>
<trkpt lat="49.2873599845916" lon="8.147976994514465">
<ele>152.60000000000002</ele>
<time>2023-05-17T14:20:03Z</time>
</trkpt>
<trkpt lat="49.287366941571236" lon="8.147907927632332">
<ele>152.60000000000002</ele>
<time>2023-05-17T14:20:04Z</time>
</trkpt>
<trkpt lat="49.28737197071314" lon="8.147836932912469">
<ele>152.79999999999995</ele>
<time>2023-05-17T14:20:05Z</time>
</trkpt>
<trkpt lat="49.28737498819828" lon="8.147762920707464">
<ele>152.79999999999995</ele>
<time>2023-05-17T14:20:06Z</time>
</trkpt>
<trkpt lat="49.28737297654152" lon="8.147689998149872">
<ele>152.79999999999995</ele>
<time>2023-05-17T14:20:07Z</time>
</trkpt>
<trkpt lat="49.28737297654152" lon="8.147617997601628">
<ele>152.79999999999995</ele>
<time>2023-05-17T14:20:08Z</time>
</trkpt>
<trkpt lat="49.28736995905638" lon="8.147547924891114">
<ele>152.79999999999995</ele>
<time>2023-05-17T14:20:09Z</time>
</trkpt>
<trkpt lat="49.287366941571236" lon="8.147479947656393">
<ele>153</ele>
<time>2023-05-17T14:20:10Z</time>
</trkpt>
<trkpt lat="49.2873599845916" lon="8.147412976250052">
<ele>153</ele>
<time>2023-05-17T14:20:11Z</time>
</trkpt>
<trkpt lat="49.28735797293484" lon="8.14734298735857">
<ele>153</ele>
<time>2023-05-17T14:20:12Z</time>
</trkpt>
<trkpt lat="49.28735294379294" lon="8.147271992638707">
<ele>153</ele>
<time>2023-05-17T14:20:13Z</time>
</trkpt>
<trkpt lat="49.28735193796456" lon="8.147197980433702">
<ele>153</ele>
<time>2023-05-17T14:20:14Z</time>
</trkpt>
<trkpt lat="49.28734799847007" lon="8.14712698571384">
<ele>153</ele>
<time>2023-05-17T14:20:15Z</time>
</trkpt>
<trkpt lat="49.28734699264169" lon="8.147052973508835">
<ele>153.20000000000005</ele>
<time>2023-05-17T14:20:16Z</time>
</trkpt>
<trkpt lat="49.287344980984926" lon="8.14697996713221">
<ele>153.20000000000005</ele>
<time>2023-05-17T14:20:17Z</time>
</trkpt>
<trkpt lat="49.287344980984926" lon="8.146906960755587">
<ele>153.20000000000005</ele>
<time>2023-05-17T14:20:18Z</time>
</trkpt>
<trkpt lat="49.287342969328165" lon="8.146834960207343">
<ele>153.20000000000005</ele>
<time>2023-05-17T14:20:19Z</time>
</trkpt>
<trkpt lat="49.28733794018626" lon="8.146766982972622">
<ele>153.20000000000005</ele>
<time>2023-05-17T14:20:20Z</time>
</trkpt>
<trkpt lat="49.28733492270112" lon="8.14669799990952">
<ele>153.20000000000005</ele>
<time>2023-05-17T14:20:21Z</time>
</trkpt>
<trkpt lat="49.28733198903501" lon="8.146631950512528">
<ele>153.20000000000005</ele>
<time>2023-05-17T14:20:22Z</time>
</trkpt>
<trkpt lat="49.28732997737825" lon="8.14656799659133">
<ele>153</ele>
<time>2023-05-17T14:20:23Z</time>
</trkpt>
<trkpt lat="49.28733198903501" lon="8.14650496467948">
<ele>153</ele>
<time>2023-05-17T14:20:24Z</time>
</trkpt>
<trkpt lat="49.287341963499784" lon="8.146446961909533">
<ele>153</ele>
<time>2023-05-17T14:20:25Z</time>
</trkpt>
<trkpt lat="49.28735294379294" lon="8.146382924169302">
<ele>153</ele>
<time>2023-05-17T14:20:26Z</time>
</trkpt>
<trkpt lat="49.28735797293484" lon="8.146317964419723">
<ele>153</ele>
<time>2023-05-17T14:20:27Z</time>
</trkpt>
<trkpt lat="49.28735797293484" lon="8.146249987185001">
<ele>153</ele>
<time>2023-05-17T14:20:28Z</time>
</trkpt>
<trkpt lat="49.2873499263078" lon="8.146182931959629">
<ele>153</ele>
<time>2023-05-17T14:20:29Z</time>
</trkpt>
<trkpt lat="49.28733492270112" lon="8.146116966381669">
<ele>153</ele>
<time>2023-05-17T14:20:30Z</time>
</trkpt>
<trkpt lat="49.287317991256714" lon="8.146051922813058">
<ele>153</ele>
<time>2023-05-17T14:20:31Z</time>
</trkpt>
<trkpt lat="49.2873049993068" lon="8.145986963063478">
<ele>153</ele>
<time>2023-05-17T14:20:32Z</time>
</trkpt>
<trkpt lat="49.28729192353785" lon="8.145924936980009">
<ele>152.79999999999995</ele>
<time>2023-05-17T14:20:33Z</time>
</trkpt>
<trkpt lat="49.287277925759554" lon="8.145866934210062">
<ele>152.79999999999995</ele>
<time>2023-05-17T14:20:34Z</time>
</trkpt>
<trkpt lat="49.28726493380964" lon="8.145812954753637">
<ele>152.79999999999995</ele>
<time>2023-05-17T14:20:35Z</time>
</trkpt>
<trkpt lat="49.2872529476881" lon="8.145761992782354">
<ele>152.79999999999995</ele>
<time>2023-05-17T14:20:36Z</time>
</trkpt>
<trkpt lat="49.28724297322333" lon="8.145716981962323">
<ele>152.79999999999995</ele>
<time>2023-05-17T14:20:37Z</time>
</trkpt>
<trkpt lat="49.287236938253045" lon="8.145676916465163">
<ele>152.79999999999995</ele>
<time>2023-05-17T14:20:38Z</time>
</trkpt>
<trkpt lat="49.28722998127341" lon="8.145642969757318">
<ele>152.79999999999995</ele>
<time>2023-05-17T14:20:39Z</time>
</trkpt>
<trkpt lat="49.28722495213151" lon="8.145622937008739">
<ele>152.79999999999995</ele>
<time>2023-05-17T14:20:40Z</time>
</trkpt>
<trkpt lat="49.28722294047475" lon="8.145609945058823">
<ele>152.79999999999995</ele>
<time>2023-05-17T14:20:41Z</time>
</trkpt>
<trkpt lat="49.28722294047475" lon="8.14560692757368">
<ele>152.79999999999995</ele>
<time>2023-05-17T14:20:42Z</time>
</trkpt>
<trkpt lat="49.28722193464637" lon="8.14560692757368">
<ele>152.79999999999995</ele>
<time>2023-05-17T14:20:43Z</time>
</trkpt>
<trkpt lat="49.28722193464637" lon="8.145607933402061">
<ele>152.79999999999995</ele>
<time>2023-05-17T14:20:44Z</time>
</trkpt>
<trkpt lat="49.28720198571682" lon="8.145552948117256">
<ele>152.79999999999995</ele>
<time>2023-05-17T14:20:44Z</time>
</trkpt>
<trkpt lat="49.287191927433014" lon="8.14551992341876">
<ele>152.79999999999995</ele>
<time>2023-05-17T14:20:45Z</time>
</trkpt>
<trkpt lat="49.28718195296824" lon="8.145481953397393">
<ele>152.79999999999995</ele>
<time>2023-05-17T14:20:46Z</time>
</trkpt>
<trkpt lat="49.28716795518994" lon="8.145437948405743">
<ele>152.79999999999995</ele>
<time>2023-05-17T14:20:47Z</time>
</trkpt>
<trkpt lat="49.28715496324003" lon="8.14538992010057">
<ele>152.79999999999995</ele>
<time>2023-05-17T14:20:48Z</time>
</trkpt>
<trkpt lat="49.28714197129011" lon="8.145337952300906">
<ele>152.79999999999995</ele>
<time>2023-05-17T14:20:49Z</time>
</trkpt>
<trkpt lat="49.287126967683434" lon="8.1452829670161">
<ele>152.79999999999995</ele>
<time>2023-05-17T14:20:50Z</time>
</trkpt>
<trkpt lat="49.28711196407676" lon="8.145226975902915">
<ele>152.79999999999995</ele>
<time>2023-05-17T14:20:51Z</time>
</trkpt>
<trkpt lat="49.28709494881332" lon="8.145167967304587">
<ele>152.79999999999995</ele>
<time>2023-05-17T14:20:52Z</time>
</trkpt>
<trkpt lat="49.28707793354988" lon="8.145116921514273">
<ele>152.79999999999995</ele>
<time>2023-05-17T14:20:53Z</time>
</trkpt>
<trkpt lat="49.28706192411482" lon="8.145059924572706">
<ele>152.79999999999995</ele>
<time>2023-05-17T14:20:54Z</time>
</trkpt>
<trkpt lat="49.28704792633653" lon="8.14500292763114">
<ele>152.79999999999995</ele>
<time>2023-05-17T14:20:55Z</time>
</trkpt>
<trkpt lat="49.28703292272985" lon="8.144944924861193">
<ele>152.79999999999995</ele>
<time>2023-05-17T14:20:56Z</time>
</trkpt>
<trkpt lat="49.28701791912317" lon="8.144886922091246">
<ele>152.79999999999995</ele>
<time>2023-05-17T14:20:57Z</time>
</trkpt>
<trkpt lat="49.28700199350715" lon="8.144832942634821">
<ele>152.79999999999995</ele>
<time>2023-05-17T14:20:58Z</time>
</trkpt>
<trkpt lat="49.28698296658695" lon="8.144777957350016">
<ele>152.79999999999995</ele>
<time>2023-05-17T14:20:59Z</time>
</trkpt>
<trkpt lat="49.28696494549513" lon="8.144719954580069">
<ele>152.79999999999995</ele>
<time>2023-05-17T14:21:00Z</time>
</trkpt>
<trkpt lat="49.28694793023169" lon="8.1446579284966">
<ele>152.79999999999995</ele>
<time>2023-05-17T14:21:01Z</time>
</trkpt>
<trkpt lat="49.28692798130214" lon="8.144596992060542">
<ele>152.79999999999995</ele>
<time>2023-05-17T14:21:02Z</time>
</trkpt>
<trkpt lat="49.28690996021032" lon="8.144534965977073">
<ele>152.79999999999995</ele>
<time>2023-05-17T14:21:03Z</time>
</trkpt>
<trkpt lat="49.286892944946885" lon="8.144471934065223">
<ele>152.79999999999995</ele>
<time>2023-05-17T14:21:04Z</time>
</trkpt>
<trkpt lat="49.28687693551183" lon="8.144409991800785">
<ele>152.79999999999995</ele>
<time>2023-05-17T14:21:05Z</time>
</trkpt>
<trkpt lat="49.28685992024839" lon="8.144344948232174">
<ele>153</ele>
<time>2023-05-17T14:21:06Z</time>
</trkpt>
<trkpt lat="49.28684298880398" lon="8.144279988482594">
<ele>153</ele>
<time>2023-05-17T14:21:07Z</time>
</trkpt>
<trkpt lat="49.286826979368925" lon="8.144212933257222">
<ele>153</ele>
<time>2023-05-17T14:21:08Z</time>
</trkpt>
<trkpt lat="49.28680996410549" lon="8.144146967679262">
<ele>153</ele>
<time>2023-05-17T14:21:09Z</time>
</trkpt>
<trkpt lat="49.28679294884205" lon="8.14407798461616">
<ele>153.20000000000005</ele>
<time>2023-05-17T14:21:10Z</time>
</trkpt>
<trkpt lat="49.28677693940699" lon="8.144011935219169">
<ele>153.20000000000005</ele>
<time>2023-05-17T14:21:11Z</time>
</trkpt>
<trkpt lat="49.28675799630582" lon="8.143944963812828">
<ele>153.20000000000005</ele>
<time>2023-05-17T14:21:12Z</time>
</trkpt>
<trkpt lat="49.286739975214005" lon="8.143881931900978">
<ele>153.39999999999998</ele>
<time>2023-05-17T14:21:13Z</time>
</trkpt>
<trkpt lat="49.286721954122186" lon="8.14381797797978">
<ele>153.39999999999998</ele>
<time>2023-05-17T14:21:14Z</time>
</trkpt>
<trkpt lat="49.28670493885875" lon="8.143757963553071">
<ele>153.60000000000002</ele>
<time>2023-05-17T14:21:15Z</time>
</trkpt>
<trkpt lat="49.28668993525207" lon="8.143696943297982">
<ele>153.60000000000002</ele>
<time>2023-05-17T14:21:16Z</time>
</trkpt>
<trkpt lat="49.28667199797928" lon="8.143634917214513">
<ele>153.60000000000002</ele>
<time>2023-05-17T14:21:17Z</time>
</trkpt>
<trkpt lat="49.2866519652307" lon="8.143574986606836">
<ele>153.60000000000002</ele>
<time>2023-05-17T14:21:18Z</time>
</trkpt>
<trkpt lat="49.28663193248212" lon="8.143512960523367">
<ele>153.60000000000002</ele>
<time>2023-05-17T14:21:19Z</time>
</trkpt>
<trkpt lat="49.286611983552575" lon="8.143449928611517">
<ele>153.79999999999995</ele>
<time>2023-05-17T14:21:20Z</time>
</trkpt>
<trkpt lat="49.28659496828914" lon="8.143379939720035">
<ele>153.79999999999995</ele>
<time>2023-05-17T14:21:21Z</time>
</trkpt>
<trkpt lat="49.2865779530257" lon="8.143309950828552">
<ele>153.79999999999995</ele>
<time>2023-05-17T14:21:22Z</time>
</trkpt>
<trkpt lat="49.28655993193388" lon="8.143241973593831">
<ele>153.79999999999995</ele>
<time>2023-05-17T14:21:23Z</time>
</trkpt>
<trkpt lat="49.28654291667044" lon="8.143174918368459">
<ele>153.79999999999995</ele>
<time>2023-05-17T14:21:24Z</time>
</trkpt>
<trkpt lat="49.28652296774089" lon="8.143107946962118">
<ele>154</ele>
<time>2023-05-17T14:21:25Z</time>
</trkpt>
<trkpt lat="49.28650293499231" lon="8.143049944192171">
<ele>154</ele>
<time>2023-05-17T14:21:26Z</time>
</trkpt>
<trkpt lat="49.286482986062765" lon="8.142989929765463">
<ele>154</ele>
<time>2023-05-17T14:21:27Z</time>
</trkpt>
<trkpt lat="49.286461947485805" lon="8.142931926995516">
<ele>154</ele>
<time>2023-05-17T14:21:28Z</time>
</trkpt>
<trkpt lat="49.286441998556256" lon="8.142869984731078">
<ele>154.20000000000005</ele>
<time>2023-05-17T14:21:29Z</time>
</trkpt>
<trkpt lat="49.286421965807676" lon="8.142811981961131">
<ele>154.20000000000005</ele>
<time>2023-05-17T14:21:30Z</time>
</trkpt>
<trkpt lat="49.286401933059096" lon="8.142754985019565">
<ele>154.20000000000005</ele>
<time>2023-05-17T14:21:31Z</time>
</trkpt>
<trkpt lat="49.28638198412955" lon="8.142696982249618">
<ele>154.39999999999998</ele>
<time>2023-05-17T14:21:32Z</time>
</trkpt>
<trkpt lat="49.28636295720935" lon="8.14263797365129">
<ele>154.39999999999998</ele>
<time>2023-05-17T14:21:33Z</time>
</trkpt>
<trkpt lat="49.28634493611753" lon="8.142576953396201">
<ele>154.60000000000002</ele>
<time>2023-05-17T14:21:34Z</time>
</trkpt>
<trkpt lat="49.28632699884474" lon="8.142511993646622">
<ele>154.60000000000002</ele>
<time>2023-05-17T14:21:35Z</time>
</trkpt>
<trkpt lat="49.286311995238066" lon="8.14244493842125">
<ele>154.79999999999995</ele>
<time>2023-05-17T14:21:36Z</time>
</trkpt>
<trkpt lat="49.28629497997463" lon="8.142374949529767">
<ele>154.79999999999995</ele>
<time>2023-05-17T14:21:37Z</time>
</trkpt>
<trkpt lat="49.28627695888281" lon="8.142304960638285">
<ele>154.79999999999995</ele>
<time>2023-05-17T14:21:38Z</time>
</trkpt>
<trkpt lat="49.28626195527613" lon="8.142236983403563">
<ele>154.79999999999995</ele>
<time>2023-05-17T14:21:39Z</time>
</trkpt>
<trkpt lat="49.28624192252755" lon="8.14216498285532">
<ele>154.79999999999995</ele>
<time>2023-05-17T14:21:40Z</time>
</trkpt>
<trkpt lat="49.286222979426384" lon="8.142087953165174">
<ele>154.79999999999995</ele>
<time>2023-05-17T14:21:41Z</time>
</trkpt>
<trkpt lat="49.286202946677804" lon="8.142009917646646">
<ele>154.79999999999995</ele>
<time>2023-05-17T14:21:42Z</time>
</trkpt>
<trkpt lat="49.286182997748256" lon="8.141937917098403">
<ele>154.60000000000002</ele>
<time>2023-05-17T14:21:43Z</time>
</trkpt>
<trkpt lat="49.286162964999676" lon="8.141869939863682">
<ele>154.60000000000002</ele>
<time>2023-05-17T14:21:44Z</time>
</trkpt>
<trkpt lat="49.286139998584986" lon="8.141804980114102">
<ele>154.60000000000002</ele>
<time>2023-05-17T14:21:45Z</time>
</trkpt>
<trkpt lat="49.28611292503774" lon="8.141732979565859">
<ele>154.60000000000002</ele>
<time>2023-05-17T14:21:46Z</time>
</trkpt>
<trkpt lat="49.2861149366945" lon="8.141666930168867">
<ele>154.39999999999998</ele>
<time>2023-05-17T14:21:47Z</time>
</trkpt>
<trkpt lat="49.286096999421716" lon="8.141597947105765">
<ele>154.39999999999998</ele>
<time>2023-05-17T14:21:48Z</time>
</trkpt>
<trkpt lat="49.28608492948115" lon="8.141514966264367">
<ele>154.39999999999998</ele>
<time>2023-05-17T14:21:49Z</time>
</trkpt>
<trkpt lat="49.28607193753123" lon="8.141452940180898">
<ele>154.39999999999998</ele>
<time>2023-05-17T14:21:50Z</time>
</trkpt>
<trkpt lat="49.286057939752936" lon="8.14139493741095">
<ele>154.39999999999998</ele>
<time>2023-05-17T14:21:51Z</time>
</trkpt>
<trkpt lat="49.28604695945978" lon="8.141336934641004">
<ele>154.39999999999998</ele>
<time>2023-05-17T14:21:52Z</time>
</trkpt>
<trkpt lat="49.286034973338246" lon="8.141277926042676">
<ele>154.39999999999998</ele>
<time>2023-05-17T14:21:53Z</time>
</trkpt>
<trkpt lat="49.28602298721671" lon="8.141217995435">
<ele>154.39999999999998</ele>
<time>2023-05-17T14:21:54Z</time>
</trkpt>
<trkpt lat="49.28600496612489" lon="8.141159992665052">
<ele>154.39999999999998</ele>
<time>2023-05-17T14:21:55Z</time>
</trkpt>
<trkpt lat="49.28598493337631" lon="8.141104923561215">
<ele>154.39999999999998</ele>
<time>2023-05-17T14:21:56Z</time>
</trkpt>
<trkpt lat="49.285966996103525" lon="8.141052955761552">
<ele>154.39999999999998</ele>
<time>2023-05-17T14:21:57Z</time>
</trkpt>
<trkpt lat="49.28595299832523" lon="8.141001993790269">
<ele>154.39999999999998</ele>
<time>2023-05-17T14:21:58Z</time>
</trkpt>
<trkpt lat="49.28593698889017" lon="8.140959916636348">
<ele>154.60000000000002</ele>
<time>2023-05-17T14:21:59Z</time>
</trkpt>
<trkpt lat="49.285924918949604" lon="8.140916917473078">
<ele>154.60000000000002</ele>
<time>2023-05-17T14:22:00Z</time>
</trkpt>
<trkpt lat="49.28591293282807" lon="8.140872996300459">
<ele>154.79999999999995</ele>
<time>2023-05-17T14:22:01Z</time>
</trkpt>
<trkpt lat="49.28589994087815" lon="8.140827985480428">
<ele>154.79999999999995</ele>
<time>2023-05-17T14:22:02Z</time>
</trkpt>
<trkpt lat="49.28588694892824" lon="8.140779957175255">
<ele>155</ele>
<time>2023-05-17T14:22:03Z</time>
</trkpt>
<trkpt lat="49.28587194532156" lon="8.140727989375591">
<ele>155.20000000000005</ele>
<time>2023-05-17T14:22:04Z</time>
</trkpt>
<trkpt lat="49.285859959200025" lon="8.140672920271754">
<ele>155.39999999999998</ele>
<time>2023-05-17T14:22:05Z</time>
</trkpt>
<trkpt lat="49.28584998473525" lon="8.140611983835697">
<ele>155.60000000000002</ele>
<time>2023-05-17T14:22:06Z</time>
</trkpt>
<trkpt lat="49.285837998613715" lon="8.140549957752228">
<ele>155.79999999999995</ele>
<time>2023-05-17T14:22:07Z</time>
</trkpt>
<trkpt lat="49.28582299500704" lon="8.14049195498228">
<ele>156</ele>
<time>2023-05-17T14:22:08Z</time>
</trkpt>
<trkpt lat="49.28580698557198" lon="8.140431940555573">
<ele>156.20000000000005</ele>
<time>2023-05-17T14:22:09Z</time>
</trkpt>
<trkpt lat="49.285794999450445" lon="8.140367986634374">
<ele>156.20000000000005</ele>
<time>2023-05-17T14:22:10Z</time>
</trkpt>
<trkpt lat="49.2857869528234" lon="8.140304954722524">
<ele>156.39999999999998</ele>
<time>2023-05-17T14:22:11Z</time>
</trkpt>
<trkpt lat="49.285774966701865" lon="8.140241922810674">
<ele>156.60000000000002</ele>
<time>2023-05-17T14:22:12Z</time>
</trkpt>
<trkpt lat="49.28576197475195" lon="8.140179980546236">
<ele>156.60000000000002</ele>
<time>2023-05-17T14:22:13Z</time>
</trkpt>
<trkpt lat="49.28574697114527" lon="8.140116948634386">
<ele>156.79999999999995</ele>
<time>2023-05-17T14:22:14Z</time>
</trkpt>
<trkpt lat="49.285732973366976" lon="8.140054922550917">
<ele>156.79999999999995</ele>
<time>2023-05-17T14:22:15Z</time>
</trkpt>
<trkpt lat="49.28571998141706" lon="8.139989962801337">
<ele>156.79999999999995</ele>
<time>2023-05-17T14:22:16Z</time>
</trkpt>
<trkpt lat="49.28570497781038" lon="8.139929948374629">
<ele>157</ele>
<time>2023-05-17T14:22:17Z</time>
</trkpt>
<trkpt lat="49.285689974203706" lon="8.13986498862505">
<ele>157</ele>
<time>2023-05-17T14:22:18Z</time>
</trkpt>
<trkpt lat="49.28567497059703" lon="8.1398019567132">
<ele>157</ele>
<time>2023-05-17T14:22:19Z</time>
</trkpt>
<trkpt lat="49.28565996699035" lon="8.13973993062973">
<ele>157.20000000000005</ele>
<time>2023-05-17T14:22:20Z</time>
</trkpt>
<trkpt lat="49.28564295172691" lon="8.139676982536912">
<ele>157.20000000000005</ele>
<time>2023-05-17T14:22:21Z</time>
</trkpt>
<trkpt lat="49.285626942291856" lon="8.139612944796681">
<ele>157.20000000000005</ele>
<time>2023-05-17T14:22:22Z</time>
</trkpt>
<trkpt lat="49.28560799919069" lon="8.13954496756196">
<ele>157.39999999999998</ele>
<time>2023-05-17T14:22:23Z</time>
</trkpt>
<trkpt lat="49.28559299558401" lon="8.13947799615562">
<ele>157.39999999999998</ele>
<time>2023-05-17T14:22:24Z</time>
</trkpt>
<trkpt lat="49.28557698614895" lon="8.139409935101867">
<ele>157.60000000000002</ele>
<time>2023-05-17T14:22:25Z</time>
</trkpt>
<trkpt lat="49.285559970885515" lon="8.139344975352287">
<ele>157.60000000000002</ele>
<time>2023-05-17T14:22:26Z</time>
</trkpt>
<trkpt lat="49.28554496727884" lon="8.139279931783676">
<ele>157.79999999999995</ele>
<time>2023-05-17T14:22:27Z</time>
</trkpt>
<trkpt lat="49.28552996367216" lon="8.139217989519238">
<ele>157.79999999999995</ele>
<time>2023-05-17T14:22:28Z</time>
</trkpt>
<trkpt lat="49.285514960065484" lon="8.139149928465486">
<ele>158</ele>
<time>2023-05-17T14:22:29Z</time>
</trkpt>
<trkpt lat="49.28550297394395" lon="8.139081951230764">
<ele>158</ele>
<time>2023-05-17T14:22:30Z</time>
</trkpt>
<trkpt lat="49.285492999479175" lon="8.139012968167663">
<ele>158.20000000000005</ele>
<time>2023-05-17T14:22:31Z</time>
</trkpt>
<trkpt lat="49.28547992371023" lon="8.138946918770671">
<ele>158.20000000000005</ele>
<time>2023-05-17T14:22:32Z</time>
</trkpt>
<trkpt lat="49.28546693176031" lon="8.13887994736433">
<ele>158.39999999999998</ele>
<time>2023-05-17T14:22:33Z</time>
</trkpt>
<trkpt lat="49.285451928153634" lon="8.13881297595799">
<ele>158.60000000000002</ele>
<time>2023-05-17T14:22:34Z</time>
</trkpt>
<trkpt lat="49.28543499670923" lon="8.138747932389379">
<ele>158.60000000000002</ele>
<time>2023-05-17T14:22:35Z</time>
</trkpt>
<trkpt lat="49.28541697561741" lon="8.138681966811419">
<ele>158.79999999999995</ele>
<time>2023-05-17T14:22:36Z</time>
</trkpt>
<trkpt lat="49.28539493121207" lon="8.138616923242807">
<ele>158.79999999999995</ele>
<time>2023-05-17T14:22:37Z</time>
</trkpt>
<trkpt lat="49.28537699393928" lon="8.138552969321609">
<ele>159</ele>
<time>2023-05-17T14:22:38Z</time>
</trkpt>
<trkpt lat="49.285362996160984" lon="8.138486919924617">
<ele>159.20000000000005</ele>
<time>2023-05-17T14:22:39Z</time>
</trkpt>
<trkpt lat="49.28534799255431" lon="8.138419948518276">
<ele>159.20000000000005</ele>
<time>2023-05-17T14:22:40Z</time>
</trkpt>
<trkpt lat="49.28533692844212" lon="8.138352977111936">
<ele>159.39999999999998</ele>
<time>2023-05-17T14:22:41Z</time>
</trkpt>
<trkpt lat="49.285322930663824" lon="8.138287933543324">
<ele>159.39999999999998</ele>
<time>2023-05-17T14:22:42Z</time>
</trkpt>
<trkpt lat="49.28530792705715" lon="8.138221967965364">
<ele>159.60000000000002</ele>
<time>2023-05-17T14:22:43Z</time>
</trkpt>
<trkpt lat="49.28529493510723" lon="8.138156924396753">
<ele>159.60000000000002</ele>
<time>2023-05-17T14:22:44Z</time>
</trkpt>
<trkpt lat="49.285281943157315" lon="8.138092970475554">
<ele>159.79999999999995</ele>
<time>2023-05-17T14:22:45Z</time>
</trkpt>
<trkpt lat="49.28526693955064" lon="8.138027926906943">
<ele>159.79999999999995</ele>
<time>2023-05-17T14:22:46Z</time>
</trkpt>
<trkpt lat="49.28525193594396" lon="8.137962967157364">
<ele>160</ele>
<time>2023-05-17T14:22:47Z</time>
</trkpt>
<trkpt lat="49.285237938165665" lon="8.137896917760372">
<ele>160</ele>
<time>2023-05-17T14:22:48Z</time>
</trkpt>
<trkpt lat="49.28522494621575" lon="8.137829946354032">
<ele>160.20000000000005</ele>
<time>2023-05-17T14:22:49Z</time>
</trkpt>
<trkpt lat="49.28521195426583" lon="8.137762974947691">
<ele>160.20000000000005</ele>
<time>2023-05-17T14:22:50Z</time>
</trkpt>
<trkpt lat="49.285196950659156" lon="8.137699943035841">
<ele>160.39999999999998</ele>
<time>2023-05-17T14:22:51Z</time>
</trkpt>
<trkpt lat="49.28518496453762" lon="8.1376329716295">
<ele>160.39999999999998</ele>
<time>2023-05-17T14:22:52Z</time>
</trkpt>
<trkpt lat="49.285172978416085" lon="8.13756792806089">
<ele>160.60000000000002</ele>
<time>2023-05-17T14:22:53Z</time>
</trkpt>
<trkpt lat="49.28516292013228" lon="8.13750296831131">
<ele>160.60000000000002</ele>
<time>2023-05-17T14:22:54Z</time>
</trkpt>
<trkpt lat="49.285151939839125" lon="8.137436918914318">
<ele>160.79999999999995</ele>
<time>2023-05-17T14:22:55Z</time>
</trkpt>
<trkpt lat="49.28514196537435" lon="8.137367935851216">
<ele>160.79999999999995</ele>
<time>2023-05-17T14:22:56Z</time>
</trkpt>
<trkpt lat="49.28513299673796" lon="8.137299958616495">
<ele>161</ele>
<time>2023-05-17T14:22:57Z</time>
</trkpt>
<trkpt lat="49.28512495011091" lon="8.137231981381774">
<ele>161</ele>
<time>2023-05-17T14:22:58Z</time>
</trkpt>
<trkpt lat="49.28511497564614" lon="8.137161992490292">
<ele>161.20000000000005</ele>
<time>2023-05-17T14:22:59Z</time>
</trkpt>
<trkpt lat="49.2851029895246" lon="8.137092925608158">
<ele>161.20000000000005</ele>
<time>2023-05-17T14:23:00Z</time>
</trkpt>
<trkpt lat="49.2850929312408" lon="8.137024948373437">
<ele>161.39999999999998</ele>
<time>2023-05-17T14:23:01Z</time>
</trkpt>
<trkpt lat="49.28508295677602" lon="8.136956971138716">
<ele>161.39999999999998</ele>
<time>2023-05-17T14:23:02Z</time>
</trkpt>
<trkpt lat="49.28507298231125" lon="8.136886982247233">
<ele>161.60000000000002</ele>
<time>2023-05-17T14:23:03Z</time>
</trkpt>
<trkpt lat="49.28506191819906" lon="8.136817999184132">
<ele>161.60000000000002</ele>
<time>2023-05-17T14:23:04Z</time>
</trkpt>
<trkpt lat="49.28504993207753" lon="8.136747926473618">
<ele>161.79999999999995</ele>
<time>2023-05-17T14:23:05Z</time>
</trkpt>
<trkpt lat="49.28503995761275" lon="8.136677937582135">
<ele>161.79999999999995</ele>
<time>2023-05-17T14:23:06Z</time>
</trkpt>
<trkpt lat="49.28503199480474" lon="8.136609960347414">
<ele>162</ele>
<time>2023-05-17T14:23:07Z</time>
</trkpt>
<trkpt lat="49.28501992486417" lon="8.136542988941073">
<ele>162.20000000000005</ele>
<time>2023-05-17T14:23:08Z</time>
</trkpt>
<trkpt lat="49.2850099503994" lon="8.13647492788732">
<ele>162.20000000000005</ele>
<time>2023-05-17T14:23:09Z</time>
</trkpt>
<trkpt lat="49.28499796427786" lon="8.1364069506526">
<ele>162.39999999999998</ele>
<time>2023-05-17T14:23:10Z</time>
</trkpt>
<trkpt lat="49.28498698398471" lon="8.136334950104356">
<ele>162.39999999999998</ele>
<time>2023-05-17T14:23:11Z</time>
</trkpt>
<trkpt lat="49.2849769257009" lon="8.136266972869635">
<ele>162.60000000000002</ele>
<time>2023-05-17T14:23:12Z</time>
</trkpt>
<trkpt lat="49.28496493957937" lon="8.136197989806533">
<ele>162.79999999999995</ele>
<time>2023-05-17T14:23:13Z</time>
</trkpt>
<trkpt lat="49.28495295345783" lon="8.13612992875278">
<ele>162.79999999999995</ele>
<time>2023-05-17T14:23:14Z</time>
</trkpt>
<trkpt lat="49.28494297899306" lon="8.136061951518059">
<ele>163</ele>
<time>2023-05-17T14:23:15Z</time>
</trkpt>
<trkpt lat="49.28493292070925" lon="8.135994980111718">
<ele>163</ele>
<time>2023-05-17T14:23:16Z</time>
</trkpt>
<trkpt lat="49.2849219404161" lon="8.135926919057965">
<ele>163</ele>
<time>2023-05-17T14:23:17Z</time>
</trkpt>
<trkpt lat="49.28490995429456" lon="8.135862965136766">
<ele>163</ele>
<time>2023-05-17T14:23:18Z</time>
</trkpt>
<trkpt lat="49.28489796817303" lon="8.135796999558806">
<ele>163.20000000000005</ele>
<time>2023-05-17T14:23:19Z</time>
</trkpt>
<trkpt lat="49.28488799370825" lon="8.135724999010563">
<ele>163.20000000000005</ele>
<time>2023-05-17T14:23:20Z</time>
</trkpt>
<trkpt lat="49.28487692959607" lon="8.13565794378519">
<ele>163.20000000000005</ele>
<time>2023-05-17T14:23:21Z</time>
</trkpt>
<trkpt lat="49.28486695513129" lon="8.13558996655047">
<ele>163.39999999999998</ele>
<time>2023-05-17T14:23:22Z</time>
</trkpt>
<trkpt lat="49.28485698066652" lon="8.135521989315748">
<ele>163.39999999999998</ele>
<time>2023-05-17T14:23:23Z</time>
</trkpt>
<trkpt lat="49.28484499454498" lon="8.135452922433615">
<ele>163.60000000000002</ele>
<time>2023-05-17T14:23:24Z</time>
</trkpt>
<trkpt lat="49.284832924604416" lon="8.135386956855655">
<ele>163.60000000000002</ele>
<time>2023-05-17T14:23:25Z</time>
</trkpt>
<trkpt lat="49.28482295013964" lon="8.135317973792553">
<ele>163.79999999999995</ele>
<time>2023-05-17T14:23:26Z</time>
</trkpt>
<trkpt lat="49.28481297567487" lon="8.135251924395561">
<ele>163.79999999999995</ele>
<time>2023-05-17T14:23:27Z</time>
</trkpt>
<trkpt lat="49.28480199538171" lon="8.13518495298922">
<ele>164</ele>
<time>2023-05-17T14:23:28Z</time>
</trkpt>
<trkpt lat="49.28479294292629" lon="8.1351169757545">
<ele>164</ele>
<time>2023-05-17T14:23:29Z</time>
</trkpt>
<trkpt lat="49.28478296846151" lon="8.135047992691398">
<ele>164.20000000000005</ele>
<time>2023-05-17T14:23:30Z</time>
</trkpt>
<trkpt lat="49.28477198816836" lon="8.134977919980884">
<ele>164.20000000000005</ele>
<time>2023-05-17T14:23:31Z</time>
</trkpt>
<trkpt lat="49.28475991822779" lon="8.134909942746162">
<ele>164.39999999999998</ele>
<time>2023-05-17T14:23:32Z</time>
</trkpt>
<trkpt lat="49.28474793210626" lon="8.134841965511441">
<ele>164.60000000000002</ele>
<time>2023-05-17T14:23:33Z</time>
</trkpt>
<trkpt lat="49.28473795764148" lon="8.13477298244834">
<ele>164.60000000000002</ele>
<time>2023-05-17T14:23:34Z</time>
</trkpt>
<trkpt lat="49.28472697734833" lon="8.134704921394587">
<ele>164.79999999999995</ele>
<time>2023-05-17T14:23:35Z</time>
</trkpt>
<trkpt lat="49.28471691906452" lon="8.134634932503104">
<ele>164.79999999999995</ele>
<time>2023-05-17T14:23:36Z</time>
</trkpt>
<trkpt lat="49.28470694459975" lon="8.13456293195486">
<ele>165</ele>
<time>2023-05-17T14:23:37Z</time>
</trkpt>
<trkpt lat="49.28469697013497" lon="8.134492943063378">
<ele>165.20000000000005</ele>
<time>2023-05-17T14:23:38Z</time>
</trkpt>
<trkpt lat="49.2846869956702" lon="8.134424965828657">
<ele>165.20000000000005</ele>
<time>2023-05-17T14:23:39Z</time>
</trkpt>
<trkpt lat="49.28467492572963" lon="8.134354976937175">
<ele>165.39999999999998</ele>
<time>2023-05-17T14:23:40Z</time>
</trkpt>
<trkpt lat="49.28466495126486" lon="8.134286999702454">
<ele>165.60000000000002</ele>
<time>2023-05-17T14:23:41Z</time>
</trkpt>
<trkpt lat="49.28464994765818" lon="8.134224973618984">
<ele>165.79999999999995</ele>
<time>2023-05-17T14:23:42Z</time>
</trkpt>
<trkpt lat="49.28464198485017" lon="8.134157918393612">
<ele>165.79999999999995</ele>
<time>2023-05-17T14:23:43Z</time>
</trkpt>
<trkpt lat="49.28463192656636" lon="8.134091952815652">
<ele>166</ele>
<time>2023-05-17T14:23:44Z</time>
</trkpt>
<trkpt lat="49.28461994044483" lon="8.13402296975255">
<ele>166.20000000000005</ele>
<time>2023-05-17T14:23:45Z</time>
</trkpt>
<trkpt lat="49.284611977636814" lon="8.133954992517829">
<ele>166.20000000000005</ele>
<time>2023-05-17T14:23:46Z</time>
</trkpt>
<trkpt lat="49.28460292518139" lon="8.133887937292457">
<ele>166.20000000000005</ele>
<time>2023-05-17T14:23:47Z</time>
</trkpt>
<trkpt lat="49.28459797985852" lon="8.133822977542877">
<ele>166.39999999999998</ele>
<time>2023-05-17T14:23:48Z</time>
</trkpt>
<trkpt lat="49.284591944888234" lon="8.133756928145885">
<ele>166.39999999999998</ele>
<time>2023-05-17T14:23:49Z</time>
</trkpt>
<trkpt lat="49.28457694128156" lon="8.133687945082784">
<ele>166.60000000000002</ele>
<time>2023-05-17T14:23:50Z</time>
</trkpt>
<trkpt lat="49.28456294350326" lon="8.133622985333204">
<ele>166.79999999999995</ele>
<time>2023-05-17T14:23:51Z</time>
</trkpt>
<trkpt lat="49.284549951553345" lon="8.133557941764593">
<ele>167</ele>
<time>2023-05-17T14:23:52Z</time>
</trkpt>
<trkpt lat="49.28453494794667" lon="8.133489964529872">
<ele>167</ele>
<time>2023-05-17T14:23:53Z</time>
</trkpt>
<trkpt lat="49.28451994433999" lon="8.133422993123531">
<ele>167.20000000000005</ele>
<time>2023-05-17T14:23:54Z</time>
</trkpt>
<trkpt lat="49.284504940733314" lon="8.133354932069778">
<ele>167.20000000000005</ele>
<time>2023-05-17T14:23:55Z</time>
</trkpt>
<trkpt lat="49.2844919487834" lon="8.133287960663438">
<ele>167.39999999999998</ele>
<time>2023-05-17T14:23:56Z</time>
</trkpt>
<trkpt lat="49.2844779510051" lon="8.133226940408349">
<ele>167.60000000000002</ele>
<time>2023-05-17T14:23:57Z</time>
</trkpt>
<trkpt lat="49.28447493351996" lon="8.13316198065877">
<ele>167.60000000000002</ele>
<time>2023-05-17T14:23:58Z</time>
</trkpt>
<trkpt lat="49.28446697071195" lon="8.133094925433397">
<ele>167.79999999999995</ele>
<time>2023-05-17T14:23:59Z</time>
</trkpt>
<trkpt lat="49.28445699624717" lon="8.133026948198676">
<ele>167.79999999999995</ele>
<time>2023-05-17T14:24:00Z</time>
</trkpt>
<trkpt lat="49.28444794379175" lon="8.132959976792336">
<ele>168</ele>
<time>2023-05-17T14:24:01Z</time>
</trkpt>
<trkpt lat="49.284441992640495" lon="8.132887976244092">
<ele>168.20000000000005</ele>
<time>2023-05-17T14:24:02Z</time>
</trkpt>
<trkpt lat="49.28443294018507" lon="8.13281798735261">
<ele>168.20000000000005</ele>
<time>2023-05-17T14:24:03Z</time>
</trkpt>
<trkpt lat="49.28442698903382" lon="8.132749926298857">
<ele>168.39999999999998</ele>
<time>2023-05-17T14:24:04Z</time>
</trkpt>
<trkpt lat="49.28441793657839" lon="8.132682954892516">
<ele>168.60000000000002</ele>
<time>2023-05-17T14:24:05Z</time>
</trkpt>
<trkpt lat="49.28440997377038" lon="8.132616989314556">
<ele>168.60000000000002</ele>
<time>2023-05-17T14:24:06Z</time>
</trkpt>
<trkpt lat="49.284399999305606" lon="8.132551945745945">
<ele>168.79999999999995</ele>
<time>2023-05-17T14:24:07Z</time>
</trkpt>
<trkpt lat="49.28438692353666" lon="8.132487991824746">
<ele>168.79999999999995</ele>
<time>2023-05-17T14:24:08Z</time>
</trkpt>
<trkpt lat="49.284376949071884" lon="8.132421942427754">
<ele>169</ele>
<time>2023-05-17T14:24:09Z</time>
</trkpt>
<trkpt lat="49.28436697460711" lon="8.132354971021414">
<ele>169.20000000000005</ele>
<time>2023-05-17T14:24:10Z</time>
</trkpt>
<trkpt lat="49.28434995934367" lon="8.132289927452803">
<ele>169.20000000000005</ele>
<time>2023-05-17T14:24:11Z</time>
</trkpt>
<trkpt lat="49.284332944080234" lon="8.132222956046462">
<ele>169.39999999999998</ele>
<time>2023-05-17T14:24:12Z</time>
</trkpt>
<trkpt lat="49.284312995150685" lon="8.132159924134612">
<ele>169.60000000000002</ele>
<time>2023-05-17T14:24:13Z</time>
</trkpt>
<trkpt lat="49.284292962402105" lon="8.132097981870174">
<ele>169.60000000000002</ele>
<time>2023-05-17T14:24:14Z</time>
</trkpt>
<trkpt lat="49.284269995987415" lon="8.132039979100227">
<ele>169.79999999999995</ele>
<time>2023-05-17T14:24:15Z</time>
</trkpt>
<trkpt lat="49.28424493409693" lon="8.131984993815422">
<ele>169.79999999999995</ele>
<time>2023-05-17T14:24:16Z</time>
</trkpt>
<trkpt lat="49.28421995602548" lon="8.131929924711585">
<ele>170</ele>
<time>2023-05-17T14:24:17Z</time>
</trkpt>
<trkpt lat="49.28419196046889" lon="8.131872927770019">
<ele>170</ele>
<time>2023-05-17T14:24:18Z</time>
</trkpt>
<trkpt lat="49.28416698239744" lon="8.131817942485213">
<ele>170.20000000000005</ele>
<time>2023-05-17T14:24:19Z</time>
</trkpt>
<trkpt lat="49.284141920506954" lon="8.13176496885717">
<ele>170.39999999999998</ele>
<time>2023-05-17T14:24:20Z</time>
</trkpt>
<trkpt lat="49.2841169424355" lon="8.131711995229125">
<ele>170.39999999999998</ele>
<time>2023-05-17T14:24:21Z</time>
</trkpt>
<trkpt lat="49.284094981849194" lon="8.131654998287559">
<ele>170.60000000000002</ele>
<time>2023-05-17T14:24:22Z</time>
</trkpt>
<trkpt lat="49.284074949100614" lon="8.13159791752696">
<ele>170.60000000000002</ele>
<time>2023-05-17T14:24:23Z</time>
</trkpt>
<trkpt lat="49.284054916352034" lon="8.131544943898916">
<ele>170.79999999999995</ele>
<time>2023-05-17T14:24:24Z</time>
</trkpt>
<trkpt lat="49.284032955765724" lon="8.131489958614111">
<ele>171</ele>
<time>2023-05-17T14:24:25Z</time>
</trkpt>
<trkpt lat="49.284012923017144" lon="8.131432961672544">
<ele>171.20000000000005</ele>
<time>2023-05-17T14:24:26Z</time>
</trkpt>
<trkpt lat="49.28399498574436" lon="8.131374958902597">
<ele>171.20000000000005</ele>
<time>2023-05-17T14:24:27Z</time>
</trkpt>
<trkpt lat="49.28397696465254" lon="8.131317961961031">
<ele>171.39999999999998</ele>
<time>2023-05-17T14:24:28Z</time>
</trkpt>
<trkpt lat="49.28395693190396" lon="8.131261970847845">
<ele>171.60000000000002</ele>
<time>2023-05-17T14:24:29Z</time>
</trkpt>
<trkpt lat="49.28393991664052" lon="8.13120698556304">
<ele>171.79999999999995</ele>
<time>2023-05-17T14:24:30Z</time>
</trkpt>
<trkpt lat="49.28392197936773" lon="8.131152922287583">
<ele>172</ele>
<time>2023-05-17T14:24:31Z</time>
</trkpt>
<trkpt lat="49.283904964104295" lon="8.1311019603163">
<ele>172</ele>
<time>2023-05-17T14:24:32Z</time>
</trkpt>
<trkpt lat="49.283886943012476" lon="8.131047980859876">
<ele>172.20000000000005</ele>
<time>2023-05-17T14:24:33Z</time>
</trkpt>
<trkpt lat="49.28387495689094" lon="8.130997940897942">
<ele>172.39999999999998</ele>
<time>2023-05-17T14:24:34Z</time>
</trkpt>
<trkpt lat="49.283861964941025" lon="8.130942955613136">
<ele>172.60000000000002</ele>
<time>2023-05-17T14:24:35Z</time>
</trkpt>
<trkpt lat="49.28385199047625" lon="8.130887970328331">
<ele>172.79999999999995</ele>
<time>2023-05-17T14:24:36Z</time>
</trkpt>
<trkpt lat="49.28384494967759" lon="8.130834996700287">
<ele>173</ele>
<time>2023-05-17T14:24:37Z</time>
</trkpt>
<trkpt lat="49.283836986869574" lon="8.130782945081592">
<ele>173.20000000000005</ele>
<time>2023-05-17T14:24:38Z</time>
</trkpt>
<trkpt lat="49.28382692858577" lon="8.130731983110309">
<ele>173.39999999999998</ele>
<time>2023-05-17T14:24:39Z</time>
</trkpt>
<trkpt lat="49.283817959949374" lon="8.130682948976755">
<ele>173.60000000000002</ele>
<time>2023-05-17T14:24:40Z</time>
</trkpt>
<trkpt lat="49.28380697965622" lon="8.130637938156724">
<ele>173.79999999999995</ele>
<time>2023-05-17T14:24:41Z</time>
</trkpt>
<trkpt lat="49.283794993534684" lon="8.130587982013822">
<ele>174</ele>
<time>2023-05-17T14:24:42Z</time>
</trkpt>
<trkpt lat="49.28378191776574" lon="8.130537942051888">
<ele>174</ele>
<time>2023-05-17T14:24:43Z</time>
</trkpt>
<trkpt lat="49.2837699316442" lon="8.130489997565746">
<ele>174.20000000000005</ele>
<time>2023-05-17T14:24:44Z</time>
</trkpt>
<trkpt lat="49.28375995717943" lon="8.130441969260573">
<ele>174.39999999999998</ele>
<time>2023-05-17T14:24:45Z</time>
</trkpt>
<trkpt lat="49.28374797105789" lon="8.13039293512702">
<ele>174.60000000000002</ele>
<time>2023-05-17T14:24:46Z</time>
</trkpt>
<trkpt lat="49.28374193608761" lon="8.130344990640879">
<ele>174.79999999999995</ele>
<time>2023-05-17T14:24:47Z</time>
</trkpt>
<trkpt lat="49.283732967451215" lon="8.130297968164086">
<ele>175</ele>
<time>2023-05-17T14:24:48Z</time>
</trkpt>
<trkpt lat="49.28372693248093" lon="8.130247928202152">
<ele>175</ele>
<time>2023-05-17T14:24:49Z</time>
</trkpt>
<trkpt lat="49.283714946359396" lon="8.130199983716011">
<ele>175.20000000000005</ele>
<time>2023-05-17T14:24:50Z</time>
</trkpt>
<trkpt lat="49.28370497189462" lon="8.130149943754077">
<ele>175.39999999999998</ele>
<time>2023-05-17T14:24:51Z</time>
</trkpt>
<trkpt lat="49.28369298577309" lon="8.130101999267936">
<ele>175.39999999999998</ele>
<time>2023-05-17T14:24:52Z</time>
</trkpt>
<trkpt lat="49.28367798216641" lon="8.130052965134382">
<ele>175.60000000000002</ele>
<time>2023-05-17T14:24:53Z</time>
</trkpt>
<trkpt lat="49.28366297855973" lon="8.13000694848597">
<ele>175.79999999999995</ele>
<time>2023-05-17T14:24:54Z</time>
</trkpt>
<trkpt lat="49.28364294581115" lon="8.12996294349432">
<ele>176</ele>
<time>2023-05-17T14:24:55Z</time>
</trkpt>
<trkpt lat="49.283626936376095" lon="8.12991994433105">
<ele>176.20000000000005</ele>
<time>2023-05-17T14:24:56Z</time>
</trkpt>
<trkpt lat="49.28360799327493" lon="8.12987694516778">
<ele>176.39999999999998</ele>
<time>2023-05-17T14:24:57Z</time>
</trkpt>
<trkpt lat="49.28359198383987" lon="8.129831934347749">
<ele>176.39999999999998</ele>
<time>2023-05-17T14:24:58Z</time>
</trkpt>
<trkpt lat="49.28357698023319" lon="8.129786923527718">
<ele>176.60000000000002</ele>
<time>2023-05-17T14:24:59Z</time>
</trkpt>
<trkpt lat="49.283561976626515" lon="8.129741996526718">
<ele>176.79999999999995</ele>
<time>2023-05-17T14:25:00Z</time>
</trkpt>
<trkpt lat="49.28354496136308" lon="8.129696985706687">
<ele>177</ele>
<time>2023-05-17T14:25:01Z</time>
</trkpt>
<trkpt lat="49.28352694027126" lon="8.129654992371798">
<ele>177.20000000000005</ele>
<time>2023-05-17T14:25:02Z</time>
</trkpt>
<trkpt lat="49.28350497968495" lon="8.129612999036908">
<ele>177.20000000000005</ele>
<time>2023-05-17T14:25:03Z</time>
</trkpt>
<trkpt lat="49.28348293527961" lon="8.129572933539748">
<ele>177.39999999999998</ele>
<time>2023-05-17T14:25:04Z</time>
</trkpt>
<trkpt lat="49.28346198052168" lon="8.129536975175142">
<ele>177.60000000000002</ele>
<time>2023-05-17T14:25:05Z</time>
</trkpt>
<trkpt lat="49.28343993611634" lon="8.129501938819885">
<ele>177.79999999999995</ele>
<time>2023-05-17T14:25:06Z</time>
</trkpt>
<trkpt lat="49.28341797553003" lon="8.12946698628366">
<ele>177.79999999999995</ele>
<time>2023-05-17T14:25:07Z</time>
</trkpt>
<trkpt lat="49.28339794278145" lon="8.129431949928403">
<ele>178</ele>
<time>2023-05-17T14:25:08Z</time>
</trkpt>
<trkpt lat="49.28337698802352" lon="8.129394985735416">
<ele>178.20000000000005</ele>
<time>2023-05-17T14:25:09Z</time>
</trkpt>
<trkpt lat="49.28335494361818" lon="8.12935994938016">
<ele>178.39999999999998</ele>
<time>2023-05-17T14:25:10Z</time>
</trkpt>
<trkpt lat="49.28332996554673" lon="8.129326924681664">
<ele>178.60000000000002</ele>
<time>2023-05-17T14:25:11Z</time>
</trkpt>
<trkpt lat="49.283307921141386" lon="8.12929498963058">
<ele>178.60000000000002</ele>
<time>2023-05-17T14:25:12Z</time>
</trkpt>
<trkpt lat="49.28328797221184" lon="8.129262970760465">
<ele>178.79999999999995</ele>
<time>2023-05-17T14:25:13Z</time>
</trkpt>
<trkpt lat="49.28326995112002" lon="8.129234975203872">
<ele>179</ele>
<time>2023-05-17T14:25:14Z</time>
</trkpt>
<trkpt lat="49.28324991837144" lon="8.129202956333756">
<ele>179.20000000000005</ele>
<time>2023-05-17T14:25:15Z</time>
</trkpt>
<trkpt lat="49.28323198109865" lon="8.12916993163526">
<ele>179.39999999999998</ele>
<time>2023-05-17T14:25:16Z</time>
</trkpt>
<trkpt lat="49.283217983320355" lon="8.129137996584177">
<ele>179.60000000000002</ele>
<time>2023-05-17T14:25:17Z</time>
</trkpt>
<trkpt lat="49.283197950571775" lon="8.12910296022892">
<ele>179.60000000000002</ele>
<time>2023-05-17T14:25:18Z</time>
</trkpt>
<trkpt lat="49.28318194113672" lon="8.129066918045282">
<ele>179.79999999999995</ele>
<time>2023-05-17T14:25:19Z</time>
</trkpt>
<trkpt lat="49.28316693753004" lon="8.129031965509057">
<ele>180</ele>
<time>2023-05-17T14:25:20Z</time>
</trkpt>
<trkpt lat="49.283151933923364" lon="8.12899298965931">
<ele>180.20000000000005</ele>
<time>2023-05-17T14:25:21Z</time>
</trkpt>
<trkpt lat="49.283132990822196" lon="8.128956947475672">
<ele>180.20000000000005</ele>
<time>2023-05-17T14:25:22Z</time>
</trkpt>
<trkpt lat="49.28311798721552" lon="8.128919983282685">
<ele>180.39999999999998</ele>
<time>2023-05-17T14:25:23Z</time>
</trkpt>
<trkpt lat="49.28310197778046" lon="8.12888695858419">
<ele>180.60000000000002</ele>
<time>2023-05-17T14:25:24Z</time>
</trkpt>
<trkpt lat="49.28308295086026" lon="8.128849994391203">
<ele>180.60000000000002</ele>
<time>2023-05-17T14:25:25Z</time>
</trkpt>
<trkpt lat="49.283067947253585" lon="8.128811940550804">
<ele>180.79999999999995</ele>
<time>2023-05-17T14:25:26Z</time>
</trkpt>
<trkpt lat="49.28305193781853" lon="8.128771958872676">
<ele>181</ele>
<time>2023-05-17T14:25:27Z</time>
</trkpt>
<trkpt lat="49.28303299471736" lon="8.128729965537786">
<ele>181.20000000000005</ele>
<time>2023-05-17T14:25:28Z</time>
</trkpt>
<trkpt lat="49.2830169852823" lon="8.128686966374516">
<ele>181.39999999999998</ele>
<time>2023-05-17T14:25:29Z</time>
</trkpt>
<trkpt lat="49.28300499916077" lon="8.128639943897724">
<ele>181.60000000000002</ele>
<time>2023-05-17T14:25:30Z</time>
</trkpt>
<trkpt lat="49.28298999555409" lon="8.128592921420932">
<ele>181.79999999999995</ele>
<time>2023-05-17T14:25:31Z</time>
</trkpt>
<trkpt lat="49.28297499194741" lon="8.12854497693479">
<ele>181.79999999999995</ele>
<time>2023-05-17T14:25:32Z</time>
</trkpt>
<trkpt lat="49.282959988340735" lon="8.128496948629618">
<ele>182</ele>
<time>2023-05-17T14:25:33Z</time>
</trkpt>
<trkpt lat="49.28294699639082" lon="8.128449926152825">
<ele>182.20000000000005</ele>
<time>2023-05-17T14:25:34Z</time>
</trkpt>
<trkpt lat="49.28293299861252" lon="8.128404999151826">
<ele>182.39999999999998</ele>
<time>2023-05-17T14:25:35Z</time>
</trkpt>
<trkpt lat="49.282917995005846" lon="8.128364933654666">
<ele>182.60000000000002</ele>
<time>2023-05-17T14:25:36Z</time>
</trkpt>
<trkpt lat="49.2829049192369" lon="8.128324951976538">
<ele>182.79999999999995</ele>
<time>2023-05-17T14:25:37Z</time>
</trkpt>
<trkpt lat="49.28289997391403" lon="8.12828497029841">
<ele>183</ele>
<time>2023-05-17T14:25:38Z</time>
</trkpt>
<trkpt lat="49.28289293311536" lon="8.128239959478378">
<ele>183</ele>
<time>2023-05-17T14:25:39Z</time>
</trkpt>
<trkpt lat="49.28288497030735" lon="8.128194948658347">
<ele>183.20000000000005</ele>
<time>2023-05-17T14:25:40Z</time>
</trkpt>
<trkpt lat="49.282874995842576" lon="8.128151949495077">
<ele>183.20000000000005</ele>
<time>2023-05-17T14:25:41Z</time>
</trkpt>
<trkpt lat="49.28286694921553" lon="8.128109956160188">
<ele>183.39999999999998</ele>
<time>2023-05-17T14:25:42Z</time>
</trkpt>
<trkpt lat="49.28286292590201" lon="8.128067962825298">
<ele>183.39999999999998</ele>
<time>2023-05-17T14:25:43Z</time>
</trkpt>
<trkpt lat="49.28286292590201" lon="8.12802798114717">
<ele>183.60000000000002</ele>
<time>2023-05-17T14:25:44Z</time>
</trkpt>
<trkpt lat="49.28286192007363" lon="8.127991938963532">
<ele>183.60000000000002</ele>
<time>2023-05-17T14:25:45Z</time>
</trkpt>
<trkpt lat="49.28285697475076" lon="8.127952963113785">
<ele>183.79999999999995</ele>
<time>2023-05-17T14:25:46Z</time>
</trkpt>
<trkpt lat="49.28284498862922" lon="8.127912981435657">
<ele>183.79999999999995</ele>
<time>2023-05-17T14:25:47Z</time>
</trkpt>
<trkpt lat="49.282832918688655" lon="8.127871993929148">
<ele>184</ele>
<time>2023-05-17T14:25:48Z</time>
</trkpt>
<trkpt lat="49.2828269675374" lon="8.12783494591713">
<ele>184</ele>
<time>2023-05-17T14:25:49Z</time>
</trkpt>
<trkpt lat="49.2828219383955" lon="8.127801921218634">
<ele>184</ele>
<time>2023-05-17T14:25:50Z</time>
</trkpt>
<trkpt lat="49.28280693478882" lon="8.127776943147182">
<ele>184.20000000000005</ele>
<time>2023-05-17T14:25:51Z</time>
</trkpt>
<trkpt lat="49.28278296254575" lon="8.127756994217634">
<ele>184.20000000000005</ele>
<time>2023-05-17T14:25:52Z</time>
</trkpt>
<trkpt lat="49.28276292979717" lon="8.127741990610957">
<ele>184.20000000000005</ele>
<time>2023-05-17T14:25:53Z</time>
</trkpt>
<trkpt lat="49.282746920362115" lon="8.127724975347519">
<ele>184.20000000000005</ele>
<time>2023-05-17T14:25:54Z</time>
</trkpt>
<trkpt lat="49.28272998891771" lon="8.127699997276068">
<ele>184.20000000000005</ele>
<time>2023-05-17T14:25:55Z</time>
</trkpt>
<trkpt lat="49.28271699696779" lon="8.127672923728824">
<ele>184.20000000000005</ele>
<time>2023-05-17T14:25:56Z</time>
</trkpt>
<trkpt lat="49.28270693868399" lon="8.12764199450612">
<ele>184.39999999999998</ele>
<time>2023-05-17T14:25:57Z</time>
</trkpt>
<trkpt lat="49.28269797004759" lon="8.127609975636005">
<ele>184.39999999999998</ele>
<time>2023-05-17T14:25:58Z</time>
</trkpt>
<trkpt lat="49.28268992342055" lon="8.127581980079412">
<ele>184.39999999999998</ele>
<time>2023-05-17T14:25:59Z</time>
</trkpt>
<trkpt lat="49.282682966440916" lon="8.127551972866058">
<ele>184.39999999999998</ele>
<time>2023-05-17T14:26:00Z</time>
</trkpt>
<trkpt lat="49.28267198614776" lon="8.127527916803956">
<ele>184.60000000000002</ele>
<time>2023-05-17T14:26:01Z</time>
</trkpt>
<trkpt lat="49.282659916207194" lon="8.127502938732505">
<ele>184.60000000000002</ele>
<time>2023-05-17T14:26:02Z</time>
</trkpt>
<trkpt lat="49.28264692425728" lon="8.127474943175912">
<ele>184.60000000000002</ele>
<time>2023-05-17T14:26:03Z</time>
</trkpt>
<trkpt lat="49.28263292647898" lon="8.127442924305797">
<ele>184.79999999999995</ele>
<time>2023-05-17T14:26:04Z</time>
</trkpt>
<trkpt lat="49.28262496367097" lon="8.127412917092443">
<ele>184.79999999999995</ele>
<time>2023-05-17T14:26:05Z</time>
</trkpt>
<trkpt lat="49.282619934529066" lon="8.12738198786974">
<ele>184.79999999999995</ele>
<time>2023-05-17T14:26:06Z</time>
</trkpt>
<trkpt lat="49.282614989206195" lon="8.127347957342863">
<ele>185</ele>
<time>2023-05-17T14:26:07Z</time>
</trkpt>
<trkpt lat="49.28260794840753" lon="8.127324990928173">
<ele>185</ele>
<time>2023-05-17T14:26:08Z</time>
</trkpt>
<trkpt lat="49.28259998559952" lon="8.127302946522832">
<ele>185</ele>
<time>2023-05-17T14:26:09Z</time>
</trkpt>
<trkpt lat="49.2825869936496" lon="8.127287942916155">
<ele>185</ele>
<time>2023-05-17T14:26:10Z</time>
</trkpt>
<trkpt lat="49.28256696090102" lon="8.127269921824336">
<ele>185</ele>
<time>2023-05-17T14:26:11Z</time>
</trkpt>
<trkpt lat="49.28254298865795" lon="8.12725692987442">
<ele>185</ele>
<time>2023-05-17T14:26:12Z</time>
</trkpt>
<trkpt lat="49.28252295590937" lon="8.127242932096124">
<ele>185.20000000000005</ele>
<time>2023-05-17T14:26:13Z</time>
</trkpt>
<trkpt lat="49.282506946474314" lon="8.127231951802969">
<ele>185.20000000000005</ele>
<time>2023-05-17T14:26:14Z</time>
</trkpt>
<trkpt lat="49.282489931210876" lon="8.127221977338195">
<ele>185.20000000000005</ele>
<time>2023-05-17T14:26:15Z</time>
</trkpt>
<trkpt lat="49.2824799567461" lon="8.12721493653953">
<ele>185.20000000000005</ele>
<time>2023-05-17T14:26:16Z</time>
</trkpt>
<trkpt lat="49.28245296701789" lon="8.127197921276093">
<ele>185.20000000000005</ele>
<time>2023-05-17T14:26:17Z</time>
</trkpt>
<trkpt lat="49.282441986724734" lon="8.127186940982938">
<ele>185.39999999999998</ele>
<time>2023-05-17T14:26:18Z</time>
</trkpt>
<trkpt lat="49.28243796341121" lon="8.127187946811318">
<ele>185.39999999999998</ele>
<time>2023-05-17T14:26:19Z</time>
</trkpt>
<trkpt lat="49.28243997506797" lon="8.127179984003305">
<ele>185.39999999999998</ele>
<time>2023-05-17T14:26:20Z</time>
</trkpt>
<trkpt lat="49.282441986724734" lon="8.127181995660067">
<ele>185.39999999999998</ele>
<time>2023-05-17T14:26:21Z</time>
</trkpt>
<trkpt lat="49.282446932047606" lon="8.127187946811318">
<ele>185.39999999999998</ele>
<time>2023-05-17T14:26:22Z</time>
</trkpt>
<trkpt lat="49.28245699033141" lon="8.12718995846808">
<ele>185.39999999999998</ele>
<time>2023-05-17T14:26:23Z</time>
</trkpt>
<trkpt lat="49.28246998228133" lon="8.12719197012484">
<ele>185.39999999999998</ele>
<time>2023-05-17T14:26:24Z</time>
</trkpt>
<trkpt lat="49.282489931210876" lon="8.127197921276093">
<ele>185.39999999999998</ele>
<time>2023-05-17T14:26:25Z</time>
</trkpt>
<trkpt lat="49.282506946474314" lon="8.127211919054389">
<ele>185.39999999999998</ele>
<time>2023-05-17T14:26:26Z</time>
</trkpt>
<trkpt lat="49.28252496756613" lon="8.12723496928811">
<ele>185.39999999999998</ele>
<time>2023-05-17T14:26:27Z</time>
</trkpt>
<trkpt lat="49.28253695368767" lon="8.127237986773252">
<ele>185.39999999999998</ele>
<time>2023-05-17T14:26:28Z</time>
</trkpt>
<trkpt lat="49.28253795951605" lon="8.12723295763135">
<ele>185.39999999999998</ele>
<time>2023-05-17T14:26:29Z</time>
</trkpt>
<trkpt lat="49.28254491649568" lon="8.127201944589615">
<ele>185.39999999999998</ele>
<time>2023-05-17T14:26:30Z</time>
</trkpt>
<trkpt lat="49.28256193175912" lon="8.12716799788177">
<ele>185.39999999999998</ele>
<time>2023-05-17T14:26:31Z</time>
</trkpt>
<trkpt lat="49.282574923709035" lon="8.127132961526513">
<ele>185.39999999999998</ele>
<time>2023-05-17T14:26:32Z</time>
</trkpt>
<trkpt lat="49.28258992731571" lon="8.127101948484778">
<ele>185.39999999999998</ele>
<time>2023-05-17T14:26:33Z</time>
</trkpt>
<trkpt lat="49.28260694257915" lon="8.127067917957902">
<ele>185.39999999999998</ele>
<time>2023-05-17T14:26:34Z</time>
</trkpt>
<trkpt lat="49.28262295201421" lon="8.127034977078438">
<ele>185.39999999999998</ele>
<time>2023-05-17T14:26:35Z</time>
</trkpt>
<trkpt lat="49.28262697532773" lon="8.12699499540031">
<ele>185.39999999999998</ele>
<time>2023-05-17T14:26:36Z</time>
</trkpt>
<trkpt lat="49.282637955620885" lon="8.12695492990315">
<ele>185.39999999999998</ele>
<time>2023-05-17T14:26:37Z</time>
</trkpt>
<trkpt lat="49.282639967277646" lon="8.12691293656826">
<ele>185.39999999999998</ele>
<time>2023-05-17T14:26:38Z</time>
</trkpt>
<trkpt lat="49.28263493813574" lon="8.126874966546893">
<ele>185.39999999999998</ele>
<time>2023-05-17T14:26:39Z</time>
</trkpt>
<trkpt lat="49.28262999281287" lon="8.126839930191636">
<ele>185.39999999999998</ele>
<time>2023-05-17T14:26:40Z</time>
</trkpt>
<trkpt lat="49.282662933692336" lon="8.126816963776946">
<ele>185.39999999999998</ele>
<time>2023-05-17T14:26:41Z</time>
</trkpt>
<trkpt lat="49.28267793729901" lon="8.126791985705495">
<ele>185.60000000000002</ele>
<time>2023-05-17T14:26:42Z</time>
</trkpt>
<trkpt lat="49.28268799558282" lon="8.126757955178618">
<ele>185.60000000000002</ele>
<time>2023-05-17T14:26:43Z</time>
</trkpt>
<trkpt lat="49.28269797004759" lon="8.12671797350049">
<ele>185.60000000000002</ele>
<time>2023-05-17T14:26:44Z</time>
</trkpt>
<trkpt lat="49.28271196782589" lon="8.12667497433722">
<ele>185.60000000000002</ele>
<time>2023-05-17T14:26:45Z</time>
</trkpt>
<trkpt lat="49.282721942290664" lon="8.126626946032047">
<ele>185.60000000000002</ele>
<time>2023-05-17T14:26:46Z</time>
</trkpt>
<trkpt lat="49.28272998891771" lon="8.126579923555255">
<ele>185.60000000000002</ele>
<time>2023-05-17T14:26:47Z</time>
</trkpt>
<trkpt lat="49.28273795172572" lon="8.126539941877127">
<ele>185.79999999999995</ele>
<time>2023-05-17T14:26:48Z</time>
</trkpt>
<trkpt lat="49.28273795172572" lon="8.126491997390985">
<ele>185.79999999999995</ele>
<time>2023-05-17T14:26:49Z</time>
</trkpt>
<trkpt lat="49.28273292258382" lon="8.126446986570954">
<ele>185.79999999999995</ele>
<time>2023-05-17T14:26:50Z</time>
</trkpt>
<trkpt lat="49.282724959775805" lon="8.126412956044078">
<ele>185.79999999999995</ele>
<time>2023-05-17T14:26:51Z</time>
</trkpt>
<trkpt lat="49.28271196782589" lon="8.126384960487485">
<ele>186</ele>
<time>2023-05-17T14:26:52Z</time>
</trkpt>
<trkpt lat="49.28269294090569" lon="8.126364927738905">
<ele>186</ele>
<time>2023-05-17T14:26:53Z</time>
</trkpt>
<trkpt lat="49.28267198614776" lon="8.126356964930892">
<ele>186</ele>
<time>2023-05-17T14:26:54Z</time>
</trkpt>
<trkpt lat="49.28264793008566" lon="8.126347996294498">
<ele>186</ele>
<time>2023-05-17T14:26:55Z</time>
</trkpt>
<trkpt lat="49.28262496367097" lon="8.126346990466118">
<ele>186</ele>
<time>2023-05-17T14:26:56Z</time>
</trkpt>
<trkpt lat="49.28260199725628" lon="8.126344978809357">
<ele>186.20000000000005</ele>
<time>2023-05-17T14:26:57Z</time>
</trkpt>
<trkpt lat="49.282576935365796" lon="8.126342967152596">
<ele>186.20000000000005</ele>
<time>2023-05-17T14:26:58Z</time>
</trkpt>
<trkpt lat="49.282551957294345" lon="8.126336932182312">
<ele>186.20000000000005</ele>
<time>2023-05-17T14:26:59Z</time>
</trkpt>
<trkpt lat="49.28252195008099" lon="8.126332992687821">
<ele>186.20000000000005</ele>
<time>2023-05-17T14:27:00Z</time>
</trkpt>
<trkpt lat="49.28249697200954" lon="8.12633198685944">
<ele>186.39999999999998</ele>
<time>2023-05-17T14:27:01Z</time>
</trkpt>
<trkpt lat="49.28247299976647" lon="8.12633198685944">
<ele>186.39999999999998</ele>
<time>2023-05-17T14:27:02Z</time>
</trkpt>
<trkpt lat="49.28244994953275" lon="8.126332992687821">
<ele>186.39999999999998</ele>
<time>2023-05-17T14:27:03Z</time>
</trkpt>
<trkpt lat="49.282424971461296" lon="8.12633492052555">
<ele>186.39999999999998</ele>
<time>2023-05-17T14:27:04Z</time>
</trkpt>
<trkpt lat="49.282402927055955" lon="8.126336932182312">
<ele>186.39999999999998</ele>
<time>2023-05-17T14:27:05Z</time>
</trkpt>
<trkpt lat="49.28238297812641" lon="8.126339949667454">
<ele>186.39999999999998</ele>
<time>2023-05-17T14:27:06Z</time>
</trkpt>
<trkpt lat="49.28236294537783" lon="8.126342967152596">
<ele>186.39999999999998</ele>
<time>2023-05-17T14:27:07Z</time>
</trkpt>
<trkpt lat="49.28234693594277" lon="8.12635294161737">
<ele>186.39999999999998</ele>
<time>2023-05-17T14:27:08Z</time>
</trkpt>
<trkpt lat="49.28232698701322" lon="8.126364927738905">
<ele>186.39999999999998</ele>
<time>2023-05-17T14:27:09Z</time>
</trkpt>
<trkpt lat="49.28230997174978" lon="8.12637791968882">
<ele>186.39999999999998</ele>
<time>2023-05-17T14:27:10Z</time>
</trkpt>
<trkpt lat="49.28229798562825" lon="8.126384960487485">
<ele>186.60000000000002</ele>
<time>2023-05-17T14:27:11Z</time>
</trkpt>
<trkpt lat="49.28228499367833" lon="8.126387977972627">
<ele>186.60000000000002</ele>
<time>2023-05-17T14:27:12Z</time>
</trkpt>
<trkpt lat="49.28226697258651" lon="8.126387977972627">
<ele>186.60000000000002</ele>
<time>2023-05-17T14:27:13Z</time>
</trkpt>
<trkpt lat="49.282251968979836" lon="8.126384960487485">
<ele>186.60000000000002</ele>
<time>2023-05-17T14:27:14Z</time>
</trkpt>
<trkpt lat="49.282232942059636" lon="8.126382948830724">
<ele>186.60000000000002</ele>
<time>2023-05-17T14:27:15Z</time>
</trkpt>
<trkpt lat="49.28221492096782" lon="8.126381943002343">
<ele>186.60000000000002</ele>
<time>2023-05-17T14:27:16Z</time>
</trkpt>
<trkpt lat="49.28219296038151" lon="8.126381943002343">
<ele>186.60000000000002</ele>
<time>2023-05-17T14:27:17Z</time>
</trkpt>
<trkpt lat="49.28217493928969" lon="8.126376997679472">
<ele>186.79999999999995</ele>
<time>2023-05-17T14:27:18Z</time>
</trkpt>
<trkpt lat="49.28215691819787" lon="8.126381943002343">
<ele>186.79999999999995</ele>
<time>2023-05-17T14:27:19Z</time>
</trkpt>
<trkpt lat="49.2821379750967" lon="8.126382948830724">
<ele>186.79999999999995</ele>
<time>2023-05-17T14:27:20Z</time>
</trkpt>
<trkpt lat="49.28211492486298" lon="8.126386972144246">
<ele>186.79999999999995</ele>
<time>2023-05-17T14:27:21Z</time>
</trkpt>
<trkpt lat="49.28208994679153" lon="8.126389989629388">
<ele>186.79999999999995</ele>
<time>2023-05-17T14:27:22Z</time>
</trkpt>
<trkpt lat="49.282057927921414" lon="8.126394934952259">
<ele>186.79999999999995</ele>
<time>2023-05-17T14:27:23Z</time>
</trkpt>
<trkpt lat="49.28203294984996" lon="8.126389989629388">
<ele>186.79999999999995</ele>
<time>2023-05-17T14:27:24Z</time>
</trkpt>
<trkpt lat="49.28200998343527" lon="8.126387977972627">
<ele>186.79999999999995</ele>
<time>2023-05-17T14:27:25Z</time>
</trkpt>
<trkpt lat="49.28198995068669" lon="8.126382948830724">
<ele>186.79999999999995</ele>
<time>2023-05-17T14:27:26Z</time>
</trkpt>
<trkpt lat="49.281972935423255" lon="8.126386972144246">
<ele>186.79999999999995</ele>
<time>2023-05-17T14:27:27Z</time>
</trkpt>
<trkpt lat="49.28195793181658" lon="8.126391917467117">
<ele>186.79999999999995</ele>
<time>2023-05-17T14:27:28Z</time>
</trkpt>
<trkpt lat="49.2819429282099" lon="8.126389989629388">
<ele>186.79999999999995</ele>
<time>2023-05-17T14:27:29Z</time>
</trkpt>
<trkpt lat="49.28193496540189" lon="8.126382948830724">
<ele>186.79999999999995</ele>
<time>2023-05-17T14:27:30Z</time>
</trkpt>
<trkpt lat="49.281929936259985" lon="8.126381943002343">
<ele>186.79999999999995</ele>
<time>2023-05-17T14:27:31Z</time>
</trkpt>
<trkpt lat="49.281927924603224" lon="8.126381943002343">
<ele>186.79999999999995</ele>
<time>2023-05-17T14:27:32Z</time>
</trkpt>
<trkpt lat="49.28192691877484" lon="8.12637791968882">
<ele>186.79999999999995</ele>
<time>2023-05-17T14:27:33Z</time>
</trkpt>
<trkpt lat="49.28192297928035" lon="8.126376997679472">
<ele>186.79999999999995</ele>
<time>2023-05-17T14:27:34Z</time>
</trkpt>
<trkpt lat="49.28191493265331" lon="8.12631195411086">
<ele>186.79999999999995</ele>
<time>2023-05-17T14:27:34Z</time>
</trkpt>
<trkpt lat="49.28191292099655" lon="8.12628798186779">
<ele>186.79999999999995</ele>
<time>2023-05-17T14:27:35Z</time>
</trkpt>
<trkpt lat="49.28191292099655" lon="8.126261997967958">
<ele>186.79999999999995</ele>
<time>2023-05-17T14:27:36Z</time>
</trkpt>
<trkpt lat="49.28191292099655" lon="8.126239953562617">
<ele>186.79999999999995</ele>
<time>2023-05-17T14:27:37Z</time>
</trkpt>
<trkpt lat="49.28191493265331" lon="8.126222938299179">
<ele>186.79999999999995</ele>
<time>2023-05-17T14:27:38Z</time>
</trkpt>
<trkpt lat="49.28191996179521" lon="8.12620491720736">
<ele>186.79999999999995</ele>
<time>2023-05-17T14:27:39Z</time>
</trkpt>
<trkpt lat="49.28192297928035" lon="8.12618295662105">
<ele>187</ele>
<time>2023-05-17T14:27:40Z</time>
</trkpt>
<trkpt lat="49.281924990937114" lon="8.12616292387247">
<ele>187</ele>
<time>2023-05-17T14:27:41Z</time>
</trkpt>
<trkpt lat="49.281929936259985" lon="8.126142974942923">
<ele>187</ele>
<time>2023-05-17T14:27:42Z</time>
</trkpt>
<trkpt lat="49.281931947916746" lon="8.126124953851104">
<ele>187</ele>
<time>2023-05-17T14:27:43Z</time>
</trkpt>
<trkpt lat="49.28193697705865" lon="8.126104921102524">
<ele>187</ele>
<time>2023-05-17T14:27:44Z</time>
</trkpt>
<trkpt lat="49.28193999454379" lon="8.12609695829451">
<ele>186.79999999999995</ele>
<time>2023-05-17T14:27:45Z</time>
</trkpt>
<trkpt lat="49.28194493986666" lon="8.126087989658117">
<ele>186.79999999999995</ele>
<time>2023-05-17T14:27:46Z</time>
</trkpt>
<trkpt lat="49.281949969008565" lon="8.126079943031073">
<ele>186.79999999999995</ele>
<time>2023-05-17T14:27:47Z</time>
</trkpt>
<trkpt lat="49.281949969008565" lon="8.126064939424396">
<ele>186.79999999999995</ele>
<time>2023-05-17T14:27:48Z</time>
</trkpt>
<trkpt lat="49.281951980665326" lon="8.12605194747448">
<ele>186.79999999999995</ele>
<time>2023-05-17T14:27:49Z</time>
</trkpt>
<trkpt lat="49.281951980665326" lon="8.126049935817719">
<ele>186.79999999999995</ele>
<time>2023-05-17T14:27:50Z</time>
</trkpt>
<trkpt lat="49.281951980665326" lon="8.126046918332577">
<ele>186.79999999999995</ele>
<time>2023-05-17T14:27:51Z</time>
</trkpt>
<trkpt lat="49.281951980665326" lon="8.126046918332577">
<ele>186.79999999999995</ele>
</trkpt>
</trkseg>
</trk>
</gpx>